<?xml version='1.0' encoding='UTF-8'?><gpx version="1.1" creator="JPX - https://github.com/jenetics/jpx" xmlns="http://www.topografix.com/GPX/1/1"><trk><trkseg><trkpt lat="41.476793" lon="13.110696"><ele>42.333333333333336</ele><time>2026-05-03T06:55:47.365Z</time></trkpt><trkpt lat="41.476921" lon="13.110818"><ele>42.66666666666667</ele><time>2026-05-03T06:55:48.355Z</time></trkpt><trkpt lat="41.4770682" lon="13.110958"><ele>43.0</ele><time>2026-05-03T06:55:49.366Z</time></trkpt><trkpt lat="41.4772323" lon="13.1111166"><ele>44.0</ele><time>2026-05-03T06:55:50.36Z</time></trkpt><trkpt lat="41.4774059" lon="13.111295"><ele>45.0</ele><time>2026-05-03T06:55:51.37Z</time></trkpt><trkpt lat="41.4775782" lon="13.1115032"><ele>45.0</ele><time>2026-05-03T06:55:52.36Z</time></trkpt><trkpt lat="41.4777558" lon="13.1117405"><ele>45.0</ele><time>2026-05-03T06:55:53.361Z</time></trkpt><trkpt lat="41.4779453" lon="13.1120181"><ele>46.5</ele><time>2026-05-03T06:55:54.362Z</time></trkpt><trkpt lat="41.4781497" lon="13.1123282"><ele>48.0</ele><time>2026-05-03T06:55:55.362Z</time></trkpt><trkpt lat="41.4783489" lon="13.1126398"><ele>48.0</ele><time>2026-05-03T06:55:56.371Z</time></trkpt><trkpt lat="41.478536" lon="13.1129367"><ele>48.0</ele><time>2026-05-03T06:55:57.362Z</time></trkpt><trkpt lat="41.4787063" lon="13.1132114"><ele>50.5</ele><time>2026-05-03T06:55:58.363Z</time></trkpt><trkpt lat="41.47886" lon="13.1134676"><ele>53.0</ele><time>2026-05-03T06:55:59.367Z</time></trkpt><trkpt lat="41.4790005" lon="13.11371"><ele>53.0</ele><time>2026-05-03T06:56:00.36Z</time></trkpt><trkpt lat="41.479124" lon="13.1139464"><ele>53.0</ele><time>2026-05-03T06:56:01.362Z</time></trkpt><trkpt lat="41.4792418" lon="13.1141751"><ele>53.0</ele><time>2026-05-03T06:56:02.363Z</time></trkpt><trkpt lat="41.4793534" lon="13.1143983"><ele>52.66666666666667</ele><time>2026-05-03T06:56:03.369Z</time></trkpt><trkpt lat="41.4794719" lon="13.1146072"><ele>52.33333333333333</ele><time>2026-05-03T06:56:04.368Z</time></trkpt><trkpt lat="41.4795979" lon="13.1148064"><ele>52.0</ele><time>2026-05-03T06:56:05.362Z</time></trkpt><trkpt lat="41.4797271" lon="13.1150029"><ele>52.0</ele><time>2026-05-03T06:56:06.361Z</time></trkpt><trkpt lat="41.4798542" lon="13.1151971"><ele>52.0</ele><time>2026-05-03T06:56:07.36Z</time></trkpt><trkpt lat="41.4799831" lon="13.1153888"><ele>52.0</ele><time>2026-05-03T06:56:08.363Z</time></trkpt><trkpt lat="41.4801086" lon="13.1155806"><ele>51.33333333333333</ele><time>2026-05-03T06:56:09.368Z</time></trkpt><trkpt lat="41.4802316" lon="13.1157692"><ele>50.66666666666667</ele><time>2026-05-03T06:56:10.364Z</time></trkpt><trkpt lat="41.4803556" lon="13.1159536"><ele>50.0</ele><time>2026-05-03T06:56:11.361Z</time></trkpt><trkpt lat="41.4804755" lon="13.1161355"><ele>51.333333333333336</ele><time>2026-05-03T06:56:12.362Z</time></trkpt><trkpt lat="41.4805969" lon="13.1163179"><ele>52.66666666666667</ele><time>2026-05-03T06:56:13.368Z</time></trkpt><trkpt lat="41.4807162" lon="13.1164984"><ele>54.0</ele><time>2026-05-03T06:56:14.369Z</time></trkpt><trkpt lat="41.4808339" lon="13.1166797"><ele>54.0</ele><time>2026-05-03T06:56:15.363Z</time></trkpt><trkpt lat="41.480952" lon="13.1168585"><ele>54.0</ele><time>2026-05-03T06:56:16.358Z</time></trkpt><trkpt lat="41.4810702" lon="13.1170364"><ele>54.0</ele><time>2026-05-03T06:56:17.369Z</time></trkpt><trkpt lat="41.481184" lon="13.1172142"><ele>55.0</ele><time>2026-05-03T06:56:18.36Z</time></trkpt><trkpt lat="41.4812938" lon="13.1173955"><ele>56.0</ele><time>2026-05-03T06:56:19.368Z</time></trkpt><trkpt lat="41.4814023" lon="13.1175787"><ele>57.0</ele><time>2026-05-03T06:56:20.361Z</time></trkpt><trkpt lat="41.4815024" lon="13.117766"><ele>57.0</ele><time>2026-05-03T06:56:21.363Z</time></trkpt><trkpt lat="41.4816021" lon="13.1179571"><ele>57.0</ele><time>2026-05-03T06:56:22.365Z</time></trkpt><trkpt lat="41.4816993" lon="13.1181522"><ele>57.0</ele><time>2026-05-03T06:56:23.364Z</time></trkpt><trkpt lat="41.4817977" lon="13.118347"><ele>56.33333333333333</ele><time>2026-05-03T06:56:24.358Z</time></trkpt><trkpt lat="41.4818944" lon="13.1185421"><ele>55.666666666666664</ele><time>2026-05-03T06:56:25.361Z</time></trkpt><trkpt lat="41.4819948" lon="13.1187356"><ele>55.0</ele><time>2026-05-03T06:56:26.358Z</time></trkpt><trkpt lat="41.4820942" lon="13.118933"><ele>56.33333333333333</ele><time>2026-05-03T06:56:27.357Z</time></trkpt><trkpt lat="41.4821938" lon="13.1191309"><ele>57.66666666666667</ele><time>2026-05-03T06:56:28.355Z</time></trkpt><trkpt lat="41.4822915" lon="13.1193284"><ele>59.0</ele><time>2026-05-03T06:56:29.358Z</time></trkpt><trkpt lat="41.4823844" lon="13.1195295"><ele>59.0</ele><time>2026-05-03T06:56:30.356Z</time></trkpt><trkpt lat="41.4824744" lon="13.119732"><ele>59.0</ele><time>2026-05-03T06:56:31.354Z</time></trkpt><trkpt lat="41.4825548" lon="13.1199377"><ele>59.0</ele><time>2026-05-03T06:56:32.357Z</time></trkpt><trkpt lat="41.4826284" lon="13.1201466"><ele>58.66666666666667</ele><time>2026-05-03T06:56:33.358Z</time></trkpt><trkpt lat="41.4826915" lon="13.1203497"><ele>58.33333333333333</ele><time>2026-05-03T06:56:34.357Z</time></trkpt><trkpt lat="41.4827443" lon="13.1205545"><ele>58.0</ele><time>2026-05-03T06:56:35.36Z</time></trkpt><trkpt lat="41.4827951" lon="13.1207655"><ele>58.0</ele><time>2026-05-03T06:56:36.357Z</time></trkpt><trkpt lat="41.4828478" lon="13.1209729"><ele>58.0</ele><time>2026-05-03T06:56:37.371Z</time></trkpt><trkpt lat="41.4829029" lon="13.1211574"><ele>58.0</ele><time>2026-05-03T06:56:38.359Z</time></trkpt><trkpt lat="41.4829578" lon="13.1213221"><ele>58.0</ele><time>2026-05-03T06:56:39.366Z</time></trkpt><trkpt lat="41.4830086" lon="13.1214738"><ele>58.0</ele><time>2026-05-03T06:56:40.363Z</time></trkpt><trkpt lat="41.4830622" lon="13.1216213"><ele>58.0</ele><time>2026-05-03T06:56:41.358Z</time></trkpt><trkpt lat="41.4831195" lon="13.121771"><ele>58.0</ele><time>2026-05-03T06:56:42.377Z</time></trkpt><trkpt lat="41.4831835" lon="13.1219358"><ele>58.0</ele><time>2026-05-03T06:56:43.371Z</time></trkpt><trkpt lat="41.4832493" lon="13.1221182"><ele>58.0</ele><time>2026-05-03T06:56:44.36Z</time></trkpt><trkpt lat="41.4833201" lon="13.1223122"><ele>58.0</ele><time>2026-05-03T06:56:45.366Z</time></trkpt><trkpt lat="41.4833993" lon="13.1225136"><ele>58.0</ele><time>2026-05-03T06:56:46.362Z</time></trkpt><trkpt lat="41.483484" lon="13.1227256"><ele>57.33333333333333</ele><time>2026-05-03T06:56:47.361Z</time></trkpt><trkpt lat="41.4835745" lon="13.1229467"><ele>56.66666666666667</ele><time>2026-05-03T06:56:48.366Z</time></trkpt><trkpt lat="41.4836611" lon="13.1231856"><ele>56.0</ele><time>2026-05-03T06:56:49.36Z</time></trkpt><trkpt lat="41.4837408" lon="13.1234327"><ele>55.66666666666667</ele><time>2026-05-03T06:56:50.369Z</time></trkpt><trkpt lat="41.4838109" lon="13.1236891"><ele>55.33333333333333</ele><time>2026-05-03T06:56:51.361Z</time></trkpt><trkpt lat="41.4838687" lon="13.1239519"><ele>55.0</ele><time>2026-05-03T06:56:52.363Z</time></trkpt><trkpt lat="41.4839204" lon="13.124222"><ele>54.0</ele><time>2026-05-03T06:56:53.369Z</time></trkpt><trkpt lat="41.4839696" lon="13.1244946"><ele>53.0</ele><time>2026-05-03T06:56:54.362Z</time></trkpt><trkpt lat="41.4840205" lon="13.1247578"><ele>52.0</ele><time>2026-05-03T06:56:55.361Z</time></trkpt><trkpt lat="41.4840762" lon="13.1250404"><ele>51.0</ele><time>2026-05-03T06:56:56.36Z</time></trkpt><trkpt lat="41.4841323" lon="13.1253448"><ele>50.0</ele><time>2026-05-03T06:56:57.368Z</time></trkpt><trkpt lat="41.4841841" lon="13.1256649"><ele>50.0</ele><time>2026-05-03T06:56:58.374Z</time></trkpt><trkpt lat="41.4842324" lon="13.1259711"><ele>50.0</ele><time>2026-05-03T06:56:59.369Z</time></trkpt><trkpt lat="41.4842799" lon="13.1262483"><ele>50.0</ele><time>2026-05-03T06:57:00.368Z</time></trkpt><trkpt lat="41.4843267" lon="13.1265024"><ele>52.0</ele><time>2026-05-03T06:57:01.365Z</time></trkpt><trkpt lat="41.4843812" lon="13.1267322"><ele>54.0</ele><time>2026-05-03T06:57:02.362Z</time></trkpt><trkpt lat="41.4844426" lon="13.1269568"><ele>56.0</ele><time>2026-05-03T06:57:03.359Z</time></trkpt><trkpt lat="41.4845135" lon="13.1271861"><ele>57.66666666666667</ele><time>2026-05-03T06:57:04.361Z</time></trkpt><trkpt lat="41.4845952" lon="13.1274138"><ele>59.33333333333333</ele><time>2026-05-03T06:57:05.367Z</time></trkpt><trkpt lat="41.484681" lon="13.1276423"><ele>61.0</ele><time>2026-05-03T06:57:06.36Z</time></trkpt><trkpt lat="41.4847751" lon="13.1278698"><ele>56.666666666666664</ele><time>2026-05-03T06:57:07.365Z</time></trkpt><trkpt lat="41.4848762" lon="13.1280979"><ele>52.33333333333333</ele><time>2026-05-03T06:57:08.363Z</time></trkpt><trkpt lat="41.4849753" lon="13.1283288"><ele>48.0</ele><time>2026-05-03T06:57:09.37Z</time></trkpt><trkpt lat="41.4850763" lon="13.1285609"><ele>48.0</ele><time>2026-05-03T06:57:10.364Z</time></trkpt><trkpt lat="41.4851799" lon="13.128795"><ele>48.0</ele><time>2026-05-03T06:57:11.372Z</time></trkpt><trkpt lat="41.4852787" lon="13.1290294"><ele>48.0</ele><time>2026-05-03T06:57:12.361Z</time></trkpt><trkpt lat="41.485366" lon="13.129268"><ele>47.333333333333336</ele><time>2026-05-03T06:57:13.363Z</time></trkpt><trkpt lat="41.4854364" lon="13.1295143"><ele>46.66666666666667</ele><time>2026-05-03T06:57:14.37Z</time></trkpt><trkpt lat="41.485507" lon="13.1297825"><ele>46.0</ele><time>2026-05-03T06:57:15.362Z</time></trkpt><trkpt lat="41.4855746" lon="13.1300761"><ele>45.5</ele><time>2026-05-03T06:57:16.368Z</time></trkpt><trkpt lat="41.4856417" lon="13.1303789"><ele>45.0</ele><time>2026-05-03T06:57:17.364Z</time></trkpt><trkpt lat="41.4857084" lon="13.130677"><ele>44.666666666666664</ele><time>2026-05-03T06:57:18.36Z</time></trkpt><trkpt lat="41.4857743" lon="13.1309721"><ele>44.33333333333333</ele><time>2026-05-03T06:57:19.36Z</time></trkpt><trkpt lat="41.4858338" lon="13.1312472"><ele>44.0</ele><time>2026-05-03T06:57:20.372Z</time></trkpt><trkpt lat="41.4858907" lon="13.1315146"><ele>43.33333333333333</ele><time>2026-05-03T06:57:21.363Z</time></trkpt><trkpt lat="41.4859446" lon="13.1317815"><ele>42.666666666666664</ele><time>2026-05-03T06:57:22.358Z</time></trkpt><trkpt lat="41.4860005" lon="13.1320446"><ele>42.0</ele><time>2026-05-03T06:57:23.366Z</time></trkpt><trkpt lat="41.4860461" lon="13.1322965"><ele>42.0</ele><time>2026-05-03T06:57:24.368Z</time></trkpt><trkpt lat="41.4860812" lon="13.1325472"><ele>42.0</ele><time>2026-05-03T06:57:25.358Z</time></trkpt><trkpt lat="41.4861132" lon="13.1328138"><ele>42.0</ele><time>2026-05-03T06:57:26.368Z</time></trkpt><trkpt lat="41.4861461" lon="13.1331196"><ele>42.5</ele><time>2026-05-03T06:57:27.369Z</time></trkpt><trkpt lat="41.4861825" lon="13.1334538"><ele>43.0</ele><time>2026-05-03T06:57:28.367Z</time></trkpt><trkpt lat="41.4862102" lon="13.1337978"><ele>44.0</ele><time>2026-05-03T06:57:29.359Z</time></trkpt><trkpt lat="41.4862328" lon="13.1341434"><ele>45.0</ele><time>2026-05-03T06:57:30.363Z</time></trkpt><trkpt lat="41.4862575" lon="13.1344783"><ele>44.0</ele><time>2026-05-03T06:57:31.363Z</time></trkpt><trkpt lat="41.4862806" lon="13.1348078"><ele>43.0</ele><time>2026-05-03T06:57:32.363Z</time></trkpt><trkpt lat="41.4863077" lon="13.1351367"><ele>43.0</ele><time>2026-05-03T06:57:33.369Z</time></trkpt><trkpt lat="41.4863333" lon="13.1354584"><ele>43.0</ele><time>2026-05-03T06:57:34.358Z</time></trkpt><trkpt lat="41.4863572" lon="13.1357586"><ele>41.5</ele><time>2026-05-03T06:57:35.36Z</time></trkpt><trkpt lat="41.486381" lon="13.1360687"><ele>40.0</ele><time>2026-05-03T06:57:36.365Z</time></trkpt><trkpt lat="41.4864136" lon="13.1363928"><ele>40.0</ele><time>2026-05-03T06:57:37.367Z</time></trkpt><trkpt lat="41.4864473" lon="13.1367149"><ele>40.0</ele><time>2026-05-03T06:57:38.356Z</time></trkpt><trkpt lat="41.4864785" lon="13.1370069"><ele>40.0</ele><time>2026-05-03T06:57:39.361Z</time></trkpt><trkpt lat="41.4865024" lon="13.1372776"><ele>40.0</ele><time>2026-05-03T06:57:40.359Z</time></trkpt><trkpt lat="41.4865239" lon="13.1375264"><ele>40.0</ele><time>2026-05-03T06:57:41.36Z</time></trkpt><trkpt lat="41.4865483" lon="13.1377571"><ele>40.0</ele><time>2026-05-03T06:57:42.366Z</time></trkpt><trkpt lat="41.4865654" lon="13.1379815"><ele>40.0</ele><time>2026-05-03T06:57:43.373Z</time></trkpt><trkpt lat="41.4865858" lon="13.1381818"><ele>40.0</ele><time>2026-05-03T06:57:44.362Z</time></trkpt><trkpt lat="41.486601" lon="13.1383694"><ele>40.0</ele><time>2026-05-03T06:57:45.362Z</time></trkpt><trkpt lat="41.4866191" lon="13.1385445"><ele>40.0</ele><time>2026-05-03T06:57:46.366Z</time></trkpt><trkpt lat="41.4866337" lon="13.1387005"><ele>40.0</ele><time>2026-05-03T06:57:47.363Z</time></trkpt><trkpt lat="41.4866456" lon="13.1388496"><ele>40.0</ele><time>2026-05-03T06:57:48.359Z</time></trkpt><trkpt lat="41.4866593" lon="13.1389856"><ele>39.833333333333336</ele><time>2026-05-03T06:57:49.367Z</time></trkpt><trkpt lat="41.4866706" lon="13.139106"><ele>39.66666666666667</ele><time>2026-05-03T06:57:50.362Z</time></trkpt><trkpt lat="41.4866815" lon="13.1392183"><ele>39.5</ele><time>2026-05-03T06:57:51.367Z</time></trkpt><trkpt lat="41.4866935" lon="13.1393227"><ele>39.333333333333336</ele><time>2026-05-03T06:57:52.358Z</time></trkpt><trkpt lat="41.4867013" lon="13.1394215"><ele>39.166666666666664</ele><time>2026-05-03T06:57:53.363Z</time></trkpt><trkpt lat="41.4867097" lon="13.139509"><ele>39.0</ele><time>2026-05-03T06:57:54.362Z</time></trkpt><trkpt lat="41.4867256" lon="13.1396663"><ele>39.0</ele><time>2026-05-03T06:57:56.369Z</time></trkpt><trkpt lat="41.4867379" lon="13.1397937"><ele>39.0</ele><time>2026-05-03T06:57:58.363Z</time></trkpt><trkpt lat="41.4867504" lon="13.1399035"><ele>39.0</ele><time>2026-05-03T06:58:00.371Z</time></trkpt><trkpt lat="41.4867586" lon="13.1400032"><ele>39.0</ele><time>2026-05-03T06:58:02.358Z</time></trkpt><trkpt lat="41.4867663" lon="13.1400942"><ele>39.0</ele><time>2026-05-03T06:58:04.358Z</time></trkpt><trkpt lat="41.486773" lon="13.1401898"><ele>39.0</ele><time>2026-05-03T06:58:07.452Z</time></trkpt><trkpt lat="41.486795" lon="13.140283"><ele>39.2</ele><time>2026-05-03T06:58:23.362Z</time></trkpt><trkpt lat="41.4868004" lon="13.1404288"><ele>39.4</ele><time>2026-05-03T06:58:25.373Z</time></trkpt><trkpt lat="41.4868064" lon="13.1405381"><ele>39.6</ele><time>2026-05-03T06:58:26.371Z</time></trkpt><trkpt lat="41.4868164" lon="13.1406852"><ele>39.8</ele><time>2026-05-03T06:58:27.369Z</time></trkpt><trkpt lat="41.4868317" lon="13.1408654"><ele>40.0</ele><time>2026-05-03T06:58:28.377Z</time></trkpt><trkpt lat="41.4868535" lon="13.1411033"><ele>40.0</ele><time>2026-05-03T06:58:29.369Z</time></trkpt><trkpt lat="41.4868764" lon="13.141379"><ele>40.0</ele><time>2026-05-03T06:58:30.36Z</time></trkpt><trkpt lat="41.4869017" lon="13.1416706"><ele>40.0</ele><time>2026-05-03T06:58:31.368Z</time></trkpt><trkpt lat="41.4869276" lon="13.1419572"><ele>40.0</ele><time>2026-05-03T06:58:32.362Z</time></trkpt><trkpt lat="41.4869561" lon="13.1422465"><ele>40.0</ele><time>2026-05-03T06:58:33.368Z</time></trkpt><trkpt lat="41.4869832" lon="13.14253"><ele>40.0</ele><time>2026-05-03T06:58:34.363Z</time></trkpt><trkpt lat="41.4870098" lon="13.142814"><ele>40.0</ele><time>2026-05-03T06:58:35.37Z</time></trkpt><trkpt lat="41.4870343" lon="13.1431128"><ele>40.0</ele><time>2026-05-03T06:58:36.372Z</time></trkpt><trkpt lat="41.4870629" lon="13.1434341"><ele>39.5</ele><time>2026-05-03T06:58:37.369Z</time></trkpt><trkpt lat="41.4870976" lon="13.1437832"><ele>39.0</ele><time>2026-05-03T06:58:38.359Z</time></trkpt><trkpt lat="41.4871294" lon="13.144155"><ele>40.0</ele><time>2026-05-03T06:58:39.37Z</time></trkpt><trkpt lat="41.4871602" lon="13.1444963"><ele>41.0</ele><time>2026-05-03T06:58:40.364Z</time></trkpt><trkpt lat="41.4871924" lon="13.1448206"><ele>41.0</ele><time>2026-05-03T06:58:41.362Z</time></trkpt><trkpt lat="41.4872183" lon="13.1451337"><ele>41.0</ele><time>2026-05-03T06:58:42.364Z</time></trkpt><trkpt lat="41.487244" lon="13.1454406"><ele>40.5</ele><time>2026-05-03T06:58:43.363Z</time></trkpt><trkpt lat="41.4872731" lon="13.145746"><ele>40.0</ele><time>2026-05-03T06:58:44.364Z</time></trkpt><trkpt lat="41.4873011" lon="13.1460488"><ele>40.0</ele><time>2026-05-03T06:58:45.365Z</time></trkpt><trkpt lat="41.4873306" lon="13.1463482"><ele>40.0</ele><time>2026-05-03T06:58:46.366Z</time></trkpt><trkpt lat="41.4873573" lon="13.1466461"><ele>40.333333333333336</ele><time>2026-05-03T06:58:47.363Z</time></trkpt><trkpt lat="41.4873827" lon="13.1469435"><ele>40.666666666666664</ele><time>2026-05-03T06:58:48.362Z</time></trkpt><trkpt lat="41.487411" lon="13.1472291"><ele>41.0</ele><time>2026-05-03T06:58:49.373Z</time></trkpt><trkpt lat="41.4874354" lon="13.1475191"><ele>41.33333333333333</ele><time>2026-05-03T06:58:50.366Z</time></trkpt><trkpt lat="41.4874596" lon="13.1478044"><ele>41.666666666666664</ele><time>2026-05-03T06:58:51.369Z</time></trkpt><trkpt lat="41.4874826" lon="13.1480858"><ele>42.0</ele><time>2026-05-03T06:58:52.366Z</time></trkpt><trkpt lat="41.4875083" lon="13.1483698"><ele>42.0</ele><time>2026-05-03T06:58:53.374Z</time></trkpt><trkpt lat="41.4875345" lon="13.1486638"><ele>42.0</ele><time>2026-05-03T06:58:54.355Z</time></trkpt><trkpt lat="41.487559" lon="13.14895"><ele>42.0</ele><time>2026-05-03T06:58:55.366Z</time></trkpt><trkpt lat="41.4875847" lon="13.1492318"><ele>42.0</ele><time>2026-05-03T06:58:56.362Z</time></trkpt><trkpt lat="41.4876088" lon="13.1495138"><ele>42.0</ele><time>2026-05-03T06:58:57.358Z</time></trkpt><trkpt lat="41.4876372" lon="13.1498065"><ele>42.0</ele><time>2026-05-03T06:58:58.365Z</time></trkpt><trkpt lat="41.4876634" lon="13.1501002"><ele>42.0</ele><time>2026-05-03T06:58:59.36Z</time></trkpt><trkpt lat="41.4876908" lon="13.150404"><ele>42.0</ele><time>2026-05-03T06:59:00.365Z</time></trkpt><trkpt lat="41.4877175" lon="13.1506994"><ele>42.0</ele><time>2026-05-03T06:59:01.372Z</time></trkpt><trkpt lat="41.4877424" lon="13.1509967"><ele>42.0</ele><time>2026-05-03T06:59:02.364Z</time></trkpt><trkpt lat="41.4877674" lon="13.1512956"><ele>42.0</ele><time>2026-05-03T06:59:03.367Z</time></trkpt><trkpt lat="41.4877959" lon="13.1515955"><ele>42.0</ele><time>2026-05-03T06:59:04.36Z</time></trkpt><trkpt lat="41.4878199" lon="13.1518908"><ele>42.0</ele><time>2026-05-03T06:59:05.364Z</time></trkpt><trkpt lat="41.4878442" lon="13.1521785"><ele>42.0</ele><time>2026-05-03T06:59:06.358Z</time></trkpt><trkpt lat="41.4878686" lon="13.1524605"><ele>41.666666666666664</ele><time>2026-05-03T06:59:07.366Z</time></trkpt><trkpt lat="41.4878931" lon="13.1527451"><ele>41.33333333333333</ele><time>2026-05-03T06:59:08.36Z</time></trkpt><trkpt lat="41.4879171" lon="13.1530276"><ele>41.0</ele><time>2026-05-03T06:59:09.366Z</time></trkpt><trkpt lat="41.4879424" lon="13.1533136"><ele>41.0</ele><time>2026-05-03T06:59:10.364Z</time></trkpt><trkpt lat="41.4879681" lon="13.153598"><ele>41.0</ele><time>2026-05-03T06:59:11.362Z</time></trkpt><trkpt lat="41.487992" lon="13.1538745"><ele>41.0</ele><time>2026-05-03T06:59:12.368Z</time></trkpt><trkpt lat="41.4880198" lon="13.1541463"><ele>40.666666666666664</ele><time>2026-05-03T06:59:13.361Z</time></trkpt><trkpt lat="41.4880487" lon="13.1544145"><ele>40.333333333333336</ele><time>2026-05-03T06:59:14.361Z</time></trkpt><trkpt lat="41.4880742" lon="13.1546795"><ele>40.0</ele><time>2026-05-03T06:59:15.358Z</time></trkpt><trkpt lat="41.4880959" lon="13.1549405"><ele>40.0</ele><time>2026-05-03T06:59:16.363Z</time></trkpt><trkpt lat="41.4881166" lon="13.1552091"><ele>40.0</ele><time>2026-05-03T06:59:17.361Z</time></trkpt><trkpt lat="41.4881344" lon="13.1554878"><ele>40.0</ele><time>2026-05-03T06:59:18.36Z</time></trkpt><trkpt lat="41.4881562" lon="13.1557883"><ele>40.5</ele><time>2026-05-03T06:59:19.366Z</time></trkpt><trkpt lat="41.4881781" lon="13.1561042"><ele>41.0</ele><time>2026-05-03T06:59:20.364Z</time></trkpt><trkpt lat="41.4882018" lon="13.1564248"><ele>41.0</ele><time>2026-05-03T06:59:21.369Z</time></trkpt><trkpt lat="41.4882264" lon="13.1567419"><ele>41.0</ele><time>2026-05-03T06:59:22.363Z</time></trkpt><trkpt lat="41.4882536" lon="13.1570544"><ele>41.0</ele><time>2026-05-03T06:59:23.373Z</time></trkpt><trkpt lat="41.4882818" lon="13.1573552"><ele>41.0</ele><time>2026-05-03T06:59:24.365Z</time></trkpt><trkpt lat="41.4883099" lon="13.1576423"><ele>41.0</ele><time>2026-05-03T06:59:25.354Z</time></trkpt><trkpt lat="41.4883364" lon="13.1579249"><ele>41.0</ele><time>2026-05-03T06:59:26.364Z</time></trkpt><trkpt lat="41.4883636" lon="13.1582004"><ele>41.0</ele><time>2026-05-03T06:59:27.36Z</time></trkpt><trkpt lat="41.4883896" lon="13.1584836"><ele>41.0</ele><time>2026-05-03T06:59:28.362Z</time></trkpt><trkpt lat="41.4884134" lon="13.1587601"><ele>41.33333333333333</ele><time>2026-05-03T06:59:29.367Z</time></trkpt><trkpt lat="41.4884389" lon="13.1590401"><ele>41.666666666666664</ele><time>2026-05-03T06:59:30.367Z</time></trkpt><trkpt lat="41.4884663" lon="13.1593137"><ele>42.0</ele><time>2026-05-03T06:59:31.373Z</time></trkpt><trkpt lat="41.4884903" lon="13.1595808"><ele>42.0</ele><time>2026-05-03T06:59:32.359Z</time></trkpt><trkpt lat="41.4885141" lon="13.1598461"><ele>42.0</ele><time>2026-05-03T06:59:33.371Z</time></trkpt><trkpt lat="41.4885339" lon="13.1601036"><ele>42.0</ele><time>2026-05-03T06:59:34.368Z</time></trkpt><trkpt lat="41.4885521" lon="13.1603639"><ele>42.0</ele><time>2026-05-03T06:59:35.372Z</time></trkpt><trkpt lat="41.4885717" lon="13.1606294"><ele>42.0</ele><time>2026-05-03T06:59:36.362Z</time></trkpt><trkpt lat="41.4885897" lon="13.1608931"><ele>42.0</ele><time>2026-05-03T06:59:37.37Z</time></trkpt><trkpt lat="41.4886079" lon="13.1611603"><ele>41.666666666666664</ele><time>2026-05-03T06:59:38.363Z</time></trkpt><trkpt lat="41.4886254" lon="13.1614273"><ele>41.33333333333333</ele><time>2026-05-03T06:59:39.36Z</time></trkpt><trkpt lat="41.4886381" lon="13.1616968"><ele>41.0</ele><time>2026-05-03T06:59:40.362Z</time></trkpt><trkpt lat="41.4886495" lon="13.1619664"><ele>41.666666666666664</ele><time>2026-05-03T06:59:41.367Z</time></trkpt><trkpt lat="41.4886625" lon="13.1622299"><ele>42.333333333333336</ele><time>2026-05-03T06:59:42.364Z</time></trkpt><trkpt lat="41.4886739" lon="13.1624803"><ele>43.0</ele><time>2026-05-03T06:59:43.461Z</time></trkpt><trkpt lat="41.4886858" lon="13.1627127"><ele>43.333333333333336</ele><time>2026-05-03T06:59:44.361Z</time></trkpt><trkpt lat="41.4887008" lon="13.1629283"><ele>43.666666666666664</ele><time>2026-05-03T06:59:45.361Z</time></trkpt><trkpt lat="41.4887168" lon="13.1631268"><ele>44.0</ele><time>2026-05-03T06:59:46.365Z</time></trkpt><trkpt lat="41.4887357" lon="13.1633091"><ele>44.0</ele><time>2026-05-03T06:59:47.365Z</time></trkpt><trkpt lat="41.4887568" lon="13.1634775"><ele>44.0</ele><time>2026-05-03T06:59:48.366Z</time></trkpt><trkpt lat="41.4887714" lon="13.1636275"><ele>44.0</ele><time>2026-05-03T06:59:49.367Z</time></trkpt><trkpt lat="41.4887871" lon="13.1637666"><ele>44.0</ele><time>2026-05-03T06:59:50.363Z</time></trkpt><trkpt lat="41.4887976" lon="13.1638929"><ele>44.0</ele><time>2026-05-03T06:59:51.363Z</time></trkpt><trkpt lat="41.4888092" lon="13.1640066"><ele>43.83333333333333</ele><time>2026-05-03T06:59:52.374Z</time></trkpt><trkpt lat="41.4888214" lon="13.1641102"><ele>43.666666666666664</ele><time>2026-05-03T06:59:53.364Z</time></trkpt><trkpt lat="41.488833" lon="13.1642042"><ele>43.5</ele><time>2026-05-03T06:59:54.368Z</time></trkpt><trkpt lat="41.4888494" lon="13.1643548"><ele>43.333333333333336</ele><time>2026-05-03T06:59:56.372Z</time></trkpt><trkpt lat="41.4888584" lon="13.1644611"><ele>43.16666666666667</ele><time>2026-05-03T06:59:58.365Z</time></trkpt><trkpt lat="41.4888665" lon="13.1645495"><ele>43.0</ele><time>2026-05-03T07:00:00.362Z</time></trkpt><trkpt lat="41.4888781" lon="13.1646406"><ele>43.0</ele><time>2026-05-03T07:00:03.372Z</time></trkpt><trkpt lat="41.4888831" lon="13.1647766"><ele>43.0</ele><time>2026-05-03T07:00:23.37Z</time></trkpt><trkpt lat="41.4888918" lon="13.1649447"><ele>43.0</ele><time>2026-05-03T07:00:25.373Z</time></trkpt><trkpt lat="41.4889044" lon="13.1650483"><ele>43.0</ele><time>2026-05-03T07:00:26.361Z</time></trkpt><trkpt lat="41.4889201" lon="13.1651736"><ele>43.0</ele><time>2026-05-03T07:00:27.367Z</time></trkpt><trkpt lat="41.4889378" lon="13.165315"><ele>43.0</ele><time>2026-05-03T07:00:28.363Z</time></trkpt><trkpt lat="41.4889569" lon="13.1654841"><ele>43.0</ele><time>2026-05-03T07:00:29.37Z</time></trkpt><trkpt lat="41.4889723" lon="13.1656594"><ele>43.0</ele><time>2026-05-03T07:00:30.364Z</time></trkpt><trkpt lat="41.4889897" lon="13.1658539"><ele>43.0</ele><time>2026-05-03T07:00:31.363Z</time></trkpt><trkpt lat="41.4890138" lon="13.1660713"><ele>43.0</ele><time>2026-05-03T07:00:32.366Z</time></trkpt><trkpt lat="41.4890444" lon="13.1663314"><ele>43.0</ele><time>2026-05-03T07:00:33.37Z</time></trkpt><trkpt lat="41.4890789" lon="13.1666569"><ele>43.0</ele><time>2026-05-03T07:00:34.372Z</time></trkpt><trkpt lat="41.4891178" lon="13.1670461"><ele>42.5</ele><time>2026-05-03T07:00:35.373Z</time></trkpt><trkpt lat="41.4891558" lon="13.1674586"><ele>42.0</ele><time>2026-05-03T07:00:36.371Z</time></trkpt><trkpt lat="41.4891876" lon="13.1678275"><ele>42.0</ele><time>2026-05-03T07:00:37.361Z</time></trkpt><trkpt lat="41.4892194" lon="13.1681862"><ele>42.0</ele><time>2026-05-03T07:00:38.368Z</time></trkpt><trkpt lat="41.4892502" lon="13.1685428"><ele>42.0</ele><time>2026-05-03T07:00:39.368Z</time></trkpt><trkpt lat="41.4892846" lon="13.1688902"><ele>42.0</ele><time>2026-05-03T07:00:40.363Z</time></trkpt><trkpt lat="41.4893191" lon="13.1692398"><ele>41.5</ele><time>2026-05-03T07:00:41.363Z</time></trkpt><trkpt lat="41.4893501" lon="13.1695756"><ele>41.0</ele><time>2026-05-03T07:00:42.36Z</time></trkpt><trkpt lat="41.4893821" lon="13.1699098"><ele>40.5</ele><time>2026-05-03T07:00:43.362Z</time></trkpt><trkpt lat="41.4894173" lon="13.17025"><ele>40.0</ele><time>2026-05-03T07:00:44.377Z</time></trkpt><trkpt lat="41.4894504" lon="13.1705877"><ele>39.0</ele><time>2026-05-03T07:00:45.369Z</time></trkpt><trkpt lat="41.4894836" lon="13.1709356"><ele>38.0</ele><time>2026-05-03T07:00:46.359Z</time></trkpt><trkpt lat="41.4895195" lon="13.171291"><ele>37.5</ele><time>2026-05-03T07:00:47.367Z</time></trkpt><trkpt lat="41.4895558" lon="13.171642"><ele>37.0</ele><time>2026-05-03T07:00:48.367Z</time></trkpt><trkpt lat="41.4895882" lon="13.1719839"><ele>38.5</ele><time>2026-05-03T07:00:49.371Z</time></trkpt><trkpt lat="41.4896185" lon="13.1723201"><ele>40.0</ele><time>2026-05-03T07:00:50.373Z</time></trkpt><trkpt lat="41.4896456" lon="13.1726487"><ele>40.0</ele><time>2026-05-03T07:00:51.37Z</time></trkpt><trkpt lat="41.4896643" lon="13.1729626"><ele>40.0</ele><time>2026-05-03T07:00:52.36Z</time></trkpt><trkpt lat="41.489684" lon="13.1732534"><ele>40.0</ele><time>2026-05-03T07:00:53.364Z</time></trkpt><trkpt lat="41.4896988" lon="13.173528"><ele>40.0</ele><time>2026-05-03T07:00:54.363Z</time></trkpt><trkpt lat="41.4897117" lon="13.1737851"><ele>40.0</ele><time>2026-05-03T07:00:55.363Z</time></trkpt><trkpt lat="41.4897246" lon="13.1740588"><ele>40.0</ele><time>2026-05-03T07:00:56.365Z</time></trkpt><trkpt lat="41.4897382" lon="13.1743343"><ele>40.0</ele><time>2026-05-03T07:00:57.362Z</time></trkpt><trkpt lat="41.4897496" lon="13.1746126"><ele>40.0</ele><time>2026-05-03T07:00:58.361Z</time></trkpt><trkpt lat="41.4897596" lon="13.1748916"><ele>40.0</ele><time>2026-05-03T07:00:59.365Z</time></trkpt><trkpt lat="41.4897619" lon="13.1751768"><ele>40.0</ele><time>2026-05-03T07:01:00.364Z</time></trkpt><trkpt lat="41.4897661" lon="13.1754652"><ele>40.0</ele><time>2026-05-03T07:01:01.365Z</time></trkpt><trkpt lat="41.4897694" lon="13.1757504"><ele>39.66666666666667</ele><time>2026-05-03T07:01:02.363Z</time></trkpt><trkpt lat="41.4897733" lon="13.1760376"><ele>39.333333333333336</ele><time>2026-05-03T07:01:03.373Z</time></trkpt><trkpt lat="41.4897756" lon="13.1763265"><ele>39.0</ele><time>2026-05-03T07:01:04.361Z</time></trkpt><trkpt lat="41.4897772" lon="13.1766191"><ele>39.0</ele><time>2026-05-03T07:01:05.367Z</time></trkpt><trkpt lat="41.4897744" lon="13.1769244"><ele>39.0</ele><time>2026-05-03T07:01:06.363Z</time></trkpt><trkpt lat="41.4897695" lon="13.1772303"><ele>38.5</ele><time>2026-05-03T07:01:07.366Z</time></trkpt><trkpt lat="41.4897587" lon="13.1775372"><ele>38.0</ele><time>2026-05-03T07:01:08.365Z</time></trkpt><trkpt lat="41.4897444" lon="13.177842"><ele>38.0</ele><time>2026-05-03T07:01:09.37Z</time></trkpt><trkpt lat="41.4897297" lon="13.1781523"><ele>38.0</ele><time>2026-05-03T07:01:10.361Z</time></trkpt><trkpt lat="41.4897149" lon="13.1784561"><ele>37.5</ele><time>2026-05-03T07:01:11.37Z</time></trkpt><trkpt lat="41.4897024" lon="13.178763"><ele>37.0</ele><time>2026-05-03T07:01:12.365Z</time></trkpt><trkpt lat="41.4896884" lon="13.1790647"><ele>36.66666666666667</ele><time>2026-05-03T07:01:13.373Z</time></trkpt><trkpt lat="41.4896731" lon="13.1793625"><ele>36.333333333333336</ele><time>2026-05-03T07:01:14.362Z</time></trkpt><trkpt lat="41.4896614" lon="13.1796505"><ele>36.0</ele><time>2026-05-03T07:01:15.362Z</time></trkpt><trkpt lat="41.4896501" lon="13.1799198"><ele>35.666666666666664</ele><time>2026-05-03T07:01:16.367Z</time></trkpt><trkpt lat="41.4896393" lon="13.180171"><ele>35.33333333333333</ele><time>2026-05-03T07:01:17.369Z</time></trkpt><trkpt lat="41.48963" lon="13.1804015"><ele>35.0</ele><time>2026-05-03T07:01:18.363Z</time></trkpt><trkpt lat="41.4896203" lon="13.1806154"><ele>35.0</ele><time>2026-05-03T07:01:19.367Z</time></trkpt><trkpt lat="41.4896072" lon="13.1808057"><ele>35.0</ele><time>2026-05-03T07:01:20.372Z</time></trkpt><trkpt lat="41.4895991" lon="13.1809791"><ele>35.0</ele><time>2026-05-03T07:01:21.477Z</time></trkpt><trkpt lat="41.4895815" lon="13.181317"><ele>35.0</ele><time>2026-05-03T07:01:23.366Z</time></trkpt><trkpt lat="41.4895744" lon="13.1814776"><ele>35.0</ele><time>2026-05-03T07:01:24.373Z</time></trkpt><trkpt lat="41.4895645" lon="13.1816432"><ele>35.0</ele><time>2026-05-03T07:01:25.362Z</time></trkpt><trkpt lat="41.4895598" lon="13.1817891"><ele>35.0</ele><time>2026-05-03T07:01:26.364Z</time></trkpt><trkpt lat="41.4895528" lon="13.1819308"><ele>35.2</ele><time>2026-05-03T07:01:27.365Z</time></trkpt><trkpt lat="41.4895499" lon="13.1820429"><ele>35.4</ele><time>2026-05-03T07:01:28.362Z</time></trkpt><trkpt lat="41.4895548" lon="13.1821291"><ele>35.6</ele><time>2026-05-03T07:01:29.362Z</time></trkpt><trkpt lat="41.4896252" lon="13.1822311"><ele>35.8</ele><time>2026-05-03T07:01:31.376Z</time></trkpt><trkpt lat="41.489708" lon="13.1822626"><ele>36.0</ele><time>2026-05-03T07:01:32.374Z</time></trkpt><trkpt lat="41.4898283" lon="13.1822898"><ele>36.0</ele><time>2026-05-03T07:01:33.361Z</time></trkpt><trkpt lat="41.4899728" lon="13.1823324"><ele>36.0</ele><time>2026-05-03T07:01:34.365Z</time></trkpt><trkpt lat="41.4901095" lon="13.1824174"><ele>36.0</ele><time>2026-05-03T07:01:35.362Z</time></trkpt><trkpt lat="41.490257" lon="13.1825486"><ele>35.666666666666664</ele><time>2026-05-03T07:01:36.372Z</time></trkpt><trkpt lat="41.4904057" lon="13.1827166"><ele>35.33333333333333</ele><time>2026-05-03T07:01:37.363Z</time></trkpt><trkpt lat="41.490546" lon="13.182905"><ele>35.0</ele><time>2026-05-03T07:01:38.365Z</time></trkpt><trkpt lat="41.4906629" lon="13.1831143"><ele>35.666666666666664</ele><time>2026-05-03T07:01:39.361Z</time></trkpt><trkpt lat="41.4907622" lon="13.1833376"><ele>36.333333333333336</ele><time>2026-05-03T07:01:40.362Z</time></trkpt><trkpt lat="41.4908418" lon="13.1835366"><ele>37.0</ele><time>2026-05-03T07:01:41.363Z</time></trkpt><trkpt lat="41.4909027" lon="13.1837055"><ele>37.0</ele><time>2026-05-03T07:01:42.36Z</time></trkpt><trkpt lat="41.4909506" lon="13.1838363"><ele>37.0</ele><time>2026-05-03T07:01:43.375Z</time></trkpt><trkpt lat="41.4910077" lon="13.1839319"><ele>37.0</ele><time>2026-05-03T07:01:44.371Z</time></trkpt><trkpt lat="41.4910735" lon="13.1839925"><ele>37.0</ele><time>2026-05-03T07:01:45.367Z</time></trkpt><trkpt lat="41.491168" lon="13.1840182"><ele>37.0</ele><time>2026-05-03T07:01:46.371Z</time></trkpt><trkpt lat="41.4912755" lon="13.1839952"><ele>36.66666666666667</ele><time>2026-05-03T07:01:47.365Z</time></trkpt><trkpt lat="41.4914057" lon="13.1839294"><ele>36.333333333333336</ele><time>2026-05-03T07:01:48.364Z</time></trkpt><trkpt lat="41.4915681" lon="13.1838303"><ele>36.0</ele><time>2026-05-03T07:01:49.362Z</time></trkpt><trkpt lat="41.4917758" lon="13.1837122"><ele>36.0</ele><time>2026-05-03T07:01:50.363Z</time></trkpt><trkpt lat="41.4920161" lon="13.1835901"><ele>36.0</ele><time>2026-05-03T07:01:51.376Z</time></trkpt><trkpt lat="41.4922943" lon="13.1834558"><ele>37.5</ele><time>2026-05-03T07:01:52.364Z</time></trkpt><trkpt lat="41.4925955" lon="13.1833214"><ele>39.0</ele><time>2026-05-03T07:01:53.362Z</time></trkpt><trkpt lat="41.4928761" lon="13.1831954"><ele>38.0</ele><time>2026-05-03T07:01:54.371Z</time></trkpt><trkpt lat="41.4931459" lon="13.1830695"><ele>37.0</ele><time>2026-05-03T07:01:55.362Z</time></trkpt><trkpt lat="41.4934201" lon="13.1829298"><ele>37.0</ele><time>2026-05-03T07:01:56.365Z</time></trkpt><trkpt lat="41.4936996" lon="13.1827848"><ele>37.0</ele><time>2026-05-03T07:01:57.362Z</time></trkpt><trkpt lat="41.4940017" lon="13.1826285"><ele>37.0</ele><time>2026-05-03T07:01:58.364Z</time></trkpt><trkpt lat="41.4943237" lon="13.1824612"><ele>37.0</ele><time>2026-05-03T07:01:59.362Z</time></trkpt><trkpt lat="41.4946313" lon="13.1823061"><ele>37.0</ele><time>2026-05-03T07:02:00.364Z</time></trkpt><trkpt lat="41.4949172" lon="13.1821569"><ele>37.0</ele><time>2026-05-03T07:02:01.371Z</time></trkpt><trkpt lat="41.4951947" lon="13.1820125"><ele>37.5</ele><time>2026-05-03T07:02:02.37Z</time></trkpt><trkpt lat="41.4954662" lon="13.1818706"><ele>38.0</ele><time>2026-05-03T07:02:03.366Z</time></trkpt><trkpt lat="41.4957425" lon="13.181731"><ele>38.0</ele><time>2026-05-03T07:02:04.371Z</time></trkpt><trkpt lat="41.4960198" lon="13.1815837"><ele>38.0</ele><time>2026-05-03T07:02:05.362Z</time></trkpt><trkpt lat="41.4963018" lon="13.1814292"><ele>38.5</ele><time>2026-05-03T07:02:06.364Z</time></trkpt><trkpt lat="41.4965976" lon="13.1812591"><ele>39.0</ele><time>2026-05-03T07:02:07.363Z</time></trkpt><trkpt lat="41.4968862" lon="13.1810924"><ele>40.0</ele><time>2026-05-03T07:02:08.36Z</time></trkpt><trkpt lat="41.497165" lon="13.1809392"><ele>41.0</ele><time>2026-05-03T07:02:09.366Z</time></trkpt><trkpt lat="41.4974289" lon="13.1808004"><ele>41.0</ele><time>2026-05-03T07:02:10.363Z</time></trkpt><trkpt lat="41.497684" lon="13.1806823"><ele>41.0</ele><time>2026-05-03T07:02:11.372Z</time></trkpt><trkpt lat="41.4979413" lon="13.1805695"><ele>41.0</ele><time>2026-05-03T07:02:12.365Z</time></trkpt><trkpt lat="41.4981986" lon="13.1804603"><ele>41.0</ele><time>2026-05-03T07:02:13.37Z</time></trkpt><trkpt lat="41.4984542" lon="13.1803553"><ele>41.0</ele><time>2026-05-03T07:02:14.359Z</time></trkpt><trkpt lat="41.4986981" lon="13.1802556"><ele>41.0</ele><time>2026-05-03T07:02:15.371Z</time></trkpt><trkpt lat="41.4989415" lon="13.1801465"><ele>42.0</ele><time>2026-05-03T07:02:16.368Z</time></trkpt><trkpt lat="41.4991839" lon="13.1800283"><ele>43.0</ele><time>2026-05-03T07:02:17.37Z</time></trkpt><trkpt lat="41.4994198" lon="13.1799092"><ele>44.0</ele><time>2026-05-03T07:02:18.372Z</time></trkpt><trkpt lat="41.4996482" lon="13.1797932"><ele>45.0</ele><time>2026-05-03T07:02:19.372Z</time></trkpt><trkpt lat="41.4998608" lon="13.1796752"><ele>45.0</ele><time>2026-05-03T07:02:20.363Z</time></trkpt><trkpt lat="41.5000726" lon="13.1795491"><ele>45.0</ele><time>2026-05-03T07:02:21.378Z</time></trkpt><trkpt lat="41.5002835" lon="13.1794099"><ele>47.0</ele><time>2026-05-03T07:02:22.371Z</time></trkpt><trkpt lat="41.5004939" lon="13.179264"><ele>49.0</ele><time>2026-05-03T07:02:23.367Z</time></trkpt><trkpt lat="41.500706" lon="13.1791125"><ele>48.5</ele><time>2026-05-03T07:02:24.369Z</time></trkpt><trkpt lat="41.5009214" lon="13.1789681"><ele>48.0</ele><time>2026-05-03T07:02:25.361Z</time></trkpt><trkpt lat="41.5011357" lon="13.1788245"><ele>48.5</ele><time>2026-05-03T07:02:26.37Z</time></trkpt><trkpt lat="41.5013429" lon="13.1786845"><ele>49.0</ele><time>2026-05-03T07:02:27.372Z</time></trkpt><trkpt lat="41.5015433" lon="13.1785366"><ele>49.0</ele><time>2026-05-03T07:02:28.369Z</time></trkpt><trkpt lat="41.5017418" lon="13.1783865"><ele>49.0</ele><time>2026-05-03T07:02:29.356Z</time></trkpt><trkpt lat="41.5019435" lon="13.1782435"><ele>50.0</ele><time>2026-05-03T07:02:30.361Z</time></trkpt><trkpt lat="41.5021657" lon="13.1781143"><ele>51.0</ele><time>2026-05-03T07:02:31.361Z</time></trkpt><trkpt lat="41.5024085" lon="13.1779901"><ele>51.0</ele><time>2026-05-03T07:02:32.365Z</time></trkpt><trkpt lat="41.5026534" lon="13.1778743"><ele>51.0</ele><time>2026-05-03T07:02:33.363Z</time></trkpt><trkpt lat="41.5028861" lon="13.1777691"><ele>52.0</ele><time>2026-05-03T07:02:34.368Z</time></trkpt><trkpt lat="41.5031137" lon="13.1776695"><ele>53.0</ele><time>2026-05-03T07:02:35.364Z</time></trkpt><trkpt lat="41.5033123" lon="13.1775838"><ele>54.0</ele><time>2026-05-03T07:02:36.368Z</time></trkpt><trkpt lat="41.5035224" lon="13.1774988"><ele>54.0</ele><time>2026-05-03T07:02:37.372Z</time></trkpt><trkpt lat="41.5037308" lon="13.1774181"><ele>54.0</ele><time>2026-05-03T07:02:38.364Z</time></trkpt><trkpt lat="41.5039422" lon="13.177336"><ele>54.0</ele><time>2026-05-03T07:02:39.37Z</time></trkpt><trkpt lat="41.5041447" lon="13.1772557"><ele>55.0</ele><time>2026-05-03T07:02:40.364Z</time></trkpt><trkpt lat="41.5043255" lon="13.1771863"><ele>56.0</ele><time>2026-05-03T07:02:41.373Z</time></trkpt><trkpt lat="41.5044987" lon="13.1771155"><ele>57.0</ele><time>2026-05-03T07:02:42.372Z</time></trkpt><trkpt lat="41.5046707" lon="13.1770435"><ele>57.33333333333333</ele><time>2026-05-03T07:02:43.366Z</time></trkpt><trkpt lat="41.5048456" lon="13.1769787"><ele>57.666666666666664</ele><time>2026-05-03T07:02:44.375Z</time></trkpt><trkpt lat="41.5050148" lon="13.1769126"><ele>58.0</ele><time>2026-05-03T07:02:45.375Z</time></trkpt><trkpt lat="41.5051843" lon="13.1768417"><ele>58.0</ele><time>2026-05-03T07:02:46.362Z</time></trkpt><trkpt lat="41.5053652" lon="13.1767466"><ele>58.0</ele><time>2026-05-03T07:02:47.364Z</time></trkpt><trkpt lat="41.5055482" lon="13.1766338"><ele>58.0</ele><time>2026-05-03T07:02:48.376Z</time></trkpt><trkpt lat="41.5057239" lon="13.1765116"><ele>59.0</ele><time>2026-05-03T07:02:49.364Z</time></trkpt><trkpt lat="41.5058835" lon="13.1764053"><ele>60.0</ele><time>2026-05-03T07:02:50.373Z</time></trkpt><trkpt lat="41.5060274" lon="13.1763084"><ele>61.0</ele><time>2026-05-03T07:02:51.366Z</time></trkpt><trkpt lat="41.5061557" lon="13.1762285"><ele>61.33333333333333</ele><time>2026-05-03T07:02:52.373Z</time></trkpt><trkpt lat="41.5062888" lon="13.1761445"><ele>61.66666666666667</ele><time>2026-05-03T07:02:53.365Z</time></trkpt><trkpt lat="41.5064191" lon="13.1760559"><ele>62.0</ele><time>2026-05-03T07:02:54.366Z</time></trkpt><trkpt lat="41.5065566" lon="13.1759477"><ele>62.0</ele><time>2026-05-03T07:02:55.376Z</time></trkpt><trkpt lat="41.5067295" lon="13.1758021"><ele>62.0</ele><time>2026-05-03T07:02:56.374Z</time></trkpt><trkpt lat="41.5069413" lon="13.1756375"><ele>62.0</ele><time>2026-05-03T07:02:57.508Z</time></trkpt><trkpt lat="41.5074498" lon="13.1752681"><ele>64.0</ele><time>2026-05-03T07:02:59.374Z</time></trkpt><trkpt lat="41.5077196" lon="13.1750886"><ele>66.0</ele><time>2026-05-03T07:03:00.375Z</time></trkpt><trkpt lat="41.5079844" lon="13.1749224"><ele>68.0</ele><time>2026-05-03T07:03:01.369Z</time></trkpt><trkpt lat="41.5082405" lon="13.1747795"><ele>70.0</ele><time>2026-05-03T07:03:02.362Z</time></trkpt><trkpt lat="41.5085001" lon="13.1746517"><ele>71.5</ele><time>2026-05-03T07:03:03.367Z</time></trkpt><trkpt lat="41.5087669" lon="13.174541"><ele>73.0</ele><time>2026-05-03T07:03:04.363Z</time></trkpt><trkpt lat="41.5090327" lon="13.1744296"><ele>73.0</ele><time>2026-05-03T07:03:05.375Z</time></trkpt><trkpt lat="41.5092987" lon="13.1743226"><ele>73.0</ele><time>2026-05-03T07:03:06.362Z</time></trkpt><trkpt lat="41.5095611" lon="13.1742168"><ele>73.5</ele><time>2026-05-03T07:03:07.374Z</time></trkpt><trkpt lat="41.5098191" lon="13.1741095"><ele>74.0</ele><time>2026-05-03T07:03:08.355Z</time></trkpt><trkpt lat="41.5100848" lon="13.1739864"><ele>74.5</ele><time>2026-05-03T07:03:09.363Z</time></trkpt><trkpt lat="41.510339" lon="13.1738487"><ele>75.0</ele><time>2026-05-03T07:03:10.362Z</time></trkpt><trkpt lat="41.5105737" lon="13.1737231"><ele>76.0</ele><time>2026-05-03T07:03:11.36Z</time></trkpt><trkpt lat="41.5107813" lon="13.1736025"><ele>77.0</ele><time>2026-05-03T07:03:12.364Z</time></trkpt><trkpt lat="41.5109946" lon="13.1734537"><ele>77.0</ele><time>2026-05-03T07:03:13.364Z</time></trkpt><trkpt lat="41.5112131" lon="13.1732789"><ele>77.0</ele><time>2026-05-03T07:03:14.361Z</time></trkpt><trkpt lat="41.511435" lon="13.1730705"><ele>79.0</ele><time>2026-05-03T07:03:15.365Z</time></trkpt><trkpt lat="41.5116705" lon="13.1728469"><ele>81.0</ele><time>2026-05-03T07:03:16.357Z</time></trkpt><trkpt lat="41.5119109" lon="13.1726086"><ele>82.5</ele><time>2026-05-03T07:03:17.365Z</time></trkpt><trkpt lat="41.512154" lon="13.1723662"><ele>84.0</ele><time>2026-05-03T07:03:18.359Z</time></trkpt><trkpt lat="41.5123841" lon="13.1721382"><ele>85.0</ele><time>2026-05-03T07:03:19.363Z</time></trkpt><trkpt lat="41.5126004" lon="13.1719138"><ele>86.0</ele><time>2026-05-03T07:03:20.375Z</time></trkpt><trkpt lat="41.5127985" lon="13.1717057"><ele>87.0</ele><time>2026-05-03T07:03:21.365Z</time></trkpt><trkpt lat="41.5129784" lon="13.171521"><ele>88.0</ele><time>2026-05-03T07:03:22.36Z</time></trkpt><trkpt lat="41.513147" lon="13.171357"><ele>89.0</ele><time>2026-05-03T07:03:23.367Z</time></trkpt><trkpt lat="41.5133032" lon="13.1712219"><ele>89.0</ele><time>2026-05-03T07:03:24.355Z</time></trkpt><trkpt lat="41.5134487" lon="13.1711165"><ele>89.0</ele><time>2026-05-03T07:03:25.361Z</time></trkpt><trkpt lat="41.5136109" lon="13.1710438"><ele>89.0</ele><time>2026-05-03T07:03:26.359Z</time></trkpt><trkpt lat="41.513804" lon="13.1709963"><ele>89.5</ele><time>2026-05-03T07:03:27.36Z</time></trkpt><trkpt lat="41.514021" lon="13.1709557"><ele>90.0</ele><time>2026-05-03T07:03:28.371Z</time></trkpt><trkpt lat="41.5142606" lon="13.1709118"><ele>90.0</ele><time>2026-05-03T07:03:29.361Z</time></trkpt><trkpt lat="41.5145289" lon="13.1708691"><ele>90.0</ele><time>2026-05-03T07:03:30.359Z</time></trkpt><trkpt lat="41.5148141" lon="13.1708215"><ele>92.0</ele><time>2026-05-03T07:03:31.365Z</time></trkpt><trkpt lat="41.5150974" lon="13.170771"><ele>94.0</ele><time>2026-05-03T07:03:32.371Z</time></trkpt><trkpt lat="41.5153636" lon="13.170722"><ele>96.5</ele><time>2026-05-03T07:03:33.371Z</time></trkpt><trkpt lat="41.5156166" lon="13.1706655"><ele>99.0</ele><time>2026-05-03T07:03:34.355Z</time></trkpt><trkpt lat="41.5158452" lon="13.1706087"><ele>99.0</ele><time>2026-05-03T07:03:35.363Z</time></trkpt><trkpt lat="41.5160668" lon="13.1705503"><ele>99.0</ele><time>2026-05-03T07:03:36.364Z</time></trkpt><trkpt lat="41.5163015" lon="13.170506"><ele>101.0</ele><time>2026-05-03T07:03:37.365Z</time></trkpt><trkpt lat="41.5165554" lon="13.170481"><ele>103.0</ele><time>2026-05-03T07:03:38.362Z</time></trkpt><trkpt lat="41.5168013" lon="13.1704689"><ele>103.0</ele><time>2026-05-03T07:03:39.361Z</time></trkpt><trkpt lat="41.5170237" lon="13.1704666"><ele>103.0</ele><time>2026-05-03T07:03:40.362Z</time></trkpt><trkpt lat="41.5172323" lon="13.1704549"><ele>103.0</ele><time>2026-05-03T07:03:41.371Z</time></trkpt><trkpt lat="41.5173857" lon="13.1704667"><ele>104.25</ele><time>2026-05-03T07:03:42.358Z</time></trkpt><trkpt lat="41.5175326" lon="13.1704764"><ele>105.5</ele><time>2026-05-03T07:03:43.364Z</time></trkpt><trkpt lat="41.5176792" lon="13.1705254"><ele>106.75</ele><time>2026-05-03T07:03:44.358Z</time></trkpt><trkpt lat="41.5178201" lon="13.1705841"><ele>108.0</ele><time>2026-05-03T07:03:45.36Z</time></trkpt><trkpt lat="41.5179699" lon="13.1707454"><ele>111.0</ele><time>2026-05-03T07:03:46.36Z</time></trkpt><trkpt lat="41.5181157" lon="13.1708939"><ele>114.0</ele><time>2026-05-03T07:03:47.369Z</time></trkpt><trkpt lat="41.5182659" lon="13.1710736"><ele>117.0</ele><time>2026-05-03T07:03:48.364Z</time></trkpt><trkpt lat="41.5184124" lon="13.1712764"><ele>117.0</ele><time>2026-05-03T07:03:49.364Z</time></trkpt><trkpt lat="41.5185516" lon="13.1714627"><ele>117.0</ele><time>2026-05-03T07:03:50.362Z</time></trkpt><trkpt lat="41.5186923" lon="13.1716457"><ele>117.0</ele><time>2026-05-03T07:03:51.357Z</time></trkpt><trkpt lat="41.5188619" lon="13.1718216"><ele>118.33333333333334</ele><time>2026-05-03T07:03:52.362Z</time></trkpt><trkpt lat="41.519034" lon="13.1719894"><ele>119.66666666666667</ele><time>2026-05-03T07:03:53.358Z</time></trkpt><trkpt lat="41.519191" lon="13.1721351"><ele>121.0</ele><time>2026-05-03T07:03:54.361Z</time></trkpt><trkpt lat="41.51934" lon="13.1722673"><ele>120.0</ele><time>2026-05-03T07:03:55.363Z</time></trkpt><trkpt lat="41.51948" lon="13.172384"><ele>119.0</ele><time>2026-05-03T07:03:56.359Z</time></trkpt><trkpt lat="41.5196223" lon="13.1724805"><ele>118.0</ele><time>2026-05-03T07:03:57.362Z</time></trkpt><trkpt lat="41.519774" lon="13.1725595"><ele>118.0</ele><time>2026-05-03T07:03:58.359Z</time></trkpt><trkpt lat="41.5199504" lon="13.1726022"><ele>118.0</ele><time>2026-05-03T07:03:59.366Z</time></trkpt><trkpt lat="41.5201361" lon="13.1726288"><ele>118.0</ele><time>2026-05-03T07:04:00.357Z</time></trkpt><trkpt lat="41.5203221" lon="13.1726609"><ele>118.66666666666667</ele><time>2026-05-03T07:04:01.36Z</time></trkpt><trkpt lat="41.5205103" lon="13.1727255"><ele>119.33333333333334</ele><time>2026-05-03T07:04:02.36Z</time></trkpt><trkpt lat="41.5206782" lon="13.1727921"><ele>120.0</ele><time>2026-05-03T07:04:03.363Z</time></trkpt><trkpt lat="41.5208348" lon="13.1728746"><ele>120.0</ele><time>2026-05-03T07:04:04.361Z</time></trkpt><trkpt lat="41.5209671" lon="13.1729831"><ele>120.0</ele><time>2026-05-03T07:04:05.36Z</time></trkpt><trkpt lat="41.5210737" lon="13.1731164"><ele>120.0</ele><time>2026-05-03T07:04:06.362Z</time></trkpt><trkpt lat="41.521167" lon="13.1732596"><ele>120.0</ele><time>2026-05-03T07:04:07.36Z</time></trkpt><trkpt lat="41.5212706" lon="13.1733902"><ele>119.66666666666666</ele><time>2026-05-03T07:04:08.361Z</time></trkpt><trkpt lat="41.5214044" lon="13.173496"><ele>119.33333333333333</ele><time>2026-05-03T07:04:09.359Z</time></trkpt><trkpt lat="41.5215737" lon="13.1735823"><ele>119.0</ele><time>2026-05-03T07:04:10.362Z</time></trkpt><trkpt lat="41.5217756" lon="13.1736807"><ele>119.0</ele><time>2026-05-03T07:04:11.365Z</time></trkpt><trkpt lat="41.5220178" lon="13.1737903"><ele>119.0</ele><time>2026-05-03T07:04:12.36Z</time></trkpt><trkpt lat="41.5223032" lon="13.1739211"><ele>122.0</ele><time>2026-05-03T07:04:13.364Z</time></trkpt><trkpt lat="41.5226281" lon="13.1740658"><ele>125.0</ele><time>2026-05-03T07:04:14.366Z</time></trkpt><trkpt lat="41.5229678" lon="13.1742155"><ele>126.5</ele><time>2026-05-03T07:04:15.361Z</time></trkpt><trkpt lat="41.5232813" lon="13.1743522"><ele>128.0</ele><time>2026-05-03T07:04:16.363Z</time></trkpt><trkpt lat="41.5235725" lon="13.1744798"><ele>131.0</ele><time>2026-05-03T07:04:17.362Z</time></trkpt><trkpt lat="41.5238273" lon="13.1745979"><ele>134.0</ele><time>2026-05-03T07:04:18.363Z</time></trkpt><trkpt lat="41.5240397" lon="13.1747063"><ele>134.0</ele><time>2026-05-03T07:04:19.368Z</time></trkpt><trkpt lat="41.524236" lon="13.1748166"><ele>134.0</ele><time>2026-05-03T07:04:20.363Z</time></trkpt><trkpt lat="41.5244299" lon="13.1749472"><ele>134.0</ele><time>2026-05-03T07:04:21.362Z</time></trkpt><trkpt lat="41.5246154" lon="13.1750907"><ele>135.66666666666666</ele><time>2026-05-03T07:04:22.36Z</time></trkpt><trkpt lat="41.5247802" lon="13.1752295"><ele>137.33333333333334</ele><time>2026-05-03T07:04:23.363Z</time></trkpt><trkpt lat="41.5249563" lon="13.1753654"><ele>139.0</ele><time>2026-05-03T07:04:24.355Z</time></trkpt><trkpt lat="41.5251518" lon="13.1754903"><ele>139.0</ele><time>2026-05-03T07:04:25.36Z</time></trkpt><trkpt lat="41.5253559" lon="13.1755994"><ele>139.0</ele><time>2026-05-03T07:04:26.364Z</time></trkpt><trkpt lat="41.5255353" lon="13.175692"><ele>139.0</ele><time>2026-05-03T07:04:27.483Z</time></trkpt><trkpt lat="41.5259009" lon="13.1759165"><ele>144.5</ele><time>2026-05-03T07:04:29.359Z</time></trkpt><trkpt lat="41.526089" lon="13.1760951"><ele>150.0</ele><time>2026-05-03T07:04:30.363Z</time></trkpt><trkpt lat="41.5262863" lon="13.1762821"><ele>150.0</ele><time>2026-05-03T07:04:31.364Z</time></trkpt><trkpt lat="41.5264879" lon="13.1764806"><ele>150.0</ele><time>2026-05-03T07:04:32.365Z</time></trkpt><trkpt lat="41.5266628" lon="13.1766643"><ele>152.33333333333334</ele><time>2026-05-03T07:04:33.361Z</time></trkpt><trkpt lat="41.5268208" lon="13.1768326"><ele>154.66666666666669</ele><time>2026-05-03T07:04:34.367Z</time></trkpt><trkpt lat="41.5269588" lon="13.176986"><ele>157.0</ele><time>2026-05-03T07:04:35.372Z</time></trkpt><trkpt lat="41.5270816" lon="13.1771126"><ele>157.25</ele><time>2026-05-03T07:04:36.369Z</time></trkpt><trkpt lat="41.5271792" lon="13.1772181"><ele>157.5</ele><time>2026-05-03T07:04:37.371Z</time></trkpt><trkpt lat="41.5272785" lon="13.1772983"><ele>157.75</ele><time>2026-05-03T07:04:38.363Z</time></trkpt><trkpt lat="41.5273862" lon="13.1773353"><ele>158.0</ele><time>2026-05-03T07:04:39.363Z</time></trkpt><trkpt lat="41.5274985" lon="13.1773246"><ele>158.0</ele><time>2026-05-03T07:04:40.362Z</time></trkpt><trkpt lat="41.5276002" lon="13.1772683"><ele>158.0</ele><time>2026-05-03T07:04:41.36Z</time></trkpt><trkpt lat="41.5276779" lon="13.1771791"><ele>158.0</ele><time>2026-05-03T07:04:42.361Z</time></trkpt><trkpt lat="41.527757" lon="13.1771059"><ele>158.0</ele><time>2026-05-03T07:04:43.364Z</time></trkpt><trkpt lat="41.5278412" lon="13.1770729"><ele>158.0</ele><time>2026-05-03T07:04:44.37Z</time></trkpt><trkpt lat="41.5279033" lon="13.177043"><ele>160.25</ele><time>2026-05-03T07:04:45.366Z</time></trkpt><trkpt lat="41.5279662" lon="13.1771614"><ele>162.5</ele><time>2026-05-03T07:04:46.365Z</time></trkpt><trkpt lat="41.5280042" lon="13.1772662"><ele>164.75</ele><time>2026-05-03T07:04:47.372Z</time></trkpt><trkpt lat="41.5280311" lon="13.1774318"><ele>167.0</ele><time>2026-05-03T07:04:48.362Z</time></trkpt><trkpt lat="41.5280586" lon="13.1776095"><ele>168.5</ele><time>2026-05-03T07:04:49.363Z</time></trkpt><trkpt lat="41.5280903" lon="13.1777642"><ele>170.0</ele><time>2026-05-03T07:04:50.364Z</time></trkpt><trkpt lat="41.5281495" lon="13.1779265"><ele>171.5</ele><time>2026-05-03T07:04:51.375Z</time></trkpt><trkpt lat="41.5282398" lon="13.1780948"><ele>173.0</ele><time>2026-05-03T07:04:52.367Z</time></trkpt><trkpt lat="41.5283275" lon="13.1782702"><ele>175.33333333333331</ele><time>2026-05-03T07:04:53.366Z</time></trkpt><trkpt lat="41.5284464" lon="13.1784885"><ele>177.66666666666666</ele><time>2026-05-03T07:04:54.366Z</time></trkpt><trkpt lat="41.5285375" lon="13.1786741"><ele>180.0</ele><time>2026-05-03T07:04:55.363Z</time></trkpt><trkpt lat="41.5286153" lon="13.1788286"><ele>180.0</ele><time>2026-05-03T07:04:56.375Z</time></trkpt><trkpt lat="41.5286791" lon="13.178949"><ele>180.0</ele><time>2026-05-03T07:04:57.366Z</time></trkpt><trkpt lat="41.5287253" lon="13.1790303"><ele>180.0</ele><time>2026-05-03T07:04:58.376Z</time></trkpt><trkpt lat="41.5288278" lon="13.1790752"><ele>180.0</ele><time>2026-05-03T07:05:00.373Z</time></trkpt><trkpt lat="41.5288822" lon="13.1789307"><ele>180.0</ele><time>2026-05-03T07:05:02.363Z</time></trkpt><trkpt lat="41.5288556" lon="13.178828"><ele>182.33333333333334</ele><time>2026-05-03T07:05:03.367Z</time></trkpt><trkpt lat="41.5288154" lon="13.17872"><ele>184.66666666666669</ele><time>2026-05-03T07:05:04.364Z</time></trkpt><trkpt lat="41.5287925" lon="13.1785953"><ele>187.0</ele><time>2026-05-03T07:05:05.375Z</time></trkpt><trkpt lat="41.5287979" lon="13.1784807"><ele>189.33333333333334</ele><time>2026-05-03T07:05:06.377Z</time></trkpt><trkpt lat="41.5288417" lon="13.1783918"><ele>191.66666666666669</ele><time>2026-05-03T07:05:07.378Z</time></trkpt><trkpt lat="41.5289033" lon="13.1783441"><ele>194.0</ele><time>2026-05-03T07:05:08.375Z</time></trkpt><trkpt lat="41.5290139" lon="13.1783994"><ele>194.0</ele><time>2026-05-03T07:05:10.362Z</time></trkpt><trkpt lat="41.529055" lon="13.1784841"><ele>194.0</ele><time>2026-05-03T07:05:11.365Z</time></trkpt><trkpt lat="41.5290718" lon="13.1786114"><ele>194.0</ele><time>2026-05-03T07:05:12.367Z</time></trkpt><trkpt lat="41.5291016" lon="13.1787466"><ele>194.0</ele><time>2026-05-03T07:05:13.365Z</time></trkpt><trkpt lat="41.5291641" lon="13.1788902"><ele>194.0</ele><time>2026-05-03T07:05:14.367Z</time></trkpt><trkpt lat="41.5292558" lon="13.1790521"><ele>194.39999999999998</ele><time>2026-05-03T07:05:15.37Z</time></trkpt><trkpt lat="41.5293456" lon="13.1791924"><ele>194.8</ele><time>2026-05-03T07:05:16.366Z</time></trkpt><trkpt lat="41.5294222" lon="13.1792945"><ele>195.2</ele><time>2026-05-03T07:05:17.366Z</time></trkpt><trkpt lat="41.5294959" lon="13.1793611"><ele>195.60000000000002</ele><time>2026-05-03T07:05:18.366Z</time></trkpt><trkpt lat="41.529579" lon="13.1793866"><ele>196.0</ele><time>2026-05-03T07:05:19.375Z</time></trkpt><trkpt lat="41.5296854" lon="13.1793731"><ele>198.66666666666666</ele><time>2026-05-03T07:05:20.375Z</time></trkpt><trkpt lat="41.5298187" lon="13.1793239"><ele>201.33333333333331</ele><time>2026-05-03T07:05:21.365Z</time></trkpt><trkpt lat="41.5299723" lon="13.179295"><ele>204.0</ele><time>2026-05-03T07:05:22.377Z</time></trkpt><trkpt lat="41.5301553" lon="13.1792978"><ele>204.0</ele><time>2026-05-03T07:05:23.364Z</time></trkpt><trkpt lat="41.5303757" lon="13.1793277"><ele>204.0</ele><time>2026-05-03T07:05:24.374Z</time></trkpt><trkpt lat="41.5306394" lon="13.1793824"><ele>205.0</ele><time>2026-05-03T07:05:25.375Z</time></trkpt><trkpt lat="41.5309279" lon="13.1794496"><ele>206.0</ele><time>2026-05-03T07:05:26.375Z</time></trkpt><trkpt lat="41.5312076" lon="13.1795103"><ele>206.5</ele><time>2026-05-03T07:05:27.379Z</time></trkpt><trkpt lat="41.531476" lon="13.1795619"><ele>207.0</ele><time>2026-05-03T07:05:28.362Z</time></trkpt><trkpt lat="41.5317328" lon="13.1796105"><ele>207.0</ele><time>2026-05-03T07:05:29.363Z</time></trkpt><trkpt lat="41.5319639" lon="13.1796537"><ele>207.0</ele><time>2026-05-03T07:05:30.362Z</time></trkpt><trkpt lat="41.5321707" lon="13.1796869"><ele>207.0</ele><time>2026-05-03T07:05:31.362Z</time></trkpt><trkpt lat="41.5323435" lon="13.1797085"><ele>206.0</ele><time>2026-05-03T07:05:32.365Z</time></trkpt><trkpt lat="41.5325085" lon="13.179735"><ele>205.0</ele><time>2026-05-03T07:05:33.363Z</time></trkpt><trkpt lat="41.5326851" lon="13.1797947"><ele>204.0</ele><time>2026-05-03T07:05:34.354Z</time></trkpt><trkpt lat="41.5328408" lon="13.1798645"><ele>209.33333333333331</ele><time>2026-05-03T07:05:35.36Z</time></trkpt><trkpt lat="41.5330105" lon="13.179912"><ele>214.66666666666666</ele><time>2026-05-03T07:05:36.363Z</time></trkpt><trkpt lat="41.5331975" lon="13.1799281"><ele>220.0</ele><time>2026-05-03T07:05:37.365Z</time></trkpt><trkpt lat="41.5333886" lon="13.1799338"><ele>220.0</ele><time>2026-05-03T07:05:38.363Z</time></trkpt><trkpt lat="41.533579" lon="13.1799604"><ele>220.0</ele><time>2026-05-03T07:05:39.373Z</time></trkpt><trkpt lat="41.5337887" lon="13.1800092"><ele>220.0</ele><time>2026-05-03T07:05:40.371Z</time></trkpt><trkpt lat="41.534024" lon="13.1800737"><ele>219.0</ele><time>2026-05-03T07:05:41.371Z</time></trkpt><trkpt lat="41.5342704" lon="13.1801534"><ele>218.0</ele><time>2026-05-03T07:05:42.378Z</time></trkpt><trkpt lat="41.5344923" lon="13.1802319"><ele>217.66666666666669</ele><time>2026-05-03T07:05:43.374Z</time></trkpt><trkpt lat="41.5346923" lon="13.1803078"><ele>217.33333333333331</ele><time>2026-05-03T07:05:44.369Z</time></trkpt><trkpt lat="41.5348682" lon="13.1803743"><ele>217.0</ele><time>2026-05-03T07:05:45.362Z</time></trkpt><trkpt lat="41.5350301" lon="13.1804179"><ele>217.0</ele><time>2026-05-03T07:05:46.362Z</time></trkpt><trkpt lat="41.5351997" lon="13.1804364"><ele>217.0</ele><time>2026-05-03T07:05:47.367Z</time></trkpt><trkpt lat="41.5353849" lon="13.1804143"><ele>217.0</ele><time>2026-05-03T07:05:48.361Z</time></trkpt><trkpt lat="41.5356063" lon="13.1803576"><ele>218.5</ele><time>2026-05-03T07:05:49.362Z</time></trkpt><trkpt lat="41.5358516" lon="13.1803056"><ele>220.0</ele><time>2026-05-03T07:05:50.36Z</time></trkpt><trkpt lat="41.5360779" lon="13.1802651"><ele>221.66666666666666</ele><time>2026-05-03T07:05:51.358Z</time></trkpt><trkpt lat="41.536304" lon="13.1802426"><ele>223.33333333333331</ele><time>2026-05-03T07:05:52.357Z</time></trkpt><trkpt lat="41.5365138" lon="13.1802291"><ele>225.0</ele><time>2026-05-03T07:05:53.368Z</time></trkpt><trkpt lat="41.5367126" lon="13.1801997"><ele>225.0</ele><time>2026-05-03T07:05:54.363Z</time></trkpt><trkpt lat="41.5369061" lon="13.1801554"><ele>225.0</ele><time>2026-05-03T07:05:55.362Z</time></trkpt><trkpt lat="41.5370816" lon="13.1800815"><ele>225.0</ele><time>2026-05-03T07:05:56.364Z</time></trkpt><trkpt lat="41.5372426" lon="13.1799705"><ele>228.33333333333331</ele><time>2026-05-03T07:05:57.372Z</time></trkpt><trkpt lat="41.5374125" lon="13.179819"><ele>231.66666666666666</ele><time>2026-05-03T07:05:58.363Z</time></trkpt><trkpt lat="41.5375848" lon="13.1796381"><ele>235.0</ele><time>2026-05-03T07:05:59.363Z</time></trkpt><trkpt lat="41.5377353" lon="13.1794811"><ele>235.0</ele><time>2026-05-03T07:06:00.367Z</time></trkpt><trkpt lat="41.537854" lon="13.179361"><ele>235.0</ele><time>2026-05-03T07:06:01.362Z</time></trkpt><trkpt lat="41.5379679" lon="13.1792626"><ele>235.0</ele><time>2026-05-03T07:06:02.359Z</time></trkpt><trkpt lat="41.5380945" lon="13.1791885"><ele>235.0</ele><time>2026-05-03T07:06:03.364Z</time></trkpt><trkpt lat="41.5382507" lon="13.1791459"><ele>236.66666666666666</ele><time>2026-05-03T07:06:04.364Z</time></trkpt><trkpt lat="41.538431" lon="13.1791348"><ele>238.33333333333331</ele><time>2026-05-03T07:06:05.367Z</time></trkpt><trkpt lat="41.5386234" lon="13.1791281"><ele>240.0</ele><time>2026-05-03T07:06:06.365Z</time></trkpt><trkpt lat="41.5387918" lon="13.1791213"><ele>240.25</ele><time>2026-05-03T07:06:07.364Z</time></trkpt><trkpt lat="41.538936" lon="13.1790963"><ele>240.5</ele><time>2026-05-03T07:06:08.361Z</time></trkpt><trkpt lat="41.5390724" lon="13.1790444"><ele>240.75</ele><time>2026-05-03T07:06:09.363Z</time></trkpt><trkpt lat="41.5391978" lon="13.1789536"><ele>241.0</ele><time>2026-05-03T07:06:10.374Z</time></trkpt><trkpt lat="41.5393113" lon="13.1788112"><ele>241.0</ele><time>2026-05-03T07:06:11.371Z</time></trkpt><trkpt lat="41.5394179" lon="13.17864"><ele>241.0</ele><time>2026-05-03T07:06:12.374Z</time></trkpt><trkpt lat="41.5395068" lon="13.1784781"><ele>241.0</ele><time>2026-05-03T07:06:13.358Z</time></trkpt><trkpt lat="41.5395665" lon="13.178304"><ele>244.33333333333331</ele><time>2026-05-03T07:06:14.365Z</time></trkpt><trkpt lat="41.5396037" lon="13.1780808"><ele>247.66666666666669</ele><time>2026-05-03T07:06:15.368Z</time></trkpt><trkpt lat="41.539629" lon="13.1778379"><ele>251.0</ele><time>2026-05-03T07:06:16.369Z</time></trkpt><trkpt lat="41.5396534" lon="13.1776147"><ele>251.0</ele><time>2026-05-03T07:06:17.368Z</time></trkpt><trkpt lat="41.5396733" lon="13.1774206"><ele>251.0</ele><time>2026-05-03T07:06:18.367Z</time></trkpt><trkpt lat="41.5397072" lon="13.1772648"><ele>251.0</ele><time>2026-05-03T07:06:19.367Z</time></trkpt><trkpt lat="41.5397608" lon="13.1771575"><ele>251.0</ele><time>2026-05-03T07:06:20.371Z</time></trkpt><trkpt lat="41.5398379" lon="13.17709"><ele>253.66666666666669</ele><time>2026-05-03T07:06:21.493Z</time></trkpt><trkpt lat="41.5400701" lon="13.1770805"><ele>256.3333333333333</ele><time>2026-05-03T07:06:23.374Z</time></trkpt><trkpt lat="41.5401887" lon="13.1770868"><ele>259.0</ele><time>2026-05-03T07:06:24.374Z</time></trkpt><trkpt lat="41.5403095" lon="13.177053"><ele>259.66666666666663</ele><time>2026-05-03T07:06:25.375Z</time></trkpt><trkpt lat="41.5404253" lon="13.1769856"><ele>260.3333333333333</ele><time>2026-05-03T07:06:26.375Z</time></trkpt><trkpt lat="41.540543" lon="13.1769168"><ele>261.0</ele><time>2026-05-03T07:06:27.375Z</time></trkpt><trkpt lat="41.5406663" lon="13.1767148"><ele>261.0</ele><time>2026-05-03T07:06:28.378Z</time></trkpt><trkpt lat="41.5408041" lon="13.1765451"><ele>261.0</ele><time>2026-05-03T07:06:29.372Z</time></trkpt><trkpt lat="41.5409261" lon="13.1763821"><ele>261.0</ele><time>2026-05-03T07:06:30.374Z</time></trkpt><trkpt lat="41.5410623" lon="13.1762371"><ele>261.3333333333333</ele><time>2026-05-03T07:06:31.372Z</time></trkpt><trkpt lat="41.5411886" lon="13.1760748"><ele>261.66666666666663</ele><time>2026-05-03T07:06:32.373Z</time></trkpt><trkpt lat="41.5412699" lon="13.1758951"><ele>262.0</ele><time>2026-05-03T07:06:33.373Z</time></trkpt><trkpt lat="41.5413258" lon="13.1757107"><ele>264.25</ele><time>2026-05-03T07:06:34.378Z</time></trkpt><trkpt lat="41.5413616" lon="13.1755161"><ele>266.5</ele><time>2026-05-03T07:06:35.375Z</time></trkpt><trkpt lat="41.5413745" lon="13.1753232"><ele>268.75</ele><time>2026-05-03T07:06:36.374Z</time></trkpt><trkpt lat="41.5413921" lon="13.1751243"><ele>271.0</ele><time>2026-05-03T07:06:37.374Z</time></trkpt><trkpt lat="41.5413725" lon="13.1749164"><ele>270.75</ele><time>2026-05-03T07:06:38.358Z</time></trkpt><trkpt lat="41.5413562" lon="13.1747964"><ele>270.5</ele><time>2026-05-03T07:06:39.361Z</time></trkpt><trkpt lat="41.541368" lon="13.1746443"><ele>270.25</ele><time>2026-05-03T07:06:40.359Z</time></trkpt><trkpt lat="41.5414238" lon="13.1744785"><ele>270.0</ele><time>2026-05-03T07:06:41.367Z</time></trkpt><trkpt lat="41.541513" lon="13.1743163"><ele>270.0</ele><time>2026-05-03T07:06:42.361Z</time></trkpt><trkpt lat="41.5416372" lon="13.1741128"><ele>270.0</ele><time>2026-05-03T07:06:43.361Z</time></trkpt><trkpt lat="41.5417661" lon="13.1739106"><ele>270.0</ele><time>2026-05-03T07:06:44.362Z</time></trkpt><trkpt lat="41.5419388" lon="13.1736434"><ele>270.6666666666667</ele><time>2026-05-03T07:06:45.363Z</time></trkpt><trkpt lat="41.5420968" lon="13.1734124"><ele>271.33333333333337</ele><time>2026-05-03T07:06:46.365Z</time></trkpt><trkpt lat="41.5422368" lon="13.1731997"><ele>272.0</ele><time>2026-05-03T07:06:47.364Z</time></trkpt><trkpt lat="41.5423879" lon="13.1730033"><ele>271.25</ele><time>2026-05-03T07:06:48.361Z</time></trkpt><trkpt lat="41.5424848" lon="13.1729024"><ele>270.5</ele><time>2026-05-03T07:06:49.365Z</time></trkpt><trkpt lat="41.5426167" lon="13.1728031"><ele>269.75</ele><time>2026-05-03T07:06:50.364Z</time></trkpt><trkpt lat="41.5427517" lon="13.1727322"><ele>269.0</ele><time>2026-05-03T07:06:51.36Z</time></trkpt><trkpt lat="41.5428957" lon="13.172685"><ele>269.0</ele><time>2026-05-03T07:06:52.365Z</time></trkpt><trkpt lat="41.5430451" lon="13.1726828"><ele>269.0</ele><time>2026-05-03T07:06:53.363Z</time></trkpt><trkpt lat="41.5431935" lon="13.172718"><ele>269.0</ele><time>2026-05-03T07:06:54.361Z</time></trkpt><trkpt lat="41.5433235" lon="13.172777"><ele>269.0</ele><time>2026-05-03T07:06:55.363Z</time></trkpt><trkpt lat="41.5434792" lon="13.1728804"><ele>269.0</ele><time>2026-05-03T07:06:56.36Z</time></trkpt><trkpt lat="41.5436488" lon="13.1730257"><ele>269.0</ele><time>2026-05-03T07:06:57.36Z</time></trkpt><trkpt lat="41.5438215" lon="13.1731792"><ele>269.0</ele><time>2026-05-03T07:06:58.364Z</time></trkpt><trkpt lat="41.5439776" lon="13.1733216"><ele>271.0</ele><time>2026-05-03T07:06:59.363Z</time></trkpt><trkpt lat="41.5441162" lon="13.1734531"><ele>273.0</ele><time>2026-05-03T07:07:00.362Z</time></trkpt><trkpt lat="41.5442303" lon="13.1735508"><ele>275.0</ele><time>2026-05-03T07:07:01.365Z</time></trkpt><trkpt lat="41.5443208" lon="13.1736136"><ele>277.0</ele><time>2026-05-03T07:07:02.358Z</time></trkpt><trkpt lat="41.5443988" lon="13.1736297"><ele>277.0</ele><time>2026-05-03T07:07:03.364Z</time></trkpt><trkpt lat="41.5444602" lon="13.1736056"><ele>277.0</ele><time>2026-05-03T07:07:04.366Z</time></trkpt><trkpt lat="41.5445266" lon="13.1735391"><ele>277.0</ele><time>2026-05-03T07:07:05.363Z</time></trkpt><trkpt lat="41.5445892" lon="13.1734492"><ele>277.0</ele><time>2026-05-03T07:07:06.363Z</time></trkpt><trkpt lat="41.5446385" lon="13.1733679"><ele>277.0</ele><time>2026-05-03T07:07:07.364Z</time></trkpt><trkpt lat="41.5446386" lon="13.1731937"><ele>277.0</ele><time>2026-05-03T07:07:09.366Z</time></trkpt><trkpt lat="41.5445751" lon="13.1730992"><ele>276.0</ele><time>2026-05-03T07:07:10.366Z</time></trkpt><trkpt lat="41.5444825" lon="13.1730078"><ele>275.0</ele><time>2026-05-03T07:07:11.364Z</time></trkpt><trkpt lat="41.5444155" lon="13.1728977"><ele>274.0</ele><time>2026-05-03T07:07:12.361Z</time></trkpt><trkpt lat="41.5443694" lon="13.1727522"><ele>273.0</ele><time>2026-05-03T07:07:13.365Z</time></trkpt><trkpt lat="41.5443515" lon="13.1725819"><ele>273.0</ele><time>2026-05-03T07:07:14.375Z</time></trkpt><trkpt lat="41.5443623" lon="13.172407"><ele>273.0</ele><time>2026-05-03T07:07:15.377Z</time></trkpt><trkpt lat="41.5443985" lon="13.1722432"><ele>273.0</ele><time>2026-05-03T07:07:16.369Z</time></trkpt><trkpt lat="41.5444562" lon="13.1721217"><ele>273.0</ele><time>2026-05-03T07:07:17.372Z</time></trkpt><trkpt lat="41.5445449" lon="13.17203"><ele>274.6666666666667</ele><time>2026-05-03T07:07:18.373Z</time></trkpt><trkpt lat="41.544669" lon="13.1719638"><ele>276.33333333333337</ele><time>2026-05-03T07:07:19.362Z</time></trkpt><trkpt lat="41.5448369" lon="13.1719157"><ele>278.0</ele><time>2026-05-03T07:07:20.359Z</time></trkpt><trkpt lat="41.5450412" lon="13.1718734"><ele>278.0</ele><time>2026-05-03T07:07:21.36Z</time></trkpt><trkpt lat="41.545308" lon="13.1718286"><ele>278.0</ele><time>2026-05-03T07:07:22.363Z</time></trkpt><trkpt lat="41.5455976" lon="13.1717779"><ele>279.5</ele><time>2026-05-03T07:07:23.361Z</time></trkpt><trkpt lat="41.545883" lon="13.1717352"><ele>281.0</ele><time>2026-05-03T07:07:24.362Z</time></trkpt><trkpt lat="41.5461493" lon="13.1716945"><ele>282.5</ele><time>2026-05-03T07:07:25.36Z</time></trkpt><trkpt lat="41.5463945" lon="13.1716581"><ele>284.0</ele><time>2026-05-03T07:07:26.362Z</time></trkpt><trkpt lat="41.546625" lon="13.1716247"><ele>284.0</ele><time>2026-05-03T07:07:27.363Z</time></trkpt><trkpt lat="41.5468604" lon="13.1715998"><ele>284.0</ele><time>2026-05-03T07:07:28.364Z</time></trkpt><trkpt lat="41.5470882" lon="13.171595"><ele>286.5</ele><time>2026-05-03T07:07:29.368Z</time></trkpt><trkpt lat="41.547314" lon="13.1716016"><ele>289.0</ele><time>2026-05-03T07:07:30.367Z</time></trkpt><trkpt lat="41.5475574" lon="13.1716141"><ele>289.0</ele><time>2026-05-03T07:07:31.363Z</time></trkpt><trkpt lat="41.5477873" lon="13.1716289"><ele>289.0</ele><time>2026-05-03T07:07:32.364Z</time></trkpt><trkpt lat="41.5479885" lon="13.1716372"><ele>289.0</ele><time>2026-05-03T07:07:33.365Z</time></trkpt><trkpt lat="41.5481538" lon="13.1716359"><ele>288.0</ele><time>2026-05-03T07:07:34.364Z</time></trkpt><trkpt lat="41.5482945" lon="13.1716097"><ele>287.0</ele><time>2026-05-03T07:07:35.369Z</time></trkpt><trkpt lat="41.5484157" lon="13.171545"><ele>286.0</ele><time>2026-05-03T07:07:36.364Z</time></trkpt><trkpt lat="41.5485318" lon="13.1714357"><ele>285.0</ele><time>2026-05-03T07:07:37.363Z</time></trkpt><trkpt lat="41.5486506" lon="13.1712787"><ele>287.6666666666667</ele><time>2026-05-03T07:07:38.363Z</time></trkpt><trkpt lat="41.5487917" lon="13.1710757"><ele>290.33333333333337</ele><time>2026-05-03T07:07:39.362Z</time></trkpt><trkpt lat="41.5489366" lon="13.1708752"><ele>293.0</ele><time>2026-05-03T07:07:40.373Z</time></trkpt><trkpt lat="41.5490728" lon="13.1706907"><ele>293.0</ele><time>2026-05-03T07:07:41.364Z</time></trkpt><trkpt lat="41.5491926" lon="13.1705358"><ele>293.0</ele><time>2026-05-03T07:07:42.362Z</time></trkpt><trkpt lat="41.549306" lon="13.1704207"><ele>293.0</ele><time>2026-05-03T07:07:43.37Z</time></trkpt><trkpt lat="41.5494158" lon="13.1703469"><ele>293.0</ele><time>2026-05-03T07:07:44.362Z</time></trkpt><trkpt lat="41.5495442" lon="13.1703139"><ele>292.33333333333337</ele><time>2026-05-03T07:07:45.374Z</time></trkpt><trkpt lat="41.549696" lon="13.1703269"><ele>291.6666666666667</ele><time>2026-05-03T07:07:46.365Z</time></trkpt><trkpt lat="41.5498806" lon="13.1703765"><ele>291.0</ele><time>2026-05-03T07:07:47.362Z</time></trkpt><trkpt lat="41.5500808" lon="13.1704642"><ele>291.0</ele><time>2026-05-03T07:07:48.362Z</time></trkpt><trkpt lat="41.550273" lon="13.1705784"><ele>291.0</ele><time>2026-05-03T07:07:49.36Z</time></trkpt><trkpt lat="41.550458" lon="13.1707133"><ele>291.0</ele><time>2026-05-03T07:07:50.36Z</time></trkpt><trkpt lat="41.5506299" lon="13.1708647"><ele>292.6666666666667</ele><time>2026-05-03T07:07:51.359Z</time></trkpt><trkpt lat="41.5507781" lon="13.1710227"><ele>294.33333333333337</ele><time>2026-05-03T07:07:52.361Z</time></trkpt><trkpt lat="41.5509215" lon="13.1712054"><ele>296.0</ele><time>2026-05-03T07:07:53.362Z</time></trkpt><trkpt lat="41.5510406" lon="13.171403"><ele>297.0</ele><time>2026-05-03T07:07:54.36Z</time></trkpt><trkpt lat="41.5511461" lon="13.1715802"><ele>298.0</ele><time>2026-05-03T07:07:55.362Z</time></trkpt><trkpt lat="41.5512772" lon="13.1717549"><ele>299.0</ele><time>2026-05-03T07:07:56.363Z</time></trkpt><trkpt lat="41.5514406" lon="13.1719265"><ele>299.0</ele><time>2026-05-03T07:07:57.378Z</time></trkpt><trkpt lat="41.551637" lon="13.1721048"><ele>299.0</ele><time>2026-05-03T07:07:58.362Z</time></trkpt><trkpt lat="41.5518442" lon="13.172297"><ele>302.0</ele><time>2026-05-03T07:07:59.363Z</time></trkpt><trkpt lat="41.5520718" lon="13.1725042"><ele>305.0</ele><time>2026-05-03T07:08:00.362Z</time></trkpt><trkpt lat="41.5522619" lon="13.1726813"><ele>305.0</ele><time>2026-05-03T07:08:01.368Z</time></trkpt><trkpt lat="41.5524281" lon="13.172827"><ele>305.0</ele><time>2026-05-03T07:08:02.364Z</time></trkpt><trkpt lat="41.5525719" lon="13.1729577"><ele>305.0</ele><time>2026-05-03T07:08:03.364Z</time></trkpt><trkpt lat="41.5526782" lon="13.1730886"><ele>306.0</ele><time>2026-05-03T07:08:04.37Z</time></trkpt><trkpt lat="41.5527767" lon="13.1732537"><ele>307.0</ele><time>2026-05-03T07:08:05.364Z</time></trkpt><trkpt lat="41.5528575" lon="13.1734276"><ele>308.0</ele><time>2026-05-03T07:08:06.363Z</time></trkpt><trkpt lat="41.5529362" lon="13.1735754"><ele>309.0</ele><time>2026-05-03T07:08:07.365Z</time></trkpt><trkpt lat="41.5530303" lon="13.1737072"><ele>309.0</ele><time>2026-05-03T07:08:08.361Z</time></trkpt><trkpt lat="41.5531439" lon="13.1738099"><ele>309.0</ele><time>2026-05-03T07:08:09.366Z</time></trkpt><trkpt lat="41.553277" lon="13.1738791"><ele>309.0</ele><time>2026-05-03T07:08:10.375Z</time></trkpt><trkpt lat="41.5533993" lon="13.1739143"><ele>309.0</ele><time>2026-05-03T07:08:11.38Z</time></trkpt><trkpt lat="41.5535202" lon="13.1739517"><ele>309.0</ele><time>2026-05-03T07:08:12.37Z</time></trkpt><trkpt lat="41.553608" lon="13.1738496"><ele>309.0</ele><time>2026-05-03T07:08:13.377Z</time></trkpt><trkpt lat="41.5537095" lon="13.173733"><ele>309.0</ele><time>2026-05-03T07:08:14.372Z</time></trkpt><trkpt lat="41.5538122" lon="13.1735689"><ele>309.0</ele><time>2026-05-03T07:08:15.371Z</time></trkpt><trkpt lat="41.5539123" lon="13.173356"><ele>316.0</ele><time>2026-05-03T07:08:16.372Z</time></trkpt><trkpt lat="41.5540039" lon="13.1730827"><ele>323.0</ele><time>2026-05-03T07:08:17.376Z</time></trkpt><trkpt lat="41.5541095" lon="13.1727768"><ele>323.0</ele><time>2026-05-03T07:08:18.373Z</time></trkpt><trkpt lat="41.5542202" lon="13.1724769"><ele>323.0</ele><time>2026-05-03T07:08:19.373Z</time></trkpt><trkpt lat="41.5543309" lon="13.1722036"><ele>321.33333333333337</ele><time>2026-05-03T07:08:20.376Z</time></trkpt><trkpt lat="41.5544329" lon="13.171959"><ele>319.6666666666667</ele><time>2026-05-03T07:08:21.374Z</time></trkpt><trkpt lat="41.5545219" lon="13.1717466"><ele>318.0</ele><time>2026-05-03T07:08:22.372Z</time></trkpt><trkpt lat="41.554587" lon="13.1715544"><ele>323.75</ele><time>2026-05-03T07:08:23.375Z</time></trkpt><trkpt lat="41.5546278" lon="13.1713853"><ele>329.5</ele><time>2026-05-03T07:08:24.375Z</time></trkpt><trkpt lat="41.5546359" lon="13.1712213"><ele>335.25</ele><time>2026-05-03T07:08:25.375Z</time></trkpt><trkpt lat="41.5546496" lon="13.1710512"><ele>341.0</ele><time>2026-05-03T07:08:26.383Z</time></trkpt><trkpt lat="41.5545446" lon="13.1708474"><ele>337.25</ele><time>2026-05-03T07:08:27.36Z</time></trkpt><trkpt lat="41.554502" lon="13.1706817"><ele>333.5</ele><time>2026-05-03T07:08:28.359Z</time></trkpt><trkpt lat="41.5544727" lon="13.1705026"><ele>329.75</ele><time>2026-05-03T07:08:29.365Z</time></trkpt><trkpt lat="41.5544426" lon="13.1703432"><ele>326.0</ele><time>2026-05-03T07:08:30.358Z</time></trkpt><trkpt lat="41.5545167" lon="13.1701742"><ele>329.33333333333337</ele><time>2026-05-03T07:08:31.36Z</time></trkpt><trkpt lat="41.5546068" lon="13.1700062"><ele>332.6666666666667</ele><time>2026-05-03T07:08:32.359Z</time></trkpt><trkpt lat="41.5547231" lon="13.1698318"><ele>336.0</ele><time>2026-05-03T07:08:33.363Z</time></trkpt><trkpt lat="41.5548675" lon="13.1696388"><ele>336.0</ele><time>2026-05-03T07:08:34.36Z</time></trkpt><trkpt lat="41.5550285" lon="13.1694295"><ele>336.0</ele><time>2026-05-03T07:08:35.366Z</time></trkpt><trkpt lat="41.555176" lon="13.1692473"><ele>336.0</ele><time>2026-05-03T07:08:36.372Z</time></trkpt><trkpt lat="41.5553136" lon="13.169093"><ele>335.0</ele><time>2026-05-03T07:08:37.365Z</time></trkpt><trkpt lat="41.555436" lon="13.1689833"><ele>334.0</ele><time>2026-05-03T07:08:38.361Z</time></trkpt><trkpt lat="41.5555701" lon="13.168901"><ele>333.0</ele><time>2026-05-03T07:08:39.361Z</time></trkpt><trkpt lat="41.5556971" lon="13.1688644"><ele>332.0</ele><time>2026-05-03T07:08:40.365Z</time></trkpt><trkpt lat="41.5558572" lon="13.1688714"><ele>332.0</ele><time>2026-05-03T07:08:41.368Z</time></trkpt><trkpt lat="41.5560407" lon="13.1688972"><ele>332.0</ele><time>2026-05-03T07:08:42.364Z</time></trkpt><trkpt lat="41.5562385" lon="13.1689296"><ele>332.0</ele><time>2026-05-03T07:08:43.366Z</time></trkpt><trkpt lat="41.5564344" lon="13.1689622"><ele>333.6666666666667</ele><time>2026-05-03T07:08:44.361Z</time></trkpt><trkpt lat="41.5566156" lon="13.1689863"><ele>335.3333333333333</ele><time>2026-05-03T07:08:45.376Z</time></trkpt><trkpt lat="41.5567702" lon="13.1690007"><ele>337.0</ele><time>2026-05-03T07:08:46.365Z</time></trkpt><trkpt lat="41.5569283" lon="13.1689965"><ele>340.0</ele><time>2026-05-03T07:08:47.36Z</time></trkpt><trkpt lat="41.5570874" lon="13.1689709"><ele>343.0</ele><time>2026-05-03T07:08:48.367Z</time></trkpt><trkpt lat="41.5572205" lon="13.1689175"><ele>346.0</ele><time>2026-05-03T07:08:49.369Z</time></trkpt><trkpt lat="41.5573435" lon="13.1688244"><ele>349.0</ele><time>2026-05-03T07:08:50.362Z</time></trkpt><trkpt lat="41.5574593" lon="13.1687066"><ele>349.0</ele><time>2026-05-03T07:08:51.361Z</time></trkpt><trkpt lat="41.5575655" lon="13.1685278"><ele>349.0</ele><time>2026-05-03T07:08:52.362Z</time></trkpt><trkpt lat="41.5576694" lon="13.1683868"><ele>349.0</ele><time>2026-05-03T07:08:53.369Z</time></trkpt><trkpt lat="41.5577581" lon="13.1682637"><ele>349.0</ele><time>2026-05-03T07:08:54.367Z</time></trkpt><trkpt lat="41.557852" lon="13.1681689"><ele>347.5</ele><time>2026-05-03T07:08:55.361Z</time></trkpt><trkpt lat="41.5579729" lon="13.168103"><ele>346.0</ele><time>2026-05-03T07:08:56.366Z</time></trkpt><trkpt lat="41.5581055" lon="13.1680866"><ele>344.5</ele><time>2026-05-03T07:08:57.364Z</time></trkpt><trkpt lat="41.5582467" lon="13.1681089"><ele>343.0</ele><time>2026-05-03T07:08:58.363Z</time></trkpt><trkpt lat="41.5583837" lon="13.1681729"><ele>347.0</ele><time>2026-05-03T07:08:59.364Z</time></trkpt><trkpt lat="41.5585225" lon="13.1682786"><ele>351.0</ele><time>2026-05-03T07:09:00.36Z</time></trkpt><trkpt lat="41.558664" lon="13.1684206"><ele>355.0</ele><time>2026-05-03T07:09:01.365Z</time></trkpt><trkpt lat="41.5587877" lon="13.1685367"><ele>355.25</ele><time>2026-05-03T07:09:02.363Z</time></trkpt><trkpt lat="41.5589139" lon="13.1686216"><ele>355.5</ele><time>2026-05-03T07:09:03.364Z</time></trkpt><trkpt lat="41.5590326" lon="13.1686722"><ele>355.75</ele><time>2026-05-03T07:09:04.364Z</time></trkpt><trkpt lat="41.5591433" lon="13.1686695"><ele>356.0</ele><time>2026-05-03T07:09:05.365Z</time></trkpt><trkpt lat="41.5592423" lon="13.1686208"><ele>356.0</ele><time>2026-05-03T07:09:06.367Z</time></trkpt><trkpt lat="41.5593334" lon="13.1685093"><ele>356.0</ele><time>2026-05-03T07:09:07.364Z</time></trkpt><trkpt lat="41.5594079" lon="13.1683558"><ele>356.0</ele><time>2026-05-03T07:09:08.364Z</time></trkpt><trkpt lat="41.5594831" lon="13.1681936"><ele>356.0</ele><time>2026-05-03T07:09:09.366Z</time></trkpt><trkpt lat="41.5595445" lon="13.1680447"><ele>357.0</ele><time>2026-05-03T07:09:10.378Z</time></trkpt><trkpt lat="41.5595713" lon="13.1678886"><ele>358.0</ele><time>2026-05-03T07:09:11.374Z</time></trkpt><trkpt lat="41.5595726" lon="13.1677164"><ele>359.0</ele><time>2026-05-03T07:09:12.388Z</time></trkpt><trkpt lat="41.5595422" lon="13.1675324"><ele>360.0</ele><time>2026-05-03T07:09:13.364Z</time></trkpt><trkpt lat="41.5594966" lon="13.1673494"><ele>360.0</ele><time>2026-05-03T07:09:14.373Z</time></trkpt><trkpt lat="41.5594656" lon="13.167171"><ele>360.0</ele><time>2026-05-03T07:09:15.372Z</time></trkpt><trkpt lat="41.5594509" lon="13.1669678"><ele>360.0</ele><time>2026-05-03T07:09:16.378Z</time></trkpt><trkpt lat="41.5594678" lon="13.166742"><ele>360.0</ele><time>2026-05-03T07:09:17.36Z</time></trkpt><trkpt lat="41.5595122" lon="13.1664674"><ele>360.0</ele><time>2026-05-03T07:09:18.364Z</time></trkpt><trkpt lat="41.5595738" lon="13.1661439"><ele>370.5</ele><time>2026-05-03T07:09:19.366Z</time></trkpt><trkpt lat="41.559638" lon="13.1658128"><ele>381.0</ele><time>2026-05-03T07:09:20.362Z</time></trkpt><trkpt lat="41.5597007" lon="13.1654774"><ele>381.0</ele><time>2026-05-03T07:09:21.365Z</time></trkpt><trkpt lat="41.5597543" lon="13.1651857"><ele>381.0</ele><time>2026-05-03T07:09:22.36Z</time></trkpt><trkpt lat="41.5597996" lon="13.1649298"><ele>381.0</ele><time>2026-05-03T07:09:23.371Z</time></trkpt><trkpt lat="41.5598465" lon="13.1647034"><ele>381.0</ele><time>2026-05-03T07:09:24.364Z</time></trkpt><trkpt lat="41.559898" lon="13.1645161"><ele>381.0</ele><time>2026-05-03T07:09:25.359Z</time></trkpt><trkpt lat="41.5599663" lon="13.1643591"><ele>381.0</ele><time>2026-05-03T07:09:26.355Z</time></trkpt><trkpt lat="41.5600645" lon="13.1642049"><ele>381.0</ele><time>2026-05-03T07:09:27.366Z</time></trkpt><trkpt lat="41.5601924" lon="13.1640516"><ele>382.33333333333337</ele><time>2026-05-03T07:09:28.361Z</time></trkpt><trkpt lat="41.5603449" lon="13.1639068"><ele>383.6666666666667</ele><time>2026-05-03T07:09:29.362Z</time></trkpt><trkpt lat="41.5604871" lon="13.1637803"><ele>385.0</ele><time>2026-05-03T07:09:30.363Z</time></trkpt><trkpt lat="41.5606222" lon="13.1636827"><ele>385.0</ele><time>2026-05-03T07:09:31.365Z</time></trkpt><trkpt lat="41.5607556" lon="13.1636192"><ele>385.0</ele><time>2026-05-03T07:09:32.359Z</time></trkpt><trkpt lat="41.5608694" lon="13.1635673"><ele>385.0</ele><time>2026-05-03T07:09:33.359Z</time></trkpt><trkpt lat="41.5609735" lon="13.1634986"><ele>385.0</ele><time>2026-05-03T07:09:34.365Z</time></trkpt><trkpt lat="41.5610541" lon="13.1634131"><ele>385.0</ele><time>2026-05-03T07:09:35.36Z</time></trkpt><trkpt lat="41.5611146" lon="13.163288"><ele>385.0</ele><time>2026-05-03T07:09:36.361Z</time></trkpt><trkpt lat="41.5611484" lon="13.1631161"><ele>385.0</ele><time>2026-05-03T07:09:37.36Z</time></trkpt><trkpt lat="41.5611723" lon="13.1628879"><ele>385.0</ele><time>2026-05-03T07:09:38.365Z</time></trkpt><trkpt lat="41.5611894" lon="13.1626144"><ele>383.0</ele><time>2026-05-03T07:09:39.363Z</time></trkpt><trkpt lat="41.5611948" lon="13.1623203"><ele>381.0</ele><time>2026-05-03T07:09:40.36Z</time></trkpt><trkpt lat="41.5612015" lon="13.1620286"><ele>379.0</ele><time>2026-05-03T07:09:41.361Z</time></trkpt><trkpt lat="41.561225" lon="13.1617021"><ele>399.5</ele><time>2026-05-03T07:09:42.36Z</time></trkpt><trkpt lat="41.5612578" lon="13.161362"><ele>420.0</ele><time>2026-05-03T07:09:43.36Z</time></trkpt><trkpt lat="41.5612979" lon="13.1610068"><ele>416.5</ele><time>2026-05-03T07:09:44.362Z</time></trkpt><trkpt lat="41.5613425" lon="13.1606586"><ele>413.0</ele><time>2026-05-03T07:09:45.365Z</time></trkpt><trkpt lat="41.561388" lon="13.1603373"><ele>413.0</ele><time>2026-05-03T07:09:46.368Z</time></trkpt><trkpt lat="41.5614434" lon="13.160011"><ele>413.0</ele><time>2026-05-03T07:09:47.363Z</time></trkpt><trkpt lat="41.5615046" lon="13.1597144"><ele>408.5</ele><time>2026-05-03T07:09:48.364Z</time></trkpt><trkpt lat="41.5615791" lon="13.1594142"><ele>404.0</ele><time>2026-05-03T07:09:49.361Z</time></trkpt><trkpt lat="41.5616756" lon="13.1591102"><ele>399.5</ele><time>2026-05-03T07:09:50.37Z</time></trkpt><trkpt lat="41.5617818" lon="13.1588165"><ele>395.0</ele><time>2026-05-03T07:09:51.373Z</time></trkpt><trkpt lat="41.5618731" lon="13.1585571"><ele>395.0</ele><time>2026-05-03T07:09:52.366Z</time></trkpt><trkpt lat="41.561969" lon="13.1583105"><ele>395.0</ele><time>2026-05-03T07:09:53.363Z</time></trkpt><trkpt lat="41.5620906" lon="13.1580534"><ele>395.0</ele><time>2026-05-03T07:09:54.361Z</time></trkpt><trkpt lat="41.5622373" lon="13.1577838"><ele>395.5</ele><time>2026-05-03T07:09:55.36Z</time></trkpt><trkpt lat="41.5623921" lon="13.1575119"><ele>396.0</ele><time>2026-05-03T07:09:56.468Z</time></trkpt><trkpt lat="41.5626726" lon="13.1570784"><ele>396.0</ele><time>2026-05-03T07:09:58.361Z</time></trkpt><trkpt lat="41.5628189" lon="13.1568896"><ele>396.0</ele><time>2026-05-03T07:09:59.36Z</time></trkpt><trkpt lat="41.5629651" lon="13.1567243"><ele>396.0</ele><time>2026-05-03T07:10:00.364Z</time></trkpt><trkpt lat="41.5631434" lon="13.1565599"><ele>400.0</ele><time>2026-05-03T07:10:01.363Z</time></trkpt><trkpt lat="41.5633516" lon="13.1563871"><ele>404.0</ele><time>2026-05-03T07:10:02.367Z</time></trkpt><trkpt lat="41.5635728" lon="13.1562109"><ele>418.0</ele><time>2026-05-03T07:10:03.362Z</time></trkpt><trkpt lat="41.5637776" lon="13.1560526"><ele>432.0</ele><time>2026-05-03T07:10:04.365Z</time></trkpt><trkpt lat="41.5639677" lon="13.1559008"><ele>432.0</ele><time>2026-05-03T07:10:05.362Z</time></trkpt><trkpt lat="41.5641538" lon="13.1557255"><ele>432.0</ele><time>2026-05-03T07:10:06.36Z</time></trkpt><trkpt lat="41.5643222" lon="13.1555373"><ele>432.0</ele><time>2026-05-03T07:10:07.364Z</time></trkpt><trkpt lat="41.5644759" lon="13.1553608"><ele>432.0</ele><time>2026-05-03T07:10:08.374Z</time></trkpt><trkpt lat="41.5646105" lon="13.1552221"><ele>432.0</ele><time>2026-05-03T07:10:09.363Z</time></trkpt><trkpt lat="41.5647498" lon="13.1551049"><ele>432.0</ele><time>2026-05-03T07:10:10.365Z</time></trkpt><trkpt lat="41.5649096" lon="13.1550071"><ele>432.0</ele><time>2026-05-03T07:10:11.366Z</time></trkpt><trkpt lat="41.5650935" lon="13.1549395"><ele>432.0</ele><time>2026-05-03T07:10:12.364Z</time></trkpt><trkpt lat="41.5653077" lon="13.1548884"><ele>432.0</ele><time>2026-05-03T07:10:13.36Z</time></trkpt><trkpt lat="41.5655595" lon="13.1548438"><ele>429.5</ele><time>2026-05-03T07:10:14.361Z</time></trkpt><trkpt lat="41.5658337" lon="13.1547974"><ele>427.0</ele><time>2026-05-03T07:10:15.363Z</time></trkpt><trkpt lat="41.5661023" lon="13.1547383"><ele>432.5</ele><time>2026-05-03T07:10:16.372Z</time></trkpt><trkpt lat="41.5663492" lon="13.1546787"><ele>438.0</ele><time>2026-05-03T07:10:17.372Z</time></trkpt><trkpt lat="41.5665801" lon="13.1546169"><ele>438.0</ele><time>2026-05-03T07:10:18.372Z</time></trkpt><trkpt lat="41.5668004" lon="13.1545731"><ele>438.0</ele><time>2026-05-03T07:10:19.372Z</time></trkpt><trkpt lat="41.5669711" lon="13.1545134"><ele>438.0</ele><time>2026-05-03T07:10:20.373Z</time></trkpt><trkpt lat="41.5671656" lon="13.1544262"><ele>444.0</ele><time>2026-05-03T07:10:21.371Z</time></trkpt><trkpt lat="41.567369" lon="13.1543058"><ele>450.0</ele><time>2026-05-03T07:10:22.377Z</time></trkpt><trkpt lat="41.56758" lon="13.1541613"><ele>451.0</ele><time>2026-05-03T07:10:23.371Z</time></trkpt><trkpt lat="41.5677765" lon="13.1540321"><ele>452.0</ele><time>2026-05-03T07:10:24.373Z</time></trkpt><trkpt lat="41.5679704" lon="13.1539072"><ele>453.0</ele><time>2026-05-03T07:10:25.374Z</time></trkpt><trkpt lat="41.5681423" lon="13.1537976"><ele>453.0</ele><time>2026-05-03T07:10:26.373Z</time></trkpt><trkpt lat="41.5682949" lon="13.1537245"><ele>453.0</ele><time>2026-05-03T07:10:27.371Z</time></trkpt><trkpt lat="41.5684648" lon="13.1536716"><ele>453.0</ele><time>2026-05-03T07:10:28.374Z</time></trkpt><trkpt lat="41.5686599" lon="13.1536486"><ele>457.0</ele><time>2026-05-03T07:10:29.372Z</time></trkpt><trkpt lat="41.5688893" lon="13.1536385"><ele>461.0</ele><time>2026-05-03T07:10:30.373Z</time></trkpt><trkpt lat="41.5691106" lon="13.1536434"><ele>461.0</ele><time>2026-05-03T07:10:31.374Z</time></trkpt><trkpt lat="41.5693217" lon="13.1536465"><ele>461.0</ele><time>2026-05-03T07:10:32.377Z</time></trkpt><trkpt lat="41.5695305" lon="13.1536369"><ele>461.0</ele><time>2026-05-03T07:10:33.38Z</time></trkpt><trkpt lat="41.5697433" lon="13.1536111"><ele>464.0</ele><time>2026-05-03T07:10:34.374Z</time></trkpt><trkpt lat="41.5699647" lon="13.153572"><ele>467.0</ele><time>2026-05-03T07:10:35.373Z</time></trkpt><trkpt lat="41.5701845" lon="13.153511"><ele>470.0</ele><time>2026-05-03T07:10:36.377Z</time></trkpt><trkpt lat="41.5704106" lon="13.1534589"><ele>470.3333333333333</ele><time>2026-05-03T07:10:37.376Z</time></trkpt><trkpt lat="41.5706028" lon="13.1534089"><ele>470.66666666666663</ele><time>2026-05-03T07:10:38.375Z</time></trkpt><trkpt lat="41.5707805" lon="13.1533603"><ele>471.0</ele><time>2026-05-03T07:10:39.378Z</time></trkpt><trkpt lat="41.5709369" lon="13.1533194"><ele>471.0</ele><time>2026-05-03T07:10:40.373Z</time></trkpt><trkpt lat="41.5710916" lon="13.1532761"><ele>471.0</ele><time>2026-05-03T07:10:41.369Z</time></trkpt><trkpt lat="41.57122" lon="13.1532375"><ele>471.0</ele><time>2026-05-03T07:10:42.367Z</time></trkpt><trkpt lat="41.571326" lon="13.1531841"><ele>471.0</ele><time>2026-05-03T07:10:43.367Z</time></trkpt><trkpt lat="41.5714172" lon="13.1531076"><ele>474.75</ele><time>2026-05-03T07:10:44.366Z</time></trkpt><trkpt lat="41.5714827" lon="13.1530009"><ele>478.5</ele><time>2026-05-03T07:10:45.368Z</time></trkpt><trkpt lat="41.571516" lon="13.152847"><ele>482.25</ele><time>2026-05-03T07:10:46.367Z</time></trkpt><trkpt lat="41.5715205" lon="13.1526585"><ele>486.0</ele><time>2026-05-03T07:10:47.367Z</time></trkpt><trkpt lat="41.5715054" lon="13.1524109"><ele>489.0</ele><time>2026-05-03T07:10:48.37Z</time></trkpt><trkpt lat="41.5714902" lon="13.1521175"><ele>492.0</ele><time>2026-05-03T07:10:49.367Z</time></trkpt><trkpt lat="41.5714773" lon="13.1517772"><ele>492.5</ele><time>2026-05-03T07:10:50.357Z</time></trkpt><trkpt lat="41.5714756" lon="13.1514422"><ele>493.0</ele><time>2026-05-03T07:10:51.368Z</time></trkpt><trkpt lat="41.5714759" lon="13.1511422"><ele>493.0</ele><time>2026-05-03T07:10:52.365Z</time></trkpt><trkpt lat="41.5714846" lon="13.15086"><ele>493.0</ele><time>2026-05-03T07:10:53.371Z</time></trkpt><trkpt lat="41.5715078" lon="13.1506016"><ele>493.0</ele><time>2026-05-03T07:10:54.366Z</time></trkpt><trkpt lat="41.5715532" lon="13.1503436"><ele>490.5</ele><time>2026-05-03T07:10:55.367Z</time></trkpt><trkpt lat="41.5716258" lon="13.1500623"><ele>488.0</ele><time>2026-05-03T07:10:56.371Z</time></trkpt><trkpt lat="41.5717076" lon="13.1497578"><ele>486.5</ele><time>2026-05-03T07:10:57.37Z</time></trkpt><trkpt lat="41.5717993" lon="13.1494466"><ele>485.0</ele><time>2026-05-03T07:10:58.366Z</time></trkpt><trkpt lat="41.5718858" lon="13.149154"><ele>484.66666666666663</ele><time>2026-05-03T07:10:59.369Z</time></trkpt><trkpt lat="41.5719531" lon="13.1488843"><ele>484.33333333333337</ele><time>2026-05-03T07:11:00.372Z</time></trkpt><trkpt lat="41.5720026" lon="13.1486107"><ele>484.0</ele><time>2026-05-03T07:11:01.365Z</time></trkpt><trkpt lat="41.5720364" lon="13.1483153"><ele>492.0</ele><time>2026-05-03T07:11:02.367Z</time></trkpt><trkpt lat="41.5720611" lon="13.1479862"><ele>500.0</ele><time>2026-05-03T07:11:03.367Z</time></trkpt><trkpt lat="41.5720824" lon="13.1476571"><ele>500.3333333333333</ele><time>2026-05-03T07:11:04.367Z</time></trkpt><trkpt lat="41.5721049" lon="13.1473431"><ele>500.66666666666663</ele><time>2026-05-03T07:11:05.372Z</time></trkpt><trkpt lat="41.5721225" lon="13.1470622"><ele>501.0</ele><time>2026-05-03T07:11:06.37Z</time></trkpt><trkpt lat="41.5721393" lon="13.1468221"><ele>501.0</ele><time>2026-05-03T07:11:07.367Z</time></trkpt><trkpt lat="41.5721673" lon="13.1466089"><ele>501.0</ele><time>2026-05-03T07:11:08.365Z</time></trkpt><trkpt lat="41.5722202" lon="13.1464135"><ele>501.0</ele><time>2026-05-03T07:11:09.367Z</time></trkpt><trkpt lat="41.5722988" lon="13.1462343"><ele>500.0</ele><time>2026-05-03T07:11:10.368Z</time></trkpt><trkpt lat="41.5724149" lon="13.1460444"><ele>499.0</ele><time>2026-05-03T07:11:11.367Z</time></trkpt><trkpt lat="41.57256" lon="13.1458391"><ele>498.0</ele><time>2026-05-03T07:11:12.362Z</time></trkpt><trkpt lat="41.5727025" lon="13.1456329"><ele>496.33333333333337</ele><time>2026-05-03T07:11:13.363Z</time></trkpt><trkpt lat="41.5728276" lon="13.1454577"><ele>494.6666666666667</ele><time>2026-05-03T07:11:14.368Z</time></trkpt><trkpt lat="41.5729548" lon="13.1453106"><ele>493.0</ele><time>2026-05-03T07:11:15.374Z</time></trkpt><trkpt lat="41.5730994" lon="13.1451497"><ele>496.33333333333337</ele><time>2026-05-03T07:11:16.356Z</time></trkpt><trkpt lat="41.5732547" lon="13.145052"><ele>499.66666666666663</ele><time>2026-05-03T07:11:17.36Z</time></trkpt><trkpt lat="41.5734722" lon="13.1450411"><ele>503.0</ele><time>2026-05-03T07:11:18.376Z</time></trkpt><trkpt lat="41.573666" lon="13.1450001"><ele>505.3333333333333</ele><time>2026-05-03T07:11:19.375Z</time></trkpt><trkpt lat="41.5738714" lon="13.144972"><ele>507.66666666666663</ele><time>2026-05-03T07:11:20.373Z</time></trkpt><trkpt lat="41.5740687" lon="13.144974"><ele>510.0</ele><time>2026-05-03T07:11:21.373Z</time></trkpt><trkpt lat="41.5742347" lon="13.1449831"><ele>510.0</ele><time>2026-05-03T07:11:22.374Z</time></trkpt><trkpt lat="41.5744051" lon="13.1449879"><ele>510.0</ele><time>2026-05-03T07:11:23.374Z</time></trkpt><trkpt lat="41.5745553" lon="13.1449445"><ele>510.0</ele><time>2026-05-03T07:11:24.373Z</time></trkpt><trkpt lat="41.5747017" lon="13.144905"><ele>511.0</ele><time>2026-05-03T07:11:25.382Z</time></trkpt><trkpt lat="41.5748202" lon="13.1448567"><ele>512.0</ele><time>2026-05-03T07:11:26.374Z</time></trkpt><trkpt lat="41.5749364" lon="13.144767"><ele>513.0</ele><time>2026-05-03T07:11:27.375Z</time></trkpt><trkpt lat="41.5750454" lon="13.1446394"><ele>514.0</ele><time>2026-05-03T07:11:28.373Z</time></trkpt><trkpt lat="41.575132" lon="13.1444713"><ele>514.0</ele><time>2026-05-03T07:11:29.373Z</time></trkpt><trkpt lat="41.5752081" lon="13.1442848"><ele>514.0</ele><time>2026-05-03T07:11:30.377Z</time></trkpt><trkpt lat="41.5752694" lon="13.1440982"><ele>514.0</ele><time>2026-05-03T07:11:31.375Z</time></trkpt><trkpt lat="41.5752995" lon="13.1439173"><ele>514.0</ele><time>2026-05-03T07:11:32.373Z</time></trkpt><trkpt lat="41.5753021" lon="13.1437207"><ele>514.0</ele><time>2026-05-03T07:11:33.373Z</time></trkpt><trkpt lat="41.5752768" lon="13.1434937"><ele>514.0</ele><time>2026-05-03T07:11:34.373Z</time></trkpt><trkpt lat="41.5752224" lon="13.1432345"><ele>516.0</ele><time>2026-05-03T07:11:35.375Z</time></trkpt><trkpt lat="41.5751594" lon="13.1429441"><ele>518.0</ele><time>2026-05-03T07:11:36.376Z</time></trkpt><trkpt lat="41.5750963" lon="13.1426614"><ele>520.0</ele><time>2026-05-03T07:11:37.375Z</time></trkpt><trkpt lat="41.5750419" lon="13.142407"><ele>522.5</ele><time>2026-05-03T07:11:38.372Z</time></trkpt><trkpt lat="41.5749944" lon="13.1421839"><ele>525.0</ele><time>2026-05-03T07:11:39.373Z</time></trkpt><trkpt lat="41.5749349" lon="13.1420088"><ele>527.5</ele><time>2026-05-03T07:11:40.373Z</time></trkpt><trkpt lat="41.5748591" lon="13.1418653"><ele>530.0</ele><time>2026-05-03T07:11:41.373Z</time></trkpt><trkpt lat="41.5747884" lon="13.1417217"><ele>530.0</ele><time>2026-05-03T07:11:42.373Z</time></trkpt><trkpt lat="41.5746943" lon="13.1415842"><ele>530.0</ele><time>2026-05-03T07:11:43.359Z</time></trkpt><trkpt lat="41.5745365" lon="13.1414877"><ele>530.0</ele><time>2026-05-03T07:11:44.373Z</time></trkpt><trkpt lat="41.5743444" lon="13.1413719"><ele>534.6666666666666</ele><time>2026-05-03T07:11:45.377Z</time></trkpt><trkpt lat="41.5741831" lon="13.1412713"><ele>539.3333333333334</ele><time>2026-05-03T07:11:46.377Z</time></trkpt><trkpt lat="41.5740001" lon="13.1411506"><ele>544.0</ele><time>2026-05-03T07:11:47.384Z</time></trkpt><trkpt lat="41.5739847" lon="13.1409587"><ele>544.0</ele><time>2026-05-03T07:11:48.376Z</time></trkpt><trkpt lat="41.5738762" lon="13.1408206"><ele>544.0</ele><time>2026-05-03T07:11:49.376Z</time></trkpt><trkpt lat="41.5737702" lon="13.1406603"><ele>544.0</ele><time>2026-05-03T07:11:50.36Z</time></trkpt><trkpt lat="41.5736515" lon="13.1404325"><ele>541.5</ele><time>2026-05-03T07:11:51.36Z</time></trkpt><trkpt lat="41.5735672" lon="13.1400994"><ele>539.0</ele><time>2026-05-03T07:11:52.38Z</time></trkpt><trkpt lat="41.5734714" lon="13.1397575"><ele>539.0</ele><time>2026-05-03T07:11:53.38Z</time></trkpt><trkpt lat="41.5733812" lon="13.1394701"><ele>539.0</ele><time>2026-05-03T07:11:54.371Z</time></trkpt><trkpt lat="41.5733" lon="13.1392037"><ele>539.0</ele><time>2026-05-03T07:11:55.366Z</time></trkpt><trkpt lat="41.5732228" lon="13.1389407"><ele>543.6666666666666</ele><time>2026-05-03T07:11:56.367Z</time></trkpt><trkpt lat="41.5731682" lon="13.1387071"><ele>548.3333333333334</ele><time>2026-05-03T07:11:57.364Z</time></trkpt><trkpt lat="41.5731345" lon="13.1384992"><ele>553.0</ele><time>2026-05-03T07:11:58.365Z</time></trkpt><trkpt lat="41.5731135" lon="13.1382831"><ele>556.3333333333334</ele><time>2026-05-03T07:11:59.366Z</time></trkpt><trkpt lat="41.5731194" lon="13.1379971"><ele>559.6666666666666</ele><time>2026-05-03T07:12:00.366Z</time></trkpt><trkpt lat="41.5731017" lon="13.1377229"><ele>563.0</ele><time>2026-05-03T07:12:01.374Z</time></trkpt><trkpt lat="41.5730822" lon="13.1374586"><ele>566.6666666666666</ele><time>2026-05-03T07:12:02.363Z</time></trkpt><trkpt lat="41.5730623" lon="13.1371838"><ele>570.3333333333334</ele><time>2026-05-03T07:12:03.388Z</time></trkpt><trkpt lat="41.5730569" lon="13.1369134"><ele>574.0</ele><time>2026-05-03T07:12:04.37Z</time></trkpt><trkpt lat="41.5730784" lon="13.1366445"><ele>574.0</ele><time>2026-05-03T07:12:05.362Z</time></trkpt><trkpt lat="41.5730953" lon="13.136415"><ele>574.0</ele><time>2026-05-03T07:12:06.366Z</time></trkpt><trkpt lat="41.5731058" lon="13.1362187"><ele>574.0</ele><time>2026-05-03T07:12:07.362Z</time></trkpt><trkpt lat="41.5731077" lon="13.136096"><ele>574.0</ele><time>2026-05-03T07:12:08.364Z</time></trkpt><trkpt lat="41.5730911" lon="13.1359967"><ele>574.0</ele><time>2026-05-03T07:12:09.363Z</time></trkpt><trkpt lat="41.5730427" lon="13.1359276"><ele>574.0</ele><time>2026-05-03T07:12:10.363Z</time></trkpt><trkpt lat="41.5729619" lon="13.1358751"><ele>574.0</ele><time>2026-05-03T07:12:11.377Z</time></trkpt><trkpt lat="41.572844" lon="13.1358557"><ele>574.0</ele><time>2026-05-03T07:12:12.356Z</time></trkpt><trkpt lat="41.5727071" lon="13.1358642"><ele>574.0</ele><time>2026-05-03T07:12:13.359Z</time></trkpt><trkpt lat="41.5725635" lon="13.1359082"><ele>572.3333333333334</ele><time>2026-05-03T07:12:14.364Z</time></trkpt><trkpt lat="41.5723973" lon="13.1359933"><ele>570.6666666666666</ele><time>2026-05-03T07:12:15.366Z</time></trkpt><trkpt lat="41.5722072" lon="13.1361"><ele>569.0</ele><time>2026-05-03T07:12:16.372Z</time></trkpt><trkpt lat="41.5720059" lon="13.1362122"><ele>569.0</ele><time>2026-05-03T07:12:17.367Z</time></trkpt><trkpt lat="41.5718258" lon="13.1363284"><ele>569.0</ele><time>2026-05-03T07:12:18.376Z</time></trkpt><trkpt lat="41.5716405" lon="13.1364483"><ele>569.0</ele><time>2026-05-03T07:12:19.377Z</time></trkpt><trkpt lat="41.571503" lon="13.1365485"><ele>569.0</ele><time>2026-05-03T07:12:20.373Z</time></trkpt><trkpt lat="41.5713919" lon="13.1366297"><ele>569.0</ele><time>2026-05-03T07:12:21.376Z</time></trkpt><trkpt lat="41.5713014" lon="13.1366841"><ele>569.0</ele><time>2026-05-03T07:12:22.374Z</time></trkpt><trkpt lat="41.5712217" lon="13.1367024"><ele>569.0</ele><time>2026-05-03T07:12:23.377Z</time></trkpt><trkpt lat="41.5711441" lon="13.1366807"><ele>569.0</ele><time>2026-05-03T07:12:24.38Z</time></trkpt><trkpt lat="41.5710748" lon="13.1366614"><ele>569.0</ele><time>2026-05-03T07:12:25.374Z</time></trkpt><trkpt lat="41.5710572" lon="13.1365516"><ele>569.0</ele><time>2026-05-03T07:12:26.373Z</time></trkpt><trkpt lat="41.5710253" lon="13.1364687"><ele>569.0</ele><time>2026-05-03T07:12:27.373Z</time></trkpt><trkpt lat="41.571142" lon="13.1363865"><ele>569.0</ele><time>2026-05-03T07:12:28.372Z</time></trkpt><trkpt lat="41.5712106" lon="13.1363487"><ele>569.0</ele><time>2026-05-03T07:12:29.372Z</time></trkpt><trkpt lat="41.571356" lon="13.1363093"><ele>569.0</ele><time>2026-05-03T07:12:30.374Z</time></trkpt><trkpt lat="41.5714863" lon="13.1362468"><ele>569.0</ele><time>2026-05-03T07:12:31.37Z</time></trkpt><trkpt lat="41.5716307" lon="13.136148"><ele>569.0</ele><time>2026-05-03T07:12:32.373Z</time></trkpt><trkpt lat="41.5717659" lon="13.1360376"><ele>569.0</ele><time>2026-05-03T07:12:33.374Z</time></trkpt><trkpt lat="41.5718848" lon="13.1359132"><ele>569.0</ele><time>2026-05-03T07:12:34.373Z</time></trkpt><trkpt lat="41.5719905" lon="13.1357648"><ele>569.0</ele><time>2026-05-03T07:12:35.376Z</time></trkpt><trkpt lat="41.5720731" lon="13.1356154"><ele>569.0</ele><time>2026-05-03T07:12:36.373Z</time></trkpt><trkpt lat="41.5721336" lon="13.1354477"><ele>570.0</ele><time>2026-05-03T07:12:37.371Z</time></trkpt><trkpt lat="41.5721816" lon="13.1352518"><ele>571.0</ele><time>2026-05-03T07:12:38.371Z</time></trkpt><trkpt lat="41.5722159" lon="13.1350195"><ele>572.0</ele><time>2026-05-03T07:12:39.373Z</time></trkpt><trkpt lat="41.5722449" lon="13.1347736"><ele>572.0</ele><time>2026-05-03T07:12:40.373Z</time></trkpt><trkpt lat="41.5722764" lon="13.1345222"><ele>572.0</ele><time>2026-05-03T07:12:41.373Z</time></trkpt><trkpt lat="41.572308" lon="13.1342845"><ele>572.0</ele><time>2026-05-03T07:12:42.372Z</time></trkpt><trkpt lat="41.5723407" lon="13.1340723"><ele>577.0</ele><time>2026-05-03T07:12:43.373Z</time></trkpt><trkpt lat="41.5724265" lon="13.1339202"><ele>582.0</ele><time>2026-05-03T07:12:44.373Z</time></trkpt><trkpt lat="41.5725192" lon="13.1337577"><ele>587.0</ele><time>2026-05-03T07:12:45.373Z</time></trkpt><trkpt lat="41.572639" lon="13.1336186"><ele>587.0</ele><time>2026-05-03T07:12:46.371Z</time></trkpt><trkpt lat="41.5727877" lon="13.1334768"><ele>587.0</ele><time>2026-05-03T07:12:47.373Z</time></trkpt><trkpt lat="41.5729431" lon="13.1333228"><ele>587.0</ele><time>2026-05-03T07:12:48.374Z</time></trkpt><trkpt lat="41.5731044" lon="13.1331624"><ele>590.3333333333333</ele><time>2026-05-03T07:12:49.372Z</time></trkpt><trkpt lat="41.5732603" lon="13.1330038"><ele>593.6666666666666</ele><time>2026-05-03T07:12:50.371Z</time></trkpt><trkpt lat="41.5734273" lon="13.1328415"><ele>597.0</ele><time>2026-05-03T07:12:51.373Z</time></trkpt><trkpt lat="41.5735942" lon="13.1326789"><ele>597.3333333333334</ele><time>2026-05-03T07:12:52.372Z</time></trkpt><trkpt lat="41.5737484" lon="13.1325303"><ele>597.6666666666667</ele><time>2026-05-03T07:12:53.373Z</time></trkpt><trkpt lat="41.5738828" lon="13.1324097"><ele>598.0</ele><time>2026-05-03T07:12:54.368Z</time></trkpt><trkpt lat="41.5739984" lon="13.1323047"><ele>598.5</ele><time>2026-05-03T07:12:55.374Z</time></trkpt><trkpt lat="41.5740859" lon="13.1322298"><ele>599.0</ele><time>2026-05-03T07:12:56.377Z</time></trkpt><trkpt lat="41.5741491" lon="13.1321632"><ele>599.5</ele><time>2026-05-03T07:12:57.372Z</time></trkpt><trkpt lat="41.574193" lon="13.1320766"><ele>600.0</ele><time>2026-05-03T07:12:58.377Z</time></trkpt><trkpt lat="41.5742044" lon="13.1319688"><ele>600.5</ele><time>2026-05-03T07:12:59.373Z</time></trkpt><trkpt lat="41.5741755" lon="13.1318753"><ele>601.0</ele><time>2026-05-03T07:13:00.374Z</time></trkpt><trkpt lat="41.5741144" lon="13.1318148"><ele>601.0</ele><time>2026-05-03T07:13:01.373Z</time></trkpt><trkpt lat="41.5740335" lon="13.1318087"><ele>601.0</ele><time>2026-05-03T07:13:02.378Z</time></trkpt><trkpt lat="41.5739418" lon="13.131853"><ele>601.0</ele><time>2026-05-03T07:13:03.374Z</time></trkpt><trkpt lat="41.5738399" lon="13.1319393"><ele>601.0</ele><time>2026-05-03T07:13:04.372Z</time></trkpt><trkpt lat="41.5737077" lon="13.1320213"><ele>601.0</ele><time>2026-05-03T07:13:05.375Z</time></trkpt><trkpt lat="41.5735719" lon="13.1321184"><ele>604.75</ele><time>2026-05-03T07:13:06.374Z</time></trkpt><trkpt lat="41.5734392" lon="13.132196"><ele>608.5</ele><time>2026-05-03T07:13:07.369Z</time></trkpt><trkpt lat="41.5733204" lon="13.1322434"><ele>612.25</ele><time>2026-05-03T07:13:08.375Z</time></trkpt><trkpt lat="41.5732114" lon="13.1322778"><ele>616.0</ele><time>2026-05-03T07:13:09.374Z</time></trkpt><trkpt lat="41.5730665" lon="13.1322844"><ele>616.0</ele><time>2026-05-03T07:13:10.375Z</time></trkpt><trkpt lat="41.5728995" lon="13.1322864"><ele>616.0</ele><time>2026-05-03T07:13:11.376Z</time></trkpt><trkpt lat="41.5727175" lon="13.1322757"><ele>616.0</ele><time>2026-05-03T07:13:12.381Z</time></trkpt><trkpt lat="41.5725379" lon="13.1322871"><ele>616.6666666666667</ele><time>2026-05-03T07:13:13.378Z</time></trkpt><trkpt lat="41.5723557" lon="13.1323105"><ele>617.3333333333334</ele><time>2026-05-03T07:13:14.372Z</time></trkpt><trkpt lat="41.5721565" lon="13.1323785"><ele>618.0</ele><time>2026-05-03T07:13:15.373Z</time></trkpt><trkpt lat="41.5719614" lon="13.132457"><ele>618.0</ele><time>2026-05-03T07:13:16.373Z</time></trkpt><trkpt lat="41.5717879" lon="13.1325333"><ele>618.0</ele><time>2026-05-03T07:13:17.374Z</time></trkpt><trkpt lat="41.5716172" lon="13.1326152"><ele>618.0</ele><time>2026-05-03T07:13:18.374Z</time></trkpt><trkpt lat="41.57147" lon="13.1326675"><ele>618.0</ele><time>2026-05-03T07:13:19.374Z</time></trkpt><trkpt lat="41.5713448" lon="13.1327482"><ele>618.0</ele><time>2026-05-03T07:13:20.373Z</time></trkpt><trkpt lat="41.571248" lon="13.132828"><ele>618.0</ele><time>2026-05-03T07:13:21.373Z</time></trkpt><trkpt lat="41.5711674" lon="13.132951"><ele>618.0</ele><time>2026-05-03T07:13:22.374Z</time></trkpt><trkpt lat="41.5710977" lon="13.133096"><ele>621.3333333333334</ele><time>2026-05-03T07:13:23.373Z</time></trkpt><trkpt lat="41.5710671" lon="13.1333006"><ele>624.6666666666667</ele><time>2026-05-03T07:13:24.374Z</time></trkpt><trkpt lat="41.5710135" lon="13.133499"><ele>628.0</ele><time>2026-05-03T07:13:25.376Z</time></trkpt><trkpt lat="41.570967" lon="13.1336778"><ele>628.0</ele><time>2026-05-03T07:13:26.38Z</time></trkpt><trkpt lat="41.5709223" lon="13.1337925"><ele>628.0</ele><time>2026-05-03T07:13:27.373Z</time></trkpt><trkpt lat="41.5708769" lon="13.1338821"><ele>628.0</ele><time>2026-05-03T07:13:28.377Z</time></trkpt><trkpt lat="41.5708174" lon="13.1339268"><ele>628.0</ele><time>2026-05-03T07:13:29.373Z</time></trkpt><trkpt lat="41.5707322" lon="13.1338609"><ele>628.0</ele><time>2026-05-03T07:13:31.373Z</time></trkpt><trkpt lat="41.5707312" lon="13.1337729"><ele>628.0</ele><time>2026-05-03T07:13:32.359Z</time></trkpt><trkpt lat="41.5707651" lon="13.13365"><ele>628.0</ele><time>2026-05-03T07:13:33.374Z</time></trkpt><trkpt lat="41.5708192" lon="13.133492"><ele>628.0</ele><time>2026-05-03T07:13:34.361Z</time></trkpt><trkpt lat="41.5708889" lon="13.1332916"><ele>628.0</ele><time>2026-05-03T07:13:35.364Z</time></trkpt><trkpt lat="41.5709335" lon="13.1331103"><ele>628.0</ele><time>2026-05-03T07:13:36.364Z</time></trkpt><trkpt lat="41.5709553" lon="13.1329332"><ele>630.4</ele><time>2026-05-03T07:13:37.365Z</time></trkpt><trkpt lat="41.5709627" lon="13.1327623"><ele>632.8</ele><time>2026-05-03T07:13:38.364Z</time></trkpt><trkpt lat="41.570953" lon="13.1326176"><ele>635.2</ele><time>2026-05-03T07:13:39.371Z</time></trkpt><trkpt lat="41.5709741" lon="13.1324948"><ele>637.6</ele><time>2026-05-03T07:13:40.362Z</time></trkpt><trkpt lat="41.5710293" lon="13.132375"><ele>640.0</ele><time>2026-05-03T07:13:41.367Z</time></trkpt><trkpt lat="41.5711245" lon="13.1322676"><ele>639.0</ele><time>2026-05-03T07:13:42.364Z</time></trkpt><trkpt lat="41.5712325" lon="13.1321744"><ele>638.0</ele><time>2026-05-03T07:13:43.365Z</time></trkpt><trkpt lat="41.5713222" lon="13.1320713"><ele>637.0</ele><time>2026-05-03T07:13:44.364Z</time></trkpt><trkpt lat="41.5713989" lon="13.1319476"><ele>636.0</ele><time>2026-05-03T07:13:45.363Z</time></trkpt><trkpt lat="41.5714709" lon="13.1317965"><ele>636.0</ele><time>2026-05-03T07:13:46.364Z</time></trkpt><trkpt lat="41.5715453" lon="13.1316318"><ele>636.0</ele><time>2026-05-03T07:13:47.373Z</time></trkpt><trkpt lat="41.5716314" lon="13.1314748"><ele>636.0</ele><time>2026-05-03T07:13:48.375Z</time></trkpt><trkpt lat="41.5717352" lon="13.1313604"><ele>636.0</ele><time>2026-05-03T07:13:49.373Z</time></trkpt><trkpt lat="41.5718587" lon="13.1312507"><ele>640.6666666666666</ele><time>2026-05-03T07:13:50.374Z</time></trkpt><trkpt lat="41.572026" lon="13.1311614"><ele>645.3333333333333</ele><time>2026-05-03T07:13:51.373Z</time></trkpt><trkpt lat="41.572208" lon="13.1310673"><ele>650.0</ele><time>2026-05-03T07:13:52.373Z</time></trkpt><trkpt lat="41.5723902" lon="13.1309797"><ele>650.0</ele><time>2026-05-03T07:13:53.372Z</time></trkpt><trkpt lat="41.5725545" lon="13.1309042"><ele>650.0</ele><time>2026-05-03T07:13:54.372Z</time></trkpt><trkpt lat="41.5726834" lon="13.130835"><ele>650.0</ele><time>2026-05-03T07:13:55.368Z</time></trkpt><trkpt lat="41.5727861" lon="13.1307497"><ele>650.0</ele><time>2026-05-03T07:13:56.374Z</time></trkpt><trkpt lat="41.5728855" lon="13.1306207"><ele>651.0</ele><time>2026-05-03T07:13:57.375Z</time></trkpt><trkpt lat="41.5729993" lon="13.1304355"><ele>652.0</ele><time>2026-05-03T07:13:58.374Z</time></trkpt><trkpt lat="41.5731282" lon="13.1302156"><ele>653.0</ele><time>2026-05-03T07:13:59.377Z</time></trkpt><trkpt lat="41.5732568" lon="13.1300038"><ele>662.6666666666666</ele><time>2026-05-03T07:14:00.376Z</time></trkpt><trkpt lat="41.5733726" lon="13.1298331"><ele>672.3333333333334</ele><time>2026-05-03T07:14:01.373Z</time></trkpt><trkpt lat="41.5734907" lon="13.1296947"><ele>682.0</ele><time>2026-05-03T07:14:02.373Z</time></trkpt><trkpt lat="41.5736208" lon="13.1295682"><ele>676.3333333333334</ele><time>2026-05-03T07:14:03.373Z</time></trkpt><trkpt lat="41.5737767" lon="13.1294431"><ele>670.6666666666666</ele><time>2026-05-03T07:14:04.372Z</time></trkpt><trkpt lat="41.5739502" lon="13.1293169"><ele>665.0</ele><time>2026-05-03T07:14:05.373Z</time></trkpt><trkpt lat="41.57411" lon="13.1292131"><ele>665.0</ele><time>2026-05-03T07:14:06.373Z</time></trkpt><trkpt lat="41.574271" lon="13.1291341"><ele>665.0</ele><time>2026-05-03T07:14:07.371Z</time></trkpt><trkpt lat="41.5744529" lon="13.1290785"><ele>665.0</ele><time>2026-05-03T07:14:08.372Z</time></trkpt><trkpt lat="41.5746342" lon="13.1290397"><ele>672.6666666666666</ele><time>2026-05-03T07:14:09.372Z</time></trkpt><trkpt lat="41.5748052" lon="13.1289981"><ele>680.3333333333334</ele><time>2026-05-03T07:14:10.374Z</time></trkpt><trkpt lat="41.5749688" lon="13.1289341"><ele>688.0</ele><time>2026-05-03T07:14:11.372Z</time></trkpt><trkpt lat="41.5751265" lon="13.1288423"><ele>688.0</ele><time>2026-05-03T07:14:12.368Z</time></trkpt><trkpt lat="41.5752836" lon="13.1287413"><ele>688.0</ele><time>2026-05-03T07:14:13.373Z</time></trkpt><trkpt lat="41.575441" lon="13.1286218"><ele>688.0</ele><time>2026-05-03T07:14:14.372Z</time></trkpt><trkpt lat="41.5755925" lon="13.1284893"><ele>690.0</ele><time>2026-05-03T07:14:15.373Z</time></trkpt><trkpt lat="41.5757347" lon="13.1283562"><ele>692.0</ele><time>2026-05-03T07:14:16.372Z</time></trkpt><trkpt lat="41.5758622" lon="13.128198"><ele>694.0</ele><time>2026-05-03T07:14:17.371Z</time></trkpt><trkpt lat="41.5759938" lon="13.1280139"><ele>694.0</ele><time>2026-05-03T07:14:18.381Z</time></trkpt><trkpt lat="41.5761373" lon="13.1278321"><ele>694.0</ele><time>2026-05-03T07:14:19.375Z</time></trkpt><trkpt lat="41.5762721" lon="13.1276712"><ele>694.0</ele><time>2026-05-03T07:14:20.376Z</time></trkpt><trkpt lat="41.5763938" lon="13.1275216"><ele>695.0</ele><time>2026-05-03T07:14:21.359Z</time></trkpt><trkpt lat="41.5765053" lon="13.1273623"><ele>696.0</ele><time>2026-05-03T07:14:22.371Z</time></trkpt><trkpt lat="41.5766051" lon="13.1272324"><ele>697.0</ele><time>2026-05-03T07:14:23.373Z</time></trkpt><trkpt lat="41.5767046" lon="13.1271303"><ele>698.0</ele><time>2026-05-03T07:14:24.371Z</time></trkpt><trkpt lat="41.5768219" lon="13.127059"><ele>698.0</ele><time>2026-05-03T07:14:25.375Z</time></trkpt><trkpt lat="41.5769545" lon="13.1270282"><ele>698.0</ele><time>2026-05-03T07:14:26.373Z</time></trkpt><trkpt lat="41.5770911" lon="13.1270069"><ele>698.0</ele><time>2026-05-03T07:14:27.375Z</time></trkpt><trkpt lat="41.5772293" lon="13.1269672"><ele>698.0</ele><time>2026-05-03T07:14:28.38Z</time></trkpt><trkpt lat="41.577365" lon="13.1268681"><ele>697.5</ele><time>2026-05-03T07:14:29.373Z</time></trkpt><trkpt lat="41.5774873" lon="13.1267931"><ele>697.0</ele><time>2026-05-03T07:14:30.371Z</time></trkpt><trkpt lat="41.577623" lon="13.1267446"><ele>696.5</ele><time>2026-05-03T07:14:31.369Z</time></trkpt><trkpt lat="41.5777589" lon="13.1267246"><ele>696.0</ele><time>2026-05-03T07:14:32.368Z</time></trkpt><trkpt lat="41.577885" lon="13.1266791"><ele>696.0</ele><time>2026-05-03T07:14:33.372Z</time></trkpt><trkpt lat="41.5780104" lon="13.1265965"><ele>696.0</ele><time>2026-05-03T07:14:34.372Z</time></trkpt><trkpt lat="41.5781365" lon="13.1264842"><ele>696.0</ele><time>2026-05-03T07:14:35.374Z</time></trkpt><trkpt lat="41.578251" lon="13.126381"><ele>696.0</ele><time>2026-05-03T07:14:36.374Z</time></trkpt><trkpt lat="41.5783701" lon="13.1263222"><ele>696.6666666666666</ele><time>2026-05-03T07:14:37.374Z</time></trkpt><trkpt lat="41.5785181" lon="13.1262998"><ele>697.3333333333333</ele><time>2026-05-03T07:14:38.373Z</time></trkpt><trkpt lat="41.5786796" lon="13.1263026"><ele>698.0</ele><time>2026-05-03T07:14:39.374Z</time></trkpt><trkpt lat="41.5788301" lon="13.126291"><ele>698.0</ele><time>2026-05-03T07:14:40.376Z</time></trkpt><trkpt lat="41.5789809" lon="13.1262446"><ele>698.0</ele><time>2026-05-03T07:14:41.376Z</time></trkpt><trkpt lat="41.5791392" lon="13.1261496"><ele>698.0</ele><time>2026-05-03T07:14:42.377Z</time></trkpt><trkpt lat="41.5793221" lon="13.1260288"><ele>697.0</ele><time>2026-05-03T07:14:43.376Z</time></trkpt><trkpt lat="41.5795224" lon="13.1258824"><ele>696.0</ele><time>2026-05-03T07:14:44.376Z</time></trkpt><trkpt lat="41.579725" lon="13.1257242"><ele>698.5</ele><time>2026-05-03T07:14:45.374Z</time></trkpt><trkpt lat="41.5799361" lon="13.1255474"><ele>701.0</ele><time>2026-05-03T07:14:46.371Z</time></trkpt><trkpt lat="41.5801394" lon="13.125365"><ele>701.0</ele><time>2026-05-03T07:14:47.372Z</time></trkpt><trkpt lat="41.5803115" lon="13.1252016"><ele>701.0</ele><time>2026-05-03T07:14:48.373Z</time></trkpt><trkpt lat="41.5804637" lon="13.1250519"><ele>701.0</ele><time>2026-05-03T07:14:49.375Z</time></trkpt><trkpt lat="41.5805962" lon="13.1249022"><ele>701.3333333333333</ele><time>2026-05-03T07:14:50.372Z</time></trkpt><trkpt lat="41.5807259" lon="13.1247115"><ele>701.6666666666666</ele><time>2026-05-03T07:14:51.373Z</time></trkpt><trkpt lat="41.5808643" lon="13.1244792"><ele>702.0</ele><time>2026-05-03T07:14:52.373Z</time></trkpt><trkpt lat="41.5809966" lon="13.1242323"><ele>702.0</ele><time>2026-05-03T07:14:53.373Z</time></trkpt><trkpt lat="41.5811201" lon="13.1240095"><ele>702.0</ele><time>2026-05-03T07:14:54.374Z</time></trkpt><trkpt lat="41.5812411" lon="13.1238252"><ele>702.0</ele><time>2026-05-03T07:14:55.376Z</time></trkpt><trkpt lat="41.581368" lon="13.1236651"><ele>702.0</ele><time>2026-05-03T07:14:56.376Z</time></trkpt><trkpt lat="41.5815307" lon="13.1235082"><ele>702.0</ele><time>2026-05-03T07:14:57.379Z</time></trkpt><trkpt lat="41.581707" lon="13.1233701"><ele>702.0</ele><time>2026-05-03T07:14:58.374Z</time></trkpt><trkpt lat="41.581891" lon="13.1232571"><ele>701.3333333333334</ele><time>2026-05-03T07:14:59.371Z</time></trkpt><trkpt lat="41.5820653" lon="13.1231792"><ele>700.6666666666667</ele><time>2026-05-03T07:15:00.374Z</time></trkpt><trkpt lat="41.582227" lon="13.1231137"><ele>700.0</ele><time>2026-05-03T07:15:01.372Z</time></trkpt><trkpt lat="41.5823589" lon="13.1230521"><ele>700.0</ele><time>2026-05-03T07:15:02.373Z</time></trkpt><trkpt lat="41.582487" lon="13.1229573"><ele>700.0</ele><time>2026-05-03T07:15:03.373Z</time></trkpt><trkpt lat="41.5826104" lon="13.1228138"><ele>700.0</ele><time>2026-05-03T07:15:04.374Z</time></trkpt><trkpt lat="41.5827284" lon="13.1226213"><ele>698.6666666666667</ele><time>2026-05-03T07:15:05.374Z</time></trkpt><trkpt lat="41.5828521" lon="13.1224112"><ele>697.3333333333334</ele><time>2026-05-03T07:15:06.372Z</time></trkpt><trkpt lat="41.582987" lon="13.1222104"><ele>696.0</ele><time>2026-05-03T07:15:07.373Z</time></trkpt><trkpt lat="41.5831315" lon="13.1220191"><ele>695.3333333333334</ele><time>2026-05-03T07:15:08.372Z</time></trkpt><trkpt lat="41.5832891" lon="13.1218491"><ele>694.6666666666667</ele><time>2026-05-03T07:15:09.375Z</time></trkpt><trkpt lat="41.5834574" lon="13.121677"><ele>694.0</ele><time>2026-05-03T07:15:10.373Z</time></trkpt><trkpt lat="41.583627" lon="13.121512"><ele>693.3333333333334</ele><time>2026-05-03T07:15:11.372Z</time></trkpt><trkpt lat="41.5837873" lon="13.1213619"><ele>692.6666666666666</ele><time>2026-05-03T07:15:12.372Z</time></trkpt><trkpt lat="41.5839243" lon="13.1212375"><ele>692.0</ele><time>2026-05-03T07:15:13.375Z</time></trkpt><trkpt lat="41.5840298" lon="13.121135"><ele>692.0</ele><time>2026-05-03T07:15:14.374Z</time></trkpt><trkpt lat="41.5841044" lon="13.1210336"><ele>692.0</ele><time>2026-05-03T07:15:15.377Z</time></trkpt><trkpt lat="41.5841481" lon="13.1209176"><ele>692.0</ele><time>2026-05-03T07:15:16.369Z</time></trkpt><trkpt lat="41.5841622" lon="13.1207892"><ele>692.0</ele><time>2026-05-03T07:15:17.361Z</time></trkpt><trkpt lat="41.5841528" lon="13.1206658"><ele>692.0</ele><time>2026-05-03T07:15:18.363Z</time></trkpt><trkpt lat="41.5841579" lon="13.1205526"><ele>691.4000000000001</ele><time>2026-05-03T07:15:19.359Z</time></trkpt><trkpt lat="41.5841889" lon="13.120454"><ele>690.8000000000001</ele><time>2026-05-03T07:15:20.357Z</time></trkpt><trkpt lat="41.5842484" lon="13.1203734"><ele>690.2</ele><time>2026-05-03T07:15:21.361Z</time></trkpt><trkpt lat="41.5843439" lon="13.1202917"><ele>689.6</ele><time>2026-05-03T07:15:22.361Z</time></trkpt><trkpt lat="41.584453" lon="13.120228"><ele>689.0</ele><time>2026-05-03T07:15:23.36Z</time></trkpt><trkpt lat="41.5845542" lon="13.1201311"><ele>689.0</ele><time>2026-05-03T07:15:24.359Z</time></trkpt><trkpt lat="41.584667" lon="13.1199915"><ele>689.0</ele><time>2026-05-03T07:15:25.362Z</time></trkpt><trkpt lat="41.5847846" lon="13.1198241"><ele>689.0</ele><time>2026-05-03T07:15:26.368Z</time></trkpt><trkpt lat="41.584887" lon="13.1196441"><ele>690.25</ele><time>2026-05-03T07:15:27.366Z</time></trkpt><trkpt lat="41.5849796" lon="13.1194647"><ele>691.5</ele><time>2026-05-03T07:15:28.368Z</time></trkpt><trkpt lat="41.5850683" lon="13.119324"><ele>692.75</ele><time>2026-05-03T07:15:29.361Z</time></trkpt><trkpt lat="41.5851673" lon="13.1192286"><ele>694.0</ele><time>2026-05-03T07:15:30.37Z</time></trkpt><trkpt lat="41.5852726" lon="13.1191696"><ele>691.2</ele><time>2026-05-03T07:15:31.362Z</time></trkpt><trkpt lat="41.5853667" lon="13.1191053"><ele>688.4000000000001</ele><time>2026-05-03T07:15:32.364Z</time></trkpt><trkpt lat="41.5854466" lon="13.1190109"><ele>685.6</ele><time>2026-05-03T07:15:33.358Z</time></trkpt><trkpt lat="41.5855004" lon="13.1188898"><ele>682.8</ele><time>2026-05-03T07:15:34.361Z</time></trkpt><trkpt lat="41.5855394" lon="13.1187252"><ele>680.0</ele><time>2026-05-03T07:15:35.36Z</time></trkpt><trkpt lat="41.5855578" lon="13.1185529"><ele>679.8</ele><time>2026-05-03T07:15:36.362Z</time></trkpt><trkpt lat="41.5855905" lon="13.1184108"><ele>679.6</ele><time>2026-05-03T07:15:37.365Z</time></trkpt><trkpt lat="41.5856481" lon="13.1182944"><ele>679.4000000000001</ele><time>2026-05-03T07:15:38.359Z</time></trkpt><trkpt lat="41.5857285" lon="13.1182177"><ele>679.2</ele><time>2026-05-03T07:15:39.364Z</time></trkpt><trkpt lat="41.585831" lon="13.1181591"><ele>679.0</ele><time>2026-05-03T07:15:40.359Z</time></trkpt><trkpt lat="41.5859469" lon="13.1180874"><ele>677.25</ele><time>2026-05-03T07:15:41.363Z</time></trkpt><trkpt lat="41.5860528" lon="13.1179816"><ele>675.5</ele><time>2026-05-03T07:15:42.359Z</time></trkpt><trkpt lat="41.5861537" lon="13.1178288"><ele>673.75</ele><time>2026-05-03T07:15:43.362Z</time></trkpt><trkpt lat="41.5862547" lon="13.1176633"><ele>672.0</ele><time>2026-05-03T07:15:44.361Z</time></trkpt><trkpt lat="41.586369" lon="13.1175259"><ele>672.0</ele><time>2026-05-03T07:15:45.364Z</time></trkpt><trkpt lat="41.5864974" lon="13.1174159"><ele>672.0</ele><time>2026-05-03T07:15:46.361Z</time></trkpt><trkpt lat="41.5866124" lon="13.1173271"><ele>672.0</ele><time>2026-05-03T07:15:47.362Z</time></trkpt><trkpt lat="41.5867115" lon="13.1172254"><ele>672.0</ele><time>2026-05-03T07:15:48.363Z</time></trkpt><trkpt lat="41.5867886" lon="13.1170861"><ele>674.75</ele><time>2026-05-03T07:15:49.37Z</time></trkpt><trkpt lat="41.5868361" lon="13.1169152"><ele>677.5</ele><time>2026-05-03T07:15:50.365Z</time></trkpt><trkpt lat="41.5868555" lon="13.1167189"><ele>680.25</ele><time>2026-05-03T07:15:51.367Z</time></trkpt><trkpt lat="41.5868519" lon="13.1165008"><ele>683.0</ele><time>2026-05-03T07:15:52.361Z</time></trkpt><trkpt lat="41.5868407" lon="13.1163024"><ele>684.5</ele><time>2026-05-03T07:15:53.365Z</time></trkpt><trkpt lat="41.5868374" lon="13.1161247"><ele>686.0</ele><time>2026-05-03T07:15:54.364Z</time></trkpt><trkpt lat="41.5868599" lon="13.1159542"><ele>687.5</ele><time>2026-05-03T07:15:55.363Z</time></trkpt><trkpt lat="41.5869131" lon="13.1157613"><ele>689.0</ele><time>2026-05-03T07:15:56.372Z</time></trkpt><trkpt lat="41.5869747" lon="13.1155525"><ele>684.25</ele><time>2026-05-03T07:15:57.363Z</time></trkpt><trkpt lat="41.5870424" lon="13.1153779"><ele>679.5</ele><time>2026-05-03T07:15:58.362Z</time></trkpt><trkpt lat="41.5871291" lon="13.1152392"><ele>674.75</ele><time>2026-05-03T07:15:59.367Z</time></trkpt><trkpt lat="41.5872231" lon="13.1151327"><ele>670.0</ele><time>2026-05-03T07:16:00.365Z</time></trkpt><trkpt lat="41.5873036" lon="13.1150209"><ele>673.25</ele><time>2026-05-03T07:16:01.361Z</time></trkpt><trkpt lat="41.5873693" lon="13.1148771"><ele>676.5</ele><time>2026-05-03T07:16:02.362Z</time></trkpt><trkpt lat="41.5874044" lon="13.1147088"><ele>679.75</ele><time>2026-05-03T07:16:03.367Z</time></trkpt><trkpt lat="41.5874151" lon="13.1145376"><ele>683.0</ele><time>2026-05-03T07:16:04.361Z</time></trkpt><trkpt lat="41.5874469" lon="13.1143777"><ele>683.0</ele><time>2026-05-03T07:16:05.368Z</time></trkpt><trkpt lat="41.5875166" lon="13.1142027"><ele>683.0</ele><time>2026-05-03T07:16:06.361Z</time></trkpt><trkpt lat="41.5876232" lon="13.1140341"><ele>683.0</ele><time>2026-05-03T07:16:07.375Z</time></trkpt><trkpt lat="41.5877347" lon="13.1138819"><ele>677.6666666666666</ele><time>2026-05-03T07:16:08.363Z</time></trkpt><trkpt lat="41.5878408" lon="13.1136983"><ele>672.3333333333334</ele><time>2026-05-03T07:16:09.371Z</time></trkpt><trkpt lat="41.5879426" lon="13.1135302"><ele>667.0</ele><time>2026-05-03T07:16:10.363Z</time></trkpt><trkpt lat="41.5880529" lon="13.1134082"><ele>667.0</ele><time>2026-05-03T07:16:11.375Z</time></trkpt><trkpt lat="41.5881518" lon="13.1133094"><ele>667.0</ele><time>2026-05-03T07:16:12.365Z</time></trkpt><trkpt lat="41.5882309" lon="13.1132099"><ele>667.0</ele><time>2026-05-03T07:16:13.361Z</time></trkpt><trkpt lat="41.5882828" lon="13.1130741"><ele>667.0</ele><time>2026-05-03T07:16:14.367Z</time></trkpt><trkpt lat="41.588324" lon="13.1129214"><ele>672.5</ele><time>2026-05-03T07:16:15.363Z</time></trkpt><trkpt lat="41.5883718" lon="13.1127917"><ele>678.0</ele><time>2026-05-03T07:16:16.363Z</time></trkpt><trkpt lat="41.5884486" lon="13.1126833"><ele>683.5</ele><time>2026-05-03T07:16:17.365Z</time></trkpt><trkpt lat="41.588552" lon="13.1126092"><ele>689.0</ele><time>2026-05-03T07:16:18.363Z</time></trkpt><trkpt lat="41.5886633" lon="13.1125728"><ele>687.25</ele><time>2026-05-03T07:16:19.363Z</time></trkpt><trkpt lat="41.5887828" lon="13.1125295"><ele>685.5</ele><time>2026-05-03T07:16:20.364Z</time></trkpt><trkpt lat="41.5888913" lon="13.1124491"><ele>683.75</ele><time>2026-05-03T07:16:21.362Z</time></trkpt><trkpt lat="41.5889904" lon="13.1123246"><ele>682.0</ele><time>2026-05-03T07:16:22.361Z</time></trkpt><trkpt lat="41.5890847" lon="13.1121717"><ele>682.0</ele><time>2026-05-03T07:16:23.362Z</time></trkpt><trkpt lat="41.5891932" lon="13.1120315"><ele>682.0</ele><time>2026-05-03T07:16:24.362Z</time></trkpt><trkpt lat="41.5893097" lon="13.1119001"><ele>682.0</ele><time>2026-05-03T07:16:25.374Z</time></trkpt><trkpt lat="41.5893993" lon="13.1117665"><ele>682.0</ele><time>2026-05-03T07:16:26.376Z</time></trkpt><trkpt lat="41.5894627" lon="13.1116111"><ele>687.3333333333334</ele><time>2026-05-03T07:16:27.361Z</time></trkpt><trkpt lat="41.5895051" lon="13.1114097"><ele>692.6666666666666</ele><time>2026-05-03T07:16:28.361Z</time></trkpt><trkpt lat="41.5895545" lon="13.1111668"><ele>698.0</ele><time>2026-05-03T07:16:29.368Z</time></trkpt><trkpt lat="41.5896055" lon="13.1109096"><ele>681.6666666666666</ele><time>2026-05-03T07:16:30.365Z</time></trkpt><trkpt lat="41.5896547" lon="13.1106727"><ele>665.3333333333334</ele><time>2026-05-03T07:16:31.362Z</time></trkpt><trkpt lat="41.5896937" lon="13.1104419"><ele>649.0</ele><time>2026-05-03T07:16:32.367Z</time></trkpt><trkpt lat="41.5897187" lon="13.1102251"><ele>649.0</ele><time>2026-05-03T07:16:33.362Z</time></trkpt><trkpt lat="41.5897265" lon="13.1099875"><ele>649.0</ele><time>2026-05-03T07:16:34.365Z</time></trkpt><trkpt lat="41.589711" lon="13.1097257"><ele>649.0</ele><time>2026-05-03T07:16:35.364Z</time></trkpt><trkpt lat="41.5896725" lon="13.1094288"><ele>646.5</ele><time>2026-05-03T07:16:36.365Z</time></trkpt><trkpt lat="41.5896107" lon="13.1090822"><ele>644.0</ele><time>2026-05-03T07:16:37.369Z</time></trkpt><trkpt lat="41.5895434" lon="13.1087199"><ele>658.0</ele><time>2026-05-03T07:16:38.361Z</time></trkpt><trkpt lat="41.5894857" lon="13.1083871"><ele>672.0</ele><time>2026-05-03T07:16:39.361Z</time></trkpt><trkpt lat="41.5894294" lon="13.1080799"><ele>672.0</ele><time>2026-05-03T07:16:40.361Z</time></trkpt><trkpt lat="41.5893743" lon="13.107805"><ele>672.0</ele><time>2026-05-03T07:16:41.363Z</time></trkpt><trkpt lat="41.5893281" lon="13.1075618"><ele>672.0</ele><time>2026-05-03T07:16:42.359Z</time></trkpt><trkpt lat="41.5892945" lon="13.1073191"><ele>670.25</ele><time>2026-05-03T07:16:43.362Z</time></trkpt><trkpt lat="41.5892783" lon="13.1070878"><ele>668.5</ele><time>2026-05-03T07:16:44.371Z</time></trkpt><trkpt lat="41.5892652" lon="13.1068965"><ele>666.75</ele><time>2026-05-03T07:16:45.363Z</time></trkpt><trkpt lat="41.589259" lon="13.1067387"><ele>665.0</ele><time>2026-05-03T07:16:46.358Z</time></trkpt><trkpt lat="41.5892707" lon="13.1066244"><ele>664.4</ele><time>2026-05-03T07:16:47.374Z</time></trkpt><trkpt lat="41.5893107" lon="13.1065357"><ele>663.8</ele><time>2026-05-03T07:16:48.362Z</time></trkpt><trkpt lat="41.5893843" lon="13.1064805"><ele>663.2</ele><time>2026-05-03T07:16:49.372Z</time></trkpt><trkpt lat="41.5894775" lon="13.1064627"><ele>662.6</ele><time>2026-05-03T07:16:50.362Z</time></trkpt><trkpt lat="41.5895871" lon="13.1065094"><ele>662.0</ele><time>2026-05-03T07:16:51.359Z</time></trkpt><trkpt lat="41.5897266" lon="13.106594"><ele>662.0</ele><time>2026-05-03T07:16:52.373Z</time></trkpt><trkpt lat="41.5898974" lon="13.1067051"><ele>662.0</ele><time>2026-05-03T07:16:53.361Z</time></trkpt><trkpt lat="41.5900772" lon="13.1068197"><ele>662.0</ele><time>2026-05-03T07:16:54.359Z</time></trkpt><trkpt lat="41.5902516" lon="13.1069259"><ele>664.6666666666666</ele><time>2026-05-03T07:16:55.364Z</time></trkpt><trkpt lat="41.5904284" lon="13.1070203"><ele>667.3333333333334</ele><time>2026-05-03T07:16:56.36Z</time></trkpt><trkpt lat="41.5906017" lon="13.1070894"><ele>670.0</ele><time>2026-05-03T07:16:57.367Z</time></trkpt><trkpt lat="41.5907762" lon="13.1071522"><ele>670.0</ele><time>2026-05-03T07:16:58.372Z</time></trkpt><trkpt lat="41.5909532" lon="13.1072123"><ele>670.0</ele><time>2026-05-03T07:16:59.363Z</time></trkpt><trkpt lat="41.5911371" lon="13.1072484"><ele>670.0</ele><time>2026-05-03T07:17:00.372Z</time></trkpt><trkpt lat="41.5913149" lon="13.1072705"><ele>668.5</ele><time>2026-05-03T07:17:01.361Z</time></trkpt><trkpt lat="41.5914584" lon="13.10728"><ele>667.0</ele><time>2026-05-03T07:17:02.366Z</time></trkpt><trkpt lat="41.5915802" lon="13.1072584"><ele>665.5</ele><time>2026-05-03T07:17:03.371Z</time></trkpt><trkpt lat="41.5916971" lon="13.1072057"><ele>664.0</ele><time>2026-05-03T07:17:04.36Z</time></trkpt><trkpt lat="41.5918185" lon="13.1070997"><ele>664.0</ele><time>2026-05-03T07:17:05.374Z</time></trkpt><trkpt lat="41.591949" lon="13.1069425"><ele>664.0</ele><time>2026-05-03T07:17:06.363Z</time></trkpt><trkpt lat="41.5921052" lon="13.106762"><ele>664.0</ele><time>2026-05-03T07:17:07.372Z</time></trkpt><trkpt lat="41.5922694" lon="13.1066021"><ele>660.6666666666667</ele><time>2026-05-03T07:17:08.373Z</time></trkpt><trkpt lat="41.592422" lon="13.1064512"><ele>657.3333333333334</ele><time>2026-05-03T07:17:09.365Z</time></trkpt><trkpt lat="41.5925552" lon="13.1062985"><ele>654.0</ele><time>2026-05-03T07:17:10.366Z</time></trkpt><trkpt lat="41.5926777" lon="13.1061151"><ele>654.0</ele><time>2026-05-03T07:17:11.364Z</time></trkpt><trkpt lat="41.5927832" lon="13.1058975"><ele>654.0</ele><time>2026-05-03T07:17:12.365Z</time></trkpt><trkpt lat="41.5929001" lon="13.1056457"><ele>654.0</ele><time>2026-05-03T07:17:13.365Z</time></trkpt><trkpt lat="41.5930414" lon="13.1053745"><ele>653.0</ele><time>2026-05-03T07:17:14.365Z</time></trkpt><trkpt lat="41.5932093" lon="13.1050797"><ele>652.0</ele><time>2026-05-03T07:17:15.366Z</time></trkpt><trkpt lat="41.5933659" lon="13.1048122"><ele>652.0</ele><time>2026-05-03T07:17:16.376Z</time></trkpt><trkpt lat="41.5935104" lon="13.1045795"><ele>652.0</ele><time>2026-05-03T07:17:17.37Z</time></trkpt><trkpt lat="41.5936346" lon="13.1043852"><ele>652.0</ele><time>2026-05-03T07:17:18.368Z</time></trkpt><trkpt lat="41.5937482" lon="13.1042329"><ele>649.75</ele><time>2026-05-03T07:17:19.364Z</time></trkpt><trkpt lat="41.593871" lon="13.1041234"><ele>647.5</ele><time>2026-05-03T07:17:20.371Z</time></trkpt><trkpt lat="41.5940001" lon="13.1040428"><ele>645.25</ele><time>2026-05-03T07:17:21.368Z</time></trkpt><trkpt lat="41.5941376" lon="13.1039361"><ele>643.0</ele><time>2026-05-03T07:17:22.371Z</time></trkpt><trkpt lat="41.5942662" lon="13.1037958"><ele>643.0</ele><time>2026-05-03T07:17:23.364Z</time></trkpt><trkpt lat="41.5943666" lon="13.1036581"><ele>643.0</ele><time>2026-05-03T07:17:24.363Z</time></trkpt><trkpt lat="41.5944435" lon="13.1034935"><ele>643.0</ele><time>2026-05-03T07:17:25.366Z</time></trkpt><trkpt lat="41.5945172" lon="13.1033121"><ele>643.0</ele><time>2026-05-03T07:17:26.364Z</time></trkpt><trkpt lat="41.5946094" lon="13.1031489"><ele>641.0</ele><time>2026-05-03T07:17:27.366Z</time></trkpt><trkpt lat="41.5947102" lon="13.102992"><ele>639.0</ele><time>2026-05-03T07:17:28.371Z</time></trkpt><trkpt lat="41.5948595" lon="13.1028846"><ele>637.0</ele><time>2026-05-03T07:17:29.374Z</time></trkpt><trkpt lat="41.5950129" lon="13.1027862"><ele>637.0</ele><time>2026-05-03T07:17:30.37Z</time></trkpt><trkpt lat="41.5951822" lon="13.1027243"><ele>637.0</ele><time>2026-05-03T07:17:31.372Z</time></trkpt><trkpt lat="41.5953544" lon="13.1026676"><ele>637.0</ele><time>2026-05-03T07:17:32.366Z</time></trkpt><trkpt lat="41.5955322" lon="13.1025876"><ele>639.25</ele><time>2026-05-03T07:17:33.369Z</time></trkpt><trkpt lat="41.5956934" lon="13.1025202"><ele>641.5</ele><time>2026-05-03T07:17:34.366Z</time></trkpt><trkpt lat="41.5958338" lon="13.1024742"><ele>643.75</ele><time>2026-05-03T07:17:35.364Z</time></trkpt><trkpt lat="41.5959476" lon="13.1024079"><ele>646.0</ele><time>2026-05-03T07:17:36.362Z</time></trkpt><trkpt lat="41.5960344" lon="13.1023161"><ele>646.0</ele><time>2026-05-03T07:17:37.363Z</time></trkpt><trkpt lat="41.5961049" lon="13.1021773"><ele>646.0</ele><time>2026-05-03T07:17:38.364Z</time></trkpt><trkpt lat="41.596175" lon="13.1020157"><ele>646.0</ele><time>2026-05-03T07:17:39.363Z</time></trkpt><trkpt lat="41.5962536" lon="13.1018898"><ele>646.0</ele><time>2026-05-03T07:17:40.361Z</time></trkpt><trkpt lat="41.5963465" lon="13.1018065"><ele>645.0</ele><time>2026-05-03T07:17:41.363Z</time></trkpt><trkpt lat="41.5964592" lon="13.1017337"><ele>644.0</ele><time>2026-05-03T07:17:42.364Z</time></trkpt><trkpt lat="41.5965737" lon="13.1016371"><ele>643.0</ele><time>2026-05-03T07:17:43.372Z</time></trkpt><trkpt lat="41.5966831" lon="13.101495"><ele>642.0</ele><time>2026-05-03T07:17:44.365Z</time></trkpt><trkpt lat="41.5967774" lon="13.1013293"><ele>642.0</ele><time>2026-05-03T07:17:45.37Z</time></trkpt><trkpt lat="41.5968789" lon="13.1011847"><ele>642.0</ele><time>2026-05-03T07:17:46.362Z</time></trkpt><trkpt lat="41.5970279" lon="13.1010319"><ele>642.0</ele><time>2026-05-03T07:17:47.368Z</time></trkpt><trkpt lat="41.5972065" lon="13.1008775"><ele>641.0</ele><time>2026-05-03T07:17:48.367Z</time></trkpt><trkpt lat="41.5973718" lon="13.1007577"><ele>640.0</ele><time>2026-05-03T07:17:49.364Z</time></trkpt><trkpt lat="41.597524" lon="13.1006535"><ele>639.0</ele><time>2026-05-03T07:17:50.369Z</time></trkpt><trkpt lat="41.5976632" lon="13.1005351"><ele>639.0</ele><time>2026-05-03T07:17:51.367Z</time></trkpt><trkpt lat="41.5977962" lon="13.1003762"><ele>639.0</ele><time>2026-05-03T07:17:52.373Z</time></trkpt><trkpt lat="41.5979056" lon="13.100187"><ele>639.0</ele><time>2026-05-03T07:17:53.367Z</time></trkpt><trkpt lat="41.5979977" lon="13.1000043"><ele>636.3333333333334</ele><time>2026-05-03T07:17:54.372Z</time></trkpt><trkpt lat="41.5980961" lon="13.0998426"><ele>633.6666666666667</ele><time>2026-05-03T07:17:55.374Z</time></trkpt><trkpt lat="41.5982264" lon="13.0996934"><ele>631.0</ele><time>2026-05-03T07:17:56.366Z</time></trkpt><trkpt lat="41.5983969" lon="13.0995535"><ele>631.0</ele><time>2026-05-03T07:17:57.372Z</time></trkpt><trkpt lat="41.5986002" lon="13.0994128"><ele>631.0</ele><time>2026-05-03T07:17:58.36Z</time></trkpt><trkpt lat="41.5987986" lon="13.0993043"><ele>631.0</ele><time>2026-05-03T07:17:59.366Z</time></trkpt><trkpt lat="41.5989857" lon="13.0992116"><ele>633.3333333333334</ele><time>2026-05-03T07:18:00.366Z</time></trkpt><trkpt lat="41.5991546" lon="13.0991213"><ele>635.6666666666666</ele><time>2026-05-03T07:18:01.377Z</time></trkpt><trkpt lat="41.5992975" lon="13.099009"><ele>638.0</ele><time>2026-05-03T07:18:02.369Z</time></trkpt><trkpt lat="41.5994405" lon="13.098851"><ele>627.0</ele><time>2026-05-03T07:18:03.372Z</time></trkpt><trkpt lat="41.5995984" lon="13.0986749"><ele>616.0</ele><time>2026-05-03T07:18:04.373Z</time></trkpt><trkpt lat="41.5997715" lon="13.0984938"><ele>605.0</ele><time>2026-05-03T07:18:05.372Z</time></trkpt><trkpt lat="41.5999315" lon="13.0983183"><ele>603.6666666666666</ele><time>2026-05-03T07:18:06.372Z</time></trkpt><trkpt lat="41.6000866" lon="13.0981416"><ele>602.3333333333334</ele><time>2026-05-03T07:18:07.367Z</time></trkpt><trkpt lat="41.6002277" lon="13.0980058"><ele>601.0</ele><time>2026-05-03T07:18:08.371Z</time></trkpt><trkpt lat="41.6003681" lon="13.0979043"><ele>601.0</ele><time>2026-05-03T07:18:09.372Z</time></trkpt><trkpt lat="41.600479" lon="13.0978059"><ele>601.0</ele><time>2026-05-03T07:18:10.364Z</time></trkpt><trkpt lat="41.6005729" lon="13.0976549"><ele>601.0</ele><time>2026-05-03T07:18:11.373Z</time></trkpt><trkpt lat="41.6006659" lon="13.0975029"><ele>601.0</ele><time>2026-05-03T07:18:12.366Z</time></trkpt><trkpt lat="41.6007634" lon="13.0973784"><ele>598.0</ele><time>2026-05-03T07:18:13.372Z</time></trkpt><trkpt lat="41.6008988" lon="13.0972989"><ele>595.0</ele><time>2026-05-03T07:18:14.363Z</time></trkpt><trkpt lat="41.6010469" lon="13.0972049"><ele>592.0</ele><time>2026-05-03T07:18:15.365Z</time></trkpt><trkpt lat="41.6011758" lon="13.0971027"><ele>592.0</ele><time>2026-05-03T07:18:16.366Z</time></trkpt><trkpt lat="41.6012863" lon="13.0969913"><ele>592.0</ele><time>2026-05-03T07:18:17.364Z</time></trkpt><trkpt lat="41.6013845" lon="13.0968331"><ele>592.0</ele><time>2026-05-03T07:18:18.374Z</time></trkpt><trkpt lat="41.6014749" lon="13.0966369"><ele>595.6666666666667</ele><time>2026-05-03T07:18:19.362Z</time></trkpt><trkpt lat="41.6015584" lon="13.0964038"><ele>599.3333333333334</ele><time>2026-05-03T07:18:20.365Z</time></trkpt><trkpt lat="41.6016303" lon="13.0961569"><ele>603.0</ele><time>2026-05-03T07:18:21.363Z</time></trkpt><trkpt lat="41.6016823" lon="13.0958986"><ele>605.6666666666666</ele><time>2026-05-03T07:18:22.36Z</time></trkpt><trkpt lat="41.6017248" lon="13.0956649"><ele>608.3333333333333</ele><time>2026-05-03T07:18:23.365Z</time></trkpt><trkpt lat="41.6017607" lon="13.095449"><ele>611.0</ele><time>2026-05-03T07:18:24.367Z</time></trkpt><trkpt lat="41.601798" lon="13.0952554"><ele>611.0</ele><time>2026-05-03T07:18:25.367Z</time></trkpt><trkpt lat="41.6018496" lon="13.0951015"><ele>611.0</ele><time>2026-05-03T07:18:26.365Z</time></trkpt><trkpt lat="41.6019282" lon="13.0949653"><ele>611.0</ele><time>2026-05-03T07:18:27.366Z</time></trkpt><trkpt lat="41.6020237" lon="13.0948163"><ele>611.0</ele><time>2026-05-03T07:18:28.365Z</time></trkpt><trkpt lat="41.6020995" lon="13.0946375"><ele>612.5</ele><time>2026-05-03T07:18:29.363Z</time></trkpt><trkpt lat="41.6021581" lon="13.0944453"><ele>614.0</ele><time>2026-05-03T07:18:30.365Z</time></trkpt><trkpt lat="41.6022133" lon="13.0942734"><ele>615.5</ele><time>2026-05-03T07:18:31.372Z</time></trkpt><trkpt lat="41.6022804" lon="13.0941285"><ele>617.0</ele><time>2026-05-03T07:18:32.364Z</time></trkpt><trkpt lat="41.6023588" lon="13.0940221"><ele>617.0</ele><time>2026-05-03T07:18:33.365Z</time></trkpt><trkpt lat="41.6024646" lon="13.0939469"><ele>617.0</ele><time>2026-05-03T07:18:34.367Z</time></trkpt><trkpt lat="41.6025789" lon="13.0938801"><ele>617.0</ele><time>2026-05-03T07:18:35.366Z</time></trkpt><trkpt lat="41.6027613" lon="13.0938149"><ele>617.0</ele><time>2026-05-03T07:18:36.366Z</time></trkpt><trkpt lat="41.6028898" lon="13.0937505"><ele>611.8000000000001</ele><time>2026-05-03T07:18:37.368Z</time></trkpt><trkpt lat="41.6029974" lon="13.0936822"><ele>606.6</ele><time>2026-05-03T07:18:38.367Z</time></trkpt><trkpt lat="41.6030691" lon="13.0936144"><ele>601.4000000000001</ele><time>2026-05-03T07:18:39.363Z</time></trkpt><trkpt lat="41.60313" lon="13.0935318"><ele>596.2</ele><time>2026-05-03T07:18:41.365Z</time></trkpt><trkpt lat="41.6031749" lon="13.0933955"><ele>591.0</ele><time>2026-05-03T07:18:58.372Z</time></trkpt><trkpt lat="41.603216" lon="13.0932458"><ele>591.0</ele><time>2026-05-03T07:19:00.363Z</time></trkpt><trkpt lat="41.6032397" lon="13.0931411"><ele>591.0</ele><time>2026-05-03T07:19:01.366Z</time></trkpt><trkpt lat="41.60326" lon="13.0930486"><ele>591.0</ele><time>2026-05-03T07:19:02.367Z</time></trkpt><trkpt lat="41.6032796" lon="13.0929486"><ele>591.0</ele><time>2026-05-03T07:19:03.365Z</time></trkpt><trkpt lat="41.603298" lon="13.0928538"><ele>591.0</ele><time>2026-05-03T07:19:04.364Z</time></trkpt><trkpt lat="41.6033159" lon="13.0927527"><ele>591.0</ele><time>2026-05-03T07:19:05.372Z</time></trkpt><trkpt lat="41.6033352" lon="13.0926516"><ele>591.0</ele><time>2026-05-03T07:19:06.365Z</time></trkpt><trkpt lat="41.6033493" lon="13.092563"><ele>591.0</ele><time>2026-05-03T07:19:07.373Z</time></trkpt><trkpt lat="41.6033784" lon="13.0924106"><ele>591.0</ele><time>2026-05-03T07:19:09.371Z</time></trkpt><trkpt lat="41.6034057" lon="13.0922632"><ele>591.0</ele><time>2026-05-03T07:19:11.369Z</time></trkpt><trkpt lat="41.603433" lon="13.0921147"><ele>591.0</ele><time>2026-05-03T07:19:13.372Z</time></trkpt><trkpt lat="41.6034602" lon="13.09197"><ele>593.3333333333334</ele><time>2026-05-03T07:19:15.373Z</time></trkpt><trkpt lat="41.6034848" lon="13.0918436"><ele>595.6666666666666</ele><time>2026-05-03T07:19:17.373Z</time></trkpt><trkpt lat="41.6035077" lon="13.091729"><ele>598.0</ele><time>2026-05-03T07:19:20.363Z</time></trkpt><trkpt lat="41.603515" lon="13.0916432"><ele>600.3333333333333</ele><time>2026-05-03T07:23:31.38Z</time></trkpt><trkpt lat="41.6035236" lon="13.0915565"><ele>602.6666666666666</ele><time>2026-05-03T07:23:33.378Z</time></trkpt><trkpt lat="41.603543" lon="13.0914177"><ele>605.0</ele><time>2026-05-03T07:23:35.375Z</time></trkpt><trkpt lat="41.6035546" lon="13.0912822"><ele>605.0</ele><time>2026-05-03T07:23:37.384Z</time></trkpt><trkpt lat="41.603585" lon="13.0912067"><ele>605.0</ele><time>2026-05-03T07:23:39.388Z</time></trkpt><trkpt lat="41.6036282" lon="13.0912777"><ele>605.0</ele><time>2026-05-03T07:23:43.368Z</time></trkpt><trkpt lat="41.6036018" lon="13.0913884"><ele>605.0</ele><time>2026-05-03T07:23:45.368Z</time></trkpt><trkpt lat="41.6035849" lon="13.0915692"><ele>605.0</ele><time>2026-05-03T07:23:47.374Z</time></trkpt><trkpt lat="41.6035783" lon="13.0916706"><ele>605.0</ele><time>2026-05-03T07:23:48.365Z</time></trkpt><trkpt lat="41.6035728" lon="13.0917782"><ele>605.0</ele><time>2026-05-03T07:23:49.37Z</time></trkpt><trkpt lat="41.6035703" lon="13.0918916"><ele>605.0</ele><time>2026-05-03T07:23:50.366Z</time></trkpt><trkpt lat="41.6035782" lon="13.0919999"><ele>605.0</ele><time>2026-05-03T07:23:51.368Z</time></trkpt><trkpt lat="41.6035828" lon="13.0921184"><ele>605.0</ele><time>2026-05-03T07:23:52.372Z</time></trkpt><trkpt lat="41.6035816" lon="13.0922366"><ele>605.0</ele><time>2026-05-03T07:23:53.368Z</time></trkpt><trkpt lat="41.603577" lon="13.0923478"><ele>605.0</ele><time>2026-05-03T07:23:54.367Z</time></trkpt><trkpt lat="41.6035774" lon="13.0924579"><ele>602.6666666666666</ele><time>2026-05-03T07:23:55.36Z</time></trkpt><trkpt lat="41.6035803" lon="13.0925696"><ele>600.3333333333333</ele><time>2026-05-03T07:23:56.369Z</time></trkpt><trkpt lat="41.6035848" lon="13.0926884"><ele>598.0</ele><time>2026-05-03T07:23:57.368Z</time></trkpt><trkpt lat="41.6035884" lon="13.0928069"><ele>595.6666666666666</ele><time>2026-05-03T07:23:58.368Z</time></trkpt><trkpt lat="41.603593" lon="13.0929241"><ele>593.3333333333334</ele><time>2026-05-03T07:23:59.38Z</time></trkpt><trkpt lat="41.6035916" lon="13.0930429"><ele>591.0</ele><time>2026-05-03T07:24:00.368Z</time></trkpt><trkpt lat="41.6035929" lon="13.0931685"><ele>588.6666666666666</ele><time>2026-05-03T07:24:01.366Z</time></trkpt><trkpt lat="41.603595" lon="13.0932947"><ele>586.3333333333334</ele><time>2026-05-03T07:24:02.37Z</time></trkpt><trkpt lat="41.6035968" lon="13.0934106"><ele>584.0</ele><time>2026-05-03T07:24:03.375Z</time></trkpt><trkpt lat="41.6035994" lon="13.093525"><ele>581.6666666666667</ele><time>2026-05-03T07:24:04.377Z</time></trkpt><trkpt lat="41.6036004" lon="13.0936375"><ele>579.3333333333334</ele><time>2026-05-03T07:24:05.379Z</time></trkpt><trkpt lat="41.603607" lon="13.0937457"><ele>577.0</ele><time>2026-05-03T07:24:06.374Z</time></trkpt><trkpt lat="41.6036165" lon="13.0938499"><ele>577.0</ele><time>2026-05-03T07:24:07.376Z</time></trkpt><trkpt lat="41.6036195" lon="13.0939401"><ele>577.0</ele><time>2026-05-03T07:24:08.372Z</time></trkpt><trkpt lat="41.6036288" lon="13.0940738"><ele>577.0</ele><time>2026-05-03T07:24:10.368Z</time></trkpt><trkpt lat="41.6036325" lon="13.0941673"><ele>577.0</ele><time>2026-05-03T07:24:12.368Z</time></trkpt><trkpt lat="41.6036576" lon="13.0943088"><ele>577.0</ele><time>2026-05-03T07:24:14.367Z</time></trkpt><trkpt lat="41.6036504" lon="13.0944603"><ele>574.2</ele><time>2026-05-03T07:24:16.363Z</time></trkpt><trkpt lat="41.6036092" lon="13.0946067"><ele>571.4000000000001</ele><time>2026-05-03T07:24:18.366Z</time></trkpt><trkpt lat="41.6035416" lon="13.0947477"><ele>568.5999999999999</ele><time>2026-05-03T07:24:20.366Z</time></trkpt><trkpt lat="41.6034963" lon="13.094818"><ele>565.8</ele><time>2026-05-03T07:24:21.371Z</time></trkpt><trkpt lat="41.6034459" lon="13.0948828"><ele>563.0</ele><time>2026-05-03T07:24:22.368Z</time></trkpt><trkpt lat="41.6033875" lon="13.0949405"><ele>558.4</ele><time>2026-05-03T07:24:23.374Z</time></trkpt><trkpt lat="41.6033095" lon="13.0949953"><ele>553.8</ele><time>2026-05-03T07:24:24.377Z</time></trkpt><trkpt lat="41.6032214" lon="13.0950609"><ele>549.2</ele><time>2026-05-03T07:24:25.367Z</time></trkpt><trkpt lat="41.6031436" lon="13.0951364"><ele>544.6</ele><time>2026-05-03T07:24:26.362Z</time></trkpt><trkpt lat="41.6030752" lon="13.095226"><ele>540.0</ele><time>2026-05-03T07:24:27.365Z</time></trkpt><trkpt lat="41.6030257" lon="13.0953249"><ele>540.0</ele><time>2026-05-03T07:24:28.364Z</time></trkpt><trkpt lat="41.6029855" lon="13.0954503"><ele>540.0</ele><time>2026-05-03T07:24:29.364Z</time></trkpt><trkpt lat="41.6029527" lon="13.0955865"><ele>540.0</ele><time>2026-05-03T07:24:30.355Z</time></trkpt><trkpt lat="41.6029314" lon="13.0957252"><ele>540.0</ele><time>2026-05-03T07:24:31.372Z</time></trkpt><trkpt lat="41.6029045" lon="13.0958663"><ele>540.0</ele><time>2026-05-03T07:24:32.365Z</time></trkpt><trkpt lat="41.602877" lon="13.0960092"><ele>540.5</ele><time>2026-05-03T07:24:33.365Z</time></trkpt><trkpt lat="41.6028459" lon="13.0961531"><ele>541.0</ele><time>2026-05-03T07:24:34.371Z</time></trkpt><trkpt lat="41.6028106" lon="13.0963015"><ele>541.5</ele><time>2026-05-03T07:24:35.369Z</time></trkpt><trkpt lat="41.602771" lon="13.0964505"><ele>542.0</ele><time>2026-05-03T07:24:36.366Z</time></trkpt><trkpt lat="41.6027289" lon="13.0965965"><ele>542.0</ele><time>2026-05-03T07:24:37.373Z</time></trkpt><trkpt lat="41.6026763" lon="13.0967287"><ele>542.0</ele><time>2026-05-03T07:24:38.364Z</time></trkpt><trkpt lat="41.6026273" lon="13.0968547"><ele>542.0</ele><time>2026-05-03T07:24:39.373Z</time></trkpt><trkpt lat="41.6025795" lon="13.0969671"><ele>542.0</ele><time>2026-05-03T07:24:40.368Z</time></trkpt><trkpt lat="41.6025414" lon="13.097065"><ele>542.0</ele><time>2026-05-03T07:24:41.368Z</time></trkpt><trkpt lat="41.6025236" lon="13.0971653"><ele>542.0</ele><time>2026-05-03T07:24:42.364Z</time></trkpt><trkpt lat="41.602525" lon="13.0972638"><ele>542.0</ele><time>2026-05-03T07:24:43.365Z</time></trkpt><trkpt lat="41.6025288" lon="13.0973706"><ele>542.0</ele><time>2026-05-03T07:24:44.372Z</time></trkpt><trkpt lat="41.6025185" lon="13.097488"><ele>542.0</ele><time>2026-05-03T07:24:45.366Z</time></trkpt><trkpt lat="41.6025014" lon="13.0976105"><ele>542.0</ele><time>2026-05-03T07:24:46.375Z</time></trkpt><trkpt lat="41.6024809" lon="13.0977421"><ele>542.0</ele><time>2026-05-03T07:24:47.369Z</time></trkpt><trkpt lat="41.6024675" lon="13.0978758"><ele>537.75</ele><time>2026-05-03T07:24:48.372Z</time></trkpt><trkpt lat="41.6024708" lon="13.09801"><ele>533.5</ele><time>2026-05-03T07:24:49.367Z</time></trkpt><trkpt lat="41.602457" lon="13.0981415"><ele>529.25</ele><time>2026-05-03T07:24:50.366Z</time></trkpt><trkpt lat="41.6024341" lon="13.0982526"><ele>525.0</ele><time>2026-05-03T07:24:51.482Z</time></trkpt><trkpt lat="41.6023543" lon="13.0984539"><ele>522.6666666666666</ele><time>2026-05-03T07:24:53.365Z</time></trkpt><trkpt lat="41.6023296" lon="13.0985569"><ele>520.3333333333334</ele><time>2026-05-03T07:24:54.366Z</time></trkpt><trkpt lat="41.6023269" lon="13.0986595"><ele>518.0</ele><time>2026-05-03T07:24:55.368Z</time></trkpt><trkpt lat="41.6023457" lon="13.0987574"><ele>515.6666666666667</ele><time>2026-05-03T07:24:56.364Z</time></trkpt><trkpt lat="41.6023897" lon="13.0988597"><ele>513.3333333333334</ele><time>2026-05-03T07:24:57.364Z</time></trkpt><trkpt lat="41.6024465" lon="13.0989847"><ele>511.0</ele><time>2026-05-03T07:24:58.367Z</time></trkpt><trkpt lat="41.6025007" lon="13.0991179"><ele>510.4</ele><time>2026-05-03T07:24:59.365Z</time></trkpt><trkpt lat="41.6025642" lon="13.0992389"><ele>509.8</ele><time>2026-05-03T07:25:00.374Z</time></trkpt><trkpt lat="41.6026342" lon="13.099354"><ele>509.19999999999993</ele><time>2026-05-03T07:25:01.371Z</time></trkpt><trkpt lat="41.6026959" lon="13.0994504"><ele>508.59999999999997</ele><time>2026-05-03T07:25:02.367Z</time></trkpt><trkpt lat="41.602746" lon="13.0995103"><ele>508.0</ele><time>2026-05-03T07:25:03.364Z</time></trkpt><trkpt lat="41.602809" lon="13.0995454"><ele>506.6666666666667</ele><time>2026-05-03T07:25:04.369Z</time></trkpt><trkpt lat="41.6028732" lon="13.0995494"><ele>505.33333333333337</ele><time>2026-05-03T07:25:05.363Z</time></trkpt><trkpt lat="41.6029517" lon="13.099538"><ele>504.0</ele><time>2026-05-03T07:25:06.372Z</time></trkpt><trkpt lat="41.6030353" lon="13.0995043"><ele>502.66666666666663</ele><time>2026-05-03T07:25:07.367Z</time></trkpt><trkpt lat="41.6031218" lon="13.0994628"><ele>501.3333333333333</ele><time>2026-05-03T07:25:08.366Z</time></trkpt><trkpt lat="41.6032136" lon="13.0994025"><ele>500.0</ele><time>2026-05-03T07:25:09.369Z</time></trkpt><trkpt lat="41.6033079" lon="13.0993344"><ele>500.0</ele><time>2026-05-03T07:25:10.363Z</time></trkpt><trkpt lat="41.6033925" lon="13.0992467"><ele>500.0</ele><time>2026-05-03T07:25:11.368Z</time></trkpt><trkpt lat="41.6034782" lon="13.0991234"><ele>500.0</ele><time>2026-05-03T07:25:12.37Z</time></trkpt><trkpt lat="41.6035726" lon="13.0989742"><ele>500.0</ele><time>2026-05-03T07:25:13.374Z</time></trkpt><trkpt lat="41.6036648" lon="13.0988311"><ele>498.2</ele><time>2026-05-03T07:25:14.372Z</time></trkpt><trkpt lat="41.6037523" lon="13.098711"><ele>496.4</ele><time>2026-05-03T07:25:15.364Z</time></trkpt><trkpt lat="41.6038355" lon="13.0986089"><ele>494.6</ele><time>2026-05-03T07:25:16.372Z</time></trkpt><trkpt lat="41.6039242" lon="13.098527"><ele>492.8</ele><time>2026-05-03T07:25:17.368Z</time></trkpt><trkpt lat="41.6040074" lon="13.098462"><ele>491.0</ele><time>2026-05-03T07:25:18.367Z</time></trkpt><trkpt lat="41.6040891" lon="13.0984058"><ele>491.0</ele><time>2026-05-03T07:25:19.374Z</time></trkpt><trkpt lat="41.6041667" lon="13.0983339"><ele>491.0</ele><time>2026-05-03T07:25:20.364Z</time></trkpt><trkpt lat="41.6042376" lon="13.0982416"><ele>491.0</ele><time>2026-05-03T07:25:21.368Z</time></trkpt><trkpt lat="41.6043055" lon="13.0981278"><ele>491.0</ele><time>2026-05-03T07:25:22.366Z</time></trkpt><trkpt lat="41.6043842" lon="13.0980096"><ele>491.0</ele><time>2026-05-03T07:25:23.369Z</time></trkpt><trkpt lat="41.6044652" lon="13.0978941"><ele>490.20000000000005</ele><time>2026-05-03T07:25:24.369Z</time></trkpt><trkpt lat="41.6045303" lon="13.0977863"><ele>489.40000000000003</ele><time>2026-05-03T07:25:25.371Z</time></trkpt><trkpt lat="41.6045958" lon="13.0976755"><ele>488.6</ele><time>2026-05-03T07:25:26.366Z</time></trkpt><trkpt lat="41.6046609" lon="13.0975765"><ele>487.8</ele><time>2026-05-03T07:25:27.374Z</time></trkpt><trkpt lat="41.6047449" lon="13.0974845"><ele>487.0</ele><time>2026-05-03T07:25:28.371Z</time></trkpt><trkpt lat="41.6048592" lon="13.0973778"><ele>485.33333333333337</ele><time>2026-05-03T07:25:29.356Z</time></trkpt><trkpt lat="41.6049825" lon="13.0972621"><ele>483.66666666666663</ele><time>2026-05-03T07:25:30.37Z</time></trkpt><trkpt lat="41.6051114" lon="13.0971379"><ele>482.0</ele><time>2026-05-03T07:25:31.372Z</time></trkpt><trkpt lat="41.6052519" lon="13.0970355"><ele>481.5</ele><time>2026-05-03T07:25:32.37Z</time></trkpt><trkpt lat="41.6053821" lon="13.0969474"><ele>481.0</ele><time>2026-05-03T07:25:33.371Z</time></trkpt><trkpt lat="41.6055042" lon="13.0968602"><ele>480.5</ele><time>2026-05-03T07:25:34.372Z</time></trkpt><trkpt lat="41.6056034" lon="13.0967722"><ele>480.0</ele><time>2026-05-03T07:25:35.366Z</time></trkpt><trkpt lat="41.6056838" lon="13.0966767"><ele>478.4</ele><time>2026-05-03T07:25:36.387Z</time></trkpt><trkpt lat="41.6057418" lon="13.0965724"><ele>476.8</ele><time>2026-05-03T07:25:37.371Z</time></trkpt><trkpt lat="41.6057746" lon="13.0964657"><ele>475.20000000000005</ele><time>2026-05-03T07:25:38.374Z</time></trkpt><trkpt lat="41.6058035" lon="13.0963259"><ele>473.6</ele><time>2026-05-03T07:25:39.368Z</time></trkpt><trkpt lat="41.6058365" lon="13.0961818"><ele>472.0</ele><time>2026-05-03T07:25:40.37Z</time></trkpt><trkpt lat="41.6059049" lon="13.0960212"><ele>472.0</ele><time>2026-05-03T07:25:41.365Z</time></trkpt><trkpt lat="41.6059696" lon="13.095876"><ele>472.00000000000006</ele><time>2026-05-03T07:25:42.364Z</time></trkpt><trkpt lat="41.6060406" lon="13.0957458"><ele>472.00000000000006</ele><time>2026-05-03T07:25:43.368Z</time></trkpt><trkpt lat="41.6061067" lon="13.0956312"><ele>472.0</ele><time>2026-05-03T07:25:44.366Z</time></trkpt><trkpt lat="41.6061481" lon="13.0955252"><ele>472.0</ele><time>2026-05-03T07:25:45.373Z</time></trkpt><trkpt lat="41.6061741" lon="13.0954075"><ele>471.40000000000003</ele><time>2026-05-03T07:25:46.365Z</time></trkpt><trkpt lat="41.6061729" lon="13.0952836"><ele>470.80000000000007</ele><time>2026-05-03T07:25:47.367Z</time></trkpt><trkpt lat="41.606153" lon="13.0951608"><ele>470.2</ele><time>2026-05-03T07:25:48.367Z</time></trkpt><trkpt lat="41.6061274" lon="13.0950339"><ele>469.6</ele><time>2026-05-03T07:25:49.368Z</time></trkpt><trkpt lat="41.6061075" lon="13.0949033"><ele>469.0</ele><time>2026-05-03T07:25:50.359Z</time></trkpt><trkpt lat="41.6061034" lon="13.0947612"><ele>467.79999999999995</ele><time>2026-05-03T07:25:51.366Z</time></trkpt><trkpt lat="41.6061155" lon="13.0946203"><ele>466.59999999999997</ele><time>2026-05-03T07:25:52.372Z</time></trkpt><trkpt lat="41.6061429" lon="13.0944809"><ele>465.4</ele><time>2026-05-03T07:25:53.367Z</time></trkpt><trkpt lat="41.6061665" lon="13.0943515"><ele>464.2</ele><time>2026-05-03T07:25:54.365Z</time></trkpt><trkpt lat="41.6061895" lon="13.0942333"><ele>463.0</ele><time>2026-05-03T07:25:55.366Z</time></trkpt><trkpt lat="41.6062094" lon="13.0941394"><ele>462.33333333333337</ele><time>2026-05-03T07:25:56.375Z</time></trkpt><trkpt lat="41.6062256" lon="13.0940545"><ele>461.6666666666667</ele><time>2026-05-03T07:25:57.366Z</time></trkpt><trkpt lat="41.6062505" lon="13.0939238"><ele>461.0</ele><time>2026-05-03T07:25:59.358Z</time></trkpt><trkpt lat="41.6062781" lon="13.0937774"><ele>460.33333333333337</ele><time>2026-05-03T07:26:01.371Z</time></trkpt><trkpt lat="41.6063019" lon="13.0936779"><ele>459.6666666666667</ele><time>2026-05-03T07:26:02.37Z</time></trkpt><trkpt lat="41.6063287" lon="13.0935789"><ele>459.0</ele><time>2026-05-03T07:26:03.372Z</time></trkpt><trkpt lat="41.6063652" lon="13.0934808"><ele>459.0</ele><time>2026-05-03T07:26:04.369Z</time></trkpt><trkpt lat="41.6064219" lon="13.0933663"><ele>459.0</ele><time>2026-05-03T07:26:05.374Z</time></trkpt><trkpt lat="41.606478" lon="13.0932504"><ele>459.0</ele><time>2026-05-03T07:26:06.379Z</time></trkpt><trkpt lat="41.6065567" lon="13.0931256"><ele>459.0</ele><time>2026-05-03T07:26:07.37Z</time></trkpt><trkpt lat="41.606646" lon="13.0930055"><ele>458.0</ele><time>2026-05-03T07:26:08.369Z</time></trkpt><trkpt lat="41.6067405" lon="13.0928869"><ele>457.0</ele><time>2026-05-03T07:26:09.372Z</time></trkpt><trkpt lat="41.6068388" lon="13.0927636"><ele>456.0</ele><time>2026-05-03T07:26:10.371Z</time></trkpt><trkpt lat="41.6069346" lon="13.0926486"><ele>455.0</ele><time>2026-05-03T07:26:11.364Z</time></trkpt><trkpt lat="41.6070318" lon="13.092527"><ele>453.75</ele><time>2026-05-03T07:26:12.375Z</time></trkpt><trkpt lat="41.6071282" lon="13.0924087"><ele>452.5</ele><time>2026-05-03T07:26:13.369Z</time></trkpt><trkpt lat="41.6072228" lon="13.0922996"><ele>451.25</ele><time>2026-05-03T07:26:14.366Z</time></trkpt><trkpt lat="41.6073215" lon="13.09219"><ele>450.0</ele><time>2026-05-03T07:26:15.37Z</time></trkpt><trkpt lat="41.6074253" lon="13.092081"><ele>450.0</ele><time>2026-05-03T07:26:16.373Z</time></trkpt><trkpt lat="41.6075248" lon="13.0919673"><ele>450.0</ele><time>2026-05-03T07:26:17.366Z</time></trkpt><trkpt lat="41.6076201" lon="13.0918458"><ele>450.0</ele><time>2026-05-03T07:26:18.366Z</time></trkpt><trkpt lat="41.6077162" lon="13.0917287"><ele>450.0</ele><time>2026-05-03T07:26:19.365Z</time></trkpt><trkpt lat="41.6078176" lon="13.0916259"><ele>449.0</ele><time>2026-05-03T07:26:20.368Z</time></trkpt><trkpt lat="41.6079253" lon="13.0915407"><ele>448.0</ele><time>2026-05-03T07:26:21.364Z</time></trkpt><trkpt lat="41.6080336" lon="13.0914575"><ele>447.0</ele><time>2026-05-03T07:26:22.363Z</time></trkpt><trkpt lat="41.6081322" lon="13.0913886"><ele>446.0</ele><time>2026-05-03T07:26:23.364Z</time></trkpt><trkpt lat="41.6082174" lon="13.0913191"><ele>446.0</ele><time>2026-05-03T07:26:24.372Z</time></trkpt><trkpt lat="41.6082881" lon="13.0912259"><ele>446.0</ele><time>2026-05-03T07:26:25.366Z</time></trkpt><trkpt lat="41.6083456" lon="13.0911187"><ele>446.0</ele><time>2026-05-03T07:26:26.373Z</time></trkpt><trkpt lat="41.60839" lon="13.090992"><ele>446.0</ele><time>2026-05-03T07:26:27.37Z</time></trkpt><trkpt lat="41.6084101" lon="13.0908598"><ele>446.0</ele><time>2026-05-03T07:26:28.379Z</time></trkpt><trkpt lat="41.6084076" lon="13.0907392"><ele>445.6</ele><time>2026-05-03T07:26:29.38Z</time></trkpt><trkpt lat="41.6083793" lon="13.0906132"><ele>445.20000000000005</ele><time>2026-05-03T07:26:30.368Z</time></trkpt><trkpt lat="41.6083433" lon="13.0904711"><ele>444.79999999999995</ele><time>2026-05-03T07:26:31.373Z</time></trkpt><trkpt lat="41.6083226" lon="13.0903218"><ele>444.4</ele><time>2026-05-03T07:26:32.365Z</time></trkpt><trkpt lat="41.6083216" lon="13.0901808"><ele>444.0</ele><time>2026-05-03T07:26:33.387Z</time></trkpt><trkpt lat="41.6083352" lon="13.0900334"><ele>443.75</ele><time>2026-05-03T07:26:34.369Z</time></trkpt><trkpt lat="41.6083641" lon="13.0898737"><ele>443.5</ele><time>2026-05-03T07:26:35.369Z</time></trkpt><trkpt lat="41.6084078" lon="13.0897"><ele>443.25</ele><time>2026-05-03T07:26:36.382Z</time></trkpt><trkpt lat="41.608455" lon="13.0895197"><ele>443.0</ele><time>2026-05-03T07:26:37.372Z</time></trkpt><trkpt lat="41.6084967" lon="13.0893467"><ele>443.0</ele><time>2026-05-03T07:26:38.378Z</time></trkpt><trkpt lat="41.6085407" lon="13.0891861"><ele>443.0</ele><time>2026-05-03T07:26:39.368Z</time></trkpt><trkpt lat="41.6085903" lon="13.0890091"><ele>443.0</ele><time>2026-05-03T07:26:40.366Z</time></trkpt><trkpt lat="41.6086557" lon="13.0888455"><ele>443.0</ele><time>2026-05-03T07:26:41.366Z</time></trkpt><trkpt lat="41.6087306" lon="13.088683"><ele>442.0</ele><time>2026-05-03T07:26:42.374Z</time></trkpt><trkpt lat="41.6088075" lon="13.0885262"><ele>441.0</ele><time>2026-05-03T07:26:43.368Z</time></trkpt><trkpt lat="41.6088778" lon="13.088387"><ele>440.0</ele><time>2026-05-03T07:26:44.367Z</time></trkpt><trkpt lat="41.6089491" lon="13.0882647"><ele>439.0</ele><time>2026-05-03T07:26:45.375Z</time></trkpt><trkpt lat="41.6090263" lon="13.0881603"><ele>442.25</ele><time>2026-05-03T07:26:46.366Z</time></trkpt><trkpt lat="41.6091188" lon="13.0880663"><ele>445.5</ele><time>2026-05-03T07:26:47.375Z</time></trkpt><trkpt lat="41.6092236" lon="13.0879839"><ele>448.75</ele><time>2026-05-03T07:26:48.367Z</time></trkpt><trkpt lat="41.6093391" lon="13.0879149"><ele>452.0</ele><time>2026-05-03T07:26:49.367Z</time></trkpt><trkpt lat="41.6094685" lon="13.0878574"><ele>448.25</ele><time>2026-05-03T07:26:50.379Z</time></trkpt><trkpt lat="41.609593" lon="13.0877993"><ele>444.5</ele><time>2026-05-03T07:26:51.373Z</time></trkpt><trkpt lat="41.6097127" lon="13.0877418"><ele>440.75</ele><time>2026-05-03T07:26:52.368Z</time></trkpt><trkpt lat="41.6098226" lon="13.0876794"><ele>437.0</ele><time>2026-05-03T07:26:53.376Z</time></trkpt><trkpt lat="41.6099412" lon="13.0876258"><ele>437.0</ele><time>2026-05-03T07:26:54.364Z</time></trkpt><trkpt lat="41.6100654" lon="13.0875839"><ele>437.0</ele><time>2026-05-03T07:26:55.375Z</time></trkpt><trkpt lat="41.6101905" lon="13.0875529"><ele>437.0</ele><time>2026-05-03T07:26:56.366Z</time></trkpt><trkpt lat="41.6103182" lon="13.0875255"><ele>437.0</ele><time>2026-05-03T07:26:57.367Z</time></trkpt><trkpt lat="41.6104422" lon="13.0874893"><ele>436.0</ele><time>2026-05-03T07:26:58.375Z</time></trkpt><trkpt lat="41.6105478" lon="13.0874442"><ele>435.00000000000006</ele><time>2026-05-03T07:26:59.365Z</time></trkpt><trkpt lat="41.6106458" lon="13.0873816"><ele>434.00000000000006</ele><time>2026-05-03T07:27:00.375Z</time></trkpt><trkpt lat="41.6107353" lon="13.0873095"><ele>433.0</ele><time>2026-05-03T07:27:01.373Z</time></trkpt><trkpt lat="41.6108238" lon="13.0872485"><ele>432.0</ele><time>2026-05-03T07:27:02.366Z</time></trkpt><trkpt lat="41.6109231" lon="13.0872232"><ele>432.1666666666667</ele><time>2026-05-03T07:27:03.375Z</time></trkpt><trkpt lat="41.6110137" lon="13.0872208"><ele>432.33333333333337</ele><time>2026-05-03T07:27:04.365Z</time></trkpt><trkpt lat="41.6111066" lon="13.0872281"><ele>432.5</ele><time>2026-05-03T07:27:05.373Z</time></trkpt><trkpt lat="41.6111926" lon="13.0872296"><ele>432.6666666666667</ele><time>2026-05-03T07:27:06.364Z</time></trkpt><trkpt lat="41.6112597" lon="13.0872099"><ele>432.83333333333337</ele><time>2026-05-03T07:27:07.367Z</time></trkpt><trkpt lat="41.6113168" lon="13.0871684"><ele>433.0</ele><time>2026-05-03T07:27:08.369Z</time></trkpt><trkpt lat="41.6113808" lon="13.0870978"><ele>433.0</ele><time>2026-05-03T07:27:09.364Z</time></trkpt><trkpt lat="41.6114594" lon="13.087006"><ele>432.99999999999994</ele><time>2026-05-03T07:27:10.371Z</time></trkpt><trkpt lat="41.6115473" lon="13.0869281"><ele>432.99999999999994</ele><time>2026-05-03T07:27:11.379Z</time></trkpt><trkpt lat="41.6116302" lon="13.0868513"><ele>433.0</ele><time>2026-05-03T07:27:12.366Z</time></trkpt><trkpt lat="41.6117002" lon="13.0867602"><ele>433.0</ele><time>2026-05-03T07:27:13.374Z</time></trkpt><trkpt lat="41.6117443" lon="13.0866648"><ele>435.4</ele><time>2026-05-03T07:27:14.364Z</time></trkpt><trkpt lat="41.6117687" lon="13.0865435"><ele>437.79999999999995</ele><time>2026-05-03T07:27:15.37Z</time></trkpt><trkpt lat="41.6117779" lon="13.0863898"><ele>440.2</ele><time>2026-05-03T07:27:16.368Z</time></trkpt><trkpt lat="41.6117799" lon="13.0862269"><ele>442.6</ele><time>2026-05-03T07:27:17.369Z</time></trkpt><trkpt lat="41.6117675" lon="13.0860701"><ele>445.0</ele><time>2026-05-03T07:27:18.371Z</time></trkpt><trkpt lat="41.6117642" lon="13.0859066"><ele>446.5</ele><time>2026-05-03T07:27:19.368Z</time></trkpt><trkpt lat="41.6117803" lon="13.0857401"><ele>448.0</ele><time>2026-05-03T07:27:20.365Z</time></trkpt><trkpt lat="41.6118024" lon="13.085557"><ele>449.5</ele><time>2026-05-03T07:27:21.372Z</time></trkpt><trkpt lat="41.6118182" lon="13.0853894"><ele>451.0</ele><time>2026-05-03T07:27:22.367Z</time></trkpt><trkpt lat="41.6118165" lon="13.0852206"><ele>451.0</ele><time>2026-05-03T07:27:23.381Z</time></trkpt><trkpt lat="41.6118065" lon="13.0850637"><ele>451.0</ele><time>2026-05-03T07:27:24.378Z</time></trkpt><trkpt lat="41.611791" lon="13.084942"><ele>451.0</ele><time>2026-05-03T07:27:25.374Z</time></trkpt><trkpt lat="41.6117651" lon="13.0848269"><ele>451.0</ele><time>2026-05-03T07:27:26.362Z</time></trkpt><trkpt lat="41.6117179" lon="13.0847269"><ele>451.0</ele><time>2026-05-03T07:27:27.38Z</time></trkpt><trkpt lat="41.6116498" lon="13.0846206"><ele>451.0</ele><time>2026-05-03T07:27:28.377Z</time></trkpt><trkpt lat="41.6115745" lon="13.0845187"><ele>451.0</ele><time>2026-05-03T07:27:29.364Z</time></trkpt><trkpt lat="41.6114964" lon="13.0844217"><ele>451.0</ele><time>2026-05-03T07:27:30.385Z</time></trkpt><trkpt lat="41.611431" lon="13.0843115"><ele>451.0</ele><time>2026-05-03T07:27:31.376Z</time></trkpt><trkpt lat="41.6113909" lon="13.0841957"><ele>451.0</ele><time>2026-05-03T07:27:32.381Z</time></trkpt><trkpt lat="41.6113708" lon="13.0840813"><ele>451.8</ele><time>2026-05-03T07:27:33.379Z</time></trkpt><trkpt lat="41.611372" lon="13.0839495"><ele>452.6</ele><time>2026-05-03T07:27:34.376Z</time></trkpt><trkpt lat="41.6113817" lon="13.0838008"><ele>453.4</ele><time>2026-05-03T07:27:35.37Z</time></trkpt><trkpt lat="41.6113961" lon="13.08364"><ele>454.2</ele><time>2026-05-03T07:27:36.368Z</time></trkpt><trkpt lat="41.611419" lon="13.0834992"><ele>455.0</ele><time>2026-05-03T07:27:37.384Z</time></trkpt><trkpt lat="41.6114385" lon="13.0833842"><ele>454.99999999999994</ele><time>2026-05-03T07:27:38.367Z</time></trkpt><trkpt lat="41.6114442" lon="13.0832878"><ele>455.0</ele><time>2026-05-03T07:27:39.368Z</time></trkpt><trkpt lat="41.6114357" lon="13.0831884"><ele>455.0</ele><time>2026-05-03T07:27:40.378Z</time></trkpt><trkpt lat="41.6114036" lon="13.0830939"><ele>455.0</ele><time>2026-05-03T07:27:41.365Z</time></trkpt><trkpt lat="41.6113524" lon="13.0830061"><ele>454.99999999999994</ele><time>2026-05-03T07:27:42.367Z</time></trkpt><trkpt lat="41.6112928" lon="13.0829416"><ele>455.0</ele><time>2026-05-03T07:27:43.368Z</time></trkpt><trkpt lat="41.6112246" lon="13.0828899"><ele>457.4</ele><time>2026-05-03T07:27:44.366Z</time></trkpt><trkpt lat="41.6111403" lon="13.0828349"><ele>459.8</ele><time>2026-05-03T07:27:45.371Z</time></trkpt><trkpt lat="41.6110447" lon="13.0827782"><ele>462.20000000000005</ele><time>2026-05-03T07:27:46.365Z</time></trkpt><trkpt lat="41.6109459" lon="13.0827171"><ele>464.6</ele><time>2026-05-03T07:27:47.378Z</time></trkpt><trkpt lat="41.6108556" lon="13.0826481"><ele>467.0</ele><time>2026-05-03T07:27:48.367Z</time></trkpt><trkpt lat="41.610766" lon="13.0825823"><ele>467.0</ele><time>2026-05-03T07:27:49.378Z</time></trkpt><trkpt lat="41.6106696" lon="13.0825405"><ele>467.00000000000006</ele><time>2026-05-03T07:27:50.37Z</time></trkpt><trkpt lat="41.6105641" lon="13.0825115"><ele>467.00000000000006</ele><time>2026-05-03T07:27:51.377Z</time></trkpt><trkpt lat="41.6104493" lon="13.0824942"><ele>467.0</ele><time>2026-05-03T07:27:52.365Z</time></trkpt><trkpt lat="41.6103377" lon="13.0824809"><ele>467.0</ele><time>2026-05-03T07:27:53.374Z</time></trkpt><trkpt lat="41.6102302" lon="13.0824512"><ele>468.20000000000005</ele><time>2026-05-03T07:27:54.371Z</time></trkpt><trkpt lat="41.6101245" lon="13.0824142"><ele>469.40000000000003</ele><time>2026-05-03T07:27:55.368Z</time></trkpt><trkpt lat="41.6100203" lon="13.0823758"><ele>470.59999999999997</ele><time>2026-05-03T07:27:56.367Z</time></trkpt><trkpt lat="41.6099254" lon="13.0823489"><ele>471.79999999999995</ele><time>2026-05-03T07:27:57.371Z</time></trkpt><trkpt lat="41.6098395" lon="13.0823275"><ele>473.0</ele><time>2026-05-03T07:27:58.365Z</time></trkpt><trkpt lat="41.6097669" lon="13.082335"><ele>473.0</ele><time>2026-05-03T07:27:59.365Z</time></trkpt><trkpt lat="41.6097001" lon="13.0823796"><ele>472.99999999999994</ele><time>2026-05-03T07:28:00.371Z</time></trkpt><trkpt lat="41.6096349" lon="13.0824646"><ele>472.99999999999994</ele><time>2026-05-03T07:28:01.362Z</time></trkpt><trkpt lat="41.6095876" lon="13.0825621"><ele>473.0</ele><time>2026-05-03T07:28:02.366Z</time></trkpt><trkpt lat="41.6095501" lon="13.0826998"><ele>473.0</ele><time>2026-05-03T07:28:03.375Z</time></trkpt><trkpt lat="41.6095106" lon="13.0828683"><ele>478.25</ele><time>2026-05-03T07:28:04.366Z</time></trkpt><trkpt lat="41.6094614" lon="13.0830655"><ele>483.5</ele><time>2026-05-03T07:28:05.371Z</time></trkpt><trkpt lat="41.6094146" lon="13.0832552"><ele>488.75</ele><time>2026-05-03T07:28:06.371Z</time></trkpt><trkpt lat="41.6093705" lon="13.0834081"><ele>494.0</ele><time>2026-05-03T07:28:07.365Z</time></trkpt><trkpt lat="41.6093349" lon="13.0835365"><ele>494.66666666666663</ele><time>2026-05-03T07:28:08.375Z</time></trkpt><trkpt lat="41.6093137" lon="13.0836345"><ele>495.3333333333333</ele><time>2026-05-03T07:28:09.378Z</time></trkpt><trkpt lat="41.6092825" lon="13.0837098"><ele>496.0</ele><time>2026-05-03T07:28:10.368Z</time></trkpt><trkpt lat="41.609178" lon="13.0837699"><ele>496.66666666666663</ele><time>2026-05-03T07:28:12.373Z</time></trkpt><trkpt lat="41.6091145" lon="13.0837501"><ele>497.3333333333333</ele><time>2026-05-03T07:28:13.373Z</time></trkpt><trkpt lat="41.6090578" lon="13.0836968"><ele>498.0</ele><time>2026-05-03T07:28:14.371Z</time></trkpt><trkpt lat="41.6090215" lon="13.0836187"><ele>498.0</ele><time>2026-05-03T07:28:15.369Z</time></trkpt><trkpt lat="41.609002" lon="13.0835101"><ele>497.99999999999994</ele><time>2026-05-03T07:28:16.366Z</time></trkpt><trkpt lat="41.6090136" lon="13.0833583"><ele>497.99999999999994</ele><time>2026-05-03T07:28:17.367Z</time></trkpt><trkpt lat="41.6090308" lon="13.083208"><ele>498.0</ele><time>2026-05-03T07:28:18.364Z</time></trkpt><trkpt lat="41.6090387" lon="13.0830807"><ele>498.0</ele><time>2026-05-03T07:28:19.366Z</time></trkpt><trkpt lat="41.609036" lon="13.0829714"><ele>497.2</ele><time>2026-05-03T07:28:20.368Z</time></trkpt><trkpt lat="41.6090163" lon="13.0828773"><ele>496.4</ele><time>2026-05-03T07:28:21.37Z</time></trkpt><trkpt lat="41.6089516" lon="13.0827836"><ele>495.59999999999997</ele><time>2026-05-03T07:28:23.369Z</time></trkpt><trkpt lat="41.6088429" lon="13.0828315"><ele>494.79999999999995</ele><time>2026-05-03T07:28:25.365Z</time></trkpt><trkpt lat="41.6087911" lon="13.0829065"><ele>494.0</ele><time>2026-05-03T07:28:26.372Z</time></trkpt><trkpt lat="41.6087435" lon="13.083011"><ele>494.0</ele><time>2026-05-03T07:28:27.372Z</time></trkpt><trkpt lat="41.6086916" lon="13.083158"><ele>494.0</ele><time>2026-05-03T07:28:28.37Z</time></trkpt><trkpt lat="41.6086547" lon="13.0833091"><ele>494.0</ele><time>2026-05-03T07:28:29.368Z</time></trkpt><trkpt lat="41.6086235" lon="13.0834596"><ele>494.0</ele><time>2026-05-03T07:28:30.369Z</time></trkpt><trkpt lat="41.6085847" lon="13.0835788"><ele>497.99999999999994</ele><time>2026-05-03T07:28:31.365Z</time></trkpt><trkpt lat="41.6085527" lon="13.083683"><ele>502.0</ele><time>2026-05-03T07:28:32.376Z</time></trkpt><trkpt lat="41.6084838" lon="13.0837113"><ele>506.0</ele><time>2026-05-03T07:28:33.368Z</time></trkpt><trkpt lat="41.6084159" lon="13.0837314"><ele>510.0</ele><time>2026-05-03T07:28:34.368Z</time></trkpt><trkpt lat="41.6083505" lon="13.0837186"><ele>514.0</ele><time>2026-05-03T07:28:35.37Z</time></trkpt><trkpt lat="41.608286" lon="13.0836645"><ele>518.0</ele><time>2026-05-03T07:28:36.365Z</time></trkpt><trkpt lat="41.608215" lon="13.0835879"><ele>518.0</ele><time>2026-05-03T07:28:37.367Z</time></trkpt><trkpt lat="41.6081353" lon="13.0835244"><ele>518.0</ele><time>2026-05-03T07:28:38.371Z</time></trkpt><trkpt lat="41.6080354" lon="13.0834694"><ele>518.0</ele><time>2026-05-03T07:28:39.365Z</time></trkpt><trkpt lat="41.6079108" lon="13.0834159"><ele>518.0</ele><time>2026-05-03T07:28:40.365Z</time></trkpt><trkpt lat="41.6077722" lon="13.0833576"><ele>520.75</ele><time>2026-05-03T07:28:41.365Z</time></trkpt><trkpt lat="41.607645" lon="13.0833075"><ele>523.5</ele><time>2026-05-03T07:28:42.374Z</time></trkpt><trkpt lat="41.6075246" lon="13.0832776"><ele>526.25</ele><time>2026-05-03T07:28:43.373Z</time></trkpt><trkpt lat="41.6073885" lon="13.0832748"><ele>529.0</ele><time>2026-05-03T07:28:44.366Z</time></trkpt><trkpt lat="41.607251" lon="13.0832772"><ele>529.0</ele><time>2026-05-03T07:28:45.376Z</time></trkpt><trkpt lat="41.6071064" lon="13.0832938"><ele>529.0</ele><time>2026-05-03T07:28:46.365Z</time></trkpt><trkpt lat="41.6069721" lon="13.0833095"><ele>529.0</ele><time>2026-05-03T07:28:47.368Z</time></trkpt><trkpt lat="41.6068509" lon="13.0833207"><ele>529.0</ele><time>2026-05-03T07:28:48.367Z</time></trkpt><trkpt lat="41.6067484" lon="13.0833411"><ele>530.5</ele><time>2026-05-03T07:28:49.367Z</time></trkpt><trkpt lat="41.6066674" lon="13.0833499"><ele>532.0</ele><time>2026-05-03T07:28:50.366Z</time></trkpt><trkpt lat="41.6066035" lon="13.0833602"><ele>533.5</ele><time>2026-05-03T07:28:51.372Z</time></trkpt><trkpt lat="41.6065077" lon="13.0833512"><ele>535.0</ele><time>2026-05-03T07:28:53.374Z</time></trkpt><trkpt lat="41.6064177" lon="13.0833497"><ele>536.5</ele><time>2026-05-03T07:28:55.368Z</time></trkpt><trkpt lat="41.606322" lon="13.0833593"><ele>538.0</ele><time>2026-05-03T07:28:57.366Z</time></trkpt><trkpt lat="41.606232" lon="13.083408"><ele>538.0</ele><time>2026-05-03T07:28:59.372Z</time></trkpt><trkpt lat="41.6061686" lon="13.0834483"><ele>538.0</ele><time>2026-05-03T07:29:00.366Z</time></trkpt><trkpt lat="41.606105" lon="13.0834901"><ele>538.0</ele><time>2026-05-03T07:29:01.366Z</time></trkpt><trkpt lat="41.6060292" lon="13.0835373"><ele>538.0</ele><time>2026-05-03T07:29:02.372Z</time></trkpt><trkpt lat="41.6059434" lon="13.0835914"><ele>538.0</ele><time>2026-05-03T07:29:03.363Z</time></trkpt><trkpt lat="41.6058644" lon="13.0836406"><ele>538.0</ele><time>2026-05-03T07:29:04.375Z</time></trkpt><trkpt lat="41.6058035" lon="13.0836756"><ele>537.6666666666667</ele><time>2026-05-03T07:29:05.366Z</time></trkpt><trkpt lat="41.6057557" lon="13.0836192"><ele>537.3333333333334</ele><time>2026-05-03T07:29:09.375Z</time></trkpt><trkpt lat="41.6057174" lon="13.0835258"><ele>537.0</ele><time>2026-05-03T07:29:11.363Z</time></trkpt><trkpt lat="41.6056254" lon="13.083456"><ele>536.6666666666666</ele><time>2026-05-03T07:29:13.371Z</time></trkpt><trkpt lat="41.6055332" lon="13.0834852"><ele>536.3333333333333</ele><time>2026-05-03T07:29:15.365Z</time></trkpt><trkpt lat="41.6054785" lon="13.0835989"><ele>536.0</ele><time>2026-05-03T07:29:17.365Z</time></trkpt><trkpt lat="41.6054637" lon="13.0837247"><ele>536.0</ele><time>2026-05-03T07:29:19.366Z</time></trkpt><trkpt lat="41.6055566" lon="13.0837796"><ele>536.0</ele><time>2026-05-03T07:29:21.378Z</time></trkpt><trkpt lat="41.6056397" lon="13.0837603"><ele>536.0</ele><time>2026-05-03T07:29:23.382Z</time></trkpt><trkpt lat="41.6056951" lon="13.0837201"><ele>536.0</ele><time>2026-05-03T07:29:25.373Z</time></trkpt><trkpt lat="41.6057075" lon="13.0836245"><ele>536.0</ele><time>2026-05-03T07:29:28.379Z</time></trkpt><trkpt lat="41.6056643" lon="13.0835153"><ele>536.0</ele><time>2026-05-03T07:29:43.368Z</time></trkpt><trkpt lat="41.6056202" lon="13.0834101"><ele>536.0</ele><time>2026-05-03T07:29:45.366Z</time></trkpt><trkpt lat="41.6056009" lon="13.0833038"><ele>536.0</ele><time>2026-05-03T07:29:46.373Z</time></trkpt><trkpt lat="41.6055884" lon="13.0831829"><ele>536.0</ele><time>2026-05-03T07:29:47.373Z</time></trkpt><trkpt lat="41.6055769" lon="13.0830398"><ele>536.0</ele><time>2026-05-03T07:29:48.374Z</time></trkpt><trkpt lat="41.6055518" lon="13.0829149"><ele>536.0</ele><time>2026-05-03T07:29:49.369Z</time></trkpt><trkpt lat="41.6055069" lon="13.0827941"><ele>535.2</ele><time>2026-05-03T07:29:50.366Z</time></trkpt><trkpt lat="41.6054608" lon="13.0827049"><ele>534.4000000000001</ele><time>2026-05-03T07:29:51.363Z</time></trkpt><trkpt lat="41.6053856" lon="13.0826041"><ele>533.6</ele><time>2026-05-03T07:29:53.369Z</time></trkpt><trkpt lat="41.6053232" lon="13.0824636"><ele>532.8000000000001</ele><time>2026-05-03T07:29:55.37Z</time></trkpt><trkpt lat="41.6053029" lon="13.0823631"><ele>532.0</ele><time>2026-05-03T07:29:56.373Z</time></trkpt><trkpt lat="41.6052914" lon="13.0822417"><ele>532.2</ele><time>2026-05-03T07:29:57.363Z</time></trkpt><trkpt lat="41.6052921" lon="13.0821156"><ele>532.4000000000001</ele><time>2026-05-03T07:29:58.37Z</time></trkpt><trkpt lat="41.6053111" lon="13.0819887"><ele>532.5999999999999</ele><time>2026-05-03T07:29:59.365Z</time></trkpt><trkpt lat="41.6053471" lon="13.0818633"><ele>532.8</ele><time>2026-05-03T07:30:00.379Z</time></trkpt><trkpt lat="41.6053968" lon="13.0817506"><ele>533.0</ele><time>2026-05-03T07:30:01.374Z</time></trkpt><trkpt lat="41.6054532" lon="13.0816224"><ele>534.75</ele><time>2026-05-03T07:30:02.376Z</time></trkpt><trkpt lat="41.6055095" lon="13.0814972"><ele>536.5</ele><time>2026-05-03T07:30:03.365Z</time></trkpt><trkpt lat="41.6055726" lon="13.0813657"><ele>538.25</ele><time>2026-05-03T07:30:04.378Z</time></trkpt><trkpt lat="41.6056341" lon="13.081234"><ele>540.0</ele><time>2026-05-03T07:30:05.374Z</time></trkpt><trkpt lat="41.6056891" lon="13.0811035"><ele>540.0</ele><time>2026-05-03T07:30:06.368Z</time></trkpt><trkpt lat="41.6057444" lon="13.0809723"><ele>540.0</ele><time>2026-05-03T07:30:07.371Z</time></trkpt><trkpt lat="41.6057921" lon="13.0808421"><ele>540.0</ele><time>2026-05-03T07:30:08.375Z</time></trkpt><trkpt lat="41.6058334" lon="13.0807108"><ele>540.0</ele><time>2026-05-03T07:30:09.359Z</time></trkpt><trkpt lat="41.6058726" lon="13.0805747"><ele>540.0</ele><time>2026-05-03T07:30:10.372Z</time></trkpt><trkpt lat="41.6058983" lon="13.0804328"><ele>540.0</ele><time>2026-05-03T07:30:11.373Z</time></trkpt><trkpt lat="41.6059193" lon="13.0802882"><ele>540.0</ele><time>2026-05-03T07:30:12.366Z</time></trkpt><trkpt lat="41.6059423" lon="13.0801511"><ele>540.0</ele><time>2026-05-03T07:30:13.371Z</time></trkpt><trkpt lat="41.6059669" lon="13.0800119"><ele>540.0</ele><time>2026-05-03T07:30:14.364Z</time></trkpt><trkpt lat="41.6059957" lon="13.0798744"><ele>540.0</ele><time>2026-05-03T07:30:15.375Z</time></trkpt><trkpt lat="41.6060318" lon="13.0797415"><ele>540.0</ele><time>2026-05-03T07:30:16.373Z</time></trkpt><trkpt lat="41.6060849" lon="13.079583"><ele>540.0</ele><time>2026-05-03T07:30:17.372Z</time></trkpt><trkpt lat="41.6061462" lon="13.0794117"><ele>540.0</ele><time>2026-05-03T07:30:18.365Z</time></trkpt><trkpt lat="41.606212" lon="13.0792408"><ele>540.0</ele><time>2026-05-03T07:30:19.375Z</time></trkpt><trkpt lat="41.6062791" lon="13.079082"><ele>537.0</ele><time>2026-05-03T07:30:20.364Z</time></trkpt><trkpt lat="41.6063487" lon="13.078921"><ele>534.0</ele><time>2026-05-03T07:30:21.373Z</time></trkpt><trkpt lat="41.6064057" lon="13.0787738"><ele>531.0</ele><time>2026-05-03T07:30:22.367Z</time></trkpt><trkpt lat="41.6064654" lon="13.0786334"><ele>528.0</ele><time>2026-05-03T07:30:23.372Z</time></trkpt><trkpt lat="41.6065303" lon="13.078485"><ele>528.0</ele><time>2026-05-03T07:30:24.37Z</time></trkpt><trkpt lat="41.6065952" lon="13.0783439"><ele>528.0</ele><time>2026-05-03T07:30:25.372Z</time></trkpt><trkpt lat="41.6066509" lon="13.0782027"><ele>528.0</ele><time>2026-05-03T07:30:26.372Z</time></trkpt><trkpt lat="41.6066912" lon="13.0780519"><ele>528.0</ele><time>2026-05-03T07:30:27.378Z</time></trkpt><trkpt lat="41.6067021" lon="13.0778877"><ele>527.0</ele><time>2026-05-03T07:30:28.375Z</time></trkpt><trkpt lat="41.6066875" lon="13.0777089"><ele>526.0</ele><time>2026-05-03T07:30:29.366Z</time></trkpt><trkpt lat="41.6066505" lon="13.0775277"><ele>525.0</ele><time>2026-05-03T07:30:30.371Z</time></trkpt><trkpt lat="41.6066075" lon="13.0773567"><ele>524.0</ele><time>2026-05-03T07:30:31.364Z</time></trkpt><trkpt lat="41.6065693" lon="13.0771821"><ele>522.25</ele><time>2026-05-03T07:30:32.369Z</time></trkpt><trkpt lat="41.6065559" lon="13.0770123"><ele>520.5</ele><time>2026-05-03T07:30:33.374Z</time></trkpt><trkpt lat="41.6065626" lon="13.0768497"><ele>518.75</ele><time>2026-05-03T07:30:34.365Z</time></trkpt><trkpt lat="41.6065921" lon="13.076702"><ele>517.0</ele><time>2026-05-03T07:30:35.374Z</time></trkpt><trkpt lat="41.6066402" lon="13.076593"><ele>512.75</ele><time>2026-05-03T07:30:36.376Z</time></trkpt><trkpt lat="41.6067086" lon="13.0765207"><ele>508.5</ele><time>2026-05-03T07:30:37.378Z</time></trkpt><trkpt lat="41.6068077" lon="13.0764702"><ele>504.25</ele><time>2026-05-03T07:30:38.359Z</time></trkpt><trkpt lat="41.6069534" lon="13.076421"><ele>500.0</ele><time>2026-05-03T07:30:39.362Z</time></trkpt><trkpt lat="41.6071317" lon="13.0763707"><ele>499.66666666666663</ele><time>2026-05-03T07:30:40.362Z</time></trkpt><trkpt lat="41.6073191" lon="13.076321"><ele>499.33333333333337</ele><time>2026-05-03T07:30:41.372Z</time></trkpt><trkpt lat="41.607482" lon="13.0762826"><ele>499.0</ele><time>2026-05-03T07:30:42.364Z</time></trkpt><trkpt lat="41.6076399" lon="13.0762685"><ele>499.0</ele><time>2026-05-03T07:30:43.366Z</time></trkpt><trkpt lat="41.6077851" lon="13.0762879"><ele>499.0</ele><time>2026-05-03T07:30:44.368Z</time></trkpt><trkpt lat="41.6079129" lon="13.0763476"><ele>499.0</ele><time>2026-05-03T07:30:45.37Z</time></trkpt><trkpt lat="41.6080547" lon="13.0764487"><ele>499.0</ele><time>2026-05-03T07:30:46.366Z</time></trkpt><trkpt lat="41.6082052" lon="13.0765659"><ele>500.25</ele><time>2026-05-03T07:30:47.372Z</time></trkpt><trkpt lat="41.6083364" lon="13.0766664"><ele>501.5</ele><time>2026-05-03T07:30:48.374Z</time></trkpt><trkpt lat="41.608453" lon="13.0767535"><ele>502.75</ele><time>2026-05-03T07:30:49.368Z</time></trkpt><trkpt lat="41.6085577" lon="13.0768103"><ele>504.0</ele><time>2026-05-03T07:30:50.362Z</time></trkpt><trkpt lat="41.6086548" lon="13.076822"><ele>501.2</ele><time>2026-05-03T07:30:51.365Z</time></trkpt><trkpt lat="41.6087423" lon="13.0767885"><ele>498.4</ele><time>2026-05-03T07:30:52.376Z</time></trkpt><trkpt lat="41.6088168" lon="13.0767049"><ele>495.6</ele><time>2026-05-03T07:30:53.368Z</time></trkpt><trkpt lat="41.6088702" lon="13.0765826"><ele>492.8</ele><time>2026-05-03T07:30:54.37Z</time></trkpt><trkpt lat="41.6088937" lon="13.0764244"><ele>490.0</ele><time>2026-05-03T07:30:55.367Z</time></trkpt><trkpt lat="41.6088872" lon="13.0762395"><ele>489.75</ele><time>2026-05-03T07:30:56.379Z</time></trkpt><trkpt lat="41.6088645" lon="13.0760371"><ele>489.5</ele><time>2026-05-03T07:30:57.369Z</time></trkpt><trkpt lat="41.6088406" lon="13.0758335"><ele>489.25</ele><time>2026-05-03T07:30:58.368Z</time></trkpt><trkpt lat="41.608867" lon="13.0756606"><ele>489.0</ele><time>2026-05-03T07:30:59.365Z</time></trkpt><trkpt lat="41.6088914" lon="13.0754834"><ele>488.0</ele><time>2026-05-03T07:31:00.374Z</time></trkpt><trkpt lat="41.6089425" lon="13.0753113"><ele>487.0</ele><time>2026-05-03T07:31:01.364Z</time></trkpt><trkpt lat="41.6090295" lon="13.0751292"><ele>486.0</ele><time>2026-05-03T07:31:02.363Z</time></trkpt><trkpt lat="41.6091269" lon="13.0749207"><ele>483.0</ele><time>2026-05-03T07:31:03.367Z</time></trkpt><trkpt lat="41.6093255" lon="13.074633"><ele>480.0</ele><time>2026-05-03T07:31:04.369Z</time></trkpt><trkpt lat="41.6094813" lon="13.0743901"><ele>480.0</ele><time>2026-05-03T07:31:05.376Z</time></trkpt><trkpt lat="41.6096265" lon="13.0741732"><ele>480.0</ele><time>2026-05-03T07:31:06.365Z</time></trkpt><trkpt lat="41.6097431" lon="13.0740005"><ele>480.0</ele><time>2026-05-03T07:31:07.377Z</time></trkpt><trkpt lat="41.6098383" lon="13.0738698"><ele>479.4</ele><time>2026-05-03T07:31:08.368Z</time></trkpt><trkpt lat="41.6099233" lon="13.0737798"><ele>478.8</ele><time>2026-05-03T07:31:09.374Z</time></trkpt><trkpt lat="41.6100063" lon="13.0737455"><ele>478.20000000000005</ele><time>2026-05-03T07:31:10.371Z</time></trkpt><trkpt lat="41.6100977" lon="13.0737564"><ele>477.6</ele><time>2026-05-03T07:31:11.375Z</time></trkpt><trkpt lat="41.610172" lon="13.0738133"><ele>477.0</ele><time>2026-05-03T07:31:12.374Z</time></trkpt><trkpt lat="41.6102278" lon="13.073919"><ele>477.0</ele><time>2026-05-03T07:31:13.375Z</time></trkpt><trkpt lat="41.6102575" lon="13.0740621"><ele>477.0</ele><time>2026-05-03T07:31:14.367Z</time></trkpt><trkpt lat="41.6102725" lon="13.0742504"><ele>477.0</ele><time>2026-05-03T07:31:15.364Z</time></trkpt><trkpt lat="41.6102771" lon="13.0744421"><ele>477.0</ele><time>2026-05-03T07:31:16.367Z</time></trkpt><trkpt lat="41.6102805" lon="13.0746043"><ele>477.0</ele><time>2026-05-03T07:31:17.366Z</time></trkpt><trkpt lat="41.6102479" lon="13.0747483"><ele>477.0</ele><time>2026-05-03T07:31:18.368Z</time></trkpt><trkpt lat="41.610189" lon="13.0748855"><ele>477.0</ele><time>2026-05-03T07:31:19.366Z</time></trkpt><trkpt lat="41.6101111" lon="13.0750109"><ele>477.0</ele><time>2026-05-03T07:31:20.368Z</time></trkpt><trkpt lat="41.6100249" lon="13.0751026"><ele>477.0</ele><time>2026-05-03T07:31:21.367Z</time></trkpt><trkpt lat="41.609957" lon="13.0751888"><ele>477.0</ele><time>2026-05-03T07:31:22.368Z</time></trkpt><trkpt lat="41.6099677" lon="13.0752723"><ele>477.0</ele><time>2026-05-03T07:31:23.377Z</time></trkpt><trkpt lat="41.6100441" lon="13.0753924"><ele>477.0</ele><time>2026-05-03T07:31:25.371Z</time></trkpt><trkpt lat="41.6101188" lon="13.0753861"><ele>477.0</ele><time>2026-05-03T07:31:26.365Z</time></trkpt><trkpt lat="41.6101945" lon="13.0753256"><ele>477.0</ele><time>2026-05-03T07:31:27.368Z</time></trkpt><trkpt lat="41.6102754" lon="13.0752186"><ele>474.75</ele><time>2026-05-03T07:31:28.374Z</time></trkpt><trkpt lat="41.6103697" lon="13.075088"><ele>472.5</ele><time>2026-05-03T07:31:29.367Z</time></trkpt><trkpt lat="41.6104521" lon="13.0749304"><ele>470.25</ele><time>2026-05-03T07:31:30.364Z</time></trkpt><trkpt lat="41.6105428" lon="13.0748038"><ele>468.0</ele><time>2026-05-03T07:31:31.366Z</time></trkpt><trkpt lat="41.6106451" lon="13.0747051"><ele>468.0</ele><time>2026-05-03T07:31:32.368Z</time></trkpt><trkpt lat="41.6107731" lon="13.0746241"><ele>468.0</ele><time>2026-05-03T07:31:33.373Z</time></trkpt><trkpt lat="41.6109021" lon="13.0745783"><ele>468.0</ele><time>2026-05-03T07:31:34.366Z</time></trkpt><trkpt lat="41.6110319" lon="13.0745366"><ele>468.0</ele><time>2026-05-03T07:31:35.373Z</time></trkpt><trkpt lat="41.6111589" lon="13.0744673"><ele>465.5</ele><time>2026-05-03T07:31:36.374Z</time></trkpt><trkpt lat="41.6112755" lon="13.0743618"><ele>463.0</ele><time>2026-05-03T07:31:37.378Z</time></trkpt><trkpt lat="41.6113868" lon="13.0742268"><ele>460.5</ele><time>2026-05-03T07:31:38.378Z</time></trkpt><trkpt lat="41.6114931" lon="13.0740932"><ele>458.0</ele><time>2026-05-03T07:31:39.379Z</time></trkpt><trkpt lat="41.6115926" lon="13.073966"><ele>458.0</ele><time>2026-05-03T07:31:40.375Z</time></trkpt><trkpt lat="41.611691" lon="13.073831"><ele>458.0</ele><time>2026-05-03T07:31:41.368Z</time></trkpt><trkpt lat="41.6117834" lon="13.0736843"><ele>458.0</ele><time>2026-05-03T07:31:42.371Z</time></trkpt><trkpt lat="41.6118564" lon="13.0735294"><ele>458.0</ele><time>2026-05-03T07:31:43.366Z</time></trkpt><trkpt lat="41.611913" lon="13.073366"><ele>457.0</ele><time>2026-05-03T07:31:44.367Z</time></trkpt><trkpt lat="41.6119534" lon="13.073187"><ele>456.0</ele><time>2026-05-03T07:31:45.369Z</time></trkpt><trkpt lat="41.6119773" lon="13.073"><ele>455.0</ele><time>2026-05-03T07:31:46.365Z</time></trkpt><trkpt lat="41.6119987" lon="13.072812"><ele>454.0</ele><time>2026-05-03T07:31:47.372Z</time></trkpt><trkpt lat="41.6120156" lon="13.0726123"><ele>450.75</ele><time>2026-05-03T07:31:48.369Z</time></trkpt><trkpt lat="41.6120284" lon="13.0724101"><ele>447.5</ele><time>2026-05-03T07:31:49.365Z</time></trkpt><trkpt lat="41.6120404" lon="13.0722106"><ele>444.25</ele><time>2026-05-03T07:31:50.363Z</time></trkpt><trkpt lat="41.6120706" lon="13.0720297"><ele>441.0</ele><time>2026-05-03T07:31:51.376Z</time></trkpt><trkpt lat="41.6121175" lon="13.0718674"><ele>441.0</ele><time>2026-05-03T07:31:52.368Z</time></trkpt><trkpt lat="41.6121992" lon="13.0717087"><ele>441.0</ele><time>2026-05-03T07:31:53.364Z</time></trkpt><trkpt lat="41.6123221" lon="13.0715613"><ele>441.0</ele><time>2026-05-03T07:31:54.367Z</time></trkpt><trkpt lat="41.6124765" lon="13.0714108"><ele>440.66666666666663</ele><time>2026-05-03T07:31:55.367Z</time></trkpt><trkpt lat="41.6126589" lon="13.0712619"><ele>440.3333333333333</ele><time>2026-05-03T07:31:56.373Z</time></trkpt><trkpt lat="41.6128615" lon="13.0711095"><ele>440.0</ele><time>2026-05-03T07:31:57.366Z</time></trkpt><trkpt lat="41.6130613" lon="13.0709693"><ele>439.0</ele><time>2026-05-03T07:31:58.366Z</time></trkpt><trkpt lat="41.6132451" lon="13.0708377"><ele>438.0</ele><time>2026-05-03T07:31:59.366Z</time></trkpt><trkpt lat="41.6134158" lon="13.0707105"><ele>437.0</ele><time>2026-05-03T07:32:00.367Z</time></trkpt><trkpt lat="41.6135582" lon="13.070597"><ele>432.0</ele><time>2026-05-03T07:32:01.365Z</time></trkpt><trkpt lat="41.6136786" lon="13.0704795"><ele>427.0</ele><time>2026-05-03T07:32:02.366Z</time></trkpt><trkpt lat="41.6137853" lon="13.0703259"><ele>422.0</ele><time>2026-05-03T07:32:03.366Z</time></trkpt><trkpt lat="41.6138814" lon="13.0701299"><ele>421.66666666666663</ele><time>2026-05-03T07:32:04.374Z</time></trkpt><trkpt lat="41.613966" lon="13.0698917"><ele>421.33333333333337</ele><time>2026-05-03T07:32:05.373Z</time></trkpt><trkpt lat="41.6140321" lon="13.0696305"><ele>421.0</ele><time>2026-05-03T07:32:06.367Z</time></trkpt><trkpt lat="41.6140798" lon="13.0693648"><ele>422.6666666666667</ele><time>2026-05-03T07:32:07.369Z</time></trkpt><trkpt lat="41.6141108" lon="13.0690995"><ele>424.33333333333337</ele><time>2026-05-03T07:32:08.37Z</time></trkpt><trkpt lat="41.614126" lon="13.0688591"><ele>426.0</ele><time>2026-05-03T07:32:09.369Z</time></trkpt><trkpt lat="41.6141405" lon="13.0686615"><ele>426.0</ele><time>2026-05-03T07:32:10.375Z</time></trkpt><trkpt lat="41.6141682" lon="13.0685039"><ele>426.0</ele><time>2026-05-03T07:32:11.373Z</time></trkpt><trkpt lat="41.6142194" lon="13.0683715"><ele>426.0</ele><time>2026-05-03T07:32:12.364Z</time></trkpt><trkpt lat="41.614301" lon="13.0682628"><ele>426.0</ele><time>2026-05-03T07:32:13.494Z</time></trkpt><trkpt lat="41.6145474" lon="13.0681294"><ele>424.33333333333337</ele><time>2026-05-03T07:32:15.364Z</time></trkpt><trkpt lat="41.6146933" lon="13.068094"><ele>422.6666666666667</ele><time>2026-05-03T07:32:16.372Z</time></trkpt><trkpt lat="41.6148377" lon="13.0680474"><ele>421.0</ele><time>2026-05-03T07:32:17.368Z</time></trkpt><trkpt lat="41.6149846" lon="13.0679779"><ele>421.0</ele><time>2026-05-03T07:32:18.368Z</time></trkpt><trkpt lat="41.6151253" lon="13.0678686"><ele>421.0</ele><time>2026-05-03T07:32:19.383Z</time></trkpt><trkpt lat="41.6152553" lon="13.0677325"><ele>421.0</ele><time>2026-05-03T07:32:20.367Z</time></trkpt><trkpt lat="41.6153829" lon="13.0675793"><ele>415.6666666666667</ele><time>2026-05-03T07:32:21.38Z</time></trkpt><trkpt lat="41.6154969" lon="13.0674136"><ele>410.33333333333337</ele><time>2026-05-03T07:32:22.368Z</time></trkpt><trkpt lat="41.6155992" lon="13.0672584"><ele>405.0</ele><time>2026-05-03T07:32:23.377Z</time></trkpt><trkpt lat="41.6156817" lon="13.0670788"><ele>405.0</ele><time>2026-05-03T07:32:24.377Z</time></trkpt><trkpt lat="41.6157488" lon="13.0668548"><ele>405.0</ele><time>2026-05-03T07:32:25.365Z</time></trkpt><trkpt lat="41.6157987" lon="13.0665915"><ele>405.0</ele><time>2026-05-03T07:32:26.373Z</time></trkpt><trkpt lat="41.6158417" lon="13.0663034"><ele>405.33333333333337</ele><time>2026-05-03T07:32:27.366Z</time></trkpt><trkpt lat="41.6158831" lon="13.0660419"><ele>405.6666666666667</ele><time>2026-05-03T07:32:28.375Z</time></trkpt><trkpt lat="41.6159262" lon="13.0657972"><ele>406.0</ele><time>2026-05-03T07:32:29.371Z</time></trkpt><trkpt lat="41.6159681" lon="13.0655781"><ele>406.33333333333337</ele><time>2026-05-03T07:32:30.364Z</time></trkpt><trkpt lat="41.6160076" lon="13.0653766"><ele>406.66666666666663</ele><time>2026-05-03T07:32:31.366Z</time></trkpt><trkpt lat="41.6160462" lon="13.0651854"><ele>407.0</ele><time>2026-05-03T07:32:32.374Z</time></trkpt><trkpt lat="41.6160987" lon="13.0649865"><ele>402.3333333333333</ele><time>2026-05-03T07:32:33.373Z</time></trkpt><trkpt lat="41.6161717" lon="13.064793"><ele>397.66666666666663</ele><time>2026-05-03T07:32:34.372Z</time></trkpt><trkpt lat="41.6162771" lon="13.0645976"><ele>393.0</ele><time>2026-05-03T07:32:35.371Z</time></trkpt><trkpt lat="41.6164163" lon="13.0643974"><ele>393.0</ele><time>2026-05-03T07:32:36.376Z</time></trkpt><trkpt lat="41.616589" lon="13.0641947"><ele>393.0</ele><time>2026-05-03T07:32:37.363Z</time></trkpt><trkpt lat="41.6167594" lon="13.0639858"><ele>389.5</ele><time>2026-05-03T07:32:38.365Z</time></trkpt><trkpt lat="41.6170024" lon="13.0637647"><ele>386.0</ele><time>2026-05-03T07:32:39.364Z</time></trkpt><trkpt lat="41.6171958" lon="13.0635642"><ele>386.0</ele><time>2026-05-03T07:32:40.369Z</time></trkpt><trkpt lat="41.6173712" lon="13.0633786"><ele>386.0</ele><time>2026-05-03T07:32:41.368Z</time></trkpt><trkpt lat="41.6175364" lon="13.0631949"><ele>386.0</ele><time>2026-05-03T07:32:42.362Z</time></trkpt><trkpt lat="41.6176874" lon="13.0630101"><ele>387.66666666666663</ele><time>2026-05-03T07:32:43.377Z</time></trkpt><trkpt lat="41.6178156" lon="13.0628256"><ele>389.33333333333337</ele><time>2026-05-03T07:32:44.364Z</time></trkpt><trkpt lat="41.6179314" lon="13.0626312"><ele>391.0</ele><time>2026-05-03T07:32:45.368Z</time></trkpt><trkpt lat="41.6180479" lon="13.0624498"><ele>382.6666666666667</ele><time>2026-05-03T07:32:46.369Z</time></trkpt><trkpt lat="41.6181687" lon="13.0622943"><ele>374.33333333333337</ele><time>2026-05-03T07:32:47.366Z</time></trkpt><trkpt lat="41.6182979" lon="13.0621663"><ele>366.0</ele><time>2026-05-03T07:32:48.373Z</time></trkpt><trkpt lat="41.6184445" lon="13.0620609"><ele>366.0</ele><time>2026-05-03T07:32:49.365Z</time></trkpt><trkpt lat="41.6186035" lon="13.0619817"><ele>366.0</ele><time>2026-05-03T07:32:50.374Z</time></trkpt><trkpt lat="41.6187969" lon="13.0619351"><ele>366.0</ele><time>2026-05-03T07:32:51.366Z</time></trkpt><trkpt lat="41.6189978" lon="13.061909"><ele>364.6666666666667</ele><time>2026-05-03T07:32:52.367Z</time></trkpt><trkpt lat="41.6191852" lon="13.0618933"><ele>363.33333333333337</ele><time>2026-05-03T07:32:53.365Z</time></trkpt><trkpt lat="41.6193682" lon="13.0618792"><ele>362.0</ele><time>2026-05-03T07:32:54.364Z</time></trkpt><trkpt lat="41.6195277" lon="13.0618582"><ele>360.5</ele><time>2026-05-03T07:32:55.366Z</time></trkpt><trkpt lat="41.619665" lon="13.0618122"><ele>359.0</ele><time>2026-05-03T07:32:56.364Z</time></trkpt><trkpt lat="41.619781" lon="13.0617325"><ele>357.5</ele><time>2026-05-03T07:32:57.369Z</time></trkpt><trkpt lat="41.6198822" lon="13.061619"><ele>356.0</ele><time>2026-05-03T07:32:58.365Z</time></trkpt><trkpt lat="41.6199561" lon="13.0614838"><ele>356.0</ele><time>2026-05-03T07:32:59.365Z</time></trkpt><trkpt lat="41.6200081" lon="13.0613353"><ele>356.0</ele><time>2026-05-03T07:33:00.376Z</time></trkpt><trkpt lat="41.6200259" lon="13.0611517"><ele>356.0</ele><time>2026-05-03T07:33:01.371Z</time></trkpt><trkpt lat="41.6200161" lon="13.0609467"><ele>356.0</ele><time>2026-05-03T07:33:02.367Z</time></trkpt><trkpt lat="41.6200301" lon="13.0607459"><ele>356.6666666666667</ele><time>2026-05-03T07:33:03.374Z</time></trkpt><trkpt lat="41.620079" lon="13.0605027"><ele>357.3333333333333</ele><time>2026-05-03T07:33:04.368Z</time></trkpt><trkpt lat="41.6201463" lon="13.0602662"><ele>358.0</ele><time>2026-05-03T07:33:05.369Z</time></trkpt><trkpt lat="41.6202107" lon="13.0600631"><ele>357.0</ele><time>2026-05-03T07:33:06.37Z</time></trkpt><trkpt lat="41.6202841" lon="13.0598652"><ele>356.0</ele><time>2026-05-03T07:33:07.367Z</time></trkpt><trkpt lat="41.6203932" lon="13.0596701"><ele>355.0</ele><time>2026-05-03T07:33:08.367Z</time></trkpt><trkpt lat="41.620527" lon="13.0594834"><ele>355.0</ele><time>2026-05-03T07:33:09.37Z</time></trkpt><trkpt lat="41.6206939" lon="13.0592854"><ele>355.0</ele><time>2026-05-03T07:33:10.369Z</time></trkpt><trkpt lat="41.6209005" lon="13.0590583"><ele>354.5</ele><time>2026-05-03T07:33:11.376Z</time></trkpt><trkpt lat="41.621086" lon="13.058849"><ele>354.0</ele><time>2026-05-03T07:33:12.378Z</time></trkpt><trkpt lat="41.6212603" lon="13.0586506"><ele>354.0</ele><time>2026-05-03T07:33:13.375Z</time></trkpt><trkpt lat="41.6214246" lon="13.058471"><ele>354.0</ele><time>2026-05-03T07:33:14.373Z</time></trkpt><trkpt lat="41.6215757" lon="13.0583151"><ele>354.0</ele><time>2026-05-03T07:33:15.374Z</time></trkpt><trkpt lat="41.621718" lon="13.0581829"><ele>356.0</ele><time>2026-05-03T07:33:16.372Z</time></trkpt><trkpt lat="41.6218576" lon="13.0580869"><ele>358.0</ele><time>2026-05-03T07:33:17.371Z</time></trkpt><trkpt lat="41.622019" lon="13.0580311"><ele>360.0</ele><time>2026-05-03T07:33:18.371Z</time></trkpt><trkpt lat="41.6221998" lon="13.0580098"><ele>360.0</ele><time>2026-05-03T07:33:19.367Z</time></trkpt><trkpt lat="41.6223827" lon="13.0580062"><ele>360.0</ele><time>2026-05-03T07:33:20.366Z</time></trkpt><trkpt lat="41.6225609" lon="13.0580084"><ele>360.0</ele><time>2026-05-03T07:33:21.373Z</time></trkpt><trkpt lat="41.6227401" lon="13.0580106"><ele>358.3333333333333</ele><time>2026-05-03T07:33:22.365Z</time></trkpt><trkpt lat="41.6229306" lon="13.0580037"><ele>356.66666666666663</ele><time>2026-05-03T07:33:23.375Z</time></trkpt><trkpt lat="41.6231674" lon="13.058008"><ele>355.0</ele><time>2026-05-03T07:33:24.378Z</time></trkpt><trkpt lat="41.623395" lon="13.0580202"><ele>355.0</ele><time>2026-05-03T07:33:25.376Z</time></trkpt><trkpt lat="41.623601" lon="13.0580138"><ele>355.0</ele><time>2026-05-03T07:33:26.363Z</time></trkpt><trkpt lat="41.6238005" lon="13.0579841"><ele>355.0</ele><time>2026-05-03T07:33:27.365Z</time></trkpt><trkpt lat="41.6239889" lon="13.0579288"><ele>354.66666666666663</ele><time>2026-05-03T07:33:28.367Z</time></trkpt><trkpt lat="41.6241673" lon="13.0578464"><ele>354.3333333333333</ele><time>2026-05-03T07:33:29.364Z</time></trkpt><trkpt lat="41.6243506" lon="13.0577222"><ele>354.0</ele><time>2026-05-03T07:33:30.367Z</time></trkpt><trkpt lat="41.624548" lon="13.0575569"><ele>354.3333333333333</ele><time>2026-05-03T07:33:31.366Z</time></trkpt><trkpt lat="41.6247323" lon="13.0574158"><ele>354.66666666666663</ele><time>2026-05-03T07:33:32.367Z</time></trkpt><trkpt lat="41.6248988" lon="13.0573014"><ele>355.0</ele><time>2026-05-03T07:33:33.365Z</time></trkpt><trkpt lat="41.6250537" lon="13.0572046"><ele>355.0</ele><time>2026-05-03T07:33:34.364Z</time></trkpt><trkpt lat="41.6252003" lon="13.0571214"><ele>355.0</ele><time>2026-05-03T07:33:35.368Z</time></trkpt><trkpt lat="41.6253356" lon="13.057049"><ele>355.0</ele><time>2026-05-03T07:33:36.37Z</time></trkpt><trkpt lat="41.625474" lon="13.0569735"><ele>351.0</ele><time>2026-05-03T07:33:37.374Z</time></trkpt><trkpt lat="41.6256159" lon="13.0568898"><ele>347.0</ele><time>2026-05-03T07:33:38.373Z</time></trkpt><trkpt lat="41.6257656" lon="13.0567901"><ele>343.0</ele><time>2026-05-03T07:33:39.378Z</time></trkpt><trkpt lat="41.6259187" lon="13.0566895"><ele>343.66666666666663</ele><time>2026-05-03T07:33:40.361Z</time></trkpt><trkpt lat="41.6260728" lon="13.0565907"><ele>344.3333333333333</ele><time>2026-05-03T07:33:41.366Z</time></trkpt><trkpt lat="41.6262279" lon="13.0564931"><ele>345.0</ele><time>2026-05-03T07:33:42.371Z</time></trkpt><trkpt lat="41.6263853" lon="13.0563929"><ele>345.0</ele><time>2026-05-03T07:33:43.365Z</time></trkpt><trkpt lat="41.6265375" lon="13.0562846"><ele>345.0</ele><time>2026-05-03T07:33:44.373Z</time></trkpt><trkpt lat="41.6266772" lon="13.0561652"><ele>345.0</ele><time>2026-05-03T07:33:45.372Z</time></trkpt><trkpt lat="41.6267961" lon="13.0560434"><ele>345.0</ele><time>2026-05-03T07:33:46.366Z</time></trkpt><trkpt lat="41.6269078" lon="13.0558873"><ele>345.0</ele><time>2026-05-03T07:33:47.372Z</time></trkpt><trkpt lat="41.6270244" lon="13.0556901"><ele>345.0</ele><time>2026-05-03T07:33:48.376Z</time></trkpt><trkpt lat="41.6271487" lon="13.055421"><ele>345.0</ele><time>2026-05-03T07:33:49.365Z</time></trkpt><trkpt lat="41.6272885" lon="13.0551104"><ele>345.0</ele><time>2026-05-03T07:33:50.367Z</time></trkpt><trkpt lat="41.6274219" lon="13.0547835"><ele>345.0</ele><time>2026-05-03T07:33:51.366Z</time></trkpt><trkpt lat="41.6275538" lon="13.0544713"><ele>345.0</ele><time>2026-05-03T07:33:52.366Z</time></trkpt><trkpt lat="41.6276993" lon="13.054166"><ele>340.0</ele><time>2026-05-03T07:33:53.366Z</time></trkpt><trkpt lat="41.6278675" lon="13.0538251"><ele>335.0</ele><time>2026-05-03T07:33:54.376Z</time></trkpt><trkpt lat="41.6280494" lon="13.0534574"><ele>336.0</ele><time>2026-05-03T07:33:55.374Z</time></trkpt><trkpt lat="41.628231" lon="13.053074"><ele>337.0</ele><time>2026-05-03T07:33:56.376Z</time></trkpt><trkpt lat="41.6283952" lon="13.0527219"><ele>338.5</ele><time>2026-05-03T07:33:57.374Z</time></trkpt><trkpt lat="41.628541" lon="13.0524101"><ele>340.0</ele><time>2026-05-03T07:33:58.377Z</time></trkpt><trkpt lat="41.6286719" lon="13.0521238"><ele>337.0</ele><time>2026-05-03T07:33:59.369Z</time></trkpt><trkpt lat="41.6287821" lon="13.0518473"><ele>334.0</ele><time>2026-05-03T07:34:00.374Z</time></trkpt><trkpt lat="41.6288687" lon="13.0515623"><ele>334.0</ele><time>2026-05-03T07:34:01.378Z</time></trkpt><trkpt lat="41.6289314" lon="13.0512561"><ele>334.0</ele><time>2026-05-03T07:34:02.375Z</time></trkpt><trkpt lat="41.6289832" lon="13.0509454"><ele>335.0</ele><time>2026-05-03T07:34:03.378Z</time></trkpt><trkpt lat="41.6290484" lon="13.05063"><ele>336.0</ele><time>2026-05-03T07:34:04.365Z</time></trkpt><trkpt lat="41.6291197" lon="13.0503371"><ele>336.0</ele><time>2026-05-03T07:34:05.375Z</time></trkpt><trkpt lat="41.629196" lon="13.0500614"><ele>336.0</ele><time>2026-05-03T07:34:06.366Z</time></trkpt><trkpt lat="41.6292798" lon="13.049819"><ele>336.0</ele><time>2026-05-03T07:34:07.37Z</time></trkpt><trkpt lat="41.6293714" lon="13.0496144"><ele>336.6666666666667</ele><time>2026-05-03T07:34:08.372Z</time></trkpt><trkpt lat="41.629485" lon="13.0494242"><ele>337.33333333333337</ele><time>2026-05-03T07:34:09.376Z</time></trkpt><trkpt lat="41.6296186" lon="13.0492735"><ele>338.0</ele><time>2026-05-03T07:34:10.373Z</time></trkpt><trkpt lat="41.6297677" lon="13.0491567"><ele>339.6666666666667</ele><time>2026-05-03T07:34:11.379Z</time></trkpt><trkpt lat="41.6299439" lon="13.0490636"><ele>341.3333333333333</ele><time>2026-05-03T07:34:12.365Z</time></trkpt><trkpt lat="41.6301454" lon="13.0489642"><ele>343.0</ele><time>2026-05-03T07:34:13.373Z</time></trkpt><trkpt lat="41.630357" lon="13.048863"><ele>343.0</ele><time>2026-05-03T07:34:14.364Z</time></trkpt><trkpt lat="41.6305579" lon="13.0487521"><ele>343.0</ele><time>2026-05-03T07:34:15.372Z</time></trkpt><trkpt lat="41.6307588" lon="13.0486139"><ele>343.0</ele><time>2026-05-03T07:34:16.372Z</time></trkpt><trkpt lat="41.6309602" lon="13.0484632"><ele>341.0</ele><time>2026-05-03T07:34:17.374Z</time></trkpt><trkpt lat="41.6311488" lon="13.0483351"><ele>339.0</ele><time>2026-05-03T07:34:18.364Z</time></trkpt><trkpt lat="41.6313309" lon="13.0482219"><ele>337.0</ele><time>2026-05-03T07:34:19.366Z</time></trkpt><trkpt lat="41.6314917" lon="13.0481229"><ele>337.0</ele><time>2026-05-03T07:34:20.373Z</time></trkpt><trkpt lat="41.6316316" lon="13.0480133"><ele>337.0</ele><time>2026-05-03T07:34:21.364Z</time></trkpt><trkpt lat="41.6317562" lon="13.0478791"><ele>337.0</ele><time>2026-05-03T07:34:22.369Z</time></trkpt><trkpt lat="41.6318778" lon="13.0476875"><ele>331.5</ele><time>2026-05-03T07:34:23.367Z</time></trkpt><trkpt lat="41.6320081" lon="13.0474448"><ele>326.0</ele><time>2026-05-03T07:34:24.379Z</time></trkpt><trkpt lat="41.6321525" lon="13.0471672"><ele>326.0</ele><time>2026-05-03T07:34:25.365Z</time></trkpt><trkpt lat="41.6323139" lon="13.0468857"><ele>326.0</ele><time>2026-05-03T07:34:26.364Z</time></trkpt><trkpt lat="41.6324994" lon="13.0465996"><ele>328.0</ele><time>2026-05-03T07:34:27.369Z</time></trkpt><trkpt lat="41.6327133" lon="13.0463139"><ele>330.0</ele><time>2026-05-03T07:34:28.366Z</time></trkpt><trkpt lat="41.6329483" lon="13.0460103"><ele>328.0</ele><time>2026-05-03T07:34:29.374Z</time></trkpt><trkpt lat="41.6331678" lon="13.0457245"><ele>326.0</ele><time>2026-05-03T07:34:30.368Z</time></trkpt><trkpt lat="41.633369" lon="13.045463"><ele>326.0</ele><time>2026-05-03T07:34:31.365Z</time></trkpt><trkpt lat="41.6335735" lon="13.0452262"><ele>326.0</ele><time>2026-05-03T07:34:32.374Z</time></trkpt><trkpt lat="41.6337923" lon="13.0449869"><ele>327.5</ele><time>2026-05-03T07:34:33.369Z</time></trkpt><trkpt lat="41.6340303" lon="13.0447258"><ele>329.0</ele><time>2026-05-03T07:34:34.375Z</time></trkpt><trkpt lat="41.6342868" lon="13.0444313"><ele>322.0</ele><time>2026-05-03T07:34:35.366Z</time></trkpt><trkpt lat="41.63453" lon="13.0441492"><ele>315.0</ele><time>2026-05-03T07:34:36.366Z</time></trkpt><trkpt lat="41.6347518" lon="13.043881"><ele>315.0</ele><time>2026-05-03T07:34:37.366Z</time></trkpt><trkpt lat="41.6349885" lon="13.043598"><ele>315.0</ele><time>2026-05-03T07:34:38.368Z</time></trkpt><trkpt lat="41.6351833" lon="13.0434221"><ele>313.0</ele><time>2026-05-03T07:34:39.366Z</time></trkpt><trkpt lat="41.635385" lon="13.0432232"><ele>311.0</ele><time>2026-05-03T07:34:40.374Z</time></trkpt><trkpt lat="41.6355784" lon="13.0430581"><ele>311.0</ele><time>2026-05-03T07:34:41.372Z</time></trkpt><trkpt lat="41.6357988" lon="13.0429048"><ele>311.0</ele><time>2026-05-03T07:34:42.375Z</time></trkpt><trkpt lat="41.6360413" lon="13.0427598"><ele>303.5</ele><time>2026-05-03T07:34:43.373Z</time></trkpt><trkpt lat="41.6362797" lon="13.0426327"><ele>296.0</ele><time>2026-05-03T07:34:44.374Z</time></trkpt><trkpt lat="41.6365291" lon="13.042518"><ele>294.0</ele><time>2026-05-03T07:34:45.372Z</time></trkpt><trkpt lat="41.6367842" lon="13.0424322"><ele>292.0</ele><time>2026-05-03T07:34:46.372Z</time></trkpt><trkpt lat="41.6370225" lon="13.0423663"><ele>292.0</ele><time>2026-05-03T07:34:47.384Z</time></trkpt><trkpt lat="41.6372648" lon="13.0422908"><ele>292.0</ele><time>2026-05-03T07:34:48.375Z</time></trkpt><trkpt lat="41.6374935" lon="13.0422116"><ele>292.0</ele><time>2026-05-03T07:34:49.374Z</time></trkpt><trkpt lat="41.6377062" lon="13.0421272"><ele>292.0</ele><time>2026-05-03T07:34:50.364Z</time></trkpt><trkpt lat="41.6379089" lon="13.0420557"><ele>292.0</ele><time>2026-05-03T07:34:51.372Z</time></trkpt><trkpt lat="41.6381038" lon="13.0420193"><ele>291.66666666666663</ele><time>2026-05-03T07:34:52.373Z</time></trkpt><trkpt lat="41.6383048" lon="13.042019"><ele>291.3333333333333</ele><time>2026-05-03T07:34:53.368Z</time></trkpt><trkpt lat="41.6385046" lon="13.0420516"><ele>291.0</ele><time>2026-05-03T07:34:54.369Z</time></trkpt><trkpt lat="41.6387102" lon="13.0421069"><ele>290.6666666666667</ele><time>2026-05-03T07:34:55.37Z</time></trkpt><trkpt lat="41.6389242" lon="13.0421577"><ele>290.33333333333337</ele><time>2026-05-03T07:34:56.368Z</time></trkpt><trkpt lat="41.6391366" lon="13.0421889"><ele>290.0</ele><time>2026-05-03T07:34:57.375Z</time></trkpt><trkpt lat="41.6393448" lon="13.0422009"><ele>290.0</ele><time>2026-05-03T07:34:58.369Z</time></trkpt><trkpt lat="41.6395463" lon="13.0422068"><ele>290.0</ele><time>2026-05-03T07:34:59.375Z</time></trkpt><trkpt lat="41.6397447" lon="13.0422138"><ele>290.0</ele><time>2026-05-03T07:35:00.373Z</time></trkpt><trkpt lat="41.6399329" lon="13.0422057"><ele>290.0</ele><time>2026-05-03T07:35:01.374Z</time></trkpt><trkpt lat="41.6401297" lon="13.0421707"><ele>290.0</ele><time>2026-05-03T07:35:02.377Z</time></trkpt><trkpt lat="41.6403385" lon="13.042102"><ele>290.0</ele><time>2026-05-03T07:35:03.372Z</time></trkpt><trkpt lat="41.640573" lon="13.0420018"><ele>289.5</ele><time>2026-05-03T07:35:04.372Z</time></trkpt><trkpt lat="41.6408206" lon="13.0418714"><ele>289.0</ele><time>2026-05-03T07:35:05.374Z</time></trkpt><trkpt lat="41.6410489" lon="13.0417447"><ele>300.0</ele><time>2026-05-03T07:35:06.375Z</time></trkpt><trkpt lat="41.6412781" lon="13.0416152"><ele>311.0</ele><time>2026-05-03T07:35:07.375Z</time></trkpt><trkpt lat="41.6415066" lon="13.041495"><ele>311.0</ele><time>2026-05-03T07:35:08.374Z</time></trkpt><trkpt lat="41.6417298" lon="13.0413812"><ele>311.0</ele><time>2026-05-03T07:35:09.374Z</time></trkpt><trkpt lat="41.6419355" lon="13.0412766"><ele>307.6666666666667</ele><time>2026-05-03T07:35:10.384Z</time></trkpt><trkpt lat="41.6421337" lon="13.041186"><ele>304.3333333333333</ele><time>2026-05-03T07:35:11.373Z</time></trkpt><trkpt lat="41.6423182" lon="13.041113"><ele>301.0</ele><time>2026-05-03T07:35:12.359Z</time></trkpt><trkpt lat="41.6424909" lon="13.0410481"><ele>301.0</ele><time>2026-05-03T07:35:13.367Z</time></trkpt><trkpt lat="41.6426533" lon="13.0409978"><ele>301.0</ele><time>2026-05-03T07:35:14.366Z</time></trkpt><trkpt lat="41.6428073" lon="13.0409441"><ele>301.0</ele><time>2026-05-03T07:35:15.368Z</time></trkpt><trkpt lat="41.6429373" lon="13.0408873"><ele>298.0</ele><time>2026-05-03T07:35:16.367Z</time></trkpt><trkpt lat="41.6430592" lon="13.0408133"><ele>295.0</ele><time>2026-05-03T07:35:17.367Z</time></trkpt><trkpt lat="41.6431649" lon="13.0407067"><ele>292.0</ele><time>2026-05-03T07:35:18.373Z</time></trkpt><trkpt lat="41.6432625" lon="13.0405708"><ele>289.0</ele><time>2026-05-03T07:35:19.371Z</time></trkpt><trkpt lat="41.6433434" lon="13.0404131"><ele>288.75</ele><time>2026-05-03T07:35:20.374Z</time></trkpt><trkpt lat="41.6434188" lon="13.0402739"><ele>288.5</ele><time>2026-05-03T07:35:21.365Z</time></trkpt><trkpt lat="41.6435039" lon="13.0401783"><ele>288.25</ele><time>2026-05-03T07:35:22.375Z</time></trkpt><trkpt lat="41.6436118" lon="13.0401184"><ele>288.0</ele><time>2026-05-03T07:35:23.368Z</time></trkpt><trkpt lat="41.6437527" lon="13.040094"><ele>288.6666666666667</ele><time>2026-05-03T07:35:24.368Z</time></trkpt><trkpt lat="41.643932" lon="13.0401006"><ele>289.33333333333337</ele><time>2026-05-03T07:35:25.373Z</time></trkpt><trkpt lat="41.6441461" lon="13.0401142"><ele>290.0</ele><time>2026-05-03T07:35:26.37Z</time></trkpt><trkpt lat="41.6443836" lon="13.0401247"><ele>293.5</ele><time>2026-05-03T07:35:27.372Z</time></trkpt><trkpt lat="41.6446152" lon="13.040142"><ele>297.0</ele><time>2026-05-03T07:35:28.368Z</time></trkpt><trkpt lat="41.6448444" lon="13.0401727"><ele>297.0</ele><time>2026-05-03T07:35:29.363Z</time></trkpt><trkpt lat="41.6450835" lon="13.040233"><ele>297.0</ele><time>2026-05-03T07:35:30.364Z</time></trkpt><trkpt lat="41.645311" lon="13.040301"><ele>300.3333333333333</ele><time>2026-05-03T07:35:31.364Z</time></trkpt><trkpt lat="41.645511" lon="13.0403627"><ele>303.66666666666663</ele><time>2026-05-03T07:35:32.36Z</time></trkpt><trkpt lat="41.6456915" lon="13.040414"><ele>307.0</ele><time>2026-05-03T07:35:33.36Z</time></trkpt><trkpt lat="41.645844" lon="13.0404358"><ele>307.0</ele><time>2026-05-03T07:35:34.364Z</time></trkpt><trkpt lat="41.6459912" lon="13.0404206"><ele>307.0</ele><time>2026-05-03T07:35:35.37Z</time></trkpt><trkpt lat="41.6461467" lon="13.0403522"><ele>307.0</ele><time>2026-05-03T07:35:36.374Z</time></trkpt><trkpt lat="41.6463015" lon="13.0402403"><ele>305.66666666666663</ele><time>2026-05-03T07:35:37.374Z</time></trkpt><trkpt lat="41.6464449" lon="13.0401119"><ele>304.3333333333333</ele><time>2026-05-03T07:35:38.376Z</time></trkpt><trkpt lat="41.646581" lon="13.0400238"><ele>303.0</ele><time>2026-05-03T07:35:39.375Z</time></trkpt><trkpt lat="41.6467187" lon="13.0399815"><ele>303.0</ele><time>2026-05-03T07:35:40.366Z</time></trkpt><trkpt lat="41.6468424" lon="13.039979"><ele>303.0</ele><time>2026-05-03T07:35:41.368Z</time></trkpt><trkpt lat="41.6469609" lon="13.0400274"><ele>303.0</ele><time>2026-05-03T07:35:42.367Z</time></trkpt><trkpt lat="41.6470854" lon="13.0401022"><ele>303.0</ele><time>2026-05-03T07:35:43.367Z</time></trkpt><trkpt lat="41.6472081" lon="13.0401908"><ele>304.0</ele><time>2026-05-03T07:35:44.367Z</time></trkpt><trkpt lat="41.6473227" lon="13.040283"><ele>305.0</ele><time>2026-05-03T07:35:45.368Z</time></trkpt><trkpt lat="41.6474236" lon="13.0403669"><ele>306.0</ele><time>2026-05-03T07:35:46.368Z</time></trkpt><trkpt lat="41.6475152" lon="13.0404251"><ele>307.0</ele><time>2026-05-03T07:35:47.371Z</time></trkpt><trkpt lat="41.6476056" lon="13.0404464"><ele>308.0</ele><time>2026-05-03T07:35:48.369Z</time></trkpt><trkpt lat="41.647684" lon="13.0404207"><ele>308.0</ele><time>2026-05-03T07:35:49.377Z</time></trkpt><trkpt lat="41.6477578" lon="13.040349"><ele>308.0</ele><time>2026-05-03T07:35:50.371Z</time></trkpt><trkpt lat="41.647822" lon="13.0402265"><ele>308.0</ele><time>2026-05-03T07:35:51.372Z</time></trkpt><trkpt lat="41.6478837" lon="13.0400795"><ele>308.0</ele><time>2026-05-03T07:35:52.373Z</time></trkpt><trkpt lat="41.647972" lon="13.0399272"><ele>308.75</ele><time>2026-05-03T07:35:53.367Z</time></trkpt><trkpt lat="41.6480692" lon="13.0397757"><ele>309.5</ele><time>2026-05-03T07:35:54.378Z</time></trkpt><trkpt lat="41.6481571" lon="13.0396271"><ele>310.25</ele><time>2026-05-03T07:35:55.366Z</time></trkpt><trkpt lat="41.6482342" lon="13.0394856"><ele>311.0</ele><time>2026-05-03T07:35:56.365Z</time></trkpt><trkpt lat="41.6483046" lon="13.0393593"><ele>311.0</ele><time>2026-05-03T07:35:57.373Z</time></trkpt><trkpt lat="41.6483745" lon="13.0392486"><ele>311.0</ele><time>2026-05-03T07:35:58.373Z</time></trkpt><trkpt lat="41.6484614" lon="13.0391462"><ele>311.0</ele><time>2026-05-03T07:35:59.371Z</time></trkpt><trkpt lat="41.6485753" lon="13.0390737"><ele>311.0</ele><time>2026-05-03T07:36:00.372Z</time></trkpt><trkpt lat="41.6487001" lon="13.0390148"><ele>310.75</ele><time>2026-05-03T07:36:01.375Z</time></trkpt><trkpt lat="41.6488308" lon="13.038967"><ele>310.5</ele><time>2026-05-03T07:36:02.372Z</time></trkpt><trkpt lat="41.6489559" lon="13.0389247"><ele>310.25</ele><time>2026-05-03T07:36:03.378Z</time></trkpt><trkpt lat="41.6490599" lon="13.0388918"><ele>310.0</ele><time>2026-05-03T07:36:04.376Z</time></trkpt><trkpt lat="41.6491461" lon="13.0388511"><ele>310.0</ele><time>2026-05-03T07:36:05.367Z</time></trkpt><trkpt lat="41.6492289" lon="13.0388394"><ele>310.0</ele><time>2026-05-03T07:36:06.37Z</time></trkpt><trkpt lat="41.649305" lon="13.0388467"><ele>310.0</ele><time>2026-05-03T07:36:07.374Z</time></trkpt><trkpt lat="41.6493665" lon="13.0388894"><ele>310.0</ele><time>2026-05-03T07:36:08.376Z</time></trkpt><trkpt lat="41.6494194" lon="13.0389648"><ele>310.0</ele><time>2026-05-03T07:36:09.366Z</time></trkpt><trkpt lat="41.6494763" lon="13.0390574"><ele>310.0</ele><time>2026-05-03T07:36:10.368Z</time></trkpt><trkpt lat="41.6495326" lon="13.0391448"><ele>308.0</ele><time>2026-05-03T07:36:11.376Z</time></trkpt><trkpt lat="41.6495916" lon="13.0392323"><ele>306.0</ele><time>2026-05-03T07:36:12.364Z</time></trkpt><trkpt lat="41.6496481" lon="13.0393218"><ele>304.0</ele><time>2026-05-03T07:36:13.371Z</time></trkpt><trkpt lat="41.6497079" lon="13.039412"><ele>302.0</ele><time>2026-05-03T07:36:14.369Z</time></trkpt><trkpt lat="41.6497583" lon="13.0395152"><ele>300.0</ele><time>2026-05-03T07:36:15.369Z</time></trkpt><trkpt lat="41.6497942" lon="13.0396103"><ele>298.0</ele><time>2026-05-03T07:36:16.365Z</time></trkpt><trkpt lat="41.6498364" lon="13.0396862"><ele>298.0</ele><time>2026-05-03T07:36:17.372Z</time></trkpt><trkpt lat="41.6498922" lon="13.0397411"><ele>298.0</ele><time>2026-05-03T07:36:18.37Z</time></trkpt><trkpt lat="41.6499624" lon="13.0397728"><ele>298.0</ele><time>2026-05-03T07:36:19.377Z</time></trkpt><trkpt lat="41.6500499" lon="13.039781"><ele>298.0</ele><time>2026-05-03T07:36:20.373Z</time></trkpt><trkpt lat="41.6501426" lon="13.0397562"><ele>298.0</ele><time>2026-05-03T07:36:21.5Z</time></trkpt><trkpt lat="41.6503522" lon="13.0396969"><ele>296.0</ele><time>2026-05-03T07:36:23.362Z</time></trkpt><trkpt lat="41.6504638" lon="13.0396999"><ele>294.0</ele><time>2026-05-03T07:36:24.366Z</time></trkpt><trkpt lat="41.6505777" lon="13.0397029"><ele>292.0</ele><time>2026-05-03T07:36:25.374Z</time></trkpt><trkpt lat="41.6506996" lon="13.0397175"><ele>290.0</ele><time>2026-05-03T07:36:26.369Z</time></trkpt><trkpt lat="41.6508116" lon="13.039734"><ele>290.0</ele><time>2026-05-03T07:36:27.374Z</time></trkpt><trkpt lat="41.6509169" lon="13.0397517"><ele>290.0</ele><time>2026-05-03T07:36:28.37Z</time></trkpt><trkpt lat="41.6510195" lon="13.0397672"><ele>290.0</ele><time>2026-05-03T07:36:29.37Z</time></trkpt><trkpt lat="41.6511189" lon="13.0397819"><ele>290.0</ele><time>2026-05-03T07:36:30.372Z</time></trkpt><trkpt lat="41.6512159" lon="13.0398023"><ele>290.0</ele><time>2026-05-03T07:36:31.378Z</time></trkpt><trkpt lat="41.6513142" lon="13.0398148"><ele>289.33333333333337</ele><time>2026-05-03T07:36:32.366Z</time></trkpt><trkpt lat="41.6514026" lon="13.0398362"><ele>288.6666666666667</ele><time>2026-05-03T07:36:33.373Z</time></trkpt><trkpt lat="41.651488" lon="13.0398595"><ele>288.0</ele><time>2026-05-03T07:36:34.381Z</time></trkpt><trkpt lat="41.6515673" lon="13.0398771"><ele>287.3333333333333</ele><time>2026-05-03T07:36:35.369Z</time></trkpt><trkpt lat="41.6516401" lon="13.0398913"><ele>286.66666666666663</ele><time>2026-05-03T07:36:36.37Z</time></trkpt><trkpt lat="41.6517463" lon="13.0398694"><ele>286.0</ele><time>2026-05-03T07:36:38.37Z</time></trkpt><trkpt lat="41.6517806" lon="13.0397387"><ele>286.0</ele><time>2026-05-03T07:36:40.366Z</time></trkpt><trkpt lat="41.651669" lon="13.0396202"><ele>286.0</ele><time>2026-05-03T07:36:42.367Z</time></trkpt><trkpt lat="41.6515626" lon="13.0395856"><ele>286.0</ele><time>2026-05-03T07:36:43.366Z</time></trkpt><trkpt lat="41.6514465" lon="13.0395313"><ele>286.0</ele><time>2026-05-03T07:36:44.377Z</time></trkpt><trkpt lat="41.6513387" lon="13.0394583"><ele>286.0</ele><time>2026-05-03T07:36:45.38Z</time></trkpt><trkpt lat="41.6512384" lon="13.0393755"><ele>286.0</ele><time>2026-05-03T07:36:46.373Z</time></trkpt><trkpt lat="41.6511364" lon="13.0392944"><ele>286.0</ele><time>2026-05-03T07:36:47.368Z</time></trkpt><trkpt lat="41.6510548" lon="13.039221"><ele>286.0</ele><time>2026-05-03T07:36:48.373Z</time></trkpt><trkpt lat="41.6509862" lon="13.0391419"><ele>286.0</ele><time>2026-05-03T07:36:49.378Z</time></trkpt><trkpt lat="41.650951" lon="13.0390548"><ele>285.2</ele><time>2026-05-03T07:36:50.369Z</time></trkpt><trkpt lat="41.6509391" lon="13.0389672"><ele>284.40000000000003</ele><time>2026-05-03T07:36:51.379Z</time></trkpt><trkpt lat="41.6510379" lon="13.0388184"><ele>283.6</ele><time>2026-05-03T07:36:53.375Z</time></trkpt><trkpt lat="41.6511093" lon="13.038786"><ele>282.8</ele><time>2026-05-03T07:36:54.373Z</time></trkpt><trkpt lat="41.6512158" lon="13.0387973"><ele>282.0</ele><time>2026-05-03T07:36:55.369Z</time></trkpt><trkpt lat="41.6513638" lon="13.0388244"><ele>282.0</ele><time>2026-05-03T07:36:56.375Z</time></trkpt><trkpt lat="41.6515418" lon="13.038919"><ele>282.0</ele><time>2026-05-03T07:36:57.368Z</time></trkpt><trkpt lat="41.6517376" lon="13.0390077"><ele>282.0</ele><time>2026-05-03T07:36:58.362Z</time></trkpt><trkpt lat="41.6519886" lon="13.0391378"><ele>277.5</ele><time>2026-05-03T07:36:59.367Z</time></trkpt><trkpt lat="41.6522076" lon="13.0392338"><ele>273.0</ele><time>2026-05-03T07:37:00.375Z</time></trkpt><trkpt lat="41.652417" lon="13.039338"><ele>273.0</ele><time>2026-05-03T07:37:01.373Z</time></trkpt><trkpt lat="41.6526306" lon="13.0394244"><ele>273.0</ele><time>2026-05-03T07:37:02.367Z</time></trkpt><trkpt lat="41.6527982" lon="13.0395106"><ele>273.0</ele><time>2026-05-03T07:37:03.372Z</time></trkpt><trkpt lat="41.6529815" lon="13.0395899"><ele>270.6666666666667</ele><time>2026-05-03T07:37:04.368Z</time></trkpt><trkpt lat="41.6531526" lon="13.0396728"><ele>268.33333333333337</ele><time>2026-05-03T07:37:05.366Z</time></trkpt><trkpt lat="41.653311" lon="13.0397526"><ele>266.0</ele><time>2026-05-03T07:37:06.376Z</time></trkpt><trkpt lat="41.6534765" lon="13.039821"><ele>265.25</ele><time>2026-05-03T07:37:07.367Z</time></trkpt><trkpt lat="41.6536258" lon="13.0398926"><ele>264.5</ele><time>2026-05-03T07:37:08.373Z</time></trkpt><trkpt lat="41.6537626" lon="13.0399553"><ele>263.75</ele><time>2026-05-03T07:37:09.374Z</time></trkpt><trkpt lat="41.6538919" lon="13.0400175"><ele>263.0</ele><time>2026-05-03T07:37:10.368Z</time></trkpt><trkpt lat="41.6540164" lon="13.0400809"><ele>262.0</ele><time>2026-05-03T07:37:11.365Z</time></trkpt><trkpt lat="41.6541297" lon="13.0401557"><ele>261.0</ele><time>2026-05-03T07:37:12.365Z</time></trkpt><trkpt lat="41.6542419" lon="13.0402494"><ele>260.0</ele><time>2026-05-03T07:37:13.368Z</time></trkpt><trkpt lat="41.6543369" lon="13.0403668"><ele>259.0</ele><time>2026-05-03T07:37:14.371Z</time></trkpt><trkpt lat="41.6544103" lon="13.0404881"><ele>258.0</ele><time>2026-05-03T07:37:15.368Z</time></trkpt><trkpt lat="41.6544774" lon="13.0406134"><ele>257.0</ele><time>2026-05-03T07:37:16.368Z</time></trkpt><trkpt lat="41.6545287" lon="13.0407415"><ele>255.99999999999997</ele><time>2026-05-03T07:37:17.372Z</time></trkpt><trkpt lat="41.654578" lon="13.0408747"><ele>255.0</ele><time>2026-05-03T07:37:18.372Z</time></trkpt><trkpt lat="41.6546246" lon="13.04099"><ele>254.0</ele><time>2026-05-03T07:37:19.373Z</time></trkpt><trkpt lat="41.6546726" lon="13.0411114"><ele>253.75</ele><time>2026-05-03T07:37:20.378Z</time></trkpt><trkpt lat="41.6547308" lon="13.0412373"><ele>253.5</ele><time>2026-05-03T07:37:21.371Z</time></trkpt><trkpt lat="41.6547883" lon="13.0413902"><ele>253.25</ele><time>2026-05-03T07:37:22.371Z</time></trkpt><trkpt lat="41.6548482" lon="13.0415401"><ele>253.0</ele><time>2026-05-03T07:37:23.365Z</time></trkpt><trkpt lat="41.65492" lon="13.0417011"><ele>253.0</ele><time>2026-05-03T07:37:24.375Z</time></trkpt><trkpt lat="41.6549926" lon="13.0418742"><ele>253.0</ele><time>2026-05-03T07:37:25.371Z</time></trkpt><trkpt lat="41.6550675" lon="13.0420556"><ele>253.0</ele><time>2026-05-03T07:37:26.367Z</time></trkpt><trkpt lat="41.6551374" lon="13.042216"><ele>253.0</ele><time>2026-05-03T07:37:27.371Z</time></trkpt><trkpt lat="41.6552226" lon="13.0423676"><ele>253.33333333333331</ele><time>2026-05-03T07:37:28.376Z</time></trkpt><trkpt lat="41.6553241" lon="13.0425068"><ele>253.66666666666669</ele><time>2026-05-03T07:37:29.366Z</time></trkpt><trkpt lat="41.6554447" lon="13.0426242"><ele>254.0</ele><time>2026-05-03T07:37:30.377Z</time></trkpt><trkpt lat="41.6555862" lon="13.0427153"><ele>254.0</ele><time>2026-05-03T07:37:31.371Z</time></trkpt><trkpt lat="41.655745" lon="13.0427719"><ele>254.0</ele><time>2026-05-03T07:37:32.367Z</time></trkpt><trkpt lat="41.655923" lon="13.0427952"><ele>254.0</ele><time>2026-05-03T07:37:33.368Z</time></trkpt><trkpt lat="41.6561315" lon="13.0427871"><ele>252.5</ele><time>2026-05-03T07:37:34.37Z</time></trkpt><trkpt lat="41.6563813" lon="13.0427611"><ele>251.0</ele><time>2026-05-03T07:37:35.364Z</time></trkpt><trkpt lat="41.6566446" lon="13.0427274"><ele>251.0</ele><time>2026-05-03T07:37:36.365Z</time></trkpt><trkpt lat="41.6569033" lon="13.0426942"><ele>251.0</ele><time>2026-05-03T07:37:37.366Z</time></trkpt><trkpt lat="41.6571515" lon="13.0426628"><ele>250.5</ele><time>2026-05-03T07:37:38.373Z</time></trkpt><trkpt lat="41.6573948" lon="13.0426349"><ele>250.0</ele><time>2026-05-03T07:37:39.37Z</time></trkpt><trkpt lat="41.6576194" lon="13.042607"><ele>249.66666666666666</ele><time>2026-05-03T07:37:40.364Z</time></trkpt><trkpt lat="41.6578427" lon="13.0425835"><ele>249.33333333333331</ele><time>2026-05-03T07:37:41.373Z</time></trkpt><trkpt lat="41.658063" lon="13.0425593"><ele>249.0</ele><time>2026-05-03T07:37:42.365Z</time></trkpt><trkpt lat="41.6582776" lon="13.0425311"><ele>249.0</ele><time>2026-05-03T07:37:43.371Z</time></trkpt><trkpt lat="41.6584834" lon="13.0425023"><ele>249.0</ele><time>2026-05-03T07:37:44.376Z</time></trkpt><trkpt lat="41.6586784" lon="13.0424685"><ele>249.0</ele><time>2026-05-03T07:37:45.375Z</time></trkpt><trkpt lat="41.6588662" lon="13.0424503"><ele>249.33333333333331</ele><time>2026-05-03T07:37:46.368Z</time></trkpt><trkpt lat="41.659041" lon="13.0424598"><ele>249.66666666666666</ele><time>2026-05-03T07:37:47.374Z</time></trkpt><trkpt lat="41.6592261" lon="13.0425018"><ele>250.0</ele><time>2026-05-03T07:37:48.38Z</time></trkpt><trkpt lat="41.6594143" lon="13.0425785"><ele>249.0</ele><time>2026-05-03T07:37:49.376Z</time></trkpt><trkpt lat="41.659616" lon="13.042687"><ele>248.0</ele><time>2026-05-03T07:37:50.371Z</time></trkpt><trkpt lat="41.6598328" lon="13.0427879"><ele>247.0</ele><time>2026-05-03T07:37:51.365Z</time></trkpt><trkpt lat="41.6600698" lon="13.0428829"><ele>247.0</ele><time>2026-05-03T07:37:52.365Z</time></trkpt><trkpt lat="41.6603134" lon="13.0429831"><ele>247.0</ele><time>2026-05-03T07:37:53.379Z</time></trkpt><trkpt lat="41.6605536" lon="13.0430785"><ele>247.0</ele><time>2026-05-03T07:37:54.372Z</time></trkpt><trkpt lat="41.6607742" lon="13.0431587"><ele>247.0</ele><time>2026-05-03T07:37:55.37Z</time></trkpt><trkpt lat="41.6609928" lon="13.0432311"><ele>246.66666666666666</ele><time>2026-05-03T07:37:56.376Z</time></trkpt><trkpt lat="41.6612019" lon="13.0432874"><ele>246.33333333333331</ele><time>2026-05-03T07:37:57.376Z</time></trkpt><trkpt lat="41.6614024" lon="13.043355"><ele>246.0</ele><time>2026-05-03T07:37:58.379Z</time></trkpt><trkpt lat="41.6615995" lon="13.0434495"><ele>246.0</ele><time>2026-05-03T07:37:59.376Z</time></trkpt><trkpt lat="41.6617975" lon="13.0435824"><ele>246.0</ele><time>2026-05-03T07:38:00.374Z</time></trkpt><trkpt lat="41.6619891" lon="13.0437392"><ele>246.0</ele><time>2026-05-03T07:38:01.377Z</time></trkpt><trkpt lat="41.6621518" lon="13.0439422"><ele>245.0</ele><time>2026-05-03T07:38:02.374Z</time></trkpt><trkpt lat="41.662317" lon="13.0441648"><ele>244.0</ele><time>2026-05-03T07:38:03.382Z</time></trkpt><trkpt lat="41.6624858" lon="13.0444413"><ele>244.0</ele><time>2026-05-03T07:38:04.373Z</time></trkpt><trkpt lat="41.6626744" lon="13.0447527"><ele>244.0</ele><time>2026-05-03T07:38:05.374Z</time></trkpt><trkpt lat="41.6629115" lon="13.0451091"><ele>242.0</ele><time>2026-05-03T07:38:06.377Z</time></trkpt><trkpt lat="41.6631577" lon="13.0454752"><ele>240.0</ele><time>2026-05-03T07:38:07.369Z</time></trkpt><trkpt lat="41.663384" lon="13.0458096"><ele>237.5</ele><time>2026-05-03T07:38:08.365Z</time></trkpt><trkpt lat="41.6636017" lon="13.0461205"><ele>235.0</ele><time>2026-05-03T07:38:09.368Z</time></trkpt><trkpt lat="41.6638018" lon="13.0464098"><ele>240.0</ele><time>2026-05-03T07:38:10.372Z</time></trkpt><trkpt lat="41.6639874" lon="13.0466678"><ele>245.0</ele><time>2026-05-03T07:38:11.365Z</time></trkpt><trkpt lat="41.6641555" lon="13.0468921"><ele>245.0</ele><time>2026-05-03T07:38:12.367Z</time></trkpt><trkpt lat="41.6643197" lon="13.047077"><ele>245.0</ele><time>2026-05-03T07:38:13.372Z</time></trkpt><trkpt lat="41.6644867" lon="13.047232"><ele>245.0</ele><time>2026-05-03T07:38:14.367Z</time></trkpt><trkpt lat="41.6646657" lon="13.0473463"><ele>244.33333333333334</ele><time>2026-05-03T07:38:15.367Z</time></trkpt><trkpt lat="41.6648443" lon="13.0474638"><ele>243.66666666666669</ele><time>2026-05-03T07:38:16.369Z</time></trkpt><trkpt lat="41.6650299" lon="13.0476237"><ele>243.0</ele><time>2026-05-03T07:38:17.369Z</time></trkpt><trkpt lat="41.6652234" lon="13.0478174"><ele>238.5</ele><time>2026-05-03T07:38:18.366Z</time></trkpt><trkpt lat="41.6654198" lon="13.0480441"><ele>234.0</ele><time>2026-05-03T07:38:19.365Z</time></trkpt><trkpt lat="41.6656027" lon="13.0482758"><ele>235.5</ele><time>2026-05-03T07:38:20.366Z</time></trkpt><trkpt lat="41.6657919" lon="13.0484879"><ele>237.0</ele><time>2026-05-03T07:38:21.373Z</time></trkpt><trkpt lat="41.6659942" lon="13.0486845"><ele>235.0</ele><time>2026-05-03T07:38:22.369Z</time></trkpt><trkpt lat="41.6662257" lon="13.0488844"><ele>233.0</ele><time>2026-05-03T07:38:23.367Z</time></trkpt><trkpt lat="41.6664788" lon="13.0490821"><ele>235.0</ele><time>2026-05-03T07:38:24.368Z</time></trkpt><trkpt lat="41.666738" lon="13.0492811"><ele>237.0</ele><time>2026-05-03T07:38:25.364Z</time></trkpt><trkpt lat="41.6669765" lon="13.049474"><ele>233.0</ele><time>2026-05-03T07:38:26.369Z</time></trkpt><trkpt lat="41.6672106" lon="13.0496571"><ele>229.0</ele><time>2026-05-03T07:38:27.367Z</time></trkpt><trkpt lat="41.6674341" lon="13.049837"><ele>229.5</ele><time>2026-05-03T07:38:28.368Z</time></trkpt><trkpt lat="41.6676539" lon="13.0500135"><ele>230.0</ele><time>2026-05-03T07:38:29.366Z</time></trkpt><trkpt lat="41.6678823" lon="13.0501726"><ele>229.0</ele><time>2026-05-03T07:38:30.366Z</time></trkpt><trkpt lat="41.668119" lon="13.0503108"><ele>228.0</ele><time>2026-05-03T07:38:31.368Z</time></trkpt><trkpt lat="41.6683539" lon="13.0504392"><ele>228.0</ele><time>2026-05-03T07:38:32.369Z</time></trkpt><trkpt lat="41.6685912" lon="13.0505572"><ele>228.0</ele><time>2026-05-03T07:38:33.366Z</time></trkpt><trkpt lat="41.6688296" lon="13.0506667"><ele>227.0</ele><time>2026-05-03T07:38:34.371Z</time></trkpt><trkpt lat="41.6690836" lon="13.0507683"><ele>226.0</ele><time>2026-05-03T07:38:35.371Z</time></trkpt><trkpt lat="41.6693505" lon="13.0508636"><ele>225.5</ele><time>2026-05-03T07:38:36.367Z</time></trkpt><trkpt lat="41.6696239" lon="13.0509512"><ele>225.0</ele><time>2026-05-03T07:38:37.377Z</time></trkpt><trkpt lat="41.6698818" lon="13.0510351"><ele>225.0</ele><time>2026-05-03T07:38:38.374Z</time></trkpt><trkpt lat="41.6701189" lon="13.0511088"><ele>225.0</ele><time>2026-05-03T07:38:39.372Z</time></trkpt><trkpt lat="41.6703444" lon="13.0511765"><ele>224.33333333333331</ele><time>2026-05-03T07:38:40.367Z</time></trkpt><trkpt lat="41.6705578" lon="13.0512444"><ele>223.66666666666666</ele><time>2026-05-03T07:38:41.37Z</time></trkpt><trkpt lat="41.6707763" lon="13.0513096"><ele>223.0</ele><time>2026-05-03T07:38:42.367Z</time></trkpt><trkpt lat="41.6709903" lon="13.0513747"><ele>222.66666666666666</ele><time>2026-05-03T07:38:43.367Z</time></trkpt><trkpt lat="41.6712068" lon="13.0514425"><ele>222.33333333333331</ele><time>2026-05-03T07:38:44.369Z</time></trkpt><trkpt lat="41.6714126" lon="13.0515137"><ele>222.0</ele><time>2026-05-03T07:38:45.368Z</time></trkpt><trkpt lat="41.6716218" lon="13.051581"><ele>222.33333333333331</ele><time>2026-05-03T07:38:46.37Z</time></trkpt><trkpt lat="41.6718064" lon="13.0516554"><ele>222.66666666666666</ele><time>2026-05-03T07:38:47.369Z</time></trkpt><trkpt lat="41.6719886" lon="13.0517312"><ele>223.0</ele><time>2026-05-03T07:38:48.367Z</time></trkpt><trkpt lat="41.6721697" lon="13.051808"><ele>223.33333333333331</ele><time>2026-05-03T07:38:49.369Z</time></trkpt><trkpt lat="41.6723462" lon="13.0518896"><ele>223.66666666666669</ele><time>2026-05-03T07:38:50.363Z</time></trkpt><trkpt lat="41.6725193" lon="13.051974"><ele>224.0</ele><time>2026-05-03T07:38:51.372Z</time></trkpt><trkpt lat="41.6726936" lon="13.0520508"><ele>223.33333333333334</ele><time>2026-05-03T07:38:52.368Z</time></trkpt><trkpt lat="41.6728765" lon="13.0521074"><ele>222.66666666666669</ele><time>2026-05-03T07:38:53.368Z</time></trkpt><trkpt lat="41.6730601" lon="13.0521461"><ele>222.0</ele><time>2026-05-03T07:38:54.37Z</time></trkpt><trkpt lat="41.6732627" lon="13.0521665"><ele>222.0</ele><time>2026-05-03T07:38:55.374Z</time></trkpt><trkpt lat="41.673458" lon="13.0521708"><ele>222.0</ele><time>2026-05-03T07:38:56.367Z</time></trkpt><trkpt lat="41.6736471" lon="13.0521822"><ele>222.0</ele><time>2026-05-03T07:38:57.377Z</time></trkpt><trkpt lat="41.6738377" lon="13.0522024"><ele>222.0</ele><time>2026-05-03T07:38:58.366Z</time></trkpt><trkpt lat="41.6740119" lon="13.052225"><ele>222.0</ele><time>2026-05-03T07:38:59.369Z</time></trkpt><trkpt lat="41.6741799" lon="13.0522516"><ele>222.0</ele><time>2026-05-03T07:39:00.376Z</time></trkpt><trkpt lat="41.6743489" lon="13.0522915"><ele>221.33333333333331</ele><time>2026-05-03T07:39:01.379Z</time></trkpt><trkpt lat="41.6745169" lon="13.0523379"><ele>220.66666666666666</ele><time>2026-05-03T07:39:02.37Z</time></trkpt><trkpt lat="41.6746876" lon="13.0523963"><ele>220.0</ele><time>2026-05-03T07:39:03.366Z</time></trkpt><trkpt lat="41.6748625" lon="13.052461"><ele>220.0</ele><time>2026-05-03T07:39:04.365Z</time></trkpt><trkpt lat="41.6750326" lon="13.0525327"><ele>220.0</ele><time>2026-05-03T07:39:05.367Z</time></trkpt><trkpt lat="41.6751929" lon="13.0526032"><ele>220.0</ele><time>2026-05-03T07:39:06.372Z</time></trkpt><trkpt lat="41.6753395" lon="13.0527008"><ele>220.0</ele><time>2026-05-03T07:39:07.368Z</time></trkpt><trkpt lat="41.6754828" lon="13.052813"><ele>220.0</ele><time>2026-05-03T07:39:08.381Z</time></trkpt><trkpt lat="41.6756281" lon="13.0529647"><ele>220.0</ele><time>2026-05-03T07:39:09.366Z</time></trkpt><trkpt lat="41.6757753" lon="13.0531473"><ele>227.0</ele><time>2026-05-03T07:39:10.369Z</time></trkpt><trkpt lat="41.6759209" lon="13.0533579"><ele>234.0</ele><time>2026-05-03T07:39:11.371Z</time></trkpt><trkpt lat="41.6760833" lon="13.0535886"><ele>226.0</ele><time>2026-05-03T07:39:12.369Z</time></trkpt><trkpt lat="41.6762591" lon="13.0538301"><ele>218.0</ele><time>2026-05-03T07:39:13.364Z</time></trkpt><trkpt lat="41.6764375" lon="13.0540689"><ele>223.0</ele><time>2026-05-03T07:39:14.365Z</time></trkpt><trkpt lat="41.6765935" lon="13.0542923"><ele>228.0</ele><time>2026-05-03T07:39:15.364Z</time></trkpt><trkpt lat="41.6767479" lon="13.0545067"><ele>228.0</ele><time>2026-05-03T07:39:16.365Z</time></trkpt><trkpt lat="41.6769055" lon="13.0547169"><ele>228.0</ele><time>2026-05-03T07:39:17.364Z</time></trkpt><trkpt lat="41.6770469" lon="13.054917"><ele>228.0</ele><time>2026-05-03T07:39:18.366Z</time></trkpt><trkpt lat="41.6771864" lon="13.0551023"><ele>225.33333333333331</ele><time>2026-05-03T07:39:19.361Z</time></trkpt><trkpt lat="41.6773163" lon="13.055273"><ele>222.66666666666666</ele><time>2026-05-03T07:39:20.364Z</time></trkpt><trkpt lat="41.6774515" lon="13.0554185"><ele>220.0</ele><time>2026-05-03T07:39:21.362Z</time></trkpt><trkpt lat="41.6776052" lon="13.0555472"><ele>218.66666666666666</ele><time>2026-05-03T07:39:22.369Z</time></trkpt><trkpt lat="41.6777787" lon="13.0556357"><ele>217.33333333333331</ele><time>2026-05-03T07:39:23.364Z</time></trkpt><trkpt lat="41.6779599" lon="13.0557083"><ele>216.0</ele><time>2026-05-03T07:39:24.365Z</time></trkpt><trkpt lat="41.6781566" lon="13.0557983"><ele>215.5</ele><time>2026-05-03T07:39:25.363Z</time></trkpt><trkpt lat="41.6783718" lon="13.0559346"><ele>215.0</ele><time>2026-05-03T07:39:26.365Z</time></trkpt><trkpt lat="41.6786178" lon="13.0561007"><ele>216.0</ele><time>2026-05-03T07:39:27.369Z</time></trkpt><trkpt lat="41.6788642" lon="13.056275"><ele>217.0</ele><time>2026-05-03T07:39:28.366Z</time></trkpt><trkpt lat="41.679114" lon="13.0564451"><ele>217.0</ele><time>2026-05-03T07:39:29.376Z</time></trkpt><trkpt lat="41.6793662" lon="13.0565987"><ele>217.0</ele><time>2026-05-03T07:39:30.376Z</time></trkpt><trkpt lat="41.6796228" lon="13.0567418"><ele>218.0</ele><time>2026-05-03T07:39:31.375Z</time></trkpt><trkpt lat="41.6798842" lon="13.0568758"><ele>219.0</ele><time>2026-05-03T07:39:32.374Z</time></trkpt><trkpt lat="41.6801315" lon="13.0570089"><ele>225.5</ele><time>2026-05-03T07:39:33.376Z</time></trkpt><trkpt lat="41.6803712" lon="13.0571343"><ele>232.0</ele><time>2026-05-03T07:39:34.375Z</time></trkpt><trkpt lat="41.6805922" lon="13.0572701"><ele>232.0</ele><time>2026-05-03T07:39:35.365Z</time></trkpt><trkpt lat="41.680795" lon="13.0574223"><ele>232.0</ele><time>2026-05-03T07:39:36.368Z</time></trkpt><trkpt lat="41.6809807" lon="13.0575797"><ele>231.66666666666666</ele><time>2026-05-03T07:39:37.368Z</time></trkpt><trkpt lat="41.6811449" lon="13.0577256"><ele>231.33333333333331</ele><time>2026-05-03T07:39:38.374Z</time></trkpt><trkpt lat="41.6812918" lon="13.0578405"><ele>231.0</ele><time>2026-05-03T07:39:39.375Z</time></trkpt><trkpt lat="41.6814383" lon="13.0579212"><ele>231.0</ele><time>2026-05-03T07:39:40.366Z</time></trkpt><trkpt lat="41.6816015" lon="13.057956"><ele>231.0</ele><time>2026-05-03T07:39:41.368Z</time></trkpt><trkpt lat="41.6817799" lon="13.057943"><ele>231.0</ele><time>2026-05-03T07:39:42.37Z</time></trkpt><trkpt lat="41.6819748" lon="13.0578898"><ele>233.33333333333331</ele><time>2026-05-03T07:39:43.37Z</time></trkpt><trkpt lat="41.6821799" lon="13.0578001"><ele>235.66666666666666</ele><time>2026-05-03T07:39:44.374Z</time></trkpt><trkpt lat="41.682384" lon="13.0577005"><ele>238.0</ele><time>2026-05-03T07:39:45.366Z</time></trkpt><trkpt lat="41.6825557" lon="13.0576281"><ele>238.0</ele><time>2026-05-03T07:39:46.368Z</time></trkpt><trkpt lat="41.682702" lon="13.0575902"><ele>238.0</ele><time>2026-05-03T07:39:47.375Z</time></trkpt><trkpt lat="41.6828389" lon="13.0575857"><ele>238.0</ele><time>2026-05-03T07:39:48.369Z</time></trkpt><trkpt lat="41.6829536" lon="13.0576338"><ele>238.0</ele><time>2026-05-03T07:39:49.367Z</time></trkpt><trkpt lat="41.6830547" lon="13.0577293"><ele>239.25</ele><time>2026-05-03T07:39:50.368Z</time></trkpt><trkpt lat="41.6831471" lon="13.0578607"><ele>240.5</ele><time>2026-05-03T07:39:51.366Z</time></trkpt><trkpt lat="41.6832388" lon="13.0579716"><ele>241.75</ele><time>2026-05-03T07:39:52.368Z</time></trkpt><trkpt lat="41.6833488" lon="13.0580579"><ele>243.0</ele><time>2026-05-03T07:39:53.368Z</time></trkpt><trkpt lat="41.6834755" lon="13.0580969"><ele>244.75</ele><time>2026-05-03T07:39:54.377Z</time></trkpt><trkpt lat="41.6836094" lon="13.0580847"><ele>246.5</ele><time>2026-05-03T07:39:55.368Z</time></trkpt><trkpt lat="41.6837381" lon="13.0580178"><ele>248.25</ele><time>2026-05-03T07:39:56.372Z</time></trkpt><trkpt lat="41.6838677" lon="13.0578975"><ele>250.0</ele><time>2026-05-03T07:39:57.383Z</time></trkpt><trkpt lat="41.6840114" lon="13.0577388"><ele>250.0</ele><time>2026-05-03T07:39:58.369Z</time></trkpt><trkpt lat="41.6841799" lon="13.0575489"><ele>250.0</ele><time>2026-05-03T07:39:59.375Z</time></trkpt><trkpt lat="41.6843487" lon="13.0573538"><ele>250.0</ele><time>2026-05-03T07:40:00.375Z</time></trkpt><trkpt lat="41.6845" lon="13.0571835"><ele>252.0</ele><time>2026-05-03T07:40:01.372Z</time></trkpt><trkpt lat="41.6846616" lon="13.057013"><ele>254.0</ele><time>2026-05-03T07:40:02.368Z</time></trkpt><trkpt lat="41.684828" lon="13.0568403"><ele>256.0</ele><time>2026-05-03T07:40:03.377Z</time></trkpt><trkpt lat="41.6849856" lon="13.0566865"><ele>256.66666666666663</ele><time>2026-05-03T07:40:04.37Z</time></trkpt><trkpt lat="41.6851507" lon="13.0565654"><ele>257.3333333333333</ele><time>2026-05-03T07:40:05.368Z</time></trkpt><trkpt lat="41.6853227" lon="13.0564897"><ele>258.0</ele><time>2026-05-03T07:40:06.375Z</time></trkpt><trkpt lat="41.6855032" lon="13.0564535"><ele>256.3333333333333</ele><time>2026-05-03T07:40:07.368Z</time></trkpt><trkpt lat="41.6856767" lon="13.0564365"><ele>254.66666666666666</ele><time>2026-05-03T07:40:08.367Z</time></trkpt><trkpt lat="41.685834" lon="13.0564005"><ele>253.0</ele><time>2026-05-03T07:40:09.369Z</time></trkpt><trkpt lat="41.6859792" lon="13.056327"><ele>251.0</ele><time>2026-05-03T07:40:10.374Z</time></trkpt><trkpt lat="41.6861028" lon="13.0562059"><ele>249.0</ele><time>2026-05-03T07:40:11.368Z</time></trkpt><trkpt lat="41.6862124" lon="13.0560248"><ele>247.0</ele><time>2026-05-03T07:40:12.376Z</time></trkpt><trkpt lat="41.686304" lon="13.0557986"><ele>246.0</ele><time>2026-05-03T07:40:13.373Z</time></trkpt><trkpt lat="41.6864072" lon="13.0555573"><ele>245.0</ele><time>2026-05-03T07:40:14.367Z</time></trkpt><trkpt lat="41.6865305" lon="13.055326"><ele>244.0</ele><time>2026-05-03T07:40:15.368Z</time></trkpt><trkpt lat="41.6866683" lon="13.0551012"><ele>243.5</ele><time>2026-05-03T07:40:16.374Z</time></trkpt><trkpt lat="41.6868317" lon="13.0548784"><ele>243.0</ele><time>2026-05-03T07:40:17.363Z</time></trkpt><trkpt lat="41.6870068" lon="13.0546916"><ele>243.0</ele><time>2026-05-03T07:40:18.367Z</time></trkpt><trkpt lat="41.6871896" lon="13.0545254"><ele>243.0</ele><time>2026-05-03T07:40:19.377Z</time></trkpt><trkpt lat="41.6873572" lon="13.0543577"><ele>243.0</ele><time>2026-05-03T07:40:20.368Z</time></trkpt><trkpt lat="41.6875184" lon="13.0541546"><ele>243.5</ele><time>2026-05-03T07:40:21.38Z</time></trkpt><trkpt lat="41.6876646" lon="13.0539244"><ele>244.0</ele><time>2026-05-03T07:40:22.363Z</time></trkpt><trkpt lat="41.6877898" lon="13.0536696"><ele>244.0</ele><time>2026-05-03T07:40:23.368Z</time></trkpt><trkpt lat="41.6879087" lon="13.0533855"><ele>244.0</ele><time>2026-05-03T07:40:24.376Z</time></trkpt><trkpt lat="41.6880094" lon="13.0530856"><ele>243.66666666666666</ele><time>2026-05-03T07:40:25.37Z</time></trkpt><trkpt lat="41.688097" lon="13.0527997"><ele>243.33333333333331</ele><time>2026-05-03T07:40:26.37Z</time></trkpt><trkpt lat="41.6881837" lon="13.0525643"><ele>243.0</ele><time>2026-05-03T07:40:27.367Z</time></trkpt><trkpt lat="41.6882811" lon="13.0523552"><ele>243.66666666666669</ele><time>2026-05-03T07:40:28.372Z</time></trkpt><trkpt lat="41.6883944" lon="13.0521895"><ele>244.33333333333334</ele><time>2026-05-03T07:40:29.373Z</time></trkpt><trkpt lat="41.688539" lon="13.0520356"><ele>245.0</ele><time>2026-05-03T07:40:30.365Z</time></trkpt><trkpt lat="41.6887169" lon="13.05189"><ele>245.0</ele><time>2026-05-03T07:40:31.371Z</time></trkpt><trkpt lat="41.6889254" lon="13.0517577"><ele>245.0</ele><time>2026-05-03T07:40:32.369Z</time></trkpt><trkpt lat="41.6891473" lon="13.0516239"><ele>245.5</ele><time>2026-05-03T07:40:33.377Z</time></trkpt><trkpt lat="41.6893708" lon="13.0514918"><ele>246.0</ele><time>2026-05-03T07:40:34.367Z</time></trkpt><trkpt lat="41.6895876" lon="13.0513574"><ele>246.0</ele><time>2026-05-03T07:40:35.376Z</time></trkpt><trkpt lat="41.6898027" lon="13.0512136"><ele>246.0</ele><time>2026-05-03T07:40:36.366Z</time></trkpt><trkpt lat="41.6900131" lon="13.0510693"><ele>246.0</ele><time>2026-05-03T07:40:37.38Z</time></trkpt><trkpt lat="41.6902186" lon="13.0509225"><ele>246.0</ele><time>2026-05-03T07:40:38.361Z</time></trkpt><trkpt lat="41.6904258" lon="13.0507827"><ele>244.66666666666669</ele><time>2026-05-03T07:40:39.379Z</time></trkpt><trkpt lat="41.6906318" lon="13.0506543"><ele>243.33333333333334</ele><time>2026-05-03T07:40:40.379Z</time></trkpt><trkpt lat="41.6908272" lon="13.0505347"><ele>242.0</ele><time>2026-05-03T07:40:41.364Z</time></trkpt><trkpt lat="41.6910053" lon="13.0504246"><ele>241.33333333333334</ele><time>2026-05-03T07:40:42.378Z</time></trkpt><trkpt lat="41.6911682" lon="13.0503205"><ele>240.66666666666669</ele><time>2026-05-03T07:40:43.366Z</time></trkpt><trkpt lat="41.6913212" lon="13.0502217"><ele>240.0</ele><time>2026-05-03T07:40:44.367Z</time></trkpt><trkpt lat="41.6914511" lon="13.0501442"><ele>240.0</ele><time>2026-05-03T07:40:45.371Z</time></trkpt><trkpt lat="41.6915674" lon="13.0500762"><ele>240.0</ele><time>2026-05-03T07:40:46.372Z</time></trkpt><trkpt lat="41.6916741" lon="13.0500266"><ele>240.0</ele><time>2026-05-03T07:40:47.368Z</time></trkpt><trkpt lat="41.6917743" lon="13.0500079"><ele>240.0</ele><time>2026-05-03T07:40:48.377Z</time></trkpt><trkpt lat="41.6918639" lon="13.0500288"><ele>240.0</ele><time>2026-05-03T07:40:49.371Z</time></trkpt><trkpt lat="41.6919483" lon="13.0500724"><ele>240.25</ele><time>2026-05-03T07:40:50.372Z</time></trkpt><trkpt lat="41.6920316" lon="13.0501596"><ele>240.5</ele><time>2026-05-03T07:40:51.375Z</time></trkpt><trkpt lat="41.692102" lon="13.0502736"><ele>240.75</ele><time>2026-05-03T07:40:52.382Z</time></trkpt><trkpt lat="41.6921512" lon="13.0504114"><ele>241.0</ele><time>2026-05-03T07:40:53.378Z</time></trkpt><trkpt lat="41.6921858" lon="13.0505935"><ele>241.66666666666666</ele><time>2026-05-03T07:40:54.37Z</time></trkpt><trkpt lat="41.6922055" lon="13.0508169"><ele>242.33333333333331</ele><time>2026-05-03T07:40:55.372Z</time></trkpt><trkpt lat="41.69222" lon="13.0510711"><ele>243.0</ele><time>2026-05-03T07:40:56.37Z</time></trkpt><trkpt lat="41.6922342" lon="13.0513351"><ele>243.0</ele><time>2026-05-03T07:40:57.379Z</time></trkpt><trkpt lat="41.6922404" lon="13.0515712"><ele>243.0</ele><time>2026-05-03T07:40:58.368Z</time></trkpt><trkpt lat="41.692228" lon="13.0517918"><ele>243.0</ele><time>2026-05-03T07:40:59.377Z</time></trkpt><trkpt lat="41.6921874" lon="13.0520258"><ele>243.0</ele><time>2026-05-03T07:41:00.368Z</time></trkpt><trkpt lat="41.6921178" lon="13.0522836"><ele>243.0</ele><time>2026-05-03T07:41:01.376Z</time></trkpt><trkpt lat="41.6920235" lon="13.0525764"><ele>243.0</ele><time>2026-05-03T07:41:02.368Z</time></trkpt><trkpt lat="41.6919167" lon="13.0528929"><ele>242.5</ele><time>2026-05-03T07:41:03.376Z</time></trkpt><trkpt lat="41.6918088" lon="13.0531982"><ele>242.0</ele><time>2026-05-03T07:41:04.377Z</time></trkpt><trkpt lat="41.6917079" lon="13.0534796"><ele>242.0</ele><time>2026-05-03T07:41:05.377Z</time></trkpt><trkpt lat="41.6916121" lon="13.0537441"><ele>242.0</ele><time>2026-05-03T07:41:06.374Z</time></trkpt><trkpt lat="41.6915177" lon="13.0539786"><ele>242.0</ele><time>2026-05-03T07:41:07.379Z</time></trkpt><trkpt lat="41.6914094" lon="13.0541963"><ele>240.0</ele><time>2026-05-03T07:41:08.376Z</time></trkpt><trkpt lat="41.6912902" lon="13.0544046"><ele>238.0</ele><time>2026-05-03T07:41:09.375Z</time></trkpt><trkpt lat="41.6911781" lon="13.054607"><ele>236.0</ele><time>2026-05-03T07:41:10.37Z</time></trkpt><trkpt lat="41.691068" lon="13.0548038"><ele>236.33333333333334</ele><time>2026-05-03T07:41:11.369Z</time></trkpt><trkpt lat="41.6909751" lon="13.0549953"><ele>236.66666666666669</ele><time>2026-05-03T07:41:12.376Z</time></trkpt><trkpt lat="41.6908978" lon="13.0551948"><ele>237.0</ele><time>2026-05-03T07:41:13.37Z</time></trkpt><trkpt lat="41.6908367" lon="13.0553944"><ele>237.0</ele><time>2026-05-03T07:41:14.367Z</time></trkpt><trkpt lat="41.6907974" lon="13.0555864"><ele>237.0</ele><time>2026-05-03T07:41:15.374Z</time></trkpt><trkpt lat="41.6907877" lon="13.0557863"><ele>237.0</ele><time>2026-05-03T07:41:16.376Z</time></trkpt><trkpt lat="41.690803" lon="13.0560151"><ele>236.33333333333331</ele><time>2026-05-03T07:41:17.378Z</time></trkpt><trkpt lat="41.6908347" lon="13.0562402"><ele>235.66666666666666</ele><time>2026-05-03T07:41:18.375Z</time></trkpt><trkpt lat="41.6908566" lon="13.0564628"><ele>235.0</ele><time>2026-05-03T07:41:19.376Z</time></trkpt><trkpt lat="41.6908635" lon="13.0566742"><ele>234.33333333333331</ele><time>2026-05-03T07:41:20.377Z</time></trkpt><trkpt lat="41.6908467" lon="13.0568927"><ele>233.66666666666669</ele><time>2026-05-03T07:41:21.388Z</time></trkpt><trkpt lat="41.6908054" lon="13.0571329"><ele>233.0</ele><time>2026-05-03T07:41:22.369Z</time></trkpt><trkpt lat="41.6907459" lon="13.0573923"><ele>233.33333333333334</ele><time>2026-05-03T07:41:23.37Z</time></trkpt><trkpt lat="41.6906797" lon="13.0576573"><ele>233.66666666666669</ele><time>2026-05-03T07:41:24.379Z</time></trkpt><trkpt lat="41.6906091" lon="13.0579085"><ele>234.0</ele><time>2026-05-03T07:41:25.37Z</time></trkpt><trkpt lat="41.6905484" lon="13.0581414"><ele>234.33333333333331</ele><time>2026-05-03T07:41:26.371Z</time></trkpt><trkpt lat="41.6904921" lon="13.0583749"><ele>234.66666666666666</ele><time>2026-05-03T07:41:27.374Z</time></trkpt><trkpt lat="41.6904369" lon="13.0586"><ele>235.0</ele><time>2026-05-03T07:41:28.375Z</time></trkpt><trkpt lat="41.6903864" lon="13.0588026"><ele>235.0</ele><time>2026-05-03T07:41:29.367Z</time></trkpt><trkpt lat="41.6903418" lon="13.0589861"><ele>235.0</ele><time>2026-05-03T07:41:30.376Z</time></trkpt><trkpt lat="41.6903084" lon="13.0591636"><ele>235.0</ele><time>2026-05-03T07:41:31.373Z</time></trkpt><trkpt lat="41.690286" lon="13.059353"><ele>235.0</ele><time>2026-05-03T07:41:32.373Z</time></trkpt><trkpt lat="41.6902762" lon="13.0595448"><ele>236.66666666666666</ele><time>2026-05-03T07:41:33.363Z</time></trkpt><trkpt lat="41.6902795" lon="13.059741"><ele>238.33333333333331</ele><time>2026-05-03T07:41:34.366Z</time></trkpt><trkpt lat="41.6902904" lon="13.0599908"><ele>240.0</ele><time>2026-05-03T07:41:35.365Z</time></trkpt><trkpt lat="41.6902987" lon="13.0602934"><ele>242.0</ele><time>2026-05-03T07:41:36.367Z</time></trkpt><trkpt lat="41.6903075" lon="13.0606093"><ele>244.0</ele><time>2026-05-03T07:41:37.38Z</time></trkpt><trkpt lat="41.6903179" lon="13.0609199"><ele>244.0</ele><time>2026-05-03T07:41:38.368Z</time></trkpt><trkpt lat="41.6903393" lon="13.0612345"><ele>244.0</ele><time>2026-05-03T07:41:39.369Z</time></trkpt><trkpt lat="41.6903723" lon="13.0615441"><ele>243.33333333333331</ele><time>2026-05-03T07:41:40.375Z</time></trkpt><trkpt lat="41.6904176" lon="13.0618293"><ele>242.66666666666669</ele><time>2026-05-03T07:41:41.369Z</time></trkpt><trkpt lat="41.6904581" lon="13.0621097"><ele>242.0</ele><time>2026-05-03T07:41:42.37Z</time></trkpt><trkpt lat="41.690479" lon="13.0623973"><ele>239.5</ele><time>2026-05-03T07:41:43.366Z</time></trkpt><trkpt lat="41.6904831" lon="13.0627233"><ele>237.0</ele><time>2026-05-03T07:41:44.374Z</time></trkpt><trkpt lat="41.6904768" lon="13.0630934"><ele>234.0</ele><time>2026-05-03T07:41:45.366Z</time></trkpt><trkpt lat="41.690467" lon="13.063453"><ele>231.0</ele><time>2026-05-03T07:41:46.368Z</time></trkpt><trkpt lat="41.6904668" lon="13.0637938"><ele>229.5</ele><time>2026-05-03T07:41:47.378Z</time></trkpt><trkpt lat="41.6904849" lon="13.0641386"><ele>228.0</ele><time>2026-05-03T07:41:48.368Z</time></trkpt><trkpt lat="41.6905204" lon="13.0644942"><ele>228.0</ele><time>2026-05-03T07:41:49.369Z</time></trkpt><trkpt lat="41.6905674" lon="13.06485"><ele>228.0</ele><time>2026-05-03T07:41:50.368Z</time></trkpt><trkpt lat="41.6906221" lon="13.0652082"><ele>227.0</ele><time>2026-05-03T07:41:51.374Z</time></trkpt><trkpt lat="41.690675" lon="13.0655341"><ele>226.0</ele><time>2026-05-03T07:41:52.376Z</time></trkpt><trkpt lat="41.6907186" lon="13.0658435"><ele>224.0</ele><time>2026-05-03T07:41:53.375Z</time></trkpt><trkpt lat="41.6907524" lon="13.0661679"><ele>222.0</ele><time>2026-05-03T07:41:54.381Z</time></trkpt><trkpt lat="41.6907689" lon="13.066498"><ele>220.5</ele><time>2026-05-03T07:41:55.376Z</time></trkpt><trkpt lat="41.6907731" lon="13.0668068"><ele>219.0</ele><time>2026-05-03T07:41:56.376Z</time></trkpt><trkpt lat="41.690773" lon="13.0671"><ele>219.0</ele><time>2026-05-03T07:41:57.376Z</time></trkpt><trkpt lat="41.6907884" lon="13.0673695"><ele>219.0</ele><time>2026-05-03T07:41:58.372Z</time></trkpt><trkpt lat="41.6908142" lon="13.0676254"><ele>219.0</ele><time>2026-05-03T07:41:59.377Z</time></trkpt><trkpt lat="41.6908593" lon="13.0678871"><ele>219.0</ele><time>2026-05-03T07:42:00.369Z</time></trkpt><trkpt lat="41.6909256" lon="13.0681628"><ele>219.0</ele><time>2026-05-03T07:42:01.364Z</time></trkpt><trkpt lat="41.6910096" lon="13.0684405"><ele>219.0</ele><time>2026-05-03T07:42:02.364Z</time></trkpt><trkpt lat="41.6910966" lon="13.0687102"><ele>219.0</ele><time>2026-05-03T07:42:03.366Z</time></trkpt><trkpt lat="41.6911863" lon="13.0689773"><ele>219.0</ele><time>2026-05-03T07:42:04.369Z</time></trkpt><trkpt lat="41.6912926" lon="13.0692477"><ele>219.0</ele><time>2026-05-03T07:42:05.367Z</time></trkpt><trkpt lat="41.6914173" lon="13.069492"><ele>220.0</ele><time>2026-05-03T07:42:06.375Z</time></trkpt><trkpt lat="41.6915653" lon="13.0697217"><ele>221.0</ele><time>2026-05-03T07:42:07.374Z</time></trkpt><trkpt lat="41.6917231" lon="13.0699542"><ele>218.5</ele><time>2026-05-03T07:42:08.375Z</time></trkpt><trkpt lat="41.6919018" lon="13.0702057"><ele>216.0</ele><time>2026-05-03T07:42:09.38Z</time></trkpt><trkpt lat="41.6920899" lon="13.0704647"><ele>217.5</ele><time>2026-05-03T07:42:10.376Z</time></trkpt><trkpt lat="41.6922573" lon="13.0707057"><ele>219.0</ele><time>2026-05-03T07:42:11.382Z</time></trkpt><trkpt lat="41.6924112" lon="13.0709285"><ele>219.0</ele><time>2026-05-03T07:42:12.37Z</time></trkpt><trkpt lat="41.6925479" lon="13.0711379"><ele>219.0</ele><time>2026-05-03T07:42:13.375Z</time></trkpt><trkpt lat="41.6926766" lon="13.0713309"><ele>219.0</ele><time>2026-05-03T07:42:14.363Z</time></trkpt><trkpt lat="41.6927885" lon="13.0715004"><ele>220.75</ele><time>2026-05-03T07:42:15.375Z</time></trkpt><trkpt lat="41.6928929" lon="13.071645"><ele>222.5</ele><time>2026-05-03T07:42:16.377Z</time></trkpt><trkpt lat="41.6929995" lon="13.0717598"><ele>224.25</ele><time>2026-05-03T07:42:17.375Z</time></trkpt><trkpt lat="41.693112" lon="13.0718451"><ele>226.0</ele><time>2026-05-03T07:42:18.373Z</time></trkpt><trkpt lat="41.693229" lon="13.0718834"><ele>226.0</ele><time>2026-05-03T07:42:19.369Z</time></trkpt><trkpt lat="41.6933699" lon="13.0718832"><ele>226.0</ele><time>2026-05-03T07:42:20.368Z</time></trkpt><trkpt lat="41.6935094" lon="13.0718664"><ele>226.0</ele><time>2026-05-03T07:42:21.368Z</time></trkpt><trkpt lat="41.6936325" lon="13.0718877"><ele>226.0</ele><time>2026-05-03T07:42:22.368Z</time></trkpt><trkpt lat="41.6937628" lon="13.0719582"><ele>226.33333333333331</ele><time>2026-05-03T07:42:23.368Z</time></trkpt><trkpt lat="41.6939098" lon="13.0720831"><ele>226.66666666666669</ele><time>2026-05-03T07:42:24.376Z</time></trkpt><trkpt lat="41.6940929" lon="13.07225"><ele>227.0</ele><time>2026-05-03T07:42:25.367Z</time></trkpt><trkpt lat="41.6943104" lon="13.0724654"><ele>230.0</ele><time>2026-05-03T07:42:26.369Z</time></trkpt><trkpt lat="41.6945597" lon="13.072715"><ele>233.0</ele><time>2026-05-03T07:42:27.375Z</time></trkpt><trkpt lat="41.6948206" lon="13.0729797"><ele>233.0</ele><time>2026-05-03T07:42:28.378Z</time></trkpt><trkpt lat="41.6950534" lon="13.0732151"><ele>233.0</ele><time>2026-05-03T07:42:29.371Z</time></trkpt><trkpt lat="41.6952768" lon="13.0734442"><ele>237.5</ele><time>2026-05-03T07:42:30.368Z</time></trkpt><trkpt lat="41.6955003" lon="13.0736714"><ele>242.0</ele><time>2026-05-03T07:42:31.381Z</time></trkpt><trkpt lat="41.6957184" lon="13.0738967"><ele>239.5</ele><time>2026-05-03T07:42:32.368Z</time></trkpt><trkpt lat="41.6959305" lon="13.0741225"><ele>237.0</ele><time>2026-05-03T07:42:33.371Z</time></trkpt><trkpt lat="41.696135" lon="13.0743333"><ele>236.5</ele><time>2026-05-03T07:42:34.368Z</time></trkpt><trkpt lat="41.6963395" lon="13.0745441"><ele>236.0</ele><time>2026-05-03T07:42:35.372Z</time></trkpt><trkpt lat="41.6965472" lon="13.0747558"><ele>236.5</ele><time>2026-05-03T07:42:36.377Z</time></trkpt><trkpt lat="41.6967509" lon="13.0749612"><ele>237.0</ele><time>2026-05-03T07:42:37.365Z</time></trkpt><trkpt lat="41.6969473" lon="13.0751566"><ele>237.0</ele><time>2026-05-03T07:42:38.367Z</time></trkpt><trkpt lat="41.6971362" lon="13.0753514"><ele>237.0</ele><time>2026-05-03T07:42:39.371Z</time></trkpt><trkpt lat="41.6973225" lon="13.0755427"><ele>237.0</ele><time>2026-05-03T07:42:40.369Z</time></trkpt><trkpt lat="41.6975027" lon="13.0757235"><ele>237.0</ele><time>2026-05-03T07:42:41.376Z</time></trkpt><trkpt lat="41.6976789" lon="13.0759067"><ele>237.0</ele><time>2026-05-03T07:42:42.376Z</time></trkpt><trkpt lat="41.6978523" lon="13.0760854"><ele>238.33333333333331</ele><time>2026-05-03T07:42:43.369Z</time></trkpt><trkpt lat="41.6980217" lon="13.0762581"><ele>239.66666666666666</ele><time>2026-05-03T07:42:44.381Z</time></trkpt><trkpt lat="41.698188" lon="13.0764225"><ele>241.0</ele><time>2026-05-03T07:42:45.378Z</time></trkpt><trkpt lat="41.698342" lon="13.0765814"><ele>240.33333333333331</ele><time>2026-05-03T07:42:46.375Z</time></trkpt><trkpt lat="41.6984715" lon="13.0767186"><ele>239.66666666666669</ele><time>2026-05-03T07:42:47.373Z</time></trkpt><trkpt lat="41.6985892" lon="13.0768446"><ele>239.0</ele><time>2026-05-03T07:42:48.368Z</time></trkpt><trkpt lat="41.698693" lon="13.0769855"><ele>238.0</ele><time>2026-05-03T07:42:49.378Z</time></trkpt><trkpt lat="41.6987707" lon="13.0771312"><ele>237.0</ele><time>2026-05-03T07:42:50.379Z</time></trkpt><trkpt lat="41.6988199" lon="13.0772937"><ele>236.0</ele><time>2026-05-03T07:42:51.368Z</time></trkpt><trkpt lat="41.6988377" lon="13.0774862"><ele>235.0</ele><time>2026-05-03T07:42:52.371Z</time></trkpt><trkpt lat="41.6988274" lon="13.0777125"><ele>234.66666666666666</ele><time>2026-05-03T07:42:53.38Z</time></trkpt><trkpt lat="41.6988003" lon="13.0779773"><ele>234.33333333333331</ele><time>2026-05-03T07:42:54.365Z</time></trkpt><trkpt lat="41.698766" lon="13.0782547"><ele>234.0</ele><time>2026-05-03T07:42:55.369Z</time></trkpt><trkpt lat="41.6987411" lon="13.0784778"><ele>233.0</ele><time>2026-05-03T07:42:56.375Z</time></trkpt><trkpt lat="41.6987207" lon="13.0786641"><ele>232.0</ele><time>2026-05-03T07:42:57.376Z</time></trkpt><trkpt lat="41.6987148" lon="13.078835"><ele>231.0</ele><time>2026-05-03T07:42:58.368Z</time></trkpt><trkpt lat="41.6987444" lon="13.0789908"><ele>230.0</ele><time>2026-05-03T07:42:59.367Z</time></trkpt><trkpt lat="41.6988133" lon="13.0791448"><ele>229.33333333333334</ele><time>2026-05-03T07:43:00.368Z</time></trkpt><trkpt lat="41.6989194" lon="13.0792593"><ele>228.66666666666669</ele><time>2026-05-03T07:43:01.371Z</time></trkpt><trkpt lat="41.6990585" lon="13.0793593"><ele>228.0</ele><time>2026-05-03T07:43:02.361Z</time></trkpt><trkpt lat="41.6992309" lon="13.0794766"><ele>225.0</ele><time>2026-05-03T07:43:03.368Z</time></trkpt><trkpt lat="41.6994368" lon="13.0796074"><ele>222.0</ele><time>2026-05-03T07:43:04.365Z</time></trkpt><trkpt lat="41.699657" lon="13.0797495"><ele>222.0</ele><time>2026-05-03T07:43:05.368Z</time></trkpt><trkpt lat="41.6998755" lon="13.0798918"><ele>222.0</ele><time>2026-05-03T07:43:06.376Z</time></trkpt><trkpt lat="41.700088" lon="13.0800253"><ele>222.5</ele><time>2026-05-03T07:43:07.37Z</time></trkpt><trkpt lat="41.700303" lon="13.0801649"><ele>223.0</ele><time>2026-05-03T07:43:08.37Z</time></trkpt><trkpt lat="41.7005224" lon="13.0803078"><ele>223.0</ele><time>2026-05-03T07:43:09.366Z</time></trkpt><trkpt lat="41.7007457" lon="13.0804621"><ele>223.0</ele><time>2026-05-03T07:43:10.374Z</time></trkpt><trkpt lat="41.7009695" lon="13.0806243"><ele>223.0</ele><time>2026-05-03T07:43:11.362Z</time></trkpt><trkpt lat="41.7012104" lon="13.0807915"><ele>223.0</ele><time>2026-05-03T07:43:12.369Z</time></trkpt><trkpt lat="41.7014577" lon="13.0809612"><ele>223.0</ele><time>2026-05-03T07:43:13.368Z</time></trkpt><trkpt lat="41.7017233" lon="13.0811356"><ele>223.0</ele><time>2026-05-03T07:43:14.38Z</time></trkpt><trkpt lat="41.7019711" lon="13.081308"><ele>224.0</ele><time>2026-05-03T07:43:15.374Z</time></trkpt><trkpt lat="41.70222" lon="13.0814741"><ele>225.0</ele><time>2026-05-03T07:43:16.36Z</time></trkpt><trkpt lat="41.7024621" lon="13.0816363"><ele>225.0</ele><time>2026-05-03T07:43:17.377Z</time></trkpt><trkpt lat="41.702699" lon="13.0817933"><ele>225.0</ele><time>2026-05-03T07:43:18.364Z</time></trkpt><trkpt lat="41.7029308" lon="13.0819479"><ele>224.5</ele><time>2026-05-03T07:43:19.369Z</time></trkpt><trkpt lat="41.7031486" lon="13.0820978"><ele>224.0</ele><time>2026-05-03T07:43:20.367Z</time></trkpt><trkpt lat="41.7033524" lon="13.0822346"><ele>224.0</ele><time>2026-05-03T07:43:21.365Z</time></trkpt><trkpt lat="41.7035392" lon="13.082367"><ele>224.0</ele><time>2026-05-03T07:43:22.367Z</time></trkpt><trkpt lat="41.7037144" lon="13.0824894"><ele>224.0</ele><time>2026-05-03T07:43:23.368Z</time></trkpt><trkpt lat="41.703881" lon="13.0826028"><ele>223.66666666666669</ele><time>2026-05-03T07:43:24.374Z</time></trkpt><trkpt lat="41.704039" lon="13.0827078"><ele>223.33333333333331</ele><time>2026-05-03T07:43:25.374Z</time></trkpt><trkpt lat="41.704182" lon="13.0828126"><ele>223.0</ele><time>2026-05-03T07:43:26.365Z</time></trkpt><trkpt lat="41.704321" lon="13.0829052"><ele>222.33333333333331</ele><time>2026-05-03T07:43:27.386Z</time></trkpt><trkpt lat="41.7044594" lon="13.0829739"><ele>221.66666666666669</ele><time>2026-05-03T07:43:28.375Z</time></trkpt><trkpt lat="41.7046049" lon="13.0830093"><ele>221.0</ele><time>2026-05-03T07:43:29.376Z</time></trkpt><trkpt lat="41.7047595" lon="13.0829956"><ele>221.0</ele><time>2026-05-03T07:43:30.371Z</time></trkpt><trkpt lat="41.7049221" lon="13.0829228"><ele>221.0</ele><time>2026-05-03T07:43:31.365Z</time></trkpt><trkpt lat="41.7050908" lon="13.0828079"><ele>221.0</ele><time>2026-05-03T07:43:32.374Z</time></trkpt><trkpt lat="41.705271" lon="13.0826861"><ele>221.33333333333334</ele><time>2026-05-03T07:43:33.372Z</time></trkpt><trkpt lat="41.7054511" lon="13.082559"><ele>221.66666666666669</ele><time>2026-05-03T07:43:34.366Z</time></trkpt><trkpt lat="41.7056325" lon="13.0824354"><ele>222.0</ele><time>2026-05-03T07:43:35.369Z</time></trkpt><trkpt lat="41.7058039" lon="13.0823242"><ele>220.0</ele><time>2026-05-03T07:43:36.365Z</time></trkpt><trkpt lat="41.7059681" lon="13.0822348"><ele>218.0</ele><time>2026-05-03T07:43:37.374Z</time></trkpt><trkpt lat="41.7061221" lon="13.0821782"><ele>216.0</ele><time>2026-05-03T07:43:38.366Z</time></trkpt><trkpt lat="41.706253" lon="13.082171"><ele>215.33333333333331</ele><time>2026-05-03T07:43:39.371Z</time></trkpt><trkpt lat="41.7064004" lon="13.0822245"><ele>214.66666666666666</ele><time>2026-05-03T07:43:40.367Z</time></trkpt><trkpt lat="41.7065546" lon="13.0823164"><ele>214.0</ele><time>2026-05-03T07:43:41.367Z</time></trkpt><trkpt lat="41.7067297" lon="13.0824806"><ele>212.0</ele><time>2026-05-03T07:43:42.367Z</time></trkpt><trkpt lat="41.7069292" lon="13.0826716"><ele>210.0</ele><time>2026-05-03T07:43:43.363Z</time></trkpt><trkpt lat="41.7071501" lon="13.0828869"><ele>210.0</ele><time>2026-05-03T07:43:44.367Z</time></trkpt><trkpt lat="41.7073833" lon="13.0831111"><ele>210.0</ele><time>2026-05-03T07:43:45.376Z</time></trkpt><trkpt lat="41.7076257" lon="13.0833409"><ele>211.0</ele><time>2026-05-03T07:43:46.364Z</time></trkpt><trkpt lat="41.7078662" lon="13.0835703"><ele>212.0</ele><time>2026-05-03T07:43:47.367Z</time></trkpt><trkpt lat="41.7080937" lon="13.0837921"><ele>212.0</ele><time>2026-05-03T07:43:48.368Z</time></trkpt><trkpt lat="41.7083108" lon="13.0840047"><ele>212.0</ele><time>2026-05-03T07:43:49.363Z</time></trkpt><trkpt lat="41.7085215" lon="13.0842088"><ele>210.5</ele><time>2026-05-03T07:43:50.374Z</time></trkpt><trkpt lat="41.7087243" lon="13.0844059"><ele>209.0</ele><time>2026-05-03T07:43:51.368Z</time></trkpt><trkpt lat="41.7089256" lon="13.0845994"><ele>209.0</ele><time>2026-05-03T07:43:52.368Z</time></trkpt><trkpt lat="41.7091196" lon="13.0847904"><ele>209.0</ele><time>2026-05-03T07:43:53.377Z</time></trkpt><trkpt lat="41.7093092" lon="13.0849739"><ele>207.0</ele><time>2026-05-03T07:43:54.369Z</time></trkpt><trkpt lat="41.7094952" lon="13.0851571"><ele>205.0</ele><time>2026-05-03T07:43:55.367Z</time></trkpt><trkpt lat="41.7096754" lon="13.0853395"><ele>205.0</ele><time>2026-05-03T07:43:56.371Z</time></trkpt><trkpt lat="41.7098485" lon="13.0855181"><ele>205.0</ele><time>2026-05-03T07:43:57.369Z</time></trkpt><trkpt lat="41.7100018" lon="13.0856656"><ele>205.0</ele><time>2026-05-03T07:43:58.374Z</time></trkpt><trkpt lat="41.7101462" lon="13.0857851"><ele>202.0</ele><time>2026-05-03T07:43:59.373Z</time></trkpt><trkpt lat="41.7103036" lon="13.0858693"><ele>199.0</ele><time>2026-05-03T07:44:00.368Z</time></trkpt><trkpt lat="41.7104886" lon="13.0859044"><ele>196.0</ele><time>2026-05-03T07:44:01.381Z</time></trkpt><trkpt lat="41.7106714" lon="13.0858996"><ele>196.0</ele><time>2026-05-03T07:44:02.376Z</time></trkpt><trkpt lat="41.7108296" lon="13.0858734"><ele>196.0</ele><time>2026-05-03T07:44:03.368Z</time></trkpt><trkpt lat="41.7109598" lon="13.0858595"><ele>196.0</ele><time>2026-05-03T07:44:04.369Z</time></trkpt><trkpt lat="41.7110761" lon="13.0858763"><ele>196.0</ele><time>2026-05-03T07:44:05.364Z</time></trkpt><trkpt lat="41.7112044" lon="13.0859475"><ele>193.0</ele><time>2026-05-03T07:44:06.368Z</time></trkpt><trkpt lat="41.7113297" lon="13.0860829"><ele>190.0</ele><time>2026-05-03T07:44:07.368Z</time></trkpt><trkpt lat="41.7114698" lon="13.0862683"><ele>187.0</ele><time>2026-05-03T07:44:08.369Z</time></trkpt><trkpt lat="41.7116301" lon="13.0865019"><ele>185.0</ele><time>2026-05-03T07:44:09.371Z</time></trkpt><trkpt lat="41.7117995" lon="13.0867516"><ele>183.0</ele><time>2026-05-03T07:44:10.368Z</time></trkpt><trkpt lat="41.711955" lon="13.086981"><ele>183.0</ele><time>2026-05-03T07:44:11.369Z</time></trkpt><trkpt lat="41.7120947" lon="13.087191"><ele>183.0</ele><time>2026-05-03T07:44:12.367Z</time></trkpt><trkpt lat="41.712222" lon="13.0873774"><ele>183.0</ele><time>2026-05-03T07:44:13.368Z</time></trkpt><trkpt lat="41.7123363" lon="13.0875491"><ele>184.0</ele><time>2026-05-03T07:44:14.371Z</time></trkpt><trkpt lat="41.7124319" lon="13.0877119"><ele>185.0</ele><time>2026-05-03T07:44:15.367Z</time></trkpt><trkpt lat="41.7125243" lon="13.087882"><ele>186.0</ele><time>2026-05-03T07:44:16.37Z</time></trkpt><trkpt lat="41.7126039" lon="13.0880596"><ele>186.0</ele><time>2026-05-03T07:44:17.367Z</time></trkpt><trkpt lat="41.7126591" lon="13.0882443"><ele>186.0</ele><time>2026-05-03T07:44:18.367Z</time></trkpt><trkpt lat="41.7126973" lon="13.088443"><ele>186.0</ele><time>2026-05-03T07:44:19.373Z</time></trkpt><trkpt lat="41.7127125" lon="13.0886603"><ele>186.0</ele><time>2026-05-03T07:44:20.37Z</time></trkpt><trkpt lat="41.7126977" lon="13.0888926"><ele>186.0</ele><time>2026-05-03T07:44:21.364Z</time></trkpt><trkpt lat="41.7126523" lon="13.0891303"><ele>186.0</ele><time>2026-05-03T07:44:22.369Z</time></trkpt><trkpt lat="41.712577" lon="13.0893558"><ele>186.0</ele><time>2026-05-03T07:44:23.369Z</time></trkpt><trkpt lat="41.7124732" lon="13.0895668"><ele>186.0</ele><time>2026-05-03T07:44:24.367Z</time></trkpt><trkpt lat="41.7123344" lon="13.0897746"><ele>186.0</ele><time>2026-05-03T07:44:25.368Z</time></trkpt><trkpt lat="41.7121739" lon="13.0899684"><ele>184.66666666666666</ele><time>2026-05-03T07:44:26.37Z</time></trkpt><trkpt lat="41.7120281" lon="13.0901473"><ele>183.33333333333331</ele><time>2026-05-03T07:44:27.372Z</time></trkpt><trkpt lat="41.7119055" lon="13.0903223"><ele>182.0</ele><time>2026-05-03T07:44:28.367Z</time></trkpt><trkpt lat="41.7118065" lon="13.090509"><ele>181.33333333333331</ele><time>2026-05-03T07:44:29.368Z</time></trkpt><trkpt lat="41.7117255" lon="13.0907209"><ele>180.66666666666666</ele><time>2026-05-03T07:44:30.369Z</time></trkpt><trkpt lat="41.7116751" lon="13.0909541"><ele>180.0</ele><time>2026-05-03T07:44:31.369Z</time></trkpt><trkpt lat="41.7116487" lon="13.0912127"><ele>179.33333333333334</ele><time>2026-05-03T07:44:32.365Z</time></trkpt><trkpt lat="41.7116236" lon="13.0914939"><ele>178.66666666666669</ele><time>2026-05-03T07:44:33.373Z</time></trkpt><trkpt lat="41.7115934" lon="13.0918001"><ele>178.0</ele><time>2026-05-03T07:44:34.373Z</time></trkpt><trkpt lat="41.7115697" lon="13.0921089"><ele>178.0</ele><time>2026-05-03T07:44:35.363Z</time></trkpt><trkpt lat="41.7115443" lon="13.0923844"><ele>178.0</ele><time>2026-05-03T07:44:36.373Z</time></trkpt><trkpt lat="41.7115136" lon="13.0926487"><ele>178.0</ele><time>2026-05-03T07:44:37.377Z</time></trkpt><trkpt lat="41.711468" lon="13.092906"><ele>179.0</ele><time>2026-05-03T07:44:38.375Z</time></trkpt><trkpt lat="41.71141" lon="13.0931448"><ele>180.0</ele><time>2026-05-03T07:44:39.375Z</time></trkpt><trkpt lat="41.71135" lon="13.0933554"><ele>181.0</ele><time>2026-05-03T07:44:40.373Z</time></trkpt><trkpt lat="41.7113037" lon="13.0935215"><ele>181.20000000000002</ele><time>2026-05-03T07:44:41.375Z</time></trkpt><trkpt lat="41.7112745" lon="13.093657"><ele>181.4</ele><time>2026-05-03T07:44:42.366Z</time></trkpt><trkpt lat="41.7112738" lon="13.0937754"><ele>181.6</ele><time>2026-05-03T07:44:43.368Z</time></trkpt><trkpt lat="41.7113082" lon="13.0938749"><ele>181.8</ele><time>2026-05-03T07:44:44.366Z</time></trkpt><trkpt lat="41.711373" lon="13.0939599"><ele>182.0</ele><time>2026-05-03T07:44:45.37Z</time></trkpt><trkpt lat="41.7114568" lon="13.0940432"><ele>182.5</ele><time>2026-05-03T07:44:46.37Z</time></trkpt><trkpt lat="41.7115269" lon="13.0941502"><ele>183.0</ele><time>2026-05-03T07:44:47.372Z</time></trkpt><trkpt lat="41.7116021" lon="13.0943184"><ele>183.5</ele><time>2026-05-03T07:44:48.367Z</time></trkpt><trkpt lat="41.7116749" lon="13.0944974"><ele>184.0</ele><time>2026-05-03T07:44:49.364Z</time></trkpt><trkpt lat="41.7117446" lon="13.0946364"><ele>184.0</ele><time>2026-05-03T07:44:50.369Z</time></trkpt><trkpt lat="41.7118168" lon="13.0947653"><ele>184.0</ele><time>2026-05-03T07:44:51.367Z</time></trkpt><trkpt lat="41.7119101" lon="13.0948686"><ele>184.0</ele><time>2026-05-03T07:44:52.366Z</time></trkpt><trkpt lat="41.7120289" lon="13.0949387"><ele>184.0</ele><time>2026-05-03T07:44:53.369Z</time></trkpt><trkpt lat="41.7121773" lon="13.0949749"><ele>184.66666666666669</ele><time>2026-05-03T07:44:54.37Z</time></trkpt><trkpt lat="41.7123401" lon="13.0950074"><ele>185.33333333333334</ele><time>2026-05-03T07:44:55.366Z</time></trkpt><trkpt lat="41.7124968" lon="13.095082"><ele>186.0</ele><time>2026-05-03T07:44:56.368Z</time></trkpt><trkpt lat="41.7126624" lon="13.0951926"><ele>189.0</ele><time>2026-05-03T07:44:57.368Z</time></trkpt><trkpt lat="41.7128139" lon="13.0953339"><ele>192.0</ele><time>2026-05-03T07:44:58.365Z</time></trkpt><trkpt lat="41.7129561" lon="13.0955095"><ele>195.0</ele><time>2026-05-03T07:44:59.365Z</time></trkpt><trkpt lat="41.7130956" lon="13.0957118"><ele>193.33333333333334</ele><time>2026-05-03T07:45:00.369Z</time></trkpt><trkpt lat="41.7132411" lon="13.0958972"><ele>191.66666666666669</ele><time>2026-05-03T07:45:01.369Z</time></trkpt><trkpt lat="41.7133985" lon="13.0960511"><ele>190.0</ele><time>2026-05-03T07:45:02.368Z</time></trkpt><trkpt lat="41.7136107" lon="13.0962317"><ele>190.0</ele><time>2026-05-03T07:45:03.376Z</time></trkpt><trkpt lat="41.7138564" lon="13.0964495"><ele>190.0</ele><time>2026-05-03T07:45:04.366Z</time></trkpt><trkpt lat="41.7140816" lon="13.0966681"><ele>191.0</ele><time>2026-05-03T07:45:05.369Z</time></trkpt><trkpt lat="41.7142803" lon="13.0968774"><ele>192.0</ele><time>2026-05-03T07:45:06.378Z</time></trkpt><trkpt lat="41.7144719" lon="13.097068"><ele>192.0</ele><time>2026-05-03T07:45:07.369Z</time></trkpt><trkpt lat="41.7146796" lon="13.0972393"><ele>192.0</ele><time>2026-05-03T07:45:08.376Z</time></trkpt><trkpt lat="41.7149089" lon="13.0973951"><ele>189.0</ele><time>2026-05-03T07:45:09.374Z</time></trkpt><trkpt lat="41.7151525" lon="13.097546"><ele>186.0</ele><time>2026-05-03T07:45:10.367Z</time></trkpt><trkpt lat="41.7153789" lon="13.0977003"><ele>186.0</ele><time>2026-05-03T07:45:11.371Z</time></trkpt><trkpt lat="41.7155832" lon="13.0978607"><ele>186.0</ele><time>2026-05-03T07:45:12.379Z</time></trkpt><trkpt lat="41.7157755" lon="13.0980553"><ele>185.0</ele><time>2026-05-03T07:45:13.368Z</time></trkpt><trkpt lat="41.7159691" lon="13.0982765"><ele>184.0</ele><time>2026-05-03T07:45:14.366Z</time></trkpt><trkpt lat="41.7161725" lon="13.0985355"><ele>184.0</ele><time>2026-05-03T07:45:15.368Z</time></trkpt><trkpt lat="41.7163777" lon="13.0988318"><ele>184.0</ele><time>2026-05-03T07:45:16.369Z</time></trkpt><trkpt lat="41.7165958" lon="13.0991726"><ele>184.5</ele><time>2026-05-03T07:45:17.366Z</time></trkpt><trkpt lat="41.7168082" lon="13.0995018"><ele>185.0</ele><time>2026-05-03T07:45:18.364Z</time></trkpt><trkpt lat="41.7170026" lon="13.0998077"><ele>187.0</ele><time>2026-05-03T07:45:19.368Z</time></trkpt><trkpt lat="41.7171829" lon="13.100091"><ele>189.0</ele><time>2026-05-03T07:45:20.38Z</time></trkpt><trkpt lat="41.7173511" lon="13.1003465"><ele>189.0</ele><time>2026-05-03T07:45:21.365Z</time></trkpt><trkpt lat="41.7175204" lon="13.1005839"><ele>189.0</ele><time>2026-05-03T07:45:22.365Z</time></trkpt><trkpt lat="41.7177074" lon="13.1008012"><ele>191.5</ele><time>2026-05-03T07:45:23.368Z</time></trkpt><trkpt lat="41.7179142" lon="13.100996"><ele>194.0</ele><time>2026-05-03T07:45:24.369Z</time></trkpt><trkpt lat="41.7181227" lon="13.1011795"><ele>194.0</ele><time>2026-05-03T07:45:25.372Z</time></trkpt><trkpt lat="41.7183255" lon="13.1013652"><ele>194.0</ele><time>2026-05-03T07:45:26.365Z</time></trkpt><trkpt lat="41.7185213" lon="13.1015685"><ele>195.0</ele><time>2026-05-03T07:45:27.366Z</time></trkpt><trkpt lat="41.7187095" lon="13.1017977"><ele>196.0</ele><time>2026-05-03T07:45:28.365Z</time></trkpt><trkpt lat="41.7188922" lon="13.1020407"><ele>196.0</ele><time>2026-05-03T07:45:29.363Z</time></trkpt><trkpt lat="41.7190668" lon="13.1023028"><ele>196.0</ele><time>2026-05-03T07:45:30.364Z</time></trkpt><trkpt lat="41.7192238" lon="13.1025641"><ele>196.0</ele><time>2026-05-03T07:45:31.366Z</time></trkpt><trkpt lat="41.7193593" lon="13.1028099"><ele>196.0</ele><time>2026-05-03T07:45:32.379Z</time></trkpt><trkpt lat="41.7194678" lon="13.1030512"><ele>196.0</ele><time>2026-05-03T07:45:33.373Z</time></trkpt><trkpt lat="41.7195603" lon="13.1033128"><ele>196.0</ele><time>2026-05-03T07:45:34.366Z</time></trkpt><trkpt lat="41.7196395" lon="13.103616"><ele>196.0</ele><time>2026-05-03T07:45:35.378Z</time></trkpt><trkpt lat="41.719712" lon="13.1039486"><ele>194.0</ele><time>2026-05-03T07:45:36.365Z</time></trkpt><trkpt lat="41.7197819" lon="13.1042744"><ele>192.0</ele><time>2026-05-03T07:45:37.363Z</time></trkpt><trkpt lat="41.7198505" lon="13.104588"><ele>192.0</ele><time>2026-05-03T07:45:38.367Z</time></trkpt><trkpt lat="41.7199322" lon="13.1048983"><ele>192.0</ele><time>2026-05-03T07:45:39.368Z</time></trkpt><trkpt lat="41.7200301" lon="13.1051959"><ele>193.0</ele><time>2026-05-03T07:45:40.369Z</time></trkpt><trkpt lat="41.7201455" lon="13.1054822"><ele>194.0</ele><time>2026-05-03T07:45:41.367Z</time></trkpt><trkpt lat="41.7202833" lon="13.1057656"><ele>197.5</ele><time>2026-05-03T07:45:42.371Z</time></trkpt><trkpt lat="41.7204472" lon="13.1060826"><ele>201.0</ele><time>2026-05-03T07:45:43.371Z</time></trkpt><trkpt lat="41.720631" lon="13.1064278"><ele>200.0</ele><time>2026-05-03T07:45:44.368Z</time></trkpt><trkpt lat="41.7208299" lon="13.1067855"><ele>199.0</ele><time>2026-05-03T07:45:45.366Z</time></trkpt><trkpt lat="41.7210356" lon="13.1071531"><ele>202.0</ele><time>2026-05-03T07:45:46.365Z</time></trkpt><trkpt lat="41.7212471" lon="13.1075095"><ele>205.0</ele><time>2026-05-03T07:45:47.374Z</time></trkpt><trkpt lat="41.7214424" lon="13.107838"><ele>205.0</ele><time>2026-05-03T07:45:48.38Z</time></trkpt><trkpt lat="41.7216272" lon="13.1081359"><ele>205.0</ele><time>2026-05-03T07:45:49.373Z</time></trkpt><trkpt lat="41.7217851" lon="13.1084221"><ele>205.0</ele><time>2026-05-03T07:45:50.363Z</time></trkpt><trkpt lat="41.7219349" lon="13.1087246"><ele>205.0</ele><time>2026-05-03T07:45:51.368Z</time></trkpt><trkpt lat="41.7220784" lon="13.1090458"><ele>207.0</ele><time>2026-05-03T07:45:52.376Z</time></trkpt><trkpt lat="41.7222119" lon="13.1093866"><ele>209.0</ele><time>2026-05-03T07:45:53.366Z</time></trkpt><trkpt lat="41.722339" lon="13.109718"><ele>212.0</ele><time>2026-05-03T07:45:54.474Z</time></trkpt><trkpt lat="41.7225416" lon="13.1102929"><ele>212.0</ele><time>2026-05-03T07:45:56.369Z</time></trkpt><trkpt lat="41.722615" lon="13.1105088"><ele>212.0</ele><time>2026-05-03T07:45:57.375Z</time></trkpt><trkpt lat="41.7226733" lon="13.1106747"><ele>212.0</ele><time>2026-05-03T07:45:58.366Z</time></trkpt><trkpt lat="41.7227159" lon="13.1108087"><ele>212.0</ele><time>2026-05-03T07:45:59.364Z</time></trkpt><trkpt lat="41.7227477" lon="13.1109371"><ele>212.2</ele><time>2026-05-03T07:46:00.377Z</time></trkpt><trkpt lat="41.7227686" lon="13.1110521"><ele>212.39999999999998</ele><time>2026-05-03T07:46:01.377Z</time></trkpt><trkpt lat="41.7227813" lon="13.1111681"><ele>212.60000000000002</ele><time>2026-05-03T07:46:02.377Z</time></trkpt><trkpt lat="41.722783" lon="13.1113015"><ele>212.8</ele><time>2026-05-03T07:46:03.375Z</time></trkpt><trkpt lat="41.7227843" lon="13.1114308"><ele>213.0</ele><time>2026-05-03T07:46:04.376Z</time></trkpt><trkpt lat="41.7228034" lon="13.111557"><ele>212.0</ele><time>2026-05-03T07:46:05.375Z</time></trkpt><trkpt lat="41.7228456" lon="13.1116706"><ele>211.0</ele><time>2026-05-03T07:46:06.363Z</time></trkpt><trkpt lat="41.7229075" lon="13.1117641"><ele>210.0</ele><time>2026-05-03T07:46:07.365Z</time></trkpt><trkpt lat="41.7229927" lon="13.1118255"><ele>209.0</ele><time>2026-05-03T07:46:08.367Z</time></trkpt><trkpt lat="41.7230978" lon="13.11186"><ele>208.0</ele><time>2026-05-03T07:46:09.37Z</time></trkpt><trkpt lat="41.7232138" lon="13.1118641"><ele>208.0</ele><time>2026-05-03T07:46:10.367Z</time></trkpt><trkpt lat="41.7233299" lon="13.1118653"><ele>208.0</ele><time>2026-05-03T07:46:11.371Z</time></trkpt><trkpt lat="41.7234365" lon="13.1118992"><ele>208.0</ele><time>2026-05-03T07:46:12.367Z</time></trkpt><trkpt lat="41.7235532" lon="13.1119682"><ele>208.0</ele><time>2026-05-03T07:46:13.368Z</time></trkpt><trkpt lat="41.7236759" lon="13.1120698"><ele>208.66666666666666</ele><time>2026-05-03T07:46:14.369Z</time></trkpt><trkpt lat="41.7238214" lon="13.1121873"><ele>209.33333333333331</ele><time>2026-05-03T07:46:15.368Z</time></trkpt><trkpt lat="41.7239774" lon="13.1123136"><ele>210.0</ele><time>2026-05-03T07:46:16.377Z</time></trkpt><trkpt lat="41.7241547" lon="13.1124617"><ele>210.0</ele><time>2026-05-03T07:46:17.371Z</time></trkpt><trkpt lat="41.7243093" lon="13.1125824"><ele>210.0</ele><time>2026-05-03T07:46:18.368Z</time></trkpt><trkpt lat="41.7244652" lon="13.1126833"><ele>210.0</ele><time>2026-05-03T07:46:19.375Z</time></trkpt><trkpt lat="41.7246115" lon="13.1127672"><ele>210.0</ele><time>2026-05-03T07:46:20.377Z</time></trkpt><trkpt lat="41.7247649" lon="13.1128465"><ele>210.0</ele><time>2026-05-03T07:46:21.376Z</time></trkpt><trkpt lat="41.7249306" lon="13.112914"><ele>210.0</ele><time>2026-05-03T07:46:22.374Z</time></trkpt><trkpt lat="41.7251071" lon="13.1129845"><ele>210.33333333333331</ele><time>2026-05-03T07:46:23.377Z</time></trkpt><trkpt lat="41.725291" lon="13.1130656"><ele>210.66666666666666</ele><time>2026-05-03T07:46:24.369Z</time></trkpt><trkpt lat="41.725481" lon="13.1131485"><ele>211.0</ele><time>2026-05-03T07:46:25.377Z</time></trkpt><trkpt lat="41.7256815" lon="13.1132377"><ele>210.0</ele><time>2026-05-03T07:46:26.371Z</time></trkpt><trkpt lat="41.7258889" lon="13.1133242"><ele>209.0</ele><time>2026-05-03T07:46:27.369Z</time></trkpt><trkpt lat="41.7260898" lon="13.1134108"><ele>208.0</ele><time>2026-05-03T07:46:28.366Z</time></trkpt><trkpt lat="41.7262828" lon="13.1135009"><ele>208.0</ele><time>2026-05-03T07:46:29.369Z</time></trkpt><trkpt lat="41.7264742" lon="13.1135978"><ele>208.0</ele><time>2026-05-03T07:46:30.368Z</time></trkpt><trkpt lat="41.72666" lon="13.1136913"><ele>208.0</ele><time>2026-05-03T07:46:31.371Z</time></trkpt><trkpt lat="41.7268467" lon="13.1137773"><ele>209.0</ele><time>2026-05-03T07:46:32.368Z</time></trkpt><trkpt lat="41.7270186" lon="13.1138617"><ele>210.0</ele><time>2026-05-03T07:46:33.371Z</time></trkpt><trkpt lat="41.7271778" lon="13.1139379"><ele>211.0</ele><time>2026-05-03T07:46:34.38Z</time></trkpt><trkpt lat="41.7273204" lon="13.1140096"><ele>211.0</ele><time>2026-05-03T07:46:35.368Z</time></trkpt><trkpt lat="41.7274554" lon="13.1140737"><ele>211.0</ele><time>2026-05-03T07:46:36.371Z</time></trkpt><trkpt lat="41.7275832" lon="13.1141354"><ele>211.0</ele><time>2026-05-03T07:46:37.374Z</time></trkpt><trkpt lat="41.727723" lon="13.1142045"><ele>211.0</ele><time>2026-05-03T07:46:38.371Z</time></trkpt><trkpt lat="41.7278647" lon="13.114274"><ele>211.25</ele><time>2026-05-03T07:46:39.369Z</time></trkpt><trkpt lat="41.7280059" lon="13.1143403"><ele>211.5</ele><time>2026-05-03T07:46:40.378Z</time></trkpt><trkpt lat="41.7281395" lon="13.1144028"><ele>211.75</ele><time>2026-05-03T07:46:41.377Z</time></trkpt><trkpt lat="41.728271" lon="13.1144645"><ele>212.0</ele><time>2026-05-03T07:46:42.369Z</time></trkpt><trkpt lat="41.7284027" lon="13.1145291"><ele>212.0</ele><time>2026-05-03T07:46:43.37Z</time></trkpt><trkpt lat="41.7285609" lon="13.1145948"><ele>212.0</ele><time>2026-05-03T07:46:44.365Z</time></trkpt><trkpt lat="41.7287247" lon="13.1146721"><ele>212.0</ele><time>2026-05-03T07:46:45.369Z</time></trkpt><trkpt lat="41.7288958" lon="13.1147504"><ele>212.0</ele><time>2026-05-03T07:46:46.372Z</time></trkpt><trkpt lat="41.7290655" lon="13.1148278"><ele>212.0</ele><time>2026-05-03T07:46:47.367Z</time></trkpt><trkpt lat="41.7292357" lon="13.1149085"><ele>212.0</ele><time>2026-05-03T07:46:48.371Z</time></trkpt><trkpt lat="41.7294216" lon="13.1149914"><ele>213.0</ele><time>2026-05-03T07:46:49.372Z</time></trkpt><trkpt lat="41.7296528" lon="13.1150864"><ele>214.0</ele><time>2026-05-03T07:46:50.377Z</time></trkpt><trkpt lat="41.7299236" lon="13.1152078"><ele>214.0</ele><time>2026-05-03T07:46:51.371Z</time></trkpt><trkpt lat="41.7302016" lon="13.115333"><ele>214.0</ele><time>2026-05-03T07:46:52.378Z</time></trkpt><trkpt lat="41.7304546" lon="13.11544"><ele>214.0</ele><time>2026-05-03T07:46:53.375Z</time></trkpt><trkpt lat="41.7306894" lon="13.1155355"><ele>214.0</ele><time>2026-05-03T07:46:54.367Z</time></trkpt><trkpt lat="41.7308803" lon="13.1156171"><ele>214.0</ele><time>2026-05-03T07:46:55.367Z</time></trkpt><trkpt lat="41.7310518" lon="13.1156916"><ele>214.66666666666666</ele><time>2026-05-03T07:46:56.379Z</time></trkpt><trkpt lat="41.7312098" lon="13.1157565"><ele>215.33333333333331</ele><time>2026-05-03T07:46:57.371Z</time></trkpt><trkpt lat="41.7313708" lon="13.1158232"><ele>216.0</ele><time>2026-05-03T07:46:58.376Z</time></trkpt><trkpt lat="41.7315418" lon="13.1158933"><ele>216.0</ele><time>2026-05-03T07:46:59.377Z</time></trkpt><trkpt lat="41.7317133" lon="13.1159557"><ele>216.0</ele><time>2026-05-03T07:47:00.376Z</time></trkpt><trkpt lat="41.7318761" lon="13.1160242"><ele>216.0</ele><time>2026-05-03T07:47:01.373Z</time></trkpt><trkpt lat="41.7320358" lon="13.1160888"><ele>216.0</ele><time>2026-05-03T07:47:02.382Z</time></trkpt><trkpt lat="41.7321964" lon="13.1161518"><ele>216.0</ele><time>2026-05-03T07:47:03.377Z</time></trkpt><trkpt lat="41.7323561" lon="13.1162136"><ele>216.0</ele><time>2026-05-03T07:47:04.375Z</time></trkpt><trkpt lat="41.7325205" lon="13.1162695"><ele>216.0</ele><time>2026-05-03T07:47:05.378Z</time></trkpt><trkpt lat="41.7326972" lon="13.1163301"><ele>216.0</ele><time>2026-05-03T07:47:06.377Z</time></trkpt><trkpt lat="41.7328698" lon="13.1163894"><ele>216.0</ele><time>2026-05-03T07:47:07.377Z</time></trkpt><trkpt lat="41.733034" lon="13.1164496"><ele>217.0</ele><time>2026-05-03T07:47:08.377Z</time></trkpt><trkpt lat="41.7331869" lon="13.116502"><ele>218.0</ele><time>2026-05-03T07:47:09.373Z</time></trkpt><trkpt lat="41.7333686" lon="13.1165668"><ele>219.0</ele><time>2026-05-03T07:47:10.379Z</time></trkpt><trkpt lat="41.7335863" lon="13.1166323"><ele>221.0</ele><time>2026-05-03T07:47:11.376Z</time></trkpt><trkpt lat="41.733793" lon="13.1166977"><ele>223.0</ele><time>2026-05-03T07:47:12.376Z</time></trkpt><trkpt lat="41.7339789" lon="13.1167532"><ele>225.0</ele><time>2026-05-03T07:47:13.38Z</time></trkpt><trkpt lat="41.7341662" lon="13.1168123"><ele>225.0</ele><time>2026-05-03T07:47:14.379Z</time></trkpt><trkpt lat="41.7343833" lon="13.1168766"><ele>225.0</ele><time>2026-05-03T07:47:15.375Z</time></trkpt><trkpt lat="41.7346349" lon="13.116948"><ele>226.5</ele><time>2026-05-03T07:47:16.375Z</time></trkpt><trkpt lat="41.734924" lon="13.117025"><ele>228.0</ele><time>2026-05-03T07:47:17.369Z</time></trkpt><trkpt lat="41.7352372" lon="13.1171063"><ele>231.5</ele><time>2026-05-03T07:47:18.367Z</time></trkpt><trkpt lat="41.7355539" lon="13.1171875"><ele>235.0</ele><time>2026-05-03T07:47:19.377Z</time></trkpt><trkpt lat="41.7358611" lon="13.1172671"><ele>235.5</ele><time>2026-05-03T07:47:20.374Z</time></trkpt><trkpt lat="41.736155" lon="13.1173439"><ele>236.0</ele><time>2026-05-03T07:47:21.372Z</time></trkpt><trkpt lat="41.7364183" lon="13.1174151"><ele>236.0</ele><time>2026-05-03T07:47:22.368Z</time></trkpt><trkpt lat="41.7366578" lon="13.1174769"><ele>236.0</ele><time>2026-05-03T07:47:23.38Z</time></trkpt><trkpt lat="41.7368799" lon="13.1175319"><ele>236.33333333333334</ele><time>2026-05-03T07:47:24.366Z</time></trkpt><trkpt lat="41.7370862" lon="13.1175795"><ele>236.66666666666669</ele><time>2026-05-03T07:47:25.369Z</time></trkpt><trkpt lat="41.7372835" lon="13.117627"><ele>237.0</ele><time>2026-05-03T07:47:26.369Z</time></trkpt><trkpt lat="41.7374779" lon="13.1176772"><ele>237.0</ele><time>2026-05-03T07:47:27.372Z</time></trkpt><trkpt lat="41.7376785" lon="13.1177254"><ele>237.0</ele><time>2026-05-03T07:47:28.375Z</time></trkpt><trkpt lat="41.7378811" lon="13.117768"><ele>237.0</ele><time>2026-05-03T07:47:29.379Z</time></trkpt><trkpt lat="41.7380862" lon="13.117812"><ele>237.0</ele><time>2026-05-03T07:47:30.377Z</time></trkpt><trkpt lat="41.7382891" lon="13.1178581"><ele>237.0</ele><time>2026-05-03T07:47:31.376Z</time></trkpt><trkpt lat="41.7384926" lon="13.1179076"><ele>237.0</ele><time>2026-05-03T07:47:32.363Z</time></trkpt><trkpt lat="41.7386965" lon="13.1179578"><ele>237.33333333333331</ele><time>2026-05-03T07:47:33.37Z</time></trkpt><trkpt lat="41.7389022" lon="13.1180096"><ele>237.66666666666666</ele><time>2026-05-03T07:47:34.369Z</time></trkpt><trkpt lat="41.739109" lon="13.1180568"><ele>238.0</ele><time>2026-05-03T07:47:35.365Z</time></trkpt><trkpt lat="41.7393222" lon="13.1181068"><ele>237.66666666666666</ele><time>2026-05-03T07:47:36.377Z</time></trkpt><trkpt lat="41.7395345" lon="13.1181623"><ele>237.33333333333331</ele><time>2026-05-03T07:47:37.371Z</time></trkpt><trkpt lat="41.7397516" lon="13.1182122"><ele>237.0</ele><time>2026-05-03T07:47:38.372Z</time></trkpt><trkpt lat="41.7399706" lon="13.1182643"><ele>238.5</ele><time>2026-05-03T07:47:39.379Z</time></trkpt><trkpt lat="41.7402007" lon="13.1183126"><ele>240.0</ele><time>2026-05-03T07:47:40.378Z</time></trkpt><trkpt lat="41.7404441" lon="13.1183658"><ele>240.0</ele><time>2026-05-03T07:47:41.378Z</time></trkpt><trkpt lat="41.7406984" lon="13.1184253"><ele>240.0</ele><time>2026-05-03T07:47:42.378Z</time></trkpt><trkpt lat="41.7409572" lon="13.1184868"><ele>241.5</ele><time>2026-05-03T07:47:43.374Z</time></trkpt><trkpt lat="41.7412077" lon="13.1185449"><ele>243.0</ele><time>2026-05-03T07:47:44.368Z</time></trkpt><trkpt lat="41.7414351" lon="13.1186045"><ele>243.0</ele><time>2026-05-03T07:47:45.378Z</time></trkpt><trkpt lat="41.741665" lon="13.1186681"><ele>243.0</ele><time>2026-05-03T07:47:46.367Z</time></trkpt><trkpt lat="41.7419052" lon="13.1187341"><ele>244.5</ele><time>2026-05-03T07:47:47.363Z</time></trkpt><trkpt lat="41.7421513" lon="13.1187929"><ele>246.0</ele><time>2026-05-03T07:47:48.369Z</time></trkpt><trkpt lat="41.7423926" lon="13.1188522"><ele>246.0</ele><time>2026-05-03T07:47:49.375Z</time></trkpt><trkpt lat="41.7426324" lon="13.1189133"><ele>246.0</ele><time>2026-05-03T07:47:50.365Z</time></trkpt><trkpt lat="41.7428682" lon="13.1189812"><ele>246.0</ele><time>2026-05-03T07:47:51.368Z</time></trkpt><trkpt lat="41.7430973" lon="13.1190643"><ele>246.0</ele><time>2026-05-03T07:47:52.376Z</time></trkpt><trkpt lat="41.7433216" lon="13.1191648"><ele>246.0</ele><time>2026-05-03T07:47:53.369Z</time></trkpt><trkpt lat="41.7435373" lon="13.1192865"><ele>246.0</ele><time>2026-05-03T07:47:54.36Z</time></trkpt><trkpt lat="41.7437475" lon="13.1194252"><ele>247.0</ele><time>2026-05-03T07:47:55.369Z</time></trkpt><trkpt lat="41.7439568" lon="13.1195759"><ele>248.0</ele><time>2026-05-03T07:47:56.371Z</time></trkpt><trkpt lat="41.7441569" lon="13.1197426"><ele>247.0</ele><time>2026-05-03T07:47:57.366Z</time></trkpt><trkpt lat="41.7443493" lon="13.119926"><ele>246.0</ele><time>2026-05-03T07:47:58.371Z</time></trkpt><trkpt lat="41.7445398" lon="13.1201263"><ele>248.0</ele><time>2026-05-03T07:47:59.369Z</time></trkpt><trkpt lat="41.744722" lon="13.1203393"><ele>250.0</ele><time>2026-05-03T07:48:00.373Z</time></trkpt><trkpt lat="41.7449007" lon="13.1205638"><ele>250.0</ele><time>2026-05-03T07:48:01.364Z</time></trkpt><trkpt lat="41.7450784" lon="13.1207959"><ele>250.0</ele><time>2026-05-03T07:48:02.367Z</time></trkpt><trkpt lat="41.745276" lon="13.1210611"><ele>252.0</ele><time>2026-05-03T07:48:03.372Z</time></trkpt><trkpt lat="41.7454683" lon="13.1213264"><ele>254.0</ele><time>2026-05-03T07:48:04.372Z</time></trkpt><trkpt lat="41.7456494" lon="13.1215649"><ele>254.5</ele><time>2026-05-03T07:48:05.371Z</time></trkpt><trkpt lat="41.7458356" lon="13.1217954"><ele>255.0</ele><time>2026-05-03T07:48:06.37Z</time></trkpt><trkpt lat="41.7460378" lon="13.1220132"><ele>257.5</ele><time>2026-05-03T07:48:07.367Z</time></trkpt><trkpt lat="41.7462497" lon="13.1221993"><ele>260.0</ele><time>2026-05-03T07:48:08.375Z</time></trkpt><trkpt lat="41.746472" lon="13.1223611"><ele>258.5</ele><time>2026-05-03T07:48:09.381Z</time></trkpt><trkpt lat="41.7467054" lon="13.1224957"><ele>257.0</ele><time>2026-05-03T07:48:10.365Z</time></trkpt><trkpt lat="41.7469389" lon="13.1226025"><ele>259.33333333333337</ele><time>2026-05-03T07:48:11.368Z</time></trkpt><trkpt lat="41.7471571" lon="13.1226814"><ele>261.6666666666667</ele><time>2026-05-03T07:48:12.369Z</time></trkpt><trkpt lat="41.7473584" lon="13.1227355"><ele>264.0</ele><time>2026-05-03T07:48:13.375Z</time></trkpt><trkpt lat="41.7475666" lon="13.1227757"><ele>265.0</ele><time>2026-05-03T07:48:14.367Z</time></trkpt><trkpt lat="41.7477915" lon="13.1227971"><ele>266.0</ele><time>2026-05-03T07:48:15.374Z</time></trkpt><trkpt lat="41.7480289" lon="13.1228096"><ele>266.0</ele><time>2026-05-03T07:48:16.374Z</time></trkpt><trkpt lat="41.7482605" lon="13.1228207"><ele>266.0</ele><time>2026-05-03T07:48:17.367Z</time></trkpt><trkpt lat="41.7484688" lon="13.1228286"><ele>266.0</ele><time>2026-05-03T07:48:18.38Z</time></trkpt><trkpt lat="41.7486708" lon="13.1228325"><ele>267.33333333333337</ele><time>2026-05-03T07:48:19.374Z</time></trkpt><trkpt lat="41.7488774" lon="13.1228377"><ele>268.6666666666667</ele><time>2026-05-03T07:48:20.379Z</time></trkpt><trkpt lat="41.7490743" lon="13.1228457"><ele>270.0</ele><time>2026-05-03T07:48:21.37Z</time></trkpt><trkpt lat="41.7492786" lon="13.1228508"><ele>270.3333333333333</ele><time>2026-05-03T07:48:22.37Z</time></trkpt><trkpt lat="41.7494739" lon="13.1228579"><ele>270.66666666666663</ele><time>2026-05-03T07:48:23.369Z</time></trkpt><trkpt lat="41.7496627" lon="13.1228672"><ele>271.0</ele><time>2026-05-03T07:48:24.367Z</time></trkpt><trkpt lat="41.7498494" lon="13.1228744"><ele>271.0</ele><time>2026-05-03T07:48:25.369Z</time></trkpt><trkpt lat="41.750039" lon="13.1228755"><ele>271.0</ele><time>2026-05-03T07:48:26.366Z</time></trkpt><trkpt lat="41.750232" lon="13.1228844"><ele>271.0</ele><time>2026-05-03T07:48:27.373Z</time></trkpt><trkpt lat="41.7504283" lon="13.1228912"><ele>270.3333333333333</ele><time>2026-05-03T07:48:28.376Z</time></trkpt><trkpt lat="41.7506262" lon="13.1228971"><ele>269.6666666666667</ele><time>2026-05-03T07:48:29.37Z</time></trkpt><trkpt lat="41.7508297" lon="13.1229007"><ele>269.0</ele><time>2026-05-03T07:48:30.377Z</time></trkpt><trkpt lat="41.7510229" lon="13.12291"><ele>268.6666666666667</ele><time>2026-05-03T07:48:31.375Z</time></trkpt><trkpt lat="41.7512414" lon="13.1229136"><ele>268.3333333333333</ele><time>2026-05-03T07:48:32.372Z</time></trkpt><trkpt lat="41.7514516" lon="13.1229127"><ele>268.0</ele><time>2026-05-03T07:48:33.378Z</time></trkpt><trkpt lat="41.7516608" lon="13.1229178"><ele>268.0</ele><time>2026-05-03T07:48:34.378Z</time></trkpt><trkpt lat="41.7518686" lon="13.1229228"><ele>268.0</ele><time>2026-05-03T07:48:35.38Z</time></trkpt><trkpt lat="41.7520759" lon="13.122926"><ele>268.0</ele><time>2026-05-03T07:48:36.376Z</time></trkpt><trkpt lat="41.7522895" lon="13.1229368"><ele>266.5</ele><time>2026-05-03T07:48:37.375Z</time></trkpt><trkpt lat="41.7525099" lon="13.1229473"><ele>265.0</ele><time>2026-05-03T07:48:38.376Z</time></trkpt><trkpt lat="41.7527428" lon="13.1229497"><ele>262.5</ele><time>2026-05-03T07:48:39.379Z</time></trkpt><trkpt lat="41.7529796" lon="13.122955"><ele>260.0</ele><time>2026-05-03T07:48:40.374Z</time></trkpt><trkpt lat="41.7532234" lon="13.1229586"><ele>260.0</ele><time>2026-05-03T07:48:41.367Z</time></trkpt><trkpt lat="41.7534698" lon="13.1229654"><ele>260.0</ele><time>2026-05-03T07:48:42.37Z</time></trkpt><trkpt lat="41.7537153" lon="13.1229651"><ele>256.5</ele><time>2026-05-03T07:48:43.379Z</time></trkpt><trkpt lat="41.7539574" lon="13.1229658"><ele>253.0</ele><time>2026-05-03T07:48:44.374Z</time></trkpt><trkpt lat="41.7541976" lon="13.1229547"><ele>249.5</ele><time>2026-05-03T07:48:45.371Z</time></trkpt><trkpt lat="41.7544376" lon="13.1229382"><ele>246.0</ele><time>2026-05-03T07:48:46.374Z</time></trkpt><trkpt lat="41.7546775" lon="13.1229103"><ele>246.0</ele><time>2026-05-03T07:48:47.368Z</time></trkpt><trkpt lat="41.7549172" lon="13.1228778"><ele>246.0</ele><time>2026-05-03T07:48:48.37Z</time></trkpt><trkpt lat="41.7551601" lon="13.1228393"><ele>243.5</ele><time>2026-05-03T07:48:49.368Z</time></trkpt><trkpt lat="41.755399" lon="13.1227996"><ele>241.0</ele><time>2026-05-03T07:48:50.369Z</time></trkpt><trkpt lat="41.7556397" lon="13.122753"><ele>241.0</ele><time>2026-05-03T07:48:51.37Z</time></trkpt><trkpt lat="41.7558843" lon="13.1227001"><ele>241.0</ele><time>2026-05-03T07:48:52.376Z</time></trkpt><trkpt lat="41.7561293" lon="13.1226493"><ele>239.0</ele><time>2026-05-03T07:48:53.374Z</time></trkpt><trkpt lat="41.7563756" lon="13.1225951"><ele>237.0</ele><time>2026-05-03T07:48:54.375Z</time></trkpt><trkpt lat="41.7566235" lon="13.1225403"><ele>235.5</ele><time>2026-05-03T07:48:55.379Z</time></trkpt><trkpt lat="41.7568748" lon="13.1224731"><ele>234.0</ele><time>2026-05-03T07:48:56.381Z</time></trkpt><trkpt lat="41.7571271" lon="13.1224011"><ele>231.0</ele><time>2026-05-03T07:48:57.378Z</time></trkpt><trkpt lat="41.757377" lon="13.1223218"><ele>228.0</ele><time>2026-05-03T07:48:58.371Z</time></trkpt><trkpt lat="41.7576258" lon="13.1222321"><ele>230.5</ele><time>2026-05-03T07:48:59.375Z</time></trkpt><trkpt lat="41.7578708" lon="13.1221351"><ele>233.0</ele><time>2026-05-03T07:49:00.376Z</time></trkpt><trkpt lat="41.7581156" lon="13.1220269"><ele>233.0</ele><time>2026-05-03T07:49:01.378Z</time></trkpt><trkpt lat="41.7583537" lon="13.1219107"><ele>233.0</ele><time>2026-05-03T07:49:02.375Z</time></trkpt><trkpt lat="41.7585852" lon="13.1217849"><ele>232.5</ele><time>2026-05-03T07:49:03.381Z</time></trkpt><trkpt lat="41.7588135" lon="13.1216541"><ele>232.0</ele><time>2026-05-03T07:49:04.368Z</time></trkpt><trkpt lat="41.7590401" lon="13.1215191"><ele>232.0</ele><time>2026-05-03T07:49:05.379Z</time></trkpt><trkpt lat="41.7592643" lon="13.1213804"><ele>232.0</ele><time>2026-05-03T07:49:06.379Z</time></trkpt><trkpt lat="41.7594873" lon="13.1212318"><ele>233.0</ele><time>2026-05-03T07:49:07.374Z</time></trkpt><trkpt lat="41.7597076" lon="13.1210759"><ele>234.0</ele><time>2026-05-03T07:49:08.365Z</time></trkpt><trkpt lat="41.759924" lon="13.1209094"><ele>234.0</ele><time>2026-05-03T07:49:09.379Z</time></trkpt><trkpt lat="41.7601373" lon="13.1207368"><ele>234.0</ele><time>2026-05-03T07:49:10.365Z</time></trkpt><trkpt lat="41.7603486" lon="13.1205539"><ele>235.0</ele><time>2026-05-03T07:49:11.368Z</time></trkpt><trkpt lat="41.7605572" lon="13.1203619"><ele>236.0</ele><time>2026-05-03T07:49:12.372Z</time></trkpt><trkpt lat="41.7607571" lon="13.1201641"><ele>236.0</ele><time>2026-05-03T07:49:13.368Z</time></trkpt><trkpt lat="41.7609546" lon="13.1199648"><ele>236.0</ele><time>2026-05-03T07:49:14.368Z</time></trkpt><trkpt lat="41.7611473" lon="13.1197709"><ele>234.0</ele><time>2026-05-03T07:49:15.367Z</time></trkpt><trkpt lat="41.7613347" lon="13.1195843"><ele>232.0</ele><time>2026-05-03T07:49:16.37Z</time></trkpt><trkpt lat="41.761519" lon="13.1194038"><ele>232.0</ele><time>2026-05-03T07:49:17.367Z</time></trkpt><trkpt lat="41.7617054" lon="13.1192194"><ele>232.0</ele><time>2026-05-03T07:49:18.37Z</time></trkpt><trkpt lat="41.7618987" lon="13.119025"><ele>230.5</ele><time>2026-05-03T07:49:19.368Z</time></trkpt><trkpt lat="41.762106" lon="13.1188165"><ele>229.0</ele><time>2026-05-03T07:49:20.37Z</time></trkpt><trkpt lat="41.7623346" lon="13.1185941"><ele>229.0</ele><time>2026-05-03T07:49:21.369Z</time></trkpt><trkpt lat="41.7625757" lon="13.1183562"><ele>229.0</ele><time>2026-05-03T07:49:22.369Z</time></trkpt><trkpt lat="41.7628176" lon="13.1181156"><ele>232.0</ele><time>2026-05-03T07:49:23.369Z</time></trkpt><trkpt lat="41.7630508" lon="13.117872"><ele>235.0</ele><time>2026-05-03T07:49:24.361Z</time></trkpt><trkpt lat="41.7632741" lon="13.117626"><ele>237.0</ele><time>2026-05-03T07:49:25.367Z</time></trkpt><trkpt lat="41.7634831" lon="13.1173802"><ele>239.0</ele><time>2026-05-03T07:49:26.368Z</time></trkpt><trkpt lat="41.7636835" lon="13.1171298"><ele>239.0</ele><time>2026-05-03T07:49:27.366Z</time></trkpt><trkpt lat="41.7638787" lon="13.11687"><ele>239.0</ele><time>2026-05-03T07:49:28.37Z</time></trkpt><trkpt lat="41.7640707" lon="13.1166066"><ele>239.5</ele><time>2026-05-03T07:49:29.368Z</time></trkpt><trkpt lat="41.7642558" lon="13.116345"><ele>240.0</ele><time>2026-05-03T07:49:30.367Z</time></trkpt><trkpt lat="41.7644351" lon="13.1160862"><ele>239.0</ele><time>2026-05-03T07:49:31.372Z</time></trkpt><trkpt lat="41.7646123" lon="13.1158318"><ele>238.0</ele><time>2026-05-03T07:49:32.372Z</time></trkpt><trkpt lat="41.7647904" lon="13.1155877"><ele>238.0</ele><time>2026-05-03T07:49:33.368Z</time></trkpt><trkpt lat="41.7649703" lon="13.1153556"><ele>238.0</ele><time>2026-05-03T07:49:34.369Z</time></trkpt><trkpt lat="41.7651472" lon="13.1151225"><ele>239.5</ele><time>2026-05-03T07:49:35.377Z</time></trkpt><trkpt lat="41.7653239" lon="13.1148877"><ele>241.0</ele><time>2026-05-03T07:49:36.376Z</time></trkpt><trkpt lat="41.7655051" lon="13.1146529"><ele>241.0</ele><time>2026-05-03T07:49:37.377Z</time></trkpt><trkpt lat="41.7656896" lon="13.1144202"><ele>241.0</ele><time>2026-05-03T07:49:38.379Z</time></trkpt><trkpt lat="41.7658818" lon="13.1141975"><ele>240.0</ele><time>2026-05-03T07:49:39.378Z</time></trkpt><trkpt lat="41.7660758" lon="13.1139886"><ele>239.0</ele><time>2026-05-03T07:49:40.368Z</time></trkpt><trkpt lat="41.7662786" lon="13.1137881"><ele>239.0</ele><time>2026-05-03T07:49:41.37Z</time></trkpt><trkpt lat="41.766486" lon="13.1135991"><ele>239.0</ele><time>2026-05-03T07:49:42.364Z</time></trkpt><trkpt lat="41.7667" lon="13.1134224"><ele>240.0</ele><time>2026-05-03T07:49:43.366Z</time></trkpt><trkpt lat="41.7669166" lon="13.1132566"><ele>241.0</ele><time>2026-05-03T07:49:44.365Z</time></trkpt><trkpt lat="41.7671378" lon="13.1130966"><ele>241.0</ele><time>2026-05-03T07:49:45.372Z</time></trkpt><trkpt lat="41.7673616" lon="13.1129413"><ele>241.0</ele><time>2026-05-03T07:49:46.369Z</time></trkpt><trkpt lat="41.7675924" lon="13.1127978"><ele>241.0</ele><time>2026-05-03T07:49:47.367Z</time></trkpt><trkpt lat="41.7678273" lon="13.1126742"><ele>241.0</ele><time>2026-05-03T07:49:48.371Z</time></trkpt><trkpt lat="41.7680647" lon="13.1125592"><ele>241.0</ele><time>2026-05-03T07:49:49.373Z</time></trkpt><trkpt lat="41.7683031" lon="13.1124597"><ele>241.0</ele><time>2026-05-03T07:49:50.369Z</time></trkpt><trkpt lat="41.7685441" lon="13.1123751"><ele>244.0</ele><time>2026-05-03T07:49:51.366Z</time></trkpt><trkpt lat="41.768787" lon="13.1122995"><ele>247.0</ele><time>2026-05-03T07:49:52.372Z</time></trkpt><trkpt lat="41.7690306" lon="13.1122348"><ele>247.0</ele><time>2026-05-03T07:49:53.369Z</time></trkpt><trkpt lat="41.7692772" lon="13.1121848"><ele>247.0</ele><time>2026-05-03T07:49:54.367Z</time></trkpt><trkpt lat="41.7695234" lon="13.1121512"><ele>249.0</ele><time>2026-05-03T07:49:55.368Z</time></trkpt><trkpt lat="41.769767" lon="13.1121236"><ele>251.0</ele><time>2026-05-03T07:49:56.368Z</time></trkpt><trkpt lat="41.7700122" lon="13.1120987"><ele>255.0</ele><time>2026-05-03T07:49:57.371Z</time></trkpt><trkpt lat="41.7702592" lon="13.1120895"><ele>259.0</ele><time>2026-05-03T07:49:58.37Z</time></trkpt><trkpt lat="41.7705104" lon="13.1120998"><ele>259.0</ele><time>2026-05-03T07:49:59.372Z</time></trkpt><trkpt lat="41.7707649" lon="13.112126"><ele>259.0</ele><time>2026-05-03T07:50:00.378Z</time></trkpt><trkpt lat="41.77102" lon="13.112158"><ele>263.0</ele><time>2026-05-03T07:50:01.378Z</time></trkpt><trkpt lat="41.7712736" lon="13.112194"><ele>267.0</ele><time>2026-05-03T07:50:02.364Z</time></trkpt><trkpt lat="41.7715296" lon="13.1122373"><ele>267.0</ele><time>2026-05-03T07:50:03.365Z</time></trkpt><trkpt lat="41.7717828" lon="13.1122867"><ele>267.0</ele><time>2026-05-03T07:50:04.364Z</time></trkpt><trkpt lat="41.7720349" lon="13.1123484"><ele>265.0</ele><time>2026-05-03T07:50:05.369Z</time></trkpt><trkpt lat="41.7722825" lon="13.1124285"><ele>263.0</ele><time>2026-05-03T07:50:06.372Z</time></trkpt><trkpt lat="41.7725245" lon="13.1125315"><ele>267.5</ele><time>2026-05-03T07:50:07.367Z</time></trkpt><trkpt lat="41.7727608" lon="13.1126539"><ele>272.0</ele><time>2026-05-03T07:50:08.379Z</time></trkpt><trkpt lat="41.7729894" lon="13.1127945"><ele>272.0</ele><time>2026-05-03T07:50:09.368Z</time></trkpt><trkpt lat="41.7732165" lon="13.1129525"><ele>272.0</ele><time>2026-05-03T07:50:10.376Z</time></trkpt><trkpt lat="41.7734345" lon="13.1131248"><ele>275.0</ele><time>2026-05-03T07:50:11.368Z</time></trkpt><trkpt lat="41.7736484" lon="13.1133085"><ele>278.0</ele><time>2026-05-03T07:50:12.368Z</time></trkpt><trkpt lat="41.7738548" lon="13.1135071"><ele>278.0</ele><time>2026-05-03T07:50:13.368Z</time></trkpt><trkpt lat="41.7740529" lon="13.1137206"><ele>278.0</ele><time>2026-05-03T07:50:14.367Z</time></trkpt><trkpt lat="41.7742426" lon="13.1139488"><ele>286.5</ele><time>2026-05-03T07:50:15.371Z</time></trkpt><trkpt lat="41.7744167" lon="13.114198"><ele>295.0</ele><time>2026-05-03T07:50:16.377Z</time></trkpt><trkpt lat="41.7745711" lon="13.1144666"><ele>295.0</ele><time>2026-05-03T07:50:17.375Z</time></trkpt><trkpt lat="41.7747148" lon="13.1147457"><ele>295.0</ele><time>2026-05-03T07:50:18.375Z</time></trkpt><trkpt lat="41.7748477" lon="13.1150374"><ele>290.0</ele><time>2026-05-03T07:50:19.368Z</time></trkpt><trkpt lat="41.7749713" lon="13.1153423"><ele>285.0</ele><time>2026-05-03T07:50:20.382Z</time></trkpt><trkpt lat="41.7750866" lon="13.11566"><ele>294.0</ele><time>2026-05-03T07:50:21.377Z</time></trkpt><trkpt lat="41.7752009" lon="13.1159825"><ele>303.0</ele><time>2026-05-03T07:50:22.382Z</time></trkpt><trkpt lat="41.7753174" lon="13.1163044"><ele>300.0</ele><time>2026-05-03T07:50:23.373Z</time></trkpt><trkpt lat="41.7754368" lon="13.1166231"><ele>297.0</ele><time>2026-05-03T07:50:24.367Z</time></trkpt><trkpt lat="41.7755534" lon="13.1169317"><ele>297.0</ele><time>2026-05-03T07:50:25.369Z</time></trkpt><trkpt lat="41.7756667" lon="13.1172327"><ele>297.0</ele><time>2026-05-03T07:50:26.368Z</time></trkpt><trkpt lat="41.7757939" lon="13.117523"><ele>291.0</ele><time>2026-05-03T07:50:27.367Z</time></trkpt><trkpt lat="41.7759236" lon="13.1177943"><ele>285.0</ele><time>2026-05-03T07:50:28.376Z</time></trkpt><trkpt lat="41.7760628" lon="13.1180414"><ele>288.6666666666667</ele><time>2026-05-03T07:50:29.378Z</time></trkpt><trkpt lat="41.7762052" lon="13.1182711"><ele>292.33333333333337</ele><time>2026-05-03T07:50:30.368Z</time></trkpt><trkpt lat="41.7763548" lon="13.1184872"><ele>296.0</ele><time>2026-05-03T07:50:31.372Z</time></trkpt><trkpt lat="41.7765101" lon="13.1186837"><ele>296.0</ele><time>2026-05-03T07:50:32.378Z</time></trkpt><trkpt lat="41.7766741" lon="13.1188699"><ele>296.0</ele><time>2026-05-03T07:50:33.371Z</time></trkpt><trkpt lat="41.7768489" lon="13.1190479"><ele>296.0</ele><time>2026-05-03T07:50:34.386Z</time></trkpt><trkpt lat="41.7770375" lon="13.119213"><ele>297.0</ele><time>2026-05-03T07:50:35.366Z</time></trkpt><trkpt lat="41.7772274" lon="13.1193631"><ele>298.0</ele><time>2026-05-03T07:50:36.371Z</time></trkpt><trkpt lat="41.7774195" lon="13.1194935"><ele>299.0</ele><time>2026-05-03T07:50:37.376Z</time></trkpt><trkpt lat="41.7776233" lon="13.119612"><ele>302.0</ele><time>2026-05-03T07:50:38.375Z</time></trkpt><trkpt lat="41.7778347" lon="13.1197166"><ele>305.0</ele><time>2026-05-03T07:50:39.373Z</time></trkpt><trkpt lat="41.7780475" lon="13.1198116"><ele>305.0</ele><time>2026-05-03T07:50:40.378Z</time></trkpt><trkpt lat="41.7782734" lon="13.1198878"><ele>305.0</ele><time>2026-05-03T07:50:41.377Z</time></trkpt><trkpt lat="41.7785156" lon="13.1199491"><ele>300.5</ele><time>2026-05-03T07:50:42.376Z</time></trkpt><trkpt lat="41.7787863" lon="13.120014"><ele>296.0</ele><time>2026-05-03T07:50:43.381Z</time></trkpt><trkpt lat="41.7791003" lon="13.1200931"><ele>301.5</ele><time>2026-05-03T07:50:44.376Z</time></trkpt><trkpt lat="41.7794435" lon="13.120181"><ele>307.0</ele><time>2026-05-03T07:50:45.377Z</time></trkpt><trkpt lat="41.7798005" lon="13.1202671"><ele>307.0</ele><time>2026-05-03T07:50:46.375Z</time></trkpt><trkpt lat="41.7801275" lon="13.1203485"><ele>307.0</ele><time>2026-05-03T07:50:47.368Z</time></trkpt><trkpt lat="41.7804367" lon="13.1204261"><ele>308.5</ele><time>2026-05-03T07:50:48.382Z</time></trkpt><trkpt lat="41.7807233" lon="13.1204951"><ele>310.0</ele><time>2026-05-03T07:50:49.379Z</time></trkpt><trkpt lat="41.780995" lon="13.1205559"><ele>307.0</ele><time>2026-05-03T07:50:50.368Z</time></trkpt><trkpt lat="41.7812569" lon="13.1206167"><ele>304.0</ele><time>2026-05-03T07:50:51.367Z</time></trkpt><trkpt lat="41.7815088" lon="13.1206735"><ele>303.0</ele><time>2026-05-03T07:50:52.366Z</time></trkpt><trkpt lat="41.7817543" lon="13.1207332"><ele>302.0</ele><time>2026-05-03T07:50:53.37Z</time></trkpt><trkpt lat="41.7819959" lon="13.1207883"><ele>297.5</ele><time>2026-05-03T07:50:54.367Z</time></trkpt><trkpt lat="41.7822291" lon="13.120843"><ele>293.0</ele><time>2026-05-03T07:50:55.479Z</time></trkpt><trkpt lat="41.7826932" lon="13.1209469"><ele>292.5</ele><time>2026-05-03T07:50:57.372Z</time></trkpt><trkpt lat="41.7829283" lon="13.1210011"><ele>292.0</ele><time>2026-05-03T07:50:58.38Z</time></trkpt><trkpt lat="41.7831634" lon="13.1210575"><ele>292.0</ele><time>2026-05-03T07:50:59.37Z</time></trkpt><trkpt lat="41.7834032" lon="13.1211137"><ele>292.0</ele><time>2026-05-03T07:51:00.369Z</time></trkpt><trkpt lat="41.7836379" lon="13.1211782"><ele>295.0</ele><time>2026-05-03T07:51:01.367Z</time></trkpt><trkpt lat="41.7838784" lon="13.1212532"><ele>298.0</ele><time>2026-05-03T07:51:02.363Z</time></trkpt><trkpt lat="41.7841136" lon="13.1213411"><ele>300.5</ele><time>2026-05-03T07:51:03.369Z</time></trkpt><trkpt lat="41.7843528" lon="13.1214336"><ele>303.0</ele><time>2026-05-03T07:51:04.362Z</time></trkpt><trkpt lat="41.784589" lon="13.1215403"><ele>302.5</ele><time>2026-05-03T07:51:05.379Z</time></trkpt><trkpt lat="41.7848213" lon="13.1216594"><ele>302.0</ele><time>2026-05-03T07:51:06.369Z</time></trkpt><trkpt lat="41.7850497" lon="13.1217862"><ele>305.0</ele><time>2026-05-03T07:51:07.382Z</time></trkpt><trkpt lat="41.7852748" lon="13.1219246"><ele>308.0</ele><time>2026-05-03T07:51:08.376Z</time></trkpt><trkpt lat="41.7854938" lon="13.1220777"><ele>308.0</ele><time>2026-05-03T07:51:09.376Z</time></trkpt><trkpt lat="41.78571" lon="13.1222398"><ele>308.0</ele><time>2026-05-03T07:51:10.364Z</time></trkpt><trkpt lat="41.785922" lon="13.1224171"><ele>305.0</ele><time>2026-05-03T07:51:11.378Z</time></trkpt><trkpt lat="41.7861305" lon="13.1226034"><ele>302.0</ele><time>2026-05-03T07:51:12.362Z</time></trkpt><trkpt lat="41.7863258" lon="13.1228081"><ele>302.0</ele><time>2026-05-03T07:51:13.383Z</time></trkpt><trkpt lat="41.7865234" lon="13.1230188"><ele>302.0</ele><time>2026-05-03T07:51:14.377Z</time></trkpt><trkpt lat="41.7867124" lon="13.1232436"><ele>300.5</ele><time>2026-05-03T07:51:15.366Z</time></trkpt><trkpt lat="41.7868935" lon="13.1234811"><ele>299.0</ele><time>2026-05-03T07:51:16.365Z</time></trkpt><trkpt lat="41.7870689" lon="13.1237277"><ele>299.0</ele><time>2026-05-03T07:51:17.375Z</time></trkpt><trkpt lat="41.7872375" lon="13.1239791"><ele>299.0</ele><time>2026-05-03T07:51:18.366Z</time></trkpt><trkpt lat="41.7873989" lon="13.1242399"><ele>301.5</ele><time>2026-05-03T07:51:19.369Z</time></trkpt><trkpt lat="41.7875538" lon="13.1245063"><ele>304.0</ele><time>2026-05-03T07:51:20.366Z</time></trkpt><trkpt lat="41.7877032" lon="13.1247751"><ele>310.5</ele><time>2026-05-03T07:51:21.382Z</time></trkpt><trkpt lat="41.7878493" lon="13.1250476"><ele>317.0</ele><time>2026-05-03T07:51:22.367Z</time></trkpt><trkpt lat="41.7879949" lon="13.1253167"><ele>317.0</ele><time>2026-05-03T07:51:23.376Z</time></trkpt><trkpt lat="41.7881382" lon="13.1255878"><ele>317.0</ele><time>2026-05-03T07:51:24.377Z</time></trkpt><trkpt lat="41.7882803" lon="13.1258625"><ele>319.0</ele><time>2026-05-03T07:51:25.378Z</time></trkpt><trkpt lat="41.7884263" lon="13.126136"><ele>321.0</ele><time>2026-05-03T07:51:26.369Z</time></trkpt><trkpt lat="41.788571" lon="13.1264161"><ele>324.0</ele><time>2026-05-03T07:51:27.362Z</time></trkpt><trkpt lat="41.7887117" lon="13.1266895"><ele>327.0</ele><time>2026-05-03T07:51:28.36Z</time></trkpt><trkpt lat="41.7888493" lon="13.1269545"><ele>327.0</ele><time>2026-05-03T07:51:29.364Z</time></trkpt><trkpt lat="41.7889755" lon="13.1271958"><ele>327.0</ele><time>2026-05-03T07:51:30.366Z</time></trkpt><trkpt lat="41.7890834" lon="13.1274046"><ele>327.0</ele><time>2026-05-03T07:51:31.363Z</time></trkpt><trkpt lat="41.7891837" lon="13.1275957"><ele>327.0</ele><time>2026-05-03T07:51:32.378Z</time></trkpt><trkpt lat="41.7892806" lon="13.1277738"><ele>327.0</ele><time>2026-05-03T07:51:33.374Z</time></trkpt><trkpt lat="41.7893773" lon="13.1279379"><ele>327.0</ele><time>2026-05-03T07:51:34.367Z</time></trkpt><trkpt lat="41.7894638" lon="13.1280939"><ele>326.5</ele><time>2026-05-03T07:51:35.37Z</time></trkpt><trkpt lat="41.7895465" lon="13.128241"><ele>326.0</ele><time>2026-05-03T07:51:36.375Z</time></trkpt><trkpt lat="41.7896196" lon="13.1283776"><ele>325.5</ele><time>2026-05-03T07:51:37.37Z</time></trkpt><trkpt lat="41.7896846" lon="13.1285039"><ele>325.0</ele><time>2026-05-03T07:51:38.379Z</time></trkpt><trkpt lat="41.7897508" lon="13.1286129"><ele>325.0</ele><time>2026-05-03T07:51:39.369Z</time></trkpt><trkpt lat="41.7898232" lon="13.1287"><ele>325.0</ele><time>2026-05-03T07:51:40.377Z</time></trkpt><trkpt lat="41.7899052" lon="13.1287487"><ele>325.0</ele><time>2026-05-03T07:51:41.375Z</time></trkpt><trkpt lat="41.7899966" lon="13.1287618"><ele>325.0</ele><time>2026-05-03T07:51:42.369Z</time></trkpt><trkpt lat="41.7901045" lon="13.1287542"><ele>325.0</ele><time>2026-05-03T07:51:43.379Z</time></trkpt><trkpt lat="41.790226" lon="13.1287402"><ele>325.5</ele><time>2026-05-03T07:51:44.377Z</time></trkpt><trkpt lat="41.7903638" lon="13.1287361"><ele>326.0</ele><time>2026-05-03T07:51:45.366Z</time></trkpt><trkpt lat="41.7905003" lon="13.128758"><ele>326.5</ele><time>2026-05-03T07:51:46.367Z</time></trkpt><trkpt lat="41.7906454" lon="13.1287934"><ele>327.0</ele><time>2026-05-03T07:51:47.371Z</time></trkpt><trkpt lat="41.790803" lon="13.1288551"><ele>327.0</ele><time>2026-05-03T07:51:48.374Z</time></trkpt><trkpt lat="41.7909645" lon="13.1289325"><ele>327.0</ele><time>2026-05-03T07:51:49.376Z</time></trkpt><trkpt lat="41.791127" lon="13.1290113"><ele>327.0</ele><time>2026-05-03T07:51:50.367Z</time></trkpt><trkpt lat="41.7912883" lon="13.1290856"><ele>327.6666666666667</ele><time>2026-05-03T07:51:51.365Z</time></trkpt><trkpt lat="41.7914469" lon="13.1291531"><ele>328.33333333333337</ele><time>2026-05-03T07:51:52.365Z</time></trkpt><trkpt lat="41.7916173" lon="13.1292026"><ele>329.0</ele><time>2026-05-03T07:51:53.367Z</time></trkpt><trkpt lat="41.7917965" lon="13.1292401"><ele>329.6666666666667</ele><time>2026-05-03T07:51:54.37Z</time></trkpt><trkpt lat="41.7919874" lon="13.1292754"><ele>330.3333333333333</ele><time>2026-05-03T07:51:55.376Z</time></trkpt><trkpt lat="41.7921876" lon="13.1293071"><ele>331.0</ele><time>2026-05-03T07:51:56.367Z</time></trkpt><trkpt lat="41.7923844" lon="13.1293324"><ele>331.0</ele><time>2026-05-03T07:51:57.369Z</time></trkpt><trkpt lat="41.7925651" lon="13.1293605"><ele>331.0</ele><time>2026-05-03T07:51:58.37Z</time></trkpt><trkpt lat="41.7927394" lon="13.1293935"><ele>331.0</ele><time>2026-05-03T07:51:59.363Z</time></trkpt><trkpt lat="41.7929136" lon="13.1294244"><ele>331.0</ele><time>2026-05-03T07:52:00.366Z</time></trkpt><trkpt lat="41.7930803" lon="13.1294513"><ele>331.0</ele><time>2026-05-03T07:52:01.376Z</time></trkpt><trkpt lat="41.7932295" lon="13.1294707"><ele>331.0</ele><time>2026-05-03T07:52:02.385Z</time></trkpt><trkpt lat="41.7933734" lon="13.1294817"><ele>329.66666666666663</ele><time>2026-05-03T07:52:03.367Z</time></trkpt><trkpt lat="41.7935285" lon="13.1294786"><ele>328.3333333333333</ele><time>2026-05-03T07:52:04.38Z</time></trkpt><trkpt lat="41.7936935" lon="13.1294459"><ele>327.0</ele><time>2026-05-03T07:52:05.376Z</time></trkpt><trkpt lat="41.7938688" lon="13.1293964"><ele>327.0</ele><time>2026-05-03T07:52:06.367Z</time></trkpt><trkpt lat="41.7940696" lon="13.129332"><ele>327.0</ele><time>2026-05-03T07:52:07.37Z</time></trkpt><trkpt lat="41.7942864" lon="13.1292618"><ele>327.0</ele><time>2026-05-03T07:52:08.366Z</time></trkpt><trkpt lat="41.7945111" lon="13.1291882"><ele>326.5</ele><time>2026-05-03T07:52:09.37Z</time></trkpt><trkpt lat="41.7947434" lon="13.1291054"><ele>326.0</ele><time>2026-05-03T07:52:10.368Z</time></trkpt><trkpt lat="41.7949707" lon="13.1290305"><ele>325.5</ele><time>2026-05-03T07:52:11.368Z</time></trkpt><trkpt lat="41.7951928" lon="13.1289547"><ele>325.0</ele><time>2026-05-03T07:52:12.384Z</time></trkpt><trkpt lat="41.7954137" lon="13.1288912"><ele>325.0</ele><time>2026-05-03T07:52:13.374Z</time></trkpt><trkpt lat="41.7956134" lon="13.1288301"><ele>325.0</ele><time>2026-05-03T07:52:14.367Z</time></trkpt><trkpt lat="41.7958158" lon="13.1287742"><ele>325.0</ele><time>2026-05-03T07:52:15.37Z</time></trkpt><trkpt lat="41.7960303" lon="13.1287464"><ele>325.66666666666663</ele><time>2026-05-03T07:52:16.377Z</time></trkpt><trkpt lat="41.7962447" lon="13.1287228"><ele>326.3333333333333</ele><time>2026-05-03T07:52:17.367Z</time></trkpt><trkpt lat="41.7964685" lon="13.1287085"><ele>327.0</ele><time>2026-05-03T07:52:18.374Z</time></trkpt><trkpt lat="41.7966883" lon="13.1286913"><ele>327.6666666666667</ele><time>2026-05-03T07:52:19.368Z</time></trkpt><trkpt lat="41.7969068" lon="13.1286735"><ele>328.33333333333337</ele><time>2026-05-03T07:52:20.37Z</time></trkpt><trkpt lat="41.7971239" lon="13.1286488"><ele>329.0</ele><time>2026-05-03T07:52:21.378Z</time></trkpt><trkpt lat="41.7973419" lon="13.1286266"><ele>329.0</ele><time>2026-05-03T07:52:22.376Z</time></trkpt><trkpt lat="41.7975547" lon="13.128602"><ele>329.0</ele><time>2026-05-03T07:52:23.368Z</time></trkpt><trkpt lat="41.7977582" lon="13.1285744"><ele>329.0</ele><time>2026-05-03T07:52:24.367Z</time></trkpt><trkpt lat="41.7979557" lon="13.1285331"><ele>329.6666666666667</ele><time>2026-05-03T07:52:25.374Z</time></trkpt><trkpt lat="41.7981368" lon="13.1284818"><ele>330.3333333333333</ele><time>2026-05-03T07:52:26.37Z</time></trkpt><trkpt lat="41.7982976" lon="13.1284218"><ele>331.0</ele><time>2026-05-03T07:52:27.37Z</time></trkpt><trkpt lat="41.7984539" lon="13.1283724"><ele>330.66666666666663</ele><time>2026-05-03T07:52:28.373Z</time></trkpt><trkpt lat="41.7986307" lon="13.1283492"><ele>330.3333333333333</ele><time>2026-05-03T07:52:29.375Z</time></trkpt><trkpt lat="41.7988242" lon="13.1283389"><ele>330.0</ele><time>2026-05-03T07:52:30.373Z</time></trkpt><trkpt lat="41.7990238" lon="13.1283696"><ele>330.0</ele><time>2026-05-03T07:52:31.374Z</time></trkpt><trkpt lat="41.7992382" lon="13.128393"><ele>330.0</ele><time>2026-05-03T07:52:32.368Z</time></trkpt><trkpt lat="41.7994543" lon="13.1284133"><ele>330.0</ele><time>2026-05-03T07:52:33.382Z</time></trkpt><trkpt lat="41.7996526" lon="13.1284364"><ele>330.0</ele><time>2026-05-03T07:52:34.377Z</time></trkpt><trkpt lat="41.7998475" lon="13.1284436"><ele>330.0</ele><time>2026-05-03T07:52:35.373Z</time></trkpt><trkpt lat="41.8000212" lon="13.1284275"><ele>330.0</ele><time>2026-05-03T07:52:36.368Z</time></trkpt><trkpt lat="41.800198" lon="13.1283737"><ele>331.0</ele><time>2026-05-03T07:52:37.462Z</time></trkpt><trkpt lat="41.800364" lon="13.1282996"><ele>332.0</ele><time>2026-05-03T07:52:38.368Z</time></trkpt><trkpt lat="41.8005075" lon="13.1282378"><ele>333.0</ele><time>2026-05-03T07:52:39.367Z</time></trkpt><trkpt lat="41.8006272" lon="13.1281963"><ele>334.0</ele><time>2026-05-03T07:52:40.367Z</time></trkpt><trkpt lat="41.8007326" lon="13.1281956"><ele>334.0</ele><time>2026-05-03T07:52:41.378Z</time></trkpt><trkpt lat="41.8008447" lon="13.1282455"><ele>334.0</ele><time>2026-05-03T07:52:42.366Z</time></trkpt><trkpt lat="41.8009695" lon="13.1283488"><ele>334.0</ele><time>2026-05-03T07:52:43.368Z</time></trkpt><trkpt lat="41.8010953" lon="13.1284666"><ele>334.0</ele><time>2026-05-03T07:52:44.371Z</time></trkpt><trkpt lat="41.8012503" lon="13.1285735"><ele>335.0</ele><time>2026-05-03T07:52:45.369Z</time></trkpt><trkpt lat="41.8014353" lon="13.1286731"><ele>336.0</ele><time>2026-05-03T07:52:46.373Z</time></trkpt><trkpt lat="41.8016459" lon="13.1287545"><ele>337.0</ele><time>2026-05-03T07:52:47.366Z</time></trkpt><trkpt lat="41.8018868" lon="13.1288351"><ele>338.0</ele><time>2026-05-03T07:52:48.377Z</time></trkpt><trkpt lat="41.8021367" lon="13.1289275"><ele>339.0</ele><time>2026-05-03T07:52:49.371Z</time></trkpt><trkpt lat="41.8024197" lon="13.1290144"><ele>338.5</ele><time>2026-05-03T07:52:50.37Z</time></trkpt><trkpt lat="41.8026768" lon="13.1290991"><ele>338.0</ele><time>2026-05-03T07:52:51.369Z</time></trkpt><trkpt lat="41.802926" lon="13.1291801"><ele>338.0</ele><time>2026-05-03T07:52:52.369Z</time></trkpt><trkpt lat="41.8031844" lon="13.1292492"><ele>338.0</ele><time>2026-05-03T07:52:53.368Z</time></trkpt><trkpt lat="41.8034402" lon="13.1293043"><ele>341.0</ele><time>2026-05-03T07:52:54.369Z</time></trkpt><trkpt lat="41.8036868" lon="13.129342"><ele>344.0</ele><time>2026-05-03T07:52:55.375Z</time></trkpt><trkpt lat="41.8039124" lon="13.1293755"><ele>344.0</ele><time>2026-05-03T07:52:56.378Z</time></trkpt><trkpt lat="41.8041219" lon="13.1294066"><ele>344.0</ele><time>2026-05-03T07:52:57.378Z</time></trkpt><trkpt lat="41.8042959" lon="13.1294407"><ele>344.0</ele><time>2026-05-03T07:52:58.372Z</time></trkpt><trkpt lat="41.8044532" lon="13.12947"><ele>345.6666666666667</ele><time>2026-05-03T07:52:59.377Z</time></trkpt><trkpt lat="41.804584" lon="13.1294871"><ele>347.3333333333333</ele><time>2026-05-03T07:53:00.373Z</time></trkpt><trkpt lat="41.8047311" lon="13.129466"><ele>349.0</ele><time>2026-05-03T07:53:01.365Z</time></trkpt><trkpt lat="41.8049042" lon="13.1294015"><ele>349.0</ele><time>2026-05-03T07:53:02.364Z</time></trkpt><trkpt lat="41.8050811" lon="13.1293053"><ele>349.0</ele><time>2026-05-03T07:53:03.371Z</time></trkpt><trkpt lat="41.8052569" lon="13.1292112"><ele>349.0</ele><time>2026-05-03T07:53:04.369Z</time></trkpt><trkpt lat="41.8054339" lon="13.1291425"><ele>350.3333333333333</ele><time>2026-05-03T07:53:05.367Z</time></trkpt><trkpt lat="41.8056098" lon="13.1290905"><ele>351.6666666666667</ele><time>2026-05-03T07:53:06.366Z</time></trkpt><trkpt lat="41.8057873" lon="13.1290761"><ele>353.0</ele><time>2026-05-03T07:53:07.369Z</time></trkpt><trkpt lat="41.8059364" lon="13.1290793"><ele>355.0</ele><time>2026-05-03T07:53:08.378Z</time></trkpt><trkpt lat="41.806072" lon="13.1290522"><ele>357.0</ele><time>2026-05-03T07:53:09.372Z</time></trkpt><trkpt lat="41.8062204" lon="13.1289795"><ele>359.0</ele><time>2026-05-03T07:53:10.369Z</time></trkpt><trkpt lat="41.8063574" lon="13.1289012"><ele>361.0</ele><time>2026-05-03T07:53:11.368Z</time></trkpt><trkpt lat="41.8064768" lon="13.1288646"><ele>361.0</ele><time>2026-05-03T07:53:12.364Z</time></trkpt><trkpt lat="41.8066125" lon="13.1288688"><ele>361.0</ele><time>2026-05-03T07:53:13.366Z</time></trkpt><trkpt lat="41.806744" lon="13.1289231"><ele>361.0</ele><time>2026-05-03T07:53:14.366Z</time></trkpt><trkpt lat="41.806882" lon="13.1290339"><ele>361.0</ele><time>2026-05-03T07:53:15.365Z</time></trkpt><trkpt lat="41.8070051" lon="13.1291767"><ele>360.0</ele><time>2026-05-03T07:53:16.37Z</time></trkpt><trkpt lat="41.8070883" lon="13.1293623"><ele>359.0</ele><time>2026-05-03T07:53:17.366Z</time></trkpt><trkpt lat="41.8071667" lon="13.1296011"><ele>358.0</ele><time>2026-05-03T07:53:18.367Z</time></trkpt><trkpt lat="41.8072392" lon="13.1298956"><ele>358.0</ele><time>2026-05-03T07:53:19.371Z</time></trkpt><trkpt lat="41.8073092" lon="13.1302053"><ele>358.0</ele><time>2026-05-03T07:53:20.366Z</time></trkpt><trkpt lat="41.8073736" lon="13.1304774"><ele>358.0</ele><time>2026-05-03T07:53:21.373Z</time></trkpt><trkpt lat="41.807428" lon="13.1307087"><ele>358.0</ele><time>2026-05-03T07:53:22.369Z</time></trkpt><trkpt lat="41.8074801" lon="13.1308936"><ele>358.0</ele><time>2026-05-03T07:53:23.377Z</time></trkpt><trkpt lat="41.807539" lon="13.1310359"><ele>358.0</ele><time>2026-05-03T07:53:24.369Z</time></trkpt><trkpt lat="41.8076126" lon="13.1311329"><ele>361.75</ele><time>2026-05-03T07:53:25.37Z</time></trkpt><trkpt lat="41.8076999" lon="13.1311841"><ele>365.5</ele><time>2026-05-03T07:53:26.373Z</time></trkpt><trkpt lat="41.8078186" lon="13.1311956"><ele>369.25</ele><time>2026-05-03T07:53:27.378Z</time></trkpt><trkpt lat="41.8079322" lon="13.1311566"><ele>373.0</ele><time>2026-05-03T07:53:28.377Z</time></trkpt><trkpt lat="41.8080532" lon="13.1310667"><ele>373.0</ele><time>2026-05-03T07:53:29.369Z</time></trkpt><trkpt lat="41.8081658" lon="13.1309303"><ele>373.0</ele><time>2026-05-03T07:53:30.377Z</time></trkpt><trkpt lat="41.8082711" lon="13.1308269"><ele>373.0</ele><time>2026-05-03T07:53:31.378Z</time></trkpt><trkpt lat="41.8084089" lon="13.1307629"><ele>373.0</ele><time>2026-05-03T07:53:32.379Z</time></trkpt><trkpt lat="41.8085614" lon="13.1307293"><ele>375.3333333333333</ele><time>2026-05-03T07:53:33.377Z</time></trkpt><trkpt lat="41.8087277" lon="13.1307329"><ele>377.6666666666667</ele><time>2026-05-03T07:53:34.364Z</time></trkpt><trkpt lat="41.8089094" lon="13.1307644"><ele>380.0</ele><time>2026-05-03T07:53:35.372Z</time></trkpt><trkpt lat="41.8091174" lon="13.1308344"><ele>380.0</ele><time>2026-05-03T07:53:36.372Z</time></trkpt><trkpt lat="41.8093201" lon="13.1309101"><ele>380.0</ele><time>2026-05-03T07:53:37.377Z</time></trkpt><trkpt lat="41.8095026" lon="13.1309845"><ele>380.0</ele><time>2026-05-03T07:53:38.369Z</time></trkpt><trkpt lat="41.809678" lon="13.131055"><ele>382.6666666666667</ele><time>2026-05-03T07:53:39.38Z</time></trkpt><trkpt lat="41.8098392" lon="13.1311134"><ele>385.33333333333337</ele><time>2026-05-03T07:53:40.369Z</time></trkpt><trkpt lat="41.8099939" lon="13.1311737"><ele>388.0</ele><time>2026-05-03T07:53:41.374Z</time></trkpt><trkpt lat="41.810135" lon="13.1312392"><ele>389.0</ele><time>2026-05-03T07:53:42.367Z</time></trkpt><trkpt lat="41.8102534" lon="13.1312916"><ele>390.0</ele><time>2026-05-03T07:53:43.378Z</time></trkpt><trkpt lat="41.8103702" lon="13.1313129"><ele>391.0</ele><time>2026-05-03T07:53:44.37Z</time></trkpt><trkpt lat="41.8104925" lon="13.1312933"><ele>392.0</ele><time>2026-05-03T07:53:45.379Z</time></trkpt><trkpt lat="41.8106496" lon="13.1312379"><ele>392.0</ele><time>2026-05-03T07:53:46.37Z</time></trkpt><trkpt lat="41.8108275" lon="13.1311883"><ele>392.0</ele><time>2026-05-03T07:53:47.369Z</time></trkpt><trkpt lat="41.8110075" lon="13.1311555"><ele>392.0</ele><time>2026-05-03T07:53:48.376Z</time></trkpt><trkpt lat="41.811181" lon="13.1311371"><ele>394.66666666666663</ele><time>2026-05-03T07:53:49.372Z</time></trkpt><trkpt lat="41.8113422" lon="13.131116"><ele>397.33333333333337</ele><time>2026-05-03T07:53:50.369Z</time></trkpt><trkpt lat="41.8115047" lon="13.131096"><ele>400.0</ele><time>2026-05-03T07:53:51.372Z</time></trkpt><trkpt lat="41.8116639" lon="13.1310765"><ele>400.0</ele><time>2026-05-03T07:53:52.369Z</time></trkpt><trkpt lat="41.81182" lon="13.1310383"><ele>400.0</ele><time>2026-05-03T07:53:53.378Z</time></trkpt><trkpt lat="41.8119665" lon="13.130974"><ele>400.0</ele><time>2026-05-03T07:53:54.376Z</time></trkpt><trkpt lat="41.8121019" lon="13.1308717"><ele>399.6666666666667</ele><time>2026-05-03T07:53:55.371Z</time></trkpt><trkpt lat="41.8122284" lon="13.1307724"><ele>399.33333333333337</ele><time>2026-05-03T07:53:56.385Z</time></trkpt><trkpt lat="41.81237" lon="13.1306844"><ele>399.0</ele><time>2026-05-03T07:53:57.377Z</time></trkpt><trkpt lat="41.8125312" lon="13.1306338"><ele>400.66666666666663</ele><time>2026-05-03T07:53:58.369Z</time></trkpt><trkpt lat="41.8127027" lon="13.1306104"><ele>402.3333333333333</ele><time>2026-05-03T07:53:59.369Z</time></trkpt><trkpt lat="41.812866" lon="13.1305825"><ele>404.0</ele><time>2026-05-03T07:54:00.369Z</time></trkpt><trkpt lat="41.8130257" lon="13.130556"><ele>404.0</ele><time>2026-05-03T07:54:01.373Z</time></trkpt><trkpt lat="41.8131733" lon="13.1305399"><ele>404.0</ele><time>2026-05-03T07:54:02.371Z</time></trkpt><trkpt lat="41.8133249" lon="13.1305663"><ele>404.0</ele><time>2026-05-03T07:54:03.369Z</time></trkpt><trkpt lat="41.8134809" lon="13.1306271"><ele>404.66666666666663</ele><time>2026-05-03T07:54:04.375Z</time></trkpt><trkpt lat="41.8136325" lon="13.1307033"><ele>405.33333333333337</ele><time>2026-05-03T07:54:05.372Z</time></trkpt><trkpt lat="41.8137842" lon="13.1307752"><ele>406.0</ele><time>2026-05-03T07:54:06.369Z</time></trkpt><trkpt lat="41.8139451" lon="13.1308273"><ele>407.6666666666667</ele><time>2026-05-03T07:54:07.369Z</time></trkpt><trkpt lat="41.8141196" lon="13.1308465"><ele>409.33333333333337</ele><time>2026-05-03T07:54:08.378Z</time></trkpt><trkpt lat="41.8143036" lon="13.1308217"><ele>411.0</ele><time>2026-05-03T07:54:09.371Z</time></trkpt><trkpt lat="41.8144929" lon="13.1307661"><ele>410.33333333333337</ele><time>2026-05-03T07:54:10.377Z</time></trkpt><trkpt lat="41.8146772" lon="13.1307189"><ele>409.6666666666667</ele><time>2026-05-03T07:54:11.381Z</time></trkpt><trkpt lat="41.8148427" lon="13.1306814"><ele>409.0</ele><time>2026-05-03T07:54:12.371Z</time></trkpt><trkpt lat="41.8149925" lon="13.130642"><ele>409.0</ele><time>2026-05-03T07:54:13.381Z</time></trkpt><trkpt lat="41.815136" lon="13.1306019"><ele>409.0</ele><time>2026-05-03T07:54:14.368Z</time></trkpt><trkpt lat="41.8152832" lon="13.1305721"><ele>409.0</ele><time>2026-05-03T07:54:15.38Z</time></trkpt><trkpt lat="41.8154381" lon="13.1305754"><ele>409.33333333333337</ele><time>2026-05-03T07:54:16.371Z</time></trkpt><trkpt lat="41.8156124" lon="13.1306106"><ele>409.66666666666663</ele><time>2026-05-03T07:54:17.372Z</time></trkpt><trkpt lat="41.8157854" lon="13.1306679"><ele>410.0</ele><time>2026-05-03T07:54:18.369Z</time></trkpt><trkpt lat="41.8159335" lon="13.1307393"><ele>412.25</ele><time>2026-05-03T07:54:19.376Z</time></trkpt><trkpt lat="41.8160473" lon="13.1308274"><ele>414.5</ele><time>2026-05-03T07:54:20.378Z</time></trkpt><trkpt lat="41.8161505" lon="13.1309477"><ele>416.75</ele><time>2026-05-03T07:54:21.375Z</time></trkpt><trkpt lat="41.816243" lon="13.1311058"><ele>419.0</ele><time>2026-05-03T07:54:22.369Z</time></trkpt><trkpt lat="41.8163227" lon="13.1312966"><ele>419.0</ele><time>2026-05-03T07:54:23.369Z</time></trkpt><trkpt lat="41.8164009" lon="13.1314977"><ele>419.0</ele><time>2026-05-03T07:54:24.369Z</time></trkpt><trkpt lat="41.8164797" lon="13.1316671"><ele>419.0</ele><time>2026-05-03T07:54:25.376Z</time></trkpt><trkpt lat="41.8165765" lon="13.131807"><ele>421.66666666666663</ele><time>2026-05-03T07:54:26.372Z</time></trkpt><trkpt lat="41.8167087" lon="13.1319345"><ele>424.33333333333337</ele><time>2026-05-03T07:54:27.374Z</time></trkpt><trkpt lat="41.8168617" lon="13.1320562"><ele>427.0</ele><time>2026-05-03T07:54:28.371Z</time></trkpt><trkpt lat="41.8170233" lon="13.1321851"><ele>430.33333333333337</ele><time>2026-05-03T07:54:29.375Z</time></trkpt><trkpt lat="41.8171875" lon="13.1323143"><ele>433.66666666666663</ele><time>2026-05-03T07:54:30.37Z</time></trkpt><trkpt lat="41.8173416" lon="13.1324394"><ele>437.0</ele><time>2026-05-03T07:54:31.372Z</time></trkpt><trkpt lat="41.8174872" lon="13.1325518"><ele>437.0</ele><time>2026-05-03T07:54:32.371Z</time></trkpt><trkpt lat="41.8176463" lon="13.1326418"><ele>437.0</ele><time>2026-05-03T07:54:33.369Z</time></trkpt><trkpt lat="41.817827" lon="13.1327084"><ele>437.0</ele><time>2026-05-03T07:54:34.379Z</time></trkpt><trkpt lat="41.8180097" lon="13.1327654"><ele>441.3333333333333</ele><time>2026-05-03T07:54:35.369Z</time></trkpt><trkpt lat="41.8181751" lon="13.1328389"><ele>445.66666666666663</ele><time>2026-05-03T07:54:36.377Z</time></trkpt><trkpt lat="41.818322" lon="13.13292"><ele>450.0</ele><time>2026-05-03T07:54:37.373Z</time></trkpt><trkpt lat="41.8184533" lon="13.1329968"><ele>451.75</ele><time>2026-05-03T07:54:38.367Z</time></trkpt><trkpt lat="41.8185699" lon="13.1330817"><ele>453.5</ele><time>2026-05-03T07:54:39.369Z</time></trkpt><trkpt lat="41.8186791" lon="13.1331983"><ele>455.25</ele><time>2026-05-03T07:54:40.378Z</time></trkpt><trkpt lat="41.8187751" lon="13.1333281"><ele>457.0</ele><time>2026-05-03T07:54:41.372Z</time></trkpt><trkpt lat="41.8188529" lon="13.1334954"><ele>456.6666666666667</ele><time>2026-05-03T07:54:42.371Z</time></trkpt><trkpt lat="41.8189052" lon="13.1336907"><ele>456.33333333333337</ele><time>2026-05-03T07:54:43.37Z</time></trkpt><trkpt lat="41.8189626" lon="13.1338966"><ele>456.0</ele><time>2026-05-03T07:54:44.377Z</time></trkpt><trkpt lat="41.8190129" lon="13.1340953"><ele>456.0</ele><time>2026-05-03T07:54:45.373Z</time></trkpt><trkpt lat="41.8190595" lon="13.134295"><ele>456.0</ele><time>2026-05-03T07:54:46.372Z</time></trkpt><trkpt lat="41.8191156" lon="13.1344947"><ele>456.0</ele><time>2026-05-03T07:54:47.379Z</time></trkpt><trkpt lat="41.8191661" lon="13.1346805"><ele>456.0</ele><time>2026-05-03T07:54:48.378Z</time></trkpt><trkpt lat="41.8191868" lon="13.1348554"><ele>456.0</ele><time>2026-05-03T07:54:49.376Z</time></trkpt><trkpt lat="41.8191969" lon="13.135053"><ele>456.0</ele><time>2026-05-03T07:54:50.37Z</time></trkpt><trkpt lat="41.8191825" lon="13.1352457"><ele>456.0</ele><time>2026-05-03T07:54:51.38Z</time></trkpt><trkpt lat="41.8191557" lon="13.1354327"><ele>457.0</ele><time>2026-05-03T07:54:52.37Z</time></trkpt><trkpt lat="41.8191174" lon="13.1356159"><ele>458.0</ele><time>2026-05-03T07:54:53.371Z</time></trkpt><trkpt lat="41.8190571" lon="13.1358033"><ele>459.0</ele><time>2026-05-03T07:54:54.368Z</time></trkpt><trkpt lat="41.8189747" lon="13.1359781"><ele>460.0</ele><time>2026-05-03T07:54:55.371Z</time></trkpt><trkpt lat="41.8188802" lon="13.1361256"><ele>458.6666666666667</ele><time>2026-05-03T07:54:56.37Z</time></trkpt><trkpt lat="41.8187733" lon="13.1362568"><ele>457.33333333333337</ele><time>2026-05-03T07:54:57.371Z</time></trkpt><trkpt lat="41.8186393" lon="13.1363714"><ele>456.0</ele><time>2026-05-03T07:54:58.377Z</time></trkpt><trkpt lat="41.8183152" lon="13.1365344"><ele>463.33333333333337</ele><time>2026-05-03T07:55:00.372Z</time></trkpt><trkpt lat="41.8181321" lon="13.1365886"><ele>470.6666666666667</ele><time>2026-05-03T07:55:01.375Z</time></trkpt><trkpt lat="41.8179452" lon="13.1366145"><ele>478.0</ele><time>2026-05-03T07:55:02.375Z</time></trkpt><trkpt lat="41.8177556" lon="13.1366556"><ele>478.0</ele><time>2026-05-03T07:55:03.371Z</time></trkpt><trkpt lat="41.8175686" lon="13.1367228"><ele>478.0</ele><time>2026-05-03T07:55:04.382Z</time></trkpt><trkpt lat="41.8173828" lon="13.1367874"><ele>478.0</ele><time>2026-05-03T07:55:05.37Z</time></trkpt><trkpt lat="41.8172182" lon="13.1368382"><ele>478.0</ele><time>2026-05-03T07:55:06.372Z</time></trkpt><trkpt lat="41.8170632" lon="13.1368776"><ele>478.0</ele><time>2026-05-03T07:55:07.371Z</time></trkpt><trkpt lat="41.8169047" lon="13.1368884"><ele>478.0</ele><time>2026-05-03T07:55:08.384Z</time></trkpt><trkpt lat="41.8167521" lon="13.1368573"><ele>479.0</ele><time>2026-05-03T07:55:09.37Z</time></trkpt><trkpt lat="41.8166101" lon="13.1368118"><ele>480.0</ele><time>2026-05-03T07:55:10.375Z</time></trkpt><trkpt lat="41.8164854" lon="13.1367912"><ele>481.0</ele><time>2026-05-03T07:55:11.372Z</time></trkpt><trkpt lat="41.8163786" lon="13.1367973"><ele>482.0</ele><time>2026-05-03T07:55:12.375Z</time></trkpt><trkpt lat="41.8162834" lon="13.1368222"><ele>481.99999999999994</ele><time>2026-05-03T07:55:13.479Z</time></trkpt><trkpt lat="41.8162207" lon="13.1368514"><ele>482.0</ele><time>2026-05-03T07:55:14.371Z</time></trkpt><trkpt lat="41.8161548" lon="13.1369123"><ele>482.0</ele><time>2026-05-03T07:55:16.376Z</time></trkpt><trkpt lat="41.8161632" lon="13.1370301"><ele>482.0</ele><time>2026-05-03T07:55:18.376Z</time></trkpt><trkpt lat="41.8162203" lon="13.1371054"><ele>481.99999999999994</ele><time>2026-05-03T07:55:19.373Z</time></trkpt><trkpt lat="41.8163263" lon="13.1371774"><ele>482.0</ele><time>2026-05-03T07:55:20.367Z</time></trkpt><trkpt lat="41.8164659" lon="13.1372378"><ele>482.0</ele><time>2026-05-03T07:55:21.37Z</time></trkpt><trkpt lat="41.8166281" lon="13.1372978"><ele>482.0</ele><time>2026-05-03T07:55:22.37Z</time></trkpt><trkpt lat="41.8168023" lon="13.1373237"><ele>482.0</ele><time>2026-05-03T07:55:23.369Z</time></trkpt><trkpt lat="41.8170109" lon="13.1373252"><ele>480.0</ele><time>2026-05-03T07:55:24.37Z</time></trkpt><trkpt lat="41.817264" lon="13.1373196"><ele>478.0</ele><time>2026-05-03T07:55:25.369Z</time></trkpt><trkpt lat="41.817552" lon="13.1373136"><ele>478.0</ele><time>2026-05-03T07:55:26.374Z</time></trkpt><trkpt lat="41.8178528" lon="13.1373047"><ele>478.0</ele><time>2026-05-03T07:55:27.368Z</time></trkpt><trkpt lat="41.8181178" lon="13.1372938"><ele>478.0</ele><time>2026-05-03T07:55:28.368Z</time></trkpt><trkpt lat="41.818364" lon="13.1372866"><ele>478.0</ele><time>2026-05-03T07:55:29.37Z</time></trkpt><trkpt lat="41.818587" lon="13.1372792"><ele>483.33333333333337</ele><time>2026-05-03T07:55:30.369Z</time></trkpt><trkpt lat="41.8188087" lon="13.1372416"><ele>488.66666666666663</ele><time>2026-05-03T07:55:31.37Z</time></trkpt><trkpt lat="41.8190278" lon="13.1371828"><ele>494.0</ele><time>2026-05-03T07:55:32.367Z</time></trkpt><trkpt lat="41.8192404" lon="13.1371081"><ele>502.5</ele><time>2026-05-03T07:55:33.38Z</time></trkpt><trkpt lat="41.8194554" lon="13.1370121"><ele>511.0</ele><time>2026-05-03T07:55:34.368Z</time></trkpt><trkpt lat="41.8196805" lon="13.1368991"><ele>511.0</ele><time>2026-05-03T07:55:35.37Z</time></trkpt><trkpt lat="41.8199055" lon="13.1367777"><ele>511.0</ele><time>2026-05-03T07:55:36.37Z</time></trkpt><trkpt lat="41.8201343" lon="13.1366481"><ele>506.0</ele><time>2026-05-03T07:55:37.378Z</time></trkpt><trkpt lat="41.8203656" lon="13.1365257"><ele>501.0</ele><time>2026-05-03T07:55:38.378Z</time></trkpt><trkpt lat="41.82059" lon="13.1364158"><ele>501.0</ele><time>2026-05-03T07:55:39.367Z</time></trkpt><trkpt lat="41.8207955" lon="13.1363285"><ele>501.0</ele><time>2026-05-03T07:55:40.373Z</time></trkpt><trkpt lat="41.8209937" lon="13.1362645"><ele>501.0</ele><time>2026-05-03T07:55:41.368Z</time></trkpt><trkpt lat="41.8211874" lon="13.13623"><ele>502.66666666666663</ele><time>2026-05-03T07:55:42.374Z</time></trkpt><trkpt lat="41.8213947" lon="13.1362229"><ele>504.3333333333333</ele><time>2026-05-03T07:55:43.374Z</time></trkpt><trkpt lat="41.8216143" lon="13.1362312"><ele>506.0</ele><time>2026-05-03T07:55:44.37Z</time></trkpt><trkpt lat="41.8218297" lon="13.1362506"><ele>506.0</ele><time>2026-05-03T07:55:45.374Z</time></trkpt><trkpt lat="41.8220294" lon="13.1362942"><ele>506.0</ele><time>2026-05-03T07:55:46.373Z</time></trkpt><trkpt lat="41.8222251" lon="13.1363461"><ele>506.0</ele><time>2026-05-03T07:55:47.369Z</time></trkpt><trkpt lat="41.8223739" lon="13.1364375"><ele>506.0</ele><time>2026-05-03T07:55:48.373Z</time></trkpt><trkpt lat="41.8225362" lon="13.13654"><ele>506.0</ele><time>2026-05-03T07:55:49.37Z</time></trkpt><trkpt lat="41.8226821" lon="13.1366715"><ele>506.0</ele><time>2026-05-03T07:55:50.367Z</time></trkpt><trkpt lat="41.822819" lon="13.1368291"><ele>507.0</ele><time>2026-05-03T07:55:51.37Z</time></trkpt><trkpt lat="41.8229451" lon="13.137009"><ele>508.0</ele><time>2026-05-03T07:55:52.371Z</time></trkpt><trkpt lat="41.8230446" lon="13.1371797"><ele>509.0</ele><time>2026-05-03T07:55:53.369Z</time></trkpt><trkpt lat="41.8231339" lon="13.1373536"><ele>514.6666666666666</ele><time>2026-05-03T07:55:54.376Z</time></trkpt><trkpt lat="41.8232158" lon="13.1375253"><ele>520.3333333333334</ele><time>2026-05-03T07:55:55.378Z</time></trkpt><trkpt lat="41.8232948" lon="13.1377038"><ele>526.0</ele><time>2026-05-03T07:55:56.376Z</time></trkpt><trkpt lat="41.8233757" lon="13.1378762"><ele>526.0</ele><time>2026-05-03T07:55:57.379Z</time></trkpt><trkpt lat="41.8234607" lon="13.1380436"><ele>526.0</ele><time>2026-05-03T07:55:58.372Z</time></trkpt><trkpt lat="41.8235514" lon="13.1382051"><ele>526.0</ele><time>2026-05-03T07:55:59.373Z</time></trkpt><trkpt lat="41.8236393" lon="13.1383566"><ele>526.0</ele><time>2026-05-03T07:56:00.363Z</time></trkpt><trkpt lat="41.8237241" lon="13.1384835"><ele>526.25</ele><time>2026-05-03T07:56:01.378Z</time></trkpt><trkpt lat="41.8238111" lon="13.1386045"><ele>526.5</ele><time>2026-05-03T07:56:02.367Z</time></trkpt><trkpt lat="41.823902" lon="13.1387211"><ele>526.75</ele><time>2026-05-03T07:56:03.366Z</time></trkpt><trkpt lat="41.8240006" lon="13.1388243"><ele>527.0</ele><time>2026-05-03T07:56:04.369Z</time></trkpt><trkpt lat="41.8241089" lon="13.1389138"><ele>527.0</ele><time>2026-05-03T07:56:05.37Z</time></trkpt><trkpt lat="41.8242237" lon="13.1389835"><ele>527.0</ele><time>2026-05-03T07:56:06.369Z</time></trkpt><trkpt lat="41.8243473" lon="13.1390299"><ele>527.0</ele><time>2026-05-03T07:56:07.374Z</time></trkpt><trkpt lat="41.8244782" lon="13.139048"><ele>527.0</ele><time>2026-05-03T07:56:08.369Z</time></trkpt><trkpt lat="41.8246213" lon="13.1390365"><ele>528.0</ele><time>2026-05-03T07:56:09.369Z</time></trkpt><trkpt lat="41.8247747" lon="13.1389885"><ele>529.0</ele><time>2026-05-03T07:56:10.377Z</time></trkpt><trkpt lat="41.8249368" lon="13.1389082"><ele>530.0</ele><time>2026-05-03T07:56:11.372Z</time></trkpt><trkpt lat="41.8251077" lon="13.1388057"><ele>533.0</ele><time>2026-05-03T07:56:12.377Z</time></trkpt><trkpt lat="41.825278" lon="13.1387023"><ele>536.0</ele><time>2026-05-03T07:56:13.375Z</time></trkpt><trkpt lat="41.8254443" lon="13.1386036"><ele>539.0</ele><time>2026-05-03T07:56:14.375Z</time></trkpt><trkpt lat="41.8255999" lon="13.1385134"><ele>539.0</ele><time>2026-05-03T07:56:15.374Z</time></trkpt><trkpt lat="41.8257424" lon="13.1384397"><ele>539.0</ele><time>2026-05-03T07:56:16.375Z</time></trkpt><trkpt lat="41.8258565" lon="13.1383764"><ele>539.0</ele><time>2026-05-03T07:56:17.378Z</time></trkpt><trkpt lat="41.8259524" lon="13.1383162"><ele>539.0</ele><time>2026-05-03T07:56:18.38Z</time></trkpt><trkpt lat="41.8260359" lon="13.1382477"><ele>541.25</ele><time>2026-05-03T07:56:19.381Z</time></trkpt><trkpt lat="41.8261116" lon="13.1381497"><ele>543.5</ele><time>2026-05-03T07:56:20.383Z</time></trkpt><trkpt lat="41.8261722" lon="13.1380142"><ele>545.75</ele><time>2026-05-03T07:56:21.369Z</time></trkpt><trkpt lat="41.8262068" lon="13.1378456"><ele>548.0</ele><time>2026-05-03T07:56:22.367Z</time></trkpt><trkpt lat="41.8262225" lon="13.1376514"><ele>548.0</ele><time>2026-05-03T07:56:23.368Z</time></trkpt><trkpt lat="41.8262438" lon="13.1374207"><ele>548.0</ele><time>2026-05-03T07:56:24.378Z</time></trkpt><trkpt lat="41.8262715" lon="13.1371718"><ele>548.0</ele><time>2026-05-03T07:56:25.365Z</time></trkpt><trkpt lat="41.8263091" lon="13.1369034"><ele>547.5</ele><time>2026-05-03T07:56:26.37Z</time></trkpt><trkpt lat="41.8263475" lon="13.1366118"><ele>547.0</ele><time>2026-05-03T07:56:27.368Z</time></trkpt><trkpt lat="41.8263889" lon="13.1363031"><ele>545.6666666666667</ele><time>2026-05-03T07:56:28.369Z</time></trkpt><trkpt lat="41.8264325" lon="13.136006"><ele>544.3333333333334</ele><time>2026-05-03T07:56:29.378Z</time></trkpt><trkpt lat="41.8264698" lon="13.1357243"><ele>543.0</ele><time>2026-05-03T07:56:30.371Z</time></trkpt><trkpt lat="41.8265105" lon="13.1354515"><ele>542.6666666666666</ele><time>2026-05-03T07:56:31.374Z</time></trkpt><trkpt lat="41.8265482" lon="13.1351906"><ele>542.3333333333333</ele><time>2026-05-03T07:56:32.378Z</time></trkpt><trkpt lat="41.8265855" lon="13.1349335"><ele>542.0</ele><time>2026-05-03T07:56:33.38Z</time></trkpt><trkpt lat="41.8266251" lon="13.1346832"><ele>542.0</ele><time>2026-05-03T07:56:34.367Z</time></trkpt><trkpt lat="41.8266648" lon="13.1344361"><ele>542.0</ele><time>2026-05-03T07:56:35.375Z</time></trkpt><trkpt lat="41.8267005" lon="13.134198"><ele>542.0</ele><time>2026-05-03T07:56:36.372Z</time></trkpt><trkpt lat="41.826738" lon="13.1339548"><ele>540.3333333333333</ele><time>2026-05-03T07:56:37.373Z</time></trkpt><trkpt lat="41.8267725" lon="13.1337047"><ele>538.6666666666666</ele><time>2026-05-03T07:56:38.378Z</time></trkpt><trkpt lat="41.8268052" lon="13.1334616"><ele>537.0</ele><time>2026-05-03T07:56:39.373Z</time></trkpt><trkpt lat="41.826833" lon="13.1332084"><ele>542.6666666666666</ele><time>2026-05-03T07:56:40.375Z</time></trkpt><trkpt lat="41.8268454" lon="13.1329669"><ele>548.3333333333333</ele><time>2026-05-03T07:56:41.376Z</time></trkpt><trkpt lat="41.8268448" lon="13.1327404"><ele>554.0</ele><time>2026-05-03T07:56:42.369Z</time></trkpt><trkpt lat="41.8268487" lon="13.13252"><ele>552.6666666666666</ele><time>2026-05-03T07:56:43.372Z</time></trkpt><trkpt lat="41.8268662" lon="13.1323094"><ele>551.3333333333334</ele><time>2026-05-03T07:56:44.375Z</time></trkpt><trkpt lat="41.8268933" lon="13.1321156"><ele>550.0</ele><time>2026-05-03T07:56:45.379Z</time></trkpt><trkpt lat="41.8269281" lon="13.1318935"><ele>550.0</ele><time>2026-05-03T07:56:46.373Z</time></trkpt><trkpt lat="41.8269779" lon="13.1316395"><ele>550.0</ele><time>2026-05-03T07:56:47.371Z</time></trkpt><trkpt lat="41.8270343" lon="13.1313456"><ele>550.0</ele><time>2026-05-03T07:56:48.372Z</time></trkpt><trkpt lat="41.8271059" lon="13.1310352"><ele>546.0</ele><time>2026-05-03T07:56:49.372Z</time></trkpt><trkpt lat="41.8271824" lon="13.1307065"><ele>542.0</ele><time>2026-05-03T07:56:50.369Z</time></trkpt><trkpt lat="41.8272488" lon="13.1303961"><ele>542.0</ele><time>2026-05-03T07:56:51.369Z</time></trkpt><trkpt lat="41.8273155" lon="13.1300914"><ele>542.0</ele><time>2026-05-03T07:56:52.371Z</time></trkpt><trkpt lat="41.8273752" lon="13.1297913"><ele>541.3333333333333</ele><time>2026-05-03T07:56:53.387Z</time></trkpt><trkpt lat="41.8274179" lon="13.1294979"><ele>540.6666666666666</ele><time>2026-05-03T07:56:54.375Z</time></trkpt><trkpt lat="41.8274375" lon="13.1292263"><ele>540.0</ele><time>2026-05-03T07:56:55.37Z</time></trkpt><trkpt lat="41.8274607" lon="13.128971"><ele>539.3333333333334</ele><time>2026-05-03T07:56:56.378Z</time></trkpt><trkpt lat="41.8274943" lon="13.128727"><ele>538.6666666666667</ele><time>2026-05-03T07:56:57.378Z</time></trkpt><trkpt lat="41.8275477" lon="13.128489"><ele>538.0</ele><time>2026-05-03T07:56:58.378Z</time></trkpt><trkpt lat="41.8276219" lon="13.1282783"><ele>543.0</ele><time>2026-05-03T07:56:59.364Z</time></trkpt><trkpt lat="41.8276979" lon="13.1280897"><ele>548.0</ele><time>2026-05-03T07:57:00.371Z</time></trkpt><trkpt lat="41.8277543" lon="13.1279"><ele>553.0</ele><time>2026-05-03T07:57:01.375Z</time></trkpt><trkpt lat="41.8277844" lon="13.1277135"><ele>553.0</ele><time>2026-05-03T07:57:02.363Z</time></trkpt><trkpt lat="41.8277957" lon="13.1275575"><ele>553.0</ele><time>2026-05-03T07:57:03.37Z</time></trkpt><trkpt lat="41.8277688" lon="13.1273992"><ele>553.0</ele><time>2026-05-03T07:57:04.37Z</time></trkpt><trkpt lat="41.8277008" lon="13.1272373"><ele>553.0</ele><time>2026-05-03T07:57:05.375Z</time></trkpt><trkpt lat="41.827636" lon="13.1270694"><ele>549.0</ele><time>2026-05-03T07:57:06.371Z</time></trkpt><trkpt lat="41.8275811" lon="13.1268619"><ele>545.0</ele><time>2026-05-03T07:57:07.371Z</time></trkpt><trkpt lat="41.8275401" lon="13.126628"><ele>541.0</ele><time>2026-05-03T07:57:08.379Z</time></trkpt><trkpt lat="41.8275246" lon="13.1263836"><ele>541.0</ele><time>2026-05-03T07:57:09.376Z</time></trkpt><trkpt lat="41.8275399" lon="13.1261257"><ele>541.0</ele><time>2026-05-03T07:57:10.365Z</time></trkpt><trkpt lat="41.827585" lon="13.1258445"><ele>541.0</ele><time>2026-05-03T07:57:11.376Z</time></trkpt><trkpt lat="41.8276591" lon="13.1255597"><ele>544.6666666666667</ele><time>2026-05-03T07:57:12.369Z</time></trkpt><trkpt lat="41.8277443" lon="13.125315"><ele>548.3333333333334</ele><time>2026-05-03T07:57:13.371Z</time></trkpt><trkpt lat="41.8278216" lon="13.125064"><ele>552.0</ele><time>2026-05-03T07:57:14.371Z</time></trkpt><trkpt lat="41.8278728" lon="13.1247821"><ele>552.0</ele><time>2026-05-03T07:57:15.381Z</time></trkpt><trkpt lat="41.8279013" lon="13.1244721"><ele>552.0</ele><time>2026-05-03T07:57:16.381Z</time></trkpt><trkpt lat="41.8279112" lon="13.1241254"><ele>554.0</ele><time>2026-05-03T07:57:17.37Z</time></trkpt><trkpt lat="41.8279186" lon="13.1237746"><ele>556.0</ele><time>2026-05-03T07:57:18.368Z</time></trkpt><trkpt lat="41.827926" lon="13.1234487"><ele>555.0</ele><time>2026-05-03T07:57:19.37Z</time></trkpt><trkpt lat="41.827937" lon="13.1231222"><ele>554.0</ele><time>2026-05-03T07:57:20.379Z</time></trkpt><trkpt lat="41.8279434" lon="13.1228068"><ele>554.0</ele><time>2026-05-03T07:57:21.37Z</time></trkpt><trkpt lat="41.8279504" lon="13.1225042"><ele>554.0</ele><time>2026-05-03T07:57:22.38Z</time></trkpt><trkpt lat="41.8279685" lon="13.1222066"><ele>554.0</ele><time>2026-05-03T07:57:23.368Z</time></trkpt><trkpt lat="41.8279872" lon="13.1219312"><ele>553.0</ele><time>2026-05-03T07:57:24.382Z</time></trkpt><trkpt lat="41.8280185" lon="13.1216814"><ele>552.0</ele><time>2026-05-03T07:57:25.378Z</time></trkpt><trkpt lat="41.8280619" lon="13.1214583"><ele>551.0</ele><time>2026-05-03T07:57:26.367Z</time></trkpt><trkpt lat="41.8281177" lon="13.1212545"><ele>548.3333333333333</ele><time>2026-05-03T07:57:27.369Z</time></trkpt><trkpt lat="41.8281847" lon="13.121059"><ele>545.6666666666666</ele><time>2026-05-03T07:57:28.37Z</time></trkpt><trkpt lat="41.8282673" lon="13.1208596"><ele>543.0</ele><time>2026-05-03T07:57:29.376Z</time></trkpt><trkpt lat="41.8283761" lon="13.1206701"><ele>544.3333333333334</ele><time>2026-05-03T07:57:30.37Z</time></trkpt><trkpt lat="41.8285053" lon="13.1204855"><ele>545.6666666666667</ele><time>2026-05-03T07:57:31.378Z</time></trkpt><trkpt lat="41.8286404" lon="13.1203129"><ele>547.0</ele><time>2026-05-03T07:57:32.367Z</time></trkpt><trkpt lat="41.8287771" lon="13.120145"><ele>547.0</ele><time>2026-05-03T07:57:33.367Z</time></trkpt><trkpt lat="41.8288994" lon="13.1199904"><ele>547.0</ele><time>2026-05-03T07:57:34.376Z</time></trkpt><trkpt lat="41.8289809" lon="13.1198849"><ele>547.0</ele><time>2026-05-03T07:57:35.375Z</time></trkpt><trkpt lat="41.8290399" lon="13.1198014"><ele>547.0</ele><time>2026-05-03T07:57:36.373Z</time></trkpt><trkpt lat="41.8290883" lon="13.1197405"><ele>547.0</ele><time>2026-05-03T07:57:37.368Z</time></trkpt><trkpt lat="41.8291656" lon="13.1197065"><ele>547.0</ele><time>2026-05-03T07:57:39.365Z</time></trkpt><trkpt lat="41.8291945" lon="13.1197891"><ele>547.0</ele><time>2026-05-03T07:57:41.372Z</time></trkpt><trkpt lat="41.8291274" lon="13.1199063"><ele>547.0</ele><time>2026-05-03T07:57:43.37Z</time></trkpt><trkpt lat="41.8290638" lon="13.1199781"><ele>547.0</ele><time>2026-05-03T07:57:44.369Z</time></trkpt><trkpt lat="41.8289838" lon="13.120079"><ele>547.0</ele><time>2026-05-03T07:57:45.378Z</time></trkpt><trkpt lat="41.8288875" lon="13.1202104"><ele>547.0</ele><time>2026-05-03T07:57:46.369Z</time></trkpt><trkpt lat="41.8287857" lon="13.1203639"><ele>547.0</ele><time>2026-05-03T07:57:47.378Z</time></trkpt><trkpt lat="41.8286966" lon="13.1205252"><ele>547.0</ele><time>2026-05-03T07:57:48.377Z</time></trkpt><trkpt lat="41.8286322" lon="13.1206985"><ele>547.0</ele><time>2026-05-03T07:57:49.38Z</time></trkpt><trkpt lat="41.8285833" lon="13.1208954"><ele>548.3333333333334</ele><time>2026-05-03T07:57:50.373Z</time></trkpt><trkpt lat="41.828544" lon="13.1211117"><ele>549.6666666666666</ele><time>2026-05-03T07:57:51.368Z</time></trkpt><trkpt lat="41.8285064" lon="13.1213497"><ele>551.0</ele><time>2026-05-03T07:57:52.37Z</time></trkpt><trkpt lat="41.8284644" lon="13.121597"><ele>551.0</ele><time>2026-05-03T07:57:53.379Z</time></trkpt><trkpt lat="41.8284295" lon="13.1218251"><ele>551.0</ele><time>2026-05-03T07:57:54.369Z</time></trkpt><trkpt lat="41.8284102" lon="13.1220322"><ele>551.0</ele><time>2026-05-03T07:57:55.378Z</time></trkpt><trkpt lat="41.8284131" lon="13.1222422"><ele>552.0</ele><time>2026-05-03T07:57:56.369Z</time></trkpt><trkpt lat="41.8284426" lon="13.1224454"><ele>553.0</ele><time>2026-05-03T07:57:57.37Z</time></trkpt><trkpt lat="41.8284903" lon="13.1226679"><ele>554.0</ele><time>2026-05-03T07:57:58.368Z</time></trkpt><trkpt lat="41.8285387" lon="13.1229107"><ele>561.3333333333333</ele><time>2026-05-03T07:57:59.371Z</time></trkpt><trkpt lat="41.8285834" lon="13.1231501"><ele>568.6666666666666</ele><time>2026-05-03T07:58:00.369Z</time></trkpt><trkpt lat="41.8286241" lon="13.1233568"><ele>576.0</ele><time>2026-05-03T07:58:01.38Z</time></trkpt><trkpt lat="41.8286806" lon="13.1235482"><ele>575.3333333333334</ele><time>2026-05-03T07:58:02.377Z</time></trkpt><trkpt lat="41.8287497" lon="13.1237398"><ele>574.6666666666667</ele><time>2026-05-03T07:58:03.368Z</time></trkpt><trkpt lat="41.8288577" lon="13.1239329"><ele>574.0</ele><time>2026-05-03T07:58:04.366Z</time></trkpt><trkpt lat="41.8289424" lon="13.1241467"><ele>574.0</ele><time>2026-05-03T07:58:05.371Z</time></trkpt><trkpt lat="41.8290128" lon="13.124378"><ele>574.0</ele><time>2026-05-03T07:58:06.372Z</time></trkpt><trkpt lat="41.8290681" lon="13.1246104"><ele>574.0</ele><time>2026-05-03T07:58:07.47Z</time></trkpt><trkpt lat="41.8291251" lon="13.1250642"><ele>572.6666666666667</ele><time>2026-05-03T07:58:09.378Z</time></trkpt><trkpt lat="41.8291231" lon="13.1252904"><ele>571.3333333333334</ele><time>2026-05-03T07:58:10.375Z</time></trkpt><trkpt lat="41.8291112" lon="13.125516"><ele>570.0</ele><time>2026-05-03T07:58:11.375Z</time></trkpt><trkpt lat="41.8291221" lon="13.1257176"><ele>570.5</ele><time>2026-05-03T07:58:12.372Z</time></trkpt><trkpt lat="41.8291489" lon="13.1259158"><ele>571.0</ele><time>2026-05-03T07:58:13.38Z</time></trkpt><trkpt lat="41.829189" lon="13.1261098"><ele>571.5</ele><time>2026-05-03T07:58:14.378Z</time></trkpt><trkpt lat="41.8292431" lon="13.1262815"><ele>572.0</ele><time>2026-05-03T07:58:15.376Z</time></trkpt><trkpt lat="41.8292991" lon="13.1264383"><ele>574.8000000000001</ele><time>2026-05-03T07:58:16.378Z</time></trkpt><trkpt lat="41.8293523" lon="13.1265705"><ele>577.6</ele><time>2026-05-03T07:58:17.369Z</time></trkpt><trkpt lat="41.8294105" lon="13.126693"><ele>580.4000000000001</ele><time>2026-05-03T07:58:18.368Z</time></trkpt><trkpt lat="41.8294638" lon="13.1268032"><ele>583.2</ele><time>2026-05-03T07:58:19.378Z</time></trkpt><trkpt lat="41.8295058" lon="13.1269103"><ele>586.0</ele><time>2026-05-03T07:58:20.368Z</time></trkpt><trkpt lat="41.8295441" lon="13.1270183"><ele>586.0</ele><time>2026-05-03T07:58:21.37Z</time></trkpt><trkpt lat="41.8295745" lon="13.1271277"><ele>586.0</ele><time>2026-05-03T07:58:22.371Z</time></trkpt><trkpt lat="41.8295997" lon="13.1272447"><ele>586.0</ele><time>2026-05-03T07:58:23.367Z</time></trkpt><trkpt lat="41.8296201" lon="13.1273606"><ele>586.0</ele><time>2026-05-03T07:58:24.37Z</time></trkpt><trkpt lat="41.8296358" lon="13.1274845"><ele>586.0</ele><time>2026-05-03T07:58:25.377Z</time></trkpt><trkpt lat="41.8296517" lon="13.127606"><ele>585.8</ele><time>2026-05-03T07:58:26.369Z</time></trkpt><trkpt lat="41.829671" lon="13.1277282"><ele>585.6</ele><time>2026-05-03T07:58:27.368Z</time></trkpt><trkpt lat="41.8296894" lon="13.1278542"><ele>585.4</ele><time>2026-05-03T07:58:28.37Z</time></trkpt><trkpt lat="41.8297101" lon="13.1279811"><ele>585.2</ele><time>2026-05-03T07:58:29.37Z</time></trkpt><trkpt lat="41.8297357" lon="13.1281066"><ele>585.0</ele><time>2026-05-03T07:58:30.368Z</time></trkpt><trkpt lat="41.8297599" lon="13.1282344"><ele>585.6</ele><time>2026-05-03T07:58:31.369Z</time></trkpt><trkpt lat="41.8297917" lon="13.1283625"><ele>586.2</ele><time>2026-05-03T07:58:32.37Z</time></trkpt><trkpt lat="41.829827" lon="13.1284903"><ele>586.8</ele><time>2026-05-03T07:58:33.381Z</time></trkpt><trkpt lat="41.829865" lon="13.1286197"><ele>587.4</ele><time>2026-05-03T07:58:34.376Z</time></trkpt><trkpt lat="41.8299042" lon="13.1287561"><ele>588.0</ele><time>2026-05-03T07:58:35.367Z</time></trkpt><trkpt lat="41.8299286" lon="13.1289036"><ele>588.0</ele><time>2026-05-03T07:58:36.384Z</time></trkpt><trkpt lat="41.8299379" lon="13.1290576"><ele>588.0</ele><time>2026-05-03T07:58:37.372Z</time></trkpt><trkpt lat="41.8299413" lon="13.1292126"><ele>588.0</ele><time>2026-05-03T07:58:38.37Z</time></trkpt><trkpt lat="41.8299316" lon="13.1293707"><ele>588.0</ele><time>2026-05-03T07:58:39.373Z</time></trkpt><trkpt lat="41.8299029" lon="13.1295254"><ele>588.0</ele><time>2026-05-03T07:58:40.373Z</time></trkpt><trkpt lat="41.8298665" lon="13.1296787"><ele>588.0</ele><time>2026-05-03T07:58:41.378Z</time></trkpt><trkpt lat="41.8298267" lon="13.1298247"><ele>588.0</ele><time>2026-05-03T07:58:42.369Z</time></trkpt><trkpt lat="41.8297872" lon="13.1299703"><ele>588.0</ele><time>2026-05-03T07:58:43.37Z</time></trkpt><trkpt lat="41.8297584" lon="13.1301125"><ele>589.0</ele><time>2026-05-03T07:58:44.371Z</time></trkpt><trkpt lat="41.8297462" lon="13.1302496"><ele>590.0</ele><time>2026-05-03T07:58:45.378Z</time></trkpt><trkpt lat="41.8297399" lon="13.130381"><ele>591.0</ele><time>2026-05-03T07:58:46.366Z</time></trkpt><trkpt lat="41.8297418" lon="13.1305009"><ele>592.0</ele><time>2026-05-03T07:58:47.381Z</time></trkpt><trkpt lat="41.829738" lon="13.130614"><ele>593.0</ele><time>2026-05-03T07:58:48.37Z</time></trkpt><trkpt lat="41.8297376" lon="13.1307152"><ele>593.6666666666666</ele><time>2026-05-03T07:58:49.383Z</time></trkpt><trkpt lat="41.8297374" lon="13.1308015"><ele>594.3333333333333</ele><time>2026-05-03T07:58:50.369Z</time></trkpt><trkpt lat="41.8297355" lon="13.1309444"><ele>595.0</ele><time>2026-05-03T07:58:52.379Z</time></trkpt><trkpt lat="41.8297386" lon="13.1310726"><ele>595.6666666666666</ele><time>2026-05-03T07:58:54.371Z</time></trkpt><trkpt lat="41.8297355" lon="13.1311921"><ele>596.3333333333334</ele><time>2026-05-03T07:58:57.368Z</time></trkpt><trkpt lat="41.8297296" lon="13.131301"><ele>597.0</ele><time>2026-05-03T07:59:00.372Z</time></trkpt><trkpt lat="41.8297248" lon="13.1314109"><ele>597.0</ele><time>2026-05-03T07:59:03.382Z</time></trkpt><trkpt lat="41.8297175" lon="13.1315282"><ele>597.0</ele><time>2026-05-03T07:59:06.382Z</time></trkpt><trkpt lat="41.8297112" lon="13.1316453"><ele>597.0</ele><time>2026-05-03T07:59:09.372Z</time></trkpt><trkpt lat="41.8297097" lon="13.1317509"><ele>597.0</ele><time>2026-05-03T07:59:12.371Z</time></trkpt><trkpt lat="41.829725" lon="13.131909"><ele>597.0</ele><time>2026-05-03T07:59:46.373Z</time></trkpt><trkpt lat="41.8297181" lon="13.1320191"><ele>598.6</ele><time>2026-05-03T07:59:47.379Z</time></trkpt><trkpt lat="41.8297077" lon="13.1321386"><ele>600.2</ele><time>2026-05-03T07:59:48.376Z</time></trkpt><trkpt lat="41.8296936" lon="13.1322589"><ele>601.8</ele><time>2026-05-03T07:59:49.376Z</time></trkpt><trkpt lat="41.8296889" lon="13.1323902"><ele>603.4</ele><time>2026-05-03T07:59:50.367Z</time></trkpt><trkpt lat="41.8296887" lon="13.1325409"><ele>605.0</ele><time>2026-05-03T07:59:51.519Z</time></trkpt><trkpt lat="41.8297126" lon="13.1328499"><ele>607.2</ele><time>2026-05-03T07:59:53.369Z</time></trkpt><trkpt lat="41.8297319" lon="13.1330067"><ele>609.4</ele><time>2026-05-03T07:59:54.372Z</time></trkpt><trkpt lat="41.8297482" lon="13.1331378"><ele>611.6</ele><time>2026-05-03T07:59:55.368Z</time></trkpt><trkpt lat="41.8297571" lon="13.1332617"><ele>613.8</ele><time>2026-05-03T07:59:56.379Z</time></trkpt><trkpt lat="41.8297469" lon="13.1333865"><ele>616.0</ele><time>2026-05-03T07:59:57.381Z</time></trkpt><trkpt lat="41.8297154" lon="13.1335116"><ele>616.8333333333334</ele><time>2026-05-03T07:59:58.374Z</time></trkpt><trkpt lat="41.8296682" lon="13.1336256"><ele>617.6666666666667</ele><time>2026-05-03T07:59:59.366Z</time></trkpt><trkpt lat="41.8296064" lon="13.1337312"><ele>618.5</ele><time>2026-05-03T08:00:00.372Z</time></trkpt><trkpt lat="41.8295404" lon="13.133819"><ele>619.3333333333334</ele><time>2026-05-03T08:00:01.368Z</time></trkpt><trkpt lat="41.829482" lon="13.13389"><ele>620.1666666666666</ele><time>2026-05-03T08:00:02.378Z</time></trkpt><trkpt lat="41.8294315" lon="13.1339478"><ele>621.0</ele><time>2026-05-03T08:00:03.38Z</time></trkpt><trkpt lat="41.8293808" lon="13.1340012"><ele>618.6666666666666</ele><time>2026-05-03T08:00:04.371Z</time></trkpt><trkpt lat="41.829331" lon="13.1340661"><ele>616.3333333333334</ele><time>2026-05-03T08:00:05.369Z</time></trkpt><trkpt lat="41.8292813" lon="13.1341419"><ele>614.0</ele><time>2026-05-03T08:00:06.373Z</time></trkpt><trkpt lat="41.8292382" lon="13.1342374"><ele>611.6666666666667</ele><time>2026-05-03T08:00:07.373Z</time></trkpt><trkpt lat="41.8292041" lon="13.1343484"><ele>609.3333333333334</ele><time>2026-05-03T08:00:08.372Z</time></trkpt><trkpt lat="41.82918" lon="13.1344758"><ele>607.0</ele><time>2026-05-03T08:00:09.374Z</time></trkpt><trkpt lat="41.8291682" lon="13.1346018"><ele>607.0</ele><time>2026-05-03T08:00:10.379Z</time></trkpt><trkpt lat="41.8291548" lon="13.134727"><ele>607.0</ele><time>2026-05-03T08:00:11.377Z</time></trkpt><trkpt lat="41.8291305" lon="13.1348495"><ele>607.0</ele><time>2026-05-03T08:00:12.383Z</time></trkpt><trkpt lat="41.8290949" lon="13.1349697"><ele>607.0</ele><time>2026-05-03T08:00:13.372Z</time></trkpt><trkpt lat="41.8290534" lon="13.1350878"><ele>607.0</ele><time>2026-05-03T08:00:14.376Z</time></trkpt><trkpt lat="41.8290105" lon="13.1352187"><ele>609.5</ele><time>2026-05-03T08:00:15.371Z</time></trkpt><trkpt lat="41.82897" lon="13.1353617"><ele>612.0</ele><time>2026-05-03T08:00:16.372Z</time></trkpt><trkpt lat="41.828934" lon="13.1355095"><ele>614.5</ele><time>2026-05-03T08:00:17.369Z</time></trkpt><trkpt lat="41.8289085" lon="13.1356627"><ele>617.0</ele><time>2026-05-03T08:00:18.371Z</time></trkpt><trkpt lat="41.8288914" lon="13.1358176"><ele>619.2</ele><time>2026-05-03T08:00:19.37Z</time></trkpt><trkpt lat="41.8288839" lon="13.1359648"><ele>621.4000000000001</ele><time>2026-05-03T08:00:20.376Z</time></trkpt><trkpt lat="41.828879" lon="13.1360956"><ele>623.5999999999999</ele><time>2026-05-03T08:00:21.369Z</time></trkpt><trkpt lat="41.8288788" lon="13.1362105"><ele>625.8</ele><time>2026-05-03T08:00:22.364Z</time></trkpt><trkpt lat="41.8288795" lon="13.1363289"><ele>628.0</ele><time>2026-05-03T08:00:23.378Z</time></trkpt><trkpt lat="41.8288873" lon="13.1364517"><ele>629.1999999999999</ele><time>2026-05-03T08:00:24.368Z</time></trkpt><trkpt lat="41.828896" lon="13.1365823"><ele>630.4</ele><time>2026-05-03T08:00:25.377Z</time></trkpt><trkpt lat="41.828909" lon="13.136719"><ele>631.5999999999999</ele><time>2026-05-03T08:00:26.367Z</time></trkpt><trkpt lat="41.8289246" lon="13.13686"><ele>632.8</ele><time>2026-05-03T08:00:27.37Z</time></trkpt><trkpt lat="41.8289466" lon="13.1370153"><ele>634.0</ele><time>2026-05-03T08:00:28.373Z</time></trkpt><trkpt lat="41.8289715" lon="13.1371932"><ele>634.0</ele><time>2026-05-03T08:00:29.377Z</time></trkpt><trkpt lat="41.8289965" lon="13.1373918"><ele>634.0</ele><time>2026-05-03T08:00:30.371Z</time></trkpt><trkpt lat="41.8290305" lon="13.1376043"><ele>634.0</ele><time>2026-05-03T08:00:31.371Z</time></trkpt><trkpt lat="41.8290796" lon="13.1378632"><ele>634.0</ele><time>2026-05-03T08:00:32.374Z</time></trkpt><trkpt lat="41.829141" lon="13.1381389"><ele>634.0</ele><time>2026-05-03T08:00:33.382Z</time></trkpt><trkpt lat="41.8291953" lon="13.1383971"><ele>634.0</ele><time>2026-05-03T08:00:34.371Z</time></trkpt><trkpt lat="41.8292542" lon="13.1386711"><ele>648.3333333333334</ele><time>2026-05-03T08:00:35.371Z</time></trkpt><trkpt lat="41.8293096" lon="13.1389352"><ele>662.6666666666666</ele><time>2026-05-03T08:00:36.379Z</time></trkpt><trkpt lat="41.8293516" lon="13.1391727"><ele>677.0</ele><time>2026-05-03T08:00:37.381Z</time></trkpt><trkpt lat="41.8293935" lon="13.139393"><ele>677.0</ele><time>2026-05-03T08:00:38.371Z</time></trkpt><trkpt lat="41.8294344" lon="13.1395894"><ele>677.0</ele><time>2026-05-03T08:00:39.379Z</time></trkpt><trkpt lat="41.8294736" lon="13.1397802"><ele>677.0</ele><time>2026-05-03T08:00:40.375Z</time></trkpt><trkpt lat="41.8295097" lon="13.1399527"><ele>677.0</ele><time>2026-05-03T08:00:41.379Z</time></trkpt><trkpt lat="41.8295423" lon="13.1401195"><ele>675.0</ele><time>2026-05-03T08:00:42.377Z</time></trkpt><trkpt lat="41.8295744" lon="13.1402804"><ele>673.0</ele><time>2026-05-03T08:00:43.372Z</time></trkpt><trkpt lat="41.8296072" lon="13.1404431"><ele>671.0</ele><time>2026-05-03T08:00:44.368Z</time></trkpt><trkpt lat="41.8296405" lon="13.1406071"><ele>669.0</ele><time>2026-05-03T08:00:45.375Z</time></trkpt><trkpt lat="41.8296772" lon="13.1407775"><ele>668.0</ele><time>2026-05-03T08:00:46.369Z</time></trkpt><trkpt lat="41.8297113" lon="13.140943"><ele>667.0</ele><time>2026-05-03T08:00:47.379Z</time></trkpt><trkpt lat="41.8297462" lon="13.1411126"><ele>666.0</ele><time>2026-05-03T08:00:48.373Z</time></trkpt><trkpt lat="41.8297853" lon="13.1412808"><ele>665.0</ele><time>2026-05-03T08:00:49.377Z</time></trkpt><trkpt lat="41.8298271" lon="13.1414482"><ele>663.5</ele><time>2026-05-03T08:00:50.369Z</time></trkpt><trkpt lat="41.8298732" lon="13.1416161"><ele>662.0</ele><time>2026-05-03T08:00:51.377Z</time></trkpt><trkpt lat="41.8299203" lon="13.1417735"><ele>660.5</ele><time>2026-05-03T08:00:52.37Z</time></trkpt><trkpt lat="41.8299655" lon="13.1419275"><ele>659.0</ele><time>2026-05-03T08:00:53.373Z</time></trkpt><trkpt lat="41.8300052" lon="13.1420821"><ele>659.0</ele><time>2026-05-03T08:00:54.375Z</time></trkpt><trkpt lat="41.8300558" lon="13.1422266"><ele>659.0</ele><time>2026-05-03T08:00:55.382Z</time></trkpt><trkpt lat="41.8301117" lon="13.1423671"><ele>659.0</ele><time>2026-05-03T08:00:56.371Z</time></trkpt><trkpt lat="41.8301663" lon="13.1425049"><ele>659.0</ele><time>2026-05-03T08:00:57.38Z</time></trkpt><trkpt lat="41.8302258" lon="13.1426421"><ele>669.0</ele><time>2026-05-03T08:00:58.371Z</time></trkpt><trkpt lat="41.8302954" lon="13.1427793"><ele>679.0</ele><time>2026-05-03T08:00:59.371Z</time></trkpt><trkpt lat="41.8303646" lon="13.142917"><ele>689.0</ele><time>2026-05-03T08:01:00.372Z</time></trkpt><trkpt lat="41.8304326" lon="13.1430451"><ele>699.0</ele><time>2026-05-03T08:01:01.375Z</time></trkpt><trkpt lat="41.8305082" lon="13.1431734"><ele>694.5</ele><time>2026-05-03T08:01:02.373Z</time></trkpt><trkpt lat="41.8305869" lon="13.1432942"><ele>690.0</ele><time>2026-05-03T08:01:03.368Z</time></trkpt><trkpt lat="41.8306747" lon="13.1434149"><ele>685.5</ele><time>2026-05-03T08:01:04.372Z</time></trkpt><trkpt lat="41.8307653" lon="13.1435284"><ele>681.0</ele><time>2026-05-03T08:01:05.37Z</time></trkpt><trkpt lat="41.830864" lon="13.143646"><ele>681.0</ele><time>2026-05-03T08:01:06.372Z</time></trkpt><trkpt lat="41.8309642" lon="13.1437693"><ele>681.0</ele><time>2026-05-03T08:01:07.369Z</time></trkpt><trkpt lat="41.8310565" lon="13.1439147"><ele>681.0</ele><time>2026-05-03T08:01:08.377Z</time></trkpt><trkpt lat="41.8311403" lon="13.1440597"><ele>681.0</ele><time>2026-05-03T08:01:09.373Z</time></trkpt><trkpt lat="41.8312229" lon="13.1442069"><ele>684.75</ele><time>2026-05-03T08:01:10.368Z</time></trkpt><trkpt lat="41.8313052" lon="13.1443565"><ele>688.5</ele><time>2026-05-03T08:01:11.37Z</time></trkpt><trkpt lat="41.8313619" lon="13.144535"><ele>692.25</ele><time>2026-05-03T08:01:12.373Z</time></trkpt><trkpt lat="41.8314041" lon="13.1447042"><ele>696.0</ele><time>2026-05-03T08:01:13.371Z</time></trkpt><trkpt lat="41.8314241" lon="13.1448616"><ele>695.1666666666666</ele><time>2026-05-03T08:01:14.378Z</time></trkpt><trkpt lat="41.8314298" lon="13.144994"><ele>694.3333333333334</ele><time>2026-05-03T08:01:15.372Z</time></trkpt><trkpt lat="41.8314139" lon="13.145113"><ele>693.5</ele><time>2026-05-03T08:01:16.369Z</time></trkpt><trkpt lat="41.8313835" lon="13.1452184"><ele>692.6666666666667</ele><time>2026-05-03T08:01:17.37Z</time></trkpt><trkpt lat="41.8313408" lon="13.1453127"><ele>691.8333333333334</ele><time>2026-05-03T08:01:18.373Z</time></trkpt><trkpt lat="41.8312799" lon="13.145403"><ele>691.0</ele><time>2026-05-03T08:01:19.371Z</time></trkpt><trkpt lat="41.8312026" lon="13.1454795"><ele>691.0</ele><time>2026-05-03T08:01:20.369Z</time></trkpt><trkpt lat="41.8311114" lon="13.1455375"><ele>691.0</ele><time>2026-05-03T08:01:21.381Z</time></trkpt><trkpt lat="41.8310017" lon="13.1455848"><ele>691.0</ele><time>2026-05-03T08:01:22.367Z</time></trkpt><trkpt lat="41.830883" lon="13.1456296"><ele>691.0</ele><time>2026-05-03T08:01:23.382Z</time></trkpt><trkpt lat="41.8307721" lon="13.1456736"><ele>688.0</ele><time>2026-05-03T08:01:24.374Z</time></trkpt><trkpt lat="41.8306646" lon="13.1456986"><ele>685.0</ele><time>2026-05-03T08:01:25.373Z</time></trkpt><trkpt lat="41.8305572" lon="13.145702"><ele>682.0</ele><time>2026-05-03T08:01:26.369Z</time></trkpt><trkpt lat="41.8304592" lon="13.1456974"><ele>679.0</ele><time>2026-05-03T08:01:27.377Z</time></trkpt><trkpt lat="41.8303686" lon="13.1456881"><ele>676.0</ele><time>2026-05-03T08:01:28.366Z</time></trkpt><trkpt lat="41.830281" lon="13.1456684"><ele>676.0</ele><time>2026-05-03T08:01:29.37Z</time></trkpt><trkpt lat="41.8302093" lon="13.1456387"><ele>676.0</ele><time>2026-05-03T08:01:30.367Z</time></trkpt><trkpt lat="41.8301398" lon="13.1456117"><ele>676.0</ele><time>2026-05-03T08:01:33.366Z</time></trkpt><trkpt lat="41.8300725" lon="13.1456622"><ele>676.0</ele><time>2026-05-03T08:01:40.379Z</time></trkpt><trkpt lat="41.8300453" lon="13.1457637"><ele>676.0</ele><time>2026-05-03T08:01:42.371Z</time></trkpt><trkpt lat="41.8301346" lon="13.145848"><ele>676.0</ele><time>2026-05-03T08:01:44.375Z</time></trkpt><trkpt lat="41.830211" lon="13.145871"><ele>680.25</ele><time>2026-05-03T08:01:45.381Z</time></trkpt><trkpt lat="41.8303177" lon="13.1458751"><ele>684.5</ele><time>2026-05-03T08:01:46.373Z</time></trkpt><trkpt lat="41.8304444" lon="13.1459034"><ele>688.75</ele><time>2026-05-03T08:01:47.372Z</time></trkpt><trkpt lat="41.8305897" lon="13.1459324"><ele>693.0</ele><time>2026-05-03T08:01:48.373Z</time></trkpt><trkpt lat="41.8307464" lon="13.1459637"><ele>693.0</ele><time>2026-05-03T08:01:49.375Z</time></trkpt><trkpt lat="41.830903" lon="13.1459913"><ele>693.0</ele><time>2026-05-03T08:01:50.37Z</time></trkpt><trkpt lat="41.831057" lon="13.1460299"><ele>693.0</ele><time>2026-05-03T08:01:51.369Z</time></trkpt><trkpt lat="41.8312004" lon="13.1460774"><ele>694.5999999999999</ele><time>2026-05-03T08:01:52.383Z</time></trkpt><trkpt lat="41.8313266" lon="13.1461194"><ele>696.1999999999999</ele><time>2026-05-03T08:01:53.38Z</time></trkpt><trkpt lat="41.8314372" lon="13.1461334"><ele>697.8</ele><time>2026-05-03T08:01:54.37Z</time></trkpt><trkpt lat="41.8315376" lon="13.1461186"><ele>699.4</ele><time>2026-05-03T08:01:55.378Z</time></trkpt><trkpt lat="41.8316384" lon="13.146071"><ele>701.0</ele><time>2026-05-03T08:01:56.373Z</time></trkpt><trkpt lat="41.8317326" lon="13.1460042"><ele>706.4</ele><time>2026-05-03T08:01:57.37Z</time></trkpt><trkpt lat="41.8318144" lon="13.1459171"><ele>711.8</ele><time>2026-05-03T08:01:58.377Z</time></trkpt><trkpt lat="41.8318779" lon="13.1458091"><ele>717.1999999999999</ele><time>2026-05-03T08:01:59.372Z</time></trkpt><trkpt lat="41.8319162" lon="13.1456804"><ele>722.5999999999999</ele><time>2026-05-03T08:02:00.38Z</time></trkpt><trkpt lat="41.8319389" lon="13.1455202"><ele>728.0</ele><time>2026-05-03T08:02:01.369Z</time></trkpt><trkpt lat="41.8319564" lon="13.1453412"><ele>728.0</ele><time>2026-05-03T08:02:02.381Z</time></trkpt><trkpt lat="41.8319741" lon="13.1451485"><ele>728.0</ele><time>2026-05-03T08:02:03.375Z</time></trkpt><trkpt lat="41.8320022" lon="13.1449507"><ele>728.0</ele><time>2026-05-03T08:02:04.377Z</time></trkpt><trkpt lat="41.8320361" lon="13.1447566"><ele>728.0</ele><time>2026-05-03T08:02:05.377Z</time></trkpt><trkpt lat="41.8320807" lon="13.1445684"><ele>728.0</ele><time>2026-05-03T08:02:06.367Z</time></trkpt><trkpt lat="41.8321012" lon="13.1443952"><ele>728.0</ele><time>2026-05-03T08:02:07.373Z</time></trkpt><trkpt lat="41.8321017" lon="13.1442273"><ele>728.0</ele><time>2026-05-03T08:02:08.369Z</time></trkpt><trkpt lat="41.8320762" lon="13.144061"><ele>728.0</ele><time>2026-05-03T08:02:09.369Z</time></trkpt><trkpt lat="41.832022" lon="13.1439003"><ele>726.0</ele><time>2026-05-03T08:02:10.386Z</time></trkpt><trkpt lat="41.8319505" lon="13.1437382"><ele>724.0</ele><time>2026-05-03T08:02:11.373Z</time></trkpt><trkpt lat="41.8318751" lon="13.1435912"><ele>722.0</ele><time>2026-05-03T08:02:12.378Z</time></trkpt><trkpt lat="41.8317857" lon="13.1434745"><ele>720.0</ele><time>2026-05-03T08:02:13.373Z</time></trkpt><trkpt lat="41.8316784" lon="13.1433836"><ele>720.0</ele><time>2026-05-03T08:02:14.368Z</time></trkpt><trkpt lat="41.8315638" lon="13.1432985"><ele>720.0</ele><time>2026-05-03T08:02:15.368Z</time></trkpt><trkpt lat="41.8314551" lon="13.1432166"><ele>720.0</ele><time>2026-05-03T08:02:16.366Z</time></trkpt><trkpt lat="41.8313582" lon="13.1431194"><ele>720.0</ele><time>2026-05-03T08:02:17.374Z</time></trkpt><trkpt lat="41.8312719" lon="13.1429902"><ele>726.0</ele><time>2026-05-03T08:02:18.365Z</time></trkpt><trkpt lat="41.8311949" lon="13.1428436"><ele>732.0</ele><time>2026-05-03T08:02:19.372Z</time></trkpt><trkpt lat="41.8311269" lon="13.1427119"><ele>738.0</ele><time>2026-05-03T08:02:20.373Z</time></trkpt><trkpt lat="41.831074" lon="13.1425902"><ele>744.0</ele><time>2026-05-03T08:02:21.377Z</time></trkpt><trkpt lat="41.831034" lon="13.142474"><ele>747.0</ele><time>2026-05-03T08:02:22.363Z</time></trkpt><trkpt lat="41.8310054" lon="13.1423611"><ele>750.0</ele><time>2026-05-03T08:02:23.372Z</time></trkpt><trkpt lat="41.8309892" lon="13.1422135"><ele>753.0</ele><time>2026-05-03T08:02:24.376Z</time></trkpt><trkpt lat="41.8309777" lon="13.1420492"><ele>756.0</ele><time>2026-05-03T08:02:25.378Z</time></trkpt><trkpt lat="41.8309638" lon="13.1418674"><ele>746.5</ele><time>2026-05-03T08:02:26.379Z</time></trkpt><trkpt lat="41.8309463" lon="13.1416871"><ele>737.0</ele><time>2026-05-03T08:02:27.379Z</time></trkpt><trkpt lat="41.8309209" lon="13.1415092"><ele>727.5</ele><time>2026-05-03T08:02:28.378Z</time></trkpt><trkpt lat="41.830897" lon="13.1413284"><ele>718.0</ele><time>2026-05-03T08:02:29.368Z</time></trkpt><trkpt lat="41.8308872" lon="13.1411484"><ele>718.0</ele><time>2026-05-03T08:02:30.377Z</time></trkpt><trkpt lat="41.8308918" lon="13.1409734"><ele>718.0</ele><time>2026-05-03T08:02:31.385Z</time></trkpt><trkpt lat="41.8308949" lon="13.1408054"><ele>718.0</ele><time>2026-05-03T08:02:32.369Z</time></trkpt><trkpt lat="41.8309153" lon="13.1406412"><ele>718.0</ele><time>2026-05-03T08:02:33.371Z</time></trkpt><trkpt lat="41.8308794" lon="13.1405027"><ele>719.5</ele><time>2026-05-03T08:02:34.375Z</time></trkpt><trkpt lat="41.8308486" lon="13.1403402"><ele>721.0</ele><time>2026-05-03T08:02:35.366Z</time></trkpt><trkpt lat="41.8308125" lon="13.1401885"><ele>722.5</ele><time>2026-05-03T08:02:36.377Z</time></trkpt><trkpt lat="41.830773" lon="13.14005"><ele>724.0</ele><time>2026-05-03T08:02:37.371Z</time></trkpt><trkpt lat="41.8307407" lon="13.139912"><ele>725.75</ele><time>2026-05-03T08:02:38.369Z</time></trkpt><trkpt lat="41.8307267" lon="13.1397699"><ele>727.5</ele><time>2026-05-03T08:02:39.374Z</time></trkpt><trkpt lat="41.830736" lon="13.1396064"><ele>729.25</ele><time>2026-05-03T08:02:40.373Z</time></trkpt><trkpt lat="41.8307421" lon="13.1394109"><ele>731.0</ele><time>2026-05-03T08:02:41.369Z</time></trkpt><trkpt lat="41.8307366" lon="13.1391606"><ele>732.0</ele><time>2026-05-03T08:02:42.371Z</time></trkpt><trkpt lat="41.8307204" lon="13.1388792"><ele>733.0</ele><time>2026-05-03T08:02:43.379Z</time></trkpt><trkpt lat="41.8307104" lon="13.1385803"><ele>734.0</ele><time>2026-05-03T08:02:44.375Z</time></trkpt><trkpt lat="41.8307081" lon="13.1383147"><ele>732.25</ele><time>2026-05-03T08:02:45.374Z</time></trkpt><trkpt lat="41.8307085" lon="13.1381006"><ele>730.5</ele><time>2026-05-03T08:02:46.373Z</time></trkpt><trkpt lat="41.8307224" lon="13.1379417"><ele>728.75</ele><time>2026-05-03T08:02:47.379Z</time></trkpt><trkpt lat="41.8307598" lon="13.1378216"><ele>727.0</ele><time>2026-05-03T08:02:48.372Z</time></trkpt><trkpt lat="41.8308198" lon="13.1377424"><ele>727.0</ele><time>2026-05-03T08:02:49.372Z</time></trkpt><trkpt lat="41.8309012" lon="13.1377152"><ele>727.0</ele><time>2026-05-03T08:02:50.37Z</time></trkpt><trkpt lat="41.8309855" lon="13.1377379"><ele>727.0</ele><time>2026-05-03T08:02:51.386Z</time></trkpt><trkpt lat="41.8310516" lon="13.1378042"><ele>727.0</ele><time>2026-05-03T08:02:52.366Z</time></trkpt><trkpt lat="41.8311264" lon="13.137926"><ele>727.0</ele><time>2026-05-03T08:02:53.364Z</time></trkpt><trkpt lat="41.8312171" lon="13.1380954"><ele>732.0</ele><time>2026-05-03T08:02:54.372Z</time></trkpt><trkpt lat="41.8313351" lon="13.1382886"><ele>737.0</ele><time>2026-05-03T08:02:55.367Z</time></trkpt><trkpt lat="41.8314717" lon="13.1384867"><ele>742.0</ele><time>2026-05-03T08:02:56.372Z</time></trkpt><trkpt lat="41.8316131" lon="13.1386814"><ele>742.0</ele><time>2026-05-03T08:02:57.366Z</time></trkpt><trkpt lat="41.8317426" lon="13.1388833"><ele>742.0</ele><time>2026-05-03T08:02:58.37Z</time></trkpt><trkpt lat="41.8318736" lon="13.1391174"><ele>742.0</ele><time>2026-05-03T08:02:59.367Z</time></trkpt><trkpt lat="41.8320074" lon="13.1393684"><ele>744.3333333333334</ele><time>2026-05-03T08:03:00.369Z</time></trkpt><trkpt lat="41.8321268" lon="13.1396078"><ele>746.6666666666666</ele><time>2026-05-03T08:03:01.37Z</time></trkpt><trkpt lat="41.8322229" lon="13.139833"><ele>749.0</ele><time>2026-05-03T08:03:02.367Z</time></trkpt><trkpt lat="41.8322977" lon="13.1400403"><ele>751.5</ele><time>2026-05-03T08:03:03.371Z</time></trkpt><trkpt lat="41.8323706" lon="13.1402127"><ele>754.0</ele><time>2026-05-03T08:03:04.371Z</time></trkpt><trkpt lat="41.83245" lon="13.1403576"><ele>756.5</ele><time>2026-05-03T08:03:05.366Z</time></trkpt><trkpt lat="41.8325463" lon="13.1404637"><ele>759.0</ele><time>2026-05-03T08:03:06.37Z</time></trkpt><trkpt lat="41.8326702" lon="13.1405425"><ele>760.3333333333334</ele><time>2026-05-03T08:03:07.374Z</time></trkpt><trkpt lat="41.8328332" lon="13.1405917"><ele>761.6666666666667</ele><time>2026-05-03T08:03:08.371Z</time></trkpt><trkpt lat="41.8330051" lon="13.1406168"><ele>763.0</ele><time>2026-05-03T08:03:09.372Z</time></trkpt><trkpt lat="41.833149" lon="13.1406421"><ele>763.0</ele><time>2026-05-03T08:03:10.369Z</time></trkpt><trkpt lat="41.8332597" lon="13.1406649"><ele>763.0</ele><time>2026-05-03T08:03:11.368Z</time></trkpt><trkpt lat="41.8333468" lon="13.140726"><ele>763.0</ele><time>2026-05-03T08:03:12.366Z</time></trkpt><trkpt lat="41.8333984" lon="13.1408082"><ele>763.0</ele><time>2026-05-03T08:03:13.368Z</time></trkpt><trkpt lat="41.8334106" lon="13.1408996"><ele>763.0</ele><time>2026-05-03T08:03:14.368Z</time></trkpt><trkpt lat="41.8333839" lon="13.1410205"><ele>764.2</ele><time>2026-05-03T08:03:15.369Z</time></trkpt><trkpt lat="41.8333451" lon="13.1411593"><ele>765.4</ele><time>2026-05-03T08:03:16.369Z</time></trkpt><trkpt lat="41.8333024" lon="13.1413019"><ele>766.6</ele><time>2026-05-03T08:03:17.37Z</time></trkpt><trkpt lat="41.83326" lon="13.1414303"><ele>767.8000000000001</ele><time>2026-05-03T08:03:18.373Z</time></trkpt><trkpt lat="41.8332175" lon="13.1415587"><ele>769.0</ele><time>2026-05-03T08:03:19.373Z</time></trkpt><trkpt lat="41.8331969" lon="13.1416715"><ele>770.8000000000001</ele><time>2026-05-03T08:03:20.371Z</time></trkpt><trkpt lat="41.8331842" lon="13.141785"><ele>772.6</ele><time>2026-05-03T08:03:21.37Z</time></trkpt><trkpt lat="41.8331876" lon="13.1419106"><ele>774.4</ele><time>2026-05-03T08:03:22.368Z</time></trkpt><trkpt lat="41.8331958" lon="13.1420501"><ele>776.2</ele><time>2026-05-03T08:03:23.38Z</time></trkpt><trkpt lat="41.833199" lon="13.1422105"><ele>778.0</ele><time>2026-05-03T08:03:24.368Z</time></trkpt><trkpt lat="41.8331964" lon="13.1423723"><ele>778.0</ele><time>2026-05-03T08:03:25.369Z</time></trkpt><trkpt lat="41.8332005" lon="13.1425294"><ele>778.0</ele><time>2026-05-03T08:03:26.367Z</time></trkpt><trkpt lat="41.8332059" lon="13.1426845"><ele>778.0</ele><time>2026-05-03T08:03:27.38Z</time></trkpt><trkpt lat="41.833223" lon="13.142834"><ele>778.0</ele><time>2026-05-03T08:03:28.367Z</time></trkpt><trkpt lat="41.8332583" lon="13.1429722"><ele>778.0</ele><time>2026-05-03T08:03:29.373Z</time></trkpt><trkpt lat="41.8333169" lon="13.1431034"><ele>778.0</ele><time>2026-05-03T08:03:30.368Z</time></trkpt><trkpt lat="41.8333964" lon="13.1432194"><ele>778.0</ele><time>2026-05-03T08:03:31.368Z</time></trkpt><trkpt lat="41.8334909" lon="13.1433161"><ele>778.0</ele><time>2026-05-03T08:03:32.369Z</time></trkpt><trkpt lat="41.8335841" lon="13.143391"><ele>781.75</ele><time>2026-05-03T08:03:33.371Z</time></trkpt><trkpt lat="41.8336825" lon="13.143463"><ele>785.5</ele><time>2026-05-03T08:03:34.368Z</time></trkpt><trkpt lat="41.8337887" lon="13.1435396"><ele>789.25</ele><time>2026-05-03T08:03:35.37Z</time></trkpt><trkpt lat="41.8338946" lon="13.1436221"><ele>793.0</ele><time>2026-05-03T08:03:36.371Z</time></trkpt><trkpt lat="41.8339908" lon="13.1437157"><ele>793.0</ele><time>2026-05-03T08:03:37.373Z</time></trkpt><trkpt lat="41.8340778" lon="13.1438224"><ele>793.0</ele><time>2026-05-03T08:03:38.369Z</time></trkpt><trkpt lat="41.8341448" lon="13.1439414"><ele>793.0</ele><time>2026-05-03T08:03:39.368Z</time></trkpt><trkpt lat="41.8341903" lon="13.1440752"><ele>793.0</ele><time>2026-05-03T08:03:40.366Z</time></trkpt><trkpt lat="41.8342362" lon="13.1442211"><ele>791.25</ele><time>2026-05-03T08:03:41.372Z</time></trkpt><trkpt lat="41.8342743" lon="13.1443804"><ele>789.5</ele><time>2026-05-03T08:03:42.372Z</time></trkpt><trkpt lat="41.834301" lon="13.1445361"><ele>787.75</ele><time>2026-05-03T08:03:43.368Z</time></trkpt><trkpt lat="41.8343123" lon="13.1446933"><ele>786.0</ele><time>2026-05-03T08:03:44.37Z</time></trkpt><trkpt lat="41.8342968" lon="13.1448459"><ele>786.4</ele><time>2026-05-03T08:03:45.379Z</time></trkpt><trkpt lat="41.8342621" lon="13.1449781"><ele>786.8</ele><time>2026-05-03T08:03:46.371Z</time></trkpt><trkpt lat="41.8342076" lon="13.1451023"><ele>787.1999999999999</ele><time>2026-05-03T08:03:47.374Z</time></trkpt><trkpt lat="41.8341388" lon="13.1452104"><ele>787.5999999999999</ele><time>2026-05-03T08:03:48.371Z</time></trkpt><trkpt lat="41.8340741" lon="13.1453213"><ele>788.0</ele><time>2026-05-03T08:03:49.375Z</time></trkpt><trkpt lat="41.8340251" lon="13.1454597"><ele>788.0</ele><time>2026-05-03T08:03:50.37Z</time></trkpt><trkpt lat="41.8339908" lon="13.1456212"><ele>788.0</ele><time>2026-05-03T08:03:51.37Z</time></trkpt><trkpt lat="41.8339677" lon="13.1457796"><ele>788.0</ele><time>2026-05-03T08:03:52.369Z</time></trkpt><trkpt lat="41.8339448" lon="13.1459316"><ele>788.0</ele><time>2026-05-03T08:03:53.371Z</time></trkpt><trkpt lat="41.8339191" lon="13.1460988"><ele>791.5</ele><time>2026-05-03T08:03:54.379Z</time></trkpt><trkpt lat="41.8338859" lon="13.1462573"><ele>795.0</ele><time>2026-05-03T08:03:55.369Z</time></trkpt><trkpt lat="41.8338435" lon="13.1464068"><ele>798.5</ele><time>2026-05-03T08:03:56.374Z</time></trkpt><trkpt lat="41.8337925" lon="13.1465486"><ele>802.0</ele><time>2026-05-03T08:03:57.379Z</time></trkpt><trkpt lat="41.8337343" lon="13.1466819"><ele>805.2</ele><time>2026-05-03T08:03:58.37Z</time></trkpt><trkpt lat="41.8336674" lon="13.1468019"><ele>808.4000000000001</ele><time>2026-05-03T08:03:59.38Z</time></trkpt><trkpt lat="41.833589" lon="13.1469012"><ele>811.5999999999999</ele><time>2026-05-03T08:04:00.379Z</time></trkpt><trkpt lat="41.8335055" lon="13.1469994"><ele>814.8</ele><time>2026-05-03T08:04:01.377Z</time></trkpt><trkpt lat="41.8334284" lon="13.1470989"><ele>818.0</ele><time>2026-05-03T08:04:02.38Z</time></trkpt><trkpt lat="41.8333606" lon="13.1472084"><ele>821.5999999999999</ele><time>2026-05-03T08:04:03.38Z</time></trkpt><trkpt lat="41.8333165" lon="13.1473269"><ele>825.1999999999999</ele><time>2026-05-03T08:04:04.369Z</time></trkpt><trkpt lat="41.8333068" lon="13.1474506"><ele>828.8</ele><time>2026-05-03T08:04:05.368Z</time></trkpt><trkpt lat="41.8333362" lon="13.1475649"><ele>832.4</ele><time>2026-05-03T08:04:06.372Z</time></trkpt><trkpt lat="41.8333941" lon="13.1476572"><ele>836.0</ele><time>2026-05-03T08:04:07.369Z</time></trkpt><trkpt lat="41.8334737" lon="13.1477372"><ele>836.0</ele><time>2026-05-03T08:04:08.375Z</time></trkpt><trkpt lat="41.8335566" lon="13.1478272"><ele>836.0</ele><time>2026-05-03T08:04:09.38Z</time></trkpt><trkpt lat="41.8336237" lon="13.1479285"><ele>836.0</ele><time>2026-05-03T08:04:10.369Z</time></trkpt><trkpt lat="41.8336835" lon="13.1480386"><ele>836.0</ele><time>2026-05-03T08:04:11.37Z</time></trkpt><trkpt lat="41.833735" lon="13.1481726"><ele>836.0</ele><time>2026-05-03T08:04:12.371Z</time></trkpt><trkpt lat="41.8337784" lon="13.1483497"><ele>836.0</ele><time>2026-05-03T08:04:13.378Z</time></trkpt><trkpt lat="41.8338151" lon="13.1485828"><ele>836.0</ele><time>2026-05-03T08:04:14.369Z</time></trkpt><trkpt lat="41.8338465" lon="13.1488547"><ele>836.0</ele><time>2026-05-03T08:04:15.368Z</time></trkpt><trkpt lat="41.8338826" lon="13.1490887"><ele>835.25</ele><time>2026-05-03T08:04:16.369Z</time></trkpt><trkpt lat="41.8339166" lon="13.149291"><ele>834.5</ele><time>2026-05-03T08:04:17.376Z</time></trkpt><trkpt lat="41.8339326" lon="13.1494483"><ele>833.75</ele><time>2026-05-03T08:04:18.371Z</time></trkpt><trkpt lat="41.8339258" lon="13.1495837"><ele>833.0</ele><time>2026-05-03T08:04:19.374Z</time></trkpt><trkpt lat="41.8338856" lon="13.1497007"><ele>833.0</ele><time>2026-05-03T08:04:20.374Z</time></trkpt><trkpt lat="41.8338147" lon="13.1497859"><ele>833.0</ele><time>2026-05-03T08:04:21.368Z</time></trkpt><trkpt lat="41.8337248" lon="13.1498271"><ele>833.0</ele><time>2026-05-03T08:04:22.369Z</time></trkpt><trkpt lat="41.8336049" lon="13.1498119"><ele>833.0</ele><time>2026-05-03T08:04:23.369Z</time></trkpt><trkpt lat="41.8334602" lon="13.1497697"><ele>825.5</ele><time>2026-05-03T08:04:24.371Z</time></trkpt><trkpt lat="41.8333092" lon="13.1497113"><ele>818.0</ele><time>2026-05-03T08:04:25.367Z</time></trkpt><trkpt lat="41.8331814" lon="13.149671"><ele>810.5</ele><time>2026-05-03T08:04:26.372Z</time></trkpt><trkpt lat="41.83306" lon="13.1496589"><ele>803.0</ele><time>2026-05-03T08:04:27.372Z</time></trkpt><trkpt lat="41.8329418" lon="13.1496885"><ele>803.0</ele><time>2026-05-03T08:04:28.368Z</time></trkpt><trkpt lat="41.832834" lon="13.1497698"><ele>803.0</ele><time>2026-05-03T08:04:29.376Z</time></trkpt><trkpt lat="41.8327295" lon="13.1498921"><ele>803.0</ele><time>2026-05-03T08:04:30.369Z</time></trkpt><trkpt lat="41.8326372" lon="13.1500331"><ele>803.0</ele><time>2026-05-03T08:04:31.369Z</time></trkpt><trkpt lat="41.8325539" lon="13.1501406"><ele>807.8</ele><time>2026-05-03T08:04:32.379Z</time></trkpt><trkpt lat="41.8324674" lon="13.150214"><ele>812.5999999999999</ele><time>2026-05-03T08:04:33.379Z</time></trkpt><trkpt lat="41.8323802" lon="13.1502202"><ele>817.4000000000001</ele><time>2026-05-03T08:04:34.371Z</time></trkpt><trkpt lat="41.8322894" lon="13.1501765"><ele>822.2</ele><time>2026-05-03T08:04:35.369Z</time></trkpt><trkpt lat="41.832184" lon="13.1500965"><ele>827.0</ele><time>2026-05-03T08:04:36.377Z</time></trkpt><trkpt lat="41.8320492" lon="13.1499896"><ele>822.6666666666667</ele><time>2026-05-03T08:04:37.368Z</time></trkpt><trkpt lat="41.8318924" lon="13.1498668"><ele>818.3333333333333</ele><time>2026-05-03T08:04:38.371Z</time></trkpt><trkpt lat="41.8317358" lon="13.1497594"><ele>814.0</ele><time>2026-05-03T08:04:39.371Z</time></trkpt><trkpt lat="41.831599" lon="13.1496745"><ele>814.0</ele><time>2026-05-03T08:04:40.373Z</time></trkpt><trkpt lat="41.8314836" lon="13.1496222"><ele>814.0</ele><time>2026-05-03T08:04:41.367Z</time></trkpt><trkpt lat="41.8313697" lon="13.1496106"><ele>814.0</ele><time>2026-05-03T08:04:42.378Z</time></trkpt><trkpt lat="41.8312534" lon="13.1496498"><ele>814.0</ele><time>2026-05-03T08:04:43.376Z</time></trkpt><trkpt lat="41.8311283" lon="13.1497338"><ele>814.0</ele><time>2026-05-03T08:04:44.372Z</time></trkpt><trkpt lat="41.8309808" lon="13.1498412"><ele>814.0</ele><time>2026-05-03T08:04:45.37Z</time></trkpt><trkpt lat="41.8308335" lon="13.1499432"><ele>814.0</ele><time>2026-05-03T08:04:46.377Z</time></trkpt><trkpt lat="41.8307057" lon="13.1500476"><ele>818.75</ele><time>2026-05-03T08:04:47.375Z</time></trkpt><trkpt lat="41.8305943" lon="13.1501651"><ele>823.5</ele><time>2026-05-03T08:04:48.37Z</time></trkpt><trkpt lat="41.8305031" lon="13.1503106"><ele>828.25</ele><time>2026-05-03T08:04:49.375Z</time></trkpt><trkpt lat="41.8304361" lon="13.1504878"><ele>833.0</ele><time>2026-05-03T08:04:50.378Z</time></trkpt><trkpt lat="41.8303908" lon="13.1507034"><ele>840.6666666666667</ele><time>2026-05-03T08:04:51.371Z</time></trkpt><trkpt lat="41.8303611" lon="13.1509551"><ele>848.3333333333333</ele><time>2026-05-03T08:04:52.37Z</time></trkpt><trkpt lat="41.8303204" lon="13.1512145"><ele>856.0</ele><time>2026-05-03T08:04:53.37Z</time></trkpt><trkpt lat="41.8302689" lon="13.1514718"><ele>863.3333333333333</ele><time>2026-05-03T08:04:54.371Z</time></trkpt><trkpt lat="41.8301988" lon="13.1516794"><ele>870.6666666666667</ele><time>2026-05-03T08:04:55.373Z</time></trkpt><trkpt lat="41.8301235" lon="13.1518546"><ele>878.0</ele><time>2026-05-03T08:04:56.379Z</time></trkpt><trkpt lat="41.8300382" lon="13.1519921"><ele>870.75</ele><time>2026-05-03T08:04:57.371Z</time></trkpt><trkpt lat="41.8299702" lon="13.1521289"><ele>863.5</ele><time>2026-05-03T08:04:58.373Z</time></trkpt><trkpt lat="41.8299306" lon="13.1522869"><ele>856.25</ele><time>2026-05-03T08:04:59.375Z</time></trkpt><trkpt lat="41.8299231" lon="13.1524851"><ele>849.0</ele><time>2026-05-03T08:05:00.37Z</time></trkpt><trkpt lat="41.8299426" lon="13.1527192"><ele>849.0</ele><time>2026-05-03T08:05:01.38Z</time></trkpt><trkpt lat="41.8299624" lon="13.1529914"><ele>849.0</ele><time>2026-05-03T08:05:02.379Z</time></trkpt><trkpt lat="41.829971" lon="13.1532806"><ele>849.0</ele><time>2026-05-03T08:05:03.371Z</time></trkpt><trkpt lat="41.8299565" lon="13.1536177"><ele>852.0</ele><time>2026-05-03T08:05:04.371Z</time></trkpt><trkpt lat="41.8299278" lon="13.1539923"><ele>855.0</ele><time>2026-05-03T08:05:05.38Z</time></trkpt><trkpt lat="41.8298991" lon="13.15435"><ele>857.5</ele><time>2026-05-03T08:05:06.368Z</time></trkpt><trkpt lat="41.829865" lon="13.1546678"><ele>860.0</ele><time>2026-05-03T08:05:07.372Z</time></trkpt><trkpt lat="41.8298233" lon="13.1549709"><ele>863.6666666666667</ele><time>2026-05-03T08:05:08.37Z</time></trkpt><trkpt lat="41.8297765" lon="13.1552429"><ele>867.3333333333333</ele><time>2026-05-03T08:05:09.383Z</time></trkpt><trkpt lat="41.8297135" lon="13.1554756"><ele>871.0</ele><time>2026-05-03T08:05:10.37Z</time></trkpt><trkpt lat="41.8296283" lon="13.1556754"><ele>877.3333333333333</ele><time>2026-05-03T08:05:11.371Z</time></trkpt><trkpt lat="41.8295439" lon="13.1558678"><ele>883.6666666666667</ele><time>2026-05-03T08:05:12.367Z</time></trkpt><trkpt lat="41.8294754" lon="13.1560903"><ele>890.0</ele><time>2026-05-03T08:05:13.369Z</time></trkpt><trkpt lat="41.8294206" lon="13.1563408"><ele>894.3333333333334</ele><time>2026-05-03T08:05:14.373Z</time></trkpt><trkpt lat="41.8293602" lon="13.1566279"><ele>898.6666666666667</ele><time>2026-05-03T08:05:15.369Z</time></trkpt><trkpt lat="41.8292983" lon="13.1569093"><ele>903.0</ele><time>2026-05-03T08:05:16.37Z</time></trkpt><trkpt lat="41.8292494" lon="13.1571682"><ele>893.3333333333333</ele><time>2026-05-03T08:05:17.375Z</time></trkpt><trkpt lat="41.8292234" lon="13.1574304"><ele>883.6666666666666</ele><time>2026-05-03T08:05:18.38Z</time></trkpt><trkpt lat="41.829219" lon="13.1577194"><ele>874.0</ele><time>2026-05-03T08:05:19.378Z</time></trkpt><trkpt lat="41.8292162" lon="13.1580504"><ele>875.0</ele><time>2026-05-03T08:05:20.37Z</time></trkpt><trkpt lat="41.829206" lon="13.1584138"><ele>876.0</ele><time>2026-05-03T08:05:21.44Z</time></trkpt><trkpt lat="41.829199" lon="13.1588242"><ele>877.0</ele><time>2026-05-03T08:05:22.37Z</time></trkpt><trkpt lat="41.8291895" lon="13.1592332"><ele>878.0</ele><time>2026-05-03T08:05:23.373Z</time></trkpt><trkpt lat="41.8291825" lon="13.1596147"><ele>877.0</ele><time>2026-05-03T08:05:24.379Z</time></trkpt><trkpt lat="41.8291697" lon="13.1599714"><ele>876.0</ele><time>2026-05-03T08:05:25.378Z</time></trkpt><trkpt lat="41.8291493" lon="13.1603186"><ele>876.0</ele><time>2026-05-03T08:05:26.382Z</time></trkpt><trkpt lat="41.8291155" lon="13.1606525"><ele>876.0</ele><time>2026-05-03T08:05:27.373Z</time></trkpt><trkpt lat="41.8290895" lon="13.1609894"><ele>877.0</ele><time>2026-05-03T08:05:28.372Z</time></trkpt><trkpt lat="41.829084" lon="13.1613137"><ele>878.0</ele><time>2026-05-03T08:05:29.377Z</time></trkpt><trkpt lat="41.8290727" lon="13.1616567"><ele>880.0</ele><time>2026-05-03T08:05:30.37Z</time></trkpt><trkpt lat="41.8290425" lon="13.1620236"><ele>882.0</ele><time>2026-05-03T08:05:31.372Z</time></trkpt><trkpt lat="41.8289987" lon="13.1624317"><ele>885.5</ele><time>2026-05-03T08:05:32.372Z</time></trkpt><trkpt lat="41.8289515" lon="13.1628348"><ele>889.0</ele><time>2026-05-03T08:05:33.369Z</time></trkpt><trkpt lat="41.8289033" lon="13.1632085"><ele>894.5</ele><time>2026-05-03T08:05:34.392Z</time></trkpt><trkpt lat="41.8288525" lon="13.1635681"><ele>900.0</ele><time>2026-05-03T08:05:35.371Z</time></trkpt><trkpt lat="41.8288109" lon="13.1639225"><ele>902.5</ele><time>2026-05-03T08:05:36.372Z</time></trkpt><trkpt lat="41.8287877" lon="13.1642444"><ele>905.0</ele><time>2026-05-03T08:05:37.369Z</time></trkpt><trkpt lat="41.82877" lon="13.1645529"><ele>905.0</ele><time>2026-05-03T08:05:38.371Z</time></trkpt><trkpt lat="41.8287564" lon="13.1648259"><ele>905.0</ele><time>2026-05-03T08:05:39.369Z</time></trkpt><trkpt lat="41.8287591" lon="13.165053"><ele>905.0</ele><time>2026-05-03T08:05:40.374Z</time></trkpt><trkpt lat="41.8287878" lon="13.1652789"><ele>904.3333333333334</ele><time>2026-05-03T08:05:41.371Z</time></trkpt><trkpt lat="41.8288383" lon="13.1654975"><ele>903.6666666666667</ele><time>2026-05-03T08:05:42.374Z</time></trkpt><trkpt lat="41.828882" lon="13.1656941"><ele>903.0</ele><time>2026-05-03T08:05:43.37Z</time></trkpt><trkpt lat="41.8289064" lon="13.1658817"><ele>901.5</ele><time>2026-05-03T08:05:44.37Z</time></trkpt><trkpt lat="41.8289006" lon="13.1660624"><ele>900.0</ele><time>2026-05-03T08:05:45.369Z</time></trkpt><trkpt lat="41.8288603" lon="13.1662263"><ele>898.5</ele><time>2026-05-03T08:05:46.372Z</time></trkpt><trkpt lat="41.8287833" lon="13.1663822"><ele>897.0</ele><time>2026-05-03T08:05:47.372Z</time></trkpt><trkpt lat="41.8287058" lon="13.1665546"><ele>897.0</ele><time>2026-05-03T08:05:48.373Z</time></trkpt><trkpt lat="41.8286195" lon="13.1667693"><ele>897.0</ele><time>2026-05-03T08:05:49.375Z</time></trkpt><trkpt lat="41.8285311" lon="13.16699"><ele>897.0</ele><time>2026-05-03T08:05:50.371Z</time></trkpt><trkpt lat="41.8284597" lon="13.167234"><ele>896.0</ele><time>2026-05-03T08:05:51.373Z</time></trkpt><trkpt lat="41.828395" lon="13.1675223"><ele>895.0</ele><time>2026-05-03T08:05:52.371Z</time></trkpt><trkpt lat="41.8283351" lon="13.1678296"><ele>895.0</ele><time>2026-05-03T08:05:53.362Z</time></trkpt><trkpt lat="41.8282843" lon="13.1681306"><ele>895.0</ele><time>2026-05-03T08:05:54.375Z</time></trkpt><trkpt lat="41.8282398" lon="13.1683998"><ele>895.0</ele><time>2026-05-03T08:05:55.37Z</time></trkpt><trkpt lat="41.8282151" lon="13.1686678"><ele>895.3333333333333</ele><time>2026-05-03T08:05:56.371Z</time></trkpt><trkpt lat="41.8282217" lon="13.168948"><ele>895.6666666666667</ele><time>2026-05-03T08:05:57.372Z</time></trkpt><trkpt lat="41.8282391" lon="13.1692374"><ele>896.0</ele><time>2026-05-03T08:05:58.369Z</time></trkpt><trkpt lat="41.82825" lon="13.1695305"><ele>896.6666666666667</ele><time>2026-05-03T08:05:59.372Z</time></trkpt><trkpt lat="41.8282691" lon="13.16982"><ele>897.3333333333333</ele><time>2026-05-03T08:06:00.37Z</time></trkpt><trkpt lat="41.8282979" lon="13.1700859"><ele>898.0</ele><time>2026-05-03T08:06:01.37Z</time></trkpt><trkpt lat="41.8283365" lon="13.1703299"><ele>898.3333333333333</ele><time>2026-05-03T08:06:02.377Z</time></trkpt><trkpt lat="41.828394" lon="13.1705757"><ele>898.6666666666667</ele><time>2026-05-03T08:06:03.371Z</time></trkpt><trkpt lat="41.8284721" lon="13.1708027"><ele>899.0</ele><time>2026-05-03T08:06:04.371Z</time></trkpt><trkpt lat="41.8285559" lon="13.1709942"><ele>902.6666666666667</ele><time>2026-05-03T08:06:05.375Z</time></trkpt><trkpt lat="41.8286513" lon="13.1711496"><ele>906.3333333333333</ele><time>2026-05-03T08:06:06.369Z</time></trkpt><trkpt lat="41.8287763" lon="13.1712771"><ele>910.0</ele><time>2026-05-03T08:06:07.37Z</time></trkpt><trkpt lat="41.8289302" lon="13.1713925"><ele>910.0</ele><time>2026-05-03T08:06:08.371Z</time></trkpt><trkpt lat="41.8291052" lon="13.1714905"><ele>910.0</ele><time>2026-05-03T08:06:09.37Z</time></trkpt><trkpt lat="41.8292741" lon="13.1715879"><ele>910.0</ele><time>2026-05-03T08:06:10.37Z</time></trkpt><trkpt lat="41.8294239" lon="13.1716772"><ele>911.0</ele><time>2026-05-03T08:06:11.372Z</time></trkpt><trkpt lat="41.8295318" lon="13.1717515"><ele>912.0</ele><time>2026-05-03T08:06:12.37Z</time></trkpt><trkpt lat="41.8296467" lon="13.1718247"><ele>913.0</ele><time>2026-05-03T08:06:13.373Z</time></trkpt><trkpt lat="41.8296452" lon="13.1719587"><ele>914.0</ele><time>2026-05-03T08:06:14.37Z</time></trkpt><trkpt lat="41.829645" lon="13.1720701"><ele>915.0</ele><time>2026-05-03T08:06:15.369Z</time></trkpt><trkpt lat="41.8295943" lon="13.1721649"><ele>915.0</ele><time>2026-05-03T08:06:16.374Z</time></trkpt><trkpt lat="41.8295422" lon="13.1722447"><ele>915.0</ele><time>2026-05-03T08:06:17.372Z</time></trkpt><trkpt lat="41.8294198" lon="13.1722187"><ele>915.0</ele><time>2026-05-03T08:06:18.37Z</time></trkpt><trkpt lat="41.8293357" lon="13.1722462"><ele>915.0</ele><time>2026-05-03T08:06:19.372Z</time></trkpt><trkpt lat="41.8292631" lon="13.1723126"><ele>915.0</ele><time>2026-05-03T08:06:20.373Z</time></trkpt><trkpt lat="41.8292163" lon="13.1724223"><ele>913.25</ele><time>2026-05-03T08:06:21.373Z</time></trkpt><trkpt lat="41.8292052" lon="13.1725646"><ele>911.5</ele><time>2026-05-03T08:06:22.372Z</time></trkpt><trkpt lat="41.8292188" lon="13.1727425"><ele>909.75</ele><time>2026-05-03T08:06:23.37Z</time></trkpt><trkpt lat="41.8292568" lon="13.1729484"><ele>908.0</ele><time>2026-05-03T08:06:24.37Z</time></trkpt><trkpt lat="41.8293204" lon="13.1731999"><ele>915.5</ele><time>2026-05-03T08:06:25.371Z</time></trkpt><trkpt lat="41.8294097" lon="13.1734949"><ele>923.0</ele><time>2026-05-03T08:06:26.371Z</time></trkpt><trkpt lat="41.8295089" lon="13.1738004"><ele>925.3333333333334</ele><time>2026-05-03T08:06:27.37Z</time></trkpt><trkpt lat="41.8295913" lon="13.1740912"><ele>927.6666666666667</ele><time>2026-05-03T08:06:28.37Z</time></trkpt><trkpt lat="41.8296524" lon="13.17436"><ele>930.0</ele><time>2026-05-03T08:06:29.379Z</time></trkpt><trkpt lat="41.8297143" lon="13.1745991"><ele>930.0</ele><time>2026-05-03T08:06:30.373Z</time></trkpt><trkpt lat="41.8297905" lon="13.1748016"><ele>930.0</ele><time>2026-05-03T08:06:31.373Z</time></trkpt><trkpt lat="41.8298604" lon="13.1749736"><ele>930.0</ele><time>2026-05-03T08:06:32.373Z</time></trkpt><trkpt lat="41.8299038" lon="13.1751155"><ele>930.0</ele><time>2026-05-03T08:06:33.364Z</time></trkpt><trkpt lat="41.8299117" lon="13.1752292"><ele>930.2</ele><time>2026-05-03T08:06:34.369Z</time></trkpt><trkpt lat="41.8298747" lon="13.1753303"><ele>930.4</ele><time>2026-05-03T08:06:35.375Z</time></trkpt><trkpt lat="41.8297971" lon="13.1753952"><ele>930.5999999999999</ele><time>2026-05-03T08:06:36.377Z</time></trkpt><trkpt lat="41.8297059" lon="13.175417"><ele>930.8</ele><time>2026-05-03T08:06:37.38Z</time></trkpt><trkpt lat="41.8296171" lon="13.175456"><ele>931.0</ele><time>2026-05-03T08:06:38.38Z</time></trkpt><trkpt lat="41.8295298" lon="13.1755477"><ele>933.0</ele><time>2026-05-03T08:06:39.381Z</time></trkpt><trkpt lat="41.8294539" lon="13.1756877"><ele>935.0</ele><time>2026-05-03T08:06:40.368Z</time></trkpt><trkpt lat="41.8294015" lon="13.175868"><ele>937.0</ele><time>2026-05-03T08:06:41.375Z</time></trkpt><trkpt lat="41.8293802" lon="13.1760687"><ele>939.0</ele><time>2026-05-03T08:06:42.372Z</time></trkpt><trkpt lat="41.8293718" lon="13.1762809"><ele>939.0</ele><time>2026-05-03T08:06:43.371Z</time></trkpt><trkpt lat="41.829358" lon="13.1764683"><ele>939.0</ele><time>2026-05-03T08:06:44.37Z</time></trkpt><trkpt lat="41.8293374" lon="13.1766388"><ele>939.0</ele><time>2026-05-03T08:06:45.375Z</time></trkpt><trkpt lat="41.8293204" lon="13.1767874"><ele>939.0</ele><time>2026-05-03T08:06:46.371Z</time></trkpt><trkpt lat="41.8293013" lon="13.1769133"><ele>939.0</ele><time>2026-05-03T08:06:47.375Z</time></trkpt><trkpt lat="41.8292919" lon="13.1770404"><ele>939.0000000000001</ele><time>2026-05-03T08:06:48.373Z</time></trkpt><trkpt lat="41.829295" lon="13.177186"><ele>939.0000000000001</ele><time>2026-05-03T08:06:49.374Z</time></trkpt><trkpt lat="41.8293098" lon="13.177334"><ele>939.0</ele><time>2026-05-03T08:06:50.375Z</time></trkpt><trkpt lat="41.829336" lon="13.1774647"><ele>939.0</ele><time>2026-05-03T08:06:51.374Z</time></trkpt><trkpt lat="41.829369" lon="13.177608"><ele>940.5</ele><time>2026-05-03T08:06:52.377Z</time></trkpt><trkpt lat="41.8294165" lon="13.1777713"><ele>942.0</ele><time>2026-05-03T08:06:53.376Z</time></trkpt><trkpt lat="41.829481" lon="13.1779247"><ele>943.5</ele><time>2026-05-03T08:06:54.371Z</time></trkpt><trkpt lat="41.8295666" lon="13.1780617"><ele>945.0</ele><time>2026-05-03T08:06:55.375Z</time></trkpt><trkpt lat="41.8296848" lon="13.1781764"><ele>943.6666666666667</ele><time>2026-05-03T08:06:56.372Z</time></trkpt><trkpt lat="41.8298107" lon="13.1782863"><ele>942.3333333333334</ele><time>2026-05-03T08:06:57.467Z</time></trkpt><trkpt lat="41.8299303" lon="13.1784289"><ele>941.0</ele><time>2026-05-03T08:06:58.37Z</time></trkpt><trkpt lat="41.8300323" lon="13.1785689"><ele>941.0</ele><time>2026-05-03T08:06:59.37Z</time></trkpt><trkpt lat="41.8301407" lon="13.1787279"><ele>941.0</ele><time>2026-05-03T08:07:00.376Z</time></trkpt><trkpt lat="41.8302235" lon="13.1788594"><ele>941.0</ele><time>2026-05-03T08:07:01.366Z</time></trkpt><trkpt lat="41.8302823" lon="13.178994"><ele>941.0</ele><time>2026-05-03T08:07:02.37Z</time></trkpt><trkpt lat="41.8303283" lon="13.1791305"><ele>942.25</ele><time>2026-05-03T08:07:03.366Z</time></trkpt><trkpt lat="41.8303935" lon="13.1793084"><ele>943.5</ele><time>2026-05-03T08:07:04.365Z</time></trkpt><trkpt lat="41.8304626" lon="13.1794878"><ele>944.75</ele><time>2026-05-03T08:07:05.369Z</time></trkpt><trkpt lat="41.83052" lon="13.179647"><ele>946.0</ele><time>2026-05-03T08:07:06.371Z</time></trkpt><trkpt lat="41.8305758" lon="13.1797865"><ele>945.1999999999999</ele><time>2026-05-03T08:07:07.371Z</time></trkpt><trkpt lat="41.8306289" lon="13.179909"><ele>944.3999999999999</ele><time>2026-05-03T08:07:08.382Z</time></trkpt><trkpt lat="41.8306821" lon="13.1800276"><ele>943.6</ele><time>2026-05-03T08:07:09.374Z</time></trkpt><trkpt lat="41.8307347" lon="13.1801441"><ele>942.8</ele><time>2026-05-03T08:07:10.374Z</time></trkpt><trkpt lat="41.8307834" lon="13.1802545"><ele>942.0</ele><time>2026-05-03T08:07:11.37Z</time></trkpt><trkpt lat="41.8308482" lon="13.1803531"><ele>942.0</ele><time>2026-05-03T08:07:12.371Z</time></trkpt><trkpt lat="41.8309299" lon="13.1804251"><ele>942.0</ele><time>2026-05-03T08:07:13.374Z</time></trkpt><trkpt lat="41.8310158" lon="13.1804648"><ele>942.0</ele><time>2026-05-03T08:07:14.371Z</time></trkpt><trkpt lat="41.8311084" lon="13.1805057"><ele>942.0</ele><time>2026-05-03T08:07:15.373Z</time></trkpt><trkpt lat="41.8312072" lon="13.1805501"><ele>942.0</ele><time>2026-05-03T08:07:16.373Z</time></trkpt><trkpt lat="41.8313086" lon="13.1805928"><ele>942.0</ele><time>2026-05-03T08:07:17.374Z</time></trkpt><trkpt lat="41.8314053" lon="13.1806404"><ele>942.0</ele><time>2026-05-03T08:07:18.374Z</time></trkpt><trkpt lat="41.8315018" lon="13.1807098"><ele>942.0</ele><time>2026-05-03T08:07:19.37Z</time></trkpt><trkpt lat="41.8315933" lon="13.180797"><ele>942.0</ele><time>2026-05-03T08:07:20.378Z</time></trkpt><trkpt lat="41.8316723" lon="13.1808856"><ele>942.0</ele><time>2026-05-03T08:07:21.376Z</time></trkpt><trkpt lat="41.8317531" lon="13.1809631"><ele>941.8</ele><time>2026-05-03T08:07:22.37Z</time></trkpt><trkpt lat="41.8318483" lon="13.181014"><ele>941.6</ele><time>2026-05-03T08:07:23.378Z</time></trkpt><trkpt lat="41.8319526" lon="13.1810487"><ele>941.3999999999999</ele><time>2026-05-03T08:07:24.371Z</time></trkpt><trkpt lat="41.8320672" lon="13.1810643"><ele>941.1999999999999</ele><time>2026-05-03T08:07:25.37Z</time></trkpt><trkpt lat="41.8321884" lon="13.1810725"><ele>941.0</ele><time>2026-05-03T08:07:26.375Z</time></trkpt><trkpt lat="41.8323082" lon="13.1810573"><ele>941.0</ele><time>2026-05-03T08:07:27.373Z</time></trkpt><trkpt lat="41.8324636" lon="13.1810044"><ele>941.0</ele><time>2026-05-03T08:07:28.372Z</time></trkpt><trkpt lat="41.8326517" lon="13.1809305"><ele>941.0</ele><time>2026-05-03T08:07:29.374Z</time></trkpt><trkpt lat="41.8328269" lon="13.1808738"><ele>939.3333333333334</ele><time>2026-05-03T08:07:30.37Z</time></trkpt><trkpt lat="41.8330086" lon="13.1808432"><ele>937.6666666666667</ele><time>2026-05-03T08:07:31.377Z</time></trkpt><trkpt lat="41.8331687" lon="13.1808293"><ele>936.0</ele><time>2026-05-03T08:07:32.373Z</time></trkpt><trkpt lat="41.8333195" lon="13.1808572"><ele>936.0</ele><time>2026-05-03T08:07:33.374Z</time></trkpt><trkpt lat="41.8334697" lon="13.180911"><ele>936.0</ele><time>2026-05-03T08:07:34.369Z</time></trkpt><trkpt lat="41.8336042" lon="13.1809781"><ele>936.0</ele><time>2026-05-03T08:07:35.37Z</time></trkpt><trkpt lat="41.8337209" lon="13.1809969"><ele>936.0</ele><time>2026-05-03T08:07:36.372Z</time></trkpt><trkpt lat="41.8338281" lon="13.1809717"><ele>935.5</ele><time>2026-05-03T08:07:37.371Z</time></trkpt><trkpt lat="41.8339358" lon="13.1808888"><ele>935.0</ele><time>2026-05-03T08:07:38.373Z</time></trkpt><trkpt lat="41.8340334" lon="13.1807543"><ele>934.5</ele><time>2026-05-03T08:07:39.368Z</time></trkpt><trkpt lat="41.8341377" lon="13.1805949"><ele>934.0</ele><time>2026-05-03T08:07:40.366Z</time></trkpt><trkpt lat="41.8342582" lon="13.1804412"><ele>932.75</ele><time>2026-05-03T08:07:41.371Z</time></trkpt><trkpt lat="41.8343641" lon="13.1803045"><ele>931.5</ele><time>2026-05-03T08:07:42.372Z</time></trkpt><trkpt lat="41.8344479" lon="13.180151"><ele>930.25</ele><time>2026-05-03T08:07:43.366Z</time></trkpt><trkpt lat="41.8345159" lon="13.1799705"><ele>929.0</ele><time>2026-05-03T08:07:44.367Z</time></trkpt><trkpt lat="41.8345661" lon="13.1797909"><ele>929.0</ele><time>2026-05-03T08:07:45.367Z</time></trkpt><trkpt lat="41.8346318" lon="13.1796508"><ele>929.0</ele><time>2026-05-03T08:07:46.366Z</time></trkpt><trkpt lat="41.8347222" lon="13.1795547"><ele>929.0</ele><time>2026-05-03T08:07:47.364Z</time></trkpt><trkpt lat="41.8348299" lon="13.1795004"><ele>929.0</ele><time>2026-05-03T08:07:48.365Z</time></trkpt><trkpt lat="41.8349514" lon="13.1794983"><ele>929.0</ele><time>2026-05-03T08:07:49.366Z</time></trkpt><trkpt lat="41.8350852" lon="13.1795321"><ele>929.0</ele><time>2026-05-03T08:07:50.365Z</time></trkpt><trkpt lat="41.8352304" lon="13.1795695"><ele>929.0</ele><time>2026-05-03T08:07:51.372Z</time></trkpt><trkpt lat="41.8353622" lon="13.1796069"><ele>929.0</ele><time>2026-05-03T08:07:52.366Z</time></trkpt><trkpt lat="41.8354984" lon="13.1796353"><ele>928.25</ele><time>2026-05-03T08:07:53.366Z</time></trkpt><trkpt lat="41.835621" lon="13.1796951"><ele>927.5</ele><time>2026-05-03T08:07:54.367Z</time></trkpt><trkpt lat="41.8357368" lon="13.1797641"><ele>926.75</ele><time>2026-05-03T08:07:55.367Z</time></trkpt><trkpt lat="41.8358553" lon="13.1798479"><ele>926.0</ele><time>2026-05-03T08:07:56.367Z</time></trkpt><trkpt lat="41.835988" lon="13.1799271"><ele>926.0</ele><time>2026-05-03T08:07:57.368Z</time></trkpt><trkpt lat="41.8361221" lon="13.1799907"><ele>926.0</ele><time>2026-05-03T08:07:58.368Z</time></trkpt><trkpt lat="41.8362429" lon="13.1800426"><ele>926.0</ele><time>2026-05-03T08:07:59.372Z</time></trkpt><trkpt lat="41.8363438" lon="13.1800931"><ele>926.0</ele><time>2026-05-03T08:08:00.371Z</time></trkpt><trkpt lat="41.836444" lon="13.1801298"><ele>926.0</ele><time>2026-05-03T08:08:01.366Z</time></trkpt><trkpt lat="41.8365493" lon="13.1801397"><ele>926.0</ele><time>2026-05-03T08:08:02.366Z</time></trkpt><trkpt lat="41.8366659" lon="13.1801315"><ele>926.0</ele><time>2026-05-03T08:08:03.368Z</time></trkpt><trkpt lat="41.8367804" lon="13.1801228"><ele>926.0</ele><time>2026-05-03T08:08:04.372Z</time></trkpt><trkpt lat="41.8369029" lon="13.1801067"><ele>924.0</ele><time>2026-05-03T08:08:05.372Z</time></trkpt><trkpt lat="41.8370299" lon="13.1800815"><ele>922.0</ele><time>2026-05-03T08:08:06.37Z</time></trkpt><trkpt lat="41.8371521" lon="13.1800487"><ele>920.0</ele><time>2026-05-03T08:08:07.374Z</time></trkpt><trkpt lat="41.8372745" lon="13.1799943"><ele>918.0</ele><time>2026-05-03T08:08:08.369Z</time></trkpt><trkpt lat="41.8373854" lon="13.1799173"><ele>919.25</ele><time>2026-05-03T08:08:09.375Z</time></trkpt><trkpt lat="41.8374876" lon="13.1798147"><ele>920.5</ele><time>2026-05-03T08:08:10.377Z</time></trkpt><trkpt lat="41.8375842" lon="13.1796978"><ele>921.75</ele><time>2026-05-03T08:08:11.38Z</time></trkpt><trkpt lat="41.837673" lon="13.179565"><ele>923.0</ele><time>2026-05-03T08:08:12.379Z</time></trkpt><trkpt lat="41.8377505" lon="13.1794215"><ele>920.25</ele><time>2026-05-03T08:08:13.371Z</time></trkpt><trkpt lat="41.8378319" lon="13.1792712"><ele>917.5</ele><time>2026-05-03T08:08:14.371Z</time></trkpt><trkpt lat="41.8379098" lon="13.1791241"><ele>914.75</ele><time>2026-05-03T08:08:15.373Z</time></trkpt><trkpt lat="41.8380149" lon="13.1789902"><ele>912.0</ele><time>2026-05-03T08:08:16.37Z</time></trkpt><trkpt lat="41.8381426" lon="13.178867"><ele>912.0</ele><time>2026-05-03T08:08:17.373Z</time></trkpt><trkpt lat="41.8382871" lon="13.1787518"><ele>912.0</ele><time>2026-05-03T08:08:18.375Z</time></trkpt><trkpt lat="41.8384326" lon="13.1786277"><ele>912.0</ele><time>2026-05-03T08:08:19.371Z</time></trkpt><trkpt lat="41.8385797" lon="13.1785068"><ele>907.6666666666667</ele><time>2026-05-03T08:08:20.375Z</time></trkpt><trkpt lat="41.8387206" lon="13.1784009"><ele>903.3333333333334</ele><time>2026-05-03T08:08:21.37Z</time></trkpt><trkpt lat="41.8388483" lon="13.1783001"><ele>899.0</ele><time>2026-05-03T08:08:22.371Z</time></trkpt><trkpt lat="41.8389661" lon="13.1781943"><ele>899.75</ele><time>2026-05-03T08:08:23.373Z</time></trkpt><trkpt lat="41.8390758" lon="13.1781048"><ele>900.5</ele><time>2026-05-03T08:08:24.372Z</time></trkpt><trkpt lat="41.8392018" lon="13.1780316"><ele>901.25</ele><time>2026-05-03T08:08:25.372Z</time></trkpt><trkpt lat="41.8393302" lon="13.1779865"><ele>902.0</ele><time>2026-05-03T08:08:26.379Z</time></trkpt><trkpt lat="41.8394798" lon="13.1779662"><ele>897.6666666666667</ele><time>2026-05-03T08:08:27.378Z</time></trkpt><trkpt lat="41.8396423" lon="13.177965"><ele>893.3333333333333</ele><time>2026-05-03T08:08:28.369Z</time></trkpt><trkpt lat="41.8398127" lon="13.1779655"><ele>889.0</ele><time>2026-05-03T08:08:29.371Z</time></trkpt><trkpt lat="41.8399821" lon="13.177939"><ele>884.6666666666666</ele><time>2026-05-03T08:08:30.378Z</time></trkpt><trkpt lat="41.8401422" lon="13.1779063"><ele>880.3333333333333</ele><time>2026-05-03T08:08:31.371Z</time></trkpt><trkpt lat="41.8402938" lon="13.1778877"><ele>876.0</ele><time>2026-05-03T08:08:32.38Z</time></trkpt><trkpt lat="41.8404376" lon="13.177894"><ele>876.0</ele><time>2026-05-03T08:08:33.374Z</time></trkpt><trkpt lat="41.8405926" lon="13.1779214"><ele>876.0</ele><time>2026-05-03T08:08:34.372Z</time></trkpt><trkpt lat="41.8407404" lon="13.1779702"><ele>876.0</ele><time>2026-05-03T08:08:35.381Z</time></trkpt><trkpt lat="41.8408741" lon="13.1780346"><ele>876.25</ele><time>2026-05-03T08:08:36.382Z</time></trkpt><trkpt lat="41.8410046" lon="13.1781133"><ele>876.5</ele><time>2026-05-03T08:08:37.38Z</time></trkpt><trkpt lat="41.8411161" lon="13.1782123"><ele>876.75</ele><time>2026-05-03T08:08:38.376Z</time></trkpt><trkpt lat="41.8412259" lon="13.1783158"><ele>877.0</ele><time>2026-05-03T08:08:39.374Z</time></trkpt><trkpt lat="41.8413277" lon="13.1784138"><ele>877.0</ele><time>2026-05-03T08:08:40.379Z</time></trkpt><trkpt lat="41.841422" lon="13.1785187"><ele>877.0</ele><time>2026-05-03T08:08:41.374Z</time></trkpt><trkpt lat="41.841509" lon="13.178628"><ele>877.0</ele><time>2026-05-03T08:08:42.379Z</time></trkpt><trkpt lat="41.8415969" lon="13.178744"><ele>877.0</ele><time>2026-05-03T08:08:43.372Z</time></trkpt><trkpt lat="41.841683" lon="13.1788861"><ele>876.75</ele><time>2026-05-03T08:08:44.375Z</time></trkpt><trkpt lat="41.8417576" lon="13.1790508"><ele>876.5</ele><time>2026-05-03T08:08:45.38Z</time></trkpt><trkpt lat="41.8418151" lon="13.1792167"><ele>876.25</ele><time>2026-05-03T08:08:46.374Z</time></trkpt><trkpt lat="41.8418979" lon="13.1793722"><ele>876.0</ele><time>2026-05-03T08:08:47.375Z</time></trkpt><trkpt lat="41.8419927" lon="13.1795067"><ele>875.25</ele><time>2026-05-03T08:08:48.384Z</time></trkpt><trkpt lat="41.8420879" lon="13.1796387"><ele>874.5</ele><time>2026-05-03T08:08:49.365Z</time></trkpt><trkpt lat="41.8421772" lon="13.1797842"><ele>873.75</ele><time>2026-05-03T08:08:50.371Z</time></trkpt><trkpt lat="41.8422526" lon="13.1799642"><ele>873.0</ele><time>2026-05-03T08:08:51.373Z</time></trkpt><trkpt lat="41.8423363" lon="13.1801632"><ele>872.0</ele><time>2026-05-03T08:08:52.383Z</time></trkpt><trkpt lat="41.8424115" lon="13.1803635"><ele>871.0</ele><time>2026-05-03T08:08:53.376Z</time></trkpt><trkpt lat="41.8424957" lon="13.1806085"><ele>870.0</ele><time>2026-05-03T08:08:54.372Z</time></trkpt><trkpt lat="41.8425717" lon="13.1808944"><ele>870.3333333333333</ele><time>2026-05-03T08:08:55.38Z</time></trkpt><trkpt lat="41.8426374" lon="13.1811746"><ele>870.6666666666666</ele><time>2026-05-03T08:08:56.382Z</time></trkpt><trkpt lat="41.84269" lon="13.1814401"><ele>871.0</ele><time>2026-05-03T08:08:57.382Z</time></trkpt><trkpt lat="41.8427345" lon="13.1817003"><ele>871.0</ele><time>2026-05-03T08:08:58.382Z</time></trkpt><trkpt lat="41.8427632" lon="13.1819678"><ele>871.0</ele><time>2026-05-03T08:08:59.38Z</time></trkpt><trkpt lat="41.8427917" lon="13.1822197"><ele>871.0</ele><time>2026-05-03T08:09:00.371Z</time></trkpt><trkpt lat="41.8428353" lon="13.1824477"><ele>870.3333333333333</ele><time>2026-05-03T08:09:01.374Z</time></trkpt><trkpt lat="41.8428839" lon="13.1826444"><ele>869.6666666666667</ele><time>2026-05-03T08:09:02.369Z</time></trkpt><trkpt lat="41.8429746" lon="13.1828362"><ele>869.0</ele><time>2026-05-03T08:09:03.374Z</time></trkpt><trkpt lat="41.8430663" lon="13.1830089"><ele>867.0</ele><time>2026-05-03T08:09:04.382Z</time></trkpt><trkpt lat="41.8431417" lon="13.1831932"><ele>865.0</ele><time>2026-05-03T08:09:05.377Z</time></trkpt><trkpt lat="41.8431942" lon="13.1834119"><ele>863.0</ele><time>2026-05-03T08:09:06.382Z</time></trkpt><trkpt lat="41.8432341" lon="13.1836111"><ele>863.0</ele><time>2026-05-03T08:09:07.381Z</time></trkpt><trkpt lat="41.8432962" lon="13.183801"><ele>863.0</ele><time>2026-05-03T08:09:08.378Z</time></trkpt><trkpt lat="41.8434005" lon="13.1840075"><ele>863.0</ele><time>2026-05-03T08:09:09.375Z</time></trkpt><trkpt lat="41.843533" lon="13.1842209"><ele>858.5</ele><time>2026-05-03T08:09:10.374Z</time></trkpt><trkpt lat="41.8436976" lon="13.1844643"><ele>854.0</ele><time>2026-05-03T08:09:11.372Z</time></trkpt><trkpt lat="41.8438531" lon="13.1846957"><ele>854.6666666666667</ele><time>2026-05-03T08:09:12.38Z</time></trkpt><trkpt lat="41.8439932" lon="13.1849056"><ele>855.3333333333333</ele><time>2026-05-03T08:09:13.38Z</time></trkpt><trkpt lat="41.8441156" lon="13.1850786"><ele>856.0</ele><time>2026-05-03T08:09:14.378Z</time></trkpt><trkpt lat="41.8442075" lon="13.1852283"><ele>856.0</ele><time>2026-05-03T08:09:15.369Z</time></trkpt><trkpt lat="41.844277" lon="13.1853818"><ele>856.0</ele><time>2026-05-03T08:09:16.367Z</time></trkpt><trkpt lat="41.8443117" lon="13.1855461"><ele>856.0</ele><time>2026-05-03T08:09:17.367Z</time></trkpt><trkpt lat="41.8443149" lon="13.1857254"><ele>856.0</ele><time>2026-05-03T08:09:18.373Z</time></trkpt><trkpt lat="41.8442779" lon="13.1859405"><ele>855.75</ele><time>2026-05-03T08:09:19.369Z</time></trkpt><trkpt lat="41.8442429" lon="13.1861358"><ele>855.5</ele><time>2026-05-03T08:09:20.374Z</time></trkpt><trkpt lat="41.8442258" lon="13.1863126"><ele>855.25</ele><time>2026-05-03T08:09:21.383Z</time></trkpt><trkpt lat="41.8442401" lon="13.1864679"><ele>855.0</ele><time>2026-05-03T08:09:22.373Z</time></trkpt><trkpt lat="41.8442959" lon="13.1866053"><ele>853.6</ele><time>2026-05-03T08:09:23.371Z</time></trkpt><trkpt lat="41.8443877" lon="13.1867138"><ele>852.2</ele><time>2026-05-03T08:09:24.372Z</time></trkpt><trkpt lat="41.8444852" lon="13.1867712"><ele>850.8</ele><time>2026-05-03T08:09:25.374Z</time></trkpt><trkpt lat="41.8445834" lon="13.1867712"><ele>849.4</ele><time>2026-05-03T08:09:26.374Z</time></trkpt><trkpt lat="41.8446774" lon="13.186718"><ele>848.0</ele><time>2026-05-03T08:09:27.371Z</time></trkpt><trkpt lat="41.844775" lon="13.1865954"><ele>848.6666666666667</ele><time>2026-05-03T08:09:28.37Z</time></trkpt><trkpt lat="41.8448598" lon="13.1864468"><ele>849.3333333333333</ele><time>2026-05-03T08:09:29.379Z</time></trkpt><trkpt lat="41.8449777" lon="13.1862669"><ele>850.0</ele><time>2026-05-03T08:09:30.372Z</time></trkpt><trkpt lat="41.8451165" lon="13.1860683"><ele>849.6666666666666</ele><time>2026-05-03T08:09:31.382Z</time></trkpt><trkpt lat="41.8452575" lon="13.1858924"><ele>849.3333333333333</ele><time>2026-05-03T08:09:32.37Z</time></trkpt><trkpt lat="41.8453866" lon="13.1857305"><ele>849.0</ele><time>2026-05-03T08:09:33.382Z</time></trkpt><trkpt lat="41.8455112" lon="13.185596"><ele>849.25</ele><time>2026-05-03T08:09:34.373Z</time></trkpt><trkpt lat="41.845646" lon="13.1855021"><ele>849.5</ele><time>2026-05-03T08:09:35.379Z</time></trkpt><trkpt lat="41.8457831" lon="13.1854411"><ele>849.75</ele><time>2026-05-03T08:09:36.371Z</time></trkpt><trkpt lat="41.8459338" lon="13.1854218"><ele>850.0</ele><time>2026-05-03T08:09:37.383Z</time></trkpt><trkpt lat="41.8460651" lon="13.1854142"><ele>850.0</ele><time>2026-05-03T08:09:38.379Z</time></trkpt><trkpt lat="41.8461849" lon="13.1854623"><ele>850.0</ele><time>2026-05-03T08:09:39.379Z</time></trkpt><trkpt lat="41.8463094" lon="13.1855444"><ele>850.0</ele><time>2026-05-03T08:09:40.372Z</time></trkpt><trkpt lat="41.8464333" lon="13.1856706"><ele>850.0</ele><time>2026-05-03T08:09:41.375Z</time></trkpt><trkpt lat="41.8465799" lon="13.1858478"><ele>850.5</ele><time>2026-05-03T08:09:42.374Z</time></trkpt><trkpt lat="41.8467618" lon="13.1860604"><ele>851.0</ele><time>2026-05-03T08:09:43.372Z</time></trkpt><trkpt lat="41.8469824" lon="13.1863266"><ele>851.5</ele><time>2026-05-03T08:09:44.372Z</time></trkpt><trkpt lat="41.8472221" lon="13.1866233"><ele>852.0</ele><time>2026-05-03T08:09:45.381Z</time></trkpt><trkpt lat="41.8474623" lon="13.1869177"><ele>849.5</ele><time>2026-05-03T08:09:46.374Z</time></trkpt><trkpt lat="41.8476651" lon="13.1871582"><ele>847.0</ele><time>2026-05-03T08:09:47.379Z</time></trkpt><trkpt lat="41.8478438" lon="13.1873927"><ele>847.0</ele><time>2026-05-03T08:09:48.375Z</time></trkpt><trkpt lat="41.848004" lon="13.1876038"><ele>847.0</ele><time>2026-05-03T08:09:49.373Z</time></trkpt><trkpt lat="41.8481346" lon="13.1878124"><ele>847.0</ele><time>2026-05-03T08:09:50.374Z</time></trkpt><trkpt lat="41.8482337" lon="13.188016"><ele>847.3333333333333</ele><time>2026-05-03T08:09:51.38Z</time></trkpt><trkpt lat="41.848335" lon="13.1882473"><ele>847.6666666666667</ele><time>2026-05-03T08:09:52.38Z</time></trkpt><trkpt lat="41.848436" lon="13.1884772"><ele>848.0</ele><time>2026-05-03T08:09:53.372Z</time></trkpt><trkpt lat="41.8485248" lon="13.1886857"><ele>847.3333333333334</ele><time>2026-05-03T08:09:54.375Z</time></trkpt><trkpt lat="41.8486307" lon="13.1888735"><ele>846.6666666666667</ele><time>2026-05-03T08:09:55.371Z</time></trkpt><trkpt lat="41.8487522" lon="13.1890293"><ele>846.0</ele><time>2026-05-03T08:09:56.368Z</time></trkpt><trkpt lat="41.8488889" lon="13.1891547"><ele>846.0</ele><time>2026-05-03T08:09:57.375Z</time></trkpt><trkpt lat="41.849029" lon="13.1892781"><ele>846.0</ele><time>2026-05-03T08:09:58.373Z</time></trkpt><trkpt lat="41.8491426" lon="13.1894196"><ele>846.0</ele><time>2026-05-03T08:09:59.38Z</time></trkpt><trkpt lat="41.8492618" lon="13.1895891"><ele>846.25</ele><time>2026-05-03T08:10:00.374Z</time></trkpt><trkpt lat="41.8493664" lon="13.189736"><ele>846.5</ele><time>2026-05-03T08:10:01.382Z</time></trkpt><trkpt lat="41.8494632" lon="13.1898718"><ele>846.75</ele><time>2026-05-03T08:10:02.372Z</time></trkpt><trkpt lat="41.8495503" lon="13.1899937"><ele>847.0</ele><time>2026-05-03T08:10:03.375Z</time></trkpt><trkpt lat="41.8496234" lon="13.1901066"><ele>846.9999999999999</ele><time>2026-05-03T08:10:04.371Z</time></trkpt><trkpt lat="41.8496806" lon="13.1902136"><ele>847.0</ele><time>2026-05-03T08:10:05.38Z</time></trkpt><trkpt lat="41.8497152" lon="13.1903115"><ele>847.0</ele><time>2026-05-03T08:10:06.376Z</time></trkpt><trkpt lat="41.849725" lon="13.1904076"><ele>847.0</ele><time>2026-05-03T08:10:07.456Z</time></trkpt><trkpt lat="41.8497194" lon="13.190529"><ele>846.9999999999999</ele><time>2026-05-03T08:10:08.377Z</time></trkpt><trkpt lat="41.8496994" lon="13.1906647"><ele>847.0</ele><time>2026-05-03T08:10:09.371Z</time></trkpt><trkpt lat="41.8496791" lon="13.1908241"><ele>846.5</ele><time>2026-05-03T08:10:10.379Z</time></trkpt><trkpt lat="41.8496579" lon="13.1909918"><ele>846.0</ele><time>2026-05-03T08:10:11.373Z</time></trkpt><trkpt lat="41.8496342" lon="13.1911593"><ele>845.5</ele><time>2026-05-03T08:10:12.377Z</time></trkpt><trkpt lat="41.8496105" lon="13.1913268"><ele>845.0</ele><time>2026-05-03T08:10:13.379Z</time></trkpt><trkpt lat="41.8495839" lon="13.1914926"><ele>845.6</ele><time>2026-05-03T08:10:14.373Z</time></trkpt><trkpt lat="41.8495629" lon="13.1916487"><ele>846.2</ele><time>2026-05-03T08:10:15.375Z</time></trkpt><trkpt lat="41.8495441" lon="13.1917916"><ele>846.8</ele><time>2026-05-03T08:10:16.369Z</time></trkpt><trkpt lat="41.8495257" lon="13.1919214"><ele>847.4</ele><time>2026-05-03T08:10:17.369Z</time></trkpt><trkpt lat="41.8495101" lon="13.1920364"><ele>848.0</ele><time>2026-05-03T08:10:18.379Z</time></trkpt><trkpt lat="41.8494968" lon="13.1921468"><ele>848.0000000000001</ele><time>2026-05-03T08:10:19.379Z</time></trkpt><trkpt lat="41.8494788" lon="13.1922448"><ele>848.0</ele><time>2026-05-03T08:10:20.373Z</time></trkpt><trkpt lat="41.8494654" lon="13.1923429"><ele>848.0</ele><time>2026-05-03T08:10:21.381Z</time></trkpt><trkpt lat="41.8494541" lon="13.1924339"><ele>848.0</ele><time>2026-05-03T08:10:22.37Z</time></trkpt><trkpt lat="41.8494406" lon="13.1925194"><ele>848.0000000000001</ele><time>2026-05-03T08:10:23.373Z</time></trkpt><trkpt lat="41.8494148" lon="13.1926794"><ele>848.0</ele><time>2026-05-03T08:10:25.372Z</time></trkpt><trkpt lat="41.8493886" lon="13.1928334"><ele>848.0000000000001</ele><time>2026-05-03T08:10:27.378Z</time></trkpt><trkpt lat="41.8493508" lon="13.1929334"><ele>848.0</ele><time>2026-05-03T08:10:28.38Z</time></trkpt><trkpt lat="41.8492937" lon="13.1930165"><ele>848.0</ele><time>2026-05-03T08:10:29.368Z</time></trkpt><trkpt lat="41.8492348" lon="13.1930805"><ele>848.0</ele><time>2026-05-03T08:10:30.373Z</time></trkpt><trkpt lat="41.8491701" lon="13.193122"><ele>848.0000000000001</ele><time>2026-05-03T08:10:31.374Z</time></trkpt><trkpt lat="41.8491018" lon="13.1931544"><ele>848.0</ele><time>2026-05-03T08:10:32.373Z</time></trkpt><trkpt lat="41.8490365" lon="13.1931715"><ele>847.6666666666667</ele><time>2026-05-03T08:10:33.382Z</time></trkpt><trkpt lat="41.848914" lon="13.1931935"><ele>847.3333333333334</ele><time>2026-05-03T08:10:35.37Z</time></trkpt><trkpt lat="41.8488506" lon="13.1932022"><ele>847.0</ele><time>2026-05-03T08:10:36.372Z</time></trkpt><trkpt lat="41.8487879" lon="13.1932112"><ele>846.6666666666667</ele><time>2026-05-03T08:10:37.382Z</time></trkpt><trkpt lat="41.8487214" lon="13.1932251"><ele>846.3333333333334</ele><time>2026-05-03T08:10:38.377Z</time></trkpt><trkpt lat="41.8486507" lon="13.1932322"><ele>846.0</ele><time>2026-05-03T08:10:39.381Z</time></trkpt><trkpt lat="41.8485765" lon="13.1932387"><ele>846.0</ele><time>2026-05-03T08:10:40.383Z</time></trkpt><trkpt lat="41.848496" lon="13.1932461"><ele>846.0</ele><time>2026-05-03T08:10:41.38Z</time></trkpt><trkpt lat="41.8484108" lon="13.1932655"><ele>846.0</ele><time>2026-05-03T08:10:42.384Z</time></trkpt><trkpt lat="41.8483267" lon="13.1932853"><ele>846.0</ele><time>2026-05-03T08:10:43.383Z</time></trkpt><trkpt lat="41.8482559" lon="13.1933146"><ele>846.0</ele><time>2026-05-03T08:10:44.37Z</time></trkpt><trkpt lat="41.8481667" lon="13.1934164"><ele>846.0</ele><time>2026-05-03T08:10:46.372Z</time></trkpt><trkpt lat="41.8481263" lon="13.1935307"><ele>850.0</ele><time>2026-05-03T08:10:48.369Z</time></trkpt><trkpt lat="41.8480934" lon="13.1936158"><ele>850.0</ele><time>2026-05-03T08:10:50.371Z</time></trkpt><trkpt lat="41.8480576" lon="13.1937085"><ele>850.0</ele><time>2026-05-03T08:10:53.38Z</time></trkpt><trkpt lat="41.8480206" lon="13.1938057"><ele>850.0</ele><time>2026-05-03T08:10:57.372Z</time></trkpt><trkpt lat="41.8479686" lon="13.1938652"><ele>850.0</ele><time>2026-05-03T08:11:01.378Z</time></trkpt><trkpt lat="41.8479305" lon="13.1939412"><ele>850.0</ele><time>2026-05-03T08:11:14.372Z</time></trkpt><trkpt lat="41.8479298" lon="13.1940403"><ele>849.0</ele><time>2026-05-03T08:11:17.382Z</time></trkpt></trkseg><trkseg><trkpt lat="41.8478384" lon="13.194156"><ele>849.0</ele><time>2026-05-03T08:49:52.375Z</time></trkpt><trkpt lat="41.8477642" lon="13.194301"><ele>849.0</ele><time>2026-05-03T08:49:54.377Z</time></trkpt><trkpt lat="41.8477277" lon="13.1943753"><ele>849.0</ele><time>2026-05-03T08:49:55.376Z</time></trkpt><trkpt lat="41.8476638" lon="13.1945044"><ele>849.0</ele><time>2026-05-03T08:49:57.384Z</time></trkpt><trkpt lat="41.84761" lon="13.1945895"><ele>849.0</ele><time>2026-05-03T08:49:59.385Z</time></trkpt><trkpt lat="41.847561" lon="13.1946652"><ele>849.6666666666666</ele><time>2026-05-03T08:50:02.376Z</time></trkpt><trkpt lat="41.8475092" lon="13.19472"><ele>850.3333333333333</ele><time>2026-05-03T08:50:06.378Z</time></trkpt><trkpt lat="41.8474705" lon="13.194789"><ele>851.0</ele><time>2026-05-03T08:50:08.386Z</time></trkpt><trkpt lat="41.8474233" lon="13.1949285"><ele>851.6666666666666</ele><time>2026-05-03T08:50:10.385Z</time></trkpt><trkpt lat="41.8473832" lon="13.1950162"><ele>852.3333333333333</ele><time>2026-05-03T08:50:11.384Z</time></trkpt><trkpt lat="41.8473418" lon="13.1951013"><ele>853.0</ele><time>2026-05-03T08:50:12.377Z</time></trkpt><trkpt lat="41.8472989" lon="13.1951866"><ele>852.9999999999999</ele><time>2026-05-03T08:50:13.376Z</time></trkpt><trkpt lat="41.8472552" lon="13.195279"><ele>853.0</ele><time>2026-05-03T08:50:14.379Z</time></trkpt><trkpt lat="41.8472105" lon="13.1953764"><ele>853.0</ele><time>2026-05-03T08:50:15.374Z</time></trkpt><trkpt lat="41.8471597" lon="13.1954726"><ele>853.0</ele><time>2026-05-03T08:50:16.385Z</time></trkpt><trkpt lat="41.8471099" lon="13.1955727"><ele>852.9999999999999</ele><time>2026-05-03T08:50:17.381Z</time></trkpt><trkpt lat="41.8470554" lon="13.1956777"><ele>853.0</ele><time>2026-05-03T08:50:18.385Z</time></trkpt><trkpt lat="41.8469997" lon="13.1957863"><ele>852.5999999999999</ele><time>2026-05-03T08:50:19.391Z</time></trkpt><trkpt lat="41.8469518" lon="13.1959012"><ele>852.1999999999999</ele><time>2026-05-03T08:50:20.389Z</time></trkpt><trkpt lat="41.8469188" lon="13.1960289"><ele>851.8</ele><time>2026-05-03T08:50:21.377Z</time></trkpt><trkpt lat="41.8468944" lon="13.1961866"><ele>851.4</ele><time>2026-05-03T08:50:22.375Z</time></trkpt><trkpt lat="41.8468669" lon="13.1963475"><ele>851.0</ele><time>2026-05-03T08:50:23.374Z</time></trkpt><trkpt lat="41.8468444" lon="13.196486"><ele>851.0</ele><time>2026-05-03T08:50:24.383Z</time></trkpt><trkpt lat="41.8468246" lon="13.1966457"><ele>851.0</ele><time>2026-05-03T08:50:25.382Z</time></trkpt><trkpt lat="41.8468034" lon="13.19681"><ele>851.0</ele><time>2026-05-03T08:50:26.385Z</time></trkpt><trkpt lat="41.846773" lon="13.1970148"><ele>851.0</ele><time>2026-05-03T08:50:27.39Z</time></trkpt><trkpt lat="41.8467411" lon="13.1972507"><ele>854.6666666666667</ele><time>2026-05-03T08:50:28.384Z</time></trkpt><trkpt lat="41.8467059" lon="13.1975203"><ele>858.3333333333333</ele><time>2026-05-03T08:50:29.379Z</time></trkpt><trkpt lat="41.8466676" lon="13.1977851"><ele>862.0</ele><time>2026-05-03T08:50:30.379Z</time></trkpt><trkpt lat="41.8466305" lon="13.1980486"><ele>861.6666666666666</ele><time>2026-05-03T08:50:31.383Z</time></trkpt><trkpt lat="41.8465941" lon="13.1983094"><ele>861.3333333333333</ele><time>2026-05-03T08:50:32.376Z</time></trkpt><trkpt lat="41.8465591" lon="13.1985698"><ele>861.0</ele><time>2026-05-03T08:50:33.375Z</time></trkpt><trkpt lat="41.8465254" lon="13.1988246"><ele>861.3333333333333</ele><time>2026-05-03T08:50:34.387Z</time></trkpt><trkpt lat="41.8464867" lon="13.1990696"><ele>861.6666666666666</ele><time>2026-05-03T08:50:35.378Z</time></trkpt><trkpt lat="41.8464543" lon="13.1993105"><ele>862.0</ele><time>2026-05-03T08:50:36.374Z</time></trkpt><trkpt lat="41.8464154" lon="13.199543"><ele>862.0</ele><time>2026-05-03T08:50:37.376Z</time></trkpt><trkpt lat="41.8463785" lon="13.199766"><ele>862.0</ele><time>2026-05-03T08:50:38.377Z</time></trkpt><trkpt lat="41.8463478" lon="13.1999859"><ele>862.0</ele><time>2026-05-03T08:50:39.373Z</time></trkpt><trkpt lat="41.8463159" lon="13.2001959"><ele>864.0</ele><time>2026-05-03T08:50:40.385Z</time></trkpt><trkpt lat="41.8462874" lon="13.2003961"><ele>866.0</ele><time>2026-05-03T08:50:41.377Z</time></trkpt><trkpt lat="41.8462549" lon="13.2006103"><ele>868.0</ele><time>2026-05-03T08:50:42.385Z</time></trkpt><trkpt lat="41.846218" lon="13.2008168"><ele>868.6666666666666</ele><time>2026-05-03T08:50:43.377Z</time></trkpt><trkpt lat="41.846193" lon="13.2010253"><ele>869.3333333333333</ele><time>2026-05-03T08:50:44.38Z</time></trkpt><trkpt lat="41.8461658" lon="13.2012364"><ele>870.0</ele><time>2026-05-03T08:50:45.387Z</time></trkpt><trkpt lat="41.8461355" lon="13.201441"><ele>871.6666666666667</ele><time>2026-05-03T08:50:46.378Z</time></trkpt><trkpt lat="41.8461019" lon="13.201642"><ele>873.3333333333334</ele><time>2026-05-03T08:50:47.379Z</time></trkpt><trkpt lat="41.8460723" lon="13.2018461"><ele>875.0</ele><time>2026-05-03T08:50:48.378Z</time></trkpt><trkpt lat="41.846038" lon="13.202056"><ele>875.0</ele><time>2026-05-03T08:50:49.389Z</time></trkpt><trkpt lat="41.8459991" lon="13.2022696"><ele>875.0</ele><time>2026-05-03T08:50:50.377Z</time></trkpt><trkpt lat="41.8459543" lon="13.2024792"><ele>875.0</ele><time>2026-05-03T08:50:51.386Z</time></trkpt><trkpt lat="41.8459163" lon="13.2026755"><ele>875.25</ele><time>2026-05-03T08:50:52.383Z</time></trkpt><trkpt lat="41.8458979" lon="13.2028719"><ele>875.5</ele><time>2026-05-03T08:50:53.386Z</time></trkpt><trkpt lat="41.845914" lon="13.2030646"><ele>875.75</ele><time>2026-05-03T08:50:54.373Z</time></trkpt><trkpt lat="41.8459637" lon="13.2032545"><ele>876.0</ele><time>2026-05-03T08:50:55.378Z</time></trkpt><trkpt lat="41.8460517" lon="13.2034622"><ele>879.6666666666667</ele><time>2026-05-03T08:50:56.378Z</time></trkpt><trkpt lat="41.8461593" lon="13.2036981"><ele>883.3333333333334</ele><time>2026-05-03T08:50:57.384Z</time></trkpt><trkpt lat="41.8462556" lon="13.2039319"><ele>887.0</ele><time>2026-05-03T08:50:58.386Z</time></trkpt><trkpt lat="41.8463431" lon="13.2041409"><ele>887.0</ele><time>2026-05-03T08:50:59.384Z</time></trkpt><trkpt lat="41.8464277" lon="13.2043494"><ele>887.0</ele><time>2026-05-03T08:51:00.386Z</time></trkpt><trkpt lat="41.8465008" lon="13.2045484"><ele>887.0</ele><time>2026-05-03T08:51:01.385Z</time></trkpt><trkpt lat="41.8465611" lon="13.2047261"><ele>886.75</ele><time>2026-05-03T08:51:02.377Z</time></trkpt><trkpt lat="41.846615" lon="13.204886"><ele>886.5</ele><time>2026-05-03T08:51:03.377Z</time></trkpt><trkpt lat="41.8466527" lon="13.2050382"><ele>886.25</ele><time>2026-05-03T08:51:04.381Z</time></trkpt><trkpt lat="41.8466768" lon="13.2051977"><ele>886.0</ele><time>2026-05-03T08:51:05.375Z</time></trkpt><trkpt lat="41.8466689" lon="13.2053288"><ele>886.0</ele><time>2026-05-03T08:51:06.379Z</time></trkpt><trkpt lat="41.8466292" lon="13.2054453"><ele>885.9999999999999</ele><time>2026-05-03T08:51:07.376Z</time></trkpt><trkpt lat="41.8465527" lon="13.2055245"><ele>885.9999999999999</ele><time>2026-05-03T08:51:08.388Z</time></trkpt><trkpt lat="41.8464567" lon="13.2055498"><ele>886.0</ele><time>2026-05-03T08:51:09.376Z</time></trkpt><trkpt lat="41.8463345" lon="13.2055345"><ele>886.0</ele><time>2026-05-03T08:51:10.375Z</time></trkpt><trkpt lat="41.8461926" lon="13.2055205"><ele>886.0</ele><time>2026-05-03T08:51:11.385Z</time></trkpt><trkpt lat="41.846085" lon="13.2055261"><ele>886.0</ele><time>2026-05-03T08:51:12.384Z</time></trkpt><trkpt lat="41.8459849" lon="13.2055704"><ele>886.0</ele><time>2026-05-03T08:51:13.379Z</time></trkpt><trkpt lat="41.8458753" lon="13.2056634"><ele>886.0</ele><time>2026-05-03T08:51:14.385Z</time></trkpt><trkpt lat="41.8457779" lon="13.205804"><ele>886.6666666666666</ele><time>2026-05-03T08:51:15.383Z</time></trkpt><trkpt lat="41.8456956" lon="13.2059942"><ele>887.3333333333333</ele><time>2026-05-03T08:51:16.385Z</time></trkpt><trkpt lat="41.8456219" lon="13.2062166"><ele>888.0</ele><time>2026-05-03T08:51:17.377Z</time></trkpt><trkpt lat="41.8455483" lon="13.2064434"><ele>890.25</ele><time>2026-05-03T08:51:18.377Z</time></trkpt><trkpt lat="41.8454818" lon="13.2066431"><ele>892.5</ele><time>2026-05-03T08:51:19.379Z</time></trkpt><trkpt lat="41.8454199" lon="13.2068304"><ele>894.75</ele><time>2026-05-03T08:51:20.383Z</time></trkpt><trkpt lat="41.8453654" lon="13.2069944"><ele>897.0</ele><time>2026-05-03T08:51:21.379Z</time></trkpt><trkpt lat="41.8453278" lon="13.2071486"><ele>897.0</ele><time>2026-05-03T08:51:22.384Z</time></trkpt><trkpt lat="41.8453205" lon="13.2073194"><ele>897.0</ele><time>2026-05-03T08:51:23.375Z</time></trkpt><trkpt lat="41.8453436" lon="13.2075058"><ele>897.0</ele><time>2026-05-03T08:51:24.377Z</time></trkpt><trkpt lat="41.8453965" lon="13.2077084"><ele>897.0</ele><time>2026-05-03T08:51:25.374Z</time></trkpt><trkpt lat="41.8454613" lon="13.2078912"><ele>898.75</ele><time>2026-05-03T08:51:26.376Z</time></trkpt><trkpt lat="41.8455377" lon="13.2080625"><ele>900.5</ele><time>2026-05-03T08:51:27.376Z</time></trkpt><trkpt lat="41.8456015" lon="13.2082203"><ele>902.25</ele><time>2026-05-03T08:51:28.378Z</time></trkpt><trkpt lat="41.8456439" lon="13.2083641"><ele>904.0</ele><time>2026-05-03T08:51:29.38Z</time></trkpt><trkpt lat="41.845659" lon="13.2084916"><ele>904.8000000000001</ele><time>2026-05-03T08:51:30.373Z</time></trkpt><trkpt lat="41.8456395" lon="13.208594"><ele>905.6000000000001</ele><time>2026-05-03T08:51:31.377Z</time></trkpt><trkpt lat="41.8455789" lon="13.2086723"><ele>906.4</ele><time>2026-05-03T08:51:32.377Z</time></trkpt><trkpt lat="41.8454711" lon="13.208733"><ele>907.2</ele><time>2026-05-03T08:51:33.376Z</time></trkpt><trkpt lat="41.8453365" lon="13.2087844"><ele>908.0</ele><time>2026-05-03T08:51:34.379Z</time></trkpt><trkpt lat="41.8452143" lon="13.2088327"><ele>907.25</ele><time>2026-05-03T08:51:35.379Z</time></trkpt><trkpt lat="41.845102" lon="13.2088789"><ele>906.5</ele><time>2026-05-03T08:51:36.385Z</time></trkpt><trkpt lat="41.8450094" lon="13.2089576"><ele>905.75</ele><time>2026-05-03T08:51:37.382Z</time></trkpt><trkpt lat="41.84493" lon="13.2090877"><ele>905.0</ele><time>2026-05-03T08:51:38.376Z</time></trkpt><trkpt lat="41.8448675" lon="13.2092592"><ele>905.0</ele><time>2026-05-03T08:51:39.384Z</time></trkpt><trkpt lat="41.8447957" lon="13.2094732"><ele>905.0</ele><time>2026-05-03T08:51:40.384Z</time></trkpt><trkpt lat="41.8447099" lon="13.2097407"><ele>905.0</ele><time>2026-05-03T08:51:41.378Z</time></trkpt><trkpt lat="41.8446267" lon="13.210029"><ele>910.0</ele><time>2026-05-03T08:51:42.377Z</time></trkpt><trkpt lat="41.8445572" lon="13.2102968"><ele>915.0</ele><time>2026-05-03T08:51:43.377Z</time></trkpt><trkpt lat="41.8444924" lon="13.210535"><ele>920.0</ele><time>2026-05-03T08:51:44.38Z</time></trkpt><trkpt lat="41.8444342" lon="13.2107499"><ele>924.0</ele><time>2026-05-03T08:51:45.386Z</time></trkpt><trkpt lat="41.8443774" lon="13.2109627"><ele>928.0</ele><time>2026-05-03T08:51:46.379Z</time></trkpt><trkpt lat="41.8443222" lon="13.2111871"><ele>932.0</ele><time>2026-05-03T08:51:47.388Z</time></trkpt><trkpt lat="41.8442597" lon="13.2114273"><ele>927.3333333333334</ele><time>2026-05-03T08:51:48.386Z</time></trkpt><trkpt lat="41.8442001" lon="13.2116581"><ele>922.6666666666667</ele><time>2026-05-03T08:51:49.378Z</time></trkpt><trkpt lat="41.8441396" lon="13.2118899"><ele>918.0</ele><time>2026-05-03T08:51:50.373Z</time></trkpt><trkpt lat="41.8440752" lon="13.2121187"><ele>921.6666666666667</ele><time>2026-05-03T08:51:51.376Z</time></trkpt><trkpt lat="41.8440204" lon="13.2123583"><ele>925.3333333333334</ele><time>2026-05-03T08:51:52.381Z</time></trkpt><trkpt lat="41.8439609" lon="13.212589"><ele>929.0</ele><time>2026-05-03T08:51:53.385Z</time></trkpt><trkpt lat="41.8439026" lon="13.2128035"><ele>929.0</ele><time>2026-05-03T08:51:54.387Z</time></trkpt><trkpt lat="41.8438494" lon="13.2129992"><ele>929.0</ele><time>2026-05-03T08:51:55.385Z</time></trkpt><trkpt lat="41.8438009" lon="13.2132101"><ele>929.0</ele><time>2026-05-03T08:51:56.383Z</time></trkpt><trkpt lat="41.8437698" lon="13.2134366"><ele>933.0</ele><time>2026-05-03T08:51:57.479Z</time></trkpt><trkpt lat="41.8437412" lon="13.2136681"><ele>937.0</ele><time>2026-05-03T08:51:58.38Z</time></trkpt><trkpt lat="41.8437152" lon="13.2139142"><ele>941.0</ele><time>2026-05-03T08:51:59.38Z</time></trkpt><trkpt lat="41.8436947" lon="13.2141646"><ele>943.3333333333334</ele><time>2026-05-03T08:52:00.376Z</time></trkpt><trkpt lat="41.8436742" lon="13.2144121"><ele>945.6666666666667</ele><time>2026-05-03T08:52:01.372Z</time></trkpt><trkpt lat="41.8436574" lon="13.2146299"><ele>948.0</ele><time>2026-05-03T08:52:02.374Z</time></trkpt><trkpt lat="41.8436375" lon="13.2148245"><ele>949.0</ele><time>2026-05-03T08:52:03.382Z</time></trkpt><trkpt lat="41.8436218" lon="13.2149978"><ele>950.0</ele><time>2026-05-03T08:52:04.374Z</time></trkpt><trkpt lat="41.843628" lon="13.2151642"><ele>951.0</ele><time>2026-05-03T08:52:05.377Z</time></trkpt><trkpt lat="41.8436658" lon="13.2153266"><ele>952.0</ele><time>2026-05-03T08:52:06.38Z</time></trkpt><trkpt lat="41.8437341" lon="13.2154893"><ele>952.0</ele><time>2026-05-03T08:52:07.379Z</time></trkpt><trkpt lat="41.8438205" lon="13.2156252"><ele>952.0</ele><time>2026-05-03T08:52:08.378Z</time></trkpt><trkpt lat="41.8439001" lon="13.2157417"><ele>952.0</ele><time>2026-05-03T08:52:09.378Z</time></trkpt><trkpt lat="41.8439554" lon="13.2158559"><ele>952.0</ele><time>2026-05-03T08:52:10.379Z</time></trkpt><trkpt lat="41.8439759" lon="13.2159683"><ele>952.0</ele><time>2026-05-03T08:52:11.377Z</time></trkpt><trkpt lat="41.8439492" lon="13.2160834"><ele>953.3333333333333</ele><time>2026-05-03T08:52:12.374Z</time></trkpt><trkpt lat="41.8438761" lon="13.2162174"><ele>954.6666666666667</ele><time>2026-05-03T08:52:13.385Z</time></trkpt><trkpt lat="41.8437731" lon="13.2163844"><ele>956.0</ele><time>2026-05-03T08:52:14.379Z</time></trkpt><trkpt lat="41.8436672" lon="13.2165699"><ele>956.0</ele><time>2026-05-03T08:52:15.386Z</time></trkpt><trkpt lat="41.8435715" lon="13.2167286"><ele>956.0</ele><time>2026-05-03T08:52:16.377Z</time></trkpt><trkpt lat="41.8434877" lon="13.2168693"><ele>956.0</ele><time>2026-05-03T08:52:17.377Z</time></trkpt><trkpt lat="41.8434006" lon="13.2170076"><ele>956.0</ele><time>2026-05-03T08:52:18.387Z</time></trkpt><trkpt lat="41.8433173" lon="13.2171643"><ele>953.75</ele><time>2026-05-03T08:52:19.379Z</time></trkpt><trkpt lat="41.8432486" lon="13.2173397"><ele>951.5</ele><time>2026-05-03T08:52:20.382Z</time></trkpt><trkpt lat="41.8431952" lon="13.2175227"><ele>949.25</ele><time>2026-05-03T08:52:21.38Z</time></trkpt><trkpt lat="41.843166" lon="13.2177104"><ele>947.0</ele><time>2026-05-03T08:52:22.382Z</time></trkpt><trkpt lat="41.8431625" lon="13.2178926"><ele>947.0</ele><time>2026-05-03T08:52:23.387Z</time></trkpt><trkpt lat="41.8431694" lon="13.2180772"><ele>947.0</ele><time>2026-05-03T08:52:24.378Z</time></trkpt><trkpt lat="41.8431682" lon="13.2182429"><ele>947.0</ele><time>2026-05-03T08:52:25.38Z</time></trkpt><trkpt lat="41.8431528" lon="13.2183862"><ele>947.0</ele><time>2026-05-03T08:52:26.378Z</time></trkpt><trkpt lat="41.8431109" lon="13.2185232"><ele>949.0</ele><time>2026-05-03T08:52:27.379Z</time></trkpt><trkpt lat="41.8430487" lon="13.2186336"><ele>951.0</ele><time>2026-05-03T08:52:28.377Z</time></trkpt><trkpt lat="41.8430033" lon="13.2187596"><ele>953.0</ele><time>2026-05-03T08:52:29.38Z</time></trkpt><trkpt lat="41.8429859" lon="13.2189247"><ele>955.0</ele><time>2026-05-03T08:52:30.381Z</time></trkpt><trkpt lat="41.8429958" lon="13.2191184"><ele>956.6666666666666</ele><time>2026-05-03T08:52:31.382Z</time></trkpt><trkpt lat="41.8430173" lon="13.2193496"><ele>958.3333333333333</ele><time>2026-05-03T08:52:32.374Z</time></trkpt><trkpt lat="41.8430326" lon="13.2196093"><ele>960.0</ele><time>2026-05-03T08:52:33.382Z</time></trkpt><trkpt lat="41.8430532" lon="13.2198691"><ele>960.5</ele><time>2026-05-03T08:52:34.378Z</time></trkpt><trkpt lat="41.8430745" lon="13.2200935"><ele>961.0</ele><time>2026-05-03T08:52:35.377Z</time></trkpt><trkpt lat="41.8430988" lon="13.2202911"><ele>961.5</ele><time>2026-05-03T08:52:36.378Z</time></trkpt><trkpt lat="41.8430955" lon="13.2204493"><ele>962.0</ele><time>2026-05-03T08:52:37.373Z</time></trkpt><trkpt lat="41.8430559" lon="13.2206165"><ele>963.3333333333334</ele><time>2026-05-03T08:52:38.374Z</time></trkpt><trkpt lat="41.8429712" lon="13.2207838"><ele>964.6666666666667</ele><time>2026-05-03T08:52:39.379Z</time></trkpt><trkpt lat="41.8428567" lon="13.2209507"><ele>966.0</ele><time>2026-05-03T08:52:40.376Z</time></trkpt><trkpt lat="41.8427382" lon="13.2211154"><ele>966.0</ele><time>2026-05-03T08:52:41.385Z</time></trkpt><trkpt lat="41.8426407" lon="13.2212688"><ele>966.0</ele><time>2026-05-03T08:52:42.379Z</time></trkpt><trkpt lat="41.8425431" lon="13.2213904"><ele>966.0</ele><time>2026-05-03T08:52:43.378Z</time></trkpt><trkpt lat="41.8424314" lon="13.2214727"><ele>966.0</ele><time>2026-05-03T08:52:44.375Z</time></trkpt><trkpt lat="41.8423024" lon="13.2214999"><ele>965.75</ele><time>2026-05-03T08:52:45.379Z</time></trkpt><trkpt lat="41.8421809" lon="13.2214779"><ele>965.5</ele><time>2026-05-03T08:52:46.381Z</time></trkpt><trkpt lat="41.842063" lon="13.2214444"><ele>965.25</ele><time>2026-05-03T08:52:47.379Z</time></trkpt><trkpt lat="41.8419215" lon="13.2214403"><ele>965.0</ele><time>2026-05-03T08:52:48.379Z</time></trkpt><trkpt lat="41.8417599" lon="13.2214875"><ele>965.0</ele><time>2026-05-03T08:52:49.383Z</time></trkpt><trkpt lat="41.8415845" lon="13.2215541"><ele>965.0</ele><time>2026-05-03T08:52:50.379Z</time></trkpt><trkpt lat="41.8414214" lon="13.2216174"><ele>965.0</ele><time>2026-05-03T08:52:51.376Z</time></trkpt><trkpt lat="41.8412749" lon="13.2216787"><ele>965.0</ele><time>2026-05-03T08:52:52.376Z</time></trkpt><trkpt lat="41.8411505" lon="13.2217396"><ele>965.0</ele><time>2026-05-03T08:52:53.375Z</time></trkpt><trkpt lat="41.8410657" lon="13.2218229"><ele>965.0</ele><time>2026-05-03T08:52:54.39Z</time></trkpt><trkpt lat="41.8410064" lon="13.2219441"><ele>965.0</ele><time>2026-05-03T08:52:55.381Z</time></trkpt><trkpt lat="41.8409768" lon="13.2221017"><ele>964.6666666666667</ele><time>2026-05-03T08:52:56.378Z</time></trkpt><trkpt lat="41.8409498" lon="13.2223191"><ele>964.3333333333333</ele><time>2026-05-03T08:52:57.377Z</time></trkpt><trkpt lat="41.8409124" lon="13.2225956"><ele>964.0</ele><time>2026-05-03T08:52:58.378Z</time></trkpt><trkpt lat="41.8408671" lon="13.222938"><ele>964.5</ele><time>2026-05-03T08:52:59.378Z</time></trkpt><trkpt lat="41.8408061" lon="13.2233396"><ele>965.0</ele><time>2026-05-03T08:53:00.371Z</time></trkpt><trkpt lat="41.8407561" lon="13.2236953"><ele>966.0</ele><time>2026-05-03T08:53:01.368Z</time></trkpt><trkpt lat="41.8407076" lon="13.2240197"><ele>967.0</ele><time>2026-05-03T08:53:02.378Z</time></trkpt><trkpt lat="41.8406644" lon="13.2243176"><ele>967.0</ele><time>2026-05-03T08:53:03.388Z</time></trkpt><trkpt lat="41.8406267" lon="13.2245814"><ele>967.0</ele><time>2026-05-03T08:53:04.381Z</time></trkpt><trkpt lat="41.8405866" lon="13.2248409"><ele>967.0</ele><time>2026-05-03T08:53:05.379Z</time></trkpt><trkpt lat="41.8405481" lon="13.2250969"><ele>968.3333333333333</ele><time>2026-05-03T08:53:06.377Z</time></trkpt><trkpt lat="41.8405095" lon="13.2253478"><ele>969.6666666666667</ele><time>2026-05-03T08:53:07.37Z</time></trkpt><trkpt lat="41.8404697" lon="13.2255857"><ele>971.0</ele><time>2026-05-03T08:53:08.387Z</time></trkpt><trkpt lat="41.8404329" lon="13.2257966"><ele>972.5</ele><time>2026-05-03T08:53:09.375Z</time></trkpt><trkpt lat="41.8404038" lon="13.2259951"><ele>974.0</ele><time>2026-05-03T08:53:10.374Z</time></trkpt><trkpt lat="41.8403887" lon="13.2261926"><ele>975.5</ele><time>2026-05-03T08:53:11.373Z</time></trkpt><trkpt lat="41.8404035" lon="13.226381"><ele>977.0</ele><time>2026-05-03T08:53:12.374Z</time></trkpt><trkpt lat="41.8404451" lon="13.2265376"><ele>977.4000000000001</ele><time>2026-05-03T08:53:13.373Z</time></trkpt><trkpt lat="41.8404836" lon="13.2266579"><ele>977.8000000000001</ele><time>2026-05-03T08:53:14.38Z</time></trkpt><trkpt lat="41.8404848" lon="13.2267816"><ele>978.2</ele><time>2026-05-03T08:53:15.381Z</time></trkpt><trkpt lat="41.8404383" lon="13.2268948"><ele>978.6</ele><time>2026-05-03T08:53:16.377Z</time></trkpt><trkpt lat="41.8403645" lon="13.226966"><ele>979.0</ele><time>2026-05-03T08:53:17.379Z</time></trkpt><trkpt lat="41.8403035" lon="13.2270459"><ele>979.0</ele><time>2026-05-03T08:53:18.381Z</time></trkpt><trkpt lat="41.8403147" lon="13.2271544"><ele>979.0000000000001</ele><time>2026-05-03T08:53:19.378Z</time></trkpt><trkpt lat="41.8403425" lon="13.227265"><ele>979.0000000000001</ele><time>2026-05-03T08:53:20.383Z</time></trkpt><trkpt lat="41.8404117" lon="13.2273902"><ele>979.0</ele><time>2026-05-03T08:53:21.371Z</time></trkpt><trkpt lat="41.8404749" lon="13.2275019"><ele>979.0</ele><time>2026-05-03T08:53:22.377Z</time></trkpt><trkpt lat="41.8405164" lon="13.2276234"><ele>979.0</ele><time>2026-05-03T08:53:23.375Z</time></trkpt><trkpt lat="41.8405197" lon="13.227741"><ele>979.0000000000001</ele><time>2026-05-03T08:53:24.377Z</time></trkpt><trkpt lat="41.8404725" lon="13.2278437"><ele>979.0000000000001</ele><time>2026-05-03T08:53:25.377Z</time></trkpt><trkpt lat="41.8404016" lon="13.2278916"><ele>979.0</ele><time>2026-05-03T08:53:26.382Z</time></trkpt><trkpt lat="41.8403081" lon="13.2278835"><ele>979.0</ele><time>2026-05-03T08:53:27.385Z</time></trkpt><trkpt lat="41.8402018" lon="13.2278412"><ele>977.4000000000001</ele><time>2026-05-03T08:53:28.38Z</time></trkpt><trkpt lat="41.8401003" lon="13.2278126"><ele>975.8000000000001</ele><time>2026-05-03T08:53:29.378Z</time></trkpt><trkpt lat="41.8399942" lon="13.2278253"><ele>974.1999999999999</ele><time>2026-05-03T08:53:30.375Z</time></trkpt><trkpt lat="41.8398806" lon="13.2278884"><ele>972.5999999999999</ele><time>2026-05-03T08:53:31.376Z</time></trkpt><trkpt lat="41.839783" lon="13.2279603"><ele>971.0</ele><time>2026-05-03T08:53:32.373Z</time></trkpt><trkpt lat="41.8396959" lon="13.2280398"><ele>972.6666666666667</ele><time>2026-05-03T08:53:33.375Z</time></trkpt><trkpt lat="41.8396804" lon="13.228163"><ele>974.3333333333334</ele><time>2026-05-03T08:53:34.379Z</time></trkpt><trkpt lat="41.839678" lon="13.2282951"><ele>976.0</ele><time>2026-05-03T08:53:35.377Z</time></trkpt><trkpt lat="41.8396962" lon="13.2284112"><ele>977.6666666666667</ele><time>2026-05-03T08:53:36.387Z</time></trkpt><trkpt lat="41.8396898" lon="13.2285263"><ele>979.3333333333334</ele><time>2026-05-03T08:53:37.386Z</time></trkpt><trkpt lat="41.8396405" lon="13.228615"><ele>981.0</ele><time>2026-05-03T08:53:38.387Z</time></trkpt><trkpt lat="41.8395526" lon="13.2286608"><ele>981.0</ele><time>2026-05-03T08:53:39.383Z</time></trkpt><trkpt lat="41.8394491" lon="13.2286738"><ele>980.9999999999999</ele><time>2026-05-03T08:53:40.377Z</time></trkpt><trkpt lat="41.8393421" lon="13.2287077"><ele>980.9999999999999</ele><time>2026-05-03T08:53:41.379Z</time></trkpt><trkpt lat="41.8392515" lon="13.228774"><ele>981.0</ele><time>2026-05-03T08:53:42.382Z</time></trkpt><trkpt lat="41.8391748" lon="13.2288908"><ele>981.0</ele><time>2026-05-03T08:53:43.383Z</time></trkpt><trkpt lat="41.8391313" lon="13.229032"><ele>979.25</ele><time>2026-05-03T08:53:44.379Z</time></trkpt><trkpt lat="41.839114" lon="13.2292012"><ele>977.5</ele><time>2026-05-03T08:53:45.388Z</time></trkpt><trkpt lat="41.8391306" lon="13.2293907"><ele>975.75</ele><time>2026-05-03T08:53:46.389Z</time></trkpt><trkpt lat="41.8391659" lon="13.2295759"><ele>974.0</ele><time>2026-05-03T08:53:47.377Z</time></trkpt><trkpt lat="41.8392007" lon="13.229724"><ele>975.3333333333334</ele><time>2026-05-03T08:53:48.379Z</time></trkpt><trkpt lat="41.839213" lon="13.2298545"><ele>976.6666666666667</ele><time>2026-05-03T08:53:49.377Z</time></trkpt><trkpt lat="41.8391873" lon="13.2299449"><ele>978.0</ele><time>2026-05-03T08:53:50.375Z</time></trkpt><trkpt lat="41.8391283" lon="13.2299985"><ele>979.3333333333333</ele><time>2026-05-03T08:53:51.381Z</time></trkpt><trkpt lat="41.8390425" lon="13.229994"><ele>980.6666666666666</ele><time>2026-05-03T08:53:52.389Z</time></trkpt><trkpt lat="41.8389545" lon="13.2299767"><ele>982.0</ele><time>2026-05-03T08:53:53.38Z</time></trkpt><trkpt lat="41.8388496" lon="13.230009"><ele>982.0</ele><time>2026-05-03T08:53:54.389Z</time></trkpt><trkpt lat="41.8387392" lon="13.2300839"><ele>982.0</ele><time>2026-05-03T08:53:55.379Z</time></trkpt><trkpt lat="41.8386402" lon="13.2301735"><ele>982.0</ele><time>2026-05-03T08:53:56.382Z</time></trkpt><trkpt lat="41.8385696" lon="13.230303"><ele>982.0</ele><time>2026-05-03T08:53:57.38Z</time></trkpt><trkpt lat="41.838531" lon="13.2304518"><ele>982.0</ele><time>2026-05-03T08:53:58.376Z</time></trkpt><trkpt lat="41.8385288" lon="13.230633"><ele>982.0</ele><time>2026-05-03T08:53:59.378Z</time></trkpt><trkpt lat="41.8385636" lon="13.2308263"><ele>982.0</ele><time>2026-05-03T08:54:00.391Z</time></trkpt><trkpt lat="41.8386178" lon="13.2310349"><ele>982.0</ele><time>2026-05-03T08:54:01.39Z</time></trkpt><trkpt lat="41.8386695" lon="13.2312411"><ele>985.25</ele><time>2026-05-03T08:54:02.379Z</time></trkpt><trkpt lat="41.8387109" lon="13.2314226"><ele>988.5</ele><time>2026-05-03T08:54:03.39Z</time></trkpt><trkpt lat="41.8387176" lon="13.2315667"><ele>991.75</ele><time>2026-05-03T08:54:04.38Z</time></trkpt><trkpt lat="41.8386838" lon="13.2317088"><ele>995.0</ele><time>2026-05-03T08:54:05.397Z</time></trkpt><trkpt lat="41.8386134" lon="13.231801"><ele>996.2</ele><time>2026-05-03T08:54:06.377Z</time></trkpt><trkpt lat="41.8385265" lon="13.2318645"><ele>997.4</ele><time>2026-05-03T08:54:07.389Z</time></trkpt><trkpt lat="41.8384596" lon="13.231956"><ele>998.5999999999999</ele><time>2026-05-03T08:54:08.378Z</time></trkpt><trkpt lat="41.8384192" lon="13.2320832"><ele>999.8</ele><time>2026-05-03T08:54:09.381Z</time></trkpt><trkpt lat="41.8384175" lon="13.2322213"><ele>1001.0</ele><time>2026-05-03T08:54:10.389Z</time></trkpt><trkpt lat="41.8384509" lon="13.2323945"><ele>1002.3333333333334</ele><time>2026-05-03T08:54:11.38Z</time></trkpt><trkpt lat="41.8384973" lon="13.2326003"><ele>1003.6666666666667</ele><time>2026-05-03T08:54:12.385Z</time></trkpt><trkpt lat="41.8385433" lon="13.2328435"><ele>1005.0</ele><time>2026-05-03T08:54:13.39Z</time></trkpt><trkpt lat="41.8385949" lon="13.2330586"><ele>1005.75</ele><time>2026-05-03T08:54:14.381Z</time></trkpt><trkpt lat="41.8386471" lon="13.2332454"><ele>1006.5</ele><time>2026-05-03T08:54:15.376Z</time></trkpt><trkpt lat="41.8386767" lon="13.2333972"><ele>1007.25</ele><time>2026-05-03T08:54:16.378Z</time></trkpt><trkpt lat="41.8386645" lon="13.2335352"><ele>1008.0</ele><time>2026-05-03T08:54:17.378Z</time></trkpt><trkpt lat="41.8386196" lon="13.233632"><ele>1008.0</ele><time>2026-05-03T08:54:18.381Z</time></trkpt><trkpt lat="41.8385552" lon="13.2336634"><ele>1008.0</ele><time>2026-05-03T08:54:19.378Z</time></trkpt><trkpt lat="41.8384869" lon="13.2336891"><ele>1008.0</ele><time>2026-05-03T08:54:20.387Z</time></trkpt><trkpt lat="41.8384087" lon="13.233636"><ele>1008.0</ele><time>2026-05-03T08:54:21.382Z</time></trkpt><trkpt lat="41.838324" lon="13.2336625"><ele>1008.0</ele><time>2026-05-03T08:54:22.382Z</time></trkpt><trkpt lat="41.8382433" lon="13.2337466"><ele>1008.0</ele><time>2026-05-03T08:54:23.378Z</time></trkpt><trkpt lat="41.8381847" lon="13.2338922"><ele>1005.6666666666667</ele><time>2026-05-03T08:54:24.388Z</time></trkpt><trkpt lat="41.8381094" lon="13.2340889"><ele>1003.3333333333334</ele><time>2026-05-03T08:54:25.378Z</time></trkpt><trkpt lat="41.8380283" lon="13.234304"><ele>1001.0</ele><time>2026-05-03T08:54:26.379Z</time></trkpt><trkpt lat="41.8379538" lon="13.2345193"><ele>1001.0</ele><time>2026-05-03T08:54:27.378Z</time></trkpt><trkpt lat="41.8378985" lon="13.2347539"><ele>1001.0</ele><time>2026-05-03T08:54:28.378Z</time></trkpt><trkpt lat="41.837871" lon="13.2349738"><ele>1001.0</ele><time>2026-05-03T08:54:29.377Z</time></trkpt><trkpt lat="41.8378504" lon="13.2351654"><ele>1002.3333333333334</ele><time>2026-05-03T08:54:30.379Z</time></trkpt><trkpt lat="41.8378221" lon="13.2353467"><ele>1003.6666666666667</ele><time>2026-05-03T08:54:31.379Z</time></trkpt><trkpt lat="41.8377527" lon="13.2355155"><ele>1005.0</ele><time>2026-05-03T08:54:32.381Z</time></trkpt><trkpt lat="41.8376391" lon="13.2356856"><ele>1006.0</ele><time>2026-05-03T08:54:33.38Z</time></trkpt><trkpt lat="41.8375065" lon="13.2358658"><ele>1007.0</ele><time>2026-05-03T08:54:34.381Z</time></trkpt><trkpt lat="41.8373833" lon="13.236036"><ele>1008.0</ele><time>2026-05-03T08:54:35.379Z</time></trkpt><trkpt lat="41.8372433" lon="13.2361826"><ele>1008.0</ele><time>2026-05-03T08:54:36.383Z</time></trkpt><trkpt lat="41.837066" lon="13.2363103"><ele>1008.0</ele><time>2026-05-03T08:54:37.38Z</time></trkpt><trkpt lat="41.8368918" lon="13.2364206"><ele>1008.0</ele><time>2026-05-03T08:54:38.386Z</time></trkpt><trkpt lat="41.8367293" lon="13.2365308"><ele>1009.5</ele><time>2026-05-03T08:54:39.382Z</time></trkpt><trkpt lat="41.8365829" lon="13.2366118"><ele>1011.0</ele><time>2026-05-03T08:54:40.382Z</time></trkpt><trkpt lat="41.836441" lon="13.2366575"><ele>1012.5</ele><time>2026-05-03T08:54:41.378Z</time></trkpt><trkpt lat="41.8363049" lon="13.2366814"><ele>1014.0</ele><time>2026-05-03T08:54:42.38Z</time></trkpt><trkpt lat="41.8361681" lon="13.2366783"><ele>1014.0</ele><time>2026-05-03T08:54:43.379Z</time></trkpt><trkpt lat="41.8360308" lon="13.2367592"><ele>1014.0</ele><time>2026-05-03T08:54:44.379Z</time></trkpt><trkpt lat="41.8358958" lon="13.2368441"><ele>1014.0</ele><time>2026-05-03T08:54:45.379Z</time></trkpt><trkpt lat="41.8357323" lon="13.236975"><ele>1014.25</ele><time>2026-05-03T08:54:46.377Z</time></trkpt><trkpt lat="41.8355743" lon="13.237071"><ele>1014.5</ele><time>2026-05-03T08:54:47.381Z</time></trkpt><trkpt lat="41.8354455" lon="13.2371648"><ele>1014.75</ele><time>2026-05-03T08:54:48.386Z</time></trkpt><trkpt lat="41.8353507" lon="13.2372688"><ele>1015.0</ele><time>2026-05-03T08:54:49.379Z</time></trkpt><trkpt lat="41.8352678" lon="13.2374307"><ele>1015.0</ele><time>2026-05-03T08:54:50.377Z</time></trkpt><trkpt lat="41.8351859" lon="13.2376551"><ele>1015.0</ele><time>2026-05-03T08:54:51.381Z</time></trkpt><trkpt lat="41.8350925" lon="13.2379606"><ele>1015.0</ele><time>2026-05-03T08:54:52.378Z</time></trkpt><trkpt lat="41.834983" lon="13.2383283"><ele>1012.5</ele><time>2026-05-03T08:54:53.38Z</time></trkpt><trkpt lat="41.8348776" lon="13.2387294"><ele>1010.0</ele><time>2026-05-03T08:54:54.381Z</time></trkpt><trkpt lat="41.8347828" lon="13.2390742"><ele>1010.0</ele><time>2026-05-03T08:54:55.378Z</time></trkpt><trkpt lat="41.8347" lon="13.2393881"><ele>1010.0</ele><time>2026-05-03T08:54:56.379Z</time></trkpt><trkpt lat="41.8346157" lon="13.2396728"><ele>1010.3333333333334</ele><time>2026-05-03T08:54:57.378Z</time></trkpt><trkpt lat="41.8345329" lon="13.2398912"><ele>1010.6666666666667</ele><time>2026-05-03T08:54:58.378Z</time></trkpt><trkpt lat="41.8344548" lon="13.2400758"><ele>1011.0</ele><time>2026-05-03T08:54:59.38Z</time></trkpt><trkpt lat="41.8343808" lon="13.2402269"><ele>1008.75</ele><time>2026-05-03T08:55:00.377Z</time></trkpt><trkpt lat="41.834286" lon="13.2402946"><ele>1006.5</ele><time>2026-05-03T08:55:01.377Z</time></trkpt><trkpt lat="41.8341687" lon="13.2403371"><ele>1004.25</ele><time>2026-05-03T08:55:02.377Z</time></trkpt><trkpt lat="41.8340467" lon="13.2403327"><ele>1002.0</ele><time>2026-05-03T08:55:03.371Z</time></trkpt><trkpt lat="41.8339243" lon="13.240361"><ele>1002.0</ele><time>2026-05-03T08:55:04.373Z</time></trkpt><trkpt lat="41.8337652" lon="13.240418"><ele>1002.0</ele><time>2026-05-03T08:55:05.379Z</time></trkpt><trkpt lat="41.8336083" lon="13.2404546"><ele>1002.0</ele><time>2026-05-03T08:55:06.379Z</time></trkpt><trkpt lat="41.8334525" lon="13.2404997"><ele>1001.3333333333333</ele><time>2026-05-03T08:55:07.38Z</time></trkpt><trkpt lat="41.8333222" lon="13.2405872"><ele>1000.6666666666666</ele><time>2026-05-03T08:55:08.389Z</time></trkpt><trkpt lat="41.833186" lon="13.2407776"><ele>1000.0</ele><time>2026-05-03T08:55:09.386Z</time></trkpt><trkpt lat="41.8330412" lon="13.2409641"><ele>1000.0</ele><time>2026-05-03T08:55:10.386Z</time></trkpt><trkpt lat="41.8329169" lon="13.241127"><ele>1000.0</ele><time>2026-05-03T08:55:11.387Z</time></trkpt><trkpt lat="41.8328135" lon="13.2412593"><ele>1000.0</ele><time>2026-05-03T08:55:12.386Z</time></trkpt><trkpt lat="41.8327314" lon="13.2413746"><ele>1000.0</ele><time>2026-05-03T08:55:13.387Z</time></trkpt><trkpt lat="41.8326769" lon="13.2414797"><ele>999.6</ele><time>2026-05-03T08:55:14.387Z</time></trkpt><trkpt lat="41.8326267" lon="13.2415997"><ele>999.2</ele><time>2026-05-03T08:55:15.386Z</time></trkpt><trkpt lat="41.8326417" lon="13.2417441"><ele>998.8</ele><time>2026-05-03T08:55:16.389Z</time></trkpt><trkpt lat="41.8326776" lon="13.2418511"><ele>998.4</ele><time>2026-05-03T08:55:17.392Z</time></trkpt><trkpt lat="41.8327354" lon="13.2419313"><ele>998.0</ele><time>2026-05-03T08:55:18.387Z</time></trkpt><trkpt lat="41.8327712" lon="13.2420392"><ele>995.8</ele><time>2026-05-03T08:55:19.388Z</time></trkpt><trkpt lat="41.8326394" lon="13.2420802"><ele>993.5999999999999</ele><time>2026-05-03T08:55:20.389Z</time></trkpt><trkpt lat="41.8325791" lon="13.2421423"><ele>991.4000000000001</ele><time>2026-05-03T08:55:23.386Z</time></trkpt><trkpt lat="41.8325164" lon="13.2422487"><ele>989.2</ele><time>2026-05-03T08:55:24.389Z</time></trkpt><trkpt lat="41.8324397" lon="13.2423782"><ele>987.0</ele><time>2026-05-03T08:55:25.387Z</time></trkpt><trkpt lat="41.8324072" lon="13.2425114"><ele>986.75</ele><time>2026-05-03T08:55:26.387Z</time></trkpt><trkpt lat="41.8324519" lon="13.2426945"><ele>986.5</ele><time>2026-05-03T08:55:27.386Z</time></trkpt><trkpt lat="41.8324266" lon="13.2428526"><ele>986.25</ele><time>2026-05-03T08:55:28.387Z</time></trkpt><trkpt lat="41.8323691" lon="13.2429923"><ele>986.0</ele><time>2026-05-03T08:55:29.388Z</time></trkpt><trkpt lat="41.8323323" lon="13.2431166"><ele>985.4</ele><time>2026-05-03T08:55:30.388Z</time></trkpt><trkpt lat="41.8323432" lon="13.2432539"><ele>984.8</ele><time>2026-05-03T08:55:31.386Z</time></trkpt><trkpt lat="41.8323935" lon="13.2433564"><ele>984.1999999999999</ele><time>2026-05-03T08:55:32.383Z</time></trkpt><trkpt lat="41.8324714" lon="13.2434309"><ele>983.5999999999999</ele><time>2026-05-03T08:55:33.387Z</time></trkpt><trkpt lat="41.8325558" lon="13.2435069"><ele>983.0</ele><time>2026-05-03T08:55:34.387Z</time></trkpt><trkpt lat="41.832621" lon="13.2436"><ele>983.0000000000001</ele><time>2026-05-03T08:55:35.389Z</time></trkpt><trkpt lat="41.8326522" lon="13.2436868"><ele>983.0</ele><time>2026-05-03T08:55:36.387Z</time></trkpt><trkpt lat="41.8326355" lon="13.2437688"><ele>983.0</ele><time>2026-05-03T08:55:37.387Z</time></trkpt><trkpt lat="41.8325891" lon="13.2438379"><ele>983.0</ele><time>2026-05-03T08:55:38.388Z</time></trkpt><trkpt lat="41.832521" lon="13.2438887"><ele>983.0000000000001</ele><time>2026-05-03T08:55:39.387Z</time></trkpt><trkpt lat="41.8324189" lon="13.2439354"><ele>983.0</ele><time>2026-05-03T08:55:40.387Z</time></trkpt><trkpt lat="41.83234" lon="13.244026"><ele>981.6666666666667</ele><time>2026-05-03T08:55:41.387Z</time></trkpt><trkpt lat="41.8322364" lon="13.2441867"><ele>980.3333333333333</ele><time>2026-05-03T08:55:42.387Z</time></trkpt><trkpt lat="41.8321154" lon="13.2444003"><ele>979.0</ele><time>2026-05-03T08:55:43.385Z</time></trkpt><trkpt lat="41.8319996" lon="13.244602"><ele>979.0</ele><time>2026-05-03T08:55:44.389Z</time></trkpt><trkpt lat="41.8318829" lon="13.2447821"><ele>979.0</ele><time>2026-05-03T08:55:45.388Z</time></trkpt><trkpt lat="41.8317623" lon="13.2449307"><ele>979.0</ele><time>2026-05-03T08:55:46.389Z</time></trkpt><trkpt lat="41.8316648" lon="13.2450487"><ele>977.4000000000001</ele><time>2026-05-03T08:55:47.39Z</time></trkpt><trkpt lat="41.8316073" lon="13.2451655"><ele>975.8000000000001</ele><time>2026-05-03T08:55:48.388Z</time></trkpt><trkpt lat="41.8315885" lon="13.2452962"><ele>974.1999999999999</ele><time>2026-05-03T08:55:49.389Z</time></trkpt><trkpt lat="41.8316096" lon="13.2454079"><ele>972.5999999999999</ele><time>2026-05-03T08:55:50.387Z</time></trkpt><trkpt lat="41.8316752" lon="13.2455149"><ele>971.0</ele><time>2026-05-03T08:55:51.388Z</time></trkpt><trkpt lat="41.8317775" lon="13.2456014"><ele>970.75</ele><time>2026-05-03T08:55:52.388Z</time></trkpt><trkpt lat="41.8318732" lon="13.2456917"><ele>970.5</ele><time>2026-05-03T08:55:53.388Z</time></trkpt><trkpt lat="41.8319372" lon="13.2458141"><ele>970.25</ele><time>2026-05-03T08:55:54.388Z</time></trkpt><trkpt lat="41.8319676" lon="13.2459724"><ele>970.0</ele><time>2026-05-03T08:55:55.388Z</time></trkpt><trkpt lat="41.8319449" lon="13.2461376"><ele>970.0</ele><time>2026-05-03T08:55:56.393Z</time></trkpt><trkpt lat="41.8319067" lon="13.2463036"><ele>970.0</ele><time>2026-05-03T08:55:57.39Z</time></trkpt><trkpt lat="41.8318964" lon="13.2464846"><ele>970.0</ele><time>2026-05-03T08:55:58.387Z</time></trkpt><trkpt lat="41.8319224" lon="13.2466735"><ele>970.0</ele><time>2026-05-03T08:55:59.384Z</time></trkpt><trkpt lat="41.8319693" lon="13.2468401"><ele>969.0</ele><time>2026-05-03T08:56:00.389Z</time></trkpt><trkpt lat="41.8320127" lon="13.2469862"><ele>968.0</ele><time>2026-05-03T08:56:01.388Z</time></trkpt><trkpt lat="41.8320169" lon="13.2471374"><ele>967.0</ele><time>2026-05-03T08:56:02.389Z</time></trkpt><trkpt lat="41.8319775" lon="13.2472991"><ele>966.0</ele><time>2026-05-03T08:56:03.39Z</time></trkpt><trkpt lat="41.8319225" lon="13.247456"><ele>965.25</ele><time>2026-05-03T08:56:04.394Z</time></trkpt><trkpt lat="41.8318897" lon="13.2476341"><ele>964.5</ele><time>2026-05-03T08:56:05.39Z</time></trkpt><trkpt lat="41.8318764" lon="13.2478318"><ele>963.75</ele><time>2026-05-03T08:56:06.387Z</time></trkpt><trkpt lat="41.8318656" lon="13.2480225"><ele>963.0</ele><time>2026-05-03T08:56:07.387Z</time></trkpt><trkpt lat="41.8318278" lon="13.2481861"><ele>961.0</ele><time>2026-05-03T08:56:08.387Z</time></trkpt><trkpt lat="41.8317579" lon="13.2483233"><ele>959.0</ele><time>2026-05-03T08:56:09.388Z</time></trkpt><trkpt lat="41.8316467" lon="13.2484378"><ele>957.0</ele><time>2026-05-03T08:56:10.387Z</time></trkpt><trkpt lat="41.8315343" lon="13.2485376"><ele>955.0</ele><time>2026-05-03T08:56:11.388Z</time></trkpt><trkpt lat="41.8314237" lon="13.2486768"><ele>955.0</ele><time>2026-05-03T08:56:12.386Z</time></trkpt><trkpt lat="41.8313359" lon="13.2488221"><ele>955.0</ele><time>2026-05-03T08:56:13.386Z</time></trkpt><trkpt lat="41.8313068" lon="13.2489876"><ele>955.0</ele><time>2026-05-03T08:56:14.386Z</time></trkpt><trkpt lat="41.831286" lon="13.2491391"><ele>955.0</ele><time>2026-05-03T08:56:15.384Z</time></trkpt><trkpt lat="41.8313258" lon="13.2492925"><ele>954.5</ele><time>2026-05-03T08:56:16.39Z</time></trkpt><trkpt lat="41.8313821" lon="13.2494439"><ele>954.0</ele><time>2026-05-03T08:56:17.39Z</time></trkpt><trkpt lat="41.831438" lon="13.2495946"><ele>953.5</ele><time>2026-05-03T08:56:18.389Z</time></trkpt><trkpt lat="41.83147" lon="13.2497498"><ele>953.0</ele><time>2026-05-03T08:56:19.389Z</time></trkpt><trkpt lat="41.8314646" lon="13.249908"><ele>953.0</ele><time>2026-05-03T08:56:20.387Z</time></trkpt><trkpt lat="41.8314284" lon="13.2500505"><ele>953.0</ele><time>2026-05-03T08:56:21.388Z</time></trkpt><trkpt lat="41.8313664" lon="13.2501544"><ele>953.0</ele><time>2026-05-03T08:56:22.387Z</time></trkpt><trkpt lat="41.8313058" lon="13.2502603"><ele>953.0</ele><time>2026-05-03T08:56:23.373Z</time></trkpt><trkpt lat="41.8311528" lon="13.2502337"><ele>953.0</ele><time>2026-05-03T08:56:24.375Z</time></trkpt><trkpt lat="41.8310354" lon="13.2502665"><ele>953.0</ele><time>2026-05-03T08:56:25.387Z</time></trkpt><trkpt lat="41.8308933" lon="13.2503336"><ele>953.0</ele><time>2026-05-03T08:56:26.387Z</time></trkpt><trkpt lat="41.8307649" lon="13.2503986"><ele>953.0</ele><time>2026-05-03T08:56:27.387Z</time></trkpt><trkpt lat="41.8306344" lon="13.2504682"><ele>951.75</ele><time>2026-05-03T08:56:28.389Z</time></trkpt><trkpt lat="41.8305062" lon="13.2505358"><ele>950.5</ele><time>2026-05-03T08:56:29.388Z</time></trkpt><trkpt lat="41.830416" lon="13.250633"><ele>949.25</ele><time>2026-05-03T08:56:30.385Z</time></trkpt><trkpt lat="41.8304145" lon="13.2508365"><ele>948.0</ele><time>2026-05-03T08:56:31.387Z</time></trkpt><trkpt lat="41.8303608" lon="13.2509546"><ele>948.0</ele><time>2026-05-03T08:56:32.387Z</time></trkpt><trkpt lat="41.8302785" lon="13.2510566"><ele>948.0</ele><time>2026-05-03T08:56:33.387Z</time></trkpt><trkpt lat="41.8301717" lon="13.251131"><ele>948.0</ele><time>2026-05-03T08:56:34.387Z</time></trkpt><trkpt lat="41.8300758" lon="13.2512217"><ele>948.0</ele><time>2026-05-03T08:56:35.386Z</time></trkpt><trkpt lat="41.829986" lon="13.2513446"><ele>945.6666666666667</ele><time>2026-05-03T08:56:36.387Z</time></trkpt><trkpt lat="41.8298994" lon="13.2515012"><ele>943.3333333333334</ele><time>2026-05-03T08:56:37.388Z</time></trkpt><trkpt lat="41.8297779" lon="13.2516532"><ele>941.0</ele><time>2026-05-03T08:56:38.389Z</time></trkpt><trkpt lat="41.8296304" lon="13.2518329"><ele>941.0</ele><time>2026-05-03T08:56:39.386Z</time></trkpt><trkpt lat="41.8294778" lon="13.252067"><ele>941.0</ele><time>2026-05-03T08:56:40.387Z</time></trkpt><trkpt lat="41.8293057" lon="13.2523131"><ele>940.0</ele><time>2026-05-03T08:56:41.388Z</time></trkpt><trkpt lat="41.8291208" lon="13.252637"><ele>939.0</ele><time>2026-05-03T08:56:42.387Z</time></trkpt><trkpt lat="41.8289325" lon="13.252951"><ele>941.0</ele><time>2026-05-03T08:56:43.388Z</time></trkpt><trkpt lat="41.8287787" lon="13.2532059"><ele>943.0</ele><time>2026-05-03T08:56:44.385Z</time></trkpt><trkpt lat="41.8286549" lon="13.2534377"><ele>943.0</ele><time>2026-05-03T08:56:45.387Z</time></trkpt><trkpt lat="41.8285645" lon="13.2536451"><ele>943.0</ele><time>2026-05-03T08:56:46.386Z</time></trkpt><trkpt lat="41.8284903" lon="13.2538987"><ele>943.0</ele><time>2026-05-03T08:56:47.389Z</time></trkpt><trkpt lat="41.8284127" lon="13.2542033"><ele>943.5</ele><time>2026-05-03T08:56:48.393Z</time></trkpt><trkpt lat="41.8283164" lon="13.254566"><ele>944.0</ele><time>2026-05-03T08:56:49.389Z</time></trkpt><trkpt lat="41.8282247" lon="13.2549521"><ele>945.0</ele><time>2026-05-03T08:56:50.387Z</time></trkpt><trkpt lat="41.8281324" lon="13.2553126"><ele>946.0</ele><time>2026-05-03T08:56:51.388Z</time></trkpt><trkpt lat="41.8280586" lon="13.2556289"><ele>948.5</ele><time>2026-05-03T08:56:52.387Z</time></trkpt><trkpt lat="41.8279935" lon="13.2559301"><ele>951.0</ele><time>2026-05-03T08:56:53.385Z</time></trkpt><trkpt lat="41.82795" lon="13.2562645"><ele>954.5</ele><time>2026-05-03T08:56:54.387Z</time></trkpt><trkpt lat="41.8278973" lon="13.2566023"><ele>958.0</ele><time>2026-05-03T08:56:55.386Z</time></trkpt><trkpt lat="41.8278494" lon="13.256933"><ele>958.0</ele><time>2026-05-03T08:56:56.388Z</time></trkpt><trkpt lat="41.8277921" lon="13.2572628"><ele>958.0</ele><time>2026-05-03T08:56:57.387Z</time></trkpt><trkpt lat="41.8277581" lon="13.2575901"><ele>958.0</ele><time>2026-05-03T08:56:58.388Z</time></trkpt><trkpt lat="41.8277216" lon="13.2578951"><ele>958.0</ele><time>2026-05-03T08:56:59.388Z</time></trkpt><trkpt lat="41.8276895" lon="13.2581615"><ele>958.0</ele><time>2026-05-03T08:57:00.386Z</time></trkpt><trkpt lat="41.8276602" lon="13.2583986"><ele>956.0</ele><time>2026-05-03T08:57:01.387Z</time></trkpt><trkpt lat="41.8276349" lon="13.2586191"><ele>954.0</ele><time>2026-05-03T08:57:02.383Z</time></trkpt><trkpt lat="41.8276116" lon="13.2588167"><ele>952.0</ele><time>2026-05-03T08:57:03.382Z</time></trkpt><trkpt lat="41.827592" lon="13.2590024"><ele>950.5</ele><time>2026-05-03T08:57:04.387Z</time></trkpt><trkpt lat="41.8275709" lon="13.2591677"><ele>949.0</ele><time>2026-05-03T08:57:05.386Z</time></trkpt><trkpt lat="41.8275348" lon="13.2593236"><ele>947.5</ele><time>2026-05-03T08:57:06.389Z</time></trkpt><trkpt lat="41.8274806" lon="13.2594743"><ele>946.0</ele><time>2026-05-03T08:57:07.39Z</time></trkpt><trkpt lat="41.8274151" lon="13.2596143"><ele>946.0</ele><time>2026-05-03T08:57:08.39Z</time></trkpt><trkpt lat="41.8273367" lon="13.2597303"><ele>946.0</ele><time>2026-05-03T08:57:09.389Z</time></trkpt><trkpt lat="41.8272493" lon="13.2598397"><ele>946.0</ele><time>2026-05-03T08:57:10.401Z</time></trkpt><trkpt lat="41.8271564" lon="13.2599499"><ele>946.0</ele><time>2026-05-03T08:57:11.387Z</time></trkpt><trkpt lat="41.827073" lon="13.2600524"><ele>944.25</ele><time>2026-05-03T08:57:12.389Z</time></trkpt><trkpt lat="41.8269948" lon="13.2601585"><ele>942.5</ele><time>2026-05-03T08:57:13.389Z</time></trkpt><trkpt lat="41.8269323" lon="13.2602792"><ele>940.75</ele><time>2026-05-03T08:57:14.388Z</time></trkpt><trkpt lat="41.8268877" lon="13.2604385"><ele>939.0</ele><time>2026-05-03T08:57:15.388Z</time></trkpt><trkpt lat="41.8268573" lon="13.2605989"><ele>938.75</ele><time>2026-05-03T08:57:16.389Z</time></trkpt><trkpt lat="41.8268337" lon="13.2607386"><ele>938.5</ele><time>2026-05-03T08:57:17.389Z</time></trkpt><trkpt lat="41.8268116" lon="13.2608862"><ele>938.25</ele><time>2026-05-03T08:57:18.39Z</time></trkpt><trkpt lat="41.8267934" lon="13.261042"><ele>938.0</ele><time>2026-05-03T08:57:19.39Z</time></trkpt><trkpt lat="41.8267699" lon="13.2611949"><ele>938.0</ele><time>2026-05-03T08:57:20.39Z</time></trkpt><trkpt lat="41.8267478" lon="13.2613789"><ele>938.0</ele><time>2026-05-03T08:57:21.39Z</time></trkpt><trkpt lat="41.8267214" lon="13.2615969"><ele>938.0</ele><time>2026-05-03T08:57:22.386Z</time></trkpt><trkpt lat="41.8266798" lon="13.2618651"><ele>939.0</ele><time>2026-05-03T08:57:23.373Z</time></trkpt><trkpt lat="41.8266152" lon="13.2622003"><ele>940.0</ele><time>2026-05-03T08:57:24.387Z</time></trkpt><trkpt lat="41.8265446" lon="13.2625461"><ele>941.5</ele><time>2026-05-03T08:57:25.377Z</time></trkpt><trkpt lat="41.8264627" lon="13.2628812"><ele>943.0</ele><time>2026-05-03T08:57:26.394Z</time></trkpt><trkpt lat="41.8263682" lon="13.263225"><ele>946.0</ele><time>2026-05-03T08:57:27.387Z</time></trkpt><trkpt lat="41.826262" lon="13.2635664"><ele>949.0</ele><time>2026-05-03T08:57:28.388Z</time></trkpt><trkpt lat="41.8261481" lon="13.2639031"><ele>948.5</ele><time>2026-05-03T08:57:29.393Z</time></trkpt><trkpt lat="41.8260264" lon="13.2642274"><ele>948.0</ele><time>2026-05-03T08:57:30.394Z</time></trkpt><trkpt lat="41.8259044" lon="13.2645677"><ele>949.0</ele><time>2026-05-03T08:57:31.398Z</time></trkpt><trkpt lat="41.8257865" lon="13.2649591"><ele>950.0</ele><time>2026-05-03T08:57:32.395Z</time></trkpt><trkpt lat="41.8256724" lon="13.2653825"><ele>952.0</ele><time>2026-05-03T08:57:33.398Z</time></trkpt><trkpt lat="41.8255691" lon="13.265779"><ele>954.0</ele><time>2026-05-03T08:57:34.386Z</time></trkpt><trkpt lat="41.8254881" lon="13.2661357"><ele>957.0</ele><time>2026-05-03T08:57:35.386Z</time></trkpt><trkpt lat="41.8254176" lon="13.2664552"><ele>960.0</ele><time>2026-05-03T08:57:36.388Z</time></trkpt><trkpt lat="41.8253393" lon="13.2667288"><ele>960.0</ele><time>2026-05-03T08:57:37.378Z</time></trkpt><trkpt lat="41.8252549" lon="13.266993"><ele>960.0</ele><time>2026-05-03T08:57:38.385Z</time></trkpt><trkpt lat="41.8251481" lon="13.2672351"><ele>960.0</ele><time>2026-05-03T08:57:39.387Z</time></trkpt><trkpt lat="41.8250233" lon="13.2674955"><ele>957.5</ele><time>2026-05-03T08:57:40.385Z</time></trkpt><trkpt lat="41.8249087" lon="13.2677821"><ele>955.0</ele><time>2026-05-03T08:57:41.388Z</time></trkpt><trkpt lat="41.8248154" lon="13.2680619"><ele>955.0</ele><time>2026-05-03T08:57:42.379Z</time></trkpt><trkpt lat="41.8247417" lon="13.2683445"><ele>955.0</ele><time>2026-05-03T08:57:43.387Z</time></trkpt><trkpt lat="41.8246861" lon="13.2686694"><ele>957.0</ele><time>2026-05-03T08:57:44.387Z</time></trkpt><trkpt lat="41.8246234" lon="13.2690546"><ele>959.0</ele><time>2026-05-03T08:57:45.385Z</time></trkpt><trkpt lat="41.8245293" lon="13.2694825"><ele>960.0</ele><time>2026-05-03T08:57:46.388Z</time></trkpt><trkpt lat="41.824425" lon="13.2698889"><ele>961.0</ele><time>2026-05-03T08:57:47.386Z</time></trkpt><trkpt lat="41.8243261" lon="13.2702505"><ele>956.0</ele><time>2026-05-03T08:57:48.385Z</time></trkpt><trkpt lat="41.824228" lon="13.2705928"><ele>951.0</ele><time>2026-05-03T08:57:49.386Z</time></trkpt><trkpt lat="41.8241328" lon="13.2709057"><ele>949.6666666666667</ele><time>2026-05-03T08:57:50.381Z</time></trkpt><trkpt lat="41.8240465" lon="13.2711931"><ele>948.3333333333334</ele><time>2026-05-03T08:57:51.386Z</time></trkpt><trkpt lat="41.8239698" lon="13.2714675"><ele>947.0</ele><time>2026-05-03T08:57:52.388Z</time></trkpt><trkpt lat="41.8238902" lon="13.2717338"><ele>947.3333333333334</ele><time>2026-05-03T08:57:53.388Z</time></trkpt><trkpt lat="41.82379" lon="13.2719949"><ele>947.6666666666667</ele><time>2026-05-03T08:57:54.39Z</time></trkpt><trkpt lat="41.8236655" lon="13.2722287"><ele>948.0</ele><time>2026-05-03T08:57:55.39Z</time></trkpt><trkpt lat="41.8235411" lon="13.2724566"><ele>945.0</ele><time>2026-05-03T08:57:56.393Z</time></trkpt><trkpt lat="41.8234299" lon="13.2726925"><ele>942.0</ele><time>2026-05-03T08:57:57.393Z</time></trkpt><trkpt lat="41.8233364" lon="13.2729206"><ele>939.0</ele><time>2026-05-03T08:57:58.392Z</time></trkpt><trkpt lat="41.823261" lon="13.2731447"><ele>938.3333333333333</ele><time>2026-05-03T08:57:59.389Z</time></trkpt><trkpt lat="41.8232027" lon="13.2733781"><ele>937.6666666666666</ele><time>2026-05-03T08:58:00.394Z</time></trkpt><trkpt lat="41.8231677" lon="13.273627"><ele>937.0</ele><time>2026-05-03T08:58:01.385Z</time></trkpt><trkpt lat="41.8231463" lon="13.2739148"><ele>937.5</ele><time>2026-05-03T08:58:02.394Z</time></trkpt><trkpt lat="41.8231344" lon="13.274236"><ele>938.0</ele><time>2026-05-03T08:58:03.386Z</time></trkpt><trkpt lat="41.8231082" lon="13.2745532"><ele>937.0</ele><time>2026-05-03T08:58:04.392Z</time></trkpt><trkpt lat="41.8230608" lon="13.2748519"><ele>936.0</ele><time>2026-05-03T08:58:05.39Z</time></trkpt><trkpt lat="41.8230034" lon="13.275142"><ele>936.0</ele><time>2026-05-03T08:58:06.387Z</time></trkpt><trkpt lat="41.8229468" lon="13.2754097"><ele>936.0</ele><time>2026-05-03T08:58:07.387Z</time></trkpt><trkpt lat="41.8228935" lon="13.2756732"><ele>936.0</ele><time>2026-05-03T08:58:08.386Z</time></trkpt><trkpt lat="41.8228444" lon="13.2759426"><ele>936.0</ele><time>2026-05-03T08:58:09.392Z</time></trkpt><trkpt lat="41.8228" lon="13.2761927"><ele>936.0</ele><time>2026-05-03T08:58:10.388Z</time></trkpt><trkpt lat="41.8227584" lon="13.2764227"><ele>936.0</ele><time>2026-05-03T08:58:11.386Z</time></trkpt><trkpt lat="41.8227155" lon="13.2766366"><ele>934.3333333333333</ele><time>2026-05-03T08:58:12.387Z</time></trkpt><trkpt lat="41.8226591" lon="13.2768364"><ele>932.6666666666666</ele><time>2026-05-03T08:58:13.386Z</time></trkpt><trkpt lat="41.8225779" lon="13.2770227"><ele>931.0</ele><time>2026-05-03T08:58:14.386Z</time></trkpt><trkpt lat="41.8224848" lon="13.2771926"><ele>926.6666666666666</ele><time>2026-05-03T08:58:15.385Z</time></trkpt><trkpt lat="41.8223947" lon="13.277362"><ele>922.3333333333333</ele><time>2026-05-03T08:58:16.375Z</time></trkpt><trkpt lat="41.8223401" lon="13.2775566"><ele>918.0</ele><time>2026-05-03T08:58:17.383Z</time></trkpt><trkpt lat="41.8222802" lon="13.2777295"><ele>918.0</ele><time>2026-05-03T08:58:18.387Z</time></trkpt><trkpt lat="41.8222063" lon="13.2778758"><ele>918.0</ele><time>2026-05-03T08:58:19.388Z</time></trkpt><trkpt lat="41.822102" lon="13.2779825"><ele>918.0</ele><time>2026-05-03T08:58:20.39Z</time></trkpt><trkpt lat="41.821972" lon="13.2780646"><ele>918.0</ele><time>2026-05-03T08:58:21.389Z</time></trkpt><trkpt lat="41.8218439" lon="13.2781664"><ele>915.6666666666667</ele><time>2026-05-03T08:58:22.39Z</time></trkpt><trkpt lat="41.8217161" lon="13.2782846"><ele>913.3333333333334</ele><time>2026-05-03T08:58:23.388Z</time></trkpt><trkpt lat="41.821558" lon="13.2784605"><ele>911.0</ele><time>2026-05-03T08:58:24.387Z</time></trkpt><trkpt lat="41.8214124" lon="13.2786219"><ele>911.0</ele><time>2026-05-03T08:58:25.381Z</time></trkpt><trkpt lat="41.8212734" lon="13.2787736"><ele>911.0</ele><time>2026-05-03T08:58:26.388Z</time></trkpt><trkpt lat="41.8211407" lon="13.2789158"><ele>911.0</ele><time>2026-05-03T08:58:27.392Z</time></trkpt><trkpt lat="41.8210296" lon="13.2790451"><ele>909.25</ele><time>2026-05-03T08:58:28.39Z</time></trkpt><trkpt lat="41.8209384" lon="13.2791841"><ele>907.5</ele><time>2026-05-03T08:58:29.387Z</time></trkpt><trkpt lat="41.8208542" lon="13.2793111"><ele>905.75</ele><time>2026-05-03T08:58:30.384Z</time></trkpt><trkpt lat="41.8208207" lon="13.2794732"><ele>904.0</ele><time>2026-05-03T08:58:31.394Z</time></trkpt><trkpt lat="41.820795" lon="13.2796063"><ele>904.0</ele><time>2026-05-03T08:58:32.397Z</time></trkpt><trkpt lat="41.8207622" lon="13.2797137"><ele>904.0000000000001</ele><time>2026-05-03T08:58:33.391Z</time></trkpt><trkpt lat="41.8207098" lon="13.2797836"><ele>904.0000000000001</ele><time>2026-05-03T08:58:34.391Z</time></trkpt><trkpt lat="41.82065" lon="13.2798249"><ele>904.0</ele><time>2026-05-03T08:58:35.39Z</time></trkpt><trkpt lat="41.8205278" lon="13.2797461"><ele>904.0</ele><time>2026-05-03T08:58:37.38Z</time></trkpt><trkpt lat="41.8204269" lon="13.2796642"><ele>904.0</ele><time>2026-05-03T08:58:38.373Z</time></trkpt><trkpt lat="41.820278" lon="13.2795808"><ele>904.0</ele><time>2026-05-03T08:58:39.387Z</time></trkpt><trkpt lat="41.8201388" lon="13.279499"><ele>904.0</ele><time>2026-05-03T08:58:40.388Z</time></trkpt><trkpt lat="41.8199899" lon="13.2794459"><ele>902.6666666666666</ele><time>2026-05-03T08:58:41.387Z</time></trkpt><trkpt lat="41.8198277" lon="13.2794375"><ele>901.3333333333333</ele><time>2026-05-03T08:58:42.386Z</time></trkpt><trkpt lat="41.8196552" lon="13.279472"><ele>900.0</ele><time>2026-05-03T08:58:43.387Z</time></trkpt><trkpt lat="41.8194608" lon="13.2795232"><ele>899.3333333333333</ele><time>2026-05-03T08:58:44.389Z</time></trkpt><trkpt lat="41.819257" lon="13.2795287"><ele>898.6666666666666</ele><time>2026-05-03T08:58:45.385Z</time></trkpt><trkpt lat="41.8190532" lon="13.2795292"><ele>898.0</ele><time>2026-05-03T08:58:46.387Z</time></trkpt><trkpt lat="41.8188304" lon="13.2795607"><ele>898.0</ele><time>2026-05-03T08:58:47.387Z</time></trkpt><trkpt lat="41.8185724" lon="13.279614"><ele>898.0</ele><time>2026-05-03T08:58:48.393Z</time></trkpt><trkpt lat="41.8182782" lon="13.279684"><ele>894.0</ele><time>2026-05-03T08:58:49.389Z</time></trkpt><trkpt lat="41.8179634" lon="13.2797631"><ele>890.0</ele><time>2026-05-03T08:58:50.387Z</time></trkpt><trkpt lat="41.8176723" lon="13.2798417"><ele>885.5</ele><time>2026-05-03T08:58:51.387Z</time></trkpt><trkpt lat="41.8173794" lon="13.279927"><ele>881.0</ele><time>2026-05-03T08:58:52.386Z</time></trkpt><trkpt lat="41.8170591" lon="13.2800074"><ele>878.5</ele><time>2026-05-03T08:58:53.387Z</time></trkpt><trkpt lat="41.8167625" lon="13.2800684"><ele>876.0</ele><time>2026-05-03T08:58:54.387Z</time></trkpt><trkpt lat="41.8164902" lon="13.2801328"><ele>876.0</ele><time>2026-05-03T08:58:55.387Z</time></trkpt><trkpt lat="41.8162407" lon="13.2801804"><ele>876.0</ele><time>2026-05-03T08:58:56.388Z</time></trkpt><trkpt lat="41.8160101" lon="13.2802049"><ele>874.0</ele><time>2026-05-03T08:58:57.381Z</time></trkpt><trkpt lat="41.8157934" lon="13.2802139"><ele>872.0</ele><time>2026-05-03T08:58:58.388Z</time></trkpt><trkpt lat="41.8155843" lon="13.280205"><ele>870.0</ele><time>2026-05-03T08:58:59.386Z</time></trkpt><trkpt lat="41.8153869" lon="13.2801856"><ele>870.0</ele><time>2026-05-03T08:59:00.386Z</time></trkpt><trkpt lat="41.8152127" lon="13.2801479"><ele>870.0</ele><time>2026-05-03T08:59:01.386Z</time></trkpt><trkpt lat="41.8150658" lon="13.280088"><ele>870.0</ele><time>2026-05-03T08:59:02.388Z</time></trkpt><trkpt lat="41.8149445" lon="13.2799901"><ele>868.25</ele><time>2026-05-03T08:59:03.388Z</time></trkpt><trkpt lat="41.8148254" lon="13.2799256"><ele>866.5</ele><time>2026-05-03T08:59:04.388Z</time></trkpt><trkpt lat="41.8146874" lon="13.2798856"><ele>864.75</ele><time>2026-05-03T08:59:05.388Z</time></trkpt><trkpt lat="41.8145491" lon="13.2798791"><ele>863.0</ele><time>2026-05-03T08:59:06.391Z</time></trkpt><trkpt lat="41.8144163" lon="13.2799059"><ele>862.0</ele><time>2026-05-03T08:59:07.394Z</time></trkpt><trkpt lat="41.8142755" lon="13.2799757"><ele>861.0</ele><time>2026-05-03T08:59:08.39Z</time></trkpt><trkpt lat="41.8141465" lon="13.2800432"><ele>860.0</ele><time>2026-05-03T08:59:09.391Z</time></trkpt><trkpt lat="41.8140155" lon="13.2800729"><ele>859.0</ele><time>2026-05-03T08:59:10.387Z</time></trkpt><trkpt lat="41.8138671" lon="13.2800758"><ele>859.0</ele><time>2026-05-03T08:59:11.388Z</time></trkpt><trkpt lat="41.8137297" lon="13.2800613"><ele>859.0000000000001</ele><time>2026-05-03T08:59:12.386Z</time></trkpt><trkpt lat="41.8136122" lon="13.2800398"><ele>859.0000000000001</ele><time>2026-05-03T08:59:13.389Z</time></trkpt><trkpt lat="41.813514" lon="13.280041"><ele>859.0</ele><time>2026-05-03T08:59:14.387Z</time></trkpt><trkpt lat="41.8134315" lon="13.2800894"><ele>859.0</ele><time>2026-05-03T08:59:15.386Z</time></trkpt><trkpt lat="41.8133652" lon="13.2801792"><ele>857.0</ele><time>2026-05-03T08:59:16.387Z</time></trkpt><trkpt lat="41.8133" lon="13.2803318"><ele>855.0</ele><time>2026-05-03T08:59:17.393Z</time></trkpt><trkpt lat="41.8132142" lon="13.2805387"><ele>853.0</ele><time>2026-05-03T08:59:18.386Z</time></trkpt><trkpt lat="41.8131254" lon="13.2807838"><ele>853.0</ele><time>2026-05-03T08:59:19.387Z</time></trkpt><trkpt lat="41.813048" lon="13.2809989"><ele>853.0</ele><time>2026-05-03T08:59:20.388Z</time></trkpt><trkpt lat="41.8129698" lon="13.2811976"><ele>853.0</ele><time>2026-05-03T08:59:21.393Z</time></trkpt><trkpt lat="41.8129072" lon="13.2814204"><ele>854.0</ele><time>2026-05-03T08:59:22.391Z</time></trkpt><trkpt lat="41.8128621" lon="13.2816331"><ele>855.0</ele><time>2026-05-03T08:59:23.388Z</time></trkpt><trkpt lat="41.8128258" lon="13.2818136"><ele>856.0</ele><time>2026-05-03T08:59:24.39Z</time></trkpt><trkpt lat="41.812791" lon="13.2819517"><ele>857.0</ele><time>2026-05-03T08:59:25.39Z</time></trkpt><trkpt lat="41.8127773" lon="13.2820727"><ele>857.0000000000001</ele><time>2026-05-03T08:59:26.388Z</time></trkpt><trkpt lat="41.8128056" lon="13.2821821"><ele>857.0</ele><time>2026-05-03T08:59:27.386Z</time></trkpt><trkpt lat="41.8128631" lon="13.2822751"><ele>857.0</ele><time>2026-05-03T08:59:28.385Z</time></trkpt><trkpt lat="41.8129199" lon="13.2823526"><ele>857.0</ele><time>2026-05-03T08:59:29.389Z</time></trkpt><trkpt lat="41.8129716" lon="13.2824104"><ele>857.0000000000001</ele><time>2026-05-03T08:59:30.388Z</time></trkpt><trkpt lat="41.8129671" lon="13.2824994"><ele>857.0</ele><time>2026-05-03T08:59:31.387Z</time></trkpt><trkpt lat="41.8128795" lon="13.2826119"><ele>856.2</ele><time>2026-05-03T08:59:33.389Z</time></trkpt><trkpt lat="41.8127756" lon="13.2825923"><ele>855.4000000000001</ele><time>2026-05-03T08:59:34.389Z</time></trkpt><trkpt lat="41.8126907" lon="13.2825798"><ele>854.5999999999999</ele><time>2026-05-03T08:59:35.388Z</time></trkpt><trkpt lat="41.8125921" lon="13.2826001"><ele>853.8</ele><time>2026-05-03T08:59:36.389Z</time></trkpt><trkpt lat="41.8124997" lon="13.2826727"><ele>853.0</ele><time>2026-05-03T08:59:37.39Z</time></trkpt><trkpt lat="41.812414" lon="13.2827931"><ele>852.5</ele><time>2026-05-03T08:59:38.393Z</time></trkpt><trkpt lat="41.812328" lon="13.2829339"><ele>852.0</ele><time>2026-05-03T08:59:39.389Z</time></trkpt><trkpt lat="41.8122049" lon="13.2830691"><ele>851.5</ele><time>2026-05-03T08:59:40.389Z</time></trkpt><trkpt lat="41.8120754" lon="13.2831783"><ele>851.0</ele><time>2026-05-03T08:59:41.387Z</time></trkpt><trkpt lat="41.8119594" lon="13.2832739"><ele>851.0</ele><time>2026-05-03T08:59:42.375Z</time></trkpt><trkpt lat="41.8118589" lon="13.2833933"><ele>851.0</ele><time>2026-05-03T08:59:43.389Z</time></trkpt><trkpt lat="41.8117776" lon="13.2835057"><ele>851.0</ele><time>2026-05-03T08:59:44.389Z</time></trkpt><trkpt lat="41.8117132" lon="13.2836222"><ele>851.0</ele><time>2026-05-03T08:59:45.387Z</time></trkpt><trkpt lat="41.8116736" lon="13.2837789"><ele>847.8</ele><time>2026-05-03T08:59:46.389Z</time></trkpt><trkpt lat="41.8116512" lon="13.2839377"><ele>844.5999999999999</ele><time>2026-05-03T08:59:47.387Z</time></trkpt><trkpt lat="41.8116078" lon="13.284065"><ele>841.4</ele><time>2026-05-03T08:59:48.388Z</time></trkpt><trkpt lat="41.8115415" lon="13.2841736"><ele>838.2</ele><time>2026-05-03T08:59:49.39Z</time></trkpt><trkpt lat="41.8114461" lon="13.2842699"><ele>835.0</ele><time>2026-05-03T08:59:50.394Z</time></trkpt><trkpt lat="41.8113059" lon="13.2843494"><ele>835.0</ele><time>2026-05-03T08:59:51.391Z</time></trkpt><trkpt lat="41.8111707" lon="13.2844343"><ele>835.0</ele><time>2026-05-03T08:59:52.391Z</time></trkpt><trkpt lat="41.8110414" lon="13.2845484"><ele>835.0</ele><time>2026-05-03T08:59:53.391Z</time></trkpt><trkpt lat="41.81093" lon="13.2846756"><ele>830.75</ele><time>2026-05-03T08:59:54.387Z</time></trkpt><trkpt lat="41.8108207" lon="13.284804"><ele>826.5</ele><time>2026-05-03T08:59:55.385Z</time></trkpt><trkpt lat="41.8107285" lon="13.284952"><ele>822.25</ele><time>2026-05-03T08:59:56.387Z</time></trkpt><trkpt lat="41.8106527" lon="13.285133"><ele>818.0</ele><time>2026-05-03T08:59:57.385Z</time></trkpt><trkpt lat="41.8105956" lon="13.2853338"><ele>818.0</ele><time>2026-05-03T08:59:58.388Z</time></trkpt><trkpt lat="41.8105525" lon="13.2855458"><ele>818.0</ele><time>2026-05-03T08:59:59.386Z</time></trkpt><trkpt lat="41.810496" lon="13.2857541"><ele>818.0</ele><time>2026-05-03T09:00:00.387Z</time></trkpt><trkpt lat="41.8104067" lon="13.2859586"><ele>822.3333333333334</ele><time>2026-05-03T09:00:01.386Z</time></trkpt><trkpt lat="41.8103309" lon="13.2861706"><ele>826.6666666666667</ele><time>2026-05-03T09:00:02.386Z</time></trkpt><trkpt lat="41.8102683" lon="13.2863972"><ele>831.0</ele><time>2026-05-03T09:00:03.388Z</time></trkpt><trkpt lat="41.8102098" lon="13.2866303"><ele>820.3333333333333</ele><time>2026-05-03T09:00:04.388Z</time></trkpt><trkpt lat="41.8101448" lon="13.2868371"><ele>809.6666666666666</ele><time>2026-05-03T09:00:05.385Z</time></trkpt><trkpt lat="41.8100607" lon="13.2870266"><ele>799.0</ele><time>2026-05-03T09:00:06.391Z</time></trkpt><trkpt lat="41.8099518" lon="13.287219"><ele>802.3333333333333</ele><time>2026-05-03T09:00:07.388Z</time></trkpt><trkpt lat="41.8098457" lon="13.2874302"><ele>805.6666666666667</ele><time>2026-05-03T09:00:08.39Z</time></trkpt><trkpt lat="41.8097383" lon="13.2876511"><ele>809.0</ele><time>2026-05-03T09:00:09.393Z</time></trkpt><trkpt lat="41.8096435" lon="13.287873"><ele>809.0</ele><time>2026-05-03T09:00:10.391Z</time></trkpt><trkpt lat="41.8095561" lon="13.2880709"><ele>809.0</ele><time>2026-05-03T09:00:11.386Z</time></trkpt><trkpt lat="41.8094789" lon="13.2882546"><ele>809.0</ele><time>2026-05-03T09:00:12.373Z</time></trkpt><trkpt lat="41.8094203" lon="13.2884295"><ele>805.5</ele><time>2026-05-03T09:00:13.39Z</time></trkpt><trkpt lat="41.8092616" lon="13.2887946"><ele>802.0</ele><time>2026-05-03T09:00:16.005Z</time></trkpt><trkpt lat="41.8094346" lon="13.2890472"><ele>802.0</ele><time>2026-05-03T09:00:17.377Z</time></trkpt><trkpt lat="41.8095521" lon="13.2891744"><ele>802.0</ele><time>2026-05-03T09:00:18.378Z</time></trkpt><trkpt lat="41.8096592" lon="13.2892771"><ele>802.0</ele><time>2026-05-03T09:00:19.376Z</time></trkpt><trkpt lat="41.8097771" lon="13.289343"><ele>802.0</ele><time>2026-05-03T09:00:20.386Z</time></trkpt><trkpt lat="41.8009007" lon="13.3106267"><ele>768.0</ele><time>2026-05-03T09:02:49.682Z</time></trkpt><trkpt lat="41.8007608" lon="13.3107229"><ele>734.0</ele><time>2026-05-03T09:02:52.383Z</time></trkpt><trkpt lat="41.8006893" lon="13.3108528"><ele>700.0</ele><time>2026-05-03T09:02:53.397Z</time></trkpt><trkpt lat="41.8006263" lon="13.311"><ele>666.0</ele><time>2026-05-03T09:02:54.381Z</time></trkpt><trkpt lat="41.8005588" lon="13.3111074"><ele>666.0</ele><time>2026-05-03T09:02:55.381Z</time></trkpt><trkpt lat="41.8004964" lon="13.3112077"><ele>666.0</ele><time>2026-05-03T09:02:56.377Z</time></trkpt><trkpt lat="41.8004131" lon="13.3112797"><ele>666.0</ele><time>2026-05-03T09:02:57.39Z</time></trkpt><trkpt lat="41.8003372" lon="13.3113617"><ele>666.0</ele><time>2026-05-03T09:02:58.388Z</time></trkpt><trkpt lat="41.8002507" lon="13.3114259"><ele>666.0</ele><time>2026-05-03T09:02:59.391Z</time></trkpt><trkpt lat="41.8001565" lon="13.3114852"><ele>663.8333333333334</ele><time>2026-05-03T09:03:00.394Z</time></trkpt><trkpt lat="41.8000734" lon="13.3115492"><ele>661.6666666666666</ele><time>2026-05-03T09:03:01.388Z</time></trkpt><trkpt lat="41.7999979" lon="13.3116164"><ele>659.5</ele><time>2026-05-03T09:03:02.393Z</time></trkpt><trkpt lat="41.7999315" lon="13.3116752"><ele>657.3333333333333</ele><time>2026-05-03T09:03:03.39Z</time></trkpt><trkpt lat="41.7998708" lon="13.3117295"><ele>655.1666666666666</ele><time>2026-05-03T09:03:04.386Z</time></trkpt><trkpt lat="41.7998183" lon="13.3117789"><ele>653.0</ele><time>2026-05-03T09:03:05.394Z</time></trkpt><trkpt lat="41.7997207" lon="13.3118637"><ele>653.0</ele><time>2026-05-03T09:03:07.399Z</time></trkpt><trkpt lat="41.799628" lon="13.3119373"><ele>653.0</ele><time>2026-05-03T09:03:09.402Z</time></trkpt><trkpt lat="41.799547" lon="13.3120567"><ele>653.0</ele><time>2026-05-03T09:03:11.398Z</time></trkpt><trkpt lat="41.7995147" lon="13.3121364"><ele>653.0</ele><time>2026-05-03T09:03:12.393Z</time></trkpt><trkpt lat="41.7994847" lon="13.3122185"><ele>653.0</ele><time>2026-05-03T09:03:13.399Z</time></trkpt><trkpt lat="41.7994374" lon="13.3123737"><ele>654.0</ele><time>2026-05-03T09:03:15.394Z</time></trkpt><trkpt lat="41.7994155" lon="13.312453"><ele>655.0</ele><time>2026-05-03T09:03:16.397Z</time></trkpt><trkpt lat="41.799489" lon="13.3125574"><ele>656.0</ele><time>2026-05-03T09:03:18.39Z</time></trkpt><trkpt lat="41.7995474" lon="13.312607"><ele>657.0</ele><time>2026-05-03T09:03:19.411Z</time></trkpt><trkpt lat="41.7996306" lon="13.3126595"><ele>658.0</ele><time>2026-05-03T09:03:20.388Z</time></trkpt><trkpt lat="41.799721" lon="13.3127223"><ele>659.0</ele><time>2026-05-03T09:03:21.405Z</time></trkpt><trkpt lat="41.7998138" lon="13.312796"><ele>659.0</ele><time>2026-05-03T09:03:22.392Z</time></trkpt><trkpt lat="41.7999003" lon="13.312872"><ele>659.0</ele><time>2026-05-03T09:03:23.394Z</time></trkpt><trkpt lat="41.7999747" lon="13.31296"><ele>659.0</ele><time>2026-05-03T09:03:24.386Z</time></trkpt><trkpt lat="41.8000461" lon="13.3130752"><ele>659.0</ele><time>2026-05-03T09:03:25.394Z</time></trkpt><trkpt lat="41.8001124" lon="13.3132148"><ele>659.0</ele><time>2026-05-03T09:03:26.384Z</time></trkpt><trkpt lat="41.8001782" lon="13.3133656"><ele>664.3333333333333</ele><time>2026-05-03T09:03:27.382Z</time></trkpt><trkpt lat="41.8002425" lon="13.3135396"><ele>669.6666666666666</ele><time>2026-05-03T09:03:28.396Z</time></trkpt><trkpt lat="41.8002938" lon="13.3137329"><ele>675.0</ele><time>2026-05-03T09:03:29.386Z</time></trkpt><trkpt lat="41.8003558" lon="13.3139509"><ele>675.0</ele><time>2026-05-03T09:03:30.39Z</time></trkpt><trkpt lat="41.8004158" lon="13.3141402"><ele>675.0</ele><time>2026-05-03T09:03:31.384Z</time></trkpt><trkpt lat="41.8004759" lon="13.3143078"><ele>675.0</ele><time>2026-05-03T09:03:32.394Z</time></trkpt><trkpt lat="41.8005294" lon="13.3144428"><ele>675.0</ele><time>2026-05-03T09:03:33.392Z</time></trkpt><trkpt lat="41.80059" lon="13.3145423"><ele>675.0</ele><time>2026-05-03T09:03:34.39Z</time></trkpt><trkpt lat="41.8006571" lon="13.3145952"><ele>675.0</ele><time>2026-05-03T09:03:35.388Z</time></trkpt><trkpt lat="41.8007321" lon="13.3145989"><ele>675.0</ele><time>2026-05-03T09:03:36.398Z</time></trkpt><trkpt lat="41.800812" lon="13.3145476"><ele>675.0</ele><time>2026-05-03T09:03:37.381Z</time></trkpt><trkpt lat="41.8008809" lon="13.314435"><ele>675.0</ele><time>2026-05-03T09:03:38.399Z</time></trkpt><trkpt lat="41.8009284" lon="13.3143019"><ele>675.0</ele><time>2026-05-03T09:03:39.389Z</time></trkpt><trkpt lat="41.8009338" lon="13.314155"><ele>675.0</ele><time>2026-05-03T09:03:40.383Z</time></trkpt><trkpt lat="41.8009431" lon="13.3140235"><ele>675.0</ele><time>2026-05-03T09:03:41.394Z</time></trkpt><trkpt lat="41.8008422" lon="13.313863"><ele>675.0</ele><time>2026-05-03T09:03:42.392Z</time></trkpt><trkpt lat="41.8007755" lon="13.31371"><ele>676.25</ele><time>2026-05-03T09:03:43.385Z</time></trkpt><trkpt lat="41.8007234" lon="13.31357"><ele>677.5</ele><time>2026-05-03T09:03:44.393Z</time></trkpt><trkpt lat="41.8006988" lon="13.3134076"><ele>678.75</ele><time>2026-05-03T09:03:45.398Z</time></trkpt><trkpt lat="41.800695" lon="13.3132209"><ele>680.0</ele><time>2026-05-03T09:03:46.389Z</time></trkpt><trkpt lat="41.8007153" lon="13.3130111"><ele>681.6666666666666</ele><time>2026-05-03T09:03:47.382Z</time></trkpt><trkpt lat="41.8007405" lon="13.3127667"><ele>683.3333333333334</ele><time>2026-05-03T09:03:48.388Z</time></trkpt><trkpt lat="41.8007428" lon="13.3125329"><ele>685.0</ele><time>2026-05-03T09:03:49.392Z</time></trkpt><trkpt lat="41.8007382" lon="13.3123353"><ele>684.0</ele><time>2026-05-03T09:03:50.389Z</time></trkpt><trkpt lat="41.8007412" lon="13.3121602"><ele>683.0</ele><time>2026-05-03T09:03:51.397Z</time></trkpt><trkpt lat="41.8007564" lon="13.3120059"><ele>682.0</ele><time>2026-05-03T09:03:52.395Z</time></trkpt><trkpt lat="41.8008009" lon="13.3118692"><ele>681.0</ele><time>2026-05-03T09:03:53.393Z</time></trkpt><trkpt lat="41.8008927" lon="13.3117294"><ele>687.3333333333334</ele><time>2026-05-03T09:03:54.385Z</time></trkpt><trkpt lat="41.801006" lon="13.3115662"><ele>693.6666666666667</ele><time>2026-05-03T09:03:55.392Z</time></trkpt><trkpt lat="41.801111" lon="13.3114031"><ele>700.0</ele><time>2026-05-03T09:03:56.39Z</time></trkpt><trkpt lat="41.8012079" lon="13.3112614"><ele>700.0</ele><time>2026-05-03T09:03:57.386Z</time></trkpt><trkpt lat="41.8013006" lon="13.3111274"><ele>700.0</ele><time>2026-05-03T09:03:58.396Z</time></trkpt><trkpt lat="41.8013993" lon="13.3109721"><ele>700.0</ele><time>2026-05-03T09:03:59.389Z</time></trkpt><trkpt lat="41.8015091" lon="13.3107722"><ele>692.6666666666667</ele><time>2026-05-03T09:04:00.39Z</time></trkpt><trkpt lat="41.8016221" lon="13.3105579"><ele>685.3333333333334</ele><time>2026-05-03T09:04:01.387Z</time></trkpt><trkpt lat="41.8017387" lon="13.3103302"><ele>678.0</ele><time>2026-05-03T09:04:02.409Z</time></trkpt><trkpt lat="41.8018605" lon="13.3100914"><ele>688.6666666666666</ele><time>2026-05-03T09:04:03.391Z</time></trkpt><trkpt lat="41.8019833" lon="13.3098469"><ele>699.3333333333333</ele><time>2026-05-03T09:04:04.388Z</time></trkpt><trkpt lat="41.8020949" lon="13.3096178"><ele>710.0</ele><time>2026-05-03T09:04:05.386Z</time></trkpt><trkpt lat="41.8021962" lon="13.3094136"><ele>710.0</ele><time>2026-05-03T09:04:06.383Z</time></trkpt><trkpt lat="41.8023029" lon="13.3092226"><ele>710.0</ele><time>2026-05-03T09:04:07.4Z</time></trkpt><trkpt lat="41.8024253" lon="13.3090369"><ele>710.0</ele><time>2026-05-03T09:04:08.387Z</time></trkpt><trkpt lat="41.8025518" lon="13.3088493"><ele>705.3333333333333</ele><time>2026-05-03T09:04:09.395Z</time></trkpt><trkpt lat="41.8026637" lon="13.3086702"><ele>700.6666666666666</ele><time>2026-05-03T09:04:10.392Z</time></trkpt><trkpt lat="41.8027568" lon="13.3084805"><ele>696.0</ele><time>2026-05-03T09:04:11.385Z</time></trkpt><trkpt lat="41.8028277" lon="13.3082568"><ele>710.6666666666666</ele><time>2026-05-03T09:04:12.392Z</time></trkpt><trkpt lat="41.8028759" lon="13.3080098"><ele>725.3333333333333</ele><time>2026-05-03T09:04:13.398Z</time></trkpt><trkpt lat="41.8029356" lon="13.3077709"><ele>740.0</ele><time>2026-05-03T09:04:14.387Z</time></trkpt><trkpt lat="41.8030174" lon="13.3075388"><ele>740.0</ele><time>2026-05-03T09:04:15.404Z</time></trkpt><trkpt lat="41.8031154" lon="13.3072887"><ele>740.0</ele><time>2026-05-03T09:04:16.388Z</time></trkpt><trkpt lat="41.8032443" lon="13.3070423"><ele>740.0</ele><time>2026-05-03T09:04:17.4Z</time></trkpt><trkpt lat="41.8033635" lon="13.3067894"><ele>743.6666666666666</ele><time>2026-05-03T09:04:18.388Z</time></trkpt><trkpt lat="41.8034569" lon="13.3065471"><ele>747.3333333333334</ele><time>2026-05-03T09:04:19.387Z</time></trkpt><trkpt lat="41.8035424" lon="13.306329"><ele>751.0</ele><time>2026-05-03T09:04:20.393Z</time></trkpt><trkpt lat="41.8036324" lon="13.3061285"><ele>751.0</ele><time>2026-05-03T09:04:21.392Z</time></trkpt><trkpt lat="41.8037404" lon="13.3059507"><ele>751.0</ele><time>2026-05-03T09:04:22.386Z</time></trkpt><trkpt lat="41.8038569" lon="13.3058064"><ele>751.0</ele><time>2026-05-03T09:04:23.388Z</time></trkpt><trkpt lat="41.8039589" lon="13.3056743"><ele>746.5</ele><time>2026-05-03T09:04:24.388Z</time></trkpt><trkpt lat="41.804031" lon="13.3055339"><ele>742.0</ele><time>2026-05-03T09:04:25.39Z</time></trkpt><trkpt lat="41.8040757" lon="13.3053795"><ele>737.5</ele><time>2026-05-03T09:04:26.385Z</time></trkpt><trkpt lat="41.8040921" lon="13.3052118"><ele>733.0</ele><time>2026-05-03T09:04:27.384Z</time></trkpt><trkpt lat="41.8041303" lon="13.3050518"><ele>733.0</ele><time>2026-05-03T09:04:28.39Z</time></trkpt><trkpt lat="41.8042039" lon="13.3048946"><ele>733.0</ele><time>2026-05-03T09:04:29.4Z</time></trkpt><trkpt lat="41.8043234" lon="13.3047386"><ele>733.0</ele><time>2026-05-03T09:04:30.396Z</time></trkpt><trkpt lat="41.8044639" lon="13.3045568"><ele>737.6666666666667</ele><time>2026-05-03T09:04:31.385Z</time></trkpt><trkpt lat="41.8046135" lon="13.3044003"><ele>742.3333333333334</ele><time>2026-05-03T09:04:32.392Z</time></trkpt><trkpt lat="41.8047451" lon="13.3042815"><ele>747.0</ele><time>2026-05-03T09:04:33.387Z</time></trkpt><trkpt lat="41.8048946" lon="13.3041906"><ele>747.0</ele><time>2026-05-03T09:04:34.385Z</time></trkpt><trkpt lat="41.8050571" lon="13.3041435"><ele>747.0</ele><time>2026-05-03T09:04:35.401Z</time></trkpt><trkpt lat="41.8051981" lon="13.3041234"><ele>747.0</ele><time>2026-05-03T09:04:36.385Z</time></trkpt><trkpt lat="41.8053204" lon="13.3041175"><ele>747.0</ele><time>2026-05-03T09:04:37.385Z</time></trkpt><trkpt lat="41.8054205" lon="13.3040838"><ele>754.75</ele><time>2026-05-03T09:04:38.383Z</time></trkpt><trkpt lat="41.8055078" lon="13.3040115"><ele>762.5</ele><time>2026-05-03T09:04:39.382Z</time></trkpt><trkpt lat="41.8055692" lon="13.3038696"><ele>770.25</ele><time>2026-05-03T09:04:40.392Z</time></trkpt><trkpt lat="41.8056045" lon="13.3036936"><ele>778.0</ele><time>2026-05-03T09:04:41.389Z</time></trkpt><trkpt lat="41.805608" lon="13.3035045"><ele>778.0</ele><time>2026-05-03T09:04:42.386Z</time></trkpt><trkpt lat="41.8055796" lon="13.3032881"><ele>778.0</ele><time>2026-05-03T09:04:43.4Z</time></trkpt><trkpt lat="41.805548" lon="13.3030553"><ele>778.0</ele><time>2026-05-03T09:04:44.388Z</time></trkpt><trkpt lat="41.8055242" lon="13.3027445"><ele>778.6666666666666</ele><time>2026-05-03T09:04:45.389Z</time></trkpt><trkpt lat="41.8055095" lon="13.3024634"><ele>779.3333333333333</ele><time>2026-05-03T09:04:46.39Z</time></trkpt><trkpt lat="41.8054919" lon="13.3022311"><ele>780.0</ele><time>2026-05-03T09:04:47.39Z</time></trkpt><trkpt lat="41.8054787" lon="13.3020455"><ele>780.0</ele><time>2026-05-03T09:04:48.39Z</time></trkpt><trkpt lat="41.8054806" lon="13.3019072"><ele>780.0</ele><time>2026-05-03T09:04:49.4Z</time></trkpt><trkpt lat="41.8054999" lon="13.3017975"><ele>780.0</ele><time>2026-05-03T09:04:50.395Z</time></trkpt><trkpt lat="41.8055643" lon="13.3017694"><ele>780.0</ele><time>2026-05-03T09:04:51.402Z</time></trkpt><trkpt lat="41.8056463" lon="13.3018294"><ele>780.0</ele><time>2026-05-03T09:04:53.384Z</time></trkpt><trkpt lat="41.8056567" lon="13.3019206"><ele>780.0</ele><time>2026-05-03T09:04:54.394Z</time></trkpt><trkpt lat="41.8056527" lon="13.3020588"><ele>780.0</ele><time>2026-05-03T09:04:55.382Z</time></trkpt><trkpt lat="41.8056596" lon="13.3022435"><ele>780.0</ele><time>2026-05-03T09:04:56.389Z</time></trkpt><trkpt lat="41.8056895" lon="13.3024623"><ele>780.0</ele><time>2026-05-03T09:04:57.395Z</time></trkpt><trkpt lat="41.8057321" lon="13.3027258"><ele>779.3333333333333</ele><time>2026-05-03T09:04:58.385Z</time></trkpt><trkpt lat="41.8057971" lon="13.3030064"><ele>778.6666666666666</ele><time>2026-05-03T09:04:59.391Z</time></trkpt><trkpt lat="41.8058521" lon="13.3032485"><ele>778.0</ele><time>2026-05-03T09:05:00.39Z</time></trkpt><trkpt lat="41.8058995" lon="13.3034723"><ele>778.0</ele><time>2026-05-03T09:05:01.403Z</time></trkpt><trkpt lat="41.8059444" lon="13.303694"><ele>778.0</ele><time>2026-05-03T09:05:02.394Z</time></trkpt><trkpt lat="41.8059808" lon="13.303884"><ele>778.0</ele><time>2026-05-03T09:05:03.383Z</time></trkpt><trkpt lat="41.8060105" lon="13.3040517"><ele>778.0</ele><time>2026-05-03T09:05:04.382Z</time></trkpt><trkpt lat="41.8060105" lon="13.3042081"><ele>779.0</ele><time>2026-05-03T09:05:05.38Z</time></trkpt><trkpt lat="41.8059868" lon="13.3043622"><ele>780.0</ele><time>2026-05-03T09:05:06.386Z</time></trkpt><trkpt lat="41.8059111" lon="13.3044912"><ele>781.0</ele><time>2026-05-03T09:05:07.387Z</time></trkpt><trkpt lat="41.8058076" lon="13.3045926"><ele>782.0</ele><time>2026-05-03T09:05:08.379Z</time></trkpt><trkpt lat="41.8056703" lon="13.3046695"><ele>782.0</ele><time>2026-05-03T09:05:09.381Z</time></trkpt><trkpt lat="41.8055425" lon="13.304724"><ele>782.0</ele><time>2026-05-03T09:05:10.395Z</time></trkpt><trkpt lat="41.8054198" lon="13.3047887"><ele>782.0</ele><time>2026-05-03T09:05:11.382Z</time></trkpt><trkpt lat="41.8053078" lon="13.3048782"><ele>782.0</ele><time>2026-05-03T09:05:12.383Z</time></trkpt><trkpt lat="41.8052222" lon="13.304992"><ele>780.6666666666667</ele><time>2026-05-03T09:05:13.39Z</time></trkpt><trkpt lat="41.8051577" lon="13.3051529"><ele>779.3333333333333</ele><time>2026-05-03T09:05:14.392Z</time></trkpt><trkpt lat="41.8051094" lon="13.3053635"><ele>778.0</ele><time>2026-05-03T09:05:15.396Z</time></trkpt><trkpt lat="41.805059" lon="13.3056065"><ele>783.0</ele><time>2026-05-03T09:05:16.388Z</time></trkpt><trkpt lat="41.8049934" lon="13.3058576"><ele>788.0</ele><time>2026-05-03T09:05:17.385Z</time></trkpt><trkpt lat="41.8049278" lon="13.3060863"><ele>793.0</ele><time>2026-05-03T09:05:18.384Z</time></trkpt><trkpt lat="41.8048378" lon="13.3063001"><ele>798.3333333333333</ele><time>2026-05-03T09:05:19.402Z</time></trkpt><trkpt lat="41.8047322" lon="13.3064876"><ele>803.6666666666667</ele><time>2026-05-03T09:05:20.389Z</time></trkpt><trkpt lat="41.8046336" lon="13.3066645"><ele>809.0</ele><time>2026-05-03T09:05:21.386Z</time></trkpt><trkpt lat="41.8045478" lon="13.3068774"><ele>809.0</ele><time>2026-05-03T09:05:22.397Z</time></trkpt><trkpt lat="41.8044734" lon="13.3071202"><ele>809.0</ele><time>2026-05-03T09:05:23.386Z</time></trkpt><trkpt lat="41.804404" lon="13.3073914"><ele>809.0</ele><time>2026-05-03T09:05:24.403Z</time></trkpt><trkpt lat="41.8043438" lon="13.3076836"><ele>805.6666666666667</ele><time>2026-05-03T09:05:25.387Z</time></trkpt><trkpt lat="41.8043093" lon="13.3079966"><ele>802.3333333333333</ele><time>2026-05-03T09:05:26.385Z</time></trkpt><trkpt lat="41.8042812" lon="13.3082684"><ele>799.0</ele><time>2026-05-03T09:05:27.403Z</time></trkpt><trkpt lat="41.8042543" lon="13.3085124"><ele>799.0</ele><time>2026-05-03T09:05:28.391Z</time></trkpt><trkpt lat="41.8042009" lon="13.3087579"><ele>799.0</ele><time>2026-05-03T09:05:29.395Z</time></trkpt><trkpt lat="41.8041239" lon="13.3090237"><ele>799.0</ele><time>2026-05-03T09:05:30.398Z</time></trkpt><trkpt lat="41.80402" lon="13.3093099"><ele>806.0</ele><time>2026-05-03T09:05:31.387Z</time></trkpt><trkpt lat="41.8038963" lon="13.3096058"><ele>813.0</ele><time>2026-05-03T09:05:32.389Z</time></trkpt><trkpt lat="41.8037878" lon="13.3098701"><ele>817.3333333333333</ele><time>2026-05-03T09:05:33.385Z</time></trkpt><trkpt lat="41.8036906" lon="13.3101054"><ele>821.6666666666666</ele><time>2026-05-03T09:05:34.393Z</time></trkpt><trkpt lat="41.8036054" lon="13.3103123"><ele>826.0</ele><time>2026-05-03T09:05:35.384Z</time></trkpt><trkpt lat="41.8035434" lon="13.3104946"><ele>827.4</ele><time>2026-05-03T09:05:36.391Z</time></trkpt><trkpt lat="41.8035071" lon="13.3106613"><ele>828.8</ele><time>2026-05-03T09:05:37.398Z</time></trkpt><trkpt lat="41.8035146" lon="13.3108085"><ele>830.1999999999999</ele><time>2026-05-03T09:05:38.387Z</time></trkpt><trkpt lat="41.8035653" lon="13.3109258"><ele>831.5999999999999</ele><time>2026-05-03T09:05:39.394Z</time></trkpt><trkpt lat="41.8036471" lon="13.3110044"><ele>833.0</ele><time>2026-05-03T09:05:40.395Z</time></trkpt><trkpt lat="41.8037496" lon="13.3110275"><ele>833.0</ele><time>2026-05-03T09:05:41.391Z</time></trkpt><trkpt lat="41.8038535" lon="13.310992"><ele>833.0</ele><time>2026-05-03T09:05:42.394Z</time></trkpt><trkpt lat="41.8039175" lon="13.3109064"><ele>833.0</ele><time>2026-05-03T09:05:43.386Z</time></trkpt><trkpt lat="41.8039563" lon="13.3107731"><ele>833.0</ele><time>2026-05-03T09:05:44.388Z</time></trkpt><trkpt lat="41.8039733" lon="13.3105833"><ele>833.0</ele><time>2026-05-03T09:05:45.391Z</time></trkpt><trkpt lat="41.803985" lon="13.3103921"><ele>830.6666666666667</ele><time>2026-05-03T09:05:46.395Z</time></trkpt><trkpt lat="41.8040126" lon="13.3102015"><ele>828.3333333333333</ele><time>2026-05-03T09:05:47.384Z</time></trkpt><trkpt lat="41.8040771" lon="13.3099882"><ele>826.0</ele><time>2026-05-03T09:05:48.398Z</time></trkpt><trkpt lat="41.8041886" lon="13.3097581"><ele>835.5</ele><time>2026-05-03T09:05:49.381Z</time></trkpt><trkpt lat="41.8043361" lon="13.3094927"><ele>845.0</ele><time>2026-05-03T09:05:50.385Z</time></trkpt><trkpt lat="41.8045182" lon="13.3091865"><ele>839.5</ele><time>2026-05-03T09:05:51.401Z</time></trkpt><trkpt lat="41.8047192" lon="13.3088543"><ele>834.0</ele><time>2026-05-03T09:05:52.387Z</time></trkpt><trkpt lat="41.8049013" lon="13.3085413"><ele>834.0</ele><time>2026-05-03T09:05:53.381Z</time></trkpt><trkpt lat="41.8050722" lon="13.3082513"><ele>834.0</ele><time>2026-05-03T09:05:54.398Z</time></trkpt><trkpt lat="41.8052295" lon="13.3079606"><ele>843.0</ele><time>2026-05-03T09:05:55.396Z</time></trkpt><trkpt lat="41.8053761" lon="13.3076455"><ele>852.0</ele><time>2026-05-03T09:05:56.394Z</time></trkpt><trkpt lat="41.8055125" lon="13.3073264"><ele>847.5</ele><time>2026-05-03T09:05:57.391Z</time></trkpt><trkpt lat="41.805633" lon="13.3070411"><ele>843.0</ele><time>2026-05-03T09:05:58.387Z</time></trkpt><trkpt lat="41.8057439" lon="13.3067794"><ele>843.0</ele><time>2026-05-03T09:05:59.382Z</time></trkpt><trkpt lat="41.8058466" lon="13.306541"><ele>843.0</ele><time>2026-05-03T09:06:00.4Z</time></trkpt><trkpt lat="41.8059468" lon="13.306304"><ele>843.0</ele><time>2026-05-03T09:06:01.385Z</time></trkpt><trkpt lat="41.8060492" lon="13.3060964"><ele>850.3333333333333</ele><time>2026-05-03T09:06:02.395Z</time></trkpt><trkpt lat="41.8061529" lon="13.3059285"><ele>857.6666666666666</ele><time>2026-05-03T09:06:03.386Z</time></trkpt><trkpt lat="41.8062695" lon="13.3057972"><ele>865.0</ele><time>2026-05-03T09:06:04.385Z</time></trkpt><trkpt lat="41.8063934" lon="13.3056961"><ele>865.0</ele><time>2026-05-03T09:06:05.395Z</time></trkpt><trkpt lat="41.806525" lon="13.3056246"><ele>865.0</ele><time>2026-05-03T09:06:06.386Z</time></trkpt><trkpt lat="41.8066546" lon="13.3055523"><ele>865.0</ele><time>2026-05-03T09:06:07.399Z</time></trkpt><trkpt lat="41.8067748" lon="13.3054761"><ele>865.0</ele><time>2026-05-03T09:06:08.386Z</time></trkpt><trkpt lat="41.806891" lon="13.3053968"><ele>869.0</ele><time>2026-05-03T09:06:09.386Z</time></trkpt><trkpt lat="41.8070045" lon="13.3053089"><ele>873.0</ele><time>2026-05-03T09:06:10.38Z</time></trkpt><trkpt lat="41.8071003" lon="13.3052145"><ele>877.0</ele><time>2026-05-03T09:06:11.395Z</time></trkpt><trkpt lat="41.807181" lon="13.3050969"><ele>881.0</ele><time>2026-05-03T09:06:12.39Z</time></trkpt><trkpt lat="41.8072422" lon="13.3049417"><ele>881.0</ele><time>2026-05-03T09:06:13.392Z</time></trkpt><trkpt lat="41.8072804" lon="13.3047779"><ele>881.0</ele><time>2026-05-03T09:06:14.404Z</time></trkpt><trkpt lat="41.8073027" lon="13.3046201"><ele>881.0</ele><time>2026-05-03T09:06:15.384Z</time></trkpt><trkpt lat="41.8072756" lon="13.3044576"><ele>881.0</ele><time>2026-05-03T09:06:16.39Z</time></trkpt><trkpt lat="41.8072615" lon="13.3042867"><ele>880.3333333333334</ele><time>2026-05-03T09:06:17.39Z</time></trkpt><trkpt lat="41.8072329" lon="13.3040801"><ele>879.6666666666667</ele><time>2026-05-03T09:06:18.396Z</time></trkpt><trkpt lat="41.8072026" lon="13.3038271"><ele>879.0</ele><time>2026-05-03T09:06:19.387Z</time></trkpt><trkpt lat="41.8071736" lon="13.3035426"><ele>883.5</ele><time>2026-05-03T09:06:20.397Z</time></trkpt><trkpt lat="41.8071402" lon="13.3032286"><ele>888.0</ele><time>2026-05-03T09:06:21.392Z</time></trkpt><trkpt lat="41.8071019" lon="13.3029201"><ele>890.3333333333333</ele><time>2026-05-03T09:06:22.387Z</time></trkpt><trkpt lat="41.8070676" lon="13.3026433"><ele>892.6666666666666</ele><time>2026-05-03T09:06:23.391Z</time></trkpt><trkpt lat="41.8070423" lon="13.3023759"><ele>895.0</ele><time>2026-05-03T09:06:24.384Z</time></trkpt><trkpt lat="41.807034" lon="13.3020905"><ele>895.3333333333333</ele><time>2026-05-03T09:06:25.386Z</time></trkpt><trkpt lat="41.8070485" lon="13.3018213"><ele>895.6666666666667</ele><time>2026-05-03T09:06:26.387Z</time></trkpt><trkpt lat="41.8070701" lon="13.301581"><ele>896.0</ele><time>2026-05-03T09:06:27.382Z</time></trkpt><trkpt lat="41.8071484" lon="13.3013875"><ele>891.6666666666667</ele><time>2026-05-03T09:06:28.396Z</time></trkpt><trkpt lat="41.8072082" lon="13.3011781"><ele>887.3333333333333</ele><time>2026-05-03T09:06:29.384Z</time></trkpt><trkpt lat="41.8073318" lon="13.3010246"><ele>883.0</ele><time>2026-05-03T09:06:30.39Z</time></trkpt><trkpt lat="41.8074035" lon="13.3008572"><ele>883.0</ele><time>2026-05-03T09:06:31.386Z</time></trkpt><trkpt lat="41.8074462" lon="13.3006562"><ele>883.0</ele><time>2026-05-03T09:06:32.387Z</time></trkpt><trkpt lat="41.8074944" lon="13.3004612"><ele>883.0</ele><time>2026-05-03T09:06:33.384Z</time></trkpt><trkpt lat="41.8075287" lon="13.3002562"><ele>883.5</ele><time>2026-05-03T09:06:34.378Z</time></trkpt><trkpt lat="41.8076153" lon="13.3000707"><ele>884.0</ele><time>2026-05-03T09:06:35.381Z</time></trkpt><trkpt lat="41.8077028" lon="13.2999039"><ele>884.5</ele><time>2026-05-03T09:06:36.389Z</time></trkpt><trkpt lat="41.8078075" lon="13.2997962"><ele>885.0</ele><time>2026-05-03T09:06:37.382Z</time></trkpt><trkpt lat="41.8079331" lon="13.2997394"><ele>885.0</ele><time>2026-05-03T09:06:38.392Z</time></trkpt><trkpt lat="41.8080691" lon="13.2997337"><ele>885.0</ele><time>2026-05-03T09:06:39.39Z</time></trkpt><trkpt lat="41.8081941" lon="13.2997847"><ele>885.0</ele><time>2026-05-03T09:06:40.389Z</time></trkpt><trkpt lat="41.8083089" lon="13.2998368"><ele>885.0</ele><time>2026-05-03T09:06:41.389Z</time></trkpt><trkpt lat="41.808414" lon="13.2998506"><ele>893.0</ele><time>2026-05-03T09:06:42.391Z</time></trkpt><trkpt lat="41.8085137" lon="13.29982"><ele>901.0</ele><time>2026-05-03T09:06:43.4Z</time></trkpt><trkpt lat="41.8085989" lon="13.299726"><ele>909.0</ele><time>2026-05-03T09:06:44.39Z</time></trkpt><trkpt lat="41.8086646" lon="13.2995759"><ele>917.0</ele><time>2026-05-03T09:06:45.389Z</time></trkpt><trkpt lat="41.8087067" lon="13.2993719"><ele>917.0</ele><time>2026-05-03T09:06:46.387Z</time></trkpt><trkpt lat="41.8087224" lon="13.2991413"><ele>917.0</ele><time>2026-05-03T09:06:47.387Z</time></trkpt><trkpt lat="41.8087347" lon="13.2989416"><ele>917.0</ele><time>2026-05-03T09:06:48.391Z</time></trkpt><trkpt lat="41.8087689" lon="13.2987634"><ele>912.3333333333334</ele><time>2026-05-03T09:06:49.382Z</time></trkpt><trkpt lat="41.8088391" lon="13.2986072"><ele>907.6666666666667</ele><time>2026-05-03T09:06:50.388Z</time></trkpt><trkpt lat="41.8088977" lon="13.2984439"><ele>903.0</ele><time>2026-05-03T09:06:51.488Z</time></trkpt><trkpt lat="41.8090917" lon="13.2983205"><ele>903.0</ele><time>2026-05-03T09:06:52.388Z</time></trkpt><trkpt lat="41.8092143" lon="13.2981822"><ele>903.0</ele><time>2026-05-03T09:06:53.386Z</time></trkpt><trkpt lat="41.8093367" lon="13.298072"><ele>903.0</ele><time>2026-05-03T09:06:54.39Z</time></trkpt><trkpt lat="41.8094895" lon="13.2979861"><ele>902.5</ele><time>2026-05-03T09:06:55.385Z</time></trkpt><trkpt lat="41.8096444" lon="13.2979444"><ele>902.0</ele><time>2026-05-03T09:06:56.383Z</time></trkpt><trkpt lat="41.8097848" lon="13.2979395"><ele>901.5</ele><time>2026-05-03T09:06:57.387Z</time></trkpt><trkpt lat="41.8099103" lon="13.2978985"><ele>901.0</ele><time>2026-05-03T09:06:58.397Z</time></trkpt><trkpt lat="41.8100151" lon="13.2978129"><ele>901.0</ele><time>2026-05-03T09:06:59.381Z</time></trkpt><trkpt lat="41.810104" lon="13.2976725"><ele>901.0</ele><time>2026-05-03T09:07:00.393Z</time></trkpt><trkpt lat="41.810167" lon="13.2974943"><ele>901.0</ele><time>2026-05-03T09:07:01.382Z</time></trkpt><trkpt lat="41.8102393" lon="13.2973286"><ele>901.0</ele><time>2026-05-03T09:07:02.387Z</time></trkpt><trkpt lat="41.8103385" lon="13.2971993"><ele>905.3333333333333</ele><time>2026-05-03T09:07:03.392Z</time></trkpt><trkpt lat="41.8104663" lon="13.2970994"><ele>909.6666666666667</ele><time>2026-05-03T09:07:04.384Z</time></trkpt><trkpt lat="41.8106145" lon="13.2970434"><ele>914.0</ele><time>2026-05-03T09:07:05.414Z</time></trkpt><trkpt lat="41.810774" lon="13.2970001"><ele>914.0</ele><time>2026-05-03T09:07:06.387Z</time></trkpt><trkpt lat="41.8109562" lon="13.2969923"><ele>914.0</ele><time>2026-05-03T09:07:07.384Z</time></trkpt><trkpt lat="41.81113" lon="13.2969902"><ele>914.0</ele><time>2026-05-03T09:07:08.391Z</time></trkpt><trkpt lat="41.8112762" lon="13.2970128"><ele>913.0</ele><time>2026-05-03T09:07:09.383Z</time></trkpt><trkpt lat="41.8113988" lon="13.297069"><ele>912.0</ele><time>2026-05-03T09:07:10.389Z</time></trkpt><trkpt lat="41.8115034" lon="13.2971732"><ele>911.0</ele><time>2026-05-03T09:07:11.386Z</time></trkpt><trkpt lat="41.8115944" lon="13.2973343"><ele>910.0</ele><time>2026-05-03T09:07:12.384Z</time></trkpt><trkpt lat="41.8116668" lon="13.2975261"><ele>913.0</ele><time>2026-05-03T09:07:13.388Z</time></trkpt><trkpt lat="41.8117388" lon="13.2976978"><ele>916.0</ele><time>2026-05-03T09:07:14.383Z</time></trkpt><trkpt lat="41.8118401" lon="13.2978467"><ele>919.0</ele><time>2026-05-03T09:07:15.382Z</time></trkpt><trkpt lat="41.8119621" lon="13.2979563"><ele>922.0</ele><time>2026-05-03T09:07:16.388Z</time></trkpt><trkpt lat="41.8120703" lon="13.2980643"><ele>925.3333333333333</ele><time>2026-05-03T09:07:17.38Z</time></trkpt><trkpt lat="41.8121655" lon="13.2982121"><ele>928.6666666666667</ele><time>2026-05-03T09:07:18.384Z</time></trkpt><trkpt lat="41.8122362" lon="13.2983959"><ele>932.0</ele><time>2026-05-03T09:07:19.386Z</time></trkpt><trkpt lat="41.8122841" lon="13.2986238"><ele>932.0</ele><time>2026-05-03T09:07:20.393Z</time></trkpt><trkpt lat="41.8123321" lon="13.2988683"><ele>932.0</ele><time>2026-05-03T09:07:21.383Z</time></trkpt><trkpt lat="41.8123969" lon="13.2991114"><ele>932.0</ele><time>2026-05-03T09:07:22.392Z</time></trkpt><trkpt lat="41.8124831" lon="13.2993348"><ele>936.0</ele><time>2026-05-03T09:07:23.388Z</time></trkpt><trkpt lat="41.8125666" lon="13.2995217"><ele>940.0</ele><time>2026-05-03T09:07:24.388Z</time></trkpt><trkpt lat="41.8126549" lon="13.299689"><ele>944.0</ele><time>2026-05-03T09:07:25.382Z</time></trkpt><trkpt lat="41.8127375" lon="13.2998373"><ele>947.0</ele><time>2026-05-03T09:07:26.384Z</time></trkpt><trkpt lat="41.8128322" lon="13.2999391"><ele>950.0</ele><time>2026-05-03T09:07:27.395Z</time></trkpt><trkpt lat="41.8129336" lon="13.3000114"><ele>953.0</ele><time>2026-05-03T09:07:28.388Z</time></trkpt><trkpt lat="41.8130418" lon="13.3000389"><ele>956.0</ele><time>2026-05-03T09:07:29.396Z</time></trkpt><trkpt lat="41.8131471" lon="13.3000772"><ele>956.0</ele><time>2026-05-03T09:07:30.387Z</time></trkpt><trkpt lat="41.8132408" lon="13.2999381"><ele>956.0</ele><time>2026-05-03T09:07:31.38Z</time></trkpt><trkpt lat="41.8133195" lon="13.2998247"><ele>956.0</ele><time>2026-05-03T09:07:32.381Z</time></trkpt><trkpt lat="41.8133673" lon="13.2996615"><ele>956.0</ele><time>2026-05-03T09:07:33.389Z</time></trkpt><trkpt lat="41.8133776" lon="13.2994754"><ele>954.5</ele><time>2026-05-03T09:07:34.385Z</time></trkpt><trkpt lat="41.8133585" lon="13.299289"><ele>953.0</ele><time>2026-05-03T09:07:35.394Z</time></trkpt><trkpt lat="41.8133526" lon="13.2991408"><ele>951.5</ele><time>2026-05-03T09:07:36.387Z</time></trkpt><trkpt lat="41.8133499" lon="13.2989889"><ele>950.0</ele><time>2026-05-03T09:07:37.381Z</time></trkpt><trkpt lat="41.8134586" lon="13.2988842"><ele>950.75</ele><time>2026-05-03T09:07:38.39Z</time></trkpt><trkpt lat="41.8135291" lon="13.2988363"><ele>951.5</ele><time>2026-05-03T09:07:39.381Z</time></trkpt><trkpt lat="41.8136319" lon="13.2988496"><ele>952.25</ele><time>2026-05-03T09:07:40.392Z</time></trkpt><trkpt lat="41.8137416" lon="13.2989306"><ele>953.0</ele><time>2026-05-03T09:07:41.386Z</time></trkpt><trkpt lat="41.8138507" lon="13.2990671"><ele>953.0</ele><time>2026-05-03T09:07:42.385Z</time></trkpt><trkpt lat="41.8139397" lon="13.2992566"><ele>953.0</ele><time>2026-05-03T09:07:43.385Z</time></trkpt><trkpt lat="41.8140245" lon="13.2994753"><ele>953.0</ele><time>2026-05-03T09:07:44.382Z</time></trkpt><trkpt lat="41.8141249" lon="13.2997158"><ele>956.3333333333334</ele><time>2026-05-03T09:07:45.381Z</time></trkpt><trkpt lat="41.814231" lon="13.2999336"><ele>959.6666666666667</ele><time>2026-05-03T09:07:46.383Z</time></trkpt><trkpt lat="41.8143282" lon="13.3001135"><ele>963.0</ele><time>2026-05-03T09:07:47.38Z</time></trkpt><trkpt lat="41.8144094" lon="13.3002809"><ele>965.75</ele><time>2026-05-03T09:07:48.382Z</time></trkpt><trkpt lat="41.8144502" lon="13.3004527"><ele>968.5</ele><time>2026-05-03T09:07:49.388Z</time></trkpt><trkpt lat="41.8144548" lon="13.3006521"><ele>971.25</ele><time>2026-05-03T09:07:50.38Z</time></trkpt><trkpt lat="41.8144324" lon="13.3008557"><ele>974.0</ele><time>2026-05-03T09:07:51.382Z</time></trkpt><trkpt lat="41.8144006" lon="13.3010239"><ele>973.5</ele><time>2026-05-03T09:07:52.392Z</time></trkpt><trkpt lat="41.8143365" lon="13.3011656"><ele>973.0</ele><time>2026-05-03T09:07:53.387Z</time></trkpt><trkpt lat="41.8142327" lon="13.3012765"><ele>972.5</ele><time>2026-05-03T09:07:54.387Z</time></trkpt><trkpt lat="41.8141077" lon="13.3013459"><ele>972.0</ele><time>2026-05-03T09:07:55.399Z</time></trkpt><trkpt lat="41.8139723" lon="13.3013693"><ele>972.0</ele><time>2026-05-03T09:07:56.385Z</time></trkpt><trkpt lat="41.8138415" lon="13.3013417"><ele>972.0</ele><time>2026-05-03T09:07:57.394Z</time></trkpt><trkpt lat="41.8137173" lon="13.3013199"><ele>972.0</ele><time>2026-05-03T09:07:58.393Z</time></trkpt><trkpt lat="41.8135956" lon="13.3013283"><ele>972.0</ele><time>2026-05-03T09:07:59.388Z</time></trkpt><trkpt lat="41.8134849" lon="13.3013836"><ele>974.75</ele><time>2026-05-03T09:08:00.391Z</time></trkpt><trkpt lat="41.8133861" lon="13.3014831"><ele>977.5</ele><time>2026-05-03T09:08:01.394Z</time></trkpt><trkpt lat="41.8133112" lon="13.3015944"><ele>980.25</ele><time>2026-05-03T09:08:02.382Z</time></trkpt><trkpt lat="41.8132268" lon="13.3017066"><ele>983.0</ele><time>2026-05-03T09:08:03.391Z</time></trkpt><trkpt lat="41.8131228" lon="13.3017805"><ele>983.0</ele><time>2026-05-03T09:08:04.403Z</time></trkpt><trkpt lat="41.813014" lon="13.3018158"><ele>983.0</ele><time>2026-05-03T09:08:05.387Z</time></trkpt><trkpt lat="41.812902" lon="13.301864"><ele>983.0</ele><time>2026-05-03T09:08:06.395Z</time></trkpt><trkpt lat="41.8128014" lon="13.301927"><ele>983.0</ele><time>2026-05-03T09:08:07.394Z</time></trkpt><trkpt lat="41.8127132" lon="13.3020183"><ele>983.0</ele><time>2026-05-03T09:08:08.393Z</time></trkpt><trkpt lat="41.8126428" lon="13.3021395"><ele>983.0</ele><time>2026-05-03T09:08:09.397Z</time></trkpt><trkpt lat="41.8125931" lon="13.3022759"><ele>983.0</ele><time>2026-05-03T09:08:10.398Z</time></trkpt><trkpt lat="41.812562" lon="13.3024254"><ele>983.0</ele><time>2026-05-03T09:08:11.4Z</time></trkpt><trkpt lat="41.812554" lon="13.3025718"><ele>985.4</ele><time>2026-05-03T09:08:12.398Z</time></trkpt><trkpt lat="41.8125541" lon="13.3026965"><ele>987.8</ele><time>2026-05-03T09:08:13.391Z</time></trkpt><trkpt lat="41.8125225" lon="13.3027895"><ele>990.2</ele><time>2026-05-03T09:08:14.385Z</time></trkpt><trkpt lat="41.8124465" lon="13.302865"><ele>992.6</ele><time>2026-05-03T09:08:15.386Z</time></trkpt><trkpt lat="41.8123492" lon="13.3028989"><ele>995.0</ele><time>2026-05-03T09:08:16.386Z</time></trkpt><trkpt lat="41.8122552" lon="13.3029029"><ele>995.0</ele><time>2026-05-03T09:08:17.39Z</time></trkpt><trkpt lat="41.8121697" lon="13.302882"><ele>995.0</ele><time>2026-05-03T09:08:18.382Z</time></trkpt><trkpt lat="41.8120825" lon="13.3028294"><ele>995.0</ele><time>2026-05-03T09:08:19.386Z</time></trkpt><trkpt lat="41.8120017" lon="13.3027448"><ele>995.0</ele><time>2026-05-03T09:08:20.384Z</time></trkpt><trkpt lat="41.8119258" lon="13.3026348"><ele>995.0</ele><time>2026-05-03T09:08:21.382Z</time></trkpt><trkpt lat="41.8118943" lon="13.3024847"><ele>995.0</ele><time>2026-05-03T09:08:22.386Z</time></trkpt><trkpt lat="41.8118392" lon="13.3023704"><ele>995.0</ele><time>2026-05-03T09:08:23.392Z</time></trkpt><trkpt lat="41.8117599" lon="13.3022704"><ele>995.0</ele><time>2026-05-03T09:08:24.385Z</time></trkpt><trkpt lat="41.8116557" lon="13.302199"><ele>995.0</ele><time>2026-05-03T09:08:25.391Z</time></trkpt><trkpt lat="41.8115434" lon="13.3021606"><ele>995.0</ele><time>2026-05-03T09:08:26.398Z</time></trkpt><trkpt lat="41.8114248" lon="13.30215"><ele>995.25</ele><time>2026-05-03T09:08:27.4Z</time></trkpt><trkpt lat="41.8112923" lon="13.3021897"><ele>995.5</ele><time>2026-05-03T09:08:28.392Z</time></trkpt><trkpt lat="41.8111753" lon="13.3022509"><ele>995.75</ele><time>2026-05-03T09:08:29.399Z</time></trkpt><trkpt lat="41.8110775" lon="13.3023106"><ele>996.0</ele><time>2026-05-03T09:08:30.391Z</time></trkpt><trkpt lat="41.8109901" lon="13.3023903"><ele>998.25</ele><time>2026-05-03T09:08:31.382Z</time></trkpt><trkpt lat="41.8109089" lon="13.3025177"><ele>1000.5</ele><time>2026-05-03T09:08:32.39Z</time></trkpt><trkpt lat="41.8108639" lon="13.302675"><ele>1002.75</ele><time>2026-05-03T09:08:33.382Z</time></trkpt><trkpt lat="41.8108485" lon="13.3028563"><ele>1005.0</ele><time>2026-05-03T09:08:34.4Z</time></trkpt><trkpt lat="41.8108428" lon="13.3030358"><ele>1007.0</ele><time>2026-05-03T09:08:35.392Z</time></trkpt><trkpt lat="41.8108353" lon="13.3032078"><ele>1009.0</ele><time>2026-05-03T09:08:36.395Z</time></trkpt><trkpt lat="41.8108338" lon="13.3033576"><ele>1011.0</ele><time>2026-05-03T09:08:37.395Z</time></trkpt><trkpt lat="41.8108337" lon="13.3034905"><ele>1013.0</ele><time>2026-05-03T09:08:38.392Z</time></trkpt><trkpt lat="41.8108173" lon="13.3036223"><ele>1015.0</ele><time>2026-05-03T09:08:39.387Z</time></trkpt><trkpt lat="41.8107775" lon="13.3037319"><ele>1015.0</ele><time>2026-05-03T09:08:40.385Z</time></trkpt><trkpt lat="41.8107113" lon="13.3038371"><ele>1015.0</ele><time>2026-05-03T09:08:41.386Z</time></trkpt><trkpt lat="41.8106175" lon="13.3039126"><ele>1015.0</ele><time>2026-05-03T09:08:42.383Z</time></trkpt><trkpt lat="41.8105137" lon="13.3039842"><ele>1015.0</ele><time>2026-05-03T09:08:43.391Z</time></trkpt><trkpt lat="41.8104038" lon="13.3040511"><ele>1015.0</ele><time>2026-05-03T09:08:44.402Z</time></trkpt><trkpt lat="41.8102889" lon="13.3041241"><ele>1014.25</ele><time>2026-05-03T09:08:45.394Z</time></trkpt><trkpt lat="41.8101837" lon="13.3042042"><ele>1013.5</ele><time>2026-05-03T09:08:46.397Z</time></trkpt><trkpt lat="41.8100935" lon="13.3043073"><ele>1012.75</ele><time>2026-05-03T09:08:47.385Z</time></trkpt><trkpt lat="41.8100334" lon="13.3044313"><ele>1012.0</ele><time>2026-05-03T09:08:48.388Z</time></trkpt><trkpt lat="41.8099948" lon="13.3045967"><ele>1015.6666666666666</ele><time>2026-05-03T09:08:49.405Z</time></trkpt><trkpt lat="41.8099692" lon="13.3048111"><ele>1019.3333333333333</ele><time>2026-05-03T09:08:50.4Z</time></trkpt><trkpt lat="41.8099279" lon="13.3050541"><ele>1023.0</ele><time>2026-05-03T09:08:51.395Z</time></trkpt><trkpt lat="41.8098895" lon="13.3052869"><ele>1023.0</ele><time>2026-05-03T09:08:52.392Z</time></trkpt><trkpt lat="41.8098656" lon="13.3055131"><ele>1023.0</ele><time>2026-05-03T09:08:53.4Z</time></trkpt><trkpt lat="41.8098696" lon="13.3057496"><ele>1023.0</ele><time>2026-05-03T09:08:54.395Z</time></trkpt><trkpt lat="41.8098844" lon="13.3059625"><ele>1025.6666666666667</ele><time>2026-05-03T09:08:55.38Z</time></trkpt><trkpt lat="41.8098841" lon="13.3061552"><ele>1028.3333333333335</ele><time>2026-05-03T09:08:56.397Z</time></trkpt><trkpt lat="41.8098546" lon="13.3063456"><ele>1031.0</ele><time>2026-05-03T09:08:57.39Z</time></trkpt><trkpt lat="41.8097832" lon="13.3065433"><ele>1034.3333333333335</ele><time>2026-05-03T09:08:58.389Z</time></trkpt><trkpt lat="41.8096893" lon="13.306752"><ele>1037.6666666666667</ele><time>2026-05-03T09:08:59.39Z</time></trkpt><trkpt lat="41.8096102" lon="13.3069866"><ele>1041.0</ele><time>2026-05-03T09:09:00.391Z</time></trkpt><trkpt lat="41.8095451" lon="13.3072173"><ele>1045.3333333333333</ele><time>2026-05-03T09:09:01.387Z</time></trkpt><trkpt lat="41.8095066" lon="13.3074203"><ele>1049.6666666666665</ele><time>2026-05-03T09:09:02.39Z</time></trkpt><trkpt lat="41.809458" lon="13.3076048"><ele>1054.0</ele><time>2026-05-03T09:09:03.385Z</time></trkpt><trkpt lat="41.809382" lon="13.3077867"><ele>1052.6666666666665</ele><time>2026-05-03T09:09:04.382Z</time></trkpt><trkpt lat="41.8093115" lon="13.3079745"><ele>1051.3333333333333</ele><time>2026-05-03T09:09:05.384Z</time></trkpt><trkpt lat="41.809145" lon="13.3080586"><ele>1050.0</ele><time>2026-05-03T09:09:06.382Z</time></trkpt><trkpt lat="41.809037" lon="13.3081799"><ele>1050.0</ele><time>2026-05-03T09:09:07.38Z</time></trkpt><trkpt lat="41.8089379" lon="13.3083352"><ele>1050.0</ele><time>2026-05-03T09:09:08.385Z</time></trkpt><trkpt lat="41.8088614" lon="13.3085281"><ele>1050.0</ele><time>2026-05-03T09:09:09.387Z</time></trkpt><trkpt lat="41.8087931" lon="13.3087132"><ele>1050.0</ele><time>2026-05-03T09:09:10.389Z</time></trkpt><trkpt lat="41.8087096" lon="13.3088679"><ele>1050.0</ele><time>2026-05-03T09:09:11.388Z</time></trkpt><trkpt lat="41.8086023" lon="13.3089918"><ele>1050.0</ele><time>2026-05-03T09:09:12.384Z</time></trkpt><trkpt lat="41.8084838" lon="13.3090716"><ele>1050.0</ele><time>2026-05-03T09:09:13.384Z</time></trkpt><trkpt lat="41.8083702" lon="13.3091538"><ele>1050.5</ele><time>2026-05-03T09:09:14.385Z</time></trkpt><trkpt lat="41.8082838" lon="13.3092706"><ele>1051.0</ele><time>2026-05-03T09:09:15.387Z</time></trkpt><trkpt lat="41.8082266" lon="13.3094124"><ele>1051.5</ele><time>2026-05-03T09:09:16.399Z</time></trkpt><trkpt lat="41.8082051" lon="13.3095617"><ele>1052.0</ele><time>2026-05-03T09:09:17.39Z</time></trkpt><trkpt lat="41.8082136" lon="13.3097578"><ele>1052.0</ele><time>2026-05-03T09:09:18.384Z</time></trkpt><trkpt lat="41.8082311" lon="13.3100066"><ele>1052.0</ele><time>2026-05-03T09:09:19.388Z</time></trkpt><trkpt lat="41.8082505" lon="13.3102679"><ele>1052.0</ele><time>2026-05-03T09:09:20.4Z</time></trkpt><trkpt lat="41.8082769" lon="13.3105112"><ele>1052.3333333333335</ele><time>2026-05-03T09:09:21.383Z</time></trkpt><trkpt lat="41.8083202" lon="13.3107354"><ele>1052.6666666666667</ele><time>2026-05-03T09:09:22.393Z</time></trkpt><trkpt lat="41.8083682" lon="13.3109443"><ele>1053.0</ele><time>2026-05-03T09:09:23.387Z</time></trkpt><trkpt lat="41.8084233" lon="13.3111304"><ele>1053.0</ele><time>2026-05-03T09:09:24.388Z</time></trkpt><trkpt lat="41.8084841" lon="13.31128"><ele>1053.0</ele><time>2026-05-03T09:09:25.381Z</time></trkpt><trkpt lat="41.8085604" lon="13.3113961"><ele>1053.0</ele><time>2026-05-03T09:09:26.385Z</time></trkpt><trkpt lat="41.8086574" lon="13.3114715"><ele>1053.0</ele><time>2026-05-03T09:09:27.391Z</time></trkpt><trkpt lat="41.8087579" lon="13.3114912"><ele>1058.0</ele><time>2026-05-03T09:09:28.387Z</time></trkpt><trkpt lat="41.8088501" lon="13.3114558"><ele>1063.0</ele><time>2026-05-03T09:09:29.385Z</time></trkpt><trkpt lat="41.8089307" lon="13.311371"><ele>1068.0</ele><time>2026-05-03T09:09:30.381Z</time></trkpt><trkpt lat="41.8089927" lon="13.3112492"><ele>1073.0</ele><time>2026-05-03T09:09:31.385Z</time></trkpt><trkpt lat="41.809024" lon="13.3110944"><ele>1078.0</ele><time>2026-05-03T09:09:32.386Z</time></trkpt><trkpt lat="41.809025" lon="13.310927"><ele>1078.25</ele><time>2026-05-03T09:09:33.384Z</time></trkpt><trkpt lat="41.8089983" lon="13.3107478"><ele>1078.5</ele><time>2026-05-03T09:09:34.381Z</time></trkpt><trkpt lat="41.8089847" lon="13.3105702"><ele>1078.75</ele><time>2026-05-03T09:09:35.39Z</time></trkpt><trkpt lat="41.8090578" lon="13.3103777"><ele>1079.0</ele><time>2026-05-03T09:09:36.388Z</time></trkpt><trkpt lat="41.8091023" lon="13.3102056"><ele>1078.0</ele><time>2026-05-03T09:09:37.385Z</time></trkpt><trkpt lat="41.8091702" lon="13.3100524"><ele>1077.0</ele><time>2026-05-03T09:09:38.389Z</time></trkpt><trkpt lat="41.8092496" lon="13.3099343"><ele>1076.0</ele><time>2026-05-03T09:09:39.383Z</time></trkpt><trkpt lat="41.8093636" lon="13.3098389"><ele>1075.0</ele><time>2026-05-03T09:09:40.39Z</time></trkpt><trkpt lat="41.8094953" lon="13.3097513"><ele>1075.6666666666665</ele><time>2026-05-03T09:09:41.398Z</time></trkpt><trkpt lat="41.8096516" lon="13.3096784"><ele>1076.3333333333333</ele><time>2026-05-03T09:09:42.387Z</time></trkpt><trkpt lat="41.809805" lon="13.3096017"><ele>1077.0</ele><time>2026-05-03T09:09:43.386Z</time></trkpt><trkpt lat="41.8099502" lon="13.3095599"><ele>1077.0</ele><time>2026-05-03T09:09:44.401Z</time></trkpt><trkpt lat="41.8100731" lon="13.3095407"><ele>1077.0</ele><time>2026-05-03T09:09:45.389Z</time></trkpt><trkpt lat="41.8101749" lon="13.3094764"><ele>1077.0</ele><time>2026-05-03T09:09:46.386Z</time></trkpt><trkpt lat="41.8102679" lon="13.3093586"><ele>1077.0</ele><time>2026-05-03T09:09:47.39Z</time></trkpt><trkpt lat="41.8103515" lon="13.3092033"><ele>1078.0</ele><time>2026-05-03T09:09:48.396Z</time></trkpt><trkpt lat="41.8104367" lon="13.3090464"><ele>1079.0</ele><time>2026-05-03T09:09:49.389Z</time></trkpt><trkpt lat="41.8105297" lon="13.3089116"><ele>1080.0</ele><time>2026-05-03T09:09:50.394Z</time></trkpt><trkpt lat="41.8106211" lon="13.3087963"><ele>1081.0</ele><time>2026-05-03T09:09:51.389Z</time></trkpt><trkpt lat="41.8107242" lon="13.3087151"><ele>1081.0</ele><time>2026-05-03T09:09:52.388Z</time></trkpt><trkpt lat="41.8108257" lon="13.3086485"><ele>1081.0</ele><time>2026-05-03T09:09:53.393Z</time></trkpt><trkpt lat="41.8109515" lon="13.3087241"><ele>1081.0</ele><time>2026-05-03T09:09:54.395Z</time></trkpt><trkpt lat="41.8110667" lon="13.3087505"><ele>1081.0</ele><time>2026-05-03T09:09:55.384Z</time></trkpt><trkpt lat="41.8112079" lon="13.3088504"><ele>1084.6666666666665</ele><time>2026-05-03T09:09:56.401Z</time></trkpt><trkpt lat="41.8113286" lon="13.3089639"><ele>1088.3333333333333</ele><time>2026-05-03T09:09:57.392Z</time></trkpt><trkpt lat="41.811273" lon="13.3093189"><ele>1092.0</ele><time>2026-05-03T09:09:58.385Z</time></trkpt><trkpt lat="41.8113281" lon="13.3095955"><ele>1095.5</ele><time>2026-05-03T09:09:59.396Z</time></trkpt><trkpt lat="41.8113899" lon="13.3098914"><ele>1099.0</ele><time>2026-05-03T09:10:00.388Z</time></trkpt><trkpt lat="41.8114326" lon="13.3102933"><ele>1099.5</ele><time>2026-05-03T09:10:01.381Z</time></trkpt><trkpt lat="41.8114708" lon="13.310601"><ele>1100.0</ele><time>2026-05-03T09:10:02.388Z</time></trkpt><trkpt lat="41.8114991" lon="13.310893"><ele>1100.0</ele><time>2026-05-03T09:10:03.388Z</time></trkpt><trkpt lat="41.8115215" lon="13.311144"><ele>1100.0</ele><time>2026-05-03T09:10:04.384Z</time></trkpt><trkpt lat="41.8115282" lon="13.3113582"><ele>1100.0</ele><time>2026-05-03T09:10:05.386Z</time></trkpt><trkpt lat="41.8115048" lon="13.3115296"><ele>1101.25</ele><time>2026-05-03T09:10:06.38Z</time></trkpt><trkpt lat="41.8114543" lon="13.3116913"><ele>1102.5</ele><time>2026-05-03T09:10:07.39Z</time></trkpt><trkpt lat="41.8113777" lon="13.3118338"><ele>1103.75</ele><time>2026-05-03T09:10:08.381Z</time></trkpt><trkpt lat="41.8112874" lon="13.3119522"><ele>1105.0</ele><time>2026-05-03T09:10:09.384Z</time></trkpt><trkpt lat="41.811222" lon="13.3120714"><ele>1105.0</ele><time>2026-05-03T09:10:10.39Z</time></trkpt><trkpt lat="41.8111874" lon="13.3122054"><ele>1105.0</ele><time>2026-05-03T09:10:11.382Z</time></trkpt><trkpt lat="41.8111911" lon="13.312338"><ele>1105.0</ele><time>2026-05-03T09:10:12.382Z</time></trkpt><trkpt lat="41.8112397" lon="13.3124785"><ele>1105.0</ele><time>2026-05-03T09:10:13.385Z</time></trkpt><trkpt lat="41.8112994" lon="13.3126421"><ele>1106.0</ele><time>2026-05-03T09:10:14.391Z</time></trkpt><trkpt lat="41.8113525" lon="13.3128312"><ele>1107.0</ele><time>2026-05-03T09:10:15.389Z</time></trkpt><trkpt lat="41.811373" lon="13.312997"><ele>1108.0</ele><time>2026-05-03T09:10:16.393Z</time></trkpt><trkpt lat="41.8113628" lon="13.3131742"><ele>1109.0</ele><time>2026-05-03T09:10:17.382Z</time></trkpt><trkpt lat="41.811329" lon="13.3133534"><ele>1110.25</ele><time>2026-05-03T09:10:18.382Z</time></trkpt><trkpt lat="41.8112391" lon="13.313521"><ele>1111.5</ele><time>2026-05-03T09:10:19.392Z</time></trkpt><trkpt lat="41.8111506" lon="13.3136647"><ele>1112.75</ele><time>2026-05-03T09:10:20.388Z</time></trkpt><trkpt lat="41.8110607" lon="13.3137986"><ele>1114.0</ele><time>2026-05-03T09:10:21.392Z</time></trkpt><trkpt lat="41.8109964" lon="13.3139354"><ele>1113.75</ele><time>2026-05-03T09:10:22.405Z</time></trkpt><trkpt lat="41.8109546" lon="13.3140821"><ele>1113.5</ele><time>2026-05-03T09:10:23.382Z</time></trkpt><trkpt lat="41.8109564" lon="13.3142295"><ele>1113.25</ele><time>2026-05-03T09:10:24.388Z</time></trkpt><trkpt lat="41.8110022" lon="13.3143747"><ele>1113.0</ele><time>2026-05-03T09:10:25.389Z</time></trkpt><trkpt lat="41.8110876" lon="13.3145061"><ele>1115.5</ele><time>2026-05-03T09:10:26.386Z</time></trkpt><trkpt lat="41.8111883" lon="13.3145989"><ele>1118.0</ele><time>2026-05-03T09:10:27.381Z</time></trkpt><trkpt lat="41.8113036" lon="13.3146432"><ele>1120.5</ele><time>2026-05-03T09:10:28.388Z</time></trkpt><trkpt lat="41.8114217" lon="13.3146313"><ele>1123.0</ele><time>2026-05-03T09:10:29.385Z</time></trkpt><trkpt lat="41.8115342" lon="13.3145592"><ele>1123.0</ele><time>2026-05-03T09:10:30.39Z</time></trkpt><trkpt lat="41.8116318" lon="13.3144438"><ele>1123.0</ele><time>2026-05-03T09:10:31.401Z</time></trkpt><trkpt lat="41.8117437" lon="13.3142914"><ele>1123.0</ele><time>2026-05-03T09:10:32.385Z</time></trkpt><trkpt lat="41.8118561" lon="13.3141309"><ele>1127.6666666666665</ele><time>2026-05-03T09:10:33.382Z</time></trkpt><trkpt lat="41.8119655" lon="13.3139762"><ele>1132.3333333333333</ele><time>2026-05-03T09:10:34.381Z</time></trkpt><trkpt lat="41.8120835" lon="13.3138351"><ele>1137.0</ele><time>2026-05-03T09:10:35.391Z</time></trkpt><trkpt lat="41.8122111" lon="13.3137238"><ele>1137.0</ele><time>2026-05-03T09:10:36.388Z</time></trkpt><trkpt lat="41.8123458" lon="13.3136189"><ele>1137.0</ele><time>2026-05-03T09:10:37.383Z</time></trkpt><trkpt lat="41.8124653" lon="13.3134856"><ele>1137.0</ele><time>2026-05-03T09:10:38.385Z</time></trkpt><trkpt lat="41.8125802" lon="13.3133126"><ele>1144.3333333333333</ele><time>2026-05-03T09:10:39.393Z</time></trkpt><trkpt lat="41.8126737" lon="13.3131017"><ele>1151.6666666666665</ele><time>2026-05-03T09:10:40.395Z</time></trkpt><trkpt lat="41.8127758" lon="13.3128572"><ele>1159.0</ele><time>2026-05-03T09:10:41.385Z</time></trkpt><trkpt lat="41.8128994" lon="13.3126007"><ele>1159.0</ele><time>2026-05-03T09:10:42.398Z</time></trkpt><trkpt lat="41.8130104" lon="13.3123723"><ele>1159.0</ele><time>2026-05-03T09:10:43.391Z</time></trkpt><trkpt lat="41.8131032" lon="13.3121729"><ele>1159.0</ele><time>2026-05-03T09:10:44.391Z</time></trkpt><trkpt lat="41.813178" lon="13.3120151"><ele>1160.0</ele><time>2026-05-03T09:10:45.394Z</time></trkpt><trkpt lat="41.8132761" lon="13.3118952"><ele>1161.0</ele><time>2026-05-03T09:10:46.389Z</time></trkpt><trkpt lat="41.8133877" lon="13.3117923"><ele>1162.0</ele><time>2026-05-03T09:10:47.385Z</time></trkpt><trkpt lat="41.813485" lon="13.3116806"><ele>1163.0</ele><time>2026-05-03T09:10:48.389Z</time></trkpt><trkpt lat="41.8135633" lon="13.3115196"><ele>1162.0</ele><time>2026-05-03T09:10:49.386Z</time></trkpt><trkpt lat="41.8136361" lon="13.3113346"><ele>1161.0</ele><time>2026-05-03T09:10:50.386Z</time></trkpt><trkpt lat="41.8136977" lon="13.3111428"><ele>1160.0</ele><time>2026-05-03T09:10:51.497Z</time></trkpt><trkpt lat="41.8137492" lon="13.3109554"><ele>1160.0</ele><time>2026-05-03T09:10:52.392Z</time></trkpt><trkpt lat="41.8137605" lon="13.3107777"><ele>1160.0</ele><time>2026-05-03T09:10:53.396Z</time></trkpt><trkpt lat="41.8137366" lon="13.3106054"><ele>1160.0</ele><time>2026-05-03T09:10:54.388Z</time></trkpt><trkpt lat="41.8137329" lon="13.3104583"><ele>1160.0</ele><time>2026-05-03T09:10:55.383Z</time></trkpt><trkpt lat="41.8137579" lon="13.3103111"><ele>1157.5</ele><time>2026-05-03T09:10:56.397Z</time></trkpt><trkpt lat="41.8138153" lon="13.310169"><ele>1155.0</ele><time>2026-05-03T09:10:57.403Z</time></trkpt><trkpt lat="41.813883" lon="13.3100556"><ele>1152.5</ele><time>2026-05-03T09:10:58.391Z</time></trkpt><trkpt lat="41.8139683" lon="13.3099366"><ele>1150.0</ele><time>2026-05-03T09:10:59.384Z</time></trkpt><trkpt lat="41.8141019" lon="13.3099953"><ele>1150.0</ele><time>2026-05-03T09:11:00.391Z</time></trkpt><trkpt lat="41.8142286" lon="13.3100109"><ele>1150.0</ele><time>2026-05-03T09:11:01.385Z</time></trkpt><trkpt lat="41.8143533" lon="13.3100377"><ele>1150.0</ele><time>2026-05-03T09:11:02.385Z</time></trkpt><trkpt lat="41.8145139" lon="13.3101266"><ele>1150.0</ele><time>2026-05-03T09:11:03.39Z</time></trkpt><trkpt lat="41.8146445" lon="13.3102865"><ele>1150.6666666666665</ele><time>2026-05-03T09:11:04.38Z</time></trkpt><trkpt lat="41.8147306" lon="13.3104672"><ele>1151.3333333333333</ele><time>2026-05-03T09:11:05.383Z</time></trkpt><trkpt lat="41.8147662" lon="13.310686"><ele>1152.0</ele><time>2026-05-03T09:11:06.388Z</time></trkpt><trkpt lat="41.8144479" lon="13.3109404"><ele>1152.0</ele><time>2026-05-03T09:11:07.386Z</time></trkpt><trkpt lat="41.8143754" lon="13.3110535"><ele>1152.0</ele><time>2026-05-03T09:11:08.387Z</time></trkpt><trkpt lat="41.8142519" lon="13.311131"><ele>1152.0</ele><time>2026-05-03T09:11:09.387Z</time></trkpt><trkpt lat="41.81415" lon="13.3112299"><ele>1152.0</ele><time>2026-05-03T09:11:10.384Z</time></trkpt><trkpt lat="41.8140766" lon="13.3113742"><ele>1154.75</ele><time>2026-05-03T09:11:11.383Z</time></trkpt><trkpt lat="41.8140133" lon="13.3115342"><ele>1157.5</ele><time>2026-05-03T09:11:12.396Z</time></trkpt><trkpt lat="41.8139951" lon="13.3117152"><ele>1160.25</ele><time>2026-05-03T09:11:13.382Z</time></trkpt><trkpt lat="41.81393" lon="13.3118865"><ele>1163.0</ele><time>2026-05-03T09:11:14.394Z</time></trkpt><trkpt lat="41.8138428" lon="13.3120335"><ele>1163.0</ele><time>2026-05-03T09:11:15.391Z</time></trkpt><trkpt lat="41.8137229" lon="13.312144"><ele>1163.0</ele><time>2026-05-03T09:11:16.392Z</time></trkpt><trkpt lat="41.8136108" lon="13.3122551"><ele>1163.0</ele><time>2026-05-03T09:11:17.394Z</time></trkpt><trkpt lat="41.8135175" lon="13.312437"><ele>1163.0</ele><time>2026-05-03T09:11:18.397Z</time></trkpt><trkpt lat="41.8134206" lon="13.3126243"><ele>1161.6666666666667</ele><time>2026-05-03T09:11:19.392Z</time></trkpt><trkpt lat="41.8133301" lon="13.3128089"><ele>1160.3333333333333</ele><time>2026-05-03T09:11:20.391Z</time></trkpt><trkpt lat="41.8132719" lon="13.3129863"><ele>1159.0</ele><time>2026-05-03T09:11:21.383Z</time></trkpt><trkpt lat="41.8132324" lon="13.3131885"><ele>1164.6666666666665</ele><time>2026-05-03T09:11:22.39Z</time></trkpt><trkpt lat="41.8132186" lon="13.3134385"><ele>1170.3333333333333</ele><time>2026-05-03T09:11:23.387Z</time></trkpt><trkpt lat="41.8132037" lon="13.3136918"><ele>1176.0</ele><time>2026-05-03T09:11:24.4Z</time></trkpt><trkpt lat="41.8131965" lon="13.3139066"><ele>1179.0</ele><time>2026-05-03T09:11:25.388Z</time></trkpt><trkpt lat="41.8131433" lon="13.3140641"><ele>1182.0</ele><time>2026-05-03T09:11:26.402Z</time></trkpt><trkpt lat="41.8130723" lon="13.3142264"><ele>1185.0</ele><time>2026-05-03T09:11:27.385Z</time></trkpt><trkpt lat="41.8129625" lon="13.3143809"><ele>1188.0</ele><time>2026-05-03T09:11:28.397Z</time></trkpt><trkpt lat="41.8128732" lon="13.314582"><ele>1192.3333333333333</ele><time>2026-05-03T09:11:29.383Z</time></trkpt><trkpt lat="41.8127976" lon="13.3147833"><ele>1196.6666666666665</ele><time>2026-05-03T09:11:30.391Z</time></trkpt><trkpt lat="41.8127295" lon="13.3149831"><ele>1201.0</ele><time>2026-05-03T09:11:31.39Z</time></trkpt><trkpt lat="41.8126786" lon="13.3152012"><ele>1201.0</ele><time>2026-05-03T09:11:32.394Z</time></trkpt><trkpt lat="41.8126567" lon="13.3154395"><ele>1201.0</ele><time>2026-05-03T09:11:33.382Z</time></trkpt><trkpt lat="41.8126607" lon="13.3157109"><ele>1201.0</ele><time>2026-05-03T09:11:34.389Z</time></trkpt><trkpt lat="41.8126714" lon="13.3159781"><ele>1200.6666666666665</ele><time>2026-05-03T09:11:35.387Z</time></trkpt><trkpt lat="41.8126932" lon="13.3162272"><ele>1200.3333333333333</ele><time>2026-05-03T09:11:36.386Z</time></trkpt><trkpt lat="41.8127205" lon="13.3164303"><ele>1200.0</ele><time>2026-05-03T09:11:37.385Z</time></trkpt><trkpt lat="41.8127749" lon="13.3166071"><ele>1200.0</ele><time>2026-05-03T09:11:38.387Z</time></trkpt><trkpt lat="41.8128562" lon="13.3167481"><ele>1200.0</ele><time>2026-05-03T09:11:39.382Z</time></trkpt><trkpt lat="41.8129665" lon="13.3168644"><ele>1200.0</ele><time>2026-05-03T09:11:40.393Z</time></trkpt><trkpt lat="41.8130835" lon="13.3169504"><ele>1200.0</ele><time>2026-05-03T09:11:41.379Z</time></trkpt><trkpt lat="41.8131814" lon="13.3169996"><ele>1200.0</ele><time>2026-05-03T09:11:42.394Z</time></trkpt><trkpt lat="41.8132677" lon="13.3169984"><ele>1200.0</ele><time>2026-05-03T09:11:43.379Z</time></trkpt><trkpt lat="41.8133384" lon="13.3169391"><ele>1200.0</ele><time>2026-05-03T09:11:44.388Z</time></trkpt><trkpt lat="41.8133797" lon="13.316847"><ele>1200.0</ele><time>2026-05-03T09:11:45.385Z</time></trkpt><trkpt lat="41.8133462" lon="13.3166963"><ele>1200.0</ele><time>2026-05-03T09:11:47.381Z</time></trkpt><trkpt lat="41.8132832" lon="13.3166153"><ele>1200.0</ele><time>2026-05-03T09:11:48.387Z</time></trkpt><trkpt lat="41.8132171" lon="13.3164913"><ele>1200.0</ele><time>2026-05-03T09:11:49.391Z</time></trkpt><trkpt lat="41.8131667" lon="13.3163253"><ele>1200.0</ele><time>2026-05-03T09:11:50.386Z</time></trkpt><trkpt lat="41.8131392" lon="13.3161353"><ele>1200.0</ele><time>2026-05-03T09:11:51.381Z</time></trkpt><trkpt lat="41.8131349" lon="13.3159541"><ele>1200.25</ele><time>2026-05-03T09:11:52.389Z</time></trkpt><trkpt lat="41.8131584" lon="13.3157724"><ele>1200.5</ele><time>2026-05-03T09:11:53.383Z</time></trkpt><trkpt lat="41.8132098" lon="13.3156076"><ele>1200.75</ele><time>2026-05-03T09:11:54.389Z</time></trkpt><trkpt lat="41.8132648" lon="13.3154477"><ele>1201.0</ele><time>2026-05-03T09:11:55.383Z</time></trkpt><trkpt lat="41.8133736" lon="13.3153731"><ele>1201.0</ele><time>2026-05-03T09:11:56.393Z</time></trkpt><trkpt lat="41.8134729" lon="13.3153214"><ele>1201.0</ele><time>2026-05-03T09:11:57.391Z</time></trkpt><trkpt lat="41.8135933" lon="13.3153131"><ele>1201.0</ele><time>2026-05-03T09:11:58.383Z</time></trkpt><trkpt lat="41.8136993" lon="13.3153207"><ele>1201.0</ele><time>2026-05-03T09:11:59.391Z</time></trkpt><trkpt lat="41.8137254" lon="13.3153982"><ele>1201.0</ele><time>2026-05-03T09:12:00.377Z</time></trkpt><trkpt lat="41.8137748" lon="13.3154995"><ele>1203.75</ele><time>2026-05-03T09:12:01.388Z</time></trkpt><trkpt lat="41.8138167" lon="13.3156441"><ele>1206.5</ele><time>2026-05-03T09:12:02.38Z</time></trkpt><trkpt lat="41.8138449" lon="13.3158184"><ele>1209.25</ele><time>2026-05-03T09:12:03.382Z</time></trkpt><trkpt lat="41.8138468" lon="13.315995"><ele>1212.0</ele><time>2026-05-03T09:12:04.392Z</time></trkpt><trkpt lat="41.8138387" lon="13.3161326"><ele>1212.0</ele><time>2026-05-03T09:12:05.383Z</time></trkpt><trkpt lat="41.8138281" lon="13.3162568"><ele>1212.0</ele><time>2026-05-03T09:12:06.387Z</time></trkpt><trkpt lat="41.8138575" lon="13.3163958"><ele>1212.0</ele><time>2026-05-03T09:12:07.393Z</time></trkpt><trkpt lat="41.8139247" lon="13.3165425"><ele>1212.0</ele><time>2026-05-03T09:12:08.393Z</time></trkpt><trkpt lat="41.8140347" lon="13.3166989"><ele>1213.6666666666667</ele><time>2026-05-03T09:12:09.391Z</time></trkpt><trkpt lat="41.8141839" lon="13.3168699"><ele>1215.3333333333335</ele><time>2026-05-03T09:12:10.381Z</time></trkpt><trkpt lat="41.8143544" lon="13.3170406"><ele>1217.0</ele><time>2026-05-03T09:12:11.382Z</time></trkpt><trkpt lat="41.8145423" lon="13.3172123"><ele>1221.0</ele><time>2026-05-03T09:12:12.38Z</time></trkpt><trkpt lat="41.8147251" lon="13.3173807"><ele>1225.0</ele><time>2026-05-03T09:12:13.385Z</time></trkpt><trkpt lat="41.8148881" lon="13.317527"><ele>1229.0</ele><time>2026-05-03T09:12:14.386Z</time></trkpt><trkpt lat="41.8150353" lon="13.317658"><ele>1232.0</ele><time>2026-05-03T09:12:15.387Z</time></trkpt><trkpt lat="41.8151909" lon="13.3177753"><ele>1235.0</ele><time>2026-05-03T09:12:16.396Z</time></trkpt><trkpt lat="41.8153679" lon="13.3178796"><ele>1238.0</ele><time>2026-05-03T09:12:17.379Z</time></trkpt><trkpt lat="41.815562" lon="13.317976"><ele>1241.5</ele><time>2026-05-03T09:12:18.395Z</time></trkpt><trkpt lat="41.8157889" lon="13.3180713"><ele>1245.0</ele><time>2026-05-03T09:12:19.387Z</time></trkpt><trkpt lat="41.8160406" lon="13.3181579"><ele>1245.0</ele><time>2026-05-03T09:12:20.385Z</time></trkpt><trkpt lat="41.8163123" lon="13.3182337"><ele>1245.0</ele><time>2026-05-03T09:12:21.388Z</time></trkpt><trkpt lat="41.8165929" lon="13.318313"><ele>1251.5</ele><time>2026-05-03T09:12:22.385Z</time></trkpt><trkpt lat="41.8168589" lon="13.3183856"><ele>1258.0</ele><time>2026-05-03T09:12:23.393Z</time></trkpt><trkpt lat="41.8171045" lon="13.3184529"><ele>1258.0</ele><time>2026-05-03T09:12:24.395Z</time></trkpt><trkpt lat="41.817319" lon="13.3185082"><ele>1258.0</ele><time>2026-05-03T09:12:25.386Z</time></trkpt><trkpt lat="41.8174928" lon="13.3185586"><ele>1258.0</ele><time>2026-05-03T09:12:26.394Z</time></trkpt><trkpt lat="41.8176454" lon="13.3186095"><ele>1262.0</ele><time>2026-05-03T09:12:27.387Z</time></trkpt><trkpt lat="41.8177558" lon="13.3186628"><ele>1266.0</ele><time>2026-05-03T09:12:28.387Z</time></trkpt><trkpt lat="41.8178402" lon="13.3187416"><ele>1270.0</ele><time>2026-05-03T09:12:29.391Z</time></trkpt><trkpt lat="41.8178834" lon="13.3188586"><ele>1274.0</ele><time>2026-05-03T09:12:30.387Z</time></trkpt><trkpt lat="41.8178927" lon="13.3190183"><ele>1278.0</ele><time>2026-05-03T09:12:31.386Z</time></trkpt><trkpt lat="41.8178599" lon="13.3191973"><ele>1278.6666666666667</ele><time>2026-05-03T09:12:32.389Z</time></trkpt><trkpt lat="41.8177726" lon="13.3193915"><ele>1279.3333333333335</ele><time>2026-05-03T09:12:33.384Z</time></trkpt><trkpt lat="41.8176815" lon="13.3195977"><ele>1280.0</ele><time>2026-05-03T09:12:34.383Z</time></trkpt><trkpt lat="41.8175934" lon="13.319781"><ele>1275.5</ele><time>2026-05-03T09:12:35.395Z</time></trkpt><trkpt lat="41.8175283" lon="13.3199432"><ele>1271.0</ele><time>2026-05-03T09:12:36.388Z</time></trkpt><trkpt lat="41.8174995" lon="13.3200947"><ele>1266.5</ele><time>2026-05-03T09:12:37.389Z</time></trkpt><trkpt lat="41.817516" lon="13.3202281"><ele>1262.0</ele><time>2026-05-03T09:12:38.397Z</time></trkpt><trkpt lat="41.8175752" lon="13.3203357"><ele>1269.75</ele><time>2026-05-03T09:12:39.393Z</time></trkpt><trkpt lat="41.8176698" lon="13.3204217"><ele>1277.5</ele><time>2026-05-03T09:12:40.393Z</time></trkpt><trkpt lat="41.8177616" lon="13.3205216"><ele>1285.25</ele><time>2026-05-03T09:12:41.393Z</time></trkpt><trkpt lat="41.817854" lon="13.3206204"><ele>1293.0</ele><time>2026-05-03T09:12:42.39Z</time></trkpt><trkpt lat="41.8179289" lon="13.3207629"><ele>1293.0</ele><time>2026-05-03T09:12:43.385Z</time></trkpt><trkpt lat="41.8178939" lon="13.3210169"><ele>1293.0</ele><time>2026-05-03T09:12:44.392Z</time></trkpt><trkpt lat="41.8179574" lon="13.3211759"><ele>1293.0</ele><time>2026-05-03T09:12:45.387Z</time></trkpt><trkpt lat="41.818038" lon="13.3213317"><ele>1288.6666666666667</ele><time>2026-05-03T09:12:46.384Z</time></trkpt><trkpt lat="41.8181663" lon="13.321485"><ele>1284.3333333333335</ele><time>2026-05-03T09:12:47.392Z</time></trkpt><trkpt lat="41.8182925" lon="13.321645"><ele>1280.0</ele><time>2026-05-03T09:12:48.38Z</time></trkpt><trkpt lat="41.8184688" lon="13.3218397"><ele>1288.6666666666667</ele><time>2026-05-03T09:12:49.39Z</time></trkpt><trkpt lat="41.8186198" lon="13.3220036"><ele>1297.3333333333333</ele><time>2026-05-03T09:12:50.393Z</time></trkpt><trkpt lat="41.8187579" lon="13.3221547"><ele>1306.0</ele><time>2026-05-03T09:12:51.384Z</time></trkpt><trkpt lat="41.8188811" lon="13.3222942"><ele>1306.0</ele><time>2026-05-03T09:12:52.387Z</time></trkpt><trkpt lat="41.8189791" lon="13.3224177"><ele>1306.0</ele><time>2026-05-03T09:12:53.391Z</time></trkpt><trkpt lat="41.8190531" lon="13.3225414"><ele>1306.0</ele><time>2026-05-03T09:12:54.384Z</time></trkpt><trkpt lat="41.8191193" lon="13.3226634"><ele>1306.0</ele><time>2026-05-03T09:12:55.384Z</time></trkpt><trkpt lat="41.8191545" lon="13.3228336"><ele>1306.0</ele><time>2026-05-03T09:12:56.393Z</time></trkpt><trkpt lat="41.8191842" lon="13.323"><ele>1306.0</ele><time>2026-05-03T09:12:57.389Z</time></trkpt><trkpt lat="41.8190835" lon="13.3231371"><ele>1306.0</ele><time>2026-05-03T09:12:58.39Z</time></trkpt><trkpt lat="41.8188848" lon="13.3232382"><ele>1310.0</ele><time>2026-05-03T09:12:59.392Z</time></trkpt><trkpt lat="41.8186935" lon="13.3233629"><ele>1314.0</ele><time>2026-05-03T09:13:00.385Z</time></trkpt><trkpt lat="41.8185416" lon="13.3234886"><ele>1318.0</ele><time>2026-05-03T09:13:01.388Z</time></trkpt><trkpt lat="41.8184159" lon="13.3236211"><ele>1313.75</ele><time>2026-05-03T09:13:02.39Z</time></trkpt><trkpt lat="41.8182998" lon="13.3237317"><ele>1309.5</ele><time>2026-05-03T09:13:03.392Z</time></trkpt><trkpt lat="41.8182066" lon="13.3238606"><ele>1305.25</ele><time>2026-05-03T09:13:04.387Z</time></trkpt><trkpt lat="41.818153" lon="13.3239892"><ele>1301.0</ele><time>2026-05-03T09:13:05.386Z</time></trkpt><trkpt lat="41.8181366" lon="13.3241286"><ele>1301.0</ele><time>2026-05-03T09:13:06.384Z</time></trkpt><trkpt lat="41.8181658" lon="13.3243037"><ele>1301.0</ele><time>2026-05-03T09:13:07.383Z</time></trkpt><trkpt lat="41.818235" lon="13.324485"><ele>1301.0</ele><time>2026-05-03T09:13:08.386Z</time></trkpt><trkpt lat="41.8183533" lon="13.3246971"><ele>1315.0</ele><time>2026-05-03T09:13:09.386Z</time></trkpt><trkpt lat="41.8184855" lon="13.3249046"><ele>1329.0</ele><time>2026-05-03T09:13:10.388Z</time></trkpt><trkpt lat="41.8185977" lon="13.3250847"><ele>1343.0</ele><time>2026-05-03T09:13:11.39Z</time></trkpt><trkpt lat="41.8186876" lon="13.3252563"><ele>1343.0</ele><time>2026-05-03T09:13:12.389Z</time></trkpt><trkpt lat="41.8187413" lon="13.3254131"><ele>1343.0</ele><time>2026-05-03T09:13:13.389Z</time></trkpt><trkpt lat="41.8187638" lon="13.3255694"><ele>1343.0</ele><time>2026-05-03T09:13:14.387Z</time></trkpt><trkpt lat="41.8187551" lon="13.3257463"><ele>1343.0</ele><time>2026-05-03T09:13:15.382Z</time></trkpt><trkpt lat="41.8187084" lon="13.3259222"><ele>1343.6666666666667</ele><time>2026-05-03T09:13:16.388Z</time></trkpt><trkpt lat="41.8186149" lon="13.3260967"><ele>1344.3333333333333</ele><time>2026-05-03T09:13:17.389Z</time></trkpt><trkpt lat="41.8184911" lon="13.3262796"><ele>1345.0</ele><time>2026-05-03T09:13:18.385Z</time></trkpt><trkpt lat="41.8183688" lon="13.3264849"><ele>1337.3333333333333</ele><time>2026-05-03T09:13:19.455Z</time></trkpt><trkpt lat="41.8182708" lon="13.3267173"><ele>1329.6666666666667</ele><time>2026-05-03T09:13:20.382Z</time></trkpt><trkpt lat="41.8181868" lon="13.3269312"><ele>1322.0</ele><time>2026-05-03T09:13:21.39Z</time></trkpt><trkpt lat="41.8180979" lon="13.3271153"><ele>1332.0</ele><time>2026-05-03T09:13:22.392Z</time></trkpt><trkpt lat="41.8179828" lon="13.3272884"><ele>1342.0</ele><time>2026-05-03T09:13:23.395Z</time></trkpt><trkpt lat="41.8178351" lon="13.3274305"><ele>1352.0</ele><time>2026-05-03T09:13:24.384Z</time></trkpt><trkpt lat="41.8176952" lon="13.3275611"><ele>1345.3333333333335</ele><time>2026-05-03T09:13:25.397Z</time></trkpt><trkpt lat="41.8175675" lon="13.3277169"><ele>1338.6666666666667</ele><time>2026-05-03T09:13:26.392Z</time></trkpt><trkpt lat="41.8174544" lon="13.327893"><ele>1332.0</ele><time>2026-05-03T09:13:27.391Z</time></trkpt><trkpt lat="41.8173678" lon="13.3280973"><ele>1332.0</ele><time>2026-05-03T09:13:28.393Z</time></trkpt><trkpt lat="41.8173027" lon="13.32832"><ele>1332.0</ele><time>2026-05-03T09:13:29.386Z</time></trkpt><trkpt lat="41.8172646" lon="13.3285597"><ele>1332.0</ele><time>2026-05-03T09:13:30.391Z</time></trkpt><trkpt lat="41.8172309" lon="13.3287918"><ele>1335.3333333333333</ele><time>2026-05-03T09:13:31.387Z</time></trkpt><trkpt lat="41.8172097" lon="13.3290244"><ele>1338.6666666666665</ele><time>2026-05-03T09:13:32.391Z</time></trkpt><trkpt lat="41.8172128" lon="13.3292692"><ele>1342.0</ele><time>2026-05-03T09:13:33.395Z</time></trkpt><trkpt lat="41.8172461" lon="13.3295244"><ele>1341.0</ele><time>2026-05-03T09:13:34.388Z</time></trkpt><trkpt lat="41.8172931" lon="13.3297858"><ele>1340.0</ele><time>2026-05-03T09:13:35.39Z</time></trkpt><trkpt lat="41.8173538" lon="13.3300432"><ele>1339.0</ele><time>2026-05-03T09:13:36.393Z</time></trkpt><trkpt lat="41.817432" lon="13.330276"><ele>1339.0</ele><time>2026-05-03T09:13:37.391Z</time></trkpt><trkpt lat="41.8175408" lon="13.3305009"><ele>1339.0</ele><time>2026-05-03T09:13:38.395Z</time></trkpt><trkpt lat="41.8176686" lon="13.3307229"><ele>1339.0</ele><time>2026-05-03T09:13:39.382Z</time></trkpt><trkpt lat="41.8177761" lon="13.3309214"><ele>1345.6666666666665</ele><time>2026-05-03T09:13:40.388Z</time></trkpt><trkpt lat="41.8178736" lon="13.331133"><ele>1352.3333333333333</ele><time>2026-05-03T09:13:41.396Z</time></trkpt><trkpt lat="41.8179457" lon="13.3313397"><ele>1359.0</ele><time>2026-05-03T09:13:42.39Z</time></trkpt><trkpt lat="41.8179911" lon="13.331535"><ele>1359.0</ele><time>2026-05-03T09:13:43.391Z</time></trkpt><trkpt lat="41.8179854" lon="13.3317286"><ele>1359.0</ele><time>2026-05-03T09:13:44.388Z</time></trkpt><trkpt lat="41.8179599" lon="13.3319074"><ele>1359.0</ele><time>2026-05-03T09:13:45.38Z</time></trkpt><trkpt lat="41.8179365" lon="13.3320661"><ele>1359.0</ele><time>2026-05-03T09:13:46.389Z</time></trkpt><trkpt lat="41.8179375" lon="13.3322028"><ele>1357.6</ele><time>2026-05-03T09:13:47.38Z</time></trkpt><trkpt lat="41.8179719" lon="13.3323171"><ele>1356.2</ele><time>2026-05-03T09:13:48.391Z</time></trkpt><trkpt lat="41.8180301" lon="13.3323964"><ele>1354.8</ele><time>2026-05-03T09:13:49.384Z</time></trkpt><trkpt lat="41.8180911" lon="13.3324599"><ele>1353.3999999999999</ele><time>2026-05-03T09:13:50.379Z</time></trkpt><trkpt lat="41.8181899" lon="13.3323797"><ele>1352.0</ele><time>2026-05-03T09:13:51.385Z</time></trkpt><trkpt lat="41.8182523" lon="13.332292"><ele>1353.75</ele><time>2026-05-03T09:13:52.398Z</time></trkpt><trkpt lat="41.8182825" lon="13.3321526"><ele>1355.5</ele><time>2026-05-03T09:13:53.386Z</time></trkpt><trkpt lat="41.8182822" lon="13.3319638"><ele>1357.25</ele><time>2026-05-03T09:13:54.385Z</time></trkpt><trkpt lat="41.8182709" lon="13.3317232"><ele>1359.0</ele><time>2026-05-03T09:13:55.388Z</time></trkpt><trkpt lat="41.8182563" lon="13.3314737"><ele>1362.3333333333333</ele><time>2026-05-03T09:13:56.39Z</time></trkpt><trkpt lat="41.8182275" lon="13.331196"><ele>1365.6666666666665</ele><time>2026-05-03T09:13:57.383Z</time></trkpt><trkpt lat="41.8181872" lon="13.3309623"><ele>1369.0</ele><time>2026-05-03T09:13:58.392Z</time></trkpt><trkpt lat="41.8181129" lon="13.3307382"><ele>1373.0</ele><time>2026-05-03T09:13:59.389Z</time></trkpt><trkpt lat="41.8180255" lon="13.3305234"><ele>1377.0</ele><time>2026-05-03T09:14:00.391Z</time></trkpt><trkpt lat="41.8179598" lon="13.3303295"><ele>1381.0</ele><time>2026-05-03T09:14:01.389Z</time></trkpt><trkpt lat="41.8179185" lon="13.330129"><ele>1381.0</ele><time>2026-05-03T09:14:02.383Z</time></trkpt><trkpt lat="41.8178974" lon="13.3298996"><ele>1381.0</ele><time>2026-05-03T09:14:03.382Z</time></trkpt><trkpt lat="41.8178921" lon="13.3296503"><ele>1381.0</ele><time>2026-05-03T09:14:04.386Z</time></trkpt><trkpt lat="41.8179003" lon="13.3294008"><ele>1380.6666666666665</ele><time>2026-05-03T09:14:05.382Z</time></trkpt><trkpt lat="41.8179156" lon="13.3291528"><ele>1380.3333333333333</ele><time>2026-05-03T09:14:06.382Z</time></trkpt><trkpt lat="41.8179344" lon="13.3289159"><ele>1380.0</ele><time>2026-05-03T09:14:07.392Z</time></trkpt><trkpt lat="41.8179679" lon="13.328697"><ele>1380.0</ele><time>2026-05-03T09:14:08.388Z</time></trkpt><trkpt lat="41.8180242" lon="13.3284961"><ele>1380.0</ele><time>2026-05-03T09:14:09.386Z</time></trkpt><trkpt lat="41.8180941" lon="13.3283031"><ele>1380.0</ele><time>2026-05-03T09:14:10.382Z</time></trkpt><trkpt lat="41.8181859" lon="13.328129"><ele>1385.3333333333333</ele><time>2026-05-03T09:14:11.38Z</time></trkpt><trkpt lat="41.8182967" lon="13.3279504"><ele>1390.6666666666665</ele><time>2026-05-03T09:14:12.402Z</time></trkpt><trkpt lat="41.8184506" lon="13.3277751"><ele>1396.0</ele><time>2026-05-03T09:14:13.384Z</time></trkpt><trkpt lat="41.8186093" lon="13.3275848"><ele>1396.0</ele><time>2026-05-03T09:14:14.386Z</time></trkpt><trkpt lat="41.818765" lon="13.3273994"><ele>1396.0</ele><time>2026-05-03T09:14:15.387Z</time></trkpt><trkpt lat="41.8189106" lon="13.3272492"><ele>1396.0</ele><time>2026-05-03T09:14:16.384Z</time></trkpt><trkpt lat="41.8190605" lon="13.3271176"><ele>1397.0</ele><time>2026-05-03T09:14:17.385Z</time></trkpt><trkpt lat="41.8192185" lon="13.3270069"><ele>1398.0</ele><time>2026-05-03T09:14:18.379Z</time></trkpt><trkpt lat="41.8193643" lon="13.3269342"><ele>1399.0</ele><time>2026-05-03T09:14:19.393Z</time></trkpt><trkpt lat="41.8195017" lon="13.3268994"><ele>1399.0</ele><time>2026-05-03T09:14:20.384Z</time></trkpt><trkpt lat="41.8196273" lon="13.3268829"><ele>1399.0</ele><time>2026-05-03T09:14:21.393Z</time></trkpt><trkpt lat="41.8197297" lon="13.3268687"><ele>1399.0</ele><time>2026-05-03T09:14:22.389Z</time></trkpt><trkpt lat="41.8198137" lon="13.3268024"><ele>1399.0</ele><time>2026-05-03T09:14:23.382Z</time></trkpt><trkpt lat="41.8198951" lon="13.3267404"><ele>1399.0</ele><time>2026-05-03T09:14:24.395Z</time></trkpt><trkpt lat="41.8199814" lon="13.3266359"><ele>1396.3333333333333</ele><time>2026-05-03T09:14:25.389Z</time></trkpt><trkpt lat="41.8198941" lon="13.3263637"><ele>1393.6666666666667</ele><time>2026-05-03T09:14:26.386Z</time></trkpt><trkpt lat="41.8198962" lon="13.3261459"><ele>1391.0</ele><time>2026-05-03T09:14:27.393Z</time></trkpt><trkpt lat="41.8198806" lon="13.3258957"><ele>1391.0</ele><time>2026-05-03T09:14:28.377Z</time></trkpt><trkpt lat="41.8198716" lon="13.3256762"><ele>1391.0</ele><time>2026-05-03T09:14:29.39Z</time></trkpt><trkpt lat="41.8198678" lon="13.3254758"><ele>1391.0</ele><time>2026-05-03T09:14:30.39Z</time></trkpt><trkpt lat="41.8198691" lon="13.3252652"><ele>1390.75</ele><time>2026-05-03T09:14:31.388Z</time></trkpt><trkpt lat="41.8199009" lon="13.3251207"><ele>1390.5</ele><time>2026-05-03T09:14:32.389Z</time></trkpt><trkpt lat="41.8199548" lon="13.3249773"><ele>1390.25</ele><time>2026-05-03T09:14:33.389Z</time></trkpt><trkpt lat="41.8200474" lon="13.3248592"><ele>1390.0</ele><time>2026-05-03T09:14:34.385Z</time></trkpt><trkpt lat="41.8201789" lon="13.3247756"><ele>1392.6666666666665</ele><time>2026-05-03T09:14:35.387Z</time></trkpt><trkpt lat="41.8203467" lon="13.3247319"><ele>1395.3333333333333</ele><time>2026-05-03T09:14:36.386Z</time></trkpt><trkpt lat="41.8205201" lon="13.3246707"><ele>1398.0</ele><time>2026-05-03T09:14:37.386Z</time></trkpt><trkpt lat="41.8207095" lon="13.3246086"><ele>1398.0</ele><time>2026-05-03T09:14:38.38Z</time></trkpt><trkpt lat="41.8208813" lon="13.3245525"><ele>1398.0</ele><time>2026-05-03T09:14:39.388Z</time></trkpt><trkpt lat="41.821054" lon="13.3244874"><ele>1398.0</ele><time>2026-05-03T09:14:40.384Z</time></trkpt><trkpt lat="41.8211876" lon="13.324413"><ele>1405.25</ele><time>2026-05-03T09:14:41.386Z</time></trkpt><trkpt lat="41.8212992" lon="13.3243309"><ele>1412.5</ele><time>2026-05-03T09:14:42.386Z</time></trkpt><trkpt lat="41.8214103" lon="13.3242439"><ele>1419.75</ele><time>2026-05-03T09:14:43.38Z</time></trkpt><trkpt lat="41.821478" lon="13.3241244"><ele>1427.0</ele><time>2026-05-03T09:14:44.386Z</time></trkpt><trkpt lat="41.8215268" lon="13.3239834"><ele>1424.3333333333335</ele><time>2026-05-03T09:14:45.39Z</time></trkpt><trkpt lat="41.8215061" lon="13.3237868"><ele>1421.6666666666667</ele><time>2026-05-03T09:14:46.383Z</time></trkpt><trkpt lat="41.8214822" lon="13.3235716"><ele>1419.0</ele><time>2026-05-03T09:14:47.385Z</time></trkpt><trkpt lat="41.8214474" lon="13.323359"><ele>1419.0</ele><time>2026-05-03T09:14:48.394Z</time></trkpt><trkpt lat="41.8214381" lon="13.3231275"><ele>1419.0</ele><time>2026-05-03T09:14:49.381Z</time></trkpt><trkpt lat="41.8214643" lon="13.3228862"><ele>1419.0</ele><time>2026-05-03T09:14:50.386Z</time></trkpt><trkpt lat="41.8214673" lon="13.3226806"><ele>1420.0</ele><time>2026-05-03T09:14:51.378Z</time></trkpt><trkpt lat="41.8214517" lon="13.3224522"><ele>1421.0</ele><time>2026-05-03T09:14:52.385Z</time></trkpt><trkpt lat="41.821394" lon="13.3222214"><ele>1422.0</ele><time>2026-05-03T09:14:53.389Z</time></trkpt><trkpt lat="41.8213148" lon="13.3220011"><ele>1423.5</ele><time>2026-05-03T09:14:54.389Z</time></trkpt><trkpt lat="41.8212263" lon="13.3218105"><ele>1425.0</ele><time>2026-05-03T09:14:55.384Z</time></trkpt><trkpt lat="41.8211338" lon="13.321622"><ele>1426.5</ele><time>2026-05-03T09:14:56.396Z</time></trkpt><trkpt lat="41.8210828" lon="13.3214871"><ele>1428.0</ele><time>2026-05-03T09:14:57.381Z</time></trkpt><trkpt lat="41.8210482" lon="13.3213558"><ele>1428.0</ele><time>2026-05-03T09:14:58.393Z</time></trkpt><trkpt lat="41.8210361" lon="13.3212486"><ele>1428.0</ele><time>2026-05-03T09:14:59.391Z</time></trkpt><trkpt lat="41.8210955" lon="13.3211962"><ele>1428.0</ele><time>2026-05-03T09:15:00.385Z</time></trkpt><trkpt lat="41.8212242" lon="13.3211982"><ele>1428.0</ele><time>2026-05-03T09:15:02.392Z</time></trkpt><trkpt lat="41.8213152" lon="13.3212902"><ele>1428.0</ele><time>2026-05-03T09:15:03.383Z</time></trkpt><trkpt lat="41.8214066" lon="13.3214371"><ele>1428.0</ele><time>2026-05-03T09:15:04.384Z</time></trkpt><trkpt lat="41.821513" lon="13.3216634"><ele>1428.0</ele><time>2026-05-03T09:15:05.395Z</time></trkpt><trkpt lat="41.8216292" lon="13.3218829"><ele>1428.0</ele><time>2026-05-03T09:15:06.386Z</time></trkpt><trkpt lat="41.8217254" lon="13.3220996"><ele>1426.0</ele><time>2026-05-03T09:15:07.388Z</time></trkpt><trkpt lat="41.8217923" lon="13.3223079"><ele>1424.0</ele><time>2026-05-03T09:15:08.39Z</time></trkpt><trkpt lat="41.8218539" lon="13.3225324"><ele>1422.0</ele><time>2026-05-03T09:15:09.384Z</time></trkpt><trkpt lat="41.821856" lon="13.3227896"><ele>1436.0</ele><time>2026-05-03T09:15:10.385Z</time></trkpt><trkpt lat="41.8218663" lon="13.3230212"><ele>1450.0</ele><time>2026-05-03T09:15:11.39Z</time></trkpt><trkpt lat="41.8218923" lon="13.3232476"><ele>1464.0</ele><time>2026-05-03T09:15:12.39Z</time></trkpt><trkpt lat="41.8219464" lon="13.3234812"><ele>1464.0</ele><time>2026-05-03T09:15:13.388Z</time></trkpt><trkpt lat="41.8220237" lon="13.3236922"><ele>1464.0</ele><time>2026-05-03T09:15:14.384Z</time></trkpt><trkpt lat="41.8220892" lon="13.3238751"><ele>1464.0</ele><time>2026-05-03T09:15:15.392Z</time></trkpt><trkpt lat="41.8221428" lon="13.3240492"><ele>1464.0</ele><time>2026-05-03T09:15:16.385Z</time></trkpt><trkpt lat="41.8221953" lon="13.324225"><ele>1464.0</ele><time>2026-05-03T09:15:17.386Z</time></trkpt><trkpt lat="41.8221377" lon="13.3243858"><ele>1464.0</ele><time>2026-05-03T09:15:18.379Z</time></trkpt><trkpt lat="41.8220754" lon="13.3245701"><ele>1464.0</ele><time>2026-05-03T09:15:19.39Z</time></trkpt><trkpt lat="41.8219697" lon="13.3247623"><ele>1459.0</ele><time>2026-05-03T09:15:20.397Z</time></trkpt><trkpt lat="41.8218712" lon="13.324971"><ele>1454.0</ele><time>2026-05-03T09:15:21.477Z</time></trkpt><trkpt lat="41.821701" lon="13.3251334"><ele>1449.0</ele><time>2026-05-03T09:15:22.394Z</time></trkpt><trkpt lat="41.8215626" lon="13.3252484"><ele>1449.0</ele><time>2026-05-03T09:15:23.385Z</time></trkpt><trkpt lat="41.8214334" lon="13.3253705"><ele>1449.0</ele><time>2026-05-03T09:15:24.392Z</time></trkpt><trkpt lat="41.8213331" lon="13.3254846"><ele>1449.0</ele><time>2026-05-03T09:15:25.385Z</time></trkpt><trkpt lat="41.8212542" lon="13.325599"><ele>1449.0</ele><time>2026-05-03T09:15:26.383Z</time></trkpt><trkpt lat="41.8212124" lon="13.3257653"><ele>1455.0</ele><time>2026-05-03T09:15:27.387Z</time></trkpt><trkpt lat="41.8211802" lon="13.3259479"><ele>1461.0</ele><time>2026-05-03T09:15:28.392Z</time></trkpt><trkpt lat="41.8211985" lon="13.3261735"><ele>1467.0</ele><time>2026-05-03T09:15:29.402Z</time></trkpt><trkpt lat="41.8212439" lon="13.326425"><ele>1470.5</ele><time>2026-05-03T09:15:30.391Z</time></trkpt><trkpt lat="41.8213141" lon="13.3267113"><ele>1474.0</ele><time>2026-05-03T09:15:31.384Z</time></trkpt><trkpt lat="41.8213929" lon="13.327005"><ele>1473.3333333333333</ele><time>2026-05-03T09:15:32.397Z</time></trkpt><trkpt lat="41.821485" lon="13.3272599"><ele>1472.6666666666667</ele><time>2026-05-03T09:15:33.394Z</time></trkpt><trkpt lat="41.8215545" lon="13.3274811"><ele>1472.0</ele><time>2026-05-03T09:15:34.389Z</time></trkpt><trkpt lat="41.8216247" lon="13.3276921"><ele>1472.0</ele><time>2026-05-03T09:15:35.391Z</time></trkpt><trkpt lat="41.8216718" lon="13.3278701"><ele>1472.0</ele><time>2026-05-03T09:15:36.389Z</time></trkpt><trkpt lat="41.8216879" lon="13.3280413"><ele>1472.0</ele><time>2026-05-03T09:15:37.394Z</time></trkpt><trkpt lat="41.8216637" lon="13.3282226"><ele>1472.0</ele><time>2026-05-03T09:15:38.383Z</time></trkpt><trkpt lat="41.8216288" lon="13.3284103"><ele>1473.0</ele><time>2026-05-03T09:15:39.392Z</time></trkpt><trkpt lat="41.8214421" lon="13.3285888"><ele>1474.0</ele><time>2026-05-03T09:15:40.385Z</time></trkpt><trkpt lat="41.8213424" lon="13.3287553"><ele>1475.0</ele><time>2026-05-03T09:15:41.388Z</time></trkpt><trkpt lat="41.8212207" lon="13.3288845"><ele>1475.75</ele><time>2026-05-03T09:15:42.384Z</time></trkpt><trkpt lat="41.8210884" lon="13.3289623"><ele>1476.5</ele><time>2026-05-03T09:15:43.382Z</time></trkpt><trkpt lat="41.820965" lon="13.3290398"><ele>1477.25</ele><time>2026-05-03T09:15:44.384Z</time></trkpt><trkpt lat="41.8208544" lon="13.3291051"><ele>1478.0</ele><time>2026-05-03T09:15:45.381Z</time></trkpt><trkpt lat="41.8207819" lon="13.3292017"><ele>1478.0</ele><time>2026-05-03T09:15:46.391Z</time></trkpt><trkpt lat="41.8207375" lon="13.3293234"><ele>1478.0</ele><time>2026-05-03T09:15:47.387Z</time></trkpt><trkpt lat="41.8207401" lon="13.3294502"><ele>1478.0</ele><time>2026-05-03T09:15:48.392Z</time></trkpt><trkpt lat="41.8207961" lon="13.3295636"><ele>1478.0</ele><time>2026-05-03T09:15:49.391Z</time></trkpt><trkpt lat="41.8208821" lon="13.3296298"><ele>1478.0</ele><time>2026-05-03T09:15:50.387Z</time></trkpt><trkpt lat="41.8209944" lon="13.3296423"><ele>1478.0</ele><time>2026-05-03T09:15:51.395Z</time></trkpt><trkpt lat="41.8211251" lon="13.3296117"><ele>1478.0</ele><time>2026-05-03T09:15:52.384Z</time></trkpt><trkpt lat="41.8212847" lon="13.3295613"><ele>1478.0</ele><time>2026-05-03T09:15:53.393Z</time></trkpt><trkpt lat="41.8214506" lon="13.3295085"><ele>1478.0</ele><time>2026-05-03T09:15:54.393Z</time></trkpt><trkpt lat="41.8215989" lon="13.3294348"><ele>1478.0</ele><time>2026-05-03T09:15:55.39Z</time></trkpt><trkpt lat="41.8217336" lon="13.3293156"><ele>1478.0</ele><time>2026-05-03T09:15:56.384Z</time></trkpt><trkpt lat="41.8218486" lon="13.329154"><ele>1484.6666666666667</ele><time>2026-05-03T09:15:57.388Z</time></trkpt><trkpt lat="41.8219497" lon="13.3289297"><ele>1491.3333333333333</ele><time>2026-05-03T09:15:58.386Z</time></trkpt><trkpt lat="41.8220419" lon="13.3286852"><ele>1498.0</ele><time>2026-05-03T09:15:59.385Z</time></trkpt><trkpt lat="41.8221254" lon="13.3284541"><ele>1500.0</ele><time>2026-05-03T09:16:00.392Z</time></trkpt><trkpt lat="41.8222034" lon="13.3282178"><ele>1502.0</ele><time>2026-05-03T09:16:01.383Z</time></trkpt><trkpt lat="41.8222359" lon="13.3279856"><ele>1504.0</ele><time>2026-05-03T09:16:02.394Z</time></trkpt><trkpt lat="41.8222328" lon="13.3277014"><ele>1506.0</ele><time>2026-05-03T09:16:03.391Z</time></trkpt><trkpt lat="41.8222446" lon="13.3274413"><ele>1508.0</ele><time>2026-05-03T09:16:04.387Z</time></trkpt><trkpt lat="41.8222252" lon="13.3271841"><ele>1510.0</ele><time>2026-05-03T09:16:05.388Z</time></trkpt><trkpt lat="41.8222105" lon="13.3269525"><ele>1510.75</ele><time>2026-05-03T09:16:06.385Z</time></trkpt><trkpt lat="41.8221858" lon="13.3267631"><ele>1511.5</ele><time>2026-05-03T09:16:07.394Z</time></trkpt><trkpt lat="41.8222036" lon="13.3265756"><ele>1512.25</ele><time>2026-05-03T09:16:08.383Z</time></trkpt><trkpt lat="41.8222405" lon="13.3263838"><ele>1513.0</ele><time>2026-05-03T09:16:09.387Z</time></trkpt><trkpt lat="41.8223039" lon="13.3262107"><ele>1509.6666666666665</ele><time>2026-05-03T09:16:10.385Z</time></trkpt><trkpt lat="41.8223838" lon="13.3260091"><ele>1506.3333333333333</ele><time>2026-05-03T09:16:11.383Z</time></trkpt><trkpt lat="41.8225729" lon="13.3259273"><ele>1503.0</ele><time>2026-05-03T09:16:12.384Z</time></trkpt><trkpt lat="41.8227222" lon="13.3257791"><ele>1509.6666666666667</ele><time>2026-05-03T09:16:13.385Z</time></trkpt><trkpt lat="41.8228739" lon="13.3256255"><ele>1516.3333333333335</ele><time>2026-05-03T09:16:14.387Z</time></trkpt><trkpt lat="41.8230118" lon="13.3254507"><ele>1523.0</ele><time>2026-05-03T09:16:15.383Z</time></trkpt><trkpt lat="41.8231232" lon="13.3253093"><ele>1523.0</ele><time>2026-05-03T09:16:16.382Z</time></trkpt><trkpt lat="41.8232071" lon="13.3251528"><ele>1523.0</ele><time>2026-05-03T09:16:17.389Z</time></trkpt><trkpt lat="41.8232918" lon="13.3249634"><ele>1523.0</ele><time>2026-05-03T09:16:18.387Z</time></trkpt><trkpt lat="41.8233017" lon="13.3247181"><ele>1520.3333333333335</ele><time>2026-05-03T09:16:19.386Z</time></trkpt><trkpt lat="41.8233277" lon="13.3244699"><ele>1517.6666666666667</ele><time>2026-05-03T09:16:20.384Z</time></trkpt><trkpt lat="41.8233319" lon="13.3242099"><ele>1515.0</ele><time>2026-05-03T09:16:21.415Z</time></trkpt><trkpt lat="41.8233099" lon="13.3239605"><ele>1513.6666666666667</ele><time>2026-05-03T09:16:22.389Z</time></trkpt><trkpt lat="41.8233105" lon="13.3237411"><ele>1512.3333333333335</ele><time>2026-05-03T09:16:23.382Z</time></trkpt><trkpt lat="41.8233298" lon="13.3235249"><ele>1511.0</ele><time>2026-05-03T09:16:24.397Z</time></trkpt><trkpt lat="41.8233983" lon="13.3233166"><ele>1511.0</ele><time>2026-05-03T09:16:25.382Z</time></trkpt><trkpt lat="41.8234792" lon="13.3231201"><ele>1511.0</ele><time>2026-05-03T09:16:26.387Z</time></trkpt><trkpt lat="41.8235728" lon="13.3229572"><ele>1511.0</ele><time>2026-05-03T09:16:27.39Z</time></trkpt><trkpt lat="41.823685" lon="13.3227983"><ele>1516.6666666666667</ele><time>2026-05-03T09:16:28.386Z</time></trkpt><trkpt lat="41.8238335" lon="13.3226652"><ele>1522.3333333333333</ele><time>2026-05-03T09:16:29.394Z</time></trkpt><trkpt lat="41.8239833" lon="13.3225042"><ele>1528.0</ele><time>2026-05-03T09:16:30.385Z</time></trkpt><trkpt lat="41.8241812" lon="13.3223865"><ele>1525.0</ele><time>2026-05-03T09:16:31.386Z</time></trkpt><trkpt lat="41.8243758" lon="13.3222677"><ele>1522.0</ele><time>2026-05-03T09:16:32.396Z</time></trkpt><trkpt lat="41.8245933" lon="13.322151"><ele>1519.0</ele><time>2026-05-03T09:16:33.386Z</time></trkpt><trkpt lat="41.8248333" lon="13.3220536"><ele>1519.0</ele><time>2026-05-03T09:16:34.399Z</time></trkpt><trkpt lat="41.8250837" lon="13.3219531"><ele>1519.0</ele><time>2026-05-03T09:16:35.393Z</time></trkpt><trkpt lat="41.8254088" lon="13.3218299"><ele>1530.5</ele><time>2026-05-03T09:16:36.396Z</time></trkpt><trkpt lat="41.8256954" lon="13.3217209"><ele>1542.0</ele><time>2026-05-03T09:16:37.394Z</time></trkpt><trkpt lat="41.8259736" lon="13.3216155"><ele>1551.0</ele><time>2026-05-03T09:16:38.404Z</time></trkpt><trkpt lat="41.8262284" lon="13.3215407"><ele>1560.0</ele><time>2026-05-03T09:16:39.39Z</time></trkpt><trkpt lat="41.8264783" lon="13.321459"><ele>1557.0</ele><time>2026-05-03T09:16:40.383Z</time></trkpt><trkpt lat="41.8267393" lon="13.3213121"><ele>1554.0</ele><time>2026-05-03T09:16:41.395Z</time></trkpt><trkpt lat="41.8270097" lon="13.3211602"><ele>1554.0</ele><time>2026-05-03T09:16:42.384Z</time></trkpt><trkpt lat="41.8273023" lon="13.3210042"><ele>1554.0</ele><time>2026-05-03T09:16:43.378Z</time></trkpt><trkpt lat="41.8275834" lon="13.3208114"><ele>1552.5</ele><time>2026-05-03T09:16:44.398Z</time></trkpt><trkpt lat="41.8278468" lon="13.3206174"><ele>1551.0</ele><time>2026-05-03T09:16:45.383Z</time></trkpt><trkpt lat="41.8280739" lon="13.3204311"><ele>1551.0</ele><time>2026-05-03T09:16:46.398Z</time></trkpt><trkpt lat="41.8282889" lon="13.3202662"><ele>1551.0</ele><time>2026-05-03T09:16:47.387Z</time></trkpt><trkpt lat="41.8284776" lon="13.3201379"><ele>1557.3333333333335</ele><time>2026-05-03T09:16:48.386Z</time></trkpt><trkpt lat="41.8286479" lon="13.3200446"><ele>1563.6666666666667</ele><time>2026-05-03T09:16:49.389Z</time></trkpt><trkpt lat="41.8288144" lon="13.3199933"><ele>1570.0</ele><time>2026-05-03T09:16:50.386Z</time></trkpt><trkpt lat="41.8289695" lon="13.3199583"><ele>1570.0</ele><time>2026-05-03T09:16:51.393Z</time></trkpt><trkpt lat="41.8291358" lon="13.3199335"><ele>1570.0</ele><time>2026-05-03T09:16:52.391Z</time></trkpt><trkpt lat="41.8293508" lon="13.3200201"><ele>1570.0</ele><time>2026-05-03T09:16:53.389Z</time></trkpt><trkpt lat="41.8295619" lon="13.3200492"><ele>1571.0</ele><time>2026-05-03T09:16:54.397Z</time></trkpt><trkpt lat="41.8297973" lon="13.3201"><ele>1572.0</ele><time>2026-05-03T09:16:55.386Z</time></trkpt><trkpt lat="41.8299942" lon="13.3201541"><ele>1573.0</ele><time>2026-05-03T09:16:56.385Z</time></trkpt><trkpt lat="41.8301839" lon="13.3202255"><ele>1567.3333333333335</ele><time>2026-05-03T09:16:57.39Z</time></trkpt><trkpt lat="41.8303625" lon="13.3203022"><ele>1561.6666666666665</ele><time>2026-05-03T09:16:58.395Z</time></trkpt><trkpt lat="41.8305173" lon="13.3203746"><ele>1556.0</ele><time>2026-05-03T09:16:59.387Z</time></trkpt><trkpt lat="41.830665" lon="13.3204474"><ele>1556.0</ele><time>2026-05-03T09:17:00.393Z</time></trkpt><trkpt lat="41.8307789" lon="13.3205207"><ele>1556.0</ele><time>2026-05-03T09:17:01.392Z</time></trkpt><trkpt lat="41.8308819" lon="13.3206152"><ele>1556.0</ele><time>2026-05-03T09:17:02.401Z</time></trkpt><trkpt lat="41.8309409" lon="13.3207527"><ele>1556.0</ele><time>2026-05-03T09:17:03.392Z</time></trkpt><trkpt lat="41.8309788" lon="13.32092"><ele>1556.6666666666665</ele><time>2026-05-03T09:17:04.398Z</time></trkpt><trkpt lat="41.8309947" lon="13.3211358"><ele>1557.3333333333335</ele><time>2026-05-03T09:17:05.39Z</time></trkpt><trkpt lat="41.8310031" lon="13.3214102"><ele>1558.0</ele><time>2026-05-03T09:17:06.388Z</time></trkpt><trkpt lat="41.8309916" lon="13.3217001"><ele>1580.5</ele><time>2026-05-03T09:17:07.387Z</time></trkpt><trkpt lat="41.8309545" lon="13.3220032"><ele>1603.0</ele><time>2026-05-03T09:17:08.392Z</time></trkpt><trkpt lat="41.8309008" lon="13.3223108"><ele>1604.3333333333335</ele><time>2026-05-03T09:17:09.387Z</time></trkpt><trkpt lat="41.8308617" lon="13.3225507"><ele>1605.6666666666665</ele><time>2026-05-03T09:17:10.403Z</time></trkpt><trkpt lat="41.8308359" lon="13.3227551"><ele>1607.0</ele><time>2026-05-03T09:17:11.388Z</time></trkpt><trkpt lat="41.8308142" lon="13.3229154"><ele>1607.0</ele><time>2026-05-03T09:17:12.388Z</time></trkpt><trkpt lat="41.8308881" lon="13.3230462"><ele>1607.0</ele><time>2026-05-03T09:17:13.391Z</time></trkpt><trkpt lat="41.830968" lon="13.323166"><ele>1607.0</ele><time>2026-05-03T09:17:14.391Z</time></trkpt><trkpt lat="41.8310906" lon="13.3232546"><ele>1607.0</ele><time>2026-05-03T09:17:15.388Z</time></trkpt><trkpt lat="41.8312385" lon="13.3232932"><ele>1608.6666666666665</ele><time>2026-05-03T09:17:16.392Z</time></trkpt><trkpt lat="41.8313925" lon="13.3233359"><ele>1610.3333333333335</ele><time>2026-05-03T09:17:17.383Z</time></trkpt><trkpt lat="41.8316249" lon="13.3232243"><ele>1612.0</ele><time>2026-05-03T09:17:18.391Z</time></trkpt><trkpt lat="41.8318416" lon="13.323187"><ele>1606.6666666666667</ele><time>2026-05-03T09:17:19.401Z</time></trkpt><trkpt lat="41.8320634" lon="13.3230475"><ele>1601.3333333333335</ele><time>2026-05-03T09:17:20.401Z</time></trkpt><trkpt lat="41.8322282" lon="13.3229594"><ele>1596.0</ele><time>2026-05-03T09:17:21.39Z</time></trkpt><trkpt lat="41.832372" lon="13.3228943"><ele>1596.0</ele><time>2026-05-03T09:17:22.401Z</time></trkpt><trkpt lat="41.8324924" lon="13.3228522"><ele>1596.0</ele><time>2026-05-03T09:17:23.39Z</time></trkpt><trkpt lat="41.8325998" lon="13.322834"><ele>1596.0</ele><time>2026-05-03T09:17:24.39Z</time></trkpt><trkpt lat="41.8326951" lon="13.3230727"><ele>1596.0</ele><time>2026-05-03T09:17:25.392Z</time></trkpt><trkpt lat="41.8328088" lon="13.3232334"><ele>1601.3333333333335</ele><time>2026-05-03T09:17:26.389Z</time></trkpt><trkpt lat="41.8329303" lon="13.323406"><ele>1606.6666666666667</ele><time>2026-05-03T09:17:27.383Z</time></trkpt><trkpt lat="41.8330411" lon="13.3235638"><ele>1612.0</ele><time>2026-05-03T09:17:28.392Z</time></trkpt><trkpt lat="41.8331731" lon="13.3236918"><ele>1612.0</ele><time>2026-05-03T09:17:29.386Z</time></trkpt><trkpt lat="41.8333195" lon="13.3237657"><ele>1612.0</ele><time>2026-05-03T09:17:30.4Z</time></trkpt><trkpt lat="41.8334717" lon="13.3238421"><ele>1612.0</ele><time>2026-05-03T09:17:31.386Z</time></trkpt><trkpt lat="41.8336105" lon="13.3239078"><ele>1611.3333333333335</ele><time>2026-05-03T09:17:32.394Z</time></trkpt><trkpt lat="41.8337772" lon="13.3239023"><ele>1610.6666666666665</ele><time>2026-05-03T09:17:33.389Z</time></trkpt><trkpt lat="41.8339304" lon="13.3239297"><ele>1610.0</ele><time>2026-05-03T09:17:34.394Z</time></trkpt><trkpt lat="41.8341694" lon="13.3237997"><ele>1613.0</ele><time>2026-05-03T09:17:35.387Z</time></trkpt><trkpt lat="41.8343917" lon="13.3237457"><ele>1616.0</ele><time>2026-05-03T09:17:36.395Z</time></trkpt><trkpt lat="41.8345912" lon="13.3237158"><ele>1619.0</ele><time>2026-05-03T09:17:37.39Z</time></trkpt><trkpt lat="41.8347585" lon="13.3236709"><ele>1619.0</ele><time>2026-05-03T09:17:38.39Z</time></trkpt><trkpt lat="41.8349255" lon="13.3236278"><ele>1619.0</ele><time>2026-05-03T09:17:39.381Z</time></trkpt><trkpt lat="41.8350651" lon="13.3235633"><ele>1619.0</ele><time>2026-05-03T09:17:40.392Z</time></trkpt><trkpt lat="41.835182" lon="13.3235221"><ele>1619.0</ele><time>2026-05-03T09:17:41.385Z</time></trkpt><trkpt lat="41.8352764" lon="13.3235399"><ele>1618.8000000000002</ele><time>2026-05-03T09:17:42.395Z</time></trkpt><trkpt lat="41.8353587" lon="13.3235919"><ele>1618.6000000000001</ele><time>2026-05-03T09:17:43.39Z</time></trkpt><trkpt lat="41.8354242" lon="13.323647"><ele>1618.4</ele><time>2026-05-03T09:17:44.401Z</time></trkpt><trkpt lat="41.8354414" lon="13.3237807"><ele>1618.2</ele><time>2026-05-03T09:17:45.385Z</time></trkpt><trkpt lat="41.8353296" lon="13.3238905"><ele>1618.0</ele><time>2026-05-03T09:17:46.394Z</time></trkpt><trkpt lat="41.8352287" lon="13.3239322"><ele>1623.25</ele><time>2026-05-03T09:17:47.383Z</time></trkpt><trkpt lat="41.8350911" lon="13.3239725"><ele>1628.5</ele><time>2026-05-03T09:17:48.393Z</time></trkpt><trkpt lat="41.8349454" lon="13.3240196"><ele>1633.75</ele><time>2026-05-03T09:17:49.389Z</time></trkpt><trkpt lat="41.8347954" lon="13.3240595"><ele>1639.0</ele><time>2026-05-03T09:17:50.394Z</time></trkpt><trkpt lat="41.8346355" lon="13.3241115"><ele>1639.0</ele><time>2026-05-03T09:17:51.39Z</time></trkpt><trkpt lat="41.8344488" lon="13.3241693"><ele>1639.0</ele><time>2026-05-03T09:17:52.389Z</time></trkpt><trkpt lat="41.8342578" lon="13.3242345"><ele>1639.0</ele><time>2026-05-03T09:17:53.386Z</time></trkpt><trkpt lat="41.8340622" lon="13.3243285"><ele>1639.0</ele><time>2026-05-03T09:17:54.392Z</time></trkpt><trkpt lat="41.833889" lon="13.3244124"><ele>1639.0</ele><time>2026-05-03T09:17:55.382Z</time></trkpt><trkpt lat="41.8337211" lon="13.3244594"><ele>1639.0</ele><time>2026-05-03T09:17:56.398Z</time></trkpt><trkpt lat="41.8335378" lon="13.3244716"><ele>1640.3333333333335</ele><time>2026-05-03T09:17:57.384Z</time></trkpt><trkpt lat="41.8333432" lon="13.3244236"><ele>1641.6666666666665</ele><time>2026-05-03T09:17:58.39Z</time></trkpt><trkpt lat="41.8331714" lon="13.3244033"><ele>1643.0</ele><time>2026-05-03T09:17:59.389Z</time></trkpt><trkpt lat="41.8330127" lon="13.3243565"><ele>1643.0</ele><time>2026-05-03T09:18:00.396Z</time></trkpt><trkpt lat="41.8328649" lon="13.3242609"><ele>1643.0</ele><time>2026-05-03T09:18:01.387Z</time></trkpt><trkpt lat="41.8327409" lon="13.3241536"><ele>1643.0</ele><time>2026-05-03T09:18:02.396Z</time></trkpt><trkpt lat="41.832627" lon="13.3240686"><ele>1643.0</ele><time>2026-05-03T09:18:03.394Z</time></trkpt><trkpt lat="41.8325035" lon="13.3240318"><ele>1646.25</ele><time>2026-05-03T09:18:04.39Z</time></trkpt><trkpt lat="41.8323847" lon="13.3240306"><ele>1649.5</ele><time>2026-05-03T09:18:05.397Z</time></trkpt><trkpt lat="41.832239" lon="13.3240551"><ele>1652.75</ele><time>2026-05-03T09:18:06.39Z</time></trkpt><trkpt lat="41.8320815" lon="13.3241581"><ele>1656.0</ele><time>2026-05-03T09:18:07.395Z</time></trkpt><trkpt lat="41.8318967" lon="13.3242487"><ele>1654.5</ele><time>2026-05-03T09:18:08.392Z</time></trkpt><trkpt lat="41.8316975" lon="13.3243922"><ele>1653.0</ele><time>2026-05-03T09:18:09.399Z</time></trkpt><trkpt lat="41.8314884" lon="13.3245138"><ele>1653.0</ele><time>2026-05-03T09:18:10.388Z</time></trkpt><trkpt lat="41.8312671" lon="13.3246175"><ele>1653.0</ele><time>2026-05-03T09:18:11.401Z</time></trkpt><trkpt lat="41.8310193" lon="13.3247209"><ele>1663.0</ele><time>2026-05-03T09:18:12.395Z</time></trkpt><trkpt lat="41.830792" lon="13.3248323"><ele>1673.0</ele><time>2026-05-03T09:18:13.392Z</time></trkpt><trkpt lat="41.8305913" lon="13.3249355"><ele>1673.0</ele><time>2026-05-03T09:18:14.39Z</time></trkpt><trkpt lat="41.8303837" lon="13.3250343"><ele>1673.0</ele><time>2026-05-03T09:18:15.403Z</time></trkpt><trkpt lat="41.8301772" lon="13.3250984"><ele>1673.0</ele><time>2026-05-03T09:18:16.39Z</time></trkpt><trkpt lat="41.8300169" lon="13.3251306"><ele>1673.25</ele><time>2026-05-03T09:18:17.392Z</time></trkpt><trkpt lat="41.8298753" lon="13.3251319"><ele>1673.5</ele><time>2026-05-03T09:18:18.391Z</time></trkpt><trkpt lat="41.8297609" lon="13.32509"><ele>1673.75</ele><time>2026-05-03T09:18:19.394Z</time></trkpt><trkpt lat="41.8296722" lon="13.3249918"><ele>1674.0</ele><time>2026-05-03T09:18:20.388Z</time></trkpt><trkpt lat="41.829611" lon="13.3248397"><ele>1669.6666666666665</ele><time>2026-05-03T09:18:21.393Z</time></trkpt><trkpt lat="41.8295775" lon="13.324638"><ele>1665.3333333333333</ele><time>2026-05-03T09:18:22.391Z</time></trkpt><trkpt lat="41.8295316" lon="13.32439"><ele>1661.0</ele><time>2026-05-03T09:18:23.391Z</time></trkpt><trkpt lat="41.829494" lon="13.3241355"><ele>1659.6666666666665</ele><time>2026-05-03T09:18:24.393Z</time></trkpt><trkpt lat="41.8294685" lon="13.3238852"><ele>1658.3333333333335</ele><time>2026-05-03T09:18:25.396Z</time></trkpt><trkpt lat="41.8294286" lon="13.3236378"><ele>1657.0</ele><time>2026-05-03T09:18:26.386Z</time></trkpt><trkpt lat="41.8293892" lon="13.3234027"><ele>1657.0</ele><time>2026-05-03T09:18:27.402Z</time></trkpt><trkpt lat="41.829339" lon="13.3232159"><ele>1657.0</ele><time>2026-05-03T09:18:28.394Z</time></trkpt><trkpt lat="41.8292841" lon="13.3230697"><ele>1657.0</ele><time>2026-05-03T09:18:29.387Z</time></trkpt><trkpt lat="41.8292182" lon="13.3229559"><ele>1657.0</ele><time>2026-05-03T09:18:30.388Z</time></trkpt><trkpt lat="41.8290611" lon="13.3229504"><ele>1660.75</ele><time>2026-05-03T09:18:31.387Z</time></trkpt><trkpt lat="41.8289512" lon="13.3229478"><ele>1664.5</ele><time>2026-05-03T09:18:32.383Z</time></trkpt><trkpt lat="41.8288089" lon="13.3230272"><ele>1668.25</ele><time>2026-05-03T09:18:33.394Z</time></trkpt><trkpt lat="41.8286785" lon="13.3231508"><ele>1672.0</ele><time>2026-05-03T09:18:34.389Z</time></trkpt><trkpt lat="41.8285818" lon="13.3233057"><ele>1675.25</ele><time>2026-05-03T09:18:35.394Z</time></trkpt><trkpt lat="41.8284861" lon="13.3234465"><ele>1678.5</ele><time>2026-05-03T09:18:36.387Z</time></trkpt><trkpt lat="41.8283659" lon="13.323532"><ele>1681.75</ele><time>2026-05-03T09:18:37.394Z</time></trkpt><trkpt lat="41.8282496" lon="13.3236306"><ele>1685.0</ele><time>2026-05-03T09:18:38.388Z</time></trkpt><trkpt lat="41.8280938" lon="13.3235978"><ele>1685.0</ele><time>2026-05-03T09:18:39.404Z</time></trkpt><trkpt lat="41.8279553" lon="13.323622"><ele>1685.0</ele><time>2026-05-03T09:18:40.387Z</time></trkpt><trkpt lat="41.8278278" lon="13.3236973"><ele>1685.0</ele><time>2026-05-03T09:18:41.392Z</time></trkpt><trkpt lat="41.8277156" lon="13.3238196"><ele>1685.0</ele><time>2026-05-03T09:18:42.382Z</time></trkpt><trkpt lat="41.827604" lon="13.3239603"><ele>1691.6666666666665</ele><time>2026-05-03T09:18:43.388Z</time></trkpt><trkpt lat="41.8274817" lon="13.3240819"><ele>1698.3333333333335</ele><time>2026-05-03T09:18:44.385Z</time></trkpt><trkpt lat="41.8273335" lon="13.3241956"><ele>1705.0</ele><time>2026-05-03T09:18:45.394Z</time></trkpt><trkpt lat="41.8271467" lon="13.3243122"><ele>1705.0</ele><time>2026-05-03T09:18:46.388Z</time></trkpt><trkpt lat="41.8269164" lon="13.3244253"><ele>1705.0</ele><time>2026-05-03T09:18:47.388Z</time></trkpt><trkpt lat="41.8266743" lon="13.3245418"><ele>1710.6666666666667</ele><time>2026-05-03T09:18:48.381Z</time></trkpt><trkpt lat="41.8264575" lon="13.324644"><ele>1716.3333333333335</ele><time>2026-05-03T09:18:49.389Z</time></trkpt><trkpt lat="41.8262788" lon="13.3247494"><ele>1722.0</ele><time>2026-05-03T09:18:50.386Z</time></trkpt><trkpt lat="41.8261311" lon="13.3248368"><ele>1722.0</ele><time>2026-05-03T09:18:51.395Z</time></trkpt><trkpt lat="41.8260073" lon="13.3249435"><ele>1722.0</ele><time>2026-05-03T09:18:52.379Z</time></trkpt><trkpt lat="41.8258992" lon="13.3250823"><ele>1722.0</ele><time>2026-05-03T09:18:53.39Z</time></trkpt><trkpt lat="41.8258191" lon="13.3252452"><ele>1722.0</ele><time>2026-05-03T09:18:54.384Z</time></trkpt><trkpt lat="41.8257776" lon="13.3254444"><ele>1718.6666666666665</ele><time>2026-05-03T09:18:55.386Z</time></trkpt><trkpt lat="41.8257628" lon="13.3256842"><ele>1715.3333333333333</ele><time>2026-05-03T09:18:56.389Z</time></trkpt><trkpt lat="41.8257541" lon="13.3259166"><ele>1712.0</ele><time>2026-05-03T09:18:57.392Z</time></trkpt><trkpt lat="41.8257604" lon="13.3261271"><ele>1712.0</ele><time>2026-05-03T09:18:58.39Z</time></trkpt><trkpt lat="41.825793" lon="13.326339"><ele>1712.0</ele><time>2026-05-03T09:18:59.391Z</time></trkpt><trkpt lat="41.8258621" lon="13.3265637"><ele>1712.0</ele><time>2026-05-03T09:19:00.385Z</time></trkpt><trkpt lat="41.8259245" lon="13.3267939"><ele>1721.0</ele><time>2026-05-03T09:19:01.391Z</time></trkpt><trkpt lat="41.8260454" lon="13.3270049"><ele>1730.0</ele><time>2026-05-03T09:19:02.383Z</time></trkpt><trkpt lat="41.826167" lon="13.3271936"><ele>1739.0</ele><time>2026-05-03T09:19:03.391Z</time></trkpt><trkpt lat="41.8262958" lon="13.3273792"><ele>1739.0</ele><time>2026-05-03T09:19:04.384Z</time></trkpt><trkpt lat="41.826428" lon="13.3275579"><ele>1739.0</ele><time>2026-05-03T09:19:05.388Z</time></trkpt><trkpt lat="41.8265562" lon="13.3277286"><ele>1739.0</ele><time>2026-05-03T09:19:06.382Z</time></trkpt><trkpt lat="41.8266894" lon="13.3278856"><ele>1745.0</ele><time>2026-05-03T09:19:07.391Z</time></trkpt><trkpt lat="41.8268212" lon="13.32803"><ele>1751.0</ele><time>2026-05-03T09:19:08.39Z</time></trkpt><trkpt lat="41.8269377" lon="13.3281695"><ele>1757.0</ele><time>2026-05-03T09:19:09.388Z</time></trkpt><trkpt lat="41.8270423" lon="13.32832"><ele>1757.0</ele><time>2026-05-03T09:19:10.383Z</time></trkpt><trkpt lat="41.8271312" lon="13.328483"><ele>1757.0</ele><time>2026-05-03T09:19:11.398Z</time></trkpt><trkpt lat="41.8272079" lon="13.3286696"><ele>1757.0</ele><time>2026-05-03T09:19:12.381Z</time></trkpt><trkpt lat="41.8272839" lon="13.3288713"><ele>1750.0</ele><time>2026-05-03T09:19:13.386Z</time></trkpt><trkpt lat="41.8273768" lon="13.3290796"><ele>1743.0</ele><time>2026-05-03T09:19:14.387Z</time></trkpt><trkpt lat="41.8274938" lon="13.3292941"><ele>1736.0</ele><time>2026-05-03T09:19:15.388Z</time></trkpt><trkpt lat="41.8275959" lon="13.3294902"><ele>1743.0</ele><time>2026-05-03T09:19:16.383Z</time></trkpt><trkpt lat="41.8276839" lon="13.3296757"><ele>1750.0</ele><time>2026-05-03T09:19:17.399Z</time></trkpt><trkpt lat="41.8277781" lon="13.3298467"><ele>1757.0</ele><time>2026-05-03T09:19:18.398Z</time></trkpt><trkpt lat="41.8278622" lon="13.3300075"><ele>1757.0</ele><time>2026-05-03T09:19:19.392Z</time></trkpt><trkpt lat="41.8279361" lon="13.3301558"><ele>1757.0</ele><time>2026-05-03T09:19:20.39Z</time></trkpt><trkpt lat="41.828006" lon="13.3302832"><ele>1757.0</ele><time>2026-05-03T09:19:21.393Z</time></trkpt><trkpt lat="41.8280947" lon="13.3304021"><ele>1757.0</ele><time>2026-05-03T09:19:22.381Z</time></trkpt><trkpt lat="41.8281907" lon="13.3304997"><ele>1757.25</ele><time>2026-05-03T09:19:23.382Z</time></trkpt><trkpt lat="41.8282938" lon="13.3305805"><ele>1757.5</ele><time>2026-05-03T09:19:24.388Z</time></trkpt><trkpt lat="41.82841" lon="13.3306524"><ele>1757.75</ele><time>2026-05-03T09:19:25.386Z</time></trkpt><trkpt lat="41.828518" lon="13.3307182"><ele>1758.0</ele><time>2026-05-03T09:19:26.383Z</time></trkpt><trkpt lat="41.8286248" lon="13.3307788"><ele>1758.0</ele><time>2026-05-03T09:19:27.387Z</time></trkpt><trkpt lat="41.828725" lon="13.3308648"><ele>1758.0</ele><time>2026-05-03T09:19:28.383Z</time></trkpt><trkpt lat="41.8288371" lon="13.3309132"><ele>1758.0</ele><time>2026-05-03T09:19:29.39Z</time></trkpt><trkpt lat="41.8289588" lon="13.3309345"><ele>1758.0</ele><time>2026-05-03T09:19:30.389Z</time></trkpt><trkpt lat="41.8290875" lon="13.3309608"><ele>1758.0</ele><time>2026-05-03T09:19:31.394Z</time></trkpt><trkpt lat="41.8292141" lon="13.331005"><ele>1758.0</ele><time>2026-05-03T09:19:32.388Z</time></trkpt><trkpt lat="41.8293361" lon="13.3310569"><ele>1758.0</ele><time>2026-05-03T09:19:33.394Z</time></trkpt><trkpt lat="41.8294634" lon="13.3311223"><ele>1758.0</ele><time>2026-05-03T09:19:34.384Z</time></trkpt><trkpt lat="41.8295932" lon="13.331207"><ele>1756.75</ele><time>2026-05-03T09:19:35.398Z</time></trkpt><trkpt lat="41.8297185" lon="13.3312913"><ele>1755.5</ele><time>2026-05-03T09:19:36.39Z</time></trkpt><trkpt lat="41.8298381" lon="13.3313939"><ele>1754.25</ele><time>2026-05-03T09:19:37.391Z</time></trkpt><trkpt lat="41.8299514" lon="13.3315135"><ele>1753.0</ele><time>2026-05-03T09:19:38.391Z</time></trkpt><trkpt lat="41.8300644" lon="13.3316334"><ele>1761.6666666666667</ele><time>2026-05-03T09:19:39.402Z</time></trkpt><trkpt lat="41.8301831" lon="13.3317553"><ele>1770.3333333333335</ele><time>2026-05-03T09:19:40.392Z</time></trkpt><trkpt lat="41.8302958" lon="13.3318908"><ele>1779.0</ele><time>2026-05-03T09:19:41.39Z</time></trkpt><trkpt lat="41.8304006" lon="13.3320376"><ele>1779.0</ele><time>2026-05-03T09:19:42.388Z</time></trkpt><trkpt lat="41.8305001" lon="13.3321918"><ele>1779.0</ele><time>2026-05-03T09:19:43.39Z</time></trkpt><trkpt lat="41.830575" lon="13.3323634"><ele>1779.0</ele><time>2026-05-03T09:19:44.383Z</time></trkpt><trkpt lat="41.8306321" lon="13.3325457"><ele>1779.0</ele><time>2026-05-03T09:19:45.394Z</time></trkpt><trkpt lat="41.8306659" lon="13.3327366"><ele>1776.5</ele><time>2026-05-03T09:19:46.382Z</time></trkpt><trkpt lat="41.8306926" lon="13.3329312"><ele>1774.0</ele><time>2026-05-03T09:19:47.387Z</time></trkpt><trkpt lat="41.8307215" lon="13.3331269"><ele>1771.5</ele><time>2026-05-03T09:19:48.386Z</time></trkpt><trkpt lat="41.8307495" lon="13.3332998"><ele>1769.0</ele><time>2026-05-03T09:19:49.396Z</time></trkpt><trkpt lat="41.8307982" lon="13.3334683"><ele>1768.5</ele><time>2026-05-03T09:19:50.391Z</time></trkpt><trkpt lat="41.8308692" lon="13.333624"><ele>1768.0</ele><time>2026-05-03T09:19:51.39Z</time></trkpt><trkpt lat="41.8309519" lon="13.333738"><ele>1767.5</ele><time>2026-05-03T09:19:52.387Z</time></trkpt><trkpt lat="41.8310393" lon="13.3338322"><ele>1767.0</ele><time>2026-05-03T09:19:53.39Z</time></trkpt><trkpt lat="41.8311203" lon="13.3339399"><ele>1768.5</ele><time>2026-05-03T09:19:54.385Z</time></trkpt><trkpt lat="41.8311839" lon="13.334065"><ele>1770.0</ele><time>2026-05-03T09:19:55.387Z</time></trkpt><trkpt lat="41.8312326" lon="13.3342012"><ele>1771.5</ele><time>2026-05-03T09:19:56.386Z</time></trkpt><trkpt lat="41.8312619" lon="13.3343452"><ele>1773.0</ele><time>2026-05-03T09:19:57.389Z</time></trkpt><trkpt lat="41.831285" lon="13.3345036"><ele>1773.0</ele><time>2026-05-03T09:19:58.39Z</time></trkpt><trkpt lat="41.831315" lon="13.3346594"><ele>1773.0</ele><time>2026-05-03T09:19:59.394Z</time></trkpt><trkpt lat="41.8313467" lon="13.3348317"><ele>1773.0</ele><time>2026-05-03T09:20:00.391Z</time></trkpt><trkpt lat="41.831392" lon="13.3350029"><ele>1773.0</ele><time>2026-05-03T09:20:01.396Z</time></trkpt><trkpt lat="41.8314566" lon="13.3351868"><ele>1772.6666666666665</ele><time>2026-05-03T09:20:02.396Z</time></trkpt><trkpt lat="41.8315571" lon="13.3353979"><ele>1772.3333333333333</ele><time>2026-05-03T09:20:03.39Z</time></trkpt><trkpt lat="41.8316706" lon="13.3356201"><ele>1772.0</ele><time>2026-05-03T09:20:04.394Z</time></trkpt><trkpt lat="41.8317928" lon="13.3358459"><ele>1776.0</ele><time>2026-05-03T09:20:05.392Z</time></trkpt><trkpt lat="41.8319319" lon="13.3360612"><ele>1780.0</ele><time>2026-05-03T09:20:06.389Z</time></trkpt><trkpt lat="41.8320638" lon="13.3362354"><ele>1784.0</ele><time>2026-05-03T09:20:07.385Z</time></trkpt><trkpt lat="41.832192" lon="13.3363759"><ele>1782.6666666666665</ele><time>2026-05-03T09:20:08.396Z</time></trkpt><trkpt lat="41.8323254" lon="13.3365007"><ele>1781.3333333333335</ele><time>2026-05-03T09:20:09.388Z</time></trkpt><trkpt lat="41.8324534" lon="13.3366099"><ele>1780.0</ele><time>2026-05-03T09:20:10.395Z</time></trkpt><trkpt lat="41.8325792" lon="13.3367081"><ele>1782.5</ele><time>2026-05-03T09:20:11.388Z</time></trkpt><trkpt lat="41.8327027" lon="13.3367807"><ele>1785.0</ele><time>2026-05-03T09:20:12.392Z</time></trkpt><trkpt lat="41.8328305" lon="13.336827"><ele>1787.5</ele><time>2026-05-03T09:20:13.39Z</time></trkpt><trkpt lat="41.8329538" lon="13.3368462"><ele>1790.0</ele><time>2026-05-03T09:20:14.386Z</time></trkpt><trkpt lat="41.8330692" lon="13.3368293"><ele>1790.0</ele><time>2026-05-03T09:20:15.391Z</time></trkpt><trkpt lat="41.8331712" lon="13.3367979"><ele>1790.0</ele><time>2026-05-03T09:20:16.394Z</time></trkpt><trkpt lat="41.8332836" lon="13.3367763"><ele>1790.0</ele><time>2026-05-03T09:20:17.395Z</time></trkpt><trkpt lat="41.833398" lon="13.3367531"><ele>1790.0</ele><time>2026-05-03T09:20:18.395Z</time></trkpt><trkpt lat="41.8335254" lon="13.3367539"><ele>1791.2</ele><time>2026-05-03T09:20:19.391Z</time></trkpt><trkpt lat="41.8336314" lon="13.3367641"><ele>1792.4</ele><time>2026-05-03T09:20:20.387Z</time></trkpt><trkpt lat="41.8337327" lon="13.336805"><ele>1793.6</ele><time>2026-05-03T09:20:21.39Z</time></trkpt><trkpt lat="41.8338176" lon="13.3368401"><ele>1794.8</ele><time>2026-05-03T09:20:22.384Z</time></trkpt><trkpt lat="41.8339032" lon="13.3368758"><ele>1796.0</ele><time>2026-05-03T09:20:23.396Z</time></trkpt><trkpt lat="41.8339853" lon="13.3369056"><ele>1795.9999999999998</ele><time>2026-05-03T09:20:24.392Z</time></trkpt><trkpt lat="41.8340603" lon="13.3369156"><ele>1796.0</ele><time>2026-05-03T09:20:25.389Z</time></trkpt><trkpt lat="41.8341309" lon="13.3369174"><ele>1796.0</ele><time>2026-05-03T09:20:26.392Z</time></trkpt><trkpt lat="41.8341988" lon="13.3369177"><ele>1796.0</ele><time>2026-05-03T09:20:27.389Z</time></trkpt><trkpt lat="41.8342629" lon="13.3369218"><ele>1795.9999999999998</ele><time>2026-05-03T09:20:28.394Z</time></trkpt><trkpt lat="41.8343855" lon="13.3369336"><ele>1796.0</ele><time>2026-05-03T09:20:30.407Z</time></trkpt><trkpt lat="41.8344973" lon="13.3369705"><ele>1796.8333333333333</ele><time>2026-05-03T09:20:32.399Z</time></trkpt><trkpt lat="41.8345861" lon="13.3370186"><ele>1797.6666666666665</ele><time>2026-05-03T09:20:34.398Z</time></trkpt><trkpt lat="41.8346757" lon="13.3370463"><ele>1798.5</ele><time>2026-05-03T09:20:36.394Z</time></trkpt><trkpt lat="41.8347498" lon="13.3370318"><ele>1799.3333333333335</ele><time>2026-05-03T09:20:38.398Z</time></trkpt><trkpt lat="41.8348331" lon="13.3369636"><ele>1800.1666666666667</ele><time>2026-05-03T09:20:41.391Z</time></trkpt><trkpt lat="41.8349085" lon="13.3369312"><ele>1801.0</ele><time>2026-05-03T09:20:43.399Z</time></trkpt><trkpt lat="41.8349815" lon="13.3369107"><ele>1801.0</ele><time>2026-05-03T09:20:45.397Z</time></trkpt><trkpt lat="41.8350657" lon="13.3369053"><ele>1801.0</ele><time>2026-05-03T09:20:48.383Z</time></trkpt><trkpt lat="41.8351061" lon="13.3368397"><ele>1801.0</ele><time>2026-05-03T09:20:52.39Z</time></trkpt></trkseg><trkseg><trkpt lat="41.8349819" lon="13.3368936"><ele>1801.0</ele><time>2026-05-03T10:08:00.392Z</time></trkpt><trkpt lat="41.8348963" lon="13.3369099"><ele>1801.0</ele><time>2026-05-03T10:08:03.394Z</time></trkpt><trkpt lat="41.8348272" lon="13.3369271"><ele>1801.0</ele><time>2026-05-03T10:08:05.396Z</time></trkpt><trkpt lat="41.8347555" lon="13.336926"><ele>1801.0</ele><time>2026-05-03T10:08:07.401Z</time></trkpt><trkpt lat="41.8346859" lon="13.3369121"><ele>1801.0</ele><time>2026-05-03T10:08:09.399Z</time></trkpt><trkpt lat="41.8346149" lon="13.3368995"><ele>1801.0</ele><time>2026-05-03T10:08:11.399Z</time></trkpt><trkpt lat="41.8345436" lon="13.3368861"><ele>1801.0</ele><time>2026-05-03T10:08:13.39Z</time></trkpt><trkpt lat="41.8344763" lon="13.3368672"><ele>1801.0000000000002</ele><time>2026-05-03T10:08:15.403Z</time></trkpt><trkpt lat="41.8344065" lon="13.3368472"><ele>1801.0</ele><time>2026-05-03T10:08:17.395Z</time></trkpt><trkpt lat="41.8343299" lon="13.3368384"><ele>1801.0</ele><time>2026-05-03T10:08:19.393Z</time></trkpt><trkpt lat="41.8342487" lon="13.3368356"><ele>1801.0</ele><time>2026-05-03T10:08:21.394Z</time></trkpt><trkpt lat="41.8341607" lon="13.3368244"><ele>1801.0000000000002</ele><time>2026-05-03T10:08:23.395Z</time></trkpt><trkpt lat="41.8340673" lon="13.3368186"><ele>1801.0</ele><time>2026-05-03T10:08:25.392Z</time></trkpt><trkpt lat="41.8339721" lon="13.336782"><ele>1799.75</ele><time>2026-05-03T10:08:27.394Z</time></trkpt><trkpt lat="41.8338563" lon="13.3367284"><ele>1798.5</ele><time>2026-05-03T10:08:29.394Z</time></trkpt><trkpt lat="41.8337432" lon="13.3366801"><ele>1797.25</ele><time>2026-05-03T10:08:31.394Z</time></trkpt><trkpt lat="41.8336266" lon="13.3366447"><ele>1796.0</ele><time>2026-05-03T10:08:33.395Z</time></trkpt><trkpt lat="41.8335237" lon="13.3366327"><ele>1794.8</ele><time>2026-05-03T10:08:35.393Z</time></trkpt><trkpt lat="41.833419" lon="13.3366159"><ele>1793.6</ele><time>2026-05-03T10:08:37.405Z</time></trkpt><trkpt lat="41.8333254" lon="13.3365432"><ele>1792.4</ele><time>2026-05-03T10:08:39.411Z</time></trkpt><trkpt lat="41.8332694" lon="13.3364336"><ele>1791.2</ele><time>2026-05-03T10:08:41.394Z</time></trkpt><trkpt lat="41.8332408" lon="13.3363559"><ele>1790.0</ele><time>2026-05-03T10:08:42.405Z</time></trkpt><trkpt lat="41.8331605" lon="13.336221"><ele>1788.6666666666665</ele><time>2026-05-03T10:08:44.405Z</time></trkpt><trkpt lat="41.8331042" lon="13.3361601"><ele>1787.3333333333333</ele><time>2026-05-03T10:08:45.405Z</time></trkpt><trkpt lat="41.8330402" lon="13.3361141"><ele>1786.0</ele><time>2026-05-03T10:08:46.395Z</time></trkpt><trkpt lat="41.8329741" lon="13.336096"><ele>1784.6666666666665</ele><time>2026-05-03T10:08:47.405Z</time></trkpt><trkpt lat="41.8329004" lon="13.3361012"><ele>1783.3333333333333</ele><time>2026-05-03T10:08:48.397Z</time></trkpt><trkpt lat="41.8328204" lon="13.3361352"><ele>1782.0</ele><time>2026-05-03T10:08:49.4Z</time></trkpt><trkpt lat="41.8327456" lon="13.3361899"><ele>1782.0</ele><time>2026-05-03T10:08:50.395Z</time></trkpt><trkpt lat="41.832661" lon="13.3362493"><ele>1782.0</ele><time>2026-05-03T10:08:51.393Z</time></trkpt><trkpt lat="41.8325725" lon="13.3362954"><ele>1782.0</ele><time>2026-05-03T10:08:52.393Z</time></trkpt><trkpt lat="41.8324903" lon="13.336323"><ele>1782.0</ele><time>2026-05-03T10:08:53.392Z</time></trkpt><trkpt lat="41.8324067" lon="13.3363388"><ele>1782.0</ele><time>2026-05-03T10:08:54.395Z</time></trkpt><trkpt lat="41.8323248" lon="13.3363293"><ele>1782.0</ele><time>2026-05-03T10:08:55.394Z</time></trkpt><trkpt lat="41.8322431" lon="13.3362967"><ele>1782.3999999999999</ele><time>2026-05-03T10:08:56.399Z</time></trkpt><trkpt lat="41.8321561" lon="13.3362321"><ele>1782.7999999999997</ele><time>2026-05-03T10:08:57.402Z</time></trkpt><trkpt lat="41.8320736" lon="13.3361371"><ele>1783.2</ele><time>2026-05-03T10:08:58.395Z</time></trkpt><trkpt lat="41.831993" lon="13.3360216"><ele>1783.6</ele><time>2026-05-03T10:08:59.395Z</time></trkpt><trkpt lat="41.8319162" lon="13.3359004"><ele>1784.0</ele><time>2026-05-03T10:09:00.403Z</time></trkpt><trkpt lat="41.8318413" lon="13.3357766"><ele>1782.25</ele><time>2026-05-03T10:09:01.4Z</time></trkpt><trkpt lat="41.8317675" lon="13.3356534"><ele>1780.5</ele><time>2026-05-03T10:09:02.399Z</time></trkpt><trkpt lat="41.831693" lon="13.3355316"><ele>1778.75</ele><time>2026-05-03T10:09:03.394Z</time></trkpt><trkpt lat="41.831618" lon="13.3354129"><ele>1777.0</ele><time>2026-05-03T10:09:04.401Z</time></trkpt><trkpt lat="41.8315496" lon="13.3352898"><ele>1777.0</ele><time>2026-05-03T10:09:05.396Z</time></trkpt><trkpt lat="41.831489" lon="13.3351552"><ele>1777.0</ele><time>2026-05-03T10:09:06.396Z</time></trkpt><trkpt lat="41.8314319" lon="13.3350165"><ele>1777.0</ele><time>2026-05-03T10:09:07.392Z</time></trkpt><trkpt lat="41.8313903" lon="13.3348649"><ele>1777.0</ele><time>2026-05-03T10:09:08.395Z</time></trkpt><trkpt lat="41.831356" lon="13.3347133"><ele>1776.1999999999998</ele><time>2026-05-03T10:09:09.392Z</time></trkpt><trkpt lat="41.8313255" lon="13.3345627"><ele>1775.3999999999999</ele><time>2026-05-03T10:09:10.393Z</time></trkpt><trkpt lat="41.8312985" lon="13.3344148"><ele>1774.6000000000001</ele><time>2026-05-03T10:09:11.392Z</time></trkpt><trkpt lat="41.8312686" lon="13.3342724"><ele>1773.8000000000002</ele><time>2026-05-03T10:09:12.394Z</time></trkpt><trkpt lat="41.8312291" lon="13.3341368"><ele>1773.0</ele><time>2026-05-03T10:09:13.393Z</time></trkpt><trkpt lat="41.8311766" lon="13.3340113"><ele>1773.0</ele><time>2026-05-03T10:09:14.391Z</time></trkpt><trkpt lat="41.8311144" lon="13.3339012"><ele>1773.0000000000002</ele><time>2026-05-03T10:09:15.399Z</time></trkpt><trkpt lat="41.8310345" lon="13.3338069"><ele>1773.0000000000002</ele><time>2026-05-03T10:09:16.396Z</time></trkpt><trkpt lat="41.8309527" lon="13.3337172"><ele>1773.0</ele><time>2026-05-03T10:09:17.395Z</time></trkpt><trkpt lat="41.8308786" lon="13.3336106"><ele>1773.0</ele><time>2026-05-03T10:09:18.393Z</time></trkpt><trkpt lat="41.830824" lon="13.3334879"><ele>1772.0</ele><time>2026-05-03T10:09:19.397Z</time></trkpt><trkpt lat="41.8307841" lon="13.3333512"><ele>1771.0</ele><time>2026-05-03T10:09:20.388Z</time></trkpt><trkpt lat="41.8307542" lon="13.3332087"><ele>1770.0</ele><time>2026-05-03T10:09:21.396Z</time></trkpt><trkpt lat="41.8307319" lon="13.3330591"><ele>1769.0</ele><time>2026-05-03T10:09:22.392Z</time></trkpt><trkpt lat="41.830709" lon="13.3328962"><ele>1769.0</ele><time>2026-05-03T10:09:23.393Z</time></trkpt><trkpt lat="41.8306807" lon="13.3327343"><ele>1769.0</ele><time>2026-05-03T10:09:24.395Z</time></trkpt><trkpt lat="41.8306496" lon="13.3325677"><ele>1769.0</ele><time>2026-05-03T10:09:25.394Z</time></trkpt><trkpt lat="41.8306078" lon="13.3324032"><ele>1769.0</ele><time>2026-05-03T10:09:26.393Z</time></trkpt><trkpt lat="41.8305389" lon="13.3322429"><ele>1771.5</ele><time>2026-05-03T10:09:27.392Z</time></trkpt><trkpt lat="41.8304599" lon="13.3320957"><ele>1774.0</ele><time>2026-05-03T10:09:28.392Z</time></trkpt><trkpt lat="41.8303607" lon="13.3319602"><ele>1776.5</ele><time>2026-05-03T10:09:29.391Z</time></trkpt><trkpt lat="41.8302561" lon="13.3318299"><ele>1779.0</ele><time>2026-05-03T10:09:30.393Z</time></trkpt><trkpt lat="41.8301437" lon="13.3317074"><ele>1777.3333333333335</ele><time>2026-05-03T10:09:31.392Z</time></trkpt><trkpt lat="41.830018" lon="13.3315858"><ele>1775.6666666666667</ele><time>2026-05-03T10:09:32.392Z</time></trkpt><trkpt lat="41.8298924" lon="13.3314689"><ele>1774.0</ele><time>2026-05-03T10:09:33.392Z</time></trkpt><trkpt lat="41.8297633" lon="13.3313483"><ele>1774.0</ele><time>2026-05-03T10:09:34.395Z</time></trkpt><trkpt lat="41.8296229" lon="13.331237"><ele>1774.0</ele><time>2026-05-03T10:09:35.395Z</time></trkpt><trkpt lat="41.8294826" lon="13.3311431"><ele>1774.0</ele><time>2026-05-03T10:09:36.391Z</time></trkpt><trkpt lat="41.8293408" lon="13.3310634"><ele>1768.6666666666667</ele><time>2026-05-03T10:09:37.394Z</time></trkpt><trkpt lat="41.8291838" lon="13.3309997"><ele>1763.3333333333335</ele><time>2026-05-03T10:09:38.391Z</time></trkpt><trkpt lat="41.8290296" lon="13.3309557"><ele>1758.0</ele><time>2026-05-03T10:09:39.398Z</time></trkpt><trkpt lat="41.828885" lon="13.3309187"><ele>1758.0</ele><time>2026-05-03T10:09:40.396Z</time></trkpt><trkpt lat="41.8287559" lon="13.3308661"><ele>1758.0</ele><time>2026-05-03T10:09:41.4Z</time></trkpt><trkpt lat="41.8286366" lon="13.3307878"><ele>1758.0</ele><time>2026-05-03T10:09:42.402Z</time></trkpt><trkpt lat="41.8285187" lon="13.3307127"><ele>1758.0</ele><time>2026-05-03T10:09:43.401Z</time></trkpt><trkpt lat="41.8284096" lon="13.3306413"><ele>1757.75</ele><time>2026-05-03T10:09:44.394Z</time></trkpt><trkpt lat="41.8282999" lon="13.3305823"><ele>1757.5</ele><time>2026-05-03T10:09:45.4Z</time></trkpt><trkpt lat="41.8282071" lon="13.3305105"><ele>1757.25</ele><time>2026-05-03T10:09:46.393Z</time></trkpt><trkpt lat="41.8281136" lon="13.3304356"><ele>1757.0</ele><time>2026-05-03T10:09:47.395Z</time></trkpt><trkpt lat="41.8280285" lon="13.3302827"><ele>1757.0</ele><time>2026-05-03T10:09:48.394Z</time></trkpt><trkpt lat="41.827947" lon="13.3301503"><ele>1757.0</ele><time>2026-05-03T10:09:49.394Z</time></trkpt><trkpt lat="41.8278746" lon="13.3300065"><ele>1757.0</ele><time>2026-05-03T10:09:50.392Z</time></trkpt><trkpt lat="41.8277995" lon="13.3298622"><ele>1757.0</ele><time>2026-05-03T10:09:51.394Z</time></trkpt><trkpt lat="41.8277241" lon="13.3297294"><ele>1759.75</ele><time>2026-05-03T10:09:52.393Z</time></trkpt><trkpt lat="41.8276459" lon="13.329599"><ele>1762.5</ele><time>2026-05-03T10:09:53.393Z</time></trkpt><trkpt lat="41.8275718" lon="13.3294551"><ele>1765.25</ele><time>2026-05-03T10:09:54.387Z</time></trkpt><trkpt lat="41.8274919" lon="13.3293063"><ele>1768.0</ele><time>2026-05-03T10:09:55.389Z</time></trkpt><trkpt lat="41.8274162" lon="13.3291452"><ele>1765.25</ele><time>2026-05-03T10:09:56.389Z</time></trkpt><trkpt lat="41.8273481" lon="13.3289836"><ele>1762.5</ele><time>2026-05-03T10:09:57.388Z</time></trkpt><trkpt lat="41.8272794" lon="13.3288207"><ele>1759.75</ele><time>2026-05-03T10:09:58.393Z</time></trkpt><trkpt lat="41.8272126" lon="13.3286664"><ele>1757.0</ele><time>2026-05-03T10:09:59.389Z</time></trkpt><trkpt lat="41.8271322" lon="13.328511"><ele>1757.0</ele><time>2026-05-03T10:10:00.391Z</time></trkpt><trkpt lat="41.8270347" lon="13.3283524"><ele>1757.0</ele><time>2026-05-03T10:10:01.39Z</time></trkpt><trkpt lat="41.8269294" lon="13.3282009"><ele>1757.0</ele><time>2026-05-03T10:10:02.392Z</time></trkpt><trkpt lat="41.8268229" lon="13.3280533"><ele>1751.0</ele><time>2026-05-03T10:10:03.393Z</time></trkpt><trkpt lat="41.8267003" lon="13.327907"><ele>1745.0</ele><time>2026-05-03T10:10:04.388Z</time></trkpt><trkpt lat="41.8265886" lon="13.3277648"><ele>1739.0</ele><time>2026-05-03T10:10:05.388Z</time></trkpt><trkpt lat="41.8264758" lon="13.3276212"><ele>1739.0</ele><time>2026-05-03T10:10:06.393Z</time></trkpt><trkpt lat="41.8263737" lon="13.3274786"><ele>1739.0</ele><time>2026-05-03T10:10:07.393Z</time></trkpt><trkpt lat="41.8262791" lon="13.3273464"><ele>1739.0</ele><time>2026-05-03T10:10:08.393Z</time></trkpt><trkpt lat="41.8261906" lon="13.3272246"><ele>1739.0</ele><time>2026-05-03T10:10:09.396Z</time></trkpt><trkpt lat="41.8261067" lon="13.327095"><ele>1743.0</ele><time>2026-05-03T10:10:10.393Z</time></trkpt><trkpt lat="41.826028" lon="13.3269332"><ele>1747.0</ele><time>2026-05-03T10:10:11.4Z</time></trkpt><trkpt lat="41.825952" lon="13.3267806"><ele>1751.0</ele><time>2026-05-03T10:10:12.392Z</time></trkpt><trkpt lat="41.825888" lon="13.3266242"><ele>1755.0</ele><time>2026-05-03T10:10:13.394Z</time></trkpt><trkpt lat="41.8258374" lon="13.3264427"><ele>1746.4</ele><time>2026-05-03T10:10:14.396Z</time></trkpt><trkpt lat="41.825795" lon="13.3263079"><ele>1737.8</ele><time>2026-05-03T10:10:15.395Z</time></trkpt><trkpt lat="41.8257795" lon="13.326169"><ele>1729.1999999999998</ele><time>2026-05-03T10:10:16.394Z</time></trkpt><trkpt lat="41.8257683" lon="13.3260217"><ele>1720.6</ele><time>2026-05-03T10:10:17.393Z</time></trkpt><trkpt lat="41.8257701" lon="13.3258536"><ele>1712.0</ele><time>2026-05-03T10:10:18.392Z</time></trkpt><trkpt lat="41.8257747" lon="13.3256918"><ele>1708.25</ele><time>2026-05-03T10:10:19.394Z</time></trkpt><trkpt lat="41.8257948" lon="13.3255308"><ele>1704.5</ele><time>2026-05-03T10:10:20.392Z</time></trkpt><trkpt lat="41.8258263" lon="13.3253773"><ele>1700.75</ele><time>2026-05-03T10:10:21.394Z</time></trkpt><trkpt lat="41.8258736" lon="13.3252307"><ele>1697.0</ele><time>2026-05-03T10:10:22.395Z</time></trkpt><trkpt lat="41.8259439" lon="13.3251001"><ele>1693.25</ele><time>2026-05-03T10:10:23.393Z</time></trkpt><trkpt lat="41.8260297" lon="13.3249822"><ele>1689.5</ele><time>2026-05-03T10:10:24.392Z</time></trkpt><trkpt lat="41.8261312" lon="13.3248784"><ele>1685.75</ele><time>2026-05-03T10:10:25.395Z</time></trkpt><trkpt lat="41.8262392" lon="13.3247894"><ele>1682.0</ele><time>2026-05-03T10:10:26.393Z</time></trkpt><trkpt lat="41.8263789" lon="13.324727"><ele>1682.0</ele><time>2026-05-03T10:10:27.395Z</time></trkpt><trkpt lat="41.8265263" lon="13.3246474"><ele>1682.0</ele><time>2026-05-03T10:10:28.39Z</time></trkpt><trkpt lat="41.8266779" lon="13.3245703"><ele>1682.0</ele><time>2026-05-03T10:10:29.393Z</time></trkpt><trkpt lat="41.8268337" lon="13.3244956"><ele>1689.6666666666665</ele><time>2026-05-03T10:10:30.391Z</time></trkpt><trkpt lat="41.8269857" lon="13.3244191"><ele>1697.3333333333335</ele><time>2026-05-03T10:10:31.397Z</time></trkpt><trkpt lat="41.8271397" lon="13.3243422"><ele>1705.0</ele><time>2026-05-03T10:10:32.387Z</time></trkpt><trkpt lat="41.827288" lon="13.3242483"><ele>1705.0</ele><time>2026-05-03T10:10:33.395Z</time></trkpt><trkpt lat="41.8274341" lon="13.3241463"><ele>1705.0</ele><time>2026-05-03T10:10:34.393Z</time></trkpt><trkpt lat="41.8275695" lon="13.3240211"><ele>1705.0</ele><time>2026-05-03T10:10:35.391Z</time></trkpt><trkpt lat="41.82769" lon="13.3238762"><ele>1700.0</ele><time>2026-05-03T10:10:36.39Z</time></trkpt><trkpt lat="41.8278023" lon="13.3237516"><ele>1695.0</ele><time>2026-05-03T10:10:37.407Z</time></trkpt><trkpt lat="41.8279082" lon="13.323666"><ele>1690.0</ele><time>2026-05-03T10:10:38.386Z</time></trkpt><trkpt lat="41.8280185" lon="13.323609"><ele>1685.0</ele><time>2026-05-03T10:10:39.392Z</time></trkpt><trkpt lat="41.8281398" lon="13.3235709"><ele>1685.0</ele><time>2026-05-03T10:10:40.396Z</time></trkpt><trkpt lat="41.8282492" lon="13.3235524"><ele>1685.0</ele><time>2026-05-03T10:10:41.388Z</time></trkpt><trkpt lat="41.8283603" lon="13.3235037"><ele>1685.0</ele><time>2026-05-03T10:10:42.391Z</time></trkpt><trkpt lat="41.8284629" lon="13.3234248"><ele>1685.0</ele><time>2026-05-03T10:10:43.39Z</time></trkpt><trkpt lat="41.8285583" lon="13.3233113"><ele>1685.5</ele><time>2026-05-03T10:10:44.393Z</time></trkpt><trkpt lat="41.8286397" lon="13.3231984"><ele>1686.0</ele><time>2026-05-03T10:10:45.388Z</time></trkpt><trkpt lat="41.8287283" lon="13.3231045"><ele>1686.5</ele><time>2026-05-03T10:10:46.388Z</time></trkpt><trkpt lat="41.828848" lon="13.3230344"><ele>1687.0</ele><time>2026-05-03T10:10:47.392Z</time></trkpt><trkpt lat="41.8289661" lon="13.3229898"><ele>1684.0</ele><time>2026-05-03T10:10:48.39Z</time></trkpt><trkpt lat="41.8290713" lon="13.3229854"><ele>1681.0</ele><time>2026-05-03T10:10:49.391Z</time></trkpt><trkpt lat="41.8291719" lon="13.3229594"><ele>1678.0</ele><time>2026-05-03T10:10:50.386Z</time></trkpt><trkpt lat="41.8292595" lon="13.3229496"><ele>1675.0</ele><time>2026-05-03T10:10:51.469Z</time></trkpt><trkpt lat="41.8293237" lon="13.323066"><ele>1672.0</ele><time>2026-05-03T10:10:52.39Z</time></trkpt><trkpt lat="41.8293887" lon="13.3231947"><ele>1668.3333333333335</ele><time>2026-05-03T10:10:53.394Z</time></trkpt><trkpt lat="41.8294137" lon="13.3234749"><ele>1664.6666666666665</ele><time>2026-05-03T10:10:54.393Z</time></trkpt><trkpt lat="41.8294521" lon="13.3237105"><ele>1661.0</ele><time>2026-05-03T10:10:55.395Z</time></trkpt><trkpt lat="41.8294846" lon="13.3239696"><ele>1661.0</ele><time>2026-05-03T10:10:56.392Z</time></trkpt><trkpt lat="41.8295141" lon="13.3241989"><ele>1661.0</ele><time>2026-05-03T10:10:57.392Z</time></trkpt><trkpt lat="41.8295431" lon="13.3244116"><ele>1661.0</ele><time>2026-05-03T10:10:58.395Z</time></trkpt><trkpt lat="41.8295737" lon="13.3246073"><ele>1663.6</ele><time>2026-05-03T10:10:59.392Z</time></trkpt><trkpt lat="41.8296047" lon="13.3247769"><ele>1666.1999999999998</ele><time>2026-05-03T10:11:00.389Z</time></trkpt><trkpt lat="41.829642" lon="13.3249121"><ele>1668.8000000000002</ele><time>2026-05-03T10:11:01.392Z</time></trkpt><trkpt lat="41.8296942" lon="13.3250264"><ele>1671.4</ele><time>2026-05-03T10:11:02.394Z</time></trkpt><trkpt lat="41.8297801" lon="13.3251144"><ele>1674.0</ele><time>2026-05-03T10:11:03.393Z</time></trkpt><trkpt lat="41.8298767" lon="13.3251629"><ele>1674.0</ele><time>2026-05-03T10:11:04.394Z</time></trkpt><trkpt lat="41.8300028" lon="13.3251704"><ele>1674.0</ele><time>2026-05-03T10:11:05.404Z</time></trkpt><trkpt lat="41.8301401" lon="13.3251501"><ele>1674.0</ele><time>2026-05-03T10:11:06.403Z</time></trkpt><trkpt lat="41.8303122" lon="13.3250972"><ele>1674.0</ele><time>2026-05-03T10:11:07.402Z</time></trkpt><trkpt lat="41.8304944" lon="13.3250088"><ele>1673.6666666666665</ele><time>2026-05-03T10:11:08.394Z</time></trkpt><trkpt lat="41.830689" lon="13.3249027"><ele>1673.3333333333333</ele><time>2026-05-03T10:11:09.392Z</time></trkpt><trkpt lat="41.8308895" lon="13.324804"><ele>1673.0</ele><time>2026-05-03T10:11:10.4Z</time></trkpt><trkpt lat="41.8310969" lon="13.3247179"><ele>1666.3333333333333</ele><time>2026-05-03T10:11:11.395Z</time></trkpt><trkpt lat="41.8312892" lon="13.3246423"><ele>1659.6666666666665</ele><time>2026-05-03T10:11:12.398Z</time></trkpt><trkpt lat="41.8314745" lon="13.3245546"><ele>1653.0</ele><time>2026-05-03T10:11:13.401Z</time></trkpt><trkpt lat="41.8316489" lon="13.3244496"><ele>1653.0</ele><time>2026-05-03T10:11:14.395Z</time></trkpt><trkpt lat="41.8318053" lon="13.3243571"><ele>1653.0</ele><time>2026-05-03T10:11:15.396Z</time></trkpt><trkpt lat="41.8319726" lon="13.3242569"><ele>1653.0</ele><time>2026-05-03T10:11:16.391Z</time></trkpt><trkpt lat="41.8321057" lon="13.3241886"><ele>1653.75</ele><time>2026-05-03T10:11:17.397Z</time></trkpt><trkpt lat="41.8322345" lon="13.324125"><ele>1654.5</ele><time>2026-05-03T10:11:18.389Z</time></trkpt><trkpt lat="41.8323461" lon="13.3240758"><ele>1655.25</ele><time>2026-05-03T10:11:19.391Z</time></trkpt><trkpt lat="41.8324571" lon="13.3240289"><ele>1656.0</ele><time>2026-05-03T10:11:20.391Z</time></trkpt><trkpt lat="41.8325531" lon="13.3240494"><ele>1652.75</ele><time>2026-05-03T10:11:21.391Z</time></trkpt><trkpt lat="41.8326711" lon="13.3240904"><ele>1649.5</ele><time>2026-05-03T10:11:22.395Z</time></trkpt><trkpt lat="41.8328074" lon="13.3241699"><ele>1646.25</ele><time>2026-05-03T10:11:23.387Z</time></trkpt><trkpt lat="41.8329026" lon="13.3243142"><ele>1643.0</ele><time>2026-05-03T10:11:24.391Z</time></trkpt><trkpt lat="41.8330248" lon="13.3243791"><ele>1643.0</ele><time>2026-05-03T10:11:25.391Z</time></trkpt><trkpt lat="41.8331639" lon="13.3244077"><ele>1643.0</ele><time>2026-05-03T10:11:26.392Z</time></trkpt><trkpt lat="41.8333037" lon="13.3244307"><ele>1643.0</ele><time>2026-05-03T10:11:27.394Z</time></trkpt><trkpt lat="41.8334416" lon="13.3244705"><ele>1643.0</ele><time>2026-05-03T10:11:28.401Z</time></trkpt><trkpt lat="41.833571" lon="13.3244935"><ele>1641.6666666666665</ele><time>2026-05-03T10:11:29.392Z</time></trkpt><trkpt lat="41.8337121" lon="13.3244693"><ele>1640.3333333333335</ele><time>2026-05-03T10:11:30.39Z</time></trkpt><trkpt lat="41.833871" lon="13.3244107"><ele>1639.0</ele><time>2026-05-03T10:11:31.393Z</time></trkpt><trkpt lat="41.8340338" lon="13.3243653"><ele>1639.0</ele><time>2026-05-03T10:11:32.392Z</time></trkpt><trkpt lat="41.8341809" lon="13.3243021"><ele>1639.0</ele><time>2026-05-03T10:11:33.394Z</time></trkpt><trkpt lat="41.8343332" lon="13.3242591"><ele>1639.0</ele><time>2026-05-03T10:11:34.392Z</time></trkpt><trkpt lat="41.8344732" lon="13.3242025"><ele>1639.0</ele><time>2026-05-03T10:11:35.39Z</time></trkpt><trkpt lat="41.834617" lon="13.3241491"><ele>1639.0</ele><time>2026-05-03T10:11:36.386Z</time></trkpt><trkpt lat="41.8347564" lon="13.3241094"><ele>1639.0</ele><time>2026-05-03T10:11:37.393Z</time></trkpt><trkpt lat="41.8348975" lon="13.3240717"><ele>1639.0</ele><time>2026-05-03T10:11:38.393Z</time></trkpt><trkpt lat="41.8350342" lon="13.3240372"><ele>1634.8000000000002</ele><time>2026-05-03T10:11:39.39Z</time></trkpt><trkpt lat="41.8351568" lon="13.3240103"><ele>1630.6000000000001</ele><time>2026-05-03T10:11:40.389Z</time></trkpt><trkpt lat="41.8352649" lon="13.3239858"><ele>1626.4</ele><time>2026-05-03T10:11:41.39Z</time></trkpt><trkpt lat="41.8353477" lon="13.3239443"><ele>1622.2</ele><time>2026-05-03T10:11:42.388Z</time></trkpt><trkpt lat="41.8354087" lon="13.323874"><ele>1618.0</ele><time>2026-05-03T10:11:43.395Z</time></trkpt><trkpt lat="41.8354432" lon="13.3237928"><ele>1617.6000000000001</ele><time>2026-05-03T10:11:44.388Z</time></trkpt><trkpt lat="41.8354347" lon="13.323684"><ele>1617.2</ele><time>2026-05-03T10:11:45.392Z</time></trkpt><trkpt lat="41.8353954" lon="13.3235949"><ele>1616.8</ele><time>2026-05-03T10:11:46.397Z</time></trkpt><trkpt lat="41.8353609" lon="13.3235092"><ele>1616.4</ele><time>2026-05-03T10:11:47.395Z</time></trkpt><trkpt lat="41.8352958" lon="13.3234289"><ele>1616.0</ele><time>2026-05-03T10:11:48.392Z</time></trkpt><trkpt lat="41.8351526" lon="13.3235318"><ele>1617.0</ele><time>2026-05-03T10:11:49.393Z</time></trkpt><trkpt lat="41.8350394" lon="13.3235638"><ele>1618.0</ele><time>2026-05-03T10:11:50.392Z</time></trkpt><trkpt lat="41.8348792" lon="13.3236193"><ele>1619.0</ele><time>2026-05-03T10:11:51.392Z</time></trkpt><trkpt lat="41.8346917" lon="13.3236493"><ele>1619.0</ele><time>2026-05-03T10:11:52.392Z</time></trkpt><trkpt lat="41.8345025" lon="13.3236912"><ele>1619.0</ele><time>2026-05-03T10:11:53.396Z</time></trkpt><trkpt lat="41.8343128" lon="13.3237382"><ele>1619.0</ele><time>2026-05-03T10:11:54.392Z</time></trkpt><trkpt lat="41.8341446" lon="13.3237806"><ele>1616.0</ele><time>2026-05-03T10:11:55.394Z</time></trkpt><trkpt lat="41.8339757" lon="13.3238057"><ele>1613.0</ele><time>2026-05-03T10:11:56.392Z</time></trkpt><trkpt lat="41.8338241" lon="13.32382"><ele>1610.0</ele><time>2026-05-03T10:11:57.393Z</time></trkpt><trkpt lat="41.833682" lon="13.3238248"><ele>1610.0</ele><time>2026-05-03T10:11:58.398Z</time></trkpt><trkpt lat="41.8335405" lon="13.3238186"><ele>1610.0</ele><time>2026-05-03T10:11:59.394Z</time></trkpt><trkpt lat="41.8334057" lon="13.3237131"><ele>1610.0</ele><time>2026-05-03T10:12:00.394Z</time></trkpt><trkpt lat="41.8332848" lon="13.3236763"><ele>1610.0</ele><time>2026-05-03T10:12:01.395Z</time></trkpt><trkpt lat="41.8331688" lon="13.3235932"><ele>1610.5</ele><time>2026-05-03T10:12:02.391Z</time></trkpt><trkpt lat="41.833051" lon="13.3235159"><ele>1611.0</ele><time>2026-05-03T10:12:03.393Z</time></trkpt><trkpt lat="41.8329683" lon="13.3233328"><ele>1611.5</ele><time>2026-05-03T10:12:04.394Z</time></trkpt><trkpt lat="41.8328677" lon="13.3231782"><ele>1612.0</ele><time>2026-05-03T10:12:05.394Z</time></trkpt><trkpt lat="41.8327723" lon="13.3230522"><ele>1608.8</ele><time>2026-05-03T10:12:06.393Z</time></trkpt><trkpt lat="41.8326946" lon="13.3229447"><ele>1605.6</ele><time>2026-05-03T10:12:07.397Z</time></trkpt><trkpt lat="41.8326241" lon="13.3228647"><ele>1602.3999999999999</ele><time>2026-05-03T10:12:08.394Z</time></trkpt><trkpt lat="41.832546" lon="13.3228236"><ele>1599.1999999999998</ele><time>2026-05-03T10:12:09.394Z</time></trkpt><trkpt lat="41.8324537" lon="13.3228327"><ele>1596.0</ele><time>2026-05-03T10:12:10.392Z</time></trkpt><trkpt lat="41.8323365" lon="13.3228775"><ele>1596.0</ele><time>2026-05-03T10:12:11.393Z</time></trkpt><trkpt lat="41.8321929" lon="13.3229587"><ele>1596.0</ele><time>2026-05-03T10:12:12.394Z</time></trkpt><trkpt lat="41.8320477" lon="13.323036"><ele>1596.0</ele><time>2026-05-03T10:12:13.393Z</time></trkpt><trkpt lat="41.8318845" lon="13.3230887"><ele>1601.3333333333335</ele><time>2026-05-03T10:12:14.402Z</time></trkpt><trkpt lat="41.8317084" lon="13.3231428"><ele>1606.6666666666667</ele><time>2026-05-03T10:12:15.393Z</time></trkpt><trkpt lat="41.8315465" lon="13.3231766"><ele>1612.0</ele><time>2026-05-03T10:12:16.394Z</time></trkpt><trkpt lat="41.8313969" lon="13.3231921"><ele>1612.0</ele><time>2026-05-03T10:12:17.398Z</time></trkpt><trkpt lat="41.8312637" lon="13.3232044"><ele>1612.0</ele><time>2026-05-03T10:12:18.391Z</time></trkpt><trkpt lat="41.8311581" lon="13.3231821"><ele>1612.0</ele><time>2026-05-03T10:12:19.393Z</time></trkpt><trkpt lat="41.8310647" lon="13.3231352"><ele>1612.0</ele><time>2026-05-03T10:12:20.401Z</time></trkpt><trkpt lat="41.8309845" lon="13.3230568"><ele>1612.0</ele><time>2026-05-03T10:12:21.392Z</time></trkpt><trkpt lat="41.8308975" lon="13.3229712"><ele>1610.75</ele><time>2026-05-03T10:12:22.392Z</time></trkpt><trkpt lat="41.8309053" lon="13.3227683"><ele>1609.5</ele><time>2026-05-03T10:12:23.393Z</time></trkpt><trkpt lat="41.8308922" lon="13.3225731"><ele>1608.25</ele><time>2026-05-03T10:12:24.402Z</time></trkpt><trkpt lat="41.830904" lon="13.3223813"><ele>1607.0</ele><time>2026-05-03T10:12:25.402Z</time></trkpt><trkpt lat="41.8309309" lon="13.3221878"><ele>1593.0</ele><time>2026-05-03T10:12:26.402Z</time></trkpt><trkpt lat="41.8310004" lon="13.3219786"><ele>1579.0</ele><time>2026-05-03T10:12:27.402Z</time></trkpt><trkpt lat="41.8310506" lon="13.3217613"><ele>1565.0</ele><time>2026-05-03T10:12:28.401Z</time></trkpt><trkpt lat="41.8310497" lon="13.3215594"><ele>1563.25</ele><time>2026-05-03T10:12:29.393Z</time></trkpt><trkpt lat="41.8310527" lon="13.3213761"><ele>1561.5</ele><time>2026-05-03T10:12:30.401Z</time></trkpt><trkpt lat="41.8310471" lon="13.3212012"><ele>1559.75</ele><time>2026-05-03T10:12:31.402Z</time></trkpt><trkpt lat="41.8310567" lon="13.3210357"><ele>1558.0</ele><time>2026-05-03T10:12:32.403Z</time></trkpt><trkpt lat="41.8310604" lon="13.3208768"><ele>1558.0</ele><time>2026-05-03T10:12:33.395Z</time></trkpt><trkpt lat="41.8310383" lon="13.3207455"><ele>1558.0</ele><time>2026-05-03T10:12:34.389Z</time></trkpt><trkpt lat="41.8309748" lon="13.3206432"><ele>1558.0</ele><time>2026-05-03T10:12:35.395Z</time></trkpt><trkpt lat="41.830908" lon="13.3205572"><ele>1558.0</ele><time>2026-05-03T10:12:36.392Z</time></trkpt><trkpt lat="41.8308006" lon="13.3204737"><ele>1558.0</ele><time>2026-05-03T10:12:37.391Z</time></trkpt><trkpt lat="41.8306676" lon="13.3203872"><ele>1557.3333333333335</ele><time>2026-05-03T10:12:38.394Z</time></trkpt><trkpt lat="41.8304978" lon="13.3203051"><ele>1556.6666666666665</ele><time>2026-05-03T10:12:39.39Z</time></trkpt><trkpt lat="41.8303233" lon="13.320222"><ele>1556.0</ele><time>2026-05-03T10:12:40.393Z</time></trkpt><trkpt lat="41.8301304" lon="13.320153"><ele>1561.6666666666665</ele><time>2026-05-03T10:12:41.394Z</time></trkpt><trkpt lat="41.8299242" lon="13.3200976"><ele>1567.3333333333335</ele><time>2026-05-03T10:12:42.393Z</time></trkpt><trkpt lat="41.8297141" lon="13.3200513"><ele>1573.0</ele><time>2026-05-03T10:12:43.389Z</time></trkpt><trkpt lat="41.8295218" lon="13.3200091"><ele>1573.0</ele><time>2026-05-03T10:12:44.394Z</time></trkpt><trkpt lat="41.8293395" lon="13.3199679"><ele>1573.0</ele><time>2026-05-03T10:12:45.39Z</time></trkpt><trkpt lat="41.8291679" lon="13.3199409"><ele>1573.0</ele><time>2026-05-03T10:12:46.393Z</time></trkpt><trkpt lat="41.8290064" lon="13.3199282"><ele>1572.0</ele><time>2026-05-03T10:12:47.395Z</time></trkpt><trkpt lat="41.8288569" lon="13.319934"><ele>1571.0</ele><time>2026-05-03T10:12:48.39Z</time></trkpt><trkpt lat="41.8286871" lon="13.3199503"><ele>1570.0</ele><time>2026-05-03T10:12:49.393Z</time></trkpt><trkpt lat="41.8285068" lon="13.3200402"><ele>1563.6666666666667</ele><time>2026-05-03T10:12:50.391Z</time></trkpt><trkpt lat="41.8283304" lon="13.3201566"><ele>1557.3333333333335</ele><time>2026-05-03T10:12:51.392Z</time></trkpt><trkpt lat="41.8281355" lon="13.3202974"><ele>1551.0</ele><time>2026-05-03T10:12:52.388Z</time></trkpt><trkpt lat="41.8279378" lon="13.3204675"><ele>1552.5</ele><time>2026-05-03T10:12:53.395Z</time></trkpt><trkpt lat="41.8277377" lon="13.3206271"><ele>1554.0</ele><time>2026-05-03T10:12:54.389Z</time></trkpt><trkpt lat="41.8275425" lon="13.3207771"><ele>1554.0</ele><time>2026-05-03T10:12:55.402Z</time></trkpt><trkpt lat="41.8273373" lon="13.320917"><ele>1554.0</ele><time>2026-05-03T10:12:56.391Z</time></trkpt><trkpt lat="41.8271283" lon="13.3210482"><ele>1554.0</ele><time>2026-05-03T10:12:57.393Z</time></trkpt><trkpt lat="41.8269127" lon="13.3211649"><ele>1554.0</ele><time>2026-05-03T10:12:58.392Z</time></trkpt><trkpt lat="41.8267181" lon="13.3212737"><ele>1554.0</ele><time>2026-05-03T10:12:59.391Z</time></trkpt><trkpt lat="41.8265236" lon="13.3213611"><ele>1557.0</ele><time>2026-05-03T10:13:00.393Z</time></trkpt><trkpt lat="41.8263054" lon="13.3214541"><ele>1560.0</ele><time>2026-05-03T10:13:01.391Z</time></trkpt><trkpt lat="41.8260806" lon="13.3215338"><ele>1551.0</ele><time>2026-05-03T10:13:02.393Z</time></trkpt><trkpt lat="41.8258545" lon="13.3216328"><ele>1542.0</ele><time>2026-05-03T10:13:03.389Z</time></trkpt><trkpt lat="41.8256294" lon="13.3217241"><ele>1542.0</ele><time>2026-05-03T10:13:04.396Z</time></trkpt><trkpt lat="41.8254132" lon="13.3218157"><ele>1542.0</ele><time>2026-05-03T10:13:05.39Z</time></trkpt><trkpt lat="41.8252038" lon="13.3218943"><ele>1542.0</ele><time>2026-05-03T10:13:06.39Z</time></trkpt><trkpt lat="41.8250157" lon="13.3219601"><ele>1534.3333333333333</ele><time>2026-05-03T10:13:07.39Z</time></trkpt><trkpt lat="41.8248341" lon="13.3220213"><ele>1526.6666666666665</ele><time>2026-05-03T10:13:08.39Z</time></trkpt><trkpt lat="41.8246588" lon="13.3220964"><ele>1519.0</ele><time>2026-05-03T10:13:09.394Z</time></trkpt><trkpt lat="41.8244835" lon="13.3221845"><ele>1522.0</ele><time>2026-05-03T10:13:10.39Z</time></trkpt><trkpt lat="41.824297" lon="13.3223006"><ele>1525.0</ele><time>2026-05-03T10:13:11.391Z</time></trkpt><trkpt lat="41.8241172" lon="13.3224235"><ele>1528.0</ele><time>2026-05-03T10:13:12.394Z</time></trkpt><trkpt lat="41.8239503" lon="13.3225438"><ele>1528.0</ele><time>2026-05-03T10:13:13.4Z</time></trkpt><trkpt lat="41.8237957" lon="13.3226629"><ele>1528.0</ele><time>2026-05-03T10:13:14.393Z</time></trkpt><trkpt lat="41.8236614" lon="13.3227804"><ele>1528.0</ele><time>2026-05-03T10:13:15.4Z</time></trkpt><trkpt lat="41.8235396" lon="13.3229015"><ele>1523.75</ele><time>2026-05-03T10:13:16.389Z</time></trkpt><trkpt lat="41.82343" lon="13.3230288"><ele>1519.5</ele><time>2026-05-03T10:13:17.39Z</time></trkpt><trkpt lat="41.8233607" lon="13.323189"><ele>1515.25</ele><time>2026-05-03T10:13:18.389Z</time></trkpt><trkpt lat="41.8233151" lon="13.3233492"><ele>1511.0</ele><time>2026-05-03T10:13:19.393Z</time></trkpt><trkpt lat="41.823278" lon="13.3235165"><ele>1511.0</ele><time>2026-05-03T10:13:20.387Z</time></trkpt><trkpt lat="41.8232756" lon="13.3237197"><ele>1511.0</ele><time>2026-05-03T10:13:21.394Z</time></trkpt><trkpt lat="41.8232838" lon="13.323924"><ele>1511.0</ele><time>2026-05-03T10:13:22.396Z</time></trkpt><trkpt lat="41.8232931" lon="13.3241399"><ele>1512.0</ele><time>2026-05-03T10:13:23.39Z</time></trkpt><trkpt lat="41.8232879" lon="13.3243409"><ele>1513.0</ele><time>2026-05-03T10:13:24.388Z</time></trkpt><trkpt lat="41.8232873" lon="13.3245414"><ele>1514.0</ele><time>2026-05-03T10:13:25.391Z</time></trkpt><trkpt lat="41.8232821" lon="13.3247196"><ele>1515.0</ele><time>2026-05-03T10:13:26.39Z</time></trkpt><trkpt lat="41.8232551" lon="13.3248745"><ele>1517.0</ele><time>2026-05-03T10:13:27.392Z</time></trkpt><trkpt lat="41.8232153" lon="13.3250351"><ele>1519.0</ele><time>2026-05-03T10:13:28.392Z</time></trkpt><trkpt lat="41.8231394" lon="13.3251887"><ele>1521.0</ele><time>2026-05-03T10:13:29.394Z</time></trkpt><trkpt lat="41.823013" lon="13.3253437"><ele>1523.0</ele><time>2026-05-03T10:13:30.395Z</time></trkpt><trkpt lat="41.8228769" lon="13.3254957"><ele>1529.6666666666667</ele><time>2026-05-03T10:13:31.394Z</time></trkpt><trkpt lat="41.822737" lon="13.3256629"><ele>1536.3333333333335</ele><time>2026-05-03T10:13:32.396Z</time></trkpt><trkpt lat="41.8226026" lon="13.3258097"><ele>1543.0</ele><time>2026-05-03T10:13:33.389Z</time></trkpt><trkpt lat="41.8224733" lon="13.3259396"><ele>1535.5</ele><time>2026-05-03T10:13:34.392Z</time></trkpt><trkpt lat="41.8223608" lon="13.3260701"><ele>1528.0</ele><time>2026-05-03T10:13:35.395Z</time></trkpt><trkpt lat="41.8222597" lon="13.3261802"><ele>1520.5</ele><time>2026-05-03T10:13:36.393Z</time></trkpt><trkpt lat="41.8222092" lon="13.3263538"><ele>1513.0</ele><time>2026-05-03T10:13:37.393Z</time></trkpt><trkpt lat="41.8221524" lon="13.3264959"><ele>1513.0</ele><time>2026-05-03T10:13:38.402Z</time></trkpt><trkpt lat="41.8221829" lon="13.3267176"><ele>1513.0</ele><time>2026-05-03T10:13:39.4Z</time></trkpt><trkpt lat="41.8222016" lon="13.3269345"><ele>1513.0</ele><time>2026-05-03T10:13:40.386Z</time></trkpt><trkpt lat="41.8222288" lon="13.3271791"><ele>1512.0</ele><time>2026-05-03T10:13:41.389Z</time></trkpt><trkpt lat="41.8222367" lon="13.3274213"><ele>1511.0</ele><time>2026-05-03T10:13:42.389Z</time></trkpt><trkpt lat="41.8222346" lon="13.3276497"><ele>1510.0</ele><time>2026-05-03T10:13:43.398Z</time></trkpt><trkpt lat="41.8222285" lon="13.3278613"><ele>1508.5</ele><time>2026-05-03T10:13:44.394Z</time></trkpt><trkpt lat="41.8222154" lon="13.3280685"><ele>1507.0</ele><time>2026-05-03T10:13:45.394Z</time></trkpt><trkpt lat="41.8221787" lon="13.3282557"><ele>1505.5</ele><time>2026-05-03T10:13:46.392Z</time></trkpt><trkpt lat="41.8221258" lon="13.328426"><ele>1504.0</ele><time>2026-05-03T10:13:47.396Z</time></trkpt><trkpt lat="41.8220684" lon="13.3285789"><ele>1504.0</ele><time>2026-05-03T10:13:48.394Z</time></trkpt><trkpt lat="41.8220114" lon="13.3287277"><ele>1504.0</ele><time>2026-05-03T10:13:49.391Z</time></trkpt><trkpt lat="41.8219586" lon="13.328851"><ele>1504.0</ele><time>2026-05-03T10:13:50.397Z</time></trkpt><trkpt lat="41.8219091" lon="13.3289698"><ele>1504.0</ele><time>2026-05-03T10:13:51.391Z</time></trkpt><trkpt lat="41.8218576" lon="13.3290847"><ele>1504.0</ele><time>2026-05-03T10:13:52.391Z</time></trkpt><trkpt lat="41.8217962" lon="13.3291908"><ele>1497.5</ele><time>2026-05-03T10:13:53.395Z</time></trkpt><trkpt lat="41.8217038" lon="13.3292823"><ele>1491.0</ele><time>2026-05-03T10:13:54.394Z</time></trkpt><trkpt lat="41.8216023" lon="13.3293652"><ele>1484.5</ele><time>2026-05-03T10:13:55.393Z</time></trkpt><trkpt lat="41.8214923" lon="13.3294345"><ele>1478.0</ele><time>2026-05-03T10:13:56.402Z</time></trkpt><trkpt lat="41.8213709" lon="13.3294852"><ele>1478.0</ele><time>2026-05-03T10:13:57.393Z</time></trkpt><trkpt lat="41.8212549" lon="13.3295223"><ele>1478.0</ele><time>2026-05-03T10:13:58.395Z</time></trkpt><trkpt lat="41.8211531" lon="13.3295572"><ele>1478.0</ele><time>2026-05-03T10:13:59.394Z</time></trkpt><trkpt lat="41.8210633" lon="13.3295759"><ele>1478.0</ele><time>2026-05-03T10:14:00.393Z</time></trkpt><trkpt lat="41.8209857" lon="13.3295802"><ele>1478.0</ele><time>2026-05-03T10:14:01.393Z</time></trkpt><trkpt lat="41.8209135" lon="13.3295681"><ele>1476.6666666666667</ele><time>2026-05-03T10:14:02.399Z</time></trkpt><trkpt lat="41.8208486" lon="13.3295241"><ele>1475.3333333333335</ele><time>2026-05-03T10:14:03.395Z</time></trkpt><trkpt lat="41.8208025" lon="13.3294551"><ele>1474.0</ele><time>2026-05-03T10:14:04.394Z</time></trkpt><trkpt lat="41.8207825" lon="13.3293547"><ele>1472.6666666666667</ele><time>2026-05-03T10:14:05.393Z</time></trkpt><trkpt lat="41.8207981" lon="13.3292633"><ele>1471.3333333333333</ele><time>2026-05-03T10:14:06.393Z</time></trkpt><trkpt lat="41.8208564" lon="13.3291762"><ele>1470.0</ele><time>2026-05-03T10:14:07.392Z</time></trkpt><trkpt lat="41.8209397" lon="13.3291108"><ele>1471.0</ele><time>2026-05-03T10:14:08.393Z</time></trkpt><trkpt lat="41.8210281" lon="13.3290496"><ele>1472.0</ele><time>2026-05-03T10:14:09.394Z</time></trkpt><trkpt lat="41.8211303" lon="13.3289932"><ele>1473.0</ele><time>2026-05-03T10:14:10.394Z</time></trkpt><trkpt lat="41.8212265" lon="13.3289313"><ele>1474.0</ele><time>2026-05-03T10:14:11.397Z</time></trkpt><trkpt lat="41.8213232" lon="13.3288147"><ele>1475.0</ele><time>2026-05-03T10:14:12.391Z</time></trkpt><trkpt lat="41.8214192" lon="13.328704"><ele>1475.0</ele><time>2026-05-03T10:14:13.391Z</time></trkpt><trkpt lat="41.8214945" lon="13.3285917"><ele>1475.0</ele><time>2026-05-03T10:14:14.391Z</time></trkpt><trkpt lat="41.8215643" lon="13.3284668"><ele>1475.0</ele><time>2026-05-03T10:14:15.391Z</time></trkpt><trkpt lat="41.8216355" lon="13.3283649"><ele>1475.0</ele><time>2026-05-03T10:14:16.391Z</time></trkpt><trkpt lat="41.8216747" lon="13.328233"><ele>1475.0</ele><time>2026-05-03T10:14:17.392Z</time></trkpt><trkpt lat="41.8216992" lon="13.3281039"><ele>1474.25</ele><time>2026-05-03T10:14:18.39Z</time></trkpt><trkpt lat="41.8216942" lon="13.3279346"><ele>1473.5</ele><time>2026-05-03T10:14:19.39Z</time></trkpt><trkpt lat="41.8216877" lon="13.3277694"><ele>1472.75</ele><time>2026-05-03T10:14:20.394Z</time></trkpt><trkpt lat="41.8216385" lon="13.3276066"><ele>1472.0</ele><time>2026-05-03T10:14:21.395Z</time></trkpt><trkpt lat="41.8216024" lon="13.3274445"><ele>1472.0</ele><time>2026-05-03T10:14:22.396Z</time></trkpt><trkpt lat="41.8215275" lon="13.3272847"><ele>1472.0</ele><time>2026-05-03T10:14:23.395Z</time></trkpt><trkpt lat="41.8214697" lon="13.3271075"><ele>1472.0</ele><time>2026-05-03T10:14:24.393Z</time></trkpt><trkpt lat="41.821409" lon="13.3269179"><ele>1472.0</ele><time>2026-05-03T10:14:25.393Z</time></trkpt><trkpt lat="41.8213487" lon="13.3267285"><ele>1472.5</ele><time>2026-05-03T10:14:26.395Z</time></trkpt><trkpt lat="41.8212766" lon="13.3265446"><ele>1473.0</ele><time>2026-05-03T10:14:27.393Z</time></trkpt><trkpt lat="41.8212247" lon="13.3263565"><ele>1473.5</ele><time>2026-05-03T10:14:28.392Z</time></trkpt><trkpt lat="41.8212029" lon="13.3261643"><ele>1474.0</ele><time>2026-05-03T10:14:29.393Z</time></trkpt><trkpt lat="41.8211915" lon="13.3259896"><ele>1472.25</ele><time>2026-05-03T10:14:30.396Z</time></trkpt><trkpt lat="41.8211957" lon="13.325812"><ele>1470.5</ele><time>2026-05-03T10:14:31.397Z</time></trkpt><trkpt lat="41.8212209" lon="13.3256559"><ele>1468.75</ele><time>2026-05-03T10:14:32.391Z</time></trkpt><trkpt lat="41.8213156" lon="13.3255351"><ele>1467.0</ele><time>2026-05-03T10:14:33.401Z</time></trkpt><trkpt lat="41.8214045" lon="13.3254202"><ele>1462.5</ele><time>2026-05-03T10:14:34.389Z</time></trkpt><trkpt lat="41.8215031" lon="13.3252936"><ele>1458.0</ele><time>2026-05-03T10:14:35.393Z</time></trkpt><trkpt lat="41.8216222" lon="13.3251978"><ele>1453.5</ele><time>2026-05-03T10:14:36.395Z</time></trkpt><trkpt lat="41.8217416" lon="13.3250809"><ele>1449.0</ele><time>2026-05-03T10:14:37.394Z</time></trkpt><trkpt lat="41.8218449" lon="13.3249376"><ele>1452.75</ele><time>2026-05-03T10:14:38.392Z</time></trkpt><trkpt lat="41.8219424" lon="13.3247936"><ele>1456.5</ele><time>2026-05-03T10:14:39.389Z</time></trkpt><trkpt lat="41.8220226" lon="13.3246506"><ele>1460.25</ele><time>2026-05-03T10:14:40.392Z</time></trkpt><trkpt lat="41.822104" lon="13.3245042"><ele>1464.0</ele><time>2026-05-03T10:14:41.397Z</time></trkpt><trkpt lat="41.8221214" lon="13.3243428"><ele>1464.0</ele><time>2026-05-03T10:14:42.391Z</time></trkpt><trkpt lat="41.8221434" lon="13.3242084"><ele>1464.0</ele><time>2026-05-03T10:14:43.389Z</time></trkpt><trkpt lat="41.8221311" lon="13.3240537"><ele>1464.0</ele><time>2026-05-03T10:14:44.391Z</time></trkpt><trkpt lat="41.8220894" lon="13.3238925"><ele>1464.0</ele><time>2026-05-03T10:14:45.394Z</time></trkpt><trkpt lat="41.8220263" lon="13.3237301"><ele>1464.0</ele><time>2026-05-03T10:14:46.393Z</time></trkpt><trkpt lat="41.8219656" lon="13.3235671"><ele>1464.0</ele><time>2026-05-03T10:14:47.392Z</time></trkpt><trkpt lat="41.821915" lon="13.3233935"><ele>1464.0</ele><time>2026-05-03T10:14:48.39Z</time></trkpt><trkpt lat="41.8218796" lon="13.3231979"><ele>1464.0</ele><time>2026-05-03T10:14:49.402Z</time></trkpt><trkpt lat="41.821872" lon="13.3229862"><ele>1464.0</ele><time>2026-05-03T10:14:50.393Z</time></trkpt><trkpt lat="41.8218621" lon="13.3227833"><ele>1464.0</ele><time>2026-05-03T10:14:51.394Z</time></trkpt><trkpt lat="41.8218389" lon="13.322592"><ele>1464.0</ele><time>2026-05-03T10:14:52.396Z</time></trkpt><trkpt lat="41.821811" lon="13.3223942"><ele>1464.0</ele><time>2026-05-03T10:14:53.388Z</time></trkpt><trkpt lat="41.8217817" lon="13.3222054"><ele>1455.0</ele><time>2026-05-03T10:14:54.392Z</time></trkpt><trkpt lat="41.8217222" lon="13.322033"><ele>1446.0</ele><time>2026-05-03T10:14:55.394Z</time></trkpt><trkpt lat="41.82165" lon="13.3218765"><ele>1437.0</ele><time>2026-05-03T10:14:56.394Z</time></trkpt><trkpt lat="41.8215759" lon="13.3217287"><ele>1428.0</ele><time>2026-05-03T10:14:57.395Z</time></trkpt><trkpt lat="41.8214969" lon="13.3215881"><ele>1428.0</ele><time>2026-05-03T10:14:58.393Z</time></trkpt><trkpt lat="41.8214221" lon="13.3214725"><ele>1428.0</ele><time>2026-05-03T10:14:59.392Z</time></trkpt><trkpt lat="41.8213527" lon="13.32136"><ele>1428.0</ele><time>2026-05-03T10:15:00.394Z</time></trkpt><trkpt lat="41.8212937" lon="13.3212556"><ele>1428.0</ele><time>2026-05-03T10:15:01.393Z</time></trkpt><trkpt lat="41.8212399" lon="13.3211674"><ele>1428.0</ele><time>2026-05-03T10:15:02.393Z</time></trkpt><trkpt lat="41.8211735" lon="13.3211106"><ele>1428.0</ele><time>2026-05-03T10:15:03.395Z</time></trkpt><trkpt lat="41.8211042" lon="13.3211096"><ele>1428.0</ele><time>2026-05-03T10:15:04.393Z</time></trkpt><trkpt lat="41.8210234" lon="13.3212287"><ele>1428.0</ele><time>2026-05-03T10:15:06.392Z</time></trkpt><trkpt lat="41.8210245" lon="13.3213362"><ele>1428.0</ele><time>2026-05-03T10:15:07.392Z</time></trkpt><trkpt lat="41.8210638" lon="13.3214641"><ele>1428.0</ele><time>2026-05-03T10:15:08.394Z</time></trkpt><trkpt lat="41.8211339" lon="13.3216136"><ele>1428.0</ele><time>2026-05-03T10:15:09.403Z</time></trkpt><trkpt lat="41.8212065" lon="13.3217787"><ele>1428.0</ele><time>2026-05-03T10:15:10.396Z</time></trkpt><trkpt lat="41.8212806" lon="13.3219331"><ele>1428.0</ele><time>2026-05-03T10:15:11.395Z</time></trkpt><trkpt lat="41.8213464" lon="13.3220997"><ele>1428.0</ele><time>2026-05-03T10:15:12.392Z</time></trkpt><trkpt lat="41.8213946" lon="13.3222712"><ele>1426.5</ele><time>2026-05-03T10:15:13.395Z</time></trkpt><trkpt lat="41.8214269" lon="13.3224533"><ele>1425.0</ele><time>2026-05-03T10:15:14.395Z</time></trkpt><trkpt lat="41.8214461" lon="13.3226342"><ele>1423.5</ele><time>2026-05-03T10:15:15.394Z</time></trkpt><trkpt lat="41.821434" lon="13.3228059"><ele>1422.0</ele><time>2026-05-03T10:15:16.392Z</time></trkpt><trkpt lat="41.8214213" lon="13.322979"><ele>1421.25</ele><time>2026-05-03T10:15:17.395Z</time></trkpt><trkpt lat="41.8214161" lon="13.3231565"><ele>1420.5</ele><time>2026-05-03T10:15:18.481Z</time></trkpt><trkpt lat="41.8214202" lon="13.3233393"><ele>1419.75</ele><time>2026-05-03T10:15:19.393Z</time></trkpt><trkpt lat="41.8214581" lon="13.323517"><ele>1419.0</ele><time>2026-05-03T10:15:20.393Z</time></trkpt><trkpt lat="41.821482" lon="13.3236862"><ele>1419.0</ele><time>2026-05-03T10:15:21.394Z</time></trkpt><trkpt lat="41.8215036" lon="13.323857"><ele>1419.0</ele><time>2026-05-03T10:15:22.393Z</time></trkpt><trkpt lat="41.8214719" lon="13.3239926"><ele>1419.0</ele><time>2026-05-03T10:15:23.386Z</time></trkpt><trkpt lat="41.8214472" lon="13.3241332"><ele>1419.0</ele><time>2026-05-03T10:15:24.395Z</time></trkpt><trkpt lat="41.8213694" lon="13.3242098"><ele>1419.0</ele><time>2026-05-03T10:15:25.392Z</time></trkpt><trkpt lat="41.8212844" lon="13.3243231"><ele>1421.6666666666667</ele><time>2026-05-03T10:15:26.392Z</time></trkpt><trkpt lat="41.821142" lon="13.3243783"><ele>1424.3333333333335</ele><time>2026-05-03T10:15:27.395Z</time></trkpt><trkpt lat="41.8210044" lon="13.324467"><ele>1427.0</ele><time>2026-05-03T10:15:28.391Z</time></trkpt><trkpt lat="41.8208582" lon="13.3245233"><ele>1417.3333333333335</ele><time>2026-05-03T10:15:29.393Z</time></trkpt><trkpt lat="41.8206939" lon="13.3245825"><ele>1407.6666666666667</ele><time>2026-05-03T10:15:30.392Z</time></trkpt><trkpt lat="41.8205376" lon="13.3245984"><ele>1398.0</ele><time>2026-05-03T10:15:31.391Z</time></trkpt><trkpt lat="41.8203897" lon="13.3246445"><ele>1398.0</ele><time>2026-05-03T10:15:32.394Z</time></trkpt><trkpt lat="41.8202651" lon="13.3246876"><ele>1398.0</ele><time>2026-05-03T10:15:33.396Z</time></trkpt><trkpt lat="41.8201493" lon="13.3247296"><ele>1398.0</ele><time>2026-05-03T10:15:34.392Z</time></trkpt><trkpt lat="41.8200508" lon="13.3247958"><ele>1398.0</ele><time>2026-05-03T10:15:35.394Z</time></trkpt><trkpt lat="41.8199702" lon="13.3248895"><ele>1396.25</ele><time>2026-05-03T10:15:36.39Z</time></trkpt><trkpt lat="41.8199039" lon="13.3249919"><ele>1394.5</ele><time>2026-05-03T10:15:37.39Z</time></trkpt><trkpt lat="41.8198517" lon="13.325121"><ele>1392.75</ele><time>2026-05-03T10:15:38.387Z</time></trkpt><trkpt lat="41.8198641" lon="13.3253433"><ele>1391.0</ele><time>2026-05-03T10:15:39.398Z</time></trkpt><trkpt lat="41.8198718" lon="13.3255714"><ele>1391.0</ele><time>2026-05-03T10:15:40.402Z</time></trkpt><trkpt lat="41.8198873" lon="13.3258014"><ele>1391.0</ele><time>2026-05-03T10:15:41.396Z</time></trkpt><trkpt lat="41.8199005" lon="13.3259988"><ele>1391.0</ele><time>2026-05-03T10:15:42.405Z</time></trkpt><trkpt lat="41.8199066" lon="13.3261929"><ele>1391.0</ele><time>2026-05-03T10:15:43.402Z</time></trkpt><trkpt lat="41.819921" lon="13.3263879"><ele>1391.0</ele><time>2026-05-03T10:15:44.4Z</time></trkpt><trkpt lat="41.8199231" lon="13.3265078"><ele>1391.0</ele><time>2026-05-03T10:15:45.392Z</time></trkpt><trkpt lat="41.8199077" lon="13.326637"><ele>1391.0</ele><time>2026-05-03T10:15:46.395Z</time></trkpt><trkpt lat="41.8198545" lon="13.3267438"><ele>1391.0</ele><time>2026-05-03T10:15:47.402Z</time></trkpt><trkpt lat="41.819782" lon="13.3268182"><ele>1393.0</ele><time>2026-05-03T10:15:48.409Z</time></trkpt><trkpt lat="41.8196712" lon="13.3268458"><ele>1395.0</ele><time>2026-05-03T10:15:49.39Z</time></trkpt><trkpt lat="41.8195548" lon="13.3268872"><ele>1397.0</ele><time>2026-05-03T10:15:50.388Z</time></trkpt><trkpt lat="41.8193946" lon="13.3269164"><ele>1399.0</ele><time>2026-05-03T10:15:51.387Z</time></trkpt><trkpt lat="41.8192547" lon="13.3269931"><ele>1398.0</ele><time>2026-05-03T10:15:52.392Z</time></trkpt><trkpt lat="41.8190993" lon="13.3270922"><ele>1397.0</ele><time>2026-05-03T10:15:53.392Z</time></trkpt><trkpt lat="41.8189442" lon="13.3272211"><ele>1396.0</ele><time>2026-05-03T10:15:54.395Z</time></trkpt><trkpt lat="41.8187993" lon="13.3273709"><ele>1396.0</ele><time>2026-05-03T10:15:55.397Z</time></trkpt><trkpt lat="41.8186624" lon="13.3275314"><ele>1396.0</ele><time>2026-05-03T10:15:56.395Z</time></trkpt><trkpt lat="41.818521" lon="13.3276863"><ele>1396.0</ele><time>2026-05-03T10:15:57.395Z</time></trkpt><trkpt lat="41.818394" lon="13.3278307"><ele>1392.0</ele><time>2026-05-03T10:15:58.392Z</time></trkpt><trkpt lat="41.8182831" lon="13.3279569"><ele>1388.0</ele><time>2026-05-03T10:15:59.391Z</time></trkpt><trkpt lat="41.8181919" lon="13.3280919"><ele>1384.0</ele><time>2026-05-03T10:16:00.39Z</time></trkpt><trkpt lat="41.8181169" lon="13.3282522"><ele>1380.0</ele><time>2026-05-03T10:16:01.39Z</time></trkpt><trkpt lat="41.8180472" lon="13.3284402"><ele>1380.0</ele><time>2026-05-03T10:16:02.4Z</time></trkpt><trkpt lat="41.8179831" lon="13.3286512"><ele>1380.0</ele><time>2026-05-03T10:16:03.402Z</time></trkpt><trkpt lat="41.8179373" lon="13.3288839"><ele>1380.0</ele><time>2026-05-03T10:16:04.395Z</time></trkpt><trkpt lat="41.817906" lon="13.3291268"><ele>1380.3333333333333</ele><time>2026-05-03T10:16:05.395Z</time></trkpt><trkpt lat="41.8178868" lon="13.3293786"><ele>1380.6666666666665</ele><time>2026-05-03T10:16:06.393Z</time></trkpt><trkpt lat="41.8178766" lon="13.329604"><ele>1381.0</ele><time>2026-05-03T10:16:07.396Z</time></trkpt><trkpt lat="41.8178745" lon="13.3298125"><ele>1381.0</ele><time>2026-05-03T10:16:08.401Z</time></trkpt><trkpt lat="41.8178882" lon="13.3300002"><ele>1381.0</ele><time>2026-05-03T10:16:09.402Z</time></trkpt><trkpt lat="41.8179228" lon="13.330183"><ele>1381.0</ele><time>2026-05-03T10:16:10.393Z</time></trkpt><trkpt lat="41.8179809" lon="13.3303639"><ele>1381.0</ele><time>2026-05-03T10:16:11.402Z</time></trkpt><trkpt lat="41.8180557" lon="13.3305367"><ele>1377.0</ele><time>2026-05-03T10:16:12.407Z</time></trkpt><trkpt lat="41.8181239" lon="13.3307322"><ele>1373.0</ele><time>2026-05-03T10:16:13.391Z</time></trkpt><trkpt lat="41.8181761" lon="13.3309573"><ele>1369.0</ele><time>2026-05-03T10:16:14.401Z</time></trkpt><trkpt lat="41.8182155" lon="13.3311796"><ele>1369.0</ele><time>2026-05-03T10:16:15.393Z</time></trkpt><trkpt lat="41.8182463" lon="13.3313863"><ele>1369.0</ele><time>2026-05-03T10:16:16.395Z</time></trkpt><trkpt lat="41.8182695" lon="13.3315786"><ele>1369.0</ele><time>2026-05-03T10:16:17.39Z</time></trkpt><trkpt lat="41.8182865" lon="13.3317535"><ele>1369.0</ele><time>2026-05-03T10:16:18.39Z</time></trkpt><trkpt lat="41.8182966" lon="13.331921"><ele>1367.3333333333333</ele><time>2026-05-03T10:16:19.391Z</time></trkpt><trkpt lat="41.8182926" lon="13.3320721"><ele>1365.6666666666665</ele><time>2026-05-03T10:16:20.395Z</time></trkpt><trkpt lat="41.8182716" lon="13.3321906"><ele>1364.0</ele><time>2026-05-03T10:16:21.394Z</time></trkpt><trkpt lat="41.8182283" lon="13.3322876"><ele>1362.3333333333333</ele><time>2026-05-03T10:16:22.392Z</time></trkpt><trkpt lat="41.8181636" lon="13.3323482"><ele>1360.6666666666667</ele><time>2026-05-03T10:16:23.393Z</time></trkpt><trkpt lat="41.8180827" lon="13.3323681"><ele>1359.0</ele><time>2026-05-03T10:16:24.392Z</time></trkpt><trkpt lat="41.8180133" lon="13.3323291"><ele>1359.0</ele><time>2026-05-03T10:16:25.391Z</time></trkpt><trkpt lat="41.8179616" lon="13.3322324"><ele>1359.0</ele><time>2026-05-03T10:16:26.392Z</time></trkpt><trkpt lat="41.8179458" lon="13.3321078"><ele>1359.0</ele><time>2026-05-03T10:16:27.395Z</time></trkpt><trkpt lat="41.8179658" lon="13.3319717"><ele>1359.0</ele><time>2026-05-03T10:16:28.39Z</time></trkpt><trkpt lat="41.8179896" lon="13.3318339"><ele>1359.0</ele><time>2026-05-03T10:16:29.394Z</time></trkpt><trkpt lat="41.8179956" lon="13.3316626"><ele>1359.0</ele><time>2026-05-03T10:16:30.392Z</time></trkpt><trkpt lat="41.8179775" lon="13.3314839"><ele>1359.0</ele><time>2026-05-03T10:16:31.39Z</time></trkpt><trkpt lat="41.8179351" lon="13.3313036"><ele>1359.0</ele><time>2026-05-03T10:16:32.394Z</time></trkpt><trkpt lat="41.8178705" lon="13.331119"><ele>1359.0</ele><time>2026-05-03T10:16:33.392Z</time></trkpt><trkpt lat="41.8177852" lon="13.3309331"><ele>1362.3333333333333</ele><time>2026-05-03T10:16:34.391Z</time></trkpt><trkpt lat="41.8176898" lon="13.3307711"><ele>1365.6666666666665</ele><time>2026-05-03T10:16:35.395Z</time></trkpt><trkpt lat="41.8175877" lon="13.3306004"><ele>1369.0</ele><time>2026-05-03T10:16:36.392Z</time></trkpt><trkpt lat="41.8174904" lon="13.3304297"><ele>1359.0</ele><time>2026-05-03T10:16:37.392Z</time></trkpt><trkpt lat="41.8174228" lon="13.3302151"><ele>1349.0</ele><time>2026-05-03T10:16:38.396Z</time></trkpt><trkpt lat="41.8173587" lon="13.3300081"><ele>1339.0</ele><time>2026-05-03T10:16:39.395Z</time></trkpt><trkpt lat="41.8173098" lon="13.3298141"><ele>1339.75</ele><time>2026-05-03T10:16:40.394Z</time></trkpt><trkpt lat="41.8172725" lon="13.3296263"><ele>1340.5</ele><time>2026-05-03T10:16:41.396Z</time></trkpt><trkpt lat="41.8172439" lon="13.3294487"><ele>1341.25</ele><time>2026-05-03T10:16:42.393Z</time></trkpt><trkpt lat="41.8172278" lon="13.3292661"><ele>1342.0</ele><time>2026-05-03T10:16:43.395Z</time></trkpt><trkpt lat="41.8172308" lon="13.3290852"><ele>1342.0</ele><time>2026-05-03T10:16:44.394Z</time></trkpt><trkpt lat="41.8172422" lon="13.3288928"><ele>1342.0</ele><time>2026-05-03T10:16:45.39Z</time></trkpt><trkpt lat="41.8172662" lon="13.3286895"><ele>1342.0</ele><time>2026-05-03T10:16:46.395Z</time></trkpt><trkpt lat="41.817296" lon="13.3284916"><ele>1342.0</ele><time>2026-05-03T10:16:47.395Z</time></trkpt><trkpt lat="41.8173314" lon="13.3283109"><ele>1339.5</ele><time>2026-05-03T10:16:48.395Z</time></trkpt><trkpt lat="41.8173881" lon="13.3281365"><ele>1337.0</ele><time>2026-05-03T10:16:49.398Z</time></trkpt><trkpt lat="41.8174564" lon="13.3279671"><ele>1334.5</ele><time>2026-05-03T10:16:50.393Z</time></trkpt><trkpt lat="41.8175154" lon="13.327812"><ele>1332.0</ele><time>2026-05-03T10:16:51.397Z</time></trkpt><trkpt lat="41.8176158" lon="13.3276467"><ele>1329.5</ele><time>2026-05-03T10:16:52.392Z</time></trkpt><trkpt lat="41.8177608" lon="13.3275875"><ele>1327.0</ele><time>2026-05-03T10:16:53.397Z</time></trkpt><trkpt lat="41.8178713" lon="13.3274692"><ele>1324.5</ele><time>2026-05-03T10:16:54.394Z</time></trkpt><trkpt lat="41.8179796" lon="13.3273511"><ele>1322.0</ele><time>2026-05-03T10:16:55.393Z</time></trkpt><trkpt lat="41.818076" lon="13.3272184"><ele>1322.0</ele><time>2026-05-03T10:16:56.397Z</time></trkpt><trkpt lat="41.8181581" lon="13.327069"><ele>1322.0</ele><time>2026-05-03T10:16:57.396Z</time></trkpt><trkpt lat="41.8182236" lon="13.3268891"><ele>1322.0</ele><time>2026-05-03T10:16:58.396Z</time></trkpt><trkpt lat="41.8182989" lon="13.3267015"><ele>1322.0</ele><time>2026-05-03T10:16:59.395Z</time></trkpt><trkpt lat="41.8183834" lon="13.3265227"><ele>1327.75</ele><time>2026-05-03T10:17:00.391Z</time></trkpt><trkpt lat="41.8184811" lon="13.3263758"><ele>1333.5</ele><time>2026-05-03T10:17:01.396Z</time></trkpt><trkpt lat="41.8185772" lon="13.3262312"><ele>1339.25</ele><time>2026-05-03T10:17:02.394Z</time></trkpt><trkpt lat="41.818662" lon="13.3261015"><ele>1345.0</ele><time>2026-05-03T10:17:03.393Z</time></trkpt><trkpt lat="41.8187336" lon="13.3259713"><ele>1345.0</ele><time>2026-05-03T10:17:04.393Z</time></trkpt><trkpt lat="41.8187829" lon="13.325831"><ele>1345.0</ele><time>2026-05-03T10:17:05.394Z</time></trkpt><trkpt lat="41.8188135" lon="13.3256885"><ele>1345.0</ele><time>2026-05-03T10:17:06.393Z</time></trkpt><trkpt lat="41.818814" lon="13.3255427"><ele>1345.0</ele><time>2026-05-03T10:17:07.395Z</time></trkpt><trkpt lat="41.8187755" lon="13.3253744"><ele>1344.3333333333333</ele><time>2026-05-03T10:17:08.393Z</time></trkpt><trkpt lat="41.8186998" lon="13.3251992"><ele>1343.6666666666667</ele><time>2026-05-03T10:17:09.396Z</time></trkpt><trkpt lat="41.8185985" lon="13.3250358"><ele>1343.0</ele><time>2026-05-03T10:17:10.391Z</time></trkpt><trkpt lat="41.8184802" lon="13.3248564"><ele>1332.5</ele><time>2026-05-03T10:17:11.394Z</time></trkpt><trkpt lat="41.8183773" lon="13.3246832"><ele>1322.0</ele><time>2026-05-03T10:17:12.392Z</time></trkpt><trkpt lat="41.8182928" lon="13.3245117"><ele>1311.5</ele><time>2026-05-03T10:17:13.388Z</time></trkpt><trkpt lat="41.8182352" lon="13.3243628"><ele>1301.0</ele><time>2026-05-03T10:17:14.393Z</time></trkpt><trkpt lat="41.8181918" lon="13.3242206"><ele>1301.0</ele><time>2026-05-03T10:17:15.398Z</time></trkpt><trkpt lat="41.8181865" lon="13.3240803"><ele>1301.0</ele><time>2026-05-03T10:17:16.396Z</time></trkpt><trkpt lat="41.8182188" lon="13.3239504"><ele>1301.0</ele><time>2026-05-03T10:17:17.391Z</time></trkpt><trkpt lat="41.8182892" lon="13.3238229"><ele>1301.0</ele><time>2026-05-03T10:17:18.392Z</time></trkpt><trkpt lat="41.8183825" lon="13.3236705"><ele>1306.6666666666667</ele><time>2026-05-03T10:17:19.398Z</time></trkpt><trkpt lat="41.8185207" lon="13.3235562"><ele>1312.3333333333333</ele><time>2026-05-03T10:17:20.388Z</time></trkpt><trkpt lat="41.8186433" lon="13.3234176"><ele>1318.0</ele><time>2026-05-03T10:17:21.398Z</time></trkpt><trkpt lat="41.818761" lon="13.3232909"><ele>1318.0</ele><time>2026-05-03T10:17:22.402Z</time></trkpt><trkpt lat="41.8188737" lon="13.3231861"><ele>1318.0</ele><time>2026-05-03T10:17:23.394Z</time></trkpt><trkpt lat="41.8189653" lon="13.3230703"><ele>1318.0</ele><time>2026-05-03T10:17:24.392Z</time></trkpt><trkpt lat="41.8190503" lon="13.3229896"><ele>1318.0</ele><time>2026-05-03T10:17:25.403Z</time></trkpt><trkpt lat="41.8190885" lon="13.3228877"><ele>1315.6000000000001</ele><time>2026-05-03T10:17:26.401Z</time></trkpt><trkpt lat="41.8191307" lon="13.3227942"><ele>1313.2</ele><time>2026-05-03T10:17:27.399Z</time></trkpt><trkpt lat="41.8190945" lon="13.3226549"><ele>1310.8</ele><time>2026-05-03T10:17:28.392Z</time></trkpt><trkpt lat="41.8190694" lon="13.3225469"><ele>1308.4</ele><time>2026-05-03T10:17:29.393Z</time></trkpt><trkpt lat="41.8189775" lon="13.3223949"><ele>1306.0</ele><time>2026-05-03T10:17:30.392Z</time></trkpt><trkpt lat="41.8188668" lon="13.3222567"><ele>1310.3333333333333</ele><time>2026-05-03T10:17:31.394Z</time></trkpt><trkpt lat="41.8187383" lon="13.3221088"><ele>1314.6666666666667</ele><time>2026-05-03T10:17:32.391Z</time></trkpt><trkpt lat="41.8186071" lon="13.3219644"><ele>1319.0</ele><time>2026-05-03T10:17:33.394Z</time></trkpt><trkpt lat="41.8184734" lon="13.3218216"><ele>1306.0</ele><time>2026-05-03T10:17:34.393Z</time></trkpt><trkpt lat="41.8183491" lon="13.3216875"><ele>1293.0</ele><time>2026-05-03T10:17:35.395Z</time></trkpt><trkpt lat="41.8182316" lon="13.3215621"><ele>1280.0</ele><time>2026-05-03T10:17:36.392Z</time></trkpt><trkpt lat="41.8181214" lon="13.3214451"><ele>1283.25</ele><time>2026-05-03T10:17:37.394Z</time></trkpt><trkpt lat="41.8180286" lon="13.3213236"><ele>1286.5</ele><time>2026-05-03T10:17:38.393Z</time></trkpt><trkpt lat="41.817956" lon="13.3211858"><ele>1289.75</ele><time>2026-05-03T10:17:39.397Z</time></trkpt><trkpt lat="41.8179257" lon="13.3210034"><ele>1293.0</ele><time>2026-05-03T10:17:40.393Z</time></trkpt><trkpt lat="41.8178951" lon="13.3208406"><ele>1293.0</ele><time>2026-05-03T10:17:41.397Z</time></trkpt><trkpt lat="41.8178512" lon="13.3206931"><ele>1293.0</ele><time>2026-05-03T10:17:42.391Z</time></trkpt><trkpt lat="41.8177953" lon="13.3205594"><ele>1293.0</ele><time>2026-05-03T10:17:43.395Z</time></trkpt><trkpt lat="41.8177061" lon="13.3204628"><ele>1293.0</ele><time>2026-05-03T10:17:44.403Z</time></trkpt><trkpt lat="41.8176301" lon="13.3203754"><ele>1293.0</ele><time>2026-05-03T10:17:45.395Z</time></trkpt><trkpt lat="41.817559" lon="13.3202803"><ele>1289.75</ele><time>2026-05-03T10:17:46.391Z</time></trkpt><trkpt lat="41.8175353" lon="13.3201546"><ele>1286.5</ele><time>2026-05-03T10:17:47.392Z</time></trkpt><trkpt lat="41.8175471" lon="13.3200177"><ele>1283.25</ele><time>2026-05-03T10:17:48.394Z</time></trkpt><trkpt lat="41.81761" lon="13.3198658"><ele>1280.0</ele><time>2026-05-03T10:17:49.392Z</time></trkpt><trkpt lat="41.8176805" lon="13.3196875"><ele>1280.0</ele><time>2026-05-03T10:17:50.393Z</time></trkpt><trkpt lat="41.8177469" lon="13.3195096"><ele>1280.0</ele><time>2026-05-03T10:17:51.476Z</time></trkpt><trkpt lat="41.8178264" lon="13.3193565"><ele>1280.0</ele><time>2026-05-03T10:17:52.39Z</time></trkpt><trkpt lat="41.8178785" lon="13.3192023"><ele>1280.0</ele><time>2026-05-03T10:17:53.39Z</time></trkpt><trkpt lat="41.8179162" lon="13.3190711"><ele>1280.0</ele><time>2026-05-03T10:17:54.39Z</time></trkpt><trkpt lat="41.817922" lon="13.3189307"><ele>1280.0</ele><time>2026-05-03T10:17:55.393Z</time></trkpt><trkpt lat="41.8179049" lon="13.3188073"><ele>1280.0</ele><time>2026-05-03T10:17:56.393Z</time></trkpt><trkpt lat="41.8178543" lon="13.3186925"><ele>1280.0</ele><time>2026-05-03T10:17:57.396Z</time></trkpt><trkpt lat="41.817773" lon="13.318615"><ele>1280.0</ele><time>2026-05-03T10:17:58.392Z</time></trkpt><trkpt lat="41.8176641" lon="13.3185695"><ele>1272.6666666666667</ele><time>2026-05-03T10:17:59.394Z</time></trkpt><trkpt lat="41.8175142" lon="13.3185284"><ele>1265.3333333333333</ele><time>2026-05-03T10:18:00.402Z</time></trkpt><trkpt lat="41.8173386" lon="13.318471"><ele>1258.0</ele><time>2026-05-03T10:18:01.387Z</time></trkpt><trkpt lat="41.8171312" lon="13.3184167"><ele>1258.0</ele><time>2026-05-03T10:18:02.394Z</time></trkpt><trkpt lat="41.8169058" lon="13.3183592"><ele>1258.0</ele><time>2026-05-03T10:18:03.391Z</time></trkpt><trkpt lat="41.8166894" lon="13.3183012"><ele>1253.6666666666665</ele><time>2026-05-03T10:18:04.393Z</time></trkpt><trkpt lat="41.8164826" lon="13.3182455"><ele>1249.3333333333333</ele><time>2026-05-03T10:18:05.394Z</time></trkpt><trkpt lat="41.8162845" lon="13.3181962"><ele>1245.0</ele><time>2026-05-03T10:18:06.393Z</time></trkpt><trkpt lat="41.8160961" lon="13.318145"><ele>1242.6666666666667</ele><time>2026-05-03T10:18:07.39Z</time></trkpt><trkpt lat="41.8159177" lon="13.3180895"><ele>1240.3333333333335</ele><time>2026-05-03T10:18:08.392Z</time></trkpt><trkpt lat="41.8157518" lon="13.3180255"><ele>1238.0</ele><time>2026-05-03T10:18:09.4Z</time></trkpt><trkpt lat="41.815597" lon="13.3179568"><ele>1238.0</ele><time>2026-05-03T10:18:10.402Z</time></trkpt><trkpt lat="41.8154475" lon="13.3178852"><ele>1238.0</ele><time>2026-05-03T10:18:11.405Z</time></trkpt><trkpt lat="41.8152954" lon="13.3178089"><ele>1238.0</ele><time>2026-05-03T10:18:12.401Z</time></trkpt><trkpt lat="41.8151423" lon="13.3177107"><ele>1235.0</ele><time>2026-05-03T10:18:13.398Z</time></trkpt><trkpt lat="41.8149913" lon="13.3175908"><ele>1232.0</ele><time>2026-05-03T10:18:14.397Z</time></trkpt><trkpt lat="41.8148432" lon="13.3174602"><ele>1229.0</ele><time>2026-05-03T10:18:15.392Z</time></trkpt><trkpt lat="41.8147063" lon="13.3173342"><ele>1228.3333333333335</ele><time>2026-05-03T10:18:16.402Z</time></trkpt><trkpt lat="41.8145685" lon="13.3172073"><ele>1227.6666666666667</ele><time>2026-05-03T10:18:17.411Z</time></trkpt><trkpt lat="41.8144425" lon="13.3170883"><ele>1227.0</ele><time>2026-05-03T10:18:18.394Z</time></trkpt><trkpt lat="41.8143227" lon="13.316977"><ele>1224.5</ele><time>2026-05-03T10:18:19.396Z</time></trkpt><trkpt lat="41.8142149" lon="13.316871"><ele>1222.0</ele><time>2026-05-03T10:18:20.393Z</time></trkpt><trkpt lat="41.8141168" lon="13.3167621"><ele>1219.5</ele><time>2026-05-03T10:18:21.393Z</time></trkpt><trkpt lat="41.8140334" lon="13.3166504"><ele>1217.0</ele><time>2026-05-03T10:18:22.393Z</time></trkpt><trkpt lat="41.8139617" lon="13.3165466"><ele>1217.0</ele><time>2026-05-03T10:18:23.393Z</time></trkpt><trkpt lat="41.81391" lon="13.3164313"><ele>1217.0</ele><time>2026-05-03T10:18:24.401Z</time></trkpt><trkpt lat="41.8138813" lon="13.316298"><ele>1217.0</ele><time>2026-05-03T10:18:25.391Z</time></trkpt><trkpt lat="41.8138875" lon="13.3161349"><ele>1217.0</ele><time>2026-05-03T10:18:26.398Z</time></trkpt><trkpt lat="41.8139064" lon="13.3159849"><ele>1217.0</ele><time>2026-05-03T10:18:27.4Z</time></trkpt><trkpt lat="41.8139113" lon="13.3158462"><ele>1216.0</ele><time>2026-05-03T10:18:28.393Z</time></trkpt><trkpt lat="41.8138998" lon="13.3157102"><ele>1215.0</ele><time>2026-05-03T10:18:29.393Z</time></trkpt><trkpt lat="41.8138669" lon="13.3155762"><ele>1214.0</ele><time>2026-05-03T10:18:30.399Z</time></trkpt><trkpt lat="41.8138194" lon="13.3154609"><ele>1213.0</ele><time>2026-05-03T10:18:31.397Z</time></trkpt><trkpt lat="41.8137557" lon="13.3153604"><ele>1212.0</ele><time>2026-05-03T10:18:32.393Z</time></trkpt><trkpt lat="41.8136746" lon="13.3152933"><ele>1212.0</ele><time>2026-05-03T10:18:33.392Z</time></trkpt><trkpt lat="41.8135852" lon="13.3152585"><ele>1212.0</ele><time>2026-05-03T10:18:34.397Z</time></trkpt><trkpt lat="41.8134873" lon="13.3152657"><ele>1212.0</ele><time>2026-05-03T10:18:35.399Z</time></trkpt><trkpt lat="41.8133945" lon="13.3153097"><ele>1212.0</ele><time>2026-05-03T10:18:36.391Z</time></trkpt><trkpt lat="41.8133074" lon="13.3153877"><ele>1212.0</ele><time>2026-05-03T10:18:37.391Z</time></trkpt><trkpt lat="41.8132308" lon="13.3154982"><ele>1210.75</ele><time>2026-05-03T10:18:38.389Z</time></trkpt><trkpt lat="41.8131631" lon="13.315638"><ele>1209.5</ele><time>2026-05-03T10:18:39.39Z</time></trkpt><trkpt lat="41.8131243" lon="13.3158126"><ele>1208.25</ele><time>2026-05-03T10:18:40.395Z</time></trkpt><trkpt lat="41.8131092" lon="13.315986"><ele>1207.0</ele><time>2026-05-03T10:18:41.391Z</time></trkpt><trkpt lat="41.8131081" lon="13.3161509"><ele>1207.0</ele><time>2026-05-03T10:18:42.387Z</time></trkpt><trkpt lat="41.8131299" lon="13.3163028"><ele>1207.0</ele><time>2026-05-03T10:18:43.392Z</time></trkpt><trkpt lat="41.813175" lon="13.3164344"><ele>1207.0</ele><time>2026-05-03T10:18:44.389Z</time></trkpt><trkpt lat="41.8132347" lon="13.3165423"><ele>1207.0</ele><time>2026-05-03T10:18:45.391Z</time></trkpt><trkpt lat="41.8132978" lon="13.3166232"><ele>1207.0</ele><time>2026-05-03T10:18:46.391Z</time></trkpt><trkpt lat="41.8133452" lon="13.3166913"><ele>1205.6</ele><time>2026-05-03T10:18:47.391Z</time></trkpt><trkpt lat="41.8133601" lon="13.3168167"><ele>1204.2</ele><time>2026-05-03T10:18:49.391Z</time></trkpt><trkpt lat="41.8132894" lon="13.3169141"><ele>1202.8</ele><time>2026-05-03T10:18:51.39Z</time></trkpt><trkpt lat="41.8132117" lon="13.3169317"><ele>1201.4</ele><time>2026-05-03T10:18:52.39Z</time></trkpt><trkpt lat="41.8131138" lon="13.3169148"><ele>1200.0</ele><time>2026-05-03T10:18:53.39Z</time></trkpt><trkpt lat="41.8130044" lon="13.3168509"><ele>1200.0</ele><time>2026-05-03T10:18:54.39Z</time></trkpt><trkpt lat="41.8129085" lon="13.316761"><ele>1200.0</ele><time>2026-05-03T10:18:55.39Z</time></trkpt><trkpt lat="41.8128306" lon="13.3166377"><ele>1200.0</ele><time>2026-05-03T10:18:56.39Z</time></trkpt><trkpt lat="41.8127735" lon="13.3164957"><ele>1200.0</ele><time>2026-05-03T10:18:57.391Z</time></trkpt><trkpt lat="41.8127277" lon="13.3163226"><ele>1200.25</ele><time>2026-05-03T10:18:58.39Z</time></trkpt><trkpt lat="41.8127098" lon="13.3161229"><ele>1200.5</ele><time>2026-05-03T10:18:59.39Z</time></trkpt><trkpt lat="41.8126963" lon="13.315926"><ele>1200.75</ele><time>2026-05-03T10:19:00.39Z</time></trkpt><trkpt lat="41.8126891" lon="13.3157346"><ele>1201.0</ele><time>2026-05-03T10:19:01.392Z</time></trkpt><trkpt lat="41.8126894" lon="13.3155472"><ele>1201.0</ele><time>2026-05-03T10:19:02.391Z</time></trkpt><trkpt lat="41.8127084" lon="13.31536"><ele>1201.0</ele><time>2026-05-03T10:19:03.394Z</time></trkpt><trkpt lat="41.8127353" lon="13.3151642"><ele>1201.0</ele><time>2026-05-03T10:19:04.389Z</time></trkpt><trkpt lat="41.8127797" lon="13.3149706"><ele>1201.0</ele><time>2026-05-03T10:19:05.39Z</time></trkpt><trkpt lat="41.8128366" lon="13.3147859"><ele>1197.75</ele><time>2026-05-03T10:19:06.388Z</time></trkpt><trkpt lat="41.8129131" lon="13.3146161"><ele>1194.5</ele><time>2026-05-03T10:19:07.386Z</time></trkpt><trkpt lat="41.8129955" lon="13.3144706"><ele>1191.25</ele><time>2026-05-03T10:19:08.389Z</time></trkpt><trkpt lat="41.8130801" lon="13.3143469"><ele>1188.0</ele><time>2026-05-03T10:19:09.393Z</time></trkpt><trkpt lat="41.8131464" lon="13.3142124"><ele>1188.0</ele><time>2026-05-03T10:19:10.39Z</time></trkpt><trkpt lat="41.8131983" lon="13.3140584"><ele>1188.0</ele><time>2026-05-03T10:19:11.391Z</time></trkpt><trkpt lat="41.8132311" lon="13.3138833"><ele>1188.0</ele><time>2026-05-03T10:19:12.39Z</time></trkpt><trkpt lat="41.8132512" lon="13.3137138"><ele>1188.0</ele><time>2026-05-03T10:19:13.39Z</time></trkpt><trkpt lat="41.8132534" lon="13.3135472"><ele>1185.0</ele><time>2026-05-03T10:19:14.391Z</time></trkpt><trkpt lat="41.8132616" lon="13.3133909"><ele>1182.0</ele><time>2026-05-03T10:19:15.391Z</time></trkpt><trkpt lat="41.813276" lon="13.313221"><ele>1179.0</ele><time>2026-05-03T10:19:16.395Z</time></trkpt><trkpt lat="41.8133112" lon="13.3130434"><ele>1176.0</ele><time>2026-05-03T10:19:17.393Z</time></trkpt><trkpt lat="41.8133605" lon="13.3128635"><ele>1176.25</ele><time>2026-05-03T10:19:18.392Z</time></trkpt><trkpt lat="41.8134192" lon="13.3126913"><ele>1176.5</ele><time>2026-05-03T10:19:19.398Z</time></trkpt><trkpt lat="41.8134768" lon="13.3125405"><ele>1176.75</ele><time>2026-05-03T10:19:20.399Z</time></trkpt><trkpt lat="41.8135513" lon="13.3124131"><ele>1177.0</ele><time>2026-05-03T10:19:21.388Z</time></trkpt><trkpt lat="41.8136405" lon="13.3123087"><ele>1173.5</ele><time>2026-05-03T10:19:22.388Z</time></trkpt><trkpt lat="41.8137397" lon="13.3122111"><ele>1170.0</ele><time>2026-05-03T10:19:23.386Z</time></trkpt><trkpt lat="41.8138301" lon="13.3121233"><ele>1166.5</ele><time>2026-05-03T10:19:24.387Z</time></trkpt><trkpt lat="41.8139093" lon="13.3120048"><ele>1163.0</ele><time>2026-05-03T10:19:25.393Z</time></trkpt><trkpt lat="41.8139717" lon="13.3118566"><ele>1163.0</ele><time>2026-05-03T10:19:26.392Z</time></trkpt><trkpt lat="41.8140385" lon="13.3117145"><ele>1163.0</ele><time>2026-05-03T10:19:27.389Z</time></trkpt><trkpt lat="41.8140759" lon="13.311546"><ele>1163.0</ele><time>2026-05-03T10:19:28.387Z</time></trkpt><trkpt lat="41.8141398" lon="13.3114121"><ele>1163.0</ele><time>2026-05-03T10:19:29.389Z</time></trkpt><trkpt lat="41.8142078" lon="13.3112876"><ele>1162.4</ele><time>2026-05-03T10:19:30.389Z</time></trkpt><trkpt lat="41.8142985" lon="13.3111968"><ele>1161.8</ele><time>2026-05-03T10:19:31.396Z</time></trkpt><trkpt lat="41.8143943" lon="13.3111454"><ele>1161.2</ele><time>2026-05-03T10:19:32.388Z</time></trkpt><trkpt lat="41.814469" lon="13.3110598"><ele>1160.6</ele><time>2026-05-03T10:19:33.388Z</time></trkpt><trkpt lat="41.8145274" lon="13.3109502"><ele>1160.0</ele><time>2026-05-03T10:19:34.395Z</time></trkpt><trkpt lat="41.8145802" lon="13.3108402"><ele>1158.4</ele><time>2026-05-03T10:19:35.389Z</time></trkpt><trkpt lat="41.8145872" lon="13.3107032"><ele>1156.8</ele><time>2026-05-03T10:19:36.382Z</time></trkpt><trkpt lat="41.8145725" lon="13.3105625"><ele>1155.2</ele><time>2026-05-03T10:19:37.399Z</time></trkpt><trkpt lat="41.8145464" lon="13.3104189"><ele>1153.6</ele><time>2026-05-03T10:19:38.392Z</time></trkpt><trkpt lat="41.8144702" lon="13.3102882"><ele>1152.0</ele><time>2026-05-03T10:19:39.388Z</time></trkpt><trkpt lat="41.8144017" lon="13.3101786"><ele>1151.6</ele><time>2026-05-03T10:19:40.395Z</time></trkpt><trkpt lat="41.8143212" lon="13.3100645"><ele>1151.2</ele><time>2026-05-03T10:19:41.395Z</time></trkpt><trkpt lat="41.8142184" lon="13.3099959"><ele>1150.8</ele><time>2026-05-03T10:19:42.391Z</time></trkpt><trkpt lat="41.8141215" lon="13.3099466"><ele>1150.4</ele><time>2026-05-03T10:19:43.389Z</time></trkpt><trkpt lat="41.8140315" lon="13.3099464"><ele>1150.0</ele><time>2026-05-03T10:19:44.398Z</time></trkpt><trkpt lat="41.8139438" lon="13.3099799"><ele>1150.0</ele><time>2026-05-03T10:19:45.391Z</time></trkpt><trkpt lat="41.8138485" lon="13.3100528"><ele>1150.0</ele><time>2026-05-03T10:19:46.392Z</time></trkpt><trkpt lat="41.8137812" lon="13.3101614"><ele>1150.0</ele><time>2026-05-03T10:19:47.4Z</time></trkpt><trkpt lat="41.8137361" lon="13.3102814"><ele>1150.0</ele><time>2026-05-03T10:19:48.389Z</time></trkpt><trkpt lat="41.8137177" lon="13.3104016"><ele>1150.0</ele><time>2026-05-03T10:19:49.391Z</time></trkpt><trkpt lat="41.8137257" lon="13.3105284"><ele>1152.5</ele><time>2026-05-03T10:19:50.39Z</time></trkpt><trkpt lat="41.8137557" lon="13.3106703"><ele>1155.0</ele><time>2026-05-03T10:19:51.391Z</time></trkpt><trkpt lat="41.8137634" lon="13.3108184"><ele>1157.5</ele><time>2026-05-03T10:19:52.386Z</time></trkpt><trkpt lat="41.813743" lon="13.3109814"><ele>1160.0</ele><time>2026-05-03T10:19:53.391Z</time></trkpt><trkpt lat="41.8137015" lon="13.3111274"><ele>1160.0</ele><time>2026-05-03T10:19:54.391Z</time></trkpt><trkpt lat="41.8136533" lon="13.3112806"><ele>1160.0</ele><time>2026-05-03T10:19:55.39Z</time></trkpt><trkpt lat="41.8136119" lon="13.3114207"><ele>1160.0</ele><time>2026-05-03T10:19:56.391Z</time></trkpt><trkpt lat="41.8135651" lon="13.3115436"><ele>1160.0</ele><time>2026-05-03T10:19:57.387Z</time></trkpt><trkpt lat="41.8134825" lon="13.3116527"><ele>1157.0</ele><time>2026-05-03T10:19:58.387Z</time></trkpt><trkpt lat="41.8133917" lon="13.3117436"><ele>1154.0</ele><time>2026-05-03T10:19:59.389Z</time></trkpt><trkpt lat="41.8132943" lon="13.3118249"><ele>1151.0</ele><time>2026-05-03T10:20:00.392Z</time></trkpt><trkpt lat="41.8132078" lon="13.3119284"><ele>1148.0</ele><time>2026-05-03T10:20:01.388Z</time></trkpt><trkpt lat="41.8131309" lon="13.3120714"><ele>1151.6666666666667</ele><time>2026-05-03T10:20:02.389Z</time></trkpt><trkpt lat="41.8130705" lon="13.3122674"><ele>1155.3333333333333</ele><time>2026-05-03T10:20:03.396Z</time></trkpt><trkpt lat="41.8129696" lon="13.3124574"><ele>1159.0</ele><time>2026-05-03T10:20:04.389Z</time></trkpt><trkpt lat="41.812862" lon="13.3126614"><ele>1159.0</ele><time>2026-05-03T10:20:05.398Z</time></trkpt><trkpt lat="41.812771" lon="13.3128529"><ele>1159.0</ele><time>2026-05-03T10:20:06.389Z</time></trkpt><trkpt lat="41.8126958" lon="13.3130474"><ele>1159.0</ele><time>2026-05-03T10:20:07.39Z</time></trkpt><trkpt lat="41.812619" lon="13.3132232"><ele>1153.5</ele><time>2026-05-03T10:20:08.392Z</time></trkpt><trkpt lat="41.812527" lon="13.3133725"><ele>1148.0</ele><time>2026-05-03T10:20:09.398Z</time></trkpt><trkpt lat="41.8124226" lon="13.3135039"><ele>1142.5</ele><time>2026-05-03T10:20:10.389Z</time></trkpt><trkpt lat="41.812303" lon="13.3136074"><ele>1137.0</ele><time>2026-05-03T10:20:11.391Z</time></trkpt><trkpt lat="41.812171" lon="13.3137102"><ele>1137.0</ele><time>2026-05-03T10:20:12.392Z</time></trkpt><trkpt lat="41.8120545" lon="13.3138417"><ele>1137.0</ele><time>2026-05-03T10:20:13.4Z</time></trkpt><trkpt lat="41.8119469" lon="13.3139792"><ele>1137.0</ele><time>2026-05-03T10:20:14.389Z</time></trkpt><trkpt lat="41.8118473" lon="13.3141129"><ele>1137.0</ele><time>2026-05-03T10:20:15.393Z</time></trkpt><trkpt lat="41.8117516" lon="13.3142482"><ele>1134.2</ele><time>2026-05-03T10:20:16.386Z</time></trkpt><trkpt lat="41.8116673" lon="13.3143717"><ele>1131.4</ele><time>2026-05-03T10:20:17.386Z</time></trkpt><trkpt lat="41.811585" lon="13.3144731"><ele>1128.6</ele><time>2026-05-03T10:20:18.389Z</time></trkpt><trkpt lat="41.8114933" lon="13.314549"><ele>1125.8</ele><time>2026-05-03T10:20:19.397Z</time></trkpt><trkpt lat="41.8114014" lon="13.3145897"><ele>1123.0</ele><time>2026-05-03T10:20:20.386Z</time></trkpt><trkpt lat="41.8113101" lon="13.3145872"><ele>1123.0</ele><time>2026-05-03T10:20:21.39Z</time></trkpt><trkpt lat="41.8112175" lon="13.3145392"><ele>1123.0</ele><time>2026-05-03T10:20:22.391Z</time></trkpt><trkpt lat="41.8111356" lon="13.3144647"><ele>1123.0</ele><time>2026-05-03T10:20:23.392Z</time></trkpt><trkpt lat="41.8110657" lon="13.3143593"><ele>1123.0</ele><time>2026-05-03T10:20:24.392Z</time></trkpt><trkpt lat="41.8110203" lon="13.3142452"><ele>1123.0</ele><time>2026-05-03T10:20:25.389Z</time></trkpt><trkpt lat="41.811002" lon="13.3141205"><ele>1123.0</ele><time>2026-05-03T10:20:26.386Z</time></trkpt><trkpt lat="41.8110163" lon="13.3139998"><ele>1123.0</ele><time>2026-05-03T10:20:27.386Z</time></trkpt><trkpt lat="41.8110624" lon="13.3138763"><ele>1123.0</ele><time>2026-05-03T10:20:28.389Z</time></trkpt><trkpt lat="41.8111368" lon="13.3137455"><ele>1123.0</ele><time>2026-05-03T10:20:29.389Z</time></trkpt><trkpt lat="41.8112204" lon="13.3136212"><ele>1123.0</ele><time>2026-05-03T10:20:30.391Z</time></trkpt><trkpt lat="41.8112968" lon="13.3134877"><ele>1120.75</ele><time>2026-05-03T10:20:31.393Z</time></trkpt><trkpt lat="41.8113546" lon="13.3133525"><ele>1118.5</ele><time>2026-05-03T10:20:32.39Z</time></trkpt><trkpt lat="41.8113951" lon="13.3132154"><ele>1116.25</ele><time>2026-05-03T10:20:33.39Z</time></trkpt><trkpt lat="41.8114084" lon="13.3130661"><ele>1114.0</ele><time>2026-05-03T10:20:34.388Z</time></trkpt><trkpt lat="41.8113983" lon="13.3129033"><ele>1112.75</ele><time>2026-05-03T10:20:35.387Z</time></trkpt><trkpt lat="41.8113788" lon="13.3127307"><ele>1111.5</ele><time>2026-05-03T10:20:36.389Z</time></trkpt><trkpt lat="41.8113108" lon="13.3125839"><ele>1110.25</ele><time>2026-05-03T10:20:37.397Z</time></trkpt><trkpt lat="41.8112771" lon="13.3124381"><ele>1109.0</ele><time>2026-05-03T10:20:38.385Z</time></trkpt><trkpt lat="41.8112438" lon="13.3123041"><ele>1108.2</ele><time>2026-05-03T10:20:39.388Z</time></trkpt><trkpt lat="41.8112471" lon="13.3121767"><ele>1107.4</ele><time>2026-05-03T10:20:40.39Z</time></trkpt><trkpt lat="41.8112792" lon="13.3120567"><ele>1106.6</ele><time>2026-05-03T10:20:41.39Z</time></trkpt><trkpt lat="41.8113498" lon="13.3119463"><ele>1105.8</ele><time>2026-05-03T10:20:42.385Z</time></trkpt><trkpt lat="41.8114239" lon="13.311843"><ele>1105.0</ele><time>2026-05-03T10:20:43.392Z</time></trkpt><trkpt lat="41.8114839" lon="13.3117315"><ele>1105.0</ele><time>2026-05-03T10:20:44.39Z</time></trkpt><trkpt lat="41.8115293" lon="13.3116073"><ele>1105.0</ele><time>2026-05-03T10:20:45.386Z</time></trkpt><trkpt lat="41.8115505" lon="13.3114473"><ele>1105.0</ele><time>2026-05-03T10:20:46.39Z</time></trkpt><trkpt lat="41.8115513" lon="13.3112589"><ele>1105.0</ele><time>2026-05-03T10:20:47.387Z</time></trkpt><trkpt lat="41.811539" lon="13.3110449"><ele>1103.3333333333333</ele><time>2026-05-03T10:20:48.393Z</time></trkpt><trkpt lat="41.8115091" lon="13.3107978"><ele>1101.6666666666667</ele><time>2026-05-03T10:20:49.386Z</time></trkpt><trkpt lat="41.8114753" lon="13.3105416"><ele>1100.0</ele><time>2026-05-03T10:20:50.395Z</time></trkpt><trkpt lat="41.8114419" lon="13.3103007"><ele>1099.6666666666667</ele><time>2026-05-03T10:20:51.389Z</time></trkpt><trkpt lat="41.8114185" lon="13.3100717"><ele>1099.3333333333333</ele><time>2026-05-03T10:20:52.387Z</time></trkpt><trkpt lat="41.8113881" lon="13.309857"><ele>1099.0</ele><time>2026-05-03T10:20:53.388Z</time></trkpt><trkpt lat="41.8113633" lon="13.3096566"><ele>1097.25</ele><time>2026-05-03T10:20:54.391Z</time></trkpt><trkpt lat="41.8113251" lon="13.3094675"><ele>1095.5</ele><time>2026-05-03T10:20:55.387Z</time></trkpt><trkpt lat="41.8112844" lon="13.3092919"><ele>1093.75</ele><time>2026-05-03T10:20:56.391Z</time></trkpt><trkpt lat="41.8112394" lon="13.3091268"><ele>1092.0</ele><time>2026-05-03T10:20:57.39Z</time></trkpt><trkpt lat="41.8111915" lon="13.3089738"><ele>1090.8</ele><time>2026-05-03T10:20:58.39Z</time></trkpt><trkpt lat="41.8111338" lon="13.3088516"><ele>1089.6</ele><time>2026-05-03T10:20:59.396Z</time></trkpt><trkpt lat="41.8110624" lon="13.3087527"><ele>1088.3999999999999</ele><time>2026-05-03T10:21:00.4Z</time></trkpt><trkpt lat="41.8109715" lon="13.3086795"><ele>1087.2</ele><time>2026-05-03T10:21:01.398Z</time></trkpt><trkpt lat="41.8108753" lon="13.3086432"><ele>1086.0</ele><time>2026-05-03T10:21:02.4Z</time></trkpt><trkpt lat="41.8107741" lon="13.308651"><ele>1084.75</ele><time>2026-05-03T10:21:03.396Z</time></trkpt><trkpt lat="41.8106817" lon="13.3087028"><ele>1083.5</ele><time>2026-05-03T10:21:04.391Z</time></trkpt><trkpt lat="41.8105765" lon="13.3088007"><ele>1082.25</ele><time>2026-05-03T10:21:05.39Z</time></trkpt><trkpt lat="41.8104776" lon="13.3089339"><ele>1081.0</ele><time>2026-05-03T10:21:06.389Z</time></trkpt><trkpt lat="41.8104049" lon="13.3090758"><ele>1080.0</ele><time>2026-05-03T10:21:07.396Z</time></trkpt><trkpt lat="41.8103419" lon="13.3092109"><ele>1079.0</ele><time>2026-05-03T10:21:08.389Z</time></trkpt><trkpt lat="41.8102751" lon="13.309329"><ele>1078.0</ele><time>2026-05-03T10:21:09.39Z</time></trkpt><trkpt lat="41.8101904" lon="13.3094197"><ele>1077.0</ele><time>2026-05-03T10:21:10.389Z</time></trkpt><trkpt lat="41.8100818" lon="13.3094826"><ele>1077.0</ele><time>2026-05-03T10:21:11.39Z</time></trkpt><trkpt lat="41.8099459" lon="13.3095172"><ele>1077.0</ele><time>2026-05-03T10:21:12.391Z</time></trkpt><trkpt lat="41.8097877" lon="13.3095671"><ele>1077.0</ele><time>2026-05-03T10:21:13.395Z</time></trkpt><trkpt lat="41.8096461" lon="13.3096193"><ele>1077.0</ele><time>2026-05-03T10:21:14.39Z</time></trkpt><trkpt lat="41.8095174" lon="13.3096786"><ele>1077.0</ele><time>2026-05-03T10:21:15.39Z</time></trkpt><trkpt lat="41.8093972" lon="13.3097375"><ele>1077.0</ele><time>2026-05-03T10:21:16.394Z</time></trkpt><trkpt lat="41.8092985" lon="13.309814"><ele>1077.0</ele><time>2026-05-03T10:21:17.392Z</time></trkpt><trkpt lat="41.8092107" lon="13.3099183"><ele>1077.0</ele><time>2026-05-03T10:21:18.393Z</time></trkpt><trkpt lat="41.8091372" lon="13.3100553"><ele>1076.5</ele><time>2026-05-03T10:21:19.392Z</time></trkpt><trkpt lat="41.8090798" lon="13.3102089"><ele>1076.0</ele><time>2026-05-03T10:21:20.397Z</time></trkpt><trkpt lat="41.8090285" lon="13.3103557"><ele>1075.5</ele><time>2026-05-03T10:21:21.395Z</time></trkpt><trkpt lat="41.8089966" lon="13.3105034"><ele>1075.0</ele><time>2026-05-03T10:21:22.395Z</time></trkpt><trkpt lat="41.808994" lon="13.3106722"><ele>1075.8</ele><time>2026-05-03T10:21:23.389Z</time></trkpt><trkpt lat="41.8090053" lon="13.3108389"><ele>1076.6</ele><time>2026-05-03T10:21:24.384Z</time></trkpt><trkpt lat="41.8090125" lon="13.3109868"><ele>1077.4</ele><time>2026-05-03T10:21:25.393Z</time></trkpt><trkpt lat="41.8089951" lon="13.3111331"><ele>1078.2</ele><time>2026-05-03T10:21:26.386Z</time></trkpt><trkpt lat="41.8089621" lon="13.3112566"><ele>1079.0</ele><time>2026-05-03T10:21:27.391Z</time></trkpt><trkpt lat="41.8089128" lon="13.3113554"><ele>1079.0</ele><time>2026-05-03T10:21:28.388Z</time></trkpt><trkpt lat="41.8088489" lon="13.3114155"><ele>1079.0</ele><time>2026-05-03T10:21:29.39Z</time></trkpt><trkpt lat="41.8087668" lon="13.3114445"><ele>1079.0</ele><time>2026-05-03T10:21:30.385Z</time></trkpt><trkpt lat="41.8086862" lon="13.3114409"><ele>1079.0</ele><time>2026-05-03T10:21:31.389Z</time></trkpt><trkpt lat="41.8086084" lon="13.3114046"><ele>1079.0</ele><time>2026-05-03T10:21:32.39Z</time></trkpt><trkpt lat="41.8085415" lon="13.3113063"><ele>1079.0</ele><time>2026-05-03T10:21:33.39Z</time></trkpt><trkpt lat="41.8084748" lon="13.3111504"><ele>1070.3333333333335</ele><time>2026-05-03T10:21:34.393Z</time></trkpt><trkpt lat="41.8084214" lon="13.3109632"><ele>1061.6666666666667</ele><time>2026-05-03T10:21:35.388Z</time></trkpt><trkpt lat="41.8083686" lon="13.3107616"><ele>1053.0</ele><time>2026-05-03T10:21:36.389Z</time></trkpt><trkpt lat="41.8083231" lon="13.3105474"><ele>1052.6666666666667</ele><time>2026-05-03T10:21:37.392Z</time></trkpt><trkpt lat="41.8082798" lon="13.3103234"><ele>1052.3333333333335</ele><time>2026-05-03T10:21:38.391Z</time></trkpt><trkpt lat="41.8082665" lon="13.3101074"><ele>1052.0</ele><time>2026-05-03T10:21:39.394Z</time></trkpt><trkpt lat="41.808245" lon="13.3099008"><ele>1049.75</ele><time>2026-05-03T10:21:40.39Z</time></trkpt><trkpt lat="41.8082325" lon="13.3097177"><ele>1047.5</ele><time>2026-05-03T10:21:41.39Z</time></trkpt><trkpt lat="41.8082337" lon="13.3095664"><ele>1045.25</ele><time>2026-05-03T10:21:42.392Z</time></trkpt><trkpt lat="41.8082538" lon="13.3094403"><ele>1043.0</ele><time>2026-05-03T10:21:43.398Z</time></trkpt><trkpt lat="41.8083077" lon="13.3093174"><ele>1043.0</ele><time>2026-05-03T10:21:44.392Z</time></trkpt><trkpt lat="41.808365" lon="13.3091805"><ele>1043.0</ele><time>2026-05-03T10:21:45.39Z</time></trkpt><trkpt lat="41.808495" lon="13.3091094"><ele>1043.0</ele><time>2026-05-03T10:21:46.387Z</time></trkpt><trkpt lat="41.8086021" lon="13.3090525"><ele>1043.0</ele><time>2026-05-03T10:21:47.386Z</time></trkpt><trkpt lat="41.8086891" lon="13.3089618"><ele>1044.75</ele><time>2026-05-03T10:21:48.386Z</time></trkpt><trkpt lat="41.8087578" lon="13.308839"><ele>1046.5</ele><time>2026-05-03T10:21:49.387Z</time></trkpt><trkpt lat="41.8088246" lon="13.3086765"><ele>1048.25</ele><time>2026-05-03T10:21:50.383Z</time></trkpt><trkpt lat="41.808887" lon="13.3085122"><ele>1050.0</ele><time>2026-05-03T10:21:51.386Z</time></trkpt><trkpt lat="41.8089447" lon="13.3083593"><ele>1050.0</ele><time>2026-05-03T10:21:52.387Z</time></trkpt><trkpt lat="41.8090252" lon="13.3082376"><ele>1050.0</ele><time>2026-05-03T10:21:53.388Z</time></trkpt><trkpt lat="41.8091341" lon="13.3081304"><ele>1050.0</ele><time>2026-05-03T10:21:54.391Z</time></trkpt><trkpt lat="41.8092427" lon="13.3080337"><ele>1050.0</ele><time>2026-05-03T10:21:55.391Z</time></trkpt><trkpt lat="41.8093353" lon="13.3079198"><ele>1051.0</ele><time>2026-05-03T10:21:56.391Z</time></trkpt><trkpt lat="41.8094117" lon="13.3077994"><ele>1052.0</ele><time>2026-05-03T10:21:57.399Z</time></trkpt><trkpt lat="41.8094692" lon="13.3076545"><ele>1053.0</ele><time>2026-05-03T10:21:58.39Z</time></trkpt><trkpt lat="41.8095062" lon="13.3074831"><ele>1054.0</ele><time>2026-05-03T10:21:59.399Z</time></trkpt><trkpt lat="41.8095428" lon="13.3072924"><ele>1049.6666666666665</ele><time>2026-05-03T10:22:00.391Z</time></trkpt><trkpt lat="41.8096007" lon="13.3070935"><ele>1045.3333333333333</ele><time>2026-05-03T10:22:01.39Z</time></trkpt><trkpt lat="41.8096806" lon="13.3068936"><ele>1041.0</ele><time>2026-05-03T10:22:02.391Z</time></trkpt><trkpt lat="41.8097606" lon="13.3067082"><ele>1041.0</ele><time>2026-05-03T10:22:03.394Z</time></trkpt><trkpt lat="41.809836" lon="13.3065415"><ele>1041.0</ele><time>2026-05-03T10:22:04.394Z</time></trkpt><trkpt lat="41.8098931" lon="13.306377"><ele>1041.0</ele><time>2026-05-03T10:22:05.391Z</time></trkpt><trkpt lat="41.8099178" lon="13.3062172"><ele>1041.0</ele><time>2026-05-03T10:22:06.389Z</time></trkpt><trkpt lat="41.8099109" lon="13.3060375"><ele>1037.6666666666667</ele><time>2026-05-03T10:22:07.392Z</time></trkpt><trkpt lat="41.8098955" lon="13.3058546"><ele>1034.3333333333335</ele><time>2026-05-03T10:22:08.398Z</time></trkpt><trkpt lat="41.8098942" lon="13.3056441"><ele>1031.0</ele><time>2026-05-03T10:22:09.387Z</time></trkpt><trkpt lat="41.8099124" lon="13.305432"><ele>1028.3333333333335</ele><time>2026-05-03T10:22:10.389Z</time></trkpt><trkpt lat="41.8099319" lon="13.3052158"><ele>1025.6666666666667</ele><time>2026-05-03T10:22:11.389Z</time></trkpt><trkpt lat="41.8099565" lon="13.305"><ele>1023.0</ele><time>2026-05-03T10:22:12.393Z</time></trkpt><trkpt lat="41.8099772" lon="13.3048079"><ele>1023.75</ele><time>2026-05-03T10:22:13.39Z</time></trkpt><trkpt lat="41.8100003" lon="13.304635"><ele>1024.5</ele><time>2026-05-03T10:22:14.399Z</time></trkpt><trkpt lat="41.8100359" lon="13.3044992"><ele>1025.25</ele><time>2026-05-03T10:22:15.39Z</time></trkpt><trkpt lat="41.8100976" lon="13.3043659"><ele>1026.0</ele><time>2026-05-03T10:22:16.393Z</time></trkpt><trkpt lat="41.8101843" lon="13.3042538"><ele>1026.0</ele><time>2026-05-03T10:22:17.389Z</time></trkpt><trkpt lat="41.8103008" lon="13.3041523"><ele>1026.0</ele><time>2026-05-03T10:22:18.397Z</time></trkpt><trkpt lat="41.8104297" lon="13.3040754"><ele>1026.0</ele><time>2026-05-03T10:22:19.389Z</time></trkpt><trkpt lat="41.8105459" lon="13.3040037"><ele>1026.0</ele><time>2026-05-03T10:22:20.389Z</time></trkpt><trkpt lat="41.8106545" lon="13.3039222"><ele>1023.25</ele><time>2026-05-03T10:22:21.395Z</time></trkpt><trkpt lat="41.8107459" lon="13.3038331"><ele>1020.5</ele><time>2026-05-03T10:22:22.387Z</time></trkpt><trkpt lat="41.8108081" lon="13.3037228"><ele>1017.75</ele><time>2026-05-03T10:22:23.389Z</time></trkpt><trkpt lat="41.8108463" lon="13.3035836"><ele>1015.0</ele><time>2026-05-03T10:22:24.391Z</time></trkpt><trkpt lat="41.8108637" lon="13.3034064"><ele>1015.0</ele><time>2026-05-03T10:22:25.394Z</time></trkpt><trkpt lat="41.8108637" lon="13.3032208"><ele>1015.0</ele><time>2026-05-03T10:22:26.389Z</time></trkpt><trkpt lat="41.8108642" lon="13.303044"><ele>1015.0</ele><time>2026-05-03T10:22:27.391Z</time></trkpt><trkpt lat="41.8108629" lon="13.3028765"><ele>1015.0</ele><time>2026-05-03T10:22:28.393Z</time></trkpt><trkpt lat="41.8108726" lon="13.3027289"><ele>1012.5</ele><time>2026-05-03T10:22:29.394Z</time></trkpt><trkpt lat="41.8109042" lon="13.3026048"><ele>1010.0</ele><time>2026-05-03T10:22:30.385Z</time></trkpt><trkpt lat="41.8109683" lon="13.3024789"><ele>1007.5</ele><time>2026-05-03T10:22:31.4Z</time></trkpt><trkpt lat="41.8110584" lon="13.3023768"><ele>1005.0</ele><time>2026-05-03T10:22:32.391Z</time></trkpt><trkpt lat="41.8111576" lon="13.3022845"><ele>1002.75</ele><time>2026-05-03T10:22:33.391Z</time></trkpt><trkpt lat="41.811258" lon="13.302212"><ele>1000.5</ele><time>2026-05-03T10:22:34.394Z</time></trkpt><trkpt lat="41.8113711" lon="13.302166"><ele>998.25</ele><time>2026-05-03T10:22:35.393Z</time></trkpt><trkpt lat="41.8114912" lon="13.3021504"><ele>996.0</ele><time>2026-05-03T10:22:36.398Z</time></trkpt><trkpt lat="41.811611" lon="13.3021725"><ele>996.0</ele><time>2026-05-03T10:22:37.391Z</time></trkpt><trkpt lat="41.8117175" lon="13.3022318"><ele>996.0</ele><time>2026-05-03T10:22:38.392Z</time></trkpt><trkpt lat="41.811804" lon="13.3023245"><ele>996.0</ele><time>2026-05-03T10:22:39.392Z</time></trkpt><trkpt lat="41.8118764" lon="13.3024527"><ele>996.0</ele><time>2026-05-03T10:22:40.389Z</time></trkpt><trkpt lat="41.811931" lon="13.3025892"><ele>995.8</ele><time>2026-05-03T10:22:41.389Z</time></trkpt><trkpt lat="41.8119865" lon="13.3027161"><ele>995.5999999999999</ele><time>2026-05-03T10:22:42.389Z</time></trkpt><trkpt lat="41.8120579" lon="13.3028149"><ele>995.4</ele><time>2026-05-03T10:22:43.39Z</time></trkpt><trkpt lat="41.8121561" lon="13.3028846"><ele>995.2</ele><time>2026-05-03T10:22:44.388Z</time></trkpt><trkpt lat="41.8122607" lon="13.3029177"><ele>995.0</ele><time>2026-05-03T10:22:45.387Z</time></trkpt><trkpt lat="41.8123632" lon="13.3029274"><ele>995.0000000000001</ele><time>2026-05-03T10:22:46.39Z</time></trkpt><trkpt lat="41.8124506" lon="13.3029044"><ele>995.0</ele><time>2026-05-03T10:22:47.39Z</time></trkpt><trkpt lat="41.8125192" lon="13.3028491"><ele>995.0</ele><time>2026-05-03T10:22:48.389Z</time></trkpt><trkpt lat="41.8125671" lon="13.302759"><ele>995.0</ele><time>2026-05-03T10:22:49.39Z</time></trkpt><trkpt lat="41.8125888" lon="13.3026524"><ele>995.0000000000001</ele><time>2026-05-03T10:22:50.389Z</time></trkpt><trkpt lat="41.8125907" lon="13.3025164"><ele>995.0</ele><time>2026-05-03T10:22:51.397Z</time></trkpt><trkpt lat="41.812611" lon="13.3023653"><ele>992.0</ele><time>2026-05-03T10:22:52.397Z</time></trkpt><trkpt lat="41.8126568" lon="13.3022122"><ele>989.0</ele><time>2026-05-03T10:22:53.39Z</time></trkpt><trkpt lat="41.8127261" lon="13.3020829"><ele>986.0</ele><time>2026-05-03T10:22:54.389Z</time></trkpt><trkpt lat="41.8128009" lon="13.3019521"><ele>983.0</ele><time>2026-05-03T10:22:55.387Z</time></trkpt><trkpt lat="41.8128982" lon="13.3018544"><ele>983.0</ele><time>2026-05-03T10:22:56.39Z</time></trkpt><trkpt lat="41.8130467" lon="13.3018525"><ele>983.0</ele><time>2026-05-03T10:22:57.389Z</time></trkpt><trkpt lat="41.8131644" lon="13.3017914"><ele>983.0</ele><time>2026-05-03T10:22:58.389Z</time></trkpt><trkpt lat="41.813255" lon="13.3016972"><ele>983.0</ele><time>2026-05-03T10:22:59.397Z</time></trkpt><trkpt lat="41.8133249" lon="13.301579"><ele>983.0</ele><time>2026-05-03T10:23:00.39Z</time></trkpt><trkpt lat="41.8133981" lon="13.3014769"><ele>983.0</ele><time>2026-05-03T10:23:01.387Z</time></trkpt><trkpt lat="41.8134921" lon="13.3013978"><ele>983.0</ele><time>2026-05-03T10:23:02.393Z</time></trkpt><trkpt lat="41.8136015" lon="13.3013498"><ele>983.0</ele><time>2026-05-03T10:23:03.396Z</time></trkpt><trkpt lat="41.8137174" lon="13.3013458"><ele>983.0</ele><time>2026-05-03T10:23:04.399Z</time></trkpt><trkpt lat="41.8138268" lon="13.3013623"><ele>983.5999999999999</ele><time>2026-05-03T10:23:05.397Z</time></trkpt><trkpt lat="41.8139425" lon="13.3013878"><ele>984.1999999999999</ele><time>2026-05-03T10:23:06.395Z</time></trkpt><trkpt lat="41.8140471" lon="13.3013774"><ele>984.8</ele><time>2026-05-03T10:23:07.399Z</time></trkpt><trkpt lat="41.8141538" lon="13.3013452"><ele>985.4</ele><time>2026-05-03T10:23:08.388Z</time></trkpt><trkpt lat="41.8142496" lon="13.3012781"><ele>986.0</ele><time>2026-05-03T10:23:09.387Z</time></trkpt><trkpt lat="41.8143339" lon="13.3011835"><ele>986.0</ele><time>2026-05-03T10:23:10.391Z</time></trkpt><trkpt lat="41.8144052" lon="13.3010554"><ele>986.0</ele><time>2026-05-03T10:23:11.391Z</time></trkpt><trkpt lat="41.8144496" lon="13.3009051"><ele>986.0</ele><time>2026-05-03T10:23:12.389Z</time></trkpt><trkpt lat="41.8144823" lon="13.3007529"><ele>986.0</ele><time>2026-05-03T10:23:13.398Z</time></trkpt><trkpt lat="41.8144934" lon="13.300614"><ele>983.0</ele><time>2026-05-03T10:23:14.394Z</time></trkpt><trkpt lat="41.814491" lon="13.3004719"><ele>980.0</ele><time>2026-05-03T10:23:15.398Z</time></trkpt><trkpt lat="41.8144586" lon="13.3003279"><ele>977.0</ele><time>2026-05-03T10:23:16.399Z</time></trkpt><trkpt lat="41.8143938" lon="13.3001857"><ele>974.0</ele><time>2026-05-03T10:23:17.389Z</time></trkpt><trkpt lat="41.8143117" lon="13.3000347"><ele>971.25</ele><time>2026-05-03T10:23:18.387Z</time></trkpt><trkpt lat="41.8142256" lon="13.299863"><ele>968.5</ele><time>2026-05-03T10:23:19.386Z</time></trkpt><trkpt lat="41.8141509" lon="13.2996937"><ele>965.75</ele><time>2026-05-03T10:23:20.389Z</time></trkpt><trkpt lat="41.8140867" lon="13.2995288"><ele>963.0</ele><time>2026-05-03T10:23:21.389Z</time></trkpt><trkpt lat="41.8140283" lon="13.2993674"><ele>960.5</ele><time>2026-05-03T10:23:22.398Z</time></trkpt><trkpt lat="41.8139682" lon="13.2992157"><ele>958.0</ele><time>2026-05-03T10:23:23.389Z</time></trkpt><trkpt lat="41.8139078" lon="13.2990666"><ele>955.5</ele><time>2026-05-03T10:23:24.386Z</time></trkpt><trkpt lat="41.8138377" lon="13.2989455"><ele>953.0</ele><time>2026-05-03T10:23:25.389Z</time></trkpt><trkpt lat="41.8137613" lon="13.2988516"><ele>952.4</ele><time>2026-05-03T10:23:26.386Z</time></trkpt><trkpt lat="41.813679" lon="13.2987907"><ele>951.8</ele><time>2026-05-03T10:23:27.394Z</time></trkpt><trkpt lat="41.8135918" lon="13.2987678"><ele>951.2</ele><time>2026-05-03T10:23:28.399Z</time></trkpt><trkpt lat="41.8135031" lon="13.2987897"><ele>950.6</ele><time>2026-05-03T10:23:29.388Z</time></trkpt><trkpt lat="41.8134287" lon="13.2988606"><ele>950.0</ele><time>2026-05-03T10:23:30.391Z</time></trkpt><trkpt lat="41.813379" lon="13.298963"><ele>950.0</ele><time>2026-05-03T10:23:31.386Z</time></trkpt><trkpt lat="41.8133587" lon="13.2990902"><ele>950.0</ele><time>2026-05-03T10:23:32.389Z</time></trkpt><trkpt lat="41.8133659" lon="13.299243"><ele>950.0</ele><time>2026-05-03T10:23:33.397Z</time></trkpt><trkpt lat="41.8133856" lon="13.2993932"><ele>950.0</ele><time>2026-05-03T10:23:34.389Z</time></trkpt><trkpt lat="41.8133752" lon="13.2995388"><ele>950.0</ele><time>2026-05-03T10:23:35.392Z</time></trkpt><trkpt lat="41.8133487" lon="13.2996825"><ele>951.2</ele><time>2026-05-03T10:23:36.4Z</time></trkpt><trkpt lat="41.813302" lon="13.2998059"><ele>952.4</ele><time>2026-05-03T10:23:37.389Z</time></trkpt><trkpt lat="41.8132338" lon="13.2999053"><ele>953.5999999999999</ele><time>2026-05-03T10:23:38.392Z</time></trkpt><trkpt lat="41.8131456" lon="13.2999689"><ele>954.8</ele><time>2026-05-03T10:23:39.401Z</time></trkpt><trkpt lat="41.8130503" lon="13.299983"><ele>956.0</ele><time>2026-05-03T10:23:40.401Z</time></trkpt><trkpt lat="41.8129488" lon="13.2999635"><ele>956.0</ele><time>2026-05-03T10:23:41.39Z</time></trkpt><trkpt lat="41.8128453" lon="13.299898"><ele>956.0</ele><time>2026-05-03T10:23:42.39Z</time></trkpt><trkpt lat="41.8127451" lon="13.2997803"><ele>956.0</ele><time>2026-05-03T10:23:43.399Z</time></trkpt><trkpt lat="41.8126561" lon="13.2996439"><ele>956.0</ele><time>2026-05-03T10:23:44.389Z</time></trkpt><trkpt lat="41.8125612" lon="13.2994705"><ele>952.0</ele><time>2026-05-03T10:23:45.389Z</time></trkpt><trkpt lat="41.8124712" lon="13.2992806"><ele>948.0</ele><time>2026-05-03T10:23:46.39Z</time></trkpt><trkpt lat="41.8124034" lon="13.2990916"><ele>944.0</ele><time>2026-05-03T10:23:47.388Z</time></trkpt><trkpt lat="41.8123507" lon="13.2988941"><ele>941.0</ele><time>2026-05-03T10:23:48.399Z</time></trkpt><trkpt lat="41.8123179" lon="13.298712"><ele>938.0</ele><time>2026-05-03T10:23:49.389Z</time></trkpt><trkpt lat="41.8122838" lon="13.2985374"><ele>935.0</ele><time>2026-05-03T10:23:50.389Z</time></trkpt><trkpt lat="41.8122508" lon="13.2983785"><ele>932.0</ele><time>2026-05-03T10:23:51.399Z</time></trkpt><trkpt lat="41.8121992" lon="13.298232"><ele>932.0</ele><time>2026-05-03T10:23:52.391Z</time></trkpt><trkpt lat="41.8121226" lon="13.2980997"><ele>932.0</ele><time>2026-05-03T10:23:53.405Z</time></trkpt><trkpt lat="41.8120241" lon="13.2979984"><ele>932.0</ele><time>2026-05-03T10:23:54.393Z</time></trkpt><trkpt lat="41.811918" lon="13.2979088"><ele>932.0</ele><time>2026-05-03T10:23:55.387Z</time></trkpt><trkpt lat="41.8118203" lon="13.2977966"><ele>929.5</ele><time>2026-05-03T10:23:56.389Z</time></trkpt><trkpt lat="41.8117501" lon="13.2976666"><ele>927.0</ele><time>2026-05-03T10:23:57.389Z</time></trkpt><trkpt lat="41.8116918" lon="13.2975244"><ele>924.5</ele><time>2026-05-03T10:23:58.387Z</time></trkpt><trkpt lat="41.8116447" lon="13.2973797"><ele>922.0</ele><time>2026-05-03T10:23:59.389Z</time></trkpt><trkpt lat="41.8115921" lon="13.2972459"><ele>919.0</ele><time>2026-05-03T10:24:00.389Z</time></trkpt><trkpt lat="41.8115238" lon="13.2971396"><ele>916.0</ele><time>2026-05-03T10:24:01.391Z</time></trkpt><trkpt lat="41.8114309" lon="13.2970553"><ele>913.0</ele><time>2026-05-03T10:24:02.39Z</time></trkpt><trkpt lat="41.8113122" lon="13.2969994"><ele>910.0</ele><time>2026-05-03T10:24:03.391Z</time></trkpt><trkpt lat="41.8111713" lon="13.2969738"><ele>910.0</ele><time>2026-05-03T10:24:04.393Z</time></trkpt><trkpt lat="41.8110211" lon="13.2969663"><ele>910.0</ele><time>2026-05-03T10:24:05.391Z</time></trkpt><trkpt lat="41.8108848" lon="13.2969647"><ele>910.0</ele><time>2026-05-03T10:24:06.394Z</time></trkpt><trkpt lat="41.8107497" lon="13.2969707"><ele>910.0</ele><time>2026-05-03T10:24:07.393Z</time></trkpt><trkpt lat="41.8106234" lon="13.2969833"><ele>911.0</ele><time>2026-05-03T10:24:08.393Z</time></trkpt><trkpt lat="41.8105127" lon="13.2970191"><ele>912.0</ele><time>2026-05-03T10:24:09.39Z</time></trkpt><trkpt lat="41.8104122" lon="13.2970915"><ele>913.0</ele><time>2026-05-03T10:24:10.389Z</time></trkpt><trkpt lat="41.8103194" lon="13.2971972"><ele>914.0</ele><time>2026-05-03T10:24:11.389Z</time></trkpt><trkpt lat="41.8102432" lon="13.2973358"><ele>915.25</ele><time>2026-05-03T10:24:12.386Z</time></trkpt><trkpt lat="41.8101903" lon="13.2974839"><ele>916.5</ele><time>2026-05-03T10:24:13.389Z</time></trkpt><trkpt lat="41.8101405" lon="13.2976194"><ele>917.75</ele><time>2026-05-03T10:24:14.387Z</time></trkpt><trkpt lat="41.8100682" lon="13.2977407"><ele>919.0</ele><time>2026-05-03T10:24:15.389Z</time></trkpt><trkpt lat="41.8099726" lon="13.2978369"><ele>914.5</ele><time>2026-05-03T10:24:16.389Z</time></trkpt><trkpt lat="41.8098586" lon="13.2978926"><ele>910.0</ele><time>2026-05-03T10:24:17.391Z</time></trkpt><trkpt lat="41.8097306" lon="13.297913"><ele>905.5</ele><time>2026-05-03T10:24:18.392Z</time></trkpt><trkpt lat="41.8096085" lon="13.2979213"><ele>901.0</ele><time>2026-05-03T10:24:19.39Z</time></trkpt><trkpt lat="41.8094889" lon="13.2979608"><ele>901.0</ele><time>2026-05-03T10:24:20.393Z</time></trkpt><trkpt lat="41.8093541" lon="13.2980509"><ele>901.0</ele><time>2026-05-03T10:24:21.387Z</time></trkpt><trkpt lat="41.8092179" lon="13.2981625"><ele>901.0</ele><time>2026-05-03T10:24:22.392Z</time></trkpt><trkpt lat="41.8090939" lon="13.2982753"><ele>901.5</ele><time>2026-05-03T10:24:23.395Z</time></trkpt><trkpt lat="41.808983" lon="13.2983791"><ele>902.0</ele><time>2026-05-03T10:24:24.39Z</time></trkpt><trkpt lat="41.8088868" lon="13.298482"><ele>902.5</ele><time>2026-05-03T10:24:25.388Z</time></trkpt><trkpt lat="41.8088121" lon="13.2986008"><ele>903.0</ele><time>2026-05-03T10:24:26.398Z</time></trkpt><trkpt lat="41.8087627" lon="13.2987424"><ele>903.0</ele><time>2026-05-03T10:24:27.398Z</time></trkpt><trkpt lat="41.8087397" lon="13.2989054"><ele>903.0</ele><time>2026-05-03T10:24:28.399Z</time></trkpt><trkpt lat="41.8087381" lon="13.2990753"><ele>903.0</ele><time>2026-05-03T10:24:29.397Z</time></trkpt><trkpt lat="41.80873" lon="13.2992474"><ele>903.0</ele><time>2026-05-03T10:24:30.398Z</time></trkpt><trkpt lat="41.8087101" lon="13.2994127"><ele>902.2</ele><time>2026-05-03T10:24:31.402Z</time></trkpt><trkpt lat="41.8086716" lon="13.2995588"><ele>901.4</ele><time>2026-05-03T10:24:32.395Z</time></trkpt><trkpt lat="41.8086156" lon="13.2996822"><ele>900.6000000000001</ele><time>2026-05-03T10:24:33.399Z</time></trkpt><trkpt lat="41.8085403" lon="13.2997756"><ele>899.8000000000001</ele><time>2026-05-03T10:24:34.389Z</time></trkpt><trkpt lat="41.8084515" lon="13.299823"><ele>899.0</ele><time>2026-05-03T10:24:35.393Z</time></trkpt><trkpt lat="41.8083604" lon="13.2998164"><ele>899.0</ele><time>2026-05-03T10:24:36.385Z</time></trkpt><trkpt lat="41.8082549" lon="13.2997591"><ele>899.0</ele><time>2026-05-03T10:24:37.391Z</time></trkpt><trkpt lat="41.8081263" lon="13.2996958"><ele>899.0</ele><time>2026-05-03T10:24:38.395Z</time></trkpt><trkpt lat="41.8080013" lon="13.2996808"><ele>899.0</ele><time>2026-05-03T10:24:39.392Z</time></trkpt><trkpt lat="41.8078853" lon="13.2997043"><ele>899.0</ele><time>2026-05-03T10:24:40.398Z</time></trkpt><trkpt lat="41.8077762" lon="13.2997585"><ele>899.0</ele><time>2026-05-03T10:24:41.391Z</time></trkpt><trkpt lat="41.8076802" lon="13.2998526"><ele>899.0</ele><time>2026-05-03T10:24:42.396Z</time></trkpt><trkpt lat="41.8076048" lon="13.2999811"><ele>899.0</ele><time>2026-05-03T10:24:43.391Z</time></trkpt><trkpt lat="41.8075499" lon="13.300151"><ele>895.0</ele><time>2026-05-03T10:24:44.394Z</time></trkpt><trkpt lat="41.8075139" lon="13.3003423"><ele>891.0</ele><time>2026-05-03T10:24:45.389Z</time></trkpt><trkpt lat="41.8074902" lon="13.300533"><ele>887.0</ele><time>2026-05-03T10:24:46.39Z</time></trkpt><trkpt lat="41.8074612" lon="13.3007031"><ele>883.0</ele><time>2026-05-03T10:24:47.388Z</time></trkpt><trkpt lat="41.8074117" lon="13.3008597"><ele>883.0</ele><time>2026-05-03T10:24:48.39Z</time></trkpt><trkpt lat="41.8073304" lon="13.3010047"><ele>883.0</ele><time>2026-05-03T10:24:49.391Z</time></trkpt><trkpt lat="41.8072361" lon="13.3011428"><ele>883.0</ele><time>2026-05-03T10:24:50.391Z</time></trkpt><trkpt lat="41.8071523" lon="13.3012917"><ele>883.0</ele><time>2026-05-03T10:24:51.467Z</time></trkpt><trkpt lat="41.8070985" lon="13.3014533"><ele>886.0</ele><time>2026-05-03T10:24:52.398Z</time></trkpt><trkpt lat="41.8070633" lon="13.3016341"><ele>889.0</ele><time>2026-05-03T10:24:53.398Z</time></trkpt><trkpt lat="41.8070437" lon="13.301828"><ele>892.0</ele><time>2026-05-03T10:24:54.39Z</time></trkpt><trkpt lat="41.807032" lon="13.3020354"><ele>895.0</ele><time>2026-05-03T10:24:55.391Z</time></trkpt><trkpt lat="41.8070366" lon="13.3022676"><ele>895.0</ele><time>2026-05-03T10:24:56.388Z</time></trkpt><trkpt lat="41.8070602" lon="13.3025284"><ele>895.0</ele><time>2026-05-03T10:24:57.391Z</time></trkpt><trkpt lat="41.8070955" lon="13.302819"><ele>895.0</ele><time>2026-05-03T10:24:58.388Z</time></trkpt><trkpt lat="41.8071362" lon="13.3031532"><ele>891.5</ele><time>2026-05-03T10:24:59.39Z</time></trkpt><trkpt lat="41.8071748" lon="13.3034812"><ele>888.0</ele><time>2026-05-03T10:25:00.389Z</time></trkpt><trkpt lat="41.8072099" lon="13.3037753"><ele>885.0</ele><time>2026-05-03T10:25:01.392Z</time></trkpt><trkpt lat="41.8072412" lon="13.3040463"><ele>882.0</ele><time>2026-05-03T10:25:02.384Z</time></trkpt><trkpt lat="41.8072659" lon="13.3042964"><ele>879.0</ele><time>2026-05-03T10:25:03.391Z</time></trkpt><trkpt lat="41.8072778" lon="13.304522"><ele>879.0</ele><time>2026-05-03T10:25:04.39Z</time></trkpt><trkpt lat="41.8072768" lon="13.3047198"><ele>879.0</ele><time>2026-05-03T10:25:05.39Z</time></trkpt><trkpt lat="41.8072554" lon="13.3048838"><ele>879.0</ele><time>2026-05-03T10:25:06.4Z</time></trkpt><trkpt lat="41.8072077" lon="13.3050216"><ele>879.0</ele><time>2026-05-03T10:25:07.4Z</time></trkpt><trkpt lat="41.8071316" lon="13.3051481"><ele>879.6666666666667</ele><time>2026-05-03T10:25:08.401Z</time></trkpt><trkpt lat="41.8070194" lon="13.3052567"><ele>880.3333333333334</ele><time>2026-05-03T10:25:09.389Z</time></trkpt><trkpt lat="41.8068799" lon="13.3053641"><ele>881.0</ele><time>2026-05-03T10:25:10.393Z</time></trkpt><trkpt lat="41.8067348" lon="13.3054624"><ele>877.0</ele><time>2026-05-03T10:25:11.389Z</time></trkpt><trkpt lat="41.8065934" lon="13.3055434"><ele>873.0</ele><time>2026-05-03T10:25:12.391Z</time></trkpt><trkpt lat="41.8064521" lon="13.3056219"><ele>869.0</ele><time>2026-05-03T10:25:13.392Z</time></trkpt><trkpt lat="41.8063236" lon="13.3057024"><ele>865.0</ele><time>2026-05-03T10:25:14.388Z</time></trkpt><trkpt lat="41.8062131" lon="13.3057979"><ele>865.0</ele><time>2026-05-03T10:25:15.393Z</time></trkpt><trkpt lat="41.8061135" lon="13.3059321"><ele>865.0</ele><time>2026-05-03T10:25:16.391Z</time></trkpt><trkpt lat="41.8060174" lon="13.3061136"><ele>865.0</ele><time>2026-05-03T10:25:17.388Z</time></trkpt><trkpt lat="41.8059154" lon="13.3063439"><ele>854.0</ele><time>2026-05-03T10:25:18.391Z</time></trkpt><trkpt lat="41.8057994" lon="13.3066322"><ele>843.0</ele><time>2026-05-03T10:25:19.389Z</time></trkpt><trkpt lat="41.8056748" lon="13.3069372"><ele>843.0</ele><time>2026-05-03T10:25:20.394Z</time></trkpt><trkpt lat="41.805552" lon="13.3072397"><ele>843.0</ele><time>2026-05-03T10:25:21.392Z</time></trkpt><trkpt lat="41.805437" lon="13.3075057"><ele>846.0</ele><time>2026-05-03T10:25:22.391Z</time></trkpt><trkpt lat="41.8053232" lon="13.3077563"><ele>849.0</ele><time>2026-05-03T10:25:23.397Z</time></trkpt><trkpt lat="41.8051935" lon="13.3079982"><ele>852.0</ele><time>2026-05-03T10:25:24.392Z</time></trkpt><trkpt lat="41.8050604" lon="13.3082365"><ele>846.0</ele><time>2026-05-03T10:25:25.393Z</time></trkpt><trkpt lat="41.8049379" lon="13.3084538"><ele>840.0</ele><time>2026-05-03T10:25:26.389Z</time></trkpt><trkpt lat="41.8048228" lon="13.3086562"><ele>834.0</ele><time>2026-05-03T10:25:27.392Z</time></trkpt><trkpt lat="41.8047116" lon="13.3088435"><ele>837.6666666666667</ele><time>2026-05-03T10:25:28.393Z</time></trkpt><trkpt lat="41.8046067" lon="13.3090222"><ele>841.3333333333334</ele><time>2026-05-03T10:25:29.392Z</time></trkpt><trkpt lat="41.8045101" lon="13.3091941"><ele>845.0</ele><time>2026-05-03T10:25:30.393Z</time></trkpt><trkpt lat="41.8044186" lon="13.3093529"><ele>840.25</ele><time>2026-05-03T10:25:31.398Z</time></trkpt><trkpt lat="41.8043295" lon="13.3094982"><ele>835.5</ele><time>2026-05-03T10:25:32.389Z</time></trkpt><trkpt lat="41.8042493" lon="13.3096368"><ele>830.75</ele><time>2026-05-03T10:25:33.393Z</time></trkpt><trkpt lat="41.8041771" lon="13.3097606"><ele>826.0</ele><time>2026-05-03T10:25:34.394Z</time></trkpt><trkpt lat="41.8041108" lon="13.3098783"><ele>826.0</ele><time>2026-05-03T10:25:35.397Z</time></trkpt><trkpt lat="41.8040515" lon="13.3100093"><ele>826.0</ele><time>2026-05-03T10:25:36.391Z</time></trkpt><trkpt lat="41.804013" lon="13.3101484"><ele>826.0</ele><time>2026-05-03T10:25:37.387Z</time></trkpt><trkpt lat="41.8039963" lon="13.3102994"><ele>826.0</ele><time>2026-05-03T10:25:38.388Z</time></trkpt><trkpt lat="41.8039942" lon="13.3104401"><ele>826.0</ele><time>2026-05-03T10:25:39.389Z</time></trkpt><trkpt lat="41.8039901" lon="13.3105756"><ele>827.1666666666666</ele><time>2026-05-03T10:25:40.391Z</time></trkpt><trkpt lat="41.8039788" lon="13.310708"><ele>828.3333333333333</ele><time>2026-05-03T10:25:41.389Z</time></trkpt><trkpt lat="41.803949" lon="13.3108222"><ele>829.5</ele><time>2026-05-03T10:25:42.387Z</time></trkpt><trkpt lat="41.8039005" lon="13.3109102"><ele>830.6666666666667</ele><time>2026-05-03T10:25:43.392Z</time></trkpt><trkpt lat="41.8038378" lon="13.3109643"><ele>831.8333333333334</ele><time>2026-05-03T10:25:44.386Z</time></trkpt><trkpt lat="41.8037684" lon="13.3109832"><ele>833.0</ele><time>2026-05-03T10:25:45.387Z</time></trkpt><trkpt lat="41.8037001" lon="13.3109693"><ele>833.0</ele><time>2026-05-03T10:25:46.391Z</time></trkpt><trkpt lat="41.8036378" lon="13.3109247"><ele>833.0</ele><time>2026-05-03T10:25:47.391Z</time></trkpt><trkpt lat="41.8035875" lon="13.3108371"><ele>833.0</ele><time>2026-05-03T10:25:48.398Z</time></trkpt><trkpt lat="41.8035702" lon="13.3107207"><ele>833.0</ele><time>2026-05-03T10:25:49.399Z</time></trkpt><trkpt lat="41.8035807" lon="13.3105886"><ele>833.0</ele><time>2026-05-03T10:25:50.389Z</time></trkpt><trkpt lat="41.8036186" lon="13.3104231"><ele>830.6666666666667</ele><time>2026-05-03T10:25:51.4Z</time></trkpt><trkpt lat="41.803674" lon="13.3102346"><ele>828.3333333333333</ele><time>2026-05-03T10:25:52.392Z</time></trkpt><trkpt lat="41.8037605" lon="13.3100141"><ele>826.0</ele><time>2026-05-03T10:25:53.391Z</time></trkpt><trkpt lat="41.8038638" lon="13.3097826"><ele>821.6666666666666</ele><time>2026-05-03T10:25:54.399Z</time></trkpt><trkpt lat="41.8039562" lon="13.3095795"><ele>817.3333333333333</ele><time>2026-05-03T10:25:55.394Z</time></trkpt><trkpt lat="41.8040451" lon="13.3093664"><ele>813.0</ele><time>2026-05-03T10:25:56.402Z</time></trkpt><trkpt lat="41.8041281" lon="13.3091568"><ele>813.0</ele><time>2026-05-03T10:25:57.401Z</time></trkpt><trkpt lat="41.8041977" lon="13.3089531"><ele>813.0</ele><time>2026-05-03T10:25:58.403Z</time></trkpt><trkpt lat="41.8042526" lon="13.3087631"><ele>813.0</ele><time>2026-05-03T10:25:59.395Z</time></trkpt><trkpt lat="41.8042921" lon="13.3085604"><ele>816.0</ele><time>2026-05-03T10:26:00.393Z</time></trkpt><trkpt lat="41.8043163" lon="13.3083381"><ele>819.0</ele><time>2026-05-03T10:26:01.392Z</time></trkpt><trkpt lat="41.8043385" lon="13.3081073"><ele>822.0</ele><time>2026-05-03T10:26:02.398Z</time></trkpt><trkpt lat="41.804366" lon="13.307879"><ele>822.0</ele><time>2026-05-03T10:26:03.394Z</time></trkpt><trkpt lat="41.8043959" lon="13.3076583"><ele>822.0</ele><time>2026-05-03T10:26:04.398Z</time></trkpt><trkpt lat="41.8044354" lon="13.3074549"><ele>822.0</ele><time>2026-05-03T10:26:05.392Z</time></trkpt><trkpt lat="41.8044801" lon="13.3072683"><ele>818.75</ele><time>2026-05-03T10:26:06.384Z</time></trkpt><trkpt lat="41.8045263" lon="13.3070911"><ele>815.5</ele><time>2026-05-03T10:26:07.393Z</time></trkpt><trkpt lat="41.804583" lon="13.3069146"><ele>812.25</ele><time>2026-05-03T10:26:08.391Z</time></trkpt><trkpt lat="41.804658" lon="13.3067419"><ele>809.0</ele><time>2026-05-03T10:26:09.39Z</time></trkpt><trkpt lat="41.8047501" lon="13.3065754"><ele>803.6666666666667</ele><time>2026-05-03T10:26:10.388Z</time></trkpt><trkpt lat="41.8048493" lon="13.3064077"><ele>798.3333333333333</ele><time>2026-05-03T10:26:11.392Z</time></trkpt><trkpt lat="41.8049333" lon="13.3062185"><ele>793.0</ele><time>2026-05-03T10:26:12.389Z</time></trkpt><trkpt lat="41.8050043" lon="13.3060129"><ele>793.0</ele><time>2026-05-03T10:26:13.397Z</time></trkpt><trkpt lat="41.805063" lon="13.3058179"><ele>793.0</ele><time>2026-05-03T10:26:14.385Z</time></trkpt><trkpt lat="41.8051071" lon="13.3056271"><ele>793.0</ele><time>2026-05-03T10:26:15.392Z</time></trkpt><trkpt lat="41.8051455" lon="13.3054437"><ele>793.0</ele><time>2026-05-03T10:26:16.391Z</time></trkpt><trkpt lat="41.8051776" lon="13.305274"><ele>797.75</ele><time>2026-05-03T10:26:17.391Z</time></trkpt><trkpt lat="41.8052299" lon="13.3051242"><ele>802.5</ele><time>2026-05-03T10:26:18.388Z</time></trkpt><trkpt lat="41.8053036" lon="13.3049984"><ele>807.25</ele><time>2026-05-03T10:26:19.391Z</time></trkpt><trkpt lat="41.8053945" lon="13.3048845"><ele>812.0</ele><time>2026-05-03T10:26:20.392Z</time></trkpt><trkpt lat="41.8055142" lon="13.3047974"><ele>804.5</ele><time>2026-05-03T10:26:21.391Z</time></trkpt><trkpt lat="41.8056363" lon="13.3047402"><ele>797.0</ele><time>2026-05-03T10:26:22.391Z</time></trkpt><trkpt lat="41.8057535" lon="13.3046866"><ele>789.5</ele><time>2026-05-03T10:26:23.389Z</time></trkpt><trkpt lat="41.8058543" lon="13.3046202"><ele>782.0</ele><time>2026-05-03T10:26:24.399Z</time></trkpt><trkpt lat="41.8059401" lon="13.3045414"><ele>793.75</ele><time>2026-05-03T10:26:25.39Z</time></trkpt><trkpt lat="41.8060051" lon="13.3044415"><ele>805.5</ele><time>2026-05-03T10:26:26.391Z</time></trkpt><trkpt lat="41.8060421" lon="13.3043114"><ele>817.25</ele><time>2026-05-03T10:26:27.395Z</time></trkpt><trkpt lat="41.806052" lon="13.3041533"><ele>829.0</ele><time>2026-05-03T10:26:28.386Z</time></trkpt><trkpt lat="41.8060362" lon="13.3039681"><ele>831.6666666666666</ele><time>2026-05-03T10:26:29.388Z</time></trkpt><trkpt lat="41.8059983" lon="13.3037713"><ele>834.3333333333333</ele><time>2026-05-03T10:26:30.386Z</time></trkpt><trkpt lat="41.8059299" lon="13.3035363"><ele>837.0</ele><time>2026-05-03T10:26:31.389Z</time></trkpt><trkpt lat="41.8058929" lon="13.3032987"><ele>819.0</ele><time>2026-05-03T10:26:32.393Z</time></trkpt><trkpt lat="41.805836" lon="13.3030549"><ele>801.0</ele><time>2026-05-03T10:26:33.398Z</time></trkpt><trkpt lat="41.8057836" lon="13.3028391"><ele>783.0</ele><time>2026-05-03T10:26:34.39Z</time></trkpt><trkpt lat="41.8057455" lon="13.3026348"><ele>783.0</ele><time>2026-05-03T10:26:35.391Z</time></trkpt><trkpt lat="41.805718" lon="13.3024421"><ele>783.0</ele><time>2026-05-03T10:26:36.397Z</time></trkpt><trkpt lat="41.805696" lon="13.3022644"><ele>783.0</ele><time>2026-05-03T10:26:37.393Z</time></trkpt><trkpt lat="41.8057004" lon="13.302097"><ele>783.0</ele><time>2026-05-03T10:26:38.394Z</time></trkpt><trkpt lat="41.8057068" lon="13.3019596"><ele>782.4</ele><time>2026-05-03T10:26:39.393Z</time></trkpt><trkpt lat="41.8057035" lon="13.3018487"><ele>781.8</ele><time>2026-05-03T10:26:40.388Z</time></trkpt><trkpt lat="41.8056808" lon="13.3017673"><ele>781.2</ele><time>2026-05-03T10:26:41.4Z</time></trkpt><trkpt lat="41.8055779" lon="13.3017008"><ele>780.6</ele><time>2026-05-03T10:26:43.391Z</time></trkpt><trkpt lat="41.8054782" lon="13.301796"><ele>780.0</ele><time>2026-05-03T10:26:45.393Z</time></trkpt><trkpt lat="41.8054632" lon="13.301893"><ele>780.0</ele><time>2026-05-03T10:26:46.394Z</time></trkpt><trkpt lat="41.8054732" lon="13.3020294"><ele>780.0</ele><time>2026-05-03T10:26:47.39Z</time></trkpt><trkpt lat="41.8054959" lon="13.3022042"><ele>780.0</ele><time>2026-05-03T10:26:48.396Z</time></trkpt><trkpt lat="41.8055164" lon="13.302374"><ele>780.0</ele><time>2026-05-03T10:26:49.391Z</time></trkpt><trkpt lat="41.805543" lon="13.3027044"><ele>779.3333333333333</ele><time>2026-05-03T10:26:50.4Z</time></trkpt><trkpt lat="41.8055668" lon="13.3029436"><ele>778.6666666666666</ele><time>2026-05-03T10:26:51.493Z</time></trkpt><trkpt lat="41.8055891" lon="13.3031789"><ele>778.0</ele><time>2026-05-03T10:26:52.398Z</time></trkpt><trkpt lat="41.8056079" lon="13.3033881"><ele>778.0</ele><time>2026-05-03T10:26:53.399Z</time></trkpt><trkpt lat="41.8056123" lon="13.3035721"><ele>778.0</ele><time>2026-05-03T10:26:54.396Z</time></trkpt><trkpt lat="41.8055984" lon="13.303741"><ele>778.0</ele><time>2026-05-03T10:26:55.396Z</time></trkpt><trkpt lat="41.805564" lon="13.3038945"><ele>778.0</ele><time>2026-05-03T10:26:56.395Z</time></trkpt><trkpt lat="41.8055062" lon="13.3039874"><ele>779.0</ele><time>2026-05-03T10:26:57.395Z</time></trkpt><trkpt lat="41.8054278" lon="13.3040465"><ele>780.0</ele><time>2026-05-03T10:26:58.39Z</time></trkpt><trkpt lat="41.8053281" lon="13.3040764"><ele>781.0</ele><time>2026-05-03T10:26:59.388Z</time></trkpt><trkpt lat="41.8051917" lon="13.3040883"><ele>782.0</ele><time>2026-05-03T10:27:00.393Z</time></trkpt><trkpt lat="41.8050386" lon="13.3041274"><ele>770.3333333333334</ele><time>2026-05-03T10:27:01.388Z</time></trkpt><trkpt lat="41.8048923" lon="13.3041929"><ele>758.6666666666667</ele><time>2026-05-03T10:27:02.393Z</time></trkpt><trkpt lat="41.8047526" lon="13.3042861"><ele>747.0</ele><time>2026-05-03T10:27:03.395Z</time></trkpt><trkpt lat="41.8046111" lon="13.3044102"><ele>747.0</ele><time>2026-05-03T10:27:04.4Z</time></trkpt><trkpt lat="41.8044833" lon="13.3045405"><ele>747.0</ele><time>2026-05-03T10:27:05.4Z</time></trkpt><trkpt lat="41.804363" lon="13.3046649"><ele>747.0</ele><time>2026-05-03T10:27:06.393Z</time></trkpt><trkpt lat="41.8042681" lon="13.3047783"><ele>747.0</ele><time>2026-05-03T10:27:07.401Z</time></trkpt><trkpt lat="41.8041954" lon="13.3049025"><ele>743.5</ele><time>2026-05-03T10:27:08.405Z</time></trkpt><trkpt lat="41.8041467" lon="13.3050534"><ele>740.0</ele><time>2026-05-03T10:27:09.395Z</time></trkpt><trkpt lat="41.8041189" lon="13.3052292"><ele>736.5</ele><time>2026-05-03T10:27:10.395Z</time></trkpt><trkpt lat="41.8040965" lon="13.3053798"><ele>733.0</ele><time>2026-05-03T10:27:11.401Z</time></trkpt><trkpt lat="41.8040566" lon="13.3055138"><ele>737.5</ele><time>2026-05-03T10:27:12.391Z</time></trkpt><trkpt lat="41.8039915" lon="13.3056224"><ele>742.0</ele><time>2026-05-03T10:27:13.393Z</time></trkpt><trkpt lat="41.8038953" lon="13.305736"><ele>746.5</ele><time>2026-05-03T10:27:14.392Z</time></trkpt><trkpt lat="41.8037922" lon="13.3058642"><ele>751.0</ele><time>2026-05-03T10:27:15.39Z</time></trkpt><trkpt lat="41.8036972" lon="13.3060138"><ele>751.0</ele><time>2026-05-03T10:27:16.393Z</time></trkpt><trkpt lat="41.8036175" lon="13.30618"><ele>751.0</ele><time>2026-05-03T10:27:17.395Z</time></trkpt><trkpt lat="41.8035491" lon="13.3063516"><ele>751.0</ele><time>2026-05-03T10:27:18.395Z</time></trkpt><trkpt lat="41.8034839" lon="13.3065348"><ele>751.0</ele><time>2026-05-03T10:27:19.401Z</time></trkpt><trkpt lat="41.8034096" lon="13.3067224"><ele>747.3333333333334</ele><time>2026-05-03T10:27:20.393Z</time></trkpt><trkpt lat="41.8033209" lon="13.3069092"><ele>743.6666666666666</ele><time>2026-05-03T10:27:21.391Z</time></trkpt><trkpt lat="41.8032183" lon="13.307096"><ele>740.0</ele><time>2026-05-03T10:27:22.392Z</time></trkpt><trkpt lat="41.8031237" lon="13.3072795"><ele>740.0</ele><time>2026-05-03T10:27:23.391Z</time></trkpt><trkpt lat="41.8030399" lon="13.3074654"><ele>740.0</ele><time>2026-05-03T10:27:24.393Z</time></trkpt><trkpt lat="41.8029731" lon="13.307668"><ele>740.0</ele><time>2026-05-03T10:27:25.397Z</time></trkpt><trkpt lat="41.8029244" lon="13.3078811"><ele>743.3333333333333</ele><time>2026-05-03T10:27:26.392Z</time></trkpt><trkpt lat="41.8028866" lon="13.3080885"><ele>746.6666666666666</ele><time>2026-05-03T10:27:27.391Z</time></trkpt><trkpt lat="41.8028373" lon="13.3082776"><ele>750.0</ele><time>2026-05-03T10:27:28.399Z</time></trkpt><trkpt lat="41.802774" lon="13.3084542"><ele>750.0</ele><time>2026-05-03T10:27:29.393Z</time></trkpt><trkpt lat="41.8026889" lon="13.3086179"><ele>750.0</ele><time>2026-05-03T10:27:30.389Z</time></trkpt><trkpt lat="41.8025927" lon="13.3087747"><ele>750.0</ele><time>2026-05-03T10:27:31.4Z</time></trkpt><trkpt lat="41.8024887" lon="13.3089227"><ele>736.6666666666666</ele><time>2026-05-03T10:27:32.4Z</time></trkpt><trkpt lat="41.8023771" lon="13.3090888"><ele>723.3333333333333</ele><time>2026-05-03T10:27:33.398Z</time></trkpt><trkpt lat="41.8022663" lon="13.3092792"><ele>710.0</ele><time>2026-05-03T10:27:34.397Z</time></trkpt><trkpt lat="41.8021542" lon="13.3094939"><ele>710.0</ele><time>2026-05-03T10:27:35.396Z</time></trkpt><trkpt lat="41.8020424" lon="13.3097211"><ele>710.0</ele><time>2026-05-03T10:27:36.395Z</time></trkpt><trkpt lat="41.8019304" lon="13.3099242"><ele>710.0</ele><time>2026-05-03T10:27:37.399Z</time></trkpt><trkpt lat="41.801826" lon="13.3101165"><ele>706.6666666666666</ele><time>2026-05-03T10:27:38.403Z</time></trkpt><trkpt lat="41.8017291" lon="13.3103028"><ele>703.3333333333334</ele><time>2026-05-03T10:27:39.4Z</time></trkpt><trkpt lat="41.8016421" lon="13.3104763"><ele>700.0</ele><time>2026-05-03T10:27:40.401Z</time></trkpt><trkpt lat="41.8015565" lon="13.3106461"><ele>700.0</ele><time>2026-05-03T10:27:41.386Z</time></trkpt><trkpt lat="41.8014741" lon="13.3108026"><ele>700.0</ele><time>2026-05-03T10:27:42.396Z</time></trkpt><trkpt lat="41.8013963" lon="13.3109315"><ele>700.0</ele><time>2026-05-03T10:27:43.39Z</time></trkpt><trkpt lat="41.8013234" lon="13.3110404"><ele>700.0</ele><time>2026-05-03T10:27:44.401Z</time></trkpt><trkpt lat="41.801253" lon="13.3111427"><ele>700.0</ele><time>2026-05-03T10:27:45.392Z</time></trkpt><trkpt lat="41.8011879" lon="13.3112402"><ele>700.0</ele><time>2026-05-03T10:27:46.4Z</time></trkpt><trkpt lat="41.8011216" lon="13.3113337"><ele>700.0</ele><time>2026-05-03T10:27:47.4Z</time></trkpt><trkpt lat="41.8010558" lon="13.3114271"><ele>700.0</ele><time>2026-05-03T10:27:48.397Z</time></trkpt><trkpt lat="41.8009881" lon="13.3115257"><ele>700.0</ele><time>2026-05-03T10:27:49.391Z</time></trkpt><trkpt lat="41.8009168" lon="13.3116283"><ele>696.2</ele><time>2026-05-03T10:27:50.4Z</time></trkpt><trkpt lat="41.8008528" lon="13.311725"><ele>692.4</ele><time>2026-05-03T10:27:51.393Z</time></trkpt><trkpt lat="41.8007982" lon="13.3118337"><ele>688.5999999999999</ele><time>2026-05-03T10:27:52.401Z</time></trkpt><trkpt lat="41.8007553" lon="13.3119439"><ele>684.8</ele><time>2026-05-03T10:27:53.394Z</time></trkpt><trkpt lat="41.8007375" lon="13.3120658"><ele>681.0</ele><time>2026-05-03T10:27:54.399Z</time></trkpt><trkpt lat="41.8007388" lon="13.3122093"><ele>682.0</ele><time>2026-05-03T10:27:55.398Z</time></trkpt><trkpt lat="41.8007438" lon="13.3123625"><ele>683.0</ele><time>2026-05-03T10:27:56.4Z</time></trkpt><trkpt lat="41.8007436" lon="13.312518"><ele>684.0</ele><time>2026-05-03T10:27:57.4Z</time></trkpt><trkpt lat="41.8007382" lon="13.3126834"><ele>685.0</ele><time>2026-05-03T10:27:58.401Z</time></trkpt><trkpt lat="41.8007235" lon="13.3128396"><ele>685.0</ele><time>2026-05-03T10:27:59.396Z</time></trkpt><trkpt lat="41.8007015" lon="13.3129788"><ele>685.0</ele><time>2026-05-03T10:28:00.397Z</time></trkpt><trkpt lat="41.8006821" lon="13.3131165"><ele>685.0</ele><time>2026-05-03T10:28:01.4Z</time></trkpt><trkpt lat="41.8006734" lon="13.3132538"><ele>685.0</ele><time>2026-05-03T10:28:02.401Z</time></trkpt><trkpt lat="41.800686" lon="13.3133936"><ele>685.0</ele><time>2026-05-03T10:28:03.399Z</time></trkpt><trkpt lat="41.8007188" lon="13.3135308"><ele>684.0</ele><time>2026-05-03T10:28:04.398Z</time></trkpt><trkpt lat="41.8007708" lon="13.313667"><ele>683.0</ele><time>2026-05-03T10:28:05.399Z</time></trkpt><trkpt lat="41.800829" lon="13.3137916"><ele>682.0</ele><time>2026-05-03T10:28:06.388Z</time></trkpt><trkpt lat="41.8008838" lon="13.3139106"><ele>681.0</ele><time>2026-05-03T10:28:07.393Z</time></trkpt><trkpt lat="41.8009121" lon="13.3140365"><ele>680.0</ele><time>2026-05-03T10:28:08.394Z</time></trkpt><trkpt lat="41.8009266" lon="13.3141653"><ele>679.0</ele><time>2026-05-03T10:28:09.401Z</time></trkpt><trkpt lat="41.8009139" lon="13.3142805"><ele>678.0</ele><time>2026-05-03T10:28:10.391Z</time></trkpt><trkpt lat="41.800875" lon="13.3143886"><ele>677.0</ele><time>2026-05-03T10:28:11.401Z</time></trkpt><trkpt lat="41.8008159" lon="13.3144789"><ele>676.0</ele><time>2026-05-03T10:28:12.402Z</time></trkpt><trkpt lat="41.8007544" lon="13.3145318"><ele>675.0</ele><time>2026-05-03T10:28:13.393Z</time></trkpt><trkpt lat="41.8006351" lon="13.3145412"><ele>675.0</ele><time>2026-05-03T10:28:15.39Z</time></trkpt><trkpt lat="41.8005235" lon="13.3144056"><ele>675.0</ele><time>2026-05-03T10:28:17.393Z</time></trkpt><trkpt lat="41.8004669" lon="13.3142764"><ele>675.0</ele><time>2026-05-03T10:28:18.394Z</time></trkpt><trkpt lat="41.8004191" lon="13.3141249"><ele>675.0</ele><time>2026-05-03T10:28:19.39Z</time></trkpt><trkpt lat="41.8003734" lon="13.3139741"><ele>676.0</ele><time>2026-05-03T10:28:20.393Z</time></trkpt><trkpt lat="41.8003326" lon="13.3138316"><ele>677.0</ele><time>2026-05-03T10:28:21.401Z</time></trkpt><trkpt lat="41.8002978" lon="13.3136993"><ele>678.0</ele><time>2026-05-03T10:28:22.395Z</time></trkpt><trkpt lat="41.8002647" lon="13.3135689"><ele>679.0</ele><time>2026-05-03T10:28:23.39Z</time></trkpt><trkpt lat="41.8002231" lon="13.3134487"><ele>680.0</ele><time>2026-05-03T10:28:24.401Z</time></trkpt><trkpt lat="41.8001792" lon="13.3133371"><ele>675.8</ele><time>2026-05-03T10:28:25.398Z</time></trkpt><trkpt lat="41.8001351" lon="13.3132327"><ele>671.6</ele><time>2026-05-03T10:28:26.399Z</time></trkpt><trkpt lat="41.8000978" lon="13.3131514"><ele>667.4000000000001</ele><time>2026-05-03T10:28:27.401Z</time></trkpt><trkpt lat="41.8000428" lon="13.3130089"><ele>663.2</ele><time>2026-05-03T10:28:29.399Z</time></trkpt><trkpt lat="41.8000139" lon="13.3129033"><ele>659.0</ele><time>2026-05-03T10:28:31.394Z</time></trkpt><trkpt lat="41.7999246" lon="13.312824"><ele>659.0</ele><time>2026-05-03T10:28:48.393Z</time></trkpt><trkpt lat="41.7998439" lon="13.3127596"><ele>659.0</ele><time>2026-05-03T10:28:50.392Z</time></trkpt><trkpt lat="41.799768" lon="13.3126902"><ele>659.0</ele><time>2026-05-03T10:28:52.395Z</time></trkpt><trkpt lat="41.7996891" lon="13.3126333"><ele>659.0</ele><time>2026-05-03T10:28:54.394Z</time></trkpt><trkpt lat="41.799615" lon="13.312583"><ele>659.0</ele><time>2026-05-03T10:28:56.394Z</time></trkpt><trkpt lat="41.7995465" lon="13.3125399"><ele>659.0</ele><time>2026-05-03T10:28:58.398Z</time></trkpt><trkpt lat="41.7994882" lon="13.3125046"><ele>659.0</ele><time>2026-05-03T10:29:00.394Z</time></trkpt><trkpt lat="41.799404" lon="13.3125123"><ele>659.0</ele><time>2026-05-03T10:29:05.4Z</time></trkpt><trkpt lat="41.7993655" lon="13.3126258"><ele>659.0</ele><time>2026-05-03T10:29:07.403Z</time></trkpt><trkpt lat="41.7993731" lon="13.3127703"><ele>659.0</ele><time>2026-05-03T10:29:09.395Z</time></trkpt><trkpt lat="41.7994098" lon="13.3128495"><ele>659.0</ele><time>2026-05-03T10:29:10.396Z</time></trkpt><trkpt lat="41.7994615" lon="13.3129157"><ele>659.0</ele><time>2026-05-03T10:29:11.401Z</time></trkpt><trkpt lat="41.7995277" lon="13.3129856"><ele>659.0</ele><time>2026-05-03T10:29:12.393Z</time></trkpt><trkpt lat="41.7996014" lon="13.3130592"><ele>659.0</ele><time>2026-05-03T10:29:13.401Z</time></trkpt><trkpt lat="41.7996743" lon="13.3131406"><ele>659.0</ele><time>2026-05-03T10:29:14.395Z</time></trkpt><trkpt lat="41.7997347" lon="13.3132312"><ele>659.0</ele><time>2026-05-03T10:29:15.394Z</time></trkpt><trkpt lat="41.7997907" lon="13.3133323"><ele>659.0</ele><time>2026-05-03T10:29:16.393Z</time></trkpt><trkpt lat="41.7998361" lon="13.3134442"><ele>657.5</ele><time>2026-05-03T10:29:17.394Z</time></trkpt><trkpt lat="41.7998743" lon="13.3135635"><ele>656.0</ele><time>2026-05-03T10:29:18.393Z</time></trkpt><trkpt lat="41.7999051" lon="13.3136694"><ele>654.5</ele><time>2026-05-03T10:29:19.392Z</time></trkpt><trkpt lat="41.7999318" lon="13.3137725"><ele>653.0</ele><time>2026-05-03T10:29:20.39Z</time></trkpt><trkpt lat="41.7999592" lon="13.3138701"><ele>651.5</ele><time>2026-05-03T10:29:21.393Z</time></trkpt><trkpt lat="41.7999766" lon="13.3139609"><ele>650.0</ele><time>2026-05-03T10:29:22.4Z</time></trkpt><trkpt lat="41.7999309" lon="13.3140792"><ele>650.0</ele><time>2026-05-03T10:29:24.396Z</time></trkpt><trkpt lat="41.7998512" lon="13.3140485"><ele>650.0</ele><time>2026-05-03T10:29:26.392Z</time></trkpt><trkpt lat="41.7998066" lon="13.3138653"><ele>650.0</ele><time>2026-05-03T10:29:28.393Z</time></trkpt><trkpt lat="41.7997824" lon="13.3137354"><ele>650.0</ele><time>2026-05-03T10:29:29.398Z</time></trkpt><trkpt lat="41.7997682" lon="13.3136256"><ele>650.0</ele><time>2026-05-03T10:29:30.391Z</time></trkpt><trkpt lat="41.7997541" lon="13.3135244"><ele>650.0</ele><time>2026-05-03T10:29:31.4Z</time></trkpt><trkpt lat="41.7997281" lon="13.3134384"><ele>650.0</ele><time>2026-05-03T10:29:32.394Z</time></trkpt><trkpt lat="41.7997051" lon="13.3133583"><ele>650.0</ele><time>2026-05-03T10:29:33.396Z</time></trkpt><trkpt lat="41.7996337" lon="13.3133688"><ele>650.0</ele><time>2026-05-03T10:29:34.395Z</time></trkpt><trkpt lat="41.7995317" lon="13.3134202"><ele>650.0</ele><time>2026-05-03T10:29:36.399Z</time></trkpt><trkpt lat="41.7995018" lon="13.3135021"><ele>650.0</ele><time>2026-05-03T10:29:37.399Z</time></trkpt><trkpt lat="41.7994945" lon="13.3136187"><ele>650.0</ele><time>2026-05-03T10:29:38.394Z</time></trkpt><trkpt lat="41.799503" lon="13.3137497"><ele>650.0</ele><time>2026-05-03T10:29:39.4Z</time></trkpt><trkpt lat="41.7995099" lon="13.313885"><ele>650.0</ele><time>2026-05-03T10:29:40.391Z</time></trkpt><trkpt lat="41.7995192" lon="13.3140076"><ele>650.0</ele><time>2026-05-03T10:29:41.397Z</time></trkpt><trkpt lat="41.7995313" lon="13.3141271"><ele>650.0</ele><time>2026-05-03T10:29:42.393Z</time></trkpt><trkpt lat="41.7995426" lon="13.3142518"><ele>649.8</ele><time>2026-05-03T10:29:43.399Z</time></trkpt><trkpt lat="41.7995472" lon="13.3143635"><ele>649.6</ele><time>2026-05-03T10:29:44.402Z</time></trkpt><trkpt lat="41.7995572" lon="13.3144826"><ele>649.4000000000001</ele><time>2026-05-03T10:29:45.399Z</time></trkpt><trkpt lat="41.7995773" lon="13.3146093"><ele>649.2</ele><time>2026-05-03T10:29:46.399Z</time></trkpt><trkpt lat="41.7995966" lon="13.3147376"><ele>649.0</ele><time>2026-05-03T10:29:47.392Z</time></trkpt><trkpt lat="41.7996188" lon="13.3148685"><ele>647.75</ele><time>2026-05-03T10:29:48.391Z</time></trkpt><trkpt lat="41.7996504" lon="13.3149997"><ele>646.5</ele><time>2026-05-03T10:29:49.399Z</time></trkpt><trkpt lat="41.7997034" lon="13.3151361"><ele>645.25</ele><time>2026-05-03T10:29:50.387Z</time></trkpt><trkpt lat="41.7997719" lon="13.3152864"><ele>644.0</ele><time>2026-05-03T10:29:51.391Z</time></trkpt><trkpt lat="41.7998567" lon="13.315443"><ele>639.3333333333333</ele><time>2026-05-03T10:29:52.4Z</time></trkpt><trkpt lat="41.7999446" lon="13.3156149"><ele>634.6666666666666</ele><time>2026-05-03T10:29:53.393Z</time></trkpt><trkpt lat="41.8000386" lon="13.3157993"><ele>630.0</ele><time>2026-05-03T10:29:54.394Z</time></trkpt><trkpt lat="41.800129" lon="13.3159783"><ele>633.25</ele><time>2026-05-03T10:29:55.399Z</time></trkpt><trkpt lat="41.8002217" lon="13.3161485"><ele>636.5</ele><time>2026-05-03T10:29:56.398Z</time></trkpt><trkpt lat="41.800297" lon="13.3163004"><ele>639.75</ele><time>2026-05-03T10:29:57.393Z</time></trkpt><trkpt lat="41.8003667" lon="13.3164414"><ele>643.0</ele><time>2026-05-03T10:29:58.392Z</time></trkpt><trkpt lat="41.8004389" lon="13.3165764"><ele>643.0</ele><time>2026-05-03T10:29:59.4Z</time></trkpt><trkpt lat="41.8004973" lon="13.3166952"><ele>643.0</ele><time>2026-05-03T10:30:00.392Z</time></trkpt><trkpt lat="41.8005415" lon="13.3167864"><ele>643.0</ele><time>2026-05-03T10:30:01.399Z</time></trkpt><trkpt lat="41.8005579" lon="13.3168731"><ele>643.0</ele><time>2026-05-03T10:30:02.392Z</time></trkpt><trkpt lat="41.8005039" lon="13.3170016"><ele>643.0</ele><time>2026-05-03T10:30:04.393Z</time></trkpt><trkpt lat="41.800385" lon="13.3169729"><ele>643.0</ele><time>2026-05-03T10:30:06.39Z</time></trkpt><trkpt lat="41.8003101" lon="13.3168754"><ele>643.0</ele><time>2026-05-03T10:30:07.398Z</time></trkpt><trkpt lat="41.8002293" lon="13.3167655"><ele>643.0</ele><time>2026-05-03T10:30:08.392Z</time></trkpt><trkpt lat="41.8001486" lon="13.3165533"><ele>643.0</ele><time>2026-05-03T10:30:09.401Z</time></trkpt><trkpt lat="41.8000531" lon="13.3163735"><ele>639.75</ele><time>2026-05-03T10:30:10.393Z</time></trkpt><trkpt lat="41.7999722" lon="13.316218"><ele>636.5</ele><time>2026-05-03T10:30:11.393Z</time></trkpt><trkpt lat="41.7998895" lon="13.3160781"><ele>633.25</ele><time>2026-05-03T10:30:12.399Z</time></trkpt><trkpt lat="41.7997974" lon="13.3159611"><ele>630.0</ele><time>2026-05-03T10:30:13.395Z</time></trkpt><trkpt lat="41.7996832" lon="13.3158533"><ele>630.0</ele><time>2026-05-03T10:30:14.392Z</time></trkpt><trkpt lat="41.7995362" lon="13.3157596"><ele>630.0</ele><time>2026-05-03T10:30:15.399Z</time></trkpt><trkpt lat="41.7993733" lon="13.3156636"><ele>630.0</ele><time>2026-05-03T10:30:16.39Z</time></trkpt><trkpt lat="41.7992332" lon="13.3155666"><ele>627.25</ele><time>2026-05-03T10:30:17.396Z</time></trkpt><trkpt lat="41.7991152" lon="13.3154597"><ele>624.5</ele><time>2026-05-03T10:30:18.387Z</time></trkpt><trkpt lat="41.799017" lon="13.315343"><ele>621.75</ele><time>2026-05-03T10:30:19.398Z</time></trkpt><trkpt lat="41.7989168" lon="13.3151924"><ele>619.0</ele><time>2026-05-03T10:30:20.398Z</time></trkpt><trkpt lat="41.7988272" lon="13.3150402"><ele>619.0</ele><time>2026-05-03T10:30:21.391Z</time></trkpt><trkpt lat="41.7987477" lon="13.3148983"><ele>619.0</ele><time>2026-05-03T10:30:22.398Z</time></trkpt><trkpt lat="41.7986751" lon="13.3147688"><ele>619.0</ele><time>2026-05-03T10:30:23.394Z</time></trkpt><trkpt lat="41.7986119" lon="13.3146843"><ele>619.0</ele><time>2026-05-03T10:30:24.398Z</time></trkpt><trkpt lat="41.7985508" lon="13.3146289"><ele>619.0</ele><time>2026-05-03T10:30:25.395Z</time></trkpt><trkpt lat="41.7984832" lon="13.3146195"><ele>619.0</ele><time>2026-05-03T10:30:26.396Z</time></trkpt><trkpt lat="41.7984239" lon="13.3146563"><ele>619.0</ele><time>2026-05-03T10:30:27.397Z</time></trkpt><trkpt lat="41.7983921" lon="13.3148009"><ele>619.0</ele><time>2026-05-03T10:30:29.391Z</time></trkpt><trkpt lat="41.7984234" lon="13.3149252"><ele>619.0</ele><time>2026-05-03T10:30:30.393Z</time></trkpt><trkpt lat="41.7984799" lon="13.3150756"><ele>619.0</ele><time>2026-05-03T10:30:31.392Z</time></trkpt><trkpt lat="41.7985524" lon="13.315255"><ele>619.0</ele><time>2026-05-03T10:30:32.394Z</time></trkpt><trkpt lat="41.7986217" lon="13.3154399"><ele>619.0</ele><time>2026-05-03T10:30:33.402Z</time></trkpt><trkpt lat="41.7986902" lon="13.3156188"><ele>619.0</ele><time>2026-05-03T10:30:34.392Z</time></trkpt><trkpt lat="41.7987477" lon="13.3157935"><ele>619.0</ele><time>2026-05-03T10:30:35.398Z</time></trkpt><trkpt lat="41.7988005" lon="13.3159406"><ele>616.6666666666667</ele><time>2026-05-03T10:30:36.393Z</time></trkpt><trkpt lat="41.7988372" lon="13.3160541"><ele>614.3333333333334</ele><time>2026-05-03T10:30:37.392Z</time></trkpt><trkpt lat="41.7988486" lon="13.3161644"><ele>612.0</ele><time>2026-05-03T10:30:38.393Z</time></trkpt><trkpt lat="41.7988303" lon="13.3162605"><ele>609.6666666666666</ele><time>2026-05-03T10:30:39.395Z</time></trkpt><trkpt lat="41.7987784" lon="13.3163394"><ele>607.3333333333333</ele><time>2026-05-03T10:30:40.388Z</time></trkpt><trkpt lat="41.7987102" lon="13.3163758"><ele>605.0</ele><time>2026-05-03T10:30:41.394Z</time></trkpt><trkpt lat="41.7986309" lon="13.3163705"><ele>605.0</ele><time>2026-05-03T10:30:42.392Z</time></trkpt><trkpt lat="41.7985459" lon="13.3163267"><ele>605.0</ele><time>2026-05-03T10:30:43.392Z</time></trkpt><trkpt lat="41.7984625" lon="13.3162299"><ele>605.0</ele><time>2026-05-03T10:30:44.393Z</time></trkpt><trkpt lat="41.7983731" lon="13.3160917"><ele>605.0</ele><time>2026-05-03T10:30:45.399Z</time></trkpt><trkpt lat="41.7982715" lon="13.3159141"><ele>604.0</ele><time>2026-05-03T10:30:46.392Z</time></trkpt><trkpt lat="41.7981683" lon="13.3157245"><ele>603.0</ele><time>2026-05-03T10:30:47.401Z</time></trkpt><trkpt lat="41.7980727" lon="13.3155552"><ele>602.0</ele><time>2026-05-03T10:30:48.392Z</time></trkpt><trkpt lat="41.7979937" lon="13.3154002"><ele>602.0</ele><time>2026-05-03T10:30:49.387Z</time></trkpt><trkpt lat="41.7979187" lon="13.3152819"><ele>602.0</ele><time>2026-05-03T10:30:50.398Z</time></trkpt><trkpt lat="41.7978569" lon="13.3152338"><ele>602.0</ele><time>2026-05-03T10:30:51.51Z</time></trkpt><trkpt lat="41.7976976" lon="13.3152147"><ele>602.0</ele><time>2026-05-03T10:30:53.39Z</time></trkpt><trkpt lat="41.7975891" lon="13.3152703"><ele>598.0</ele><time>2026-05-03T10:30:54.401Z</time></trkpt><trkpt lat="41.7974521" lon="13.3153668"><ele>594.0</ele><time>2026-05-03T10:30:55.398Z</time></trkpt><trkpt lat="41.7973124" lon="13.3154712"><ele>590.0</ele><time>2026-05-03T10:30:56.399Z</time></trkpt><trkpt lat="41.7971806" lon="13.3155653"><ele>588.0</ele><time>2026-05-03T10:30:57.399Z</time></trkpt><trkpt lat="41.7970409" lon="13.3156376"><ele>586.0</ele><time>2026-05-03T10:30:58.4Z</time></trkpt><trkpt lat="41.7968981" lon="13.3156827"><ele>584.0</ele><time>2026-05-03T10:30:59.399Z</time></trkpt><trkpt lat="41.7967942" lon="13.3157185"><ele>582.0</ele><time>2026-05-03T10:31:00.399Z</time></trkpt><trkpt lat="41.7966829" lon="13.3157481"><ele>581.5</ele><time>2026-05-03T10:31:01.399Z</time></trkpt><trkpt lat="41.7966163" lon="13.3156179"><ele>581.0</ele><time>2026-05-03T10:31:02.399Z</time></trkpt><trkpt lat="41.7965314" lon="13.3155074"><ele>580.5</ele><time>2026-05-03T10:31:03.399Z</time></trkpt><trkpt lat="41.7964487" lon="13.3153374"><ele>580.0</ele><time>2026-05-03T10:31:04.396Z</time></trkpt><trkpt lat="41.7963606" lon="13.3151453"><ele>580.0</ele><time>2026-05-03T10:31:05.4Z</time></trkpt><trkpt lat="41.7962673" lon="13.3148941"><ele>580.0</ele><time>2026-05-03T10:31:06.4Z</time></trkpt><trkpt lat="41.7961896" lon="13.3146974"><ele>580.0</ele><time>2026-05-03T10:31:07.406Z</time></trkpt><trkpt lat="41.7961212" lon="13.3145075"><ele>580.0</ele><time>2026-05-03T10:31:08.395Z</time></trkpt><trkpt lat="41.7960657" lon="13.3143537"><ele>580.0</ele><time>2026-05-03T10:31:09.402Z</time></trkpt><trkpt lat="41.7960108" lon="13.3142228"><ele>580.0</ele><time>2026-05-03T10:31:10.394Z</time></trkpt><trkpt lat="41.7959477" lon="13.3141312"><ele>580.0</ele><time>2026-05-03T10:31:11.393Z</time></trkpt><trkpt lat="41.7958745" lon="13.3140801"><ele>580.0</ele><time>2026-05-03T10:31:12.393Z</time></trkpt><trkpt lat="41.7957873" lon="13.3140694"><ele>579.5</ele><time>2026-05-03T10:31:13.393Z</time></trkpt><trkpt lat="41.7956786" lon="13.3141061"><ele>579.0</ele><time>2026-05-03T10:31:14.403Z</time></trkpt><trkpt lat="41.7955518" lon="13.3141878"><ele>578.5</ele><time>2026-05-03T10:31:15.394Z</time></trkpt><trkpt lat="41.795406" lon="13.3143049"><ele>578.0</ele><time>2026-05-03T10:31:16.39Z</time></trkpt><trkpt lat="41.7952587" lon="13.3144369"><ele>576.0</ele><time>2026-05-03T10:31:17.401Z</time></trkpt><trkpt lat="41.7950302" lon="13.3146329"><ele>574.0</ele><time>2026-05-03T10:31:18.388Z</time></trkpt><trkpt lat="41.794812" lon="13.3148272"><ele>574.0</ele><time>2026-05-03T10:31:19.39Z</time></trkpt><trkpt lat="41.7945844" lon="13.3150296"><ele>574.0</ele><time>2026-05-03T10:31:20.395Z</time></trkpt><trkpt lat="41.7943572" lon="13.3152197"><ele>578.5</ele><time>2026-05-03T10:31:21.404Z</time></trkpt><trkpt lat="41.7941312" lon="13.3153935"><ele>583.0</ele><time>2026-05-03T10:31:22.397Z</time></trkpt><trkpt lat="41.793899" lon="13.315567"><ele>577.5</ele><time>2026-05-03T10:31:23.395Z</time></trkpt><trkpt lat="41.7936629" lon="13.3157329"><ele>572.0</ele><time>2026-05-03T10:31:24.395Z</time></trkpt><trkpt lat="41.7934324" lon="13.3158802"><ele>572.0</ele><time>2026-05-03T10:31:25.395Z</time></trkpt><trkpt lat="41.7932117" lon="13.3160102"><ele>572.0</ele><time>2026-05-03T10:31:26.405Z</time></trkpt><trkpt lat="41.793001" lon="13.3161279"><ele>572.0</ele><time>2026-05-03T10:31:27.395Z</time></trkpt><trkpt lat="41.7927945" lon="13.3162373"><ele>572.0</ele><time>2026-05-03T10:31:28.413Z</time></trkpt><trkpt lat="41.7925904" lon="13.3163415"><ele>572.0</ele><time>2026-05-03T10:31:29.391Z</time></trkpt><trkpt lat="41.792404" lon="13.3164409"><ele>566.0</ele><time>2026-05-03T10:31:30.392Z</time></trkpt><trkpt lat="41.7922263" lon="13.3165133"><ele>560.0</ele><time>2026-05-03T10:31:31.401Z</time></trkpt><trkpt lat="41.7920503" lon="13.3165681"><ele>554.0</ele><time>2026-05-03T10:31:32.391Z</time></trkpt><trkpt lat="41.7918743" lon="13.3165977"><ele>552.6666666666666</ele><time>2026-05-03T10:31:33.397Z</time></trkpt><trkpt lat="41.7917061" lon="13.316607"><ele>551.3333333333334</ele><time>2026-05-03T10:31:34.391Z</time></trkpt><trkpt lat="41.7915412" lon="13.3165778"><ele>550.0</ele><time>2026-05-03T10:31:35.389Z</time></trkpt><trkpt lat="41.7913671" lon="13.3165293"><ele>550.0</ele><time>2026-05-03T10:31:36.389Z</time></trkpt><trkpt lat="41.7911826" lon="13.3164444"><ele>550.0</ele><time>2026-05-03T10:31:37.393Z</time></trkpt><trkpt lat="41.7910206" lon="13.3163487"><ele>550.0</ele><time>2026-05-03T10:31:38.39Z</time></trkpt><trkpt lat="41.790875" lon="13.3162395"><ele>550.6666666666667</ele><time>2026-05-03T10:31:39.399Z</time></trkpt><trkpt lat="41.790746" lon="13.3161108"><ele>551.3333333333334</ele><time>2026-05-03T10:31:40.393Z</time></trkpt><trkpt lat="41.7906244" lon="13.3159537"><ele>552.0</ele><time>2026-05-03T10:31:41.399Z</time></trkpt><trkpt lat="41.7905222" lon="13.3157555"><ele>554.6666666666666</ele><time>2026-05-03T10:31:42.392Z</time></trkpt><trkpt lat="41.7904214" lon="13.3155205"><ele>557.3333333333333</ele><time>2026-05-03T10:31:43.391Z</time></trkpt><trkpt lat="41.790321" lon="13.3152594"><ele>560.0</ele><time>2026-05-03T10:31:44.395Z</time></trkpt><trkpt lat="41.7902235" lon="13.3149978"><ele>553.3333333333333</ele><time>2026-05-03T10:31:45.399Z</time></trkpt><trkpt lat="41.7901326" lon="13.3147534"><ele>546.6666666666666</ele><time>2026-05-03T10:31:46.391Z</time></trkpt><trkpt lat="41.7900575" lon="13.3145175"><ele>540.0</ele><time>2026-05-03T10:31:47.399Z</time></trkpt><trkpt lat="41.7899988" lon="13.3142658"><ele>540.0</ele><time>2026-05-03T10:31:48.397Z</time></trkpt><trkpt lat="41.7899518" lon="13.3139881"><ele>540.0</ele><time>2026-05-03T10:31:49.387Z</time></trkpt><trkpt lat="41.789912" lon="13.3136852"><ele>540.0</ele><time>2026-05-03T10:31:50.391Z</time></trkpt><trkpt lat="41.789871" lon="13.3133879"><ele>540.3333333333334</ele><time>2026-05-03T10:31:51.393Z</time></trkpt><trkpt lat="41.7898359" lon="13.3131178"><ele>540.6666666666667</ele><time>2026-05-03T10:31:52.393Z</time></trkpt><trkpt lat="41.7897975" lon="13.3128821"><ele>541.0</ele><time>2026-05-03T10:31:53.4Z</time></trkpt><trkpt lat="41.78974" lon="13.3126565"><ele>541.0</ele><time>2026-05-03T10:31:54.393Z</time></trkpt><trkpt lat="41.7896613" lon="13.3124643"><ele>541.0</ele><time>2026-05-03T10:31:55.401Z</time></trkpt><trkpt lat="41.7895662" lon="13.3122962"><ele>541.0</ele><time>2026-05-03T10:31:56.399Z</time></trkpt><trkpt lat="41.7894418" lon="13.3121497"><ele>538.0</ele><time>2026-05-03T10:31:57.393Z</time></trkpt><trkpt lat="41.7892972" lon="13.3120317"><ele>535.0</ele><time>2026-05-03T10:31:58.398Z</time></trkpt><trkpt lat="41.7891401" lon="13.3119498"><ele>532.0</ele><time>2026-05-03T10:31:59.391Z</time></trkpt><trkpt lat="41.7889755" lon="13.3119085"><ele>532.0</ele><time>2026-05-03T10:32:00.394Z</time></trkpt><trkpt lat="41.7888113" lon="13.3119013"><ele>532.0</ele><time>2026-05-03T10:32:01.392Z</time></trkpt><trkpt lat="41.7886425" lon="13.3119355"><ele>532.0</ele><time>2026-05-03T10:32:02.393Z</time></trkpt><trkpt lat="41.788487" lon="13.3120017"><ele>530.3333333333334</ele><time>2026-05-03T10:32:03.4Z</time></trkpt><trkpt lat="41.7883434" lon="13.3120916"><ele>528.6666666666666</ele><time>2026-05-03T10:32:04.391Z</time></trkpt><trkpt lat="41.7881952" lon="13.3122182"><ele>527.0</ele><time>2026-05-03T10:32:05.394Z</time></trkpt><trkpt lat="41.7880237" lon="13.3123785"><ele>526.0</ele><time>2026-05-03T10:32:06.392Z</time></trkpt><trkpt lat="41.7878265" lon="13.3125719"><ele>525.0</ele><time>2026-05-03T10:32:07.401Z</time></trkpt><trkpt lat="41.7875976" lon="13.3128016"><ele>524.0</ele><time>2026-05-03T10:32:08.399Z</time></trkpt><trkpt lat="41.7873489" lon="13.3130435"><ele>523.0</ele><time>2026-05-03T10:32:09.399Z</time></trkpt><trkpt lat="41.7870881" lon="13.3133003"><ele>520.5</ele><time>2026-05-03T10:32:10.401Z</time></trkpt><trkpt lat="41.7868418" lon="13.3135408"><ele>518.0</ele><time>2026-05-03T10:32:11.398Z</time></trkpt><trkpt lat="41.7866044" lon="13.3137818"><ele>516.0</ele><time>2026-05-03T10:32:12.388Z</time></trkpt><trkpt lat="41.7863666" lon="13.3140133"><ele>514.0</ele><time>2026-05-03T10:32:13.4Z</time></trkpt><trkpt lat="41.7861525" lon="13.3142206"><ele>515.5</ele><time>2026-05-03T10:32:14.397Z</time></trkpt><trkpt lat="41.7859551" lon="13.3143977"><ele>517.0</ele><time>2026-05-03T10:32:15.397Z</time></trkpt><trkpt lat="41.785766" lon="13.3145628"><ele>517.0</ele><time>2026-05-03T10:32:16.398Z</time></trkpt><trkpt lat="41.7855753" lon="13.3146915"><ele>517.0</ele><time>2026-05-03T10:32:17.398Z</time></trkpt><trkpt lat="41.7853878" lon="13.3147943"><ele>517.0</ele><time>2026-05-03T10:32:18.388Z</time></trkpt><trkpt lat="41.7851917" lon="13.3148702"><ele>514.0</ele><time>2026-05-03T10:32:19.393Z</time></trkpt><trkpt lat="41.7849816" lon="13.3149154"><ele>511.0</ele><time>2026-05-03T10:32:20.393Z</time></trkpt><trkpt lat="41.7847492" lon="13.3149331"><ele>508.0</ele><time>2026-05-03T10:32:21.398Z</time></trkpt><trkpt lat="41.7845039" lon="13.3149347"><ele>505.5</ele><time>2026-05-03T10:32:22.401Z</time></trkpt><trkpt lat="41.7842503" lon="13.314931"><ele>503.0</ele><time>2026-05-03T10:32:23.396Z</time></trkpt><trkpt lat="41.7840036" lon="13.3149338"><ele>503.0</ele><time>2026-05-03T10:32:24.392Z</time></trkpt><trkpt lat="41.7837572" lon="13.3149385"><ele>503.0</ele><time>2026-05-03T10:32:25.401Z</time></trkpt><trkpt lat="41.7835362" lon="13.3149389"><ele>502.3333333333333</ele><time>2026-05-03T10:32:26.399Z</time></trkpt><trkpt lat="41.7833169" lon="13.3149356"><ele>501.66666666666663</ele><time>2026-05-03T10:32:27.398Z</time></trkpt><trkpt lat="41.7831083" lon="13.3149359"><ele>501.0</ele><time>2026-05-03T10:32:28.401Z</time></trkpt><trkpt lat="41.7829052" lon="13.3149347"><ele>501.0</ele><time>2026-05-03T10:32:29.4Z</time></trkpt><trkpt lat="41.7827086" lon="13.3149385"><ele>501.0</ele><time>2026-05-03T10:32:30.397Z</time></trkpt><trkpt lat="41.7825177" lon="13.3149421"><ele>501.0</ele><time>2026-05-03T10:32:31.397Z</time></trkpt><trkpt lat="41.7823311" lon="13.3149385"><ele>500.33333333333337</ele><time>2026-05-03T10:32:32.387Z</time></trkpt><trkpt lat="41.7821447" lon="13.3149376"><ele>499.6666666666667</ele><time>2026-05-03T10:32:33.393Z</time></trkpt><trkpt lat="41.7819737" lon="13.3149397"><ele>499.0</ele><time>2026-05-03T10:32:34.392Z</time></trkpt><trkpt lat="41.7818011" lon="13.3149469"><ele>499.0</ele><time>2026-05-03T10:32:35.395Z</time></trkpt><trkpt lat="41.7816289" lon="13.3149694"><ele>499.0</ele><time>2026-05-03T10:32:36.398Z</time></trkpt><trkpt lat="41.7814657" lon="13.3150007"><ele>499.0</ele><time>2026-05-03T10:32:37.391Z</time></trkpt><trkpt lat="41.7813204" lon="13.3150518"><ele>499.0</ele><time>2026-05-03T10:32:38.402Z</time></trkpt><trkpt lat="41.7811801" lon="13.3151321"><ele>499.0</ele><time>2026-05-03T10:32:39.397Z</time></trkpt><trkpt lat="41.7810527" lon="13.3152243"><ele>499.0</ele><time>2026-05-03T10:32:40.391Z</time></trkpt><trkpt lat="41.7809355" lon="13.3153282"><ele>499.0</ele><time>2026-05-03T10:32:41.392Z</time></trkpt><trkpt lat="41.7808241" lon="13.3154493"><ele>497.5</ele><time>2026-05-03T10:32:42.392Z</time></trkpt><trkpt lat="41.7807253" lon="13.3155795"><ele>496.0</ele><time>2026-05-03T10:32:43.395Z</time></trkpt><trkpt lat="41.7806387" lon="13.3157105"><ele>494.5</ele><time>2026-05-03T10:32:44.399Z</time></trkpt><trkpt lat="41.7805572" lon="13.3158365"><ele>493.0</ele><time>2026-05-03T10:32:45.404Z</time></trkpt><trkpt lat="41.7804789" lon="13.3159534"><ele>493.0</ele><time>2026-05-03T10:32:46.389Z</time></trkpt><trkpt lat="41.7804056" lon="13.3160654"><ele>492.99999999999994</ele><time>2026-05-03T10:32:47.395Z</time></trkpt><trkpt lat="41.7803419" lon="13.3161697"><ele>492.99999999999994</ele><time>2026-05-03T10:32:48.395Z</time></trkpt><trkpt lat="41.7802862" lon="13.3162679"><ele>493.0</ele><time>2026-05-03T10:32:49.399Z</time></trkpt><trkpt lat="41.7802328" lon="13.3163557"><ele>493.0</ele><time>2026-05-03T10:32:50.39Z</time></trkpt><trkpt lat="41.7801901" lon="13.3164263"><ele>493.83333333333337</ele><time>2026-05-03T10:32:51.399Z</time></trkpt><trkpt lat="41.7801253" lon="13.3165264"><ele>494.6666666666667</ele><time>2026-05-03T10:32:53.398Z</time></trkpt><trkpt lat="41.7800742" lon="13.3165763"><ele>495.5</ele><time>2026-05-03T10:32:55.4Z</time></trkpt><trkpt lat="41.7800064" lon="13.3166318"><ele>496.33333333333337</ele><time>2026-05-03T10:32:59.394Z</time></trkpt><trkpt lat="41.7799504" lon="13.3167019"><ele>497.1666666666667</ele><time>2026-05-03T10:33:04.395Z</time></trkpt><trkpt lat="41.7799296" lon="13.3168465"><ele>498.0</ele><time>2026-05-03T10:33:07.391Z</time></trkpt><trkpt lat="41.7798792" lon="13.3169393"><ele>498.0</ele><time>2026-05-03T10:33:08.393Z</time></trkpt><trkpt lat="41.779803" lon="13.3170539"><ele>498.0</ele><time>2026-05-03T10:33:09.399Z</time></trkpt><trkpt lat="41.779714" lon="13.3171981"><ele>498.0</ele><time>2026-05-03T10:33:10.392Z</time></trkpt><trkpt lat="41.7796122" lon="13.3173652"><ele>498.0</ele><time>2026-05-03T10:33:11.391Z</time></trkpt><trkpt lat="41.7795039" lon="13.3175365"><ele>498.66666666666663</ele><time>2026-05-03T10:33:12.4Z</time></trkpt><trkpt lat="41.7793946" lon="13.3177153"><ele>499.3333333333333</ele><time>2026-05-03T10:33:13.394Z</time></trkpt><trkpt lat="41.7792813" lon="13.317889"><ele>500.0</ele><time>2026-05-03T10:33:14.401Z</time></trkpt><trkpt lat="41.7791641" lon="13.3180548"><ele>498.0</ele><time>2026-05-03T10:33:15.388Z</time></trkpt><trkpt lat="41.7790438" lon="13.3182117"><ele>496.0</ele><time>2026-05-03T10:33:16.399Z</time></trkpt><trkpt lat="41.7789169" lon="13.3183449"><ele>494.0</ele><time>2026-05-03T10:33:17.4Z</time></trkpt><trkpt lat="41.7787633" lon="13.3184474"><ele>494.0</ele><time>2026-05-03T10:33:18.395Z</time></trkpt><trkpt lat="41.7785837" lon="13.3185625"><ele>494.0</ele><time>2026-05-03T10:33:19.393Z</time></trkpt><trkpt lat="41.7783872" lon="13.3186743"><ele>494.0</ele><time>2026-05-03T10:33:20.393Z</time></trkpt><trkpt lat="41.7781784" lon="13.3187811"><ele>494.66666666666663</ele><time>2026-05-03T10:33:21.403Z</time></trkpt><trkpt lat="41.777976" lon="13.3188759"><ele>495.33333333333337</ele><time>2026-05-03T10:33:22.394Z</time></trkpt><trkpt lat="41.7777782" lon="13.3189664"><ele>496.0</ele><time>2026-05-03T10:33:23.398Z</time></trkpt><trkpt lat="41.7775969" lon="13.319052"><ele>494.0</ele><time>2026-05-03T10:33:24.4Z</time></trkpt><trkpt lat="41.7774325" lon="13.3191327"><ele>492.0</ele><time>2026-05-03T10:33:25.399Z</time></trkpt><trkpt lat="41.7772782" lon="13.3192079"><ele>490.0</ele><time>2026-05-03T10:33:26.395Z</time></trkpt><trkpt lat="41.777136" lon="13.3192701"><ele>490.0</ele><time>2026-05-03T10:33:27.392Z</time></trkpt><trkpt lat="41.7770053" lon="13.3193319"><ele>490.0</ele><time>2026-05-03T10:33:28.4Z</time></trkpt><trkpt lat="41.7768734" lon="13.3193956"><ele>490.0</ele><time>2026-05-03T10:33:29.393Z</time></trkpt><trkpt lat="41.7767439" lon="13.3194514"><ele>490.0</ele><time>2026-05-03T10:33:30.402Z</time></trkpt><trkpt lat="41.776611" lon="13.3195053"><ele>490.25</ele><time>2026-05-03T10:33:31.4Z</time></trkpt><trkpt lat="41.7764772" lon="13.319565"><ele>490.5</ele><time>2026-05-03T10:33:32.4Z</time></trkpt><trkpt lat="41.7763467" lon="13.319622"><ele>490.75</ele><time>2026-05-03T10:33:33.402Z</time></trkpt><trkpt lat="41.7762137" lon="13.319679"><ele>491.0</ele><time>2026-05-03T10:33:34.387Z</time></trkpt><trkpt lat="41.7760839" lon="13.3197421"><ele>489.25</ele><time>2026-05-03T10:33:35.394Z</time></trkpt><trkpt lat="41.7759513" lon="13.3198062"><ele>487.5</ele><time>2026-05-03T10:33:36.392Z</time></trkpt><trkpt lat="41.77582" lon="13.3198673"><ele>485.75</ele><time>2026-05-03T10:33:37.392Z</time></trkpt><trkpt lat="41.7756944" lon="13.3199349"><ele>484.0</ele><time>2026-05-03T10:33:38.4Z</time></trkpt><trkpt lat="41.7755686" lon="13.3199945"><ele>484.0</ele><time>2026-05-03T10:33:39.393Z</time></trkpt><trkpt lat="41.7754529" lon="13.3200447"><ele>484.0</ele><time>2026-05-03T10:33:40.394Z</time></trkpt><trkpt lat="41.775351" lon="13.3200871"><ele>484.0</ele><time>2026-05-03T10:33:41.392Z</time></trkpt><trkpt lat="41.7752773" lon="13.320127"><ele>484.0</ele><time>2026-05-03T10:33:42.387Z</time></trkpt><trkpt lat="41.7751773" lon="13.3201791"><ele>484.0</ele><time>2026-05-03T10:33:44.394Z</time></trkpt><trkpt lat="41.7750997" lon="13.3202186"><ele>483.83333333333337</ele><time>2026-05-03T10:33:46.395Z</time></trkpt><trkpt lat="41.7750317" lon="13.3202491"><ele>483.6666666666667</ele><time>2026-05-03T10:33:49.398Z</time></trkpt><trkpt lat="41.7749689" lon="13.3202356"><ele>483.5</ele><time>2026-05-03T10:33:53.404Z</time></trkpt><trkpt lat="41.7749006" lon="13.3201765"><ele>483.33333333333337</ele><time>2026-05-03T10:34:00.401Z</time></trkpt><trkpt lat="41.7748314" lon="13.3201681"><ele>483.1666666666667</ele><time>2026-05-03T10:34:02.404Z</time></trkpt><trkpt lat="41.7747278" lon="13.3202905"><ele>483.0</ele><time>2026-05-03T10:34:04.404Z</time></trkpt><trkpt lat="41.7746414" lon="13.3203573"><ele>483.0</ele><time>2026-05-03T10:34:05.397Z</time></trkpt><trkpt lat="41.774549" lon="13.3204174"><ele>482.99999999999994</ele><time>2026-05-03T10:34:06.397Z</time></trkpt><trkpt lat="41.7744529" lon="13.3204724"><ele>482.99999999999994</ele><time>2026-05-03T10:34:07.392Z</time></trkpt><trkpt lat="41.7743496" lon="13.3205101"><ele>483.0</ele><time>2026-05-03T10:34:08.4Z</time></trkpt><trkpt lat="41.7742454" lon="13.3205398"><ele>483.0</ele><time>2026-05-03T10:34:09.399Z</time></trkpt><trkpt lat="41.7741317" lon="13.3205429"><ele>483.0</ele><time>2026-05-03T10:34:10.399Z</time></trkpt><trkpt lat="41.7740247" lon="13.3205216"><ele>483.0</ele><time>2026-05-03T10:34:11.396Z</time></trkpt><trkpt lat="41.7739045" lon="13.3204713"><ele>483.0</ele><time>2026-05-03T10:34:12.4Z</time></trkpt><trkpt lat="41.7737838" lon="13.3203795"><ele>483.0</ele><time>2026-05-03T10:34:13.391Z</time></trkpt><trkpt lat="41.7736482" lon="13.3202518"><ele>481.66666666666663</ele><time>2026-05-03T10:34:14.396Z</time></trkpt><trkpt lat="41.7735083" lon="13.3200957"><ele>480.3333333333333</ele><time>2026-05-03T10:34:15.393Z</time></trkpt><trkpt lat="41.7733588" lon="13.3199231"><ele>479.0</ele><time>2026-05-03T10:34:16.401Z</time></trkpt><trkpt lat="41.7732198" lon="13.3197561"><ele>479.66666666666663</ele><time>2026-05-03T10:34:17.395Z</time></trkpt><trkpt lat="41.7730874" lon="13.3195936"><ele>480.33333333333337</ele><time>2026-05-03T10:34:18.394Z</time></trkpt><trkpt lat="41.7729597" lon="13.3194307"><ele>481.0</ele><time>2026-05-03T10:34:19.39Z</time></trkpt><trkpt lat="41.7728341" lon="13.3192702"><ele>481.0</ele><time>2026-05-03T10:34:20.39Z</time></trkpt><trkpt lat="41.7727111" lon="13.3191172"><ele>481.0</ele><time>2026-05-03T10:34:21.392Z</time></trkpt><trkpt lat="41.7725936" lon="13.3189681"><ele>481.0</ele><time>2026-05-03T10:34:22.397Z</time></trkpt><trkpt lat="41.772477" lon="13.3188163"><ele>480.0</ele><time>2026-05-03T10:34:23.4Z</time></trkpt><trkpt lat="41.7723535" lon="13.3186716"><ele>479.0</ele><time>2026-05-03T10:34:24.4Z</time></trkpt><trkpt lat="41.7722265" lon="13.3185418"><ele>478.0</ele><time>2026-05-03T10:34:25.395Z</time></trkpt><trkpt lat="41.772095" lon="13.3184276"><ele>478.0</ele><time>2026-05-03T10:34:26.401Z</time></trkpt><trkpt lat="41.771953" lon="13.3183376"><ele>478.0</ele><time>2026-05-03T10:34:27.401Z</time></trkpt><trkpt lat="41.7718063" lon="13.3182748"><ele>478.0</ele><time>2026-05-03T10:34:28.403Z</time></trkpt><trkpt lat="41.7716459" lon="13.3182321"><ele>476.6666666666667</ele><time>2026-05-03T10:34:29.401Z</time></trkpt><trkpt lat="41.771478" lon="13.3182068"><ele>475.33333333333337</ele><time>2026-05-03T10:34:30.401Z</time></trkpt><trkpt lat="41.771311" lon="13.318207"><ele>474.0</ele><time>2026-05-03T10:34:31.4Z</time></trkpt><trkpt lat="41.7711409" lon="13.3182363"><ele>472.66666666666663</ele><time>2026-05-03T10:34:32.391Z</time></trkpt><trkpt lat="41.77097" lon="13.3182877"><ele>471.3333333333333</ele><time>2026-05-03T10:34:33.388Z</time></trkpt><trkpt lat="41.7707971" lon="13.3183716"><ele>470.0</ele><time>2026-05-03T10:34:34.391Z</time></trkpt><trkpt lat="41.7706197" lon="13.3184749"><ele>470.0</ele><time>2026-05-03T10:34:35.392Z</time></trkpt><trkpt lat="41.7704477" lon="13.3185772"><ele>470.0</ele><time>2026-05-03T10:34:36.392Z</time></trkpt><trkpt lat="41.7702805" lon="13.3186782"><ele>470.0</ele><time>2026-05-03T10:34:37.39Z</time></trkpt><trkpt lat="41.7701158" lon="13.3187789"><ele>469.66666666666663</ele><time>2026-05-03T10:34:38.393Z</time></trkpt><trkpt lat="41.769951" lon="13.3188783"><ele>469.33333333333337</ele><time>2026-05-03T10:34:39.393Z</time></trkpt><trkpt lat="41.7697849" lon="13.3189827"><ele>469.0</ele><time>2026-05-03T10:34:40.392Z</time></trkpt><trkpt lat="41.7696197" lon="13.3190795"><ele>467.33333333333337</ele><time>2026-05-03T10:34:41.394Z</time></trkpt><trkpt lat="41.7694555" lon="13.319176"><ele>465.66666666666663</ele><time>2026-05-03T10:34:42.391Z</time></trkpt><trkpt lat="41.7693054" lon="13.3192647"><ele>464.0</ele><time>2026-05-03T10:34:43.401Z</time></trkpt><trkpt lat="41.7691651" lon="13.3193481"><ele>464.0</ele><time>2026-05-03T10:34:44.402Z</time></trkpt><trkpt lat="41.7690316" lon="13.3194268"><ele>464.0</ele><time>2026-05-03T10:34:45.401Z</time></trkpt><trkpt lat="41.7688902" lon="13.3195018"><ele>464.0</ele><time>2026-05-03T10:34:46.393Z</time></trkpt><trkpt lat="41.7687489" lon="13.3195832"><ele>464.0</ele><time>2026-05-03T10:34:47.407Z</time></trkpt><trkpt lat="41.7686005" lon="13.319666"><ele>464.0</ele><time>2026-05-03T10:34:48.398Z</time></trkpt><trkpt lat="41.768448" lon="13.3197523"><ele>464.0</ele><time>2026-05-03T10:34:49.399Z</time></trkpt><trkpt lat="41.7682963" lon="13.3198416"><ele>462.0</ele><time>2026-05-03T10:34:50.401Z</time></trkpt><trkpt lat="41.7681409" lon="13.3199318"><ele>460.0</ele><time>2026-05-03T10:34:51.402Z</time></trkpt><trkpt lat="41.7679862" lon="13.3200105"><ele>458.0</ele><time>2026-05-03T10:34:52.397Z</time></trkpt><trkpt lat="41.767837" lon="13.3200731"><ele>457.66666666666663</ele><time>2026-05-03T10:34:53.391Z</time></trkpt><trkpt lat="41.7676912" lon="13.3201197"><ele>457.33333333333337</ele><time>2026-05-03T10:34:54.391Z</time></trkpt><trkpt lat="41.7675392" lon="13.3201566"><ele>457.0</ele><time>2026-05-03T10:34:55.404Z</time></trkpt><trkpt lat="41.7673787" lon="13.3201669"><ele>457.0</ele><time>2026-05-03T10:34:56.395Z</time></trkpt><trkpt lat="41.767214" lon="13.3201529"><ele>457.0</ele><time>2026-05-03T10:34:57.399Z</time></trkpt><trkpt lat="41.7670436" lon="13.3201148"><ele>457.0</ele><time>2026-05-03T10:34:58.39Z</time></trkpt><trkpt lat="41.7668695" lon="13.320072"><ele>455.33333333333337</ele><time>2026-05-03T10:34:59.386Z</time></trkpt><trkpt lat="41.7666952" lon="13.3199997"><ele>453.66666666666663</ele><time>2026-05-03T10:35:00.399Z</time></trkpt><trkpt lat="41.7665078" lon="13.3199329"><ele>452.0</ele><time>2026-05-03T10:35:01.399Z</time></trkpt><trkpt lat="41.7663195" lon="13.3198735"><ele>452.0</ele><time>2026-05-03T10:35:02.4Z</time></trkpt><trkpt lat="41.7661263" lon="13.3198205"><ele>452.0</ele><time>2026-05-03T10:35:03.401Z</time></trkpt><trkpt lat="41.7659476" lon="13.3197786"><ele>452.0</ele><time>2026-05-03T10:35:04.397Z</time></trkpt><trkpt lat="41.7657753" lon="13.3197505"><ele>453.66666666666663</ele><time>2026-05-03T10:35:05.393Z</time></trkpt><trkpt lat="41.7656056" lon="13.3197333"><ele>455.33333333333337</ele><time>2026-05-03T10:35:06.4Z</time></trkpt><trkpt lat="41.7654339" lon="13.3197237"><ele>457.0</ele><time>2026-05-03T10:35:07.514Z</time></trkpt><trkpt lat="41.7650644" lon="13.3197439"><ele>452.6666666666667</ele><time>2026-05-03T10:35:09.399Z</time></trkpt><trkpt lat="41.7648764" lon="13.3197792"><ele>448.33333333333337</ele><time>2026-05-03T10:35:10.4Z</time></trkpt><trkpt lat="41.764675" lon="13.3198267"><ele>444.0</ele><time>2026-05-03T10:35:11.401Z</time></trkpt><trkpt lat="41.764479" lon="13.3198974"><ele>442.0</ele><time>2026-05-03T10:35:12.397Z</time></trkpt><trkpt lat="41.7642556" lon="13.3199954"><ele>440.0</ele><time>2026-05-03T10:35:13.399Z</time></trkpt><trkpt lat="41.7639995" lon="13.3201237"><ele>440.0</ele><time>2026-05-03T10:35:14.404Z</time></trkpt><trkpt lat="41.7637315" lon="13.3202703"><ele>440.0</ele><time>2026-05-03T10:35:15.387Z</time></trkpt><trkpt lat="41.7634842" lon="13.3204047"><ele>441.0</ele><time>2026-05-03T10:35:16.395Z</time></trkpt><trkpt lat="41.763246" lon="13.3205419"><ele>442.0</ele><time>2026-05-03T10:35:17.391Z</time></trkpt><trkpt lat="41.7630213" lon="13.3206669"><ele>440.0</ele><time>2026-05-03T10:35:18.392Z</time></trkpt><trkpt lat="41.762812" lon="13.3207795"><ele>438.0</ele><time>2026-05-03T10:35:19.39Z</time></trkpt><trkpt lat="41.7626154" lon="13.3208955"><ele>436.0</ele><time>2026-05-03T10:35:20.401Z</time></trkpt><trkpt lat="41.7624176" lon="13.3209917"><ele>435.6666666666667</ele><time>2026-05-03T10:35:21.401Z</time></trkpt><trkpt lat="41.7622344" lon="13.3210714"><ele>435.33333333333337</ele><time>2026-05-03T10:35:22.393Z</time></trkpt><trkpt lat="41.7620595" lon="13.321136"><ele>435.0</ele><time>2026-05-03T10:35:23.392Z</time></trkpt><trkpt lat="41.7618969" lon="13.3211938"><ele>434.25</ele><time>2026-05-03T10:35:24.402Z</time></trkpt><trkpt lat="41.7617444" lon="13.3212448"><ele>433.5</ele><time>2026-05-03T10:35:25.401Z</time></trkpt><trkpt lat="41.7616066" lon="13.3212867"><ele>432.75</ele><time>2026-05-03T10:35:26.395Z</time></trkpt><trkpt lat="41.761485" lon="13.3213246"><ele>432.0</ele><time>2026-05-03T10:35:27.399Z</time></trkpt><trkpt lat="41.7613827" lon="13.3213577"><ele>432.0</ele><time>2026-05-03T10:35:28.393Z</time></trkpt><trkpt lat="41.7612936" lon="13.3213818"><ele>432.0</ele><time>2026-05-03T10:35:29.392Z</time></trkpt><trkpt lat="41.761225" lon="13.3213946"><ele>432.0</ele><time>2026-05-03T10:35:30.4Z</time></trkpt><trkpt lat="41.7611312" lon="13.3214015"><ele>432.0</ele><time>2026-05-03T10:35:32.4Z</time></trkpt><trkpt lat="41.7610651" lon="13.3213959"><ele>432.0</ele><time>2026-05-03T10:35:35.395Z</time></trkpt><trkpt lat="41.7609754" lon="13.3214465"><ele>432.0</ele><time>2026-05-03T10:35:38.397Z</time></trkpt><trkpt lat="41.7609105" lon="13.3214707"><ele>431.40000000000003</ele><time>2026-05-03T10:35:40.391Z</time></trkpt><trkpt lat="41.7608435" lon="13.3214918"><ele>430.80000000000007</ele><time>2026-05-03T10:35:42.392Z</time></trkpt><trkpt lat="41.7607193" lon="13.3215591"><ele>430.2</ele><time>2026-05-03T10:35:44.396Z</time></trkpt><trkpt lat="41.7606122" lon="13.3216053"><ele>429.6</ele><time>2026-05-03T10:35:45.392Z</time></trkpt><trkpt lat="41.7604848" lon="13.3216587"><ele>429.0</ele><time>2026-05-03T10:35:46.393Z</time></trkpt><trkpt lat="41.7603665" lon="13.3217047"><ele>429.0</ele><time>2026-05-03T10:35:47.395Z</time></trkpt><trkpt lat="41.7602463" lon="13.3217495"><ele>429.0</ele><time>2026-05-03T10:35:48.393Z</time></trkpt><trkpt lat="41.7601203" lon="13.3217913"><ele>429.0</ele><time>2026-05-03T10:35:49.4Z</time></trkpt><trkpt lat="41.7599761" lon="13.3218342"><ele>429.0</ele><time>2026-05-03T10:35:50.394Z</time></trkpt><trkpt lat="41.7598193" lon="13.3218861"><ele>430.33333333333337</ele><time>2026-05-03T10:35:51.391Z</time></trkpt><trkpt lat="41.7596538" lon="13.3219447"><ele>431.6666666666667</ele><time>2026-05-03T10:35:52.401Z</time></trkpt><trkpt lat="41.7594956" lon="13.3220072"><ele>433.0</ele><time>2026-05-03T10:35:53.393Z</time></trkpt><trkpt lat="41.7593399" lon="13.3220741"><ele>433.6666666666667</ele><time>2026-05-03T10:35:54.399Z</time></trkpt><trkpt lat="41.7591803" lon="13.3221404"><ele>434.33333333333337</ele><time>2026-05-03T10:35:55.401Z</time></trkpt><trkpt lat="41.759005" lon="13.3222143"><ele>435.0</ele><time>2026-05-03T10:35:56.394Z</time></trkpt><trkpt lat="41.7588323" lon="13.3222914"><ele>432.33333333333337</ele><time>2026-05-03T10:35:57.391Z</time></trkpt><trkpt lat="41.7586612" lon="13.3223527"><ele>429.6666666666667</ele><time>2026-05-03T10:35:58.392Z</time></trkpt><trkpt lat="41.7584902" lon="13.3224255"><ele>427.0</ele><time>2026-05-03T10:35:59.399Z</time></trkpt><trkpt lat="41.7583254" lon="13.3224918"><ele>426.6666666666667</ele><time>2026-05-03T10:36:00.395Z</time></trkpt><trkpt lat="41.7581815" lon="13.3225602"><ele>426.33333333333337</ele><time>2026-05-03T10:36:01.4Z</time></trkpt><trkpt lat="41.7580457" lon="13.3226358"><ele>426.0</ele><time>2026-05-03T10:36:02.402Z</time></trkpt><trkpt lat="41.7579089" lon="13.3227295"><ele>426.0</ele><time>2026-05-03T10:36:03.4Z</time></trkpt><trkpt lat="41.7577672" lon="13.3228344"><ele>426.0</ele><time>2026-05-03T10:36:04.401Z</time></trkpt><trkpt lat="41.7576378" lon="13.3229522"><ele>426.0</ele><time>2026-05-03T10:36:05.392Z</time></trkpt><trkpt lat="41.7575139" lon="13.3230968"><ele>425.5</ele><time>2026-05-03T10:36:06.395Z</time></trkpt><trkpt lat="41.7574087" lon="13.3232444"><ele>425.0</ele><time>2026-05-03T10:36:07.394Z</time></trkpt><trkpt lat="41.7573218" lon="13.3233877"><ele>424.5</ele><time>2026-05-03T10:36:08.396Z</time></trkpt><trkpt lat="41.7572487" lon="13.323514"><ele>424.0</ele><time>2026-05-03T10:36:09.402Z</time></trkpt><trkpt lat="41.7571722" lon="13.3236682"><ele>424.0</ele><time>2026-05-03T10:36:10.409Z</time></trkpt><trkpt lat="41.7570821" lon="13.3238382"><ele>424.0</ele><time>2026-05-03T10:36:11.386Z</time></trkpt><trkpt lat="41.7570052" lon="13.3239881"><ele>424.0</ele><time>2026-05-03T10:36:12.399Z</time></trkpt><trkpt lat="41.7569207" lon="13.324155"><ele>424.0</ele><time>2026-05-03T10:36:13.392Z</time></trkpt><trkpt lat="41.7568225" lon="13.3243406"><ele>423.6666666666667</ele><time>2026-05-03T10:36:14.394Z</time></trkpt><trkpt lat="41.7567133" lon="13.3245404"><ele>423.33333333333337</ele><time>2026-05-03T10:36:15.393Z</time></trkpt><trkpt lat="41.756598" lon="13.3247563"><ele>423.0</ele><time>2026-05-03T10:36:16.393Z</time></trkpt><trkpt lat="41.7564717" lon="13.3249966"><ele>423.0</ele><time>2026-05-03T10:36:17.391Z</time></trkpt><trkpt lat="41.7563373" lon="13.3252427"><ele>423.0</ele><time>2026-05-03T10:36:18.392Z</time></trkpt><trkpt lat="41.7561993" lon="13.325499"><ele>424.5</ele><time>2026-05-03T10:36:19.395Z</time></trkpt><trkpt lat="41.7560601" lon="13.3257582"><ele>426.0</ele><time>2026-05-03T10:36:20.392Z</time></trkpt><trkpt lat="41.7559231" lon="13.3260106"><ele>426.0</ele><time>2026-05-03T10:36:21.401Z</time></trkpt><trkpt lat="41.7557856" lon="13.3262631"><ele>426.0</ele><time>2026-05-03T10:36:22.391Z</time></trkpt><trkpt lat="41.7556501" lon="13.3265101"><ele>423.66666666666663</ele><time>2026-05-03T10:36:23.392Z</time></trkpt><trkpt lat="41.7555161" lon="13.326754"><ele>421.3333333333333</ele><time>2026-05-03T10:36:24.392Z</time></trkpt><trkpt lat="41.7553843" lon="13.3269931"><ele>419.0</ele><time>2026-05-03T10:36:25.39Z</time></trkpt><trkpt lat="41.7552548" lon="13.3272289"><ele>421.66666666666663</ele><time>2026-05-03T10:36:26.393Z</time></trkpt><trkpt lat="41.7551299" lon="13.3274635"><ele>424.33333333333337</ele><time>2026-05-03T10:36:27.389Z</time></trkpt><trkpt lat="41.7550045" lon="13.3277002"><ele>427.0</ele><time>2026-05-03T10:36:28.391Z</time></trkpt><trkpt lat="41.7548774" lon="13.3279365"><ele>423.6666666666667</ele><time>2026-05-03T10:36:29.392Z</time></trkpt><trkpt lat="41.7547493" lon="13.3281742"><ele>420.33333333333337</ele><time>2026-05-03T10:36:30.39Z</time></trkpt><trkpt lat="41.7546234" lon="13.328413"><ele>417.0</ele><time>2026-05-03T10:36:31.391Z</time></trkpt><trkpt lat="41.7544984" lon="13.3286465"><ele>417.0</ele><time>2026-05-03T10:36:32.388Z</time></trkpt><trkpt lat="41.7543757" lon="13.3288712"><ele>417.0</ele><time>2026-05-03T10:36:33.387Z</time></trkpt><trkpt lat="41.7542524" lon="13.3290933"><ele>417.0</ele><time>2026-05-03T10:36:34.394Z</time></trkpt><trkpt lat="41.7541349" lon="13.3293004"><ele>416.0</ele><time>2026-05-03T10:36:35.398Z</time></trkpt><trkpt lat="41.7540173" lon="13.3294918"><ele>415.0</ele><time>2026-05-03T10:36:36.393Z</time></trkpt><trkpt lat="41.7539108" lon="13.3296662"><ele>414.0</ele><time>2026-05-03T10:36:37.397Z</time></trkpt><trkpt lat="41.7538111" lon="13.3298126"><ele>414.0</ele><time>2026-05-03T10:36:38.393Z</time></trkpt><trkpt lat="41.7537121" lon="13.329944"><ele>414.0</ele><time>2026-05-03T10:36:39.388Z</time></trkpt><trkpt lat="41.7536092" lon="13.3300527"><ele>414.0</ele><time>2026-05-03T10:36:40.391Z</time></trkpt><trkpt lat="41.7534866" lon="13.3301251"><ele>414.0</ele><time>2026-05-03T10:36:41.392Z</time></trkpt><trkpt lat="41.7533695" lon="13.3301978"><ele>416.33333333333337</ele><time>2026-05-03T10:36:42.392Z</time></trkpt><trkpt lat="41.7531879" lon="13.3301669"><ele>418.6666666666667</ele><time>2026-05-03T10:36:43.392Z</time></trkpt><trkpt lat="41.7530154" lon="13.3301471"><ele>421.0</ele><time>2026-05-03T10:36:44.401Z</time></trkpt><trkpt lat="41.752827" lon="13.3301059"><ele>418.6666666666667</ele><time>2026-05-03T10:36:45.398Z</time></trkpt><trkpt lat="41.7526463" lon="13.3300935"><ele>416.33333333333337</ele><time>2026-05-03T10:36:46.388Z</time></trkpt><trkpt lat="41.7524657" lon="13.3301122"><ele>414.0</ele><time>2026-05-03T10:36:47.393Z</time></trkpt><trkpt lat="41.7522899" lon="13.3301557"><ele>414.0</ele><time>2026-05-03T10:36:48.393Z</time></trkpt><trkpt lat="41.752119" lon="13.3302196"><ele>414.0</ele><time>2026-05-03T10:36:49.398Z</time></trkpt><trkpt lat="41.7519502" lon="13.3303004"><ele>414.0</ele><time>2026-05-03T10:36:50.394Z</time></trkpt><trkpt lat="41.7517839" lon="13.3303859"><ele>415.66666666666663</ele><time>2026-05-03T10:36:51.4Z</time></trkpt><trkpt lat="41.7516421" lon="13.3304906"><ele>417.3333333333333</ele><time>2026-05-03T10:36:52.393Z</time></trkpt><trkpt lat="41.7514928" lon="13.3305801"><ele>419.0</ele><time>2026-05-03T10:36:53.393Z</time></trkpt><trkpt lat="41.7513441" lon="13.3306755"><ele>418.66666666666663</ele><time>2026-05-03T10:36:54.398Z</time></trkpt><trkpt lat="41.7511974" lon="13.3307703"><ele>418.33333333333337</ele><time>2026-05-03T10:36:55.394Z</time></trkpt><trkpt lat="41.7510644" lon="13.3308653"><ele>418.0</ele><time>2026-05-03T10:36:56.402Z</time></trkpt><trkpt lat="41.7509348" lon="13.3309515"><ele>418.0</ele><time>2026-05-03T10:36:57.401Z</time></trkpt><trkpt lat="41.7508041" lon="13.3310344"><ele>418.0</ele><time>2026-05-03T10:36:58.393Z</time></trkpt><trkpt lat="41.7506773" lon="13.3311066"><ele>418.0</ele><time>2026-05-03T10:36:59.392Z</time></trkpt><trkpt lat="41.7505424" lon="13.3311596"><ele>418.0</ele><time>2026-05-03T10:37:00.392Z</time></trkpt><trkpt lat="41.7504105" lon="13.3311854"><ele>418.0</ele><time>2026-05-03T10:37:01.394Z</time></trkpt><trkpt lat="41.7502824" lon="13.3312094"><ele>418.0</ele><time>2026-05-03T10:37:02.393Z</time></trkpt><trkpt lat="41.7501552" lon="13.3312359"><ele>418.0</ele><time>2026-05-03T10:37:03.393Z</time></trkpt><trkpt lat="41.7500277" lon="13.3312755"><ele>418.0</ele><time>2026-05-03T10:37:04.392Z</time></trkpt><trkpt lat="41.7499063" lon="13.3313443"><ele>413.75</ele><time>2026-05-03T10:37:05.394Z</time></trkpt><trkpt lat="41.7497854" lon="13.3314206"><ele>409.5</ele><time>2026-05-03T10:37:06.389Z</time></trkpt><trkpt lat="41.7496953" lon="13.3315585"><ele>405.25</ele><time>2026-05-03T10:37:07.39Z</time></trkpt><trkpt lat="41.7496163" lon="13.3316984"><ele>401.0</ele><time>2026-05-03T10:37:08.398Z</time></trkpt><trkpt lat="41.7495562" lon="13.3318539"><ele>401.0</ele><time>2026-05-03T10:37:09.403Z</time></trkpt><trkpt lat="41.74951" lon="13.3320207"><ele>401.0</ele><time>2026-05-03T10:37:10.395Z</time></trkpt><trkpt lat="41.7494635" lon="13.332211"><ele>401.0</ele><time>2026-05-03T10:37:11.387Z</time></trkpt><trkpt lat="41.7494108" lon="13.3324119"><ele>401.0</ele><time>2026-05-03T10:37:12.387Z</time></trkpt><trkpt lat="41.7493538" lon="13.3326295"><ele>399.0</ele><time>2026-05-03T10:37:13.404Z</time></trkpt><trkpt lat="41.7492938" lon="13.3328604"><ele>397.0</ele><time>2026-05-03T10:37:14.4Z</time></trkpt><trkpt lat="41.7492357" lon="13.3331063"><ele>395.0</ele><time>2026-05-03T10:37:15.4Z</time></trkpt><trkpt lat="41.7491723" lon="13.333354"><ele>394.0</ele><time>2026-05-03T10:37:16.4Z</time></trkpt><trkpt lat="41.7491073" lon="13.3336"><ele>393.0</ele><time>2026-05-03T10:37:17.399Z</time></trkpt><trkpt lat="41.7490446" lon="13.3338355"><ele>392.0</ele><time>2026-05-03T10:37:18.399Z</time></trkpt><trkpt lat="41.7489707" lon="13.3340477"><ele>391.66666666666663</ele><time>2026-05-03T10:37:19.398Z</time></trkpt><trkpt lat="41.7488837" lon="13.3342716"><ele>391.33333333333337</ele><time>2026-05-03T10:37:20.392Z</time></trkpt><trkpt lat="41.7487737" lon="13.33453"><ele>391.0</ele><time>2026-05-03T10:37:21.395Z</time></trkpt><trkpt lat="41.7486638" lon="13.3347604"><ele>390.0</ele><time>2026-05-03T10:37:22.402Z</time></trkpt><trkpt lat="41.7485518" lon="13.3349717"><ele>389.0</ele><time>2026-05-03T10:37:23.404Z</time></trkpt><trkpt lat="41.7484365" lon="13.3351632"><ele>388.0</ele><time>2026-05-03T10:37:24.401Z</time></trkpt><trkpt lat="41.74832" lon="13.3353509"><ele>387.0</ele><time>2026-05-03T10:37:25.392Z</time></trkpt><trkpt lat="41.7482028" lon="13.3355274"><ele>386.0</ele><time>2026-05-03T10:37:26.389Z</time></trkpt><trkpt lat="41.7480822" lon="13.3357055"><ele>385.0</ele><time>2026-05-03T10:37:27.395Z</time></trkpt><trkpt lat="41.7479519" lon="13.3358988"><ele>384.6666666666667</ele><time>2026-05-03T10:37:28.395Z</time></trkpt><trkpt lat="41.7478064" lon="13.3361179"><ele>384.33333333333337</ele><time>2026-05-03T10:37:29.404Z</time></trkpt><trkpt lat="41.7476603" lon="13.336325"><ele>384.0</ele><time>2026-05-03T10:37:30.395Z</time></trkpt><trkpt lat="41.747515" lon="13.3365258"><ele>383.0</ele><time>2026-05-03T10:37:31.399Z</time></trkpt><trkpt lat="41.7473686" lon="13.3367362"><ele>382.0</ele><time>2026-05-03T10:37:32.398Z</time></trkpt><trkpt lat="41.7472213" lon="13.3369484"><ele>381.0</ele><time>2026-05-03T10:37:33.396Z</time></trkpt><trkpt lat="41.7470742" lon="13.3371492"><ele>380.6666666666667</ele><time>2026-05-03T10:37:34.394Z</time></trkpt><trkpt lat="41.7469384" lon="13.3373443"><ele>380.33333333333337</ele><time>2026-05-03T10:37:35.394Z</time></trkpt><trkpt lat="41.7468097" lon="13.3375377"><ele>380.0</ele><time>2026-05-03T10:37:36.396Z</time></trkpt><trkpt lat="41.7466861" lon="13.3377109"><ele>378.33333333333337</ele><time>2026-05-03T10:37:37.404Z</time></trkpt><trkpt lat="41.7465584" lon="13.3378765"><ele>376.6666666666667</ele><time>2026-05-03T10:37:38.402Z</time></trkpt><trkpt lat="41.7464254" lon="13.338023"><ele>375.0</ele><time>2026-05-03T10:37:39.393Z</time></trkpt><trkpt lat="41.7462807" lon="13.3381494"><ele>375.0</ele><time>2026-05-03T10:37:40.392Z</time></trkpt><trkpt lat="41.7461172" lon="13.3382692"><ele>375.0</ele><time>2026-05-03T10:37:41.395Z</time></trkpt><trkpt lat="41.7459444" lon="13.3383712"><ele>375.0</ele><time>2026-05-03T10:37:42.388Z</time></trkpt><trkpt lat="41.745783" lon="13.3384565"><ele>374.3333333333333</ele><time>2026-05-03T10:37:43.401Z</time></trkpt><trkpt lat="41.7456279" lon="13.3385166"><ele>373.66666666666663</ele><time>2026-05-03T10:37:44.393Z</time></trkpt><trkpt lat="41.7454528" lon="13.3385592"><ele>373.0</ele><time>2026-05-03T10:37:45.394Z</time></trkpt><trkpt lat="41.745269" lon="13.3385678"><ele>375.0</ele><time>2026-05-03T10:37:46.401Z</time></trkpt><trkpt lat="41.7451037" lon="13.338542"><ele>377.0</ele><time>2026-05-03T10:37:47.395Z</time></trkpt><trkpt lat="41.7449107" lon="13.3384929"><ele>379.0</ele><time>2026-05-03T10:37:48.398Z</time></trkpt><trkpt lat="41.7446972" lon="13.3384332"><ele>379.0</ele><time>2026-05-03T10:37:49.4Z</time></trkpt><trkpt lat="41.7444733" lon="13.3383684"><ele>379.0</ele><time>2026-05-03T10:37:50.399Z</time></trkpt><trkpt lat="41.7442418" lon="13.3383053"><ele>380.3333333333333</ele><time>2026-05-03T10:37:51.399Z</time></trkpt><trkpt lat="41.74403" lon="13.3382442"><ele>381.6666666666667</ele><time>2026-05-03T10:37:52.399Z</time></trkpt><trkpt lat="41.7438367" lon="13.338192"><ele>383.0</ele><time>2026-05-03T10:37:53.392Z</time></trkpt><trkpt lat="41.7436557" lon="13.3381462"><ele>384.33333333333337</ele><time>2026-05-03T10:37:54.404Z</time></trkpt><trkpt lat="41.7434841" lon="13.3381016"><ele>385.6666666666667</ele><time>2026-05-03T10:37:55.401Z</time></trkpt><trkpt lat="41.7433218" lon="13.338071"><ele>387.0</ele><time>2026-05-03T10:37:56.4Z</time></trkpt><trkpt lat="41.7431704" lon="13.3380651"><ele>387.0</ele><time>2026-05-03T10:37:57.402Z</time></trkpt><trkpt lat="41.7430132" lon="13.338082"><ele>387.0</ele><time>2026-05-03T10:37:58.401Z</time></trkpt><trkpt lat="41.7428572" lon="13.338135"><ele>387.0</ele><time>2026-05-03T10:37:59.399Z</time></trkpt><trkpt lat="41.7427148" lon="13.3382122"><ele>387.0</ele><time>2026-05-03T10:38:00.399Z</time></trkpt><trkpt lat="41.7425909" lon="13.338327"><ele>387.0</ele><time>2026-05-03T10:38:01.393Z</time></trkpt><trkpt lat="41.7424725" lon="13.3384789"><ele>387.0</ele><time>2026-05-03T10:38:02.398Z</time></trkpt><trkpt lat="41.7423634" lon="13.3386844"><ele>388.33333333333337</ele><time>2026-05-03T10:38:03.404Z</time></trkpt><trkpt lat="41.7422587" lon="13.3389238"><ele>389.6666666666667</ele><time>2026-05-03T10:38:04.396Z</time></trkpt><trkpt lat="41.7421564" lon="13.3391758"><ele>391.0</ele><time>2026-05-03T10:38:05.397Z</time></trkpt><trkpt lat="41.742062" lon="13.3394051"><ele>391.0</ele><time>2026-05-03T10:38:06.396Z</time></trkpt><trkpt lat="41.7419735" lon="13.3396123"><ele>391.0</ele><time>2026-05-03T10:38:07.401Z</time></trkpt><trkpt lat="41.7418976" lon="13.3398035"><ele>391.0</ele><time>2026-05-03T10:38:08.401Z</time></trkpt><trkpt lat="41.7418313" lon="13.3399895"><ele>391.0</ele><time>2026-05-03T10:38:09.398Z</time></trkpt><trkpt lat="41.7417709" lon="13.340174"><ele>391.0</ele><time>2026-05-03T10:38:10.4Z</time></trkpt><trkpt lat="41.7417313" lon="13.3403744"><ele>391.0</ele><time>2026-05-03T10:38:11.402Z</time></trkpt><trkpt lat="41.7417111" lon="13.340577"><ele>391.0</ele><time>2026-05-03T10:38:12.4Z</time></trkpt><trkpt lat="41.7417024" lon="13.3407888"><ele>391.0</ele><time>2026-05-03T10:38:13.397Z</time></trkpt><trkpt lat="41.7417062" lon="13.3410077"><ele>391.0</ele><time>2026-05-03T10:38:14.401Z</time></trkpt><trkpt lat="41.7417097" lon="13.3412254"><ele>390.6666666666667</ele><time>2026-05-03T10:38:15.399Z</time></trkpt><trkpt lat="41.7417198" lon="13.3414473"><ele>390.33333333333337</ele><time>2026-05-03T10:38:16.398Z</time></trkpt><trkpt lat="41.741732" lon="13.3416716"><ele>390.0</ele><time>2026-05-03T10:38:17.402Z</time></trkpt><trkpt lat="41.7417434" lon="13.3418828"><ele>390.0</ele><time>2026-05-03T10:38:18.393Z</time></trkpt><trkpt lat="41.7417486" lon="13.3420746"><ele>390.0</ele><time>2026-05-03T10:38:19.392Z</time></trkpt><trkpt lat="41.7417438" lon="13.3422577"><ele>390.0</ele><time>2026-05-03T10:38:20.392Z</time></trkpt><trkpt lat="41.7417202" lon="13.3424354"><ele>390.0</ele><time>2026-05-03T10:38:21.401Z</time></trkpt><trkpt lat="41.7416724" lon="13.3426111"><ele>391.0</ele><time>2026-05-03T10:38:22.393Z</time></trkpt><trkpt lat="41.7415973" lon="13.3427767"><ele>392.0</ele><time>2026-05-03T10:38:23.397Z</time></trkpt><trkpt lat="41.7415051" lon="13.3429205"><ele>393.0</ele><time>2026-05-03T10:38:24.392Z</time></trkpt><trkpt lat="41.7413909" lon="13.3430439"><ele>394.0</ele><time>2026-05-03T10:38:25.391Z</time></trkpt><trkpt lat="41.7412557" lon="13.3431497"><ele>395.0</ele><time>2026-05-03T10:38:26.391Z</time></trkpt><trkpt lat="41.7410856" lon="13.3432464"><ele>396.0</ele><time>2026-05-03T10:38:27.494Z</time></trkpt><trkpt lat="41.7408872" lon="13.343336"><ele>397.0</ele><time>2026-05-03T10:38:28.401Z</time></trkpt><trkpt lat="41.7406576" lon="13.3434177"><ele>397.0</ele><time>2026-05-03T10:38:29.393Z</time></trkpt><trkpt lat="41.7403881" lon="13.3435054"><ele>397.0</ele><time>2026-05-03T10:38:30.389Z</time></trkpt><trkpt lat="41.7400847" lon="13.3436171"><ele>397.0</ele><time>2026-05-03T10:38:31.393Z</time></trkpt><trkpt lat="41.7397415" lon="13.3437355"><ele>397.0</ele><time>2026-05-03T10:38:32.392Z</time></trkpt><trkpt lat="41.7393874" lon="13.34386"><ele>401.0</ele><time>2026-05-03T10:38:33.402Z</time></trkpt><trkpt lat="41.7390552" lon="13.343983"><ele>405.0</ele><time>2026-05-03T10:38:34.393Z</time></trkpt><trkpt lat="41.7387482" lon="13.3440971"><ele>406.5</ele><time>2026-05-03T10:38:35.402Z</time></trkpt><trkpt lat="41.7384663" lon="13.3441988"><ele>408.0</ele><time>2026-05-03T10:38:36.393Z</time></trkpt><trkpt lat="41.7382112" lon="13.3442906"><ele>408.0</ele><time>2026-05-03T10:38:37.392Z</time></trkpt><trkpt lat="41.7379778" lon="13.3443715"><ele>408.0</ele><time>2026-05-03T10:38:38.394Z</time></trkpt><trkpt lat="41.7377454" lon="13.3444421"><ele>409.5</ele><time>2026-05-03T10:38:39.398Z</time></trkpt><trkpt lat="41.7375159" lon="13.3444904"><ele>411.0</ele><time>2026-05-03T10:38:40.397Z</time></trkpt><trkpt lat="41.7372794" lon="13.3445178"><ele>411.0</ele><time>2026-05-03T10:38:41.388Z</time></trkpt><trkpt lat="41.7370448" lon="13.3445168"><ele>411.0</ele><time>2026-05-03T10:38:42.393Z</time></trkpt><trkpt lat="41.7368065" lon="13.3444911"><ele>413.0</ele><time>2026-05-03T10:38:43.395Z</time></trkpt><trkpt lat="41.7365777" lon="13.3444393"><ele>415.0</ele><time>2026-05-03T10:38:44.393Z</time></trkpt><trkpt lat="41.7363502" lon="13.3443639"><ele>415.0</ele><time>2026-05-03T10:38:45.392Z</time></trkpt><trkpt lat="41.7361245" lon="13.3442603"><ele>415.0</ele><time>2026-05-03T10:38:46.396Z</time></trkpt><trkpt lat="41.7359051" lon="13.3441392"><ele>416.33333333333337</ele><time>2026-05-03T10:38:47.396Z</time></trkpt><trkpt lat="41.7357043" lon="13.344015"><ele>417.66666666666663</ele><time>2026-05-03T10:38:48.393Z</time></trkpt><trkpt lat="41.7355131" lon="13.3438962"><ele>419.0</ele><time>2026-05-03T10:38:49.4Z</time></trkpt><trkpt lat="41.7353077" lon="13.343785"><ele>415.5</ele><time>2026-05-03T10:38:50.394Z</time></trkpt><trkpt lat="41.735085" lon="13.3436981"><ele>412.0</ele><time>2026-05-03T10:38:51.402Z</time></trkpt><trkpt lat="41.734869" lon="13.3436308"><ele>412.0</ele><time>2026-05-03T10:38:52.394Z</time></trkpt><trkpt lat="41.7346532" lon="13.3435912"><ele>412.0</ele><time>2026-05-03T10:38:53.401Z</time></trkpt><trkpt lat="41.7344473" lon="13.343582"><ele>412.0</ele><time>2026-05-03T10:38:54.396Z</time></trkpt><trkpt lat="41.7342297" lon="13.3435903"><ele>412.6666666666667</ele><time>2026-05-03T10:38:55.389Z</time></trkpt><trkpt lat="41.7340055" lon="13.3436195"><ele>413.33333333333337</ele><time>2026-05-03T10:38:56.391Z</time></trkpt><trkpt lat="41.7337873" lon="13.3436474"><ele>414.0</ele><time>2026-05-03T10:38:57.393Z</time></trkpt><trkpt lat="41.7335843" lon="13.3436763"><ele>414.66666666666663</ele><time>2026-05-03T10:38:58.394Z</time></trkpt><trkpt lat="41.733388" lon="13.3437149"><ele>415.3333333333333</ele><time>2026-05-03T10:38:59.401Z</time></trkpt><trkpt lat="41.7331978" lon="13.3437687"><ele>416.0</ele><time>2026-05-03T10:39:00.401Z</time></trkpt><trkpt lat="41.7330166" lon="13.3438232"><ele>422.66666666666663</ele><time>2026-05-03T10:39:01.401Z</time></trkpt><trkpt lat="41.7328433" lon="13.3438893"><ele>429.33333333333337</ele><time>2026-05-03T10:39:02.392Z</time></trkpt><trkpt lat="41.7326763" lon="13.3439635"><ele>436.0</ele><time>2026-05-03T10:39:03.392Z</time></trkpt><trkpt lat="41.7325095" lon="13.344031"><ele>436.0</ele><time>2026-05-03T10:39:04.396Z</time></trkpt><trkpt lat="41.7323488" lon="13.3440954"><ele>436.0</ele><time>2026-05-03T10:39:05.393Z</time></trkpt><trkpt lat="41.7321907" lon="13.3441645"><ele>436.0</ele><time>2026-05-03T10:39:06.401Z</time></trkpt><trkpt lat="41.7320434" lon="13.344227"><ele>436.0</ele><time>2026-05-03T10:39:07.399Z</time></trkpt><trkpt lat="41.7319094" lon="13.3442858"><ele>436.0</ele><time>2026-05-03T10:39:08.402Z</time></trkpt><trkpt lat="41.7317867" lon="13.3443318"><ele>436.0</ele><time>2026-05-03T10:39:09.403Z</time></trkpt><trkpt lat="41.7316792" lon="13.3443742"><ele>436.0</ele><time>2026-05-03T10:39:10.389Z</time></trkpt><trkpt lat="41.7315854" lon="13.3444152"><ele>434.33333333333337</ele><time>2026-05-03T10:39:11.399Z</time></trkpt><trkpt lat="41.7314997" lon="13.344453"><ele>432.6666666666667</ele><time>2026-05-03T10:39:12.391Z</time></trkpt><trkpt lat="41.7314121" lon="13.3444931"><ele>431.0</ele><time>2026-05-03T10:39:13.393Z</time></trkpt><trkpt lat="41.7313317" lon="13.3445367"><ele>429.33333333333337</ele><time>2026-05-03T10:39:14.392Z</time></trkpt><trkpt lat="41.7312691" lon="13.3445649"><ele>427.6666666666667</ele><time>2026-05-03T10:39:15.406Z</time></trkpt><trkpt lat="41.7311855" lon="13.3446078"><ele>426.0</ele><time>2026-05-03T10:39:17.402Z</time></trkpt><trkpt lat="41.7311209" lon="13.344633"><ele>426.85714285714283</ele><time>2026-05-03T10:39:19.394Z</time></trkpt><trkpt lat="41.7310296" lon="13.3446783"><ele>427.7142857142857</ele><time>2026-05-03T10:39:21.417Z</time></trkpt><trkpt lat="41.7309694" lon="13.3447033"><ele>428.57142857142856</ele><time>2026-05-03T10:39:22.395Z</time></trkpt><trkpt lat="41.7309106" lon="13.3447386"><ele>429.42857142857144</ele><time>2026-05-03T10:39:23.401Z</time></trkpt><trkpt lat="41.7308497" lon="13.3447802"><ele>430.2857142857143</ele><time>2026-05-03T10:39:24.391Z</time></trkpt><trkpt lat="41.7307855" lon="13.3448239"><ele>431.1428571428571</ele><time>2026-05-03T10:39:25.402Z</time></trkpt><trkpt lat="41.7307124" lon="13.344872"><ele>432.0</ele><time>2026-05-03T10:39:26.394Z</time></trkpt><trkpt lat="41.7306151" lon="13.3449312"><ele>433.5</ele><time>2026-05-03T10:39:27.394Z</time></trkpt><trkpt lat="41.7305001" lon="13.3449944"><ele>435.0</ele><time>2026-05-03T10:39:28.395Z</time></trkpt><trkpt lat="41.7303877" lon="13.3450554"><ele>436.5</ele><time>2026-05-03T10:39:29.395Z</time></trkpt><trkpt lat="41.7302698" lon="13.3451254"><ele>438.0</ele><time>2026-05-03T10:39:30.393Z</time></trkpt><trkpt lat="41.7301524" lon="13.3451974"><ele>438.66666666666663</ele><time>2026-05-03T10:39:31.402Z</time></trkpt><trkpt lat="41.7300231" lon="13.3452735"><ele>439.3333333333333</ele><time>2026-05-03T10:39:32.395Z</time></trkpt><trkpt lat="41.7298666" lon="13.3453708"><ele>440.0</ele><time>2026-05-03T10:39:33.392Z</time></trkpt><trkpt lat="41.7296941" lon="13.345481"><ele>436.3333333333333</ele><time>2026-05-03T10:39:34.393Z</time></trkpt><trkpt lat="41.7295358" lon="13.3455807"><ele>432.66666666666663</ele><time>2026-05-03T10:39:35.391Z</time></trkpt><trkpt lat="41.7293759" lon="13.3456731"><ele>429.0</ele><time>2026-05-03T10:39:36.395Z</time></trkpt><trkpt lat="41.7292183" lon="13.3457683"><ele>428.66666666666663</ele><time>2026-05-03T10:39:37.4Z</time></trkpt><trkpt lat="41.7290656" lon="13.3458576"><ele>428.3333333333333</ele><time>2026-05-03T10:39:38.407Z</time></trkpt><trkpt lat="41.7289211" lon="13.3459384"><ele>428.0</ele><time>2026-05-03T10:39:39.394Z</time></trkpt><trkpt lat="41.7287858" lon="13.346019"><ele>428.0</ele><time>2026-05-03T10:39:40.392Z</time></trkpt><trkpt lat="41.7286467" lon="13.3461033"><ele>428.0</ele><time>2026-05-03T10:39:41.393Z</time></trkpt><trkpt lat="41.7284931" lon="13.3461871"><ele>428.0</ele><time>2026-05-03T10:39:42.392Z</time></trkpt><trkpt lat="41.7283425" lon="13.3462787"><ele>431.66666666666663</ele><time>2026-05-03T10:39:43.397Z</time></trkpt><trkpt lat="41.7281968" lon="13.3463689"><ele>435.33333333333337</ele><time>2026-05-03T10:39:44.401Z</time></trkpt><trkpt lat="41.7280514" lon="13.3464595"><ele>439.0</ele><time>2026-05-03T10:39:45.402Z</time></trkpt><trkpt lat="41.7278964" lon="13.3465535"><ele>435.33333333333337</ele><time>2026-05-03T10:39:46.402Z</time></trkpt><trkpt lat="41.7277353" lon="13.3466516"><ele>431.66666666666663</ele><time>2026-05-03T10:39:47.395Z</time></trkpt><trkpt lat="41.7275731" lon="13.3467298"><ele>428.0</ele><time>2026-05-03T10:39:48.396Z</time></trkpt><trkpt lat="41.7274094" lon="13.3467961"><ele>428.0</ele><time>2026-05-03T10:39:49.395Z</time></trkpt><trkpt lat="41.7272394" lon="13.3468511"><ele>428.0</ele><time>2026-05-03T10:39:50.393Z</time></trkpt><trkpt lat="41.7270573" lon="13.3469099"><ele>428.0</ele><time>2026-05-03T10:39:51.395Z</time></trkpt><trkpt lat="41.726858" lon="13.3469717"><ele>431.0</ele><time>2026-05-03T10:39:52.392Z</time></trkpt><trkpt lat="41.7266248" lon="13.3470389"><ele>434.0</ele><time>2026-05-03T10:39:53.392Z</time></trkpt><trkpt lat="41.726348" lon="13.34712"><ele>433.0</ele><time>2026-05-03T10:39:54.402Z</time></trkpt><trkpt lat="41.7260532" lon="13.3471994"><ele>432.0</ele><time>2026-05-03T10:39:55.39Z</time></trkpt><trkpt lat="41.7257845" lon="13.3472774"><ele>419.5</ele><time>2026-05-03T10:39:56.4Z</time></trkpt><trkpt lat="41.7255263" lon="13.347336"><ele>407.0</ele><time>2026-05-03T10:39:57.534Z</time></trkpt><trkpt lat="41.7250304" lon="13.3474699"><ele>406.0</ele><time>2026-05-03T10:39:59.39Z</time></trkpt><trkpt lat="41.724778" lon="13.3475322"><ele>405.0</ele><time>2026-05-03T10:40:00.39Z</time></trkpt><trkpt lat="41.7245353" lon="13.3475799"><ele>404.33333333333337</ele><time>2026-05-03T10:40:01.391Z</time></trkpt><trkpt lat="41.7243065" lon="13.3476192"><ele>403.6666666666667</ele><time>2026-05-03T10:40:02.4Z</time></trkpt><trkpt lat="41.7240963" lon="13.3476568"><ele>403.0</ele><time>2026-05-03T10:40:03.394Z</time></trkpt><trkpt lat="41.7238915" lon="13.3476855"><ele>403.0</ele><time>2026-05-03T10:40:04.4Z</time></trkpt><trkpt lat="41.7236807" lon="13.3477172"><ele>403.0</ele><time>2026-05-03T10:40:05.398Z</time></trkpt><trkpt lat="41.7234654" lon="13.3477587"><ele>403.0</ele><time>2026-05-03T10:40:06.4Z</time></trkpt><trkpt lat="41.7232599" lon="13.3478021"><ele>402.33333333333337</ele><time>2026-05-03T10:40:07.4Z</time></trkpt><trkpt lat="41.7230684" lon="13.3478466"><ele>401.66666666666663</ele><time>2026-05-03T10:40:08.396Z</time></trkpt><trkpt lat="41.7228909" lon="13.3478881"><ele>401.0</ele><time>2026-05-03T10:40:09.399Z</time></trkpt><trkpt lat="41.7227278" lon="13.3479282"><ele>399.0</ele><time>2026-05-03T10:40:10.398Z</time></trkpt><trkpt lat="41.7225975" lon="13.3479581"><ele>397.0</ele><time>2026-05-03T10:40:11.387Z</time></trkpt><trkpt lat="41.7224743" lon="13.3479654"><ele>395.0</ele><time>2026-05-03T10:40:12.399Z</time></trkpt><trkpt lat="41.7223684" lon="13.3479381"><ele>393.0</ele><time>2026-05-03T10:40:13.398Z</time></trkpt><trkpt lat="41.7222614" lon="13.347876"><ele>393.0</ele><time>2026-05-03T10:40:14.387Z</time></trkpt><trkpt lat="41.722171" lon="13.3477654"><ele>393.0</ele><time>2026-05-03T10:40:15.39Z</time></trkpt><trkpt lat="41.7220992" lon="13.3476093"><ele>393.0</ele><time>2026-05-03T10:40:16.391Z</time></trkpt><trkpt lat="41.7220466" lon="13.3473985"><ele>393.0</ele><time>2026-05-03T10:40:17.394Z</time></trkpt><trkpt lat="41.7219993" lon="13.3471337"><ele>389.0</ele><time>2026-05-03T10:40:18.4Z</time></trkpt><trkpt lat="41.7219568" lon="13.3468604"><ele>385.0</ele><time>2026-05-03T10:40:19.394Z</time></trkpt><trkpt lat="41.7219195" lon="13.3466078"><ele>381.0</ele><time>2026-05-03T10:40:20.401Z</time></trkpt><trkpt lat="41.7218888" lon="13.3463784"><ele>381.25</ele><time>2026-05-03T10:40:21.401Z</time></trkpt><trkpt lat="41.7218583" lon="13.3461722"><ele>381.5</ele><time>2026-05-03T10:40:22.395Z</time></trkpt><trkpt lat="41.7218337" lon="13.3459803"><ele>381.75</ele><time>2026-05-03T10:40:23.394Z</time></trkpt><trkpt lat="41.7218154" lon="13.3458057"><ele>382.0</ele><time>2026-05-03T10:40:24.393Z</time></trkpt><trkpt lat="41.7217918" lon="13.3456547"><ele>382.16666666666663</ele><time>2026-05-03T10:40:25.402Z</time></trkpt><trkpt lat="41.7217639" lon="13.3455336"><ele>382.3333333333333</ele><time>2026-05-03T10:40:26.394Z</time></trkpt><trkpt lat="41.721725" lon="13.3454337"><ele>382.5</ele><time>2026-05-03T10:40:27.393Z</time></trkpt><trkpt lat="41.7216632" lon="13.3453497"><ele>382.6666666666667</ele><time>2026-05-03T10:40:28.394Z</time></trkpt><trkpt lat="41.7215905" lon="13.3453016"><ele>382.83333333333337</ele><time>2026-05-03T10:40:29.393Z</time></trkpt><trkpt lat="41.7215073" lon="13.3452928"><ele>383.0</ele><time>2026-05-03T10:40:30.392Z</time></trkpt><trkpt lat="41.7214276" lon="13.3453173"><ele>383.0</ele><time>2026-05-03T10:40:31.398Z</time></trkpt><trkpt lat="41.7213559" lon="13.3453736"><ele>383.0</ele><time>2026-05-03T10:40:32.393Z</time></trkpt><trkpt lat="41.7213079" lon="13.345468"><ele>383.0</ele><time>2026-05-03T10:40:33.392Z</time></trkpt><trkpt lat="41.7212823" lon="13.345595"><ele>383.0</ele><time>2026-05-03T10:40:34.401Z</time></trkpt><trkpt lat="41.7212741" lon="13.3457761"><ele>383.0</ele><time>2026-05-03T10:40:35.394Z</time></trkpt><trkpt lat="41.7212709" lon="13.3460028"><ele>382.6666666666667</ele><time>2026-05-03T10:40:36.399Z</time></trkpt><trkpt lat="41.7212554" lon="13.3462856"><ele>382.3333333333333</ele><time>2026-05-03T10:40:37.4Z</time></trkpt><trkpt lat="41.7212368" lon="13.3465954"><ele>382.0</ele><time>2026-05-03T10:40:38.397Z</time></trkpt><trkpt lat="41.7212216" lon="13.346878"><ele>381.66666666666663</ele><time>2026-05-03T10:40:39.397Z</time></trkpt><trkpt lat="41.7212086" lon="13.3471677"><ele>381.3333333333333</ele><time>2026-05-03T10:40:40.39Z</time></trkpt><trkpt lat="41.7211961" lon="13.3474489"><ele>381.0</ele><time>2026-05-03T10:40:41.392Z</time></trkpt><trkpt lat="41.7211874" lon="13.3477063"><ele>380.3333333333333</ele><time>2026-05-03T10:40:42.397Z</time></trkpt><trkpt lat="41.7211801" lon="13.3479542"><ele>379.66666666666663</ele><time>2026-05-03T10:40:43.389Z</time></trkpt><trkpt lat="41.7211839" lon="13.3481834"><ele>379.0</ele><time>2026-05-03T10:40:44.391Z</time></trkpt><trkpt lat="41.721206" lon="13.3483958"><ele>377.66666666666663</ele><time>2026-05-03T10:40:45.398Z</time></trkpt><trkpt lat="41.7212551" lon="13.348608"><ele>376.3333333333333</ele><time>2026-05-03T10:40:46.392Z</time></trkpt><trkpt lat="41.7213408" lon="13.3488307"><ele>375.0</ele><time>2026-05-03T10:40:47.404Z</time></trkpt><trkpt lat="41.7214549" lon="13.3490605"><ele>372.0</ele><time>2026-05-03T10:40:48.392Z</time></trkpt><trkpt lat="41.7215756" lon="13.3492866"><ele>369.0</ele><time>2026-05-03T10:40:49.394Z</time></trkpt><trkpt lat="41.7216877" lon="13.3495065"><ele>366.0</ele><time>2026-05-03T10:40:50.398Z</time></trkpt><trkpt lat="41.7218026" lon="13.3497254"><ele>365.0</ele><time>2026-05-03T10:40:51.389Z</time></trkpt><trkpt lat="41.7219174" lon="13.3499451"><ele>364.0</ele><time>2026-05-03T10:40:52.392Z</time></trkpt><trkpt lat="41.7220254" lon="13.3501535"><ele>363.0</ele><time>2026-05-03T10:40:53.389Z</time></trkpt><trkpt lat="41.7221249" lon="13.3503451"><ele>363.0</ele><time>2026-05-03T10:40:54.391Z</time></trkpt><trkpt lat="41.7222071" lon="13.3505153"><ele>363.0</ele><time>2026-05-03T10:40:55.399Z</time></trkpt><trkpt lat="41.7222857" lon="13.3506624"><ele>363.0</ele><time>2026-05-03T10:40:56.391Z</time></trkpt><trkpt lat="41.722349" lon="13.3507916"><ele>363.0</ele><time>2026-05-03T10:40:57.4Z</time></trkpt><trkpt lat="41.7223905" lon="13.3509086"><ele>361.2</ele><time>2026-05-03T10:40:58.386Z</time></trkpt><trkpt lat="41.7224" lon="13.3510196"><ele>359.4</ele><time>2026-05-03T10:40:59.389Z</time></trkpt><trkpt lat="41.7223737" lon="13.3511252"><ele>357.59999999999997</ele><time>2026-05-03T10:41:00.391Z</time></trkpt><trkpt lat="41.7222996" lon="13.3512059"><ele>355.79999999999995</ele><time>2026-05-03T10:41:01.397Z</time></trkpt><trkpt lat="41.722206" lon="13.3512318"><ele>354.0</ele><time>2026-05-03T10:41:02.392Z</time></trkpt><trkpt lat="41.7221058" lon="13.3511953"><ele>354.0</ele><time>2026-05-03T10:41:03.398Z</time></trkpt><trkpt lat="41.7219874" lon="13.351112"><ele>354.0</ele><time>2026-05-03T10:41:04.388Z</time></trkpt><trkpt lat="41.7218693" lon="13.3510117"><ele>354.0</ele><time>2026-05-03T10:41:05.391Z</time></trkpt><trkpt lat="41.7217376" lon="13.3509107"><ele>354.0</ele><time>2026-05-03T10:41:06.4Z</time></trkpt><trkpt lat="41.7216036" lon="13.3508044"><ele>354.6666666666667</ele><time>2026-05-03T10:41:07.398Z</time></trkpt><trkpt lat="41.7214434" lon="13.3506636"><ele>355.33333333333337</ele><time>2026-05-03T10:41:08.392Z</time></trkpt><trkpt lat="41.7212657" lon="13.3504977"><ele>356.0</ele><time>2026-05-03T10:41:09.392Z</time></trkpt><trkpt lat="41.7210945" lon="13.3503292"><ele>352.33333333333337</ele><time>2026-05-03T10:41:10.39Z</time></trkpt><trkpt lat="41.7209383" lon="13.3501769"><ele>348.6666666666667</ele><time>2026-05-03T10:41:11.388Z</time></trkpt><trkpt lat="41.7208034" lon="13.350021"><ele>345.0</ele><time>2026-05-03T10:41:12.394Z</time></trkpt><trkpt lat="41.7206815" lon="13.3498513"><ele>347.0</ele><time>2026-05-03T10:41:13.394Z</time></trkpt><trkpt lat="41.7205899" lon="13.3496538"><ele>349.0</ele><time>2026-05-03T10:41:14.394Z</time></trkpt><trkpt lat="41.7205039" lon="13.3494132"><ele>351.0</ele><time>2026-05-03T10:41:15.391Z</time></trkpt><trkpt lat="41.7204282" lon="13.3491693"><ele>351.0</ele><time>2026-05-03T10:41:16.401Z</time></trkpt><trkpt lat="41.7203663" lon="13.3489434"><ele>351.0</ele><time>2026-05-03T10:41:17.392Z</time></trkpt><trkpt lat="41.7203093" lon="13.3487475"><ele>351.0</ele><time>2026-05-03T10:41:18.392Z</time></trkpt><trkpt lat="41.7202394" lon="13.3485781"><ele>345.3333333333333</ele><time>2026-05-03T10:41:19.391Z</time></trkpt><trkpt lat="41.7201405" lon="13.3484165"><ele>339.66666666666663</ele><time>2026-05-03T10:41:20.391Z</time></trkpt><trkpt lat="41.7200198" lon="13.3482869"><ele>334.0</ele><time>2026-05-03T10:41:21.392Z</time></trkpt><trkpt lat="41.719864" lon="13.3481741"><ele>334.0</ele><time>2026-05-03T10:41:22.401Z</time></trkpt><trkpt lat="41.719686" lon="13.3480797"><ele>334.0</ele><time>2026-05-03T10:41:23.393Z</time></trkpt><trkpt lat="41.7195237" lon="13.347999"><ele>334.0</ele><time>2026-05-03T10:41:24.389Z</time></trkpt><trkpt lat="41.7193777" lon="13.3479224"><ele>334.6</ele><time>2026-05-03T10:41:25.391Z</time></trkpt><trkpt lat="41.7192624" lon="13.3478645"><ele>335.2</ele><time>2026-05-03T10:41:26.393Z</time></trkpt><trkpt lat="41.7191528" lon="13.3478484"><ele>335.8</ele><time>2026-05-03T10:41:27.395Z</time></trkpt><trkpt lat="41.7190605" lon="13.3478814"><ele>336.40000000000003</ele><time>2026-05-03T10:41:28.394Z</time></trkpt><trkpt lat="41.7189749" lon="13.3479615"><ele>337.0</ele><time>2026-05-03T10:41:29.392Z</time></trkpt><trkpt lat="41.7189006" lon="13.3480819"><ele>334.75</ele><time>2026-05-03T10:41:30.395Z</time></trkpt><trkpt lat="41.7188347" lon="13.3482428"><ele>332.5</ele><time>2026-05-03T10:41:31.403Z</time></trkpt><trkpt lat="41.7187685" lon="13.3484228"><ele>330.25</ele><time>2026-05-03T10:41:32.404Z</time></trkpt><trkpt lat="41.7186999" lon="13.3485942"><ele>328.0</ele><time>2026-05-03T10:41:33.403Z</time></trkpt><trkpt lat="41.7186322" lon="13.3487372"><ele>328.0</ele><time>2026-05-03T10:41:34.391Z</time></trkpt><trkpt lat="41.7185735" lon="13.348862"><ele>328.0</ele><time>2026-05-03T10:41:35.394Z</time></trkpt><trkpt lat="41.7185232" lon="13.3489698"><ele>328.0</ele><time>2026-05-03T10:41:36.402Z</time></trkpt><trkpt lat="41.718474" lon="13.3490475"><ele>328.0</ele><time>2026-05-03T10:41:37.394Z</time></trkpt><trkpt lat="41.71839" lon="13.3491423"><ele>328.0</ele><time>2026-05-03T10:41:39.399Z</time></trkpt><trkpt lat="41.7183464" lon="13.3492191"><ele>328.66666666666663</ele><time>2026-05-03T10:41:41.4Z</time></trkpt><trkpt lat="41.7183114" lon="13.3493074"><ele>329.3333333333333</ele><time>2026-05-03T10:41:43.392Z</time></trkpt><trkpt lat="41.7181823" lon="13.3495003"><ele>330.0</ele><time>2026-05-03T10:46:34.404Z</time></trkpt><trkpt lat="41.717868" lon="13.3506128"><ele>328.5</ele><time>2026-05-03T10:46:52.402Z</time></trkpt><trkpt lat="41.7177707" lon="13.350867"><ele>327.0</ele><time>2026-05-03T10:46:54.802Z</time></trkpt><trkpt lat="41.717613" lon="13.3511028"><ele>327.0</ele><time>2026-05-03T10:46:56.394Z</time></trkpt><trkpt lat="41.717519" lon="13.3512411"><ele>327.0</ele><time>2026-05-03T10:46:57.395Z</time></trkpt><trkpt lat="41.7174042" lon="13.3513767"><ele>327.0</ele><time>2026-05-03T10:46:58.404Z</time></trkpt><trkpt lat="41.7172856" lon="13.3515365"><ele>326.6666666666667</ele><time>2026-05-03T10:46:59.403Z</time></trkpt><trkpt lat="41.7171603" lon="13.3516664"><ele>326.33333333333337</ele><time>2026-05-03T10:47:00.403Z</time></trkpt><trkpt lat="41.7170241" lon="13.3517811"><ele>326.0</ele><time>2026-05-03T10:47:01.399Z</time></trkpt><trkpt lat="41.7168736" lon="13.351884"><ele>326.0</ele><time>2026-05-03T10:47:02.402Z</time></trkpt><trkpt lat="41.7167018" lon="13.3519706"><ele>326.0</ele><time>2026-05-03T10:47:03.394Z</time></trkpt><trkpt lat="41.7165018" lon="13.3520351"><ele>326.0</ele><time>2026-05-03T10:47:04.394Z</time></trkpt><trkpt lat="41.71629" lon="13.3520798"><ele>323.5</ele><time>2026-05-03T10:47:05.405Z</time></trkpt><trkpt lat="41.7160565" lon="13.3521146"><ele>321.0</ele><time>2026-05-03T10:47:06.392Z</time></trkpt><trkpt lat="41.7158118" lon="13.3521364"><ele>321.0</ele><time>2026-05-03T10:47:07.396Z</time></trkpt><trkpt lat="41.7155801" lon="13.3521576"><ele>321.0</ele><time>2026-05-03T10:47:08.408Z</time></trkpt><trkpt lat="41.7153618" lon="13.3521734"><ele>321.3333333333333</ele><time>2026-05-03T10:47:09.397Z</time></trkpt><trkpt lat="41.7151483" lon="13.352194"><ele>321.66666666666663</ele><time>2026-05-03T10:47:10.404Z</time></trkpt><trkpt lat="41.7149432" lon="13.3522247"><ele>322.0</ele><time>2026-05-03T10:47:11.395Z</time></trkpt><trkpt lat="41.714743" lon="13.352266"><ele>321.0</ele><time>2026-05-03T10:47:12.396Z</time></trkpt><trkpt lat="41.7145444" lon="13.3523267"><ele>320.0</ele><time>2026-05-03T10:47:13.409Z</time></trkpt><trkpt lat="41.7143456" lon="13.3523999"><ele>319.0</ele><time>2026-05-03T10:47:14.409Z</time></trkpt><trkpt lat="41.7141542" lon="13.3524939"><ele>319.0</ele><time>2026-05-03T10:47:15.409Z</time></trkpt><trkpt lat="41.7139763" lon="13.3525917"><ele>319.0</ele><time>2026-05-03T10:47:16.394Z</time></trkpt><trkpt lat="41.7138009" lon="13.3527101"><ele>319.0</ele><time>2026-05-03T10:47:17.399Z</time></trkpt><trkpt lat="41.7136273" lon="13.3528422"><ele>317.66666666666663</ele><time>2026-05-03T10:47:18.394Z</time></trkpt><trkpt lat="41.7134549" lon="13.3529922"><ele>316.3333333333333</ele><time>2026-05-03T10:47:19.394Z</time></trkpt><trkpt lat="41.7132853" lon="13.3531673"><ele>315.0</ele><time>2026-05-03T10:47:20.396Z</time></trkpt><trkpt lat="41.7131171" lon="13.3533534"><ele>315.0</ele><time>2026-05-03T10:47:21.395Z</time></trkpt><trkpt lat="41.7129499" lon="13.3535658"><ele>315.0</ele><time>2026-05-03T10:47:22.395Z</time></trkpt><trkpt lat="41.7127854" lon="13.3537902"><ele>313.0</ele><time>2026-05-03T10:47:23.398Z</time></trkpt><trkpt lat="41.7126277" lon="13.3540171"><ele>311.0</ele><time>2026-05-03T10:47:24.397Z</time></trkpt><trkpt lat="41.7124748" lon="13.3542383"><ele>311.0</ele><time>2026-05-03T10:47:25.395Z</time></trkpt><trkpt lat="41.7123281" lon="13.3544502"><ele>311.0</ele><time>2026-05-03T10:47:26.399Z</time></trkpt><trkpt lat="41.7121856" lon="13.3546535"><ele>311.0</ele><time>2026-05-03T10:47:27.391Z</time></trkpt><trkpt lat="41.7120426" lon="13.3548523"><ele>309.0</ele><time>2026-05-03T10:47:28.409Z</time></trkpt><trkpt lat="41.7119047" lon="13.3550489"><ele>307.0</ele><time>2026-05-03T10:47:29.393Z</time></trkpt><trkpt lat="41.7117715" lon="13.3552394"><ele>305.0</ele><time>2026-05-03T10:47:30.396Z</time></trkpt><trkpt lat="41.7116354" lon="13.3554273"><ele>305.33333333333337</ele><time>2026-05-03T10:47:31.396Z</time></trkpt><trkpt lat="41.711506" lon="13.3556133"><ele>305.6666666666667</ele><time>2026-05-03T10:47:32.394Z</time></trkpt><trkpt lat="41.7113762" lon="13.3558006"><ele>306.0</ele><time>2026-05-03T10:47:33.395Z</time></trkpt><trkpt lat="41.7112379" lon="13.3559905"><ele>306.0</ele><time>2026-05-03T10:47:34.394Z</time></trkpt><trkpt lat="41.7110995" lon="13.3561923"><ele>306.0</ele><time>2026-05-03T10:47:35.396Z</time></trkpt><trkpt lat="41.7109583" lon="13.3563924"><ele>306.0</ele><time>2026-05-03T10:47:36.401Z</time></trkpt><trkpt lat="41.7108173" lon="13.3565957"><ele>305.0</ele><time>2026-05-03T10:47:37.395Z</time></trkpt><trkpt lat="41.7106729" lon="13.3568046"><ele>304.0</ele><time>2026-05-03T10:47:38.394Z</time></trkpt><trkpt lat="41.7105249" lon="13.3570079"><ele>303.0</ele><time>2026-05-03T10:47:39.404Z</time></trkpt><trkpt lat="41.7103779" lon="13.3572132"><ele>301.3333333333333</ele><time>2026-05-03T10:47:40.395Z</time></trkpt><trkpt lat="41.7102336" lon="13.3574202"><ele>299.66666666666663</ele><time>2026-05-03T10:47:41.397Z</time></trkpt><trkpt lat="41.7100922" lon="13.3576256"><ele>298.0</ele><time>2026-05-03T10:47:42.394Z</time></trkpt><trkpt lat="41.709958" lon="13.3578275"><ele>298.0</ele><time>2026-05-03T10:47:43.397Z</time></trkpt><trkpt lat="41.7098313" lon="13.3580046"><ele>298.0</ele><time>2026-05-03T10:47:44.396Z</time></trkpt><trkpt lat="41.709718" lon="13.3581641"><ele>298.0</ele><time>2026-05-03T10:47:45.395Z</time></trkpt><trkpt lat="41.7096127" lon="13.3583058"><ele>298.25</ele><time>2026-05-03T10:47:46.402Z</time></trkpt><trkpt lat="41.7095078" lon="13.3584302"><ele>298.5</ele><time>2026-05-03T10:47:47.396Z</time></trkpt><trkpt lat="41.7093922" lon="13.3585455"><ele>298.75</ele><time>2026-05-03T10:47:48.397Z</time></trkpt><trkpt lat="41.7092676" lon="13.3586462"><ele>299.0</ele><time>2026-05-03T10:47:49.399Z</time></trkpt><trkpt lat="41.7091435" lon="13.3587161"><ele>297.6666666666667</ele><time>2026-05-03T10:47:50.398Z</time></trkpt><trkpt lat="41.7090125" lon="13.358758"><ele>296.3333333333333</ele><time>2026-05-03T10:47:51.398Z</time></trkpt><trkpt lat="41.7088593" lon="13.3587836"><ele>295.0</ele><time>2026-05-03T10:47:52.397Z</time></trkpt><trkpt lat="41.7086957" lon="13.358797"><ele>293.66666666666663</ele><time>2026-05-03T10:47:53.396Z</time></trkpt><trkpt lat="41.7085069" lon="13.3587859"><ele>292.3333333333333</ele><time>2026-05-03T10:47:54.394Z</time></trkpt><trkpt lat="41.7083012" lon="13.3587733"><ele>291.0</ele><time>2026-05-03T10:47:55.392Z</time></trkpt><trkpt lat="41.7080892" lon="13.3587569"><ele>291.0</ele><time>2026-05-03T10:47:56.393Z</time></trkpt><trkpt lat="41.7078806" lon="13.3587388"><ele>291.0</ele><time>2026-05-03T10:47:57.403Z</time></trkpt><trkpt lat="41.7076802" lon="13.3587201"><ele>291.0</ele><time>2026-05-03T10:47:58.398Z</time></trkpt><trkpt lat="41.7074841" lon="13.3587029"><ele>289.6666666666667</ele><time>2026-05-03T10:47:59.393Z</time></trkpt><trkpt lat="41.707296" lon="13.3586869"><ele>288.33333333333337</ele><time>2026-05-03T10:48:00.394Z</time></trkpt><trkpt lat="41.7071124" lon="13.3586707"><ele>287.0</ele><time>2026-05-03T10:48:01.404Z</time></trkpt><trkpt lat="41.706936" lon="13.3586578"><ele>285.6666666666667</ele><time>2026-05-03T10:48:02.394Z</time></trkpt><trkpt lat="41.7067673" lon="13.3586424"><ele>284.3333333333333</ele><time>2026-05-03T10:48:03.395Z</time></trkpt><trkpt lat="41.7066062" lon="13.3586287"><ele>283.0</ele><time>2026-05-03T10:48:04.404Z</time></trkpt><trkpt lat="41.7064463" lon="13.3586139"><ele>283.0</ele><time>2026-05-03T10:48:05.396Z</time></trkpt><trkpt lat="41.7062823" lon="13.3585948"><ele>283.0</ele><time>2026-05-03T10:48:06.393Z</time></trkpt><trkpt lat="41.7061236" lon="13.35856"><ele>283.0</ele><time>2026-05-03T10:48:07.394Z</time></trkpt><trkpt lat="41.7059596" lon="13.3585133"><ele>283.3333333333333</ele><time>2026-05-03T10:48:08.394Z</time></trkpt><trkpt lat="41.7057865" lon="13.3584582"><ele>283.6666666666667</ele><time>2026-05-03T10:48:09.395Z</time></trkpt><trkpt lat="41.7056022" lon="13.3583885"><ele>284.0</ele><time>2026-05-03T10:48:10.398Z</time></trkpt><trkpt lat="41.7054075" lon="13.3583089"><ele>284.0</ele><time>2026-05-03T10:48:11.395Z</time></trkpt><trkpt lat="41.7052112" lon="13.3582277"><ele>284.0</ele><time>2026-05-03T10:48:12.393Z</time></trkpt><trkpt lat="41.7050075" lon="13.3581488"><ele>284.0</ele><time>2026-05-03T10:48:13.41Z</time></trkpt><trkpt lat="41.7047999" lon="13.3580804"><ele>283.33333333333337</ele><time>2026-05-03T10:48:14.389Z</time></trkpt><trkpt lat="41.7045887" lon="13.3580191"><ele>282.6666666666667</ele><time>2026-05-03T10:48:15.403Z</time></trkpt><trkpt lat="41.7043727" lon="13.3579648"><ele>282.0</ele><time>2026-05-03T10:48:16.411Z</time></trkpt><trkpt lat="41.7041373" lon="13.3579102"><ele>282.0</ele><time>2026-05-03T10:48:17.397Z</time></trkpt><trkpt lat="41.7038709" lon="13.3578534"><ele>282.0</ele><time>2026-05-03T10:48:18.403Z</time></trkpt><trkpt lat="41.7035797" lon="13.3577924"><ele>281.5</ele><time>2026-05-03T10:48:19.405Z</time></trkpt><trkpt lat="41.7033062" lon="13.3577326"><ele>281.0</ele><time>2026-05-03T10:48:20.396Z</time></trkpt><trkpt lat="41.7030437" lon="13.3576777"><ele>281.0</ele><time>2026-05-03T10:48:21.405Z</time></trkpt><trkpt lat="41.7027706" lon="13.3576163"><ele>281.0</ele><time>2026-05-03T10:48:22.395Z</time></trkpt><trkpt lat="41.7024924" lon="13.357548"><ele>279.5</ele><time>2026-05-03T10:48:23.393Z</time></trkpt><trkpt lat="41.7022095" lon="13.3574757"><ele>278.0</ele><time>2026-05-03T10:48:24.399Z</time></trkpt><trkpt lat="41.7019293" lon="13.3574017"><ele>277.5</ele><time>2026-05-03T10:48:25.395Z</time></trkpt><trkpt lat="41.7016584" lon="13.3573251"><ele>277.0</ele><time>2026-05-03T10:48:26.395Z</time></trkpt><trkpt lat="41.7013997" lon="13.3572562"><ele>277.0</ele><time>2026-05-03T10:48:27.399Z</time></trkpt><trkpt lat="41.7011458" lon="13.3571842"><ele>277.0</ele><time>2026-05-03T10:48:28.396Z</time></trkpt><trkpt lat="41.700894" lon="13.3571049"><ele>276.5</ele><time>2026-05-03T10:48:29.4Z</time></trkpt><trkpt lat="41.700651" lon="13.3570234"><ele>276.0</ele><time>2026-05-03T10:48:30.397Z</time></trkpt><trkpt lat="41.7004051" lon="13.3569434"><ele>275.0</ele><time>2026-05-03T10:48:31.406Z</time></trkpt><trkpt lat="41.700165" lon="13.3568569"><ele>274.0</ele><time>2026-05-03T10:48:32.402Z</time></trkpt><trkpt lat="41.699931" lon="13.3567653"><ele>274.0</ele><time>2026-05-03T10:48:33.395Z</time></trkpt><trkpt lat="41.6997107" lon="13.3566821"><ele>274.0</ele><time>2026-05-03T10:48:34.394Z</time></trkpt><trkpt lat="41.6994978" lon="13.3566115"><ele>274.0</ele><time>2026-05-03T10:48:35.404Z</time></trkpt><trkpt lat="41.6992915" lon="13.356541"><ele>274.0</ele><time>2026-05-03T10:48:36.397Z</time></trkpt><trkpt lat="41.6990979" lon="13.3564574"><ele>274.0</ele><time>2026-05-03T10:48:37.396Z</time></trkpt><trkpt lat="41.698914" lon="13.3563618"><ele>274.0</ele><time>2026-05-03T10:48:38.396Z</time></trkpt><trkpt lat="41.6987429" lon="13.3562573"><ele>273.0</ele><time>2026-05-03T10:48:39.397Z</time></trkpt><trkpt lat="41.6985731" lon="13.3561402"><ele>272.0</ele><time>2026-05-03T10:48:40.396Z</time></trkpt><trkpt lat="41.6984124" lon="13.3560175"><ele>271.0</ele><time>2026-05-03T10:48:41.397Z</time></trkpt><trkpt lat="41.6982529" lon="13.3558883"><ele>271.0</ele><time>2026-05-03T10:48:42.399Z</time></trkpt><trkpt lat="41.698096" lon="13.3557424"><ele>271.0</ele><time>2026-05-03T10:48:43.392Z</time></trkpt><trkpt lat="41.6979417" lon="13.3555701"><ele>271.0</ele><time>2026-05-03T10:48:44.396Z</time></trkpt><trkpt lat="41.6977958" lon="13.3553784"><ele>270.3333333333333</ele><time>2026-05-03T10:48:45.398Z</time></trkpt><trkpt lat="41.6976626" lon="13.3551738"><ele>269.6666666666667</ele><time>2026-05-03T10:48:46.397Z</time></trkpt><trkpt lat="41.6975367" lon="13.3549625"><ele>269.0</ele><time>2026-05-03T10:48:47.393Z</time></trkpt><trkpt lat="41.697425" lon="13.3547521"><ele>269.6666666666667</ele><time>2026-05-03T10:48:48.394Z</time></trkpt><trkpt lat="41.6973175" lon="13.3545544"><ele>270.3333333333333</ele><time>2026-05-03T10:48:49.403Z</time></trkpt><trkpt lat="41.6972019" lon="13.354367"><ele>271.0</ele><time>2026-05-03T10:48:50.395Z</time></trkpt><trkpt lat="41.6970842" lon="13.3542065"><ele>271.0</ele><time>2026-05-03T10:48:51.406Z</time></trkpt><trkpt lat="41.6969552" lon="13.3540649"><ele>271.0</ele><time>2026-05-03T10:48:52.396Z</time></trkpt><trkpt lat="41.6968254" lon="13.353942"><ele>271.0</ele><time>2026-05-03T10:48:53.403Z</time></trkpt><trkpt lat="41.6966958" lon="13.3538288"><ele>270.25</ele><time>2026-05-03T10:48:54.395Z</time></trkpt><trkpt lat="41.6965755" lon="13.3537243"><ele>269.5</ele><time>2026-05-03T10:48:55.395Z</time></trkpt><trkpt lat="41.6964658" lon="13.3536302"><ele>268.75</ele><time>2026-05-03T10:48:56.395Z</time></trkpt><trkpt lat="41.6963648" lon="13.353542"><ele>268.0</ele><time>2026-05-03T10:48:57.394Z</time></trkpt><trkpt lat="41.6962665" lon="13.3534606"><ele>268.0</ele><time>2026-05-03T10:48:58.399Z</time></trkpt><trkpt lat="41.6961738" lon="13.3533849"><ele>268.0</ele><time>2026-05-03T10:48:59.396Z</time></trkpt><trkpt lat="41.6960833" lon="13.3533109"><ele>268.0</ele><time>2026-05-03T10:49:00.397Z</time></trkpt><trkpt lat="41.6959959" lon="13.3532332"><ele>268.0</ele><time>2026-05-03T10:49:01.394Z</time></trkpt><trkpt lat="41.6958961" lon="13.353159"><ele>268.0</ele><time>2026-05-03T10:49:02.396Z</time></trkpt><trkpt lat="41.6957947" lon="13.3530866"><ele>267.25</ele><time>2026-05-03T10:49:03.397Z</time></trkpt><trkpt lat="41.6956875" lon="13.3530142"><ele>266.5</ele><time>2026-05-03T10:49:04.396Z</time></trkpt><trkpt lat="41.6955676" lon="13.3529454"><ele>265.75</ele><time>2026-05-03T10:49:05.401Z</time></trkpt><trkpt lat="41.6954247" lon="13.3528793"><ele>265.0</ele><time>2026-05-03T10:49:06.405Z</time></trkpt><trkpt lat="41.6952698" lon="13.3528076"><ele>264.66666666666663</ele><time>2026-05-03T10:49:07.396Z</time></trkpt><trkpt lat="41.6951061" lon="13.3527373"><ele>264.3333333333333</ele><time>2026-05-03T10:49:08.406Z</time></trkpt><trkpt lat="41.6949313" lon="13.3526667"><ele>264.0</ele><time>2026-05-03T10:49:09.397Z</time></trkpt><trkpt lat="41.6947469" lon="13.3525994"><ele>264.0</ele><time>2026-05-03T10:49:10.396Z</time></trkpt><trkpt lat="41.6945649" lon="13.3525306"><ele>264.0</ele><time>2026-05-03T10:49:11.396Z</time></trkpt><trkpt lat="41.6943903" lon="13.3524685"><ele>264.0</ele><time>2026-05-03T10:49:12.395Z</time></trkpt><trkpt lat="41.6942347" lon="13.3524187"><ele>263.3333333333333</ele><time>2026-05-03T10:49:13.398Z</time></trkpt><trkpt lat="41.6940643" lon="13.3523627"><ele>262.66666666666663</ele><time>2026-05-03T10:49:14.396Z</time></trkpt><trkpt lat="41.6939037" lon="13.3523066"><ele>262.0</ele><time>2026-05-03T10:49:15.395Z</time></trkpt><trkpt lat="41.6937552" lon="13.3522618"><ele>262.0</ele><time>2026-05-03T10:49:16.394Z</time></trkpt><trkpt lat="41.69362" lon="13.3522188"><ele>262.0</ele><time>2026-05-03T10:49:17.395Z</time></trkpt><trkpt lat="41.6934818" lon="13.3521735"><ele>262.0</ele><time>2026-05-03T10:49:18.395Z</time></trkpt><trkpt lat="41.6933397" lon="13.3521307"><ele>262.0</ele><time>2026-05-03T10:49:19.402Z</time></trkpt><trkpt lat="41.6931907" lon="13.3520995"><ele>261.66666666666663</ele><time>2026-05-03T10:49:20.399Z</time></trkpt><trkpt lat="41.6930283" lon="13.3520825"><ele>261.3333333333333</ele><time>2026-05-03T10:49:21.393Z</time></trkpt><trkpt lat="41.6928495" lon="13.3520644"><ele>261.0</ele><time>2026-05-03T10:49:22.395Z</time></trkpt><trkpt lat="41.6926625" lon="13.3520505"><ele>260.3333333333333</ele><time>2026-05-03T10:49:23.397Z</time></trkpt><trkpt lat="41.6924788" lon="13.3520477"><ele>259.66666666666663</ele><time>2026-05-03T10:49:24.394Z</time></trkpt><trkpt lat="41.6922892" lon="13.3520502"><ele>259.0</ele><time>2026-05-03T10:49:25.396Z</time></trkpt><trkpt lat="41.6921194" lon="13.3520564"><ele>259.0</ele><time>2026-05-03T10:49:26.397Z</time></trkpt><trkpt lat="41.691961" lon="13.3520619"><ele>259.0</ele><time>2026-05-03T10:49:27.395Z</time></trkpt><trkpt lat="41.6918074" lon="13.352068"><ele>259.0</ele><time>2026-05-03T10:49:28.394Z</time></trkpt><trkpt lat="41.6916565" lon="13.3520713"><ele>259.0</ele><time>2026-05-03T10:49:29.407Z</time></trkpt><trkpt lat="41.6915059" lon="13.3520748"><ele>259.0</ele><time>2026-05-03T10:49:30.402Z</time></trkpt><trkpt lat="41.691361" lon="13.3520726"><ele>259.0</ele><time>2026-05-03T10:49:31.392Z</time></trkpt><trkpt lat="41.6912193" lon="13.3520642"><ele>259.0</ele><time>2026-05-03T10:49:32.404Z</time></trkpt><trkpt lat="41.6910914" lon="13.3520517"><ele>259.2</ele><time>2026-05-03T10:49:33.397Z</time></trkpt><trkpt lat="41.6909738" lon="13.3520335"><ele>259.4</ele><time>2026-05-03T10:49:34.395Z</time></trkpt><trkpt lat="41.690877" lon="13.3520145"><ele>259.6</ele><time>2026-05-03T10:49:35.395Z</time></trkpt><trkpt lat="41.6907981" lon="13.3520038"><ele>259.8</ele><time>2026-05-03T10:49:36.395Z</time></trkpt><trkpt lat="41.690731" lon="13.3519847"><ele>260.0</ele><time>2026-05-03T10:49:37.403Z</time></trkpt><trkpt lat="41.6906436" lon="13.3519594"><ele>260.0</ele><time>2026-05-03T10:49:39.407Z</time></trkpt><trkpt lat="41.6905741" lon="13.3519317"><ele>260.0</ele><time>2026-05-03T10:49:41.394Z</time></trkpt><trkpt lat="41.690509" lon="13.3519247"><ele>260.0</ele><time>2026-05-03T10:49:43.394Z</time></trkpt><trkpt lat="41.6904284" lon="13.3519044"><ele>260.0</ele><time>2026-05-03T10:49:46.407Z</time></trkpt><trkpt lat="41.6903585" lon="13.3519082"><ele>260.0</ele><time>2026-05-03T10:50:17.398Z</time></trkpt><trkpt lat="41.6902109" lon="13.3518909"><ele>260.0</ele><time>2026-05-03T10:50:19.398Z</time></trkpt><trkpt lat="41.690097" lon="13.3518735"><ele>259.0</ele><time>2026-05-03T10:50:20.396Z</time></trkpt><trkpt lat="41.6899526" lon="13.35185"><ele>258.0</ele><time>2026-05-03T10:50:21.397Z</time></trkpt><trkpt lat="41.6897891" lon="13.3518234"><ele>257.0</ele><time>2026-05-03T10:50:22.397Z</time></trkpt><trkpt lat="41.6896178" lon="13.3517992"><ele>257.0</ele><time>2026-05-03T10:50:23.402Z</time></trkpt><trkpt lat="41.6894406" lon="13.3517714"><ele>257.0</ele><time>2026-05-03T10:50:24.397Z</time></trkpt><trkpt lat="41.6892621" lon="13.3517393"><ele>257.0</ele><time>2026-05-03T10:50:25.397Z</time></trkpt><trkpt lat="41.6890754" lon="13.3517065"><ele>256.0</ele><time>2026-05-03T10:50:26.409Z</time></trkpt><trkpt lat="41.6888803" lon="13.3516789"><ele>255.0</ele><time>2026-05-03T10:50:27.396Z</time></trkpt><trkpt lat="41.6886758" lon="13.3516486"><ele>254.0</ele><time>2026-05-03T10:50:28.397Z</time></trkpt><trkpt lat="41.6884406" lon="13.3516105"><ele>253.5</ele><time>2026-05-03T10:50:29.408Z</time></trkpt><trkpt lat="41.6881709" lon="13.3515781"><ele>253.0</ele><time>2026-05-03T10:50:30.402Z</time></trkpt><trkpt lat="41.6878854" lon="13.3515529"><ele>252.5</ele><time>2026-05-03T10:50:31.399Z</time></trkpt><trkpt lat="41.6875865" lon="13.3515194"><ele>252.0</ele><time>2026-05-03T10:50:32.397Z</time></trkpt><trkpt lat="41.6872994" lon="13.3514783"><ele>252.0</ele><time>2026-05-03T10:50:33.404Z</time></trkpt><trkpt lat="41.6870255" lon="13.351426"><ele>252.0</ele><time>2026-05-03T10:50:34.407Z</time></trkpt><trkpt lat="41.686767" lon="13.3513785"><ele>252.5</ele><time>2026-05-03T10:50:35.399Z</time></trkpt><trkpt lat="41.6865155" lon="13.3513265"><ele>253.0</ele><time>2026-05-03T10:50:36.402Z</time></trkpt><trkpt lat="41.6862697" lon="13.3512738"><ele>251.5</ele><time>2026-05-03T10:50:37.397Z</time></trkpt><trkpt lat="41.6860309" lon="13.3512203"><ele>250.0</ele><time>2026-05-03T10:50:38.397Z</time></trkpt><trkpt lat="41.6857968" lon="13.3511664"><ele>250.0</ele><time>2026-05-03T10:50:39.396Z</time></trkpt><trkpt lat="41.6855736" lon="13.3511134"><ele>250.0</ele><time>2026-05-03T10:50:40.396Z</time></trkpt><trkpt lat="41.6853643" lon="13.3510676"><ele>250.0</ele><time>2026-05-03T10:50:41.397Z</time></trkpt><trkpt lat="41.6851556" lon="13.3510392"><ele>249.66666666666666</ele><time>2026-05-03T10:50:42.402Z</time></trkpt><trkpt lat="41.6849475" lon="13.3510376"><ele>249.33333333333331</ele><time>2026-05-03T10:50:43.398Z</time></trkpt><trkpt lat="41.6847323" lon="13.351058"><ele>249.0</ele><time>2026-05-03T10:50:44.407Z</time></trkpt><trkpt lat="41.6845069" lon="13.3511001"><ele>248.5</ele><time>2026-05-03T10:50:45.4Z</time></trkpt><trkpt lat="41.6842702" lon="13.3511474"><ele>248.0</ele><time>2026-05-03T10:50:46.397Z</time></trkpt><trkpt lat="41.6840308" lon="13.3511942"><ele>248.0</ele><time>2026-05-03T10:50:47.402Z</time></trkpt><trkpt lat="41.6838026" lon="13.3512385"><ele>248.0</ele><time>2026-05-03T10:50:48.398Z</time></trkpt><trkpt lat="41.683579" lon="13.3512716"><ele>247.33333333333334</ele><time>2026-05-03T10:50:49.407Z</time></trkpt><trkpt lat="41.683362" lon="13.3512914"><ele>246.66666666666669</ele><time>2026-05-03T10:50:50.398Z</time></trkpt><trkpt lat="41.6831498" lon="13.3512953"><ele>246.0</ele><time>2026-05-03T10:50:51.404Z</time></trkpt><trkpt lat="41.6829472" lon="13.3512945"><ele>245.66666666666669</ele><time>2026-05-03T10:50:52.407Z</time></trkpt><trkpt lat="41.6827517" lon="13.3512804"><ele>245.33333333333334</ele><time>2026-05-03T10:50:53.397Z</time></trkpt><trkpt lat="41.6825744" lon="13.3512525"><ele>245.0</ele><time>2026-05-03T10:50:54.397Z</time></trkpt><trkpt lat="41.6823984" lon="13.351212"><ele>245.0</ele><time>2026-05-03T10:50:55.395Z</time></trkpt><trkpt lat="41.6822253" lon="13.3511648"><ele>245.0</ele><time>2026-05-03T10:50:56.397Z</time></trkpt><trkpt lat="41.682058" lon="13.3511012"><ele>245.0</ele><time>2026-05-03T10:50:57.398Z</time></trkpt><trkpt lat="41.681897" lon="13.3510306"><ele>244.66666666666669</ele><time>2026-05-03T10:50:58.407Z</time></trkpt><trkpt lat="41.6817381" lon="13.3509527"><ele>244.33333333333331</ele><time>2026-05-03T10:50:59.397Z</time></trkpt><trkpt lat="41.6815742" lon="13.3508645"><ele>244.0</ele><time>2026-05-03T10:51:00.396Z</time></trkpt><trkpt lat="41.6814082" lon="13.3507767"><ele>244.0</ele><time>2026-05-03T10:51:01.4Z</time></trkpt><trkpt lat="41.6812424" lon="13.3506784"><ele>244.0</ele><time>2026-05-03T10:51:02.402Z</time></trkpt><trkpt lat="41.6810729" lon="13.3505779"><ele>244.0</ele><time>2026-05-03T10:51:03.397Z</time></trkpt><trkpt lat="41.6809037" lon="13.3504793"><ele>243.0</ele><time>2026-05-03T10:51:04.407Z</time></trkpt><trkpt lat="41.680729" lon="13.3503792"><ele>242.0</ele><time>2026-05-03T10:51:05.397Z</time></trkpt><trkpt lat="41.6805461" lon="13.350282"><ele>241.0</ele><time>2026-05-03T10:51:06.407Z</time></trkpt><trkpt lat="41.6803626" lon="13.3501857"><ele>240.66666666666666</ele><time>2026-05-03T10:51:07.398Z</time></trkpt><trkpt lat="41.680168" lon="13.3500948"><ele>240.33333333333331</ele><time>2026-05-03T10:51:08.407Z</time></trkpt><trkpt lat="41.6799789" lon="13.3500123"><ele>240.0</ele><time>2026-05-03T10:51:09.397Z</time></trkpt><trkpt lat="41.679806" lon="13.3499451"><ele>240.0</ele><time>2026-05-03T10:51:10.395Z</time></trkpt><trkpt lat="41.6796444" lon="13.349882"><ele>240.0</ele><time>2026-05-03T10:51:11.397Z</time></trkpt><trkpt lat="41.6794816" lon="13.3498175"><ele>240.0</ele><time>2026-05-03T10:51:12.407Z</time></trkpt><trkpt lat="41.6793148" lon="13.3497598"><ele>239.66666666666669</ele><time>2026-05-03T10:51:13.401Z</time></trkpt><trkpt lat="41.6791391" lon="13.3496973"><ele>239.33333333333334</ele><time>2026-05-03T10:51:14.398Z</time></trkpt><trkpt lat="41.6789563" lon="13.3496338"><ele>239.0</ele><time>2026-05-03T10:51:15.397Z</time></trkpt><trkpt lat="41.6787563" lon="13.3495685"><ele>238.66666666666669</ele><time>2026-05-03T10:51:16.409Z</time></trkpt><trkpt lat="41.6785468" lon="13.3495021"><ele>238.33333333333331</ele><time>2026-05-03T10:51:17.399Z</time></trkpt><trkpt lat="41.6783292" lon="13.3494446"><ele>238.0</ele><time>2026-05-03T10:51:18.397Z</time></trkpt><trkpt lat="41.6781057" lon="13.3493892"><ele>238.0</ele><time>2026-05-03T10:51:19.396Z</time></trkpt><trkpt lat="41.6778905" lon="13.3493301"><ele>238.0</ele><time>2026-05-03T10:51:20.397Z</time></trkpt><trkpt lat="41.6776877" lon="13.3492787"><ele>238.0</ele><time>2026-05-03T10:51:21.402Z</time></trkpt><trkpt lat="41.6775" lon="13.3492337"><ele>238.0</ele><time>2026-05-03T10:51:22.395Z</time></trkpt><trkpt lat="41.6773256" lon="13.3491906"><ele>238.0</ele><time>2026-05-03T10:51:23.398Z</time></trkpt><trkpt lat="41.6771619" lon="13.349153"><ele>238.0</ele><time>2026-05-03T10:51:24.397Z</time></trkpt><trkpt lat="41.6769973" lon="13.3491121"><ele>237.33333333333331</ele><time>2026-05-03T10:51:25.392Z</time></trkpt><trkpt lat="41.6768262" lon="13.34907"><ele>236.66666666666669</ele><time>2026-05-03T10:51:26.402Z</time></trkpt><trkpt lat="41.6766536" lon="13.3490269"><ele>236.0</ele><time>2026-05-03T10:51:27.398Z</time></trkpt><trkpt lat="41.6764745" lon="13.348981"><ele>236.0</ele><time>2026-05-03T10:51:28.404Z</time></trkpt><trkpt lat="41.6762863" lon="13.3489219"><ele>236.0</ele><time>2026-05-03T10:51:29.403Z</time></trkpt><trkpt lat="41.6760984" lon="13.3488573"><ele>236.0</ele><time>2026-05-03T10:51:30.396Z</time></trkpt><trkpt lat="41.6759146" lon="13.3487783"><ele>235.33333333333334</ele><time>2026-05-03T10:51:31.401Z</time></trkpt><trkpt lat="41.675735" lon="13.3486899"><ele>234.66666666666669</ele><time>2026-05-03T10:51:32.401Z</time></trkpt><trkpt lat="41.6755592" lon="13.3485944"><ele>234.0</ele><time>2026-05-03T10:51:33.396Z</time></trkpt><trkpt lat="41.6753911" lon="13.3484966"><ele>234.0</ele><time>2026-05-03T10:51:34.406Z</time></trkpt><trkpt lat="41.6752293" lon="13.3484071"><ele>234.0</ele><time>2026-05-03T10:51:35.394Z</time></trkpt><trkpt lat="41.6750546" lon="13.3483255"><ele>234.0</ele><time>2026-05-03T10:51:36.394Z</time></trkpt><trkpt lat="41.6748571" lon="13.3482421"><ele>234.0</ele><time>2026-05-03T10:51:37.394Z</time></trkpt><trkpt lat="41.6746273" lon="13.348163"><ele>234.0</ele><time>2026-05-03T10:51:38.403Z</time></trkpt><trkpt lat="41.6743799" lon="13.3480798"><ele>233.0</ele><time>2026-05-03T10:51:39.392Z</time></trkpt><trkpt lat="41.674137" lon="13.3479983"><ele>232.0</ele><time>2026-05-03T10:51:40.399Z</time></trkpt><trkpt lat="41.6739114" lon="13.3479185"><ele>232.0</ele><time>2026-05-03T10:51:41.398Z</time></trkpt><trkpt lat="41.6736972" lon="13.3478494"><ele>232.0</ele><time>2026-05-03T10:51:42.397Z</time></trkpt><trkpt lat="41.6734883" lon="13.3477814"><ele>232.0</ele><time>2026-05-03T10:51:43.398Z</time></trkpt><trkpt lat="41.673289" lon="13.3477237"><ele>231.33333333333331</ele><time>2026-05-03T10:51:44.395Z</time></trkpt><trkpt lat="41.6730826" lon="13.3476812"><ele>230.66666666666669</ele><time>2026-05-03T10:51:45.397Z</time></trkpt><trkpt lat="41.6728634" lon="13.3476567"><ele>230.0</ele><time>2026-05-03T10:51:46.406Z</time></trkpt><trkpt lat="41.6726322" lon="13.3476642"><ele>229.5</ele><time>2026-05-03T10:51:47.406Z</time></trkpt><trkpt lat="41.6723961" lon="13.3476864"><ele>229.0</ele><time>2026-05-03T10:51:48.397Z</time></trkpt><trkpt lat="41.6721479" lon="13.3477053"><ele>228.5</ele><time>2026-05-03T10:51:49.394Z</time></trkpt><trkpt lat="41.6718991" lon="13.3477371"><ele>228.0</ele><time>2026-05-03T10:51:50.395Z</time></trkpt><trkpt lat="41.6716636" lon="13.3477607"><ele>228.0</ele><time>2026-05-03T10:51:51.397Z</time></trkpt><trkpt lat="41.6714256" lon="13.3477825"><ele>228.0</ele><time>2026-05-03T10:51:52.406Z</time></trkpt><trkpt lat="41.6711918" lon="13.347808"><ele>226.5</ele><time>2026-05-03T10:51:53.394Z</time></trkpt><trkpt lat="41.6709613" lon="13.3478378"><ele>225.0</ele><time>2026-05-03T10:51:54.402Z</time></trkpt><trkpt lat="41.6707341" lon="13.3478696"><ele>225.0</ele><time>2026-05-03T10:51:55.387Z</time></trkpt><trkpt lat="41.6705168" lon="13.3479033"><ele>225.0</ele><time>2026-05-03T10:51:56.397Z</time></trkpt><trkpt lat="41.6703094" lon="13.3479368"><ele>225.0</ele><time>2026-05-03T10:51:57.398Z</time></trkpt><trkpt lat="41.6701106" lon="13.3479671"><ele>224.33333333333331</ele><time>2026-05-03T10:51:58.395Z</time></trkpt><trkpt lat="41.6699102" lon="13.3479825"><ele>223.66666666666666</ele><time>2026-05-03T10:51:59.396Z</time></trkpt><trkpt lat="41.6697084" lon="13.3479829"><ele>223.0</ele><time>2026-05-03T10:52:00.394Z</time></trkpt><trkpt lat="41.6695038" lon="13.3479546"><ele>221.5</ele><time>2026-05-03T10:52:01.395Z</time></trkpt><trkpt lat="41.6692872" lon="13.3478932"><ele>220.0</ele><time>2026-05-03T10:52:02.404Z</time></trkpt><trkpt lat="41.66906" lon="13.3478042"><ele>220.0</ele><time>2026-05-03T10:52:03.397Z</time></trkpt><trkpt lat="41.6688245" lon="13.3476991"><ele>220.0</ele><time>2026-05-03T10:52:04.397Z</time></trkpt><trkpt lat="41.6685826" lon="13.3475972"><ele>220.0</ele><time>2026-05-03T10:52:05.393Z</time></trkpt><trkpt lat="41.6683341" lon="13.3474941"><ele>220.0</ele><time>2026-05-03T10:52:06.398Z</time></trkpt><trkpt lat="41.6680841" lon="13.3473936"><ele>220.0</ele><time>2026-05-03T10:52:07.394Z</time></trkpt><trkpt lat="41.6678325" lon="13.3472882"><ele>220.0</ele><time>2026-05-03T10:52:08.399Z</time></trkpt><trkpt lat="41.6675808" lon="13.3471817"><ele>219.0</ele><time>2026-05-03T10:52:09.396Z</time></trkpt><trkpt lat="41.6673315" lon="13.3470777"><ele>218.0</ele><time>2026-05-03T10:52:10.393Z</time></trkpt><trkpt lat="41.6670816" lon="13.3469668"><ele>218.0</ele><time>2026-05-03T10:52:11.394Z</time></trkpt><trkpt lat="41.6668314" lon="13.3468551"><ele>218.0</ele><time>2026-05-03T10:52:12.399Z</time></trkpt><trkpt lat="41.666586" lon="13.3467469"><ele>218.0</ele><time>2026-05-03T10:52:13.404Z</time></trkpt><trkpt lat="41.6663449" lon="13.3466359"><ele>218.0</ele><time>2026-05-03T10:52:14.394Z</time></trkpt><trkpt lat="41.6661069" lon="13.346509"><ele>217.0</ele><time>2026-05-03T10:52:15.395Z</time></trkpt><trkpt lat="41.66587" lon="13.3463779"><ele>216.0</ele><time>2026-05-03T10:52:16.407Z</time></trkpt><trkpt lat="41.6656394" lon="13.346244"><ele>216.0</ele><time>2026-05-03T10:52:17.391Z</time></trkpt><trkpt lat="41.6654114" lon="13.3461102"><ele>216.0</ele><time>2026-05-03T10:52:18.399Z</time></trkpt><trkpt lat="41.6651822" lon="13.3459795"><ele>215.0</ele><time>2026-05-03T10:52:19.395Z</time></trkpt><trkpt lat="41.664952" lon="13.3458491"><ele>214.0</ele><time>2026-05-03T10:52:20.407Z</time></trkpt><trkpt lat="41.6647226" lon="13.3457114"><ele>214.0</ele><time>2026-05-03T10:52:21.407Z</time></trkpt><trkpt lat="41.6644906" lon="13.345579"><ele>214.0</ele><time>2026-05-03T10:52:22.397Z</time></trkpt><trkpt lat="41.6642526" lon="13.3454532"><ele>214.0</ele><time>2026-05-03T10:52:23.398Z</time></trkpt><trkpt lat="41.6640137" lon="13.3453329"><ele>214.0</ele><time>2026-05-03T10:52:24.397Z</time></trkpt><trkpt lat="41.6637707" lon="13.3452269"><ele>214.0</ele><time>2026-05-03T10:52:25.399Z</time></trkpt><trkpt lat="41.6635285" lon="13.3451354"><ele>214.0</ele><time>2026-05-03T10:52:26.398Z</time></trkpt><trkpt lat="41.6632865" lon="13.3450587"><ele>214.0</ele><time>2026-05-03T10:52:27.405Z</time></trkpt><trkpt lat="41.6630568" lon="13.3449959"><ele>214.0</ele><time>2026-05-03T10:52:28.398Z</time></trkpt><trkpt lat="41.6628343" lon="13.3449367"><ele>213.66666666666666</ele><time>2026-05-03T10:52:29.407Z</time></trkpt><trkpt lat="41.6626157" lon="13.3448717"><ele>213.33333333333331</ele><time>2026-05-03T10:52:30.404Z</time></trkpt><trkpt lat="41.6623983" lon="13.3448036"><ele>213.0</ele><time>2026-05-03T10:52:31.398Z</time></trkpt><trkpt lat="41.6621796" lon="13.344732"><ele>212.5</ele><time>2026-05-03T10:52:32.396Z</time></trkpt><trkpt lat="41.6619603" lon="13.3446645"><ele>212.0</ele><time>2026-05-03T10:52:33.4Z</time></trkpt><trkpt lat="41.6617383" lon="13.344606"><ele>212.0</ele><time>2026-05-03T10:52:34.408Z</time></trkpt><trkpt lat="41.6615135" lon="13.3445486"><ele>212.0</ele><time>2026-05-03T10:52:35.408Z</time></trkpt><trkpt lat="41.6612893" lon="13.3445016"><ele>211.33333333333334</ele><time>2026-05-03T10:52:36.408Z</time></trkpt><trkpt lat="41.6610718" lon="13.3444599"><ele>210.66666666666669</ele><time>2026-05-03T10:52:37.403Z</time></trkpt><trkpt lat="41.6608603" lon="13.344419"><ele>210.0</ele><time>2026-05-03T10:52:38.402Z</time></trkpt><trkpt lat="41.6606512" lon="13.3443871"><ele>210.0</ele><time>2026-05-03T10:52:39.396Z</time></trkpt><trkpt lat="41.6604417" lon="13.3443731"><ele>210.0</ele><time>2026-05-03T10:52:40.397Z</time></trkpt><trkpt lat="41.6602392" lon="13.3443766"><ele>210.0</ele><time>2026-05-03T10:52:41.41Z</time></trkpt><trkpt lat="41.6600402" lon="13.3443933"><ele>209.66666666666669</ele><time>2026-05-03T10:52:42.399Z</time></trkpt><trkpt lat="41.6598381" lon="13.3444018"><ele>209.33333333333334</ele><time>2026-05-03T10:52:43.398Z</time></trkpt><trkpt lat="41.6596187" lon="13.3443902"><ele>209.0</ele><time>2026-05-03T10:52:44.398Z</time></trkpt><trkpt lat="41.6593833" lon="13.3443592"><ele>207.5</ele><time>2026-05-03T10:52:45.406Z</time></trkpt><trkpt lat="41.6591322" lon="13.3443101"><ele>206.0</ele><time>2026-05-03T10:52:46.399Z</time></trkpt><trkpt lat="41.6588725" lon="13.3442586"><ele>206.0</ele><time>2026-05-03T10:52:47.404Z</time></trkpt><trkpt lat="41.6586166" lon="13.3442083"><ele>206.0</ele><time>2026-05-03T10:52:48.405Z</time></trkpt><trkpt lat="41.6583633" lon="13.3441624"><ele>206.0</ele><time>2026-05-03T10:52:49.398Z</time></trkpt><trkpt lat="41.6581138" lon="13.3441195"><ele>206.0</ele><time>2026-05-03T10:52:50.407Z</time></trkpt><trkpt lat="41.6578648" lon="13.3440765"><ele>205.5</ele><time>2026-05-03T10:52:51.408Z</time></trkpt><trkpt lat="41.657619" lon="13.3440367"><ele>205.0</ele><time>2026-05-03T10:52:52.395Z</time></trkpt><trkpt lat="41.6573759" lon="13.3440104"><ele>205.0</ele><time>2026-05-03T10:52:53.4Z</time></trkpt><trkpt lat="41.6571463" lon="13.3439902"><ele>205.0</ele><time>2026-05-03T10:52:54.396Z</time></trkpt><trkpt lat="41.6569332" lon="13.3439762"><ele>205.0</ele><time>2026-05-03T10:52:55.395Z</time></trkpt><trkpt lat="41.6567324" lon="13.3439578"><ele>205.0</ele><time>2026-05-03T10:52:56.397Z</time></trkpt><trkpt lat="41.6565471" lon="13.3439128"><ele>205.0</ele><time>2026-05-03T10:52:57.396Z</time></trkpt><trkpt lat="41.6563672" lon="13.343849"><ele>205.0</ele><time>2026-05-03T10:52:58.395Z</time></trkpt><trkpt lat="41.6561855" lon="13.343766"><ele>204.66666666666666</ele><time>2026-05-03T10:52:59.407Z</time></trkpt><trkpt lat="41.6560111" lon="13.3436622"><ele>204.33333333333331</ele><time>2026-05-03T10:53:00.397Z</time></trkpt><trkpt lat="41.6558345" lon="13.3435468"><ele>204.0</ele><time>2026-05-03T10:53:01.395Z</time></trkpt><trkpt lat="41.6556608" lon="13.3434257"><ele>204.0</ele><time>2026-05-03T10:53:02.398Z</time></trkpt><trkpt lat="41.6554868" lon="13.3433054"><ele>204.0</ele><time>2026-05-03T10:53:03.398Z</time></trkpt><trkpt lat="41.6553045" lon="13.3431809"><ele>204.0</ele><time>2026-05-03T10:53:04.402Z</time></trkpt><trkpt lat="41.6551193" lon="13.3430516"><ele>203.33333333333331</ele><time>2026-05-03T10:53:05.408Z</time></trkpt><trkpt lat="41.6549424" lon="13.3429255"><ele>202.66666666666666</ele><time>2026-05-03T10:53:06.398Z</time></trkpt><trkpt lat="41.6547743" lon="13.3428064"><ele>202.0</ele><time>2026-05-03T10:53:07.406Z</time></trkpt><trkpt lat="41.654638" lon="13.3426993"><ele>202.0</ele><time>2026-05-03T10:53:08.406Z</time></trkpt><trkpt lat="41.6545356" lon="13.3426163"><ele>202.0</ele><time>2026-05-03T10:53:09.401Z</time></trkpt><trkpt lat="41.6544556" lon="13.3425507"><ele>202.0</ele><time>2026-05-03T10:53:10.41Z</time></trkpt><trkpt lat="41.6543954" lon="13.3425063"><ele>202.0</ele><time>2026-05-03T10:53:11.397Z</time></trkpt><trkpt lat="41.6543168" lon="13.3424398"><ele>202.0</ele><time>2026-05-03T10:53:13.41Z</time></trkpt><trkpt lat="41.6541928" lon="13.3423562"><ele>201.8</ele><time>2026-05-03T10:53:15.399Z</time></trkpt><trkpt lat="41.6541141" lon="13.3423043"><ele>201.6</ele><time>2026-05-03T10:53:16.407Z</time></trkpt><trkpt lat="41.654042" lon="13.3422476"><ele>201.4</ele><time>2026-05-03T10:53:17.399Z</time></trkpt><trkpt lat="41.6539672" lon="13.3421928"><ele>201.20000000000002</ele><time>2026-05-03T10:53:18.399Z</time></trkpt><trkpt lat="41.6538847" lon="13.3421273"><ele>201.0</ele><time>2026-05-03T10:53:19.397Z</time></trkpt><trkpt lat="41.6537989" lon="13.342053"><ele>201.0</ele><time>2026-05-03T10:53:20.415Z</time></trkpt><trkpt lat="41.653712" lon="13.3419859"><ele>201.0</ele><time>2026-05-03T10:53:21.396Z</time></trkpt><trkpt lat="41.6536298" lon="13.341915"><ele>201.0</ele><time>2026-05-03T10:53:22.399Z</time></trkpt><trkpt lat="41.6535548" lon="13.3418462"><ele>201.0</ele><time>2026-05-03T10:53:23.406Z</time></trkpt><trkpt lat="41.6534825" lon="13.3417822"><ele>201.0</ele><time>2026-05-03T10:53:24.406Z</time></trkpt><trkpt lat="41.6534177" lon="13.3417238"><ele>200.8</ele><time>2026-05-03T10:53:25.401Z</time></trkpt><trkpt lat="41.6533638" lon="13.3416776"><ele>200.60000000000002</ele><time>2026-05-03T10:53:26.405Z</time></trkpt><trkpt lat="41.6532638" lon="13.3415864"><ele>200.4</ele><time>2026-05-03T10:53:28.397Z</time></trkpt><trkpt lat="41.6531972" lon="13.3415283"><ele>200.2</ele><time>2026-05-03T10:53:29.405Z</time></trkpt><trkpt lat="41.6531052" lon="13.34146"><ele>200.0</ele><time>2026-05-03T10:53:30.396Z</time></trkpt><trkpt lat="41.6529906" lon="13.341376"><ele>199.75</ele><time>2026-05-03T10:53:31.406Z</time></trkpt><trkpt lat="41.6528696" lon="13.3412769"><ele>199.5</ele><time>2026-05-03T10:53:32.397Z</time></trkpt><trkpt lat="41.6527385" lon="13.3411712"><ele>199.25</ele><time>2026-05-03T10:53:33.397Z</time></trkpt><trkpt lat="41.6526123" lon="13.3410638"><ele>199.0</ele><time>2026-05-03T10:53:34.396Z</time></trkpt><trkpt lat="41.6524832" lon="13.3409602"><ele>198.75</ele><time>2026-05-03T10:53:35.398Z</time></trkpt><trkpt lat="41.6523594" lon="13.3408587"><ele>198.5</ele><time>2026-05-03T10:53:36.406Z</time></trkpt><trkpt lat="41.6522384" lon="13.3407565"><ele>198.25</ele><time>2026-05-03T10:53:37.407Z</time></trkpt><trkpt lat="41.6521183" lon="13.3406551"><ele>198.0</ele><time>2026-05-03T10:53:38.406Z</time></trkpt><trkpt lat="41.6519952" lon="13.3405558"><ele>197.75</ele><time>2026-05-03T10:53:39.41Z</time></trkpt><trkpt lat="41.6518753" lon="13.340454"><ele>197.5</ele><time>2026-05-03T10:53:40.406Z</time></trkpt><trkpt lat="41.6517555" lon="13.3403542"><ele>197.25</ele><time>2026-05-03T10:53:41.398Z</time></trkpt><trkpt lat="41.6516378" lon="13.3402512"><ele>197.0</ele><time>2026-05-03T10:53:42.4Z</time></trkpt><trkpt lat="41.6515171" lon="13.3401531"><ele>197.0</ele><time>2026-05-03T10:53:43.396Z</time></trkpt><trkpt lat="41.6513969" lon="13.3400516"><ele>197.0</ele><time>2026-05-03T10:53:44.41Z</time></trkpt><trkpt lat="41.6512776" lon="13.3399482"><ele>197.0</ele><time>2026-05-03T10:53:45.398Z</time></trkpt><trkpt lat="41.6511579" lon="13.3398463"><ele>197.0</ele><time>2026-05-03T10:53:46.399Z</time></trkpt><trkpt lat="41.6510382" lon="13.3397444"><ele>196.75</ele><time>2026-05-03T10:53:47.391Z</time></trkpt><trkpt lat="41.6509154" lon="13.339641"><ele>196.5</ele><time>2026-05-03T10:53:48.405Z</time></trkpt><trkpt lat="41.6507946" lon="13.3395422"><ele>196.25</ele><time>2026-05-03T10:53:49.395Z</time></trkpt><trkpt lat="41.6506713" lon="13.3394416"><ele>196.0</ele><time>2026-05-03T10:53:50.399Z</time></trkpt><trkpt lat="41.6505488" lon="13.3393401"><ele>196.0</ele><time>2026-05-03T10:53:51.395Z</time></trkpt><trkpt lat="41.6504268" lon="13.3392374"><ele>196.0</ele><time>2026-05-03T10:53:52.396Z</time></trkpt><trkpt lat="41.6503109" lon="13.3391368"><ele>196.0</ele><time>2026-05-03T10:53:53.401Z</time></trkpt><trkpt lat="41.6502034" lon="13.339048"><ele>196.0</ele><time>2026-05-03T10:53:54.405Z</time></trkpt><trkpt lat="41.6501023" lon="13.3389622"><ele>195.4</ele><time>2026-05-03T10:53:55.398Z</time></trkpt><trkpt lat="41.6500055" lon="13.3388794"><ele>194.8</ele><time>2026-05-03T10:53:56.399Z</time></trkpt><trkpt lat="41.6499135" lon="13.3388027"><ele>194.20000000000002</ele><time>2026-05-03T10:53:57.393Z</time></trkpt><trkpt lat="41.6498337" lon="13.3387232"><ele>193.60000000000002</ele><time>2026-05-03T10:53:58.396Z</time></trkpt><trkpt lat="41.6497693" lon="13.3386272"><ele>193.0</ele><time>2026-05-03T10:53:59.397Z</time></trkpt><trkpt lat="41.6497226" lon="13.3385224"><ele>192.99999999999997</ele><time>2026-05-03T10:54:00.411Z</time></trkpt><trkpt lat="41.6496934" lon="13.3384216"><ele>193.0</ele><time>2026-05-03T10:54:01.404Z</time></trkpt><trkpt lat="41.6496549" lon="13.3383367"><ele>193.0</ele><time>2026-05-03T10:54:02.394Z</time></trkpt><trkpt lat="41.6495968" lon="13.3382713"><ele>193.0</ele><time>2026-05-03T10:54:03.407Z</time></trkpt><trkpt lat="41.6495262" lon="13.3382281"><ele>192.99999999999997</ele><time>2026-05-03T10:54:04.396Z</time></trkpt><trkpt lat="41.6494382" lon="13.3382056"><ele>193.0</ele><time>2026-05-03T10:54:05.402Z</time></trkpt><trkpt lat="41.6493314" lon="13.3381998"><ele>193.0</ele><time>2026-05-03T10:54:06.397Z</time></trkpt><trkpt lat="41.6492153" lon="13.3381735"><ele>193.0</ele><time>2026-05-03T10:54:07.404Z</time></trkpt><trkpt lat="41.6490986" lon="13.3380999"><ele>193.0</ele><time>2026-05-03T10:54:08.396Z</time></trkpt><trkpt lat="41.6489693" lon="13.3379894"><ele>193.0</ele><time>2026-05-03T10:54:09.402Z</time></trkpt><trkpt lat="41.6488206" lon="13.3378523"><ele>193.0</ele><time>2026-05-03T10:54:10.395Z</time></trkpt><trkpt lat="41.648652" lon="13.3376982"><ele>193.0</ele><time>2026-05-03T10:54:11.395Z</time></trkpt><trkpt lat="41.6484682" lon="13.3375371"><ele>193.0</ele><time>2026-05-03T10:54:12.393Z</time></trkpt><trkpt lat="41.6482712" lon="13.3373662"><ele>192.5</ele><time>2026-05-03T10:54:13.395Z</time></trkpt><trkpt lat="41.6480659" lon="13.3371844"><ele>192.0</ele><time>2026-05-03T10:54:14.392Z</time></trkpt><trkpt lat="41.6478419" lon="13.3369824"><ele>191.0</ele><time>2026-05-03T10:54:15.406Z</time></trkpt><trkpt lat="41.6476125" lon="13.3367692"><ele>190.0</ele><time>2026-05-03T10:54:16.396Z</time></trkpt><trkpt lat="41.6474038" lon="13.3365833"><ele>190.0</ele><time>2026-05-03T10:54:17.396Z</time></trkpt><trkpt lat="41.6472139" lon="13.3364179"><ele>190.0</ele><time>2026-05-03T10:54:18.396Z</time></trkpt><trkpt lat="41.6470376" lon="13.3362559"><ele>190.0</ele><time>2026-05-03T10:54:19.397Z</time></trkpt><trkpt lat="41.6468692" lon="13.3360933"><ele>190.33333333333334</ele><time>2026-05-03T10:54:20.4Z</time></trkpt><trkpt lat="41.6467057" lon="13.3359345"><ele>190.66666666666666</ele><time>2026-05-03T10:54:21.402Z</time></trkpt><trkpt lat="41.6465463" lon="13.3357819"><ele>191.0</ele><time>2026-05-03T10:54:22.39Z</time></trkpt><trkpt lat="41.6463926" lon="13.3356356"><ele>190.66666666666666</ele><time>2026-05-03T10:54:23.404Z</time></trkpt><trkpt lat="41.6462407" lon="13.3354957"><ele>190.33333333333334</ele><time>2026-05-03T10:54:24.395Z</time></trkpt><trkpt lat="41.646084" lon="13.3353512"><ele>190.0</ele><time>2026-05-03T10:54:25.397Z</time></trkpt><trkpt lat="41.645922" lon="13.3352066"><ele>190.0</ele><time>2026-05-03T10:54:26.398Z</time></trkpt><trkpt lat="41.64575" lon="13.3350581"><ele>190.0</ele><time>2026-05-03T10:54:27.394Z</time></trkpt><trkpt lat="41.6455699" lon="13.3349033"><ele>190.0</ele><time>2026-05-03T10:54:28.407Z</time></trkpt><trkpt lat="41.6453859" lon="13.334747"><ele>188.66666666666669</ele><time>2026-05-03T10:54:29.394Z</time></trkpt><trkpt lat="41.6452038" lon="13.334592"><ele>187.33333333333334</ele><time>2026-05-03T10:54:30.393Z</time></trkpt><trkpt lat="41.6449982" lon="13.3344465"><ele>186.0</ele><time>2026-05-03T10:54:31.395Z</time></trkpt><trkpt lat="41.6448275" lon="13.3342815"><ele>186.0</ele><time>2026-05-03T10:54:32.395Z</time></trkpt><trkpt lat="41.6446651" lon="13.3341353"><ele>186.0</ele><time>2026-05-03T10:54:33.401Z</time></trkpt><trkpt lat="41.6445205" lon="13.3340007"><ele>186.0</ele><time>2026-05-03T10:54:34.406Z</time></trkpt><trkpt lat="41.6443658" lon="13.3338666"><ele>186.33333333333334</ele><time>2026-05-03T10:54:35.396Z</time></trkpt><trkpt lat="41.6442073" lon="13.3337372"><ele>186.66666666666669</ele><time>2026-05-03T10:54:36.395Z</time></trkpt><trkpt lat="41.6440378" lon="13.3336127"><ele>187.0</ele><time>2026-05-03T10:54:37.402Z</time></trkpt><trkpt lat="41.6438714" lon="13.333513"><ele>187.0</ele><time>2026-05-03T10:54:38.396Z</time></trkpt><trkpt lat="41.6437215" lon="13.3334261"><ele>187.0</ele><time>2026-05-03T10:54:39.398Z</time></trkpt><trkpt lat="41.6435811" lon="13.333352"><ele>187.0</ele><time>2026-05-03T10:54:40.398Z</time></trkpt><trkpt lat="41.6434534" lon="13.3332939"><ele>187.0</ele><time>2026-05-03T10:54:41.399Z</time></trkpt><trkpt lat="41.6433348" lon="13.3332381"><ele>187.0</ele><time>2026-05-03T10:54:42.397Z</time></trkpt><trkpt lat="41.6432238" lon="13.3331933"><ele>187.0</ele><time>2026-05-03T10:54:43.398Z</time></trkpt><trkpt lat="41.6431317" lon="13.3331488"><ele>187.0</ele><time>2026-05-03T10:54:44.396Z</time></trkpt><trkpt lat="41.6430552" lon="13.3330914"><ele>187.0</ele><time>2026-05-03T10:54:45.4Z</time></trkpt><trkpt lat="41.6429935" lon="13.3330177"><ele>187.0</ele><time>2026-05-03T10:54:46.396Z</time></trkpt><trkpt lat="41.6429446" lon="13.3329439"><ele>187.0</ele><time>2026-05-03T10:54:47.39Z</time></trkpt><trkpt lat="41.642884" lon="13.3328892"><ele>187.0</ele><time>2026-05-03T10:54:48.394Z</time></trkpt><trkpt lat="41.6428101" lon="13.3328652"><ele>187.0</ele><time>2026-05-03T10:54:49.39Z</time></trkpt><trkpt lat="41.6427225" lon="13.3328631"><ele>187.0</ele><time>2026-05-03T10:54:50.397Z</time></trkpt><trkpt lat="41.6426221" lon="13.3328665"><ele>187.0</ele><time>2026-05-03T10:54:51.399Z</time></trkpt><trkpt lat="41.6425069" lon="13.3328479"><ele>185.66666666666669</ele><time>2026-05-03T10:54:52.396Z</time></trkpt><trkpt lat="41.6423776" lon="13.332801"><ele>184.33333333333334</ele><time>2026-05-03T10:54:53.403Z</time></trkpt><trkpt lat="41.6422224" lon="13.3327356"><ele>183.0</ele><time>2026-05-03T10:54:54.392Z</time></trkpt><trkpt lat="41.6420362" lon="13.3326608"><ele>183.0</ele><time>2026-05-03T10:54:55.397Z</time></trkpt><trkpt lat="41.6418287" lon="13.3325714"><ele>183.0</ele><time>2026-05-03T10:54:56.397Z</time></trkpt><trkpt lat="41.6416152" lon="13.3324766"><ele>183.0</ele><time>2026-05-03T10:54:57.405Z</time></trkpt><trkpt lat="41.6414146" lon="13.3323909"><ele>183.0</ele><time>2026-05-03T10:54:58.393Z</time></trkpt><trkpt lat="41.6412312" lon="13.3323144"><ele>183.0</ele><time>2026-05-03T10:54:59.395Z</time></trkpt><trkpt lat="41.6410579" lon="13.3322437"><ele>183.0</ele><time>2026-05-03T10:55:00.396Z</time></trkpt><trkpt lat="41.6409202" lon="13.3321842"><ele>183.0</ele><time>2026-05-03T10:55:01.396Z</time></trkpt><trkpt lat="41.6407924" lon="13.332127"><ele>183.0</ele><time>2026-05-03T10:55:02.394Z</time></trkpt><trkpt lat="41.640676" lon="13.3320745"><ele>183.0</ele><time>2026-05-03T10:55:03.395Z</time></trkpt><trkpt lat="41.6405722" lon="13.3320232"><ele>183.0</ele><time>2026-05-03T10:55:04.406Z</time></trkpt><trkpt lat="41.6404762" lon="13.3319826"><ele>183.0</ele><time>2026-05-03T10:55:05.394Z</time></trkpt><trkpt lat="41.6403867" lon="13.331942"><ele>183.0</ele><time>2026-05-03T10:55:06.406Z</time></trkpt><trkpt lat="41.6403042" lon="13.3319019"><ele>183.0</ele><time>2026-05-03T10:55:07.398Z</time></trkpt><trkpt lat="41.6402214" lon="13.3318624"><ele>183.0</ele><time>2026-05-03T10:55:08.406Z</time></trkpt><trkpt lat="41.6401353" lon="13.3318246"><ele>183.0</ele><time>2026-05-03T10:55:09.394Z</time></trkpt><trkpt lat="41.6400477" lon="13.3317878"><ele>183.0</ele><time>2026-05-03T10:55:10.396Z</time></trkpt><trkpt lat="41.6399624" lon="13.3317481"><ele>183.0</ele><time>2026-05-03T10:55:11.399Z</time></trkpt><trkpt lat="41.6398804" lon="13.3317109"><ele>183.0</ele><time>2026-05-03T10:55:12.401Z</time></trkpt><trkpt lat="41.639801" lon="13.3316745"><ele>183.0</ele><time>2026-05-03T10:55:13.411Z</time></trkpt><trkpt lat="41.6397312" lon="13.3316406"><ele>183.0</ele><time>2026-05-03T10:55:14.405Z</time></trkpt><trkpt lat="41.6396312" lon="13.331585"><ele>183.0</ele><time>2026-05-03T10:55:16.399Z</time></trkpt><trkpt lat="41.6395618" lon="13.3315351"><ele>183.0</ele><time>2026-05-03T10:55:19.395Z</time></trkpt><trkpt lat="41.6394985" lon="13.3314478"><ele>183.0</ele><time>2026-05-03T10:55:22.404Z</time></trkpt><trkpt lat="41.639465" lon="13.3313674"><ele>183.0</ele><time>2026-05-03T10:55:23.395Z</time></trkpt><trkpt lat="41.6394147" lon="13.3312895"><ele>183.0</ele><time>2026-05-03T10:55:24.398Z</time></trkpt><trkpt lat="41.6393493" lon="13.3312331"><ele>183.0</ele><time>2026-05-03T10:55:25.401Z</time></trkpt><trkpt lat="41.6392789" lon="13.3312129"><ele>183.0</ele><time>2026-05-03T10:55:26.395Z</time></trkpt><trkpt lat="41.639216" lon="13.3312251"><ele>182.8</ele><time>2026-05-03T10:55:27.398Z</time></trkpt><trkpt lat="41.6391434" lon="13.3312604"><ele>182.60000000000002</ele><time>2026-05-03T10:55:28.399Z</time></trkpt><trkpt lat="41.6390624" lon="13.3312938"><ele>182.39999999999998</ele><time>2026-05-03T10:55:29.404Z</time></trkpt><trkpt lat="41.6389748" lon="13.3312952"><ele>182.2</ele><time>2026-05-03T10:55:30.394Z</time></trkpt><trkpt lat="41.6388695" lon="13.331265"><ele>182.0</ele><time>2026-05-03T10:55:31.396Z</time></trkpt><trkpt lat="41.6387579" lon="13.331232"><ele>181.66666666666666</ele><time>2026-05-03T10:55:32.401Z</time></trkpt><trkpt lat="41.6386297" lon="13.3311828"><ele>181.33333333333334</ele><time>2026-05-03T10:55:33.403Z</time></trkpt><trkpt lat="41.6384855" lon="13.3311286"><ele>181.0</ele><time>2026-05-03T10:55:34.401Z</time></trkpt><trkpt lat="41.6383132" lon="13.3310619"><ele>181.0</ele><time>2026-05-03T10:55:35.395Z</time></trkpt><trkpt lat="41.6381373" lon="13.3309816"><ele>181.0</ele><time>2026-05-03T10:55:36.393Z</time></trkpt><trkpt lat="41.6379794" lon="13.3309085"><ele>181.0</ele><time>2026-05-03T10:55:37.403Z</time></trkpt><trkpt lat="41.6378324" lon="13.3308421"><ele>181.0</ele><time>2026-05-03T10:55:38.395Z</time></trkpt><trkpt lat="41.6376739" lon="13.3307726"><ele>181.0</ele><time>2026-05-03T10:55:39.404Z</time></trkpt><trkpt lat="41.6375123" lon="13.330704"><ele>181.0</ele><time>2026-05-03T10:55:40.396Z</time></trkpt><trkpt lat="41.6373621" lon="13.3306415"><ele>181.0</ele><time>2026-05-03T10:55:41.397Z</time></trkpt><trkpt lat="41.6372292" lon="13.3305745"><ele>181.0</ele><time>2026-05-03T10:55:42.393Z</time></trkpt><trkpt lat="41.6370969" lon="13.3305122"><ele>181.0</ele><time>2026-05-03T10:55:43.396Z</time></trkpt><trkpt lat="41.6369641" lon="13.3304468"><ele>181.0</ele><time>2026-05-03T10:55:44.398Z</time></trkpt><trkpt lat="41.6368342" lon="13.3303773"><ele>180.0</ele><time>2026-05-03T10:55:45.406Z</time></trkpt><trkpt lat="41.6366977" lon="13.3303079"><ele>179.0</ele><time>2026-05-03T10:55:46.396Z</time></trkpt><trkpt lat="41.6365558" lon="13.3302226"><ele>178.0</ele><time>2026-05-03T10:55:47.394Z</time></trkpt><trkpt lat="41.6364161" lon="13.3301273"><ele>178.0</ele><time>2026-05-03T10:55:48.395Z</time></trkpt><trkpt lat="41.6362771" lon="13.3300262"><ele>178.0</ele><time>2026-05-03T10:55:49.4Z</time></trkpt><trkpt lat="41.6361438" lon="13.3299185"><ele>178.0</ele><time>2026-05-03T10:55:50.395Z</time></trkpt><trkpt lat="41.6360134" lon="13.3298064"><ele>176.33333333333334</ele><time>2026-05-03T10:55:51.395Z</time></trkpt><trkpt lat="41.6358787" lon="13.3296824"><ele>174.66666666666666</ele><time>2026-05-03T10:55:52.394Z</time></trkpt><trkpt lat="41.6357449" lon="13.3295458"><ele>173.0</ele><time>2026-05-03T10:55:53.391Z</time></trkpt><trkpt lat="41.6356232" lon="13.3294121"><ele>173.0</ele><time>2026-05-03T10:55:54.394Z</time></trkpt><trkpt lat="41.6355143" lon="13.3292891"><ele>173.0</ele><time>2026-05-03T10:55:55.397Z</time></trkpt><trkpt lat="41.6354252" lon="13.3291673"><ele>173.0</ele><time>2026-05-03T10:55:56.394Z</time></trkpt><trkpt lat="41.6353561" lon="13.3290471"><ele>173.0</ele><time>2026-05-03T10:55:57.395Z</time></trkpt><trkpt lat="41.635313" lon="13.3289261"><ele>173.16666666666666</ele><time>2026-05-03T10:55:58.41Z</time></trkpt><trkpt lat="41.6352975" lon="13.3288043"><ele>173.33333333333331</ele><time>2026-05-03T10:55:59.399Z</time></trkpt><trkpt lat="41.6352994" lon="13.3286993"><ele>173.5</ele><time>2026-05-03T10:56:00.393Z</time></trkpt><trkpt lat="41.6352983" lon="13.3285903"><ele>173.66666666666666</ele><time>2026-05-03T10:56:01.396Z</time></trkpt><trkpt lat="41.6352795" lon="13.328487"><ele>173.83333333333334</ele><time>2026-05-03T10:56:02.397Z</time></trkpt><trkpt lat="41.6352398" lon="13.3283996"><ele>174.0</ele><time>2026-05-03T10:56:03.4Z</time></trkpt><trkpt lat="41.6351806" lon="13.3283339"><ele>174.0</ele><time>2026-05-03T10:56:04.398Z</time></trkpt><trkpt lat="41.635105" lon="13.3282986"><ele>174.0</ele><time>2026-05-03T10:56:05.387Z</time></trkpt><trkpt lat="41.6350232" lon="13.3282958"><ele>174.0</ele><time>2026-05-03T10:56:06.396Z</time></trkpt><trkpt lat="41.6349355" lon="13.328312"><ele>174.0</ele><time>2026-05-03T10:56:07.397Z</time></trkpt><trkpt lat="41.6348551" lon="13.3283078"><ele>174.0</ele><time>2026-05-03T10:56:08.398Z</time></trkpt><trkpt lat="41.634783" lon="13.3282756"><ele>174.0</ele><time>2026-05-03T10:56:09.397Z</time></trkpt><trkpt lat="41.6346972" lon="13.3282101"><ele>174.0</ele><time>2026-05-03T10:56:10.401Z</time></trkpt><trkpt lat="41.6346074" lon="13.3281159"><ele>174.0</ele><time>2026-05-03T10:56:11.395Z</time></trkpt><trkpt lat="41.6344983" lon="13.3279602"><ele>174.0</ele><time>2026-05-03T10:56:12.396Z</time></trkpt><trkpt lat="41.6343761" lon="13.3277972"><ele>174.0</ele><time>2026-05-03T10:56:13.404Z</time></trkpt><trkpt lat="41.6342288" lon="13.3276165"><ele>174.66666666666666</ele><time>2026-05-03T10:56:14.395Z</time></trkpt><trkpt lat="41.6340826" lon="13.3274384"><ele>175.33333333333331</ele><time>2026-05-03T10:56:15.397Z</time></trkpt><trkpt lat="41.6339271" lon="13.3272697"><ele>176.0</ele><time>2026-05-03T10:56:16.394Z</time></trkpt><trkpt lat="41.6337714" lon="13.3271105"><ele>174.66666666666666</ele><time>2026-05-03T10:56:17.394Z</time></trkpt><trkpt lat="41.6336168" lon="13.3269611"><ele>173.33333333333334</ele><time>2026-05-03T10:56:18.396Z</time></trkpt><trkpt lat="41.6334627" lon="13.3268269"><ele>172.0</ele><time>2026-05-03T10:56:19.396Z</time></trkpt><trkpt lat="41.6333199" lon="13.3267167"><ele>172.0</ele><time>2026-05-03T10:56:20.396Z</time></trkpt><trkpt lat="41.6331815" lon="13.3266244"><ele>172.0</ele><time>2026-05-03T10:56:21.397Z</time></trkpt><trkpt lat="41.6330415" lon="13.3265346"><ele>172.0</ele><time>2026-05-03T10:56:22.395Z</time></trkpt><trkpt lat="41.6328925" lon="13.3264452"><ele>172.33333333333334</ele><time>2026-05-03T10:56:23.396Z</time></trkpt><trkpt lat="41.6327314" lon="13.3263627"><ele>172.66666666666666</ele><time>2026-05-03T10:56:24.4Z</time></trkpt><trkpt lat="41.6325601" lon="13.3262818"><ele>173.0</ele><time>2026-05-03T10:56:25.395Z</time></trkpt><trkpt lat="41.6323847" lon="13.3262114"><ele>173.0</ele><time>2026-05-03T10:56:26.394Z</time></trkpt><trkpt lat="41.6322165" lon="13.3261374"><ele>173.0</ele><time>2026-05-03T10:56:27.406Z</time></trkpt><trkpt lat="41.6320648" lon="13.3260661"><ele>173.0</ele><time>2026-05-03T10:56:28.395Z</time></trkpt><trkpt lat="41.6319235" lon="13.3260014"><ele>172.75</ele><time>2026-05-03T10:56:29.399Z</time></trkpt><trkpt lat="41.6317826" lon="13.3259431"><ele>172.5</ele><time>2026-05-03T10:56:30.398Z</time></trkpt><trkpt lat="41.6316536" lon="13.3258867"><ele>172.25</ele><time>2026-05-03T10:56:31.403Z</time></trkpt><trkpt lat="41.6315321" lon="13.3258325"><ele>172.0</ele><time>2026-05-03T10:56:32.393Z</time></trkpt><trkpt lat="41.631408" lon="13.3257789"><ele>172.0</ele><time>2026-05-03T10:56:33.395Z</time></trkpt><trkpt lat="41.6312827" lon="13.3257273"><ele>172.0</ele><time>2026-05-03T10:56:34.393Z</time></trkpt><trkpt lat="41.6311471" lon="13.3256687"><ele>172.0</ele><time>2026-05-03T10:56:35.394Z</time></trkpt><trkpt lat="41.6309983" lon="13.3256026"><ele>172.0</ele><time>2026-05-03T10:56:36.403Z</time></trkpt><trkpt lat="41.6308462" lon="13.3255353"><ele>170.33333333333334</ele><time>2026-05-03T10:56:37.395Z</time></trkpt><trkpt lat="41.6306883" lon="13.325475"><ele>168.66666666666666</ele><time>2026-05-03T10:56:38.395Z</time></trkpt><trkpt lat="41.6305226" lon="13.3254053"><ele>167.0</ele><time>2026-05-03T10:56:39.394Z</time></trkpt><trkpt lat="41.6303417" lon="13.3253361"><ele>166.66666666666666</ele><time>2026-05-03T10:56:40.394Z</time></trkpt><trkpt lat="41.630154" lon="13.3252594"><ele>166.33333333333334</ele><time>2026-05-03T10:56:41.396Z</time></trkpt><trkpt lat="41.6299522" lon="13.325179"><ele>166.0</ele><time>2026-05-03T10:56:42.397Z</time></trkpt><trkpt lat="41.6297333" lon="13.3250913"><ele>166.0</ele><time>2026-05-03T10:56:43.396Z</time></trkpt><trkpt lat="41.6295087" lon="13.3250004"><ele>166.0</ele><time>2026-05-03T10:56:44.397Z</time></trkpt><trkpt lat="41.6292777" lon="13.3249049"><ele>165.0</ele><time>2026-05-03T10:56:45.397Z</time></trkpt><trkpt lat="41.6290503" lon="13.3248068"><ele>164.0</ele><time>2026-05-03T10:56:46.399Z</time></trkpt><trkpt lat="41.628831" lon="13.3247149"><ele>163.33333333333331</ele><time>2026-05-03T10:56:47.404Z</time></trkpt><trkpt lat="41.6286178" lon="13.3246269"><ele>162.66666666666666</ele><time>2026-05-03T10:56:48.402Z</time></trkpt><trkpt lat="41.628405" lon="13.3245379"><ele>162.0</ele><time>2026-05-03T10:56:49.396Z</time></trkpt><trkpt lat="41.6282015" lon="13.324456"><ele>162.0</ele><time>2026-05-03T10:56:50.396Z</time></trkpt><trkpt lat="41.6280082" lon="13.3243734"><ele>162.0</ele><time>2026-05-03T10:56:51.397Z</time></trkpt><trkpt lat="41.6278246" lon="13.3242969"><ele>162.0</ele><time>2026-05-03T10:56:52.394Z</time></trkpt><trkpt lat="41.6276534" lon="13.3242264"><ele>162.5</ele><time>2026-05-03T10:56:53.397Z</time></trkpt><trkpt lat="41.6275123" lon="13.3241698"><ele>163.0</ele><time>2026-05-03T10:56:54.394Z</time></trkpt><trkpt lat="41.6273754" lon="13.3241127"><ele>163.5</ele><time>2026-05-03T10:56:55.398Z</time></trkpt><trkpt lat="41.6272367" lon="13.3240555"><ele>164.0</ele><time>2026-05-03T10:56:56.392Z</time></trkpt><trkpt lat="41.6270969" lon="13.3239977"><ele>163.5</ele><time>2026-05-03T10:56:57.406Z</time></trkpt><trkpt lat="41.6269539" lon="13.3239391"><ele>163.0</ele><time>2026-05-03T10:56:58.396Z</time></trkpt><trkpt lat="41.6268217" lon="13.3238706"><ele>162.5</ele><time>2026-05-03T10:56:59.407Z</time></trkpt><trkpt lat="41.6266887" lon="13.3238092"><ele>162.0</ele><time>2026-05-03T10:57:00.406Z</time></trkpt><trkpt lat="41.6265547" lon="13.3237407"><ele>161.75</ele><time>2026-05-03T10:57:01.4Z</time></trkpt><trkpt lat="41.626427" lon="13.3236641"><ele>161.5</ele><time>2026-05-03T10:57:02.395Z</time></trkpt><trkpt lat="41.6262946" lon="13.3235853"><ele>161.25</ele><time>2026-05-03T10:57:03.403Z</time></trkpt><trkpt lat="41.6261496" lon="13.3234934"><ele>161.0</ele><time>2026-05-03T10:57:04.394Z</time></trkpt><trkpt lat="41.6259921" lon="13.3233931"><ele>161.0</ele><time>2026-05-03T10:57:05.398Z</time></trkpt><trkpt lat="41.6258289" lon="13.3232808"><ele>161.0</ele><time>2026-05-03T10:57:06.395Z</time></trkpt><trkpt lat="41.6256579" lon="13.323159"><ele>161.0</ele><time>2026-05-03T10:57:07.395Z</time></trkpt><trkpt lat="41.6254778" lon="13.323031"><ele>161.0</ele><time>2026-05-03T10:57:08.405Z</time></trkpt><trkpt lat="41.6252893" lon="13.3228972"><ele>161.0</ele><time>2026-05-03T10:57:09.4Z</time></trkpt><trkpt lat="41.6250907" lon="13.3227585"><ele>161.0</ele><time>2026-05-03T10:57:10.388Z</time></trkpt><trkpt lat="41.624882" lon="13.3226115"><ele>161.0</ele><time>2026-05-03T10:57:11.395Z</time></trkpt><trkpt lat="41.6246706" lon="13.3224599"><ele>161.0</ele><time>2026-05-03T10:57:12.393Z</time></trkpt><trkpt lat="41.624463" lon="13.3223081"><ele>159.5</ele><time>2026-05-03T10:57:13.403Z</time></trkpt><trkpt lat="41.624258" lon="13.3221578"><ele>158.0</ele><time>2026-05-03T10:57:14.397Z</time></trkpt><trkpt lat="41.6240649" lon="13.3220067"><ele>158.0</ele><time>2026-05-03T10:57:15.403Z</time></trkpt><trkpt lat="41.6238812" lon="13.3218662"><ele>158.0</ele><time>2026-05-03T10:57:16.397Z</time></trkpt><trkpt lat="41.6236966" lon="13.3217309"><ele>158.0</ele><time>2026-05-03T10:57:17.401Z</time></trkpt><trkpt lat="41.6235236" lon="13.321597"><ele>158.33333333333331</ele><time>2026-05-03T10:57:18.393Z</time></trkpt><trkpt lat="41.6233631" lon="13.3214774"><ele>158.66666666666666</ele><time>2026-05-03T10:57:19.406Z</time></trkpt><trkpt lat="41.6232121" lon="13.3213633"><ele>159.0</ele><time>2026-05-03T10:57:20.396Z</time></trkpt><trkpt lat="41.6230582" lon="13.3212503"><ele>158.33333333333334</ele><time>2026-05-03T10:57:21.404Z</time></trkpt><trkpt lat="41.6229098" lon="13.3211308"><ele>157.66666666666669</ele><time>2026-05-03T10:57:22.405Z</time></trkpt><trkpt lat="41.6227705" lon="13.3210099"><ele>157.0</ele><time>2026-05-03T10:57:23.402Z</time></trkpt><trkpt lat="41.6226371" lon="13.3208977"><ele>157.0</ele><time>2026-05-03T10:57:24.399Z</time></trkpt><trkpt lat="41.6225049" lon="13.3207821"><ele>157.0</ele><time>2026-05-03T10:57:25.394Z</time></trkpt><trkpt lat="41.6223781" lon="13.3206665"><ele>157.0</ele><time>2026-05-03T10:57:26.395Z</time></trkpt><trkpt lat="41.6222548" lon="13.3205476"><ele>156.75</ele><time>2026-05-03T10:57:27.396Z</time></trkpt><trkpt lat="41.6221404" lon="13.320433"><ele>156.5</ele><time>2026-05-03T10:57:28.404Z</time></trkpt><trkpt lat="41.6220307" lon="13.32032"><ele>156.25</ele><time>2026-05-03T10:57:29.397Z</time></trkpt><trkpt lat="41.6219147" lon="13.3201922"><ele>156.0</ele><time>2026-05-03T10:57:30.404Z</time></trkpt><trkpt lat="41.6217948" lon="13.3200522"><ele>155.33333333333334</ele><time>2026-05-03T10:57:31.398Z</time></trkpt><trkpt lat="41.6216701" lon="13.3199013"><ele>154.66666666666669</ele><time>2026-05-03T10:57:32.393Z</time></trkpt><trkpt lat="41.6215476" lon="13.3197531"><ele>154.0</ele><time>2026-05-03T10:57:33.4Z</time></trkpt><trkpt lat="41.6214193" lon="13.3195992"><ele>153.66666666666669</ele><time>2026-05-03T10:57:34.391Z</time></trkpt><trkpt lat="41.6213041" lon="13.3194508"><ele>153.33333333333334</ele><time>2026-05-03T10:57:35.406Z</time></trkpt><trkpt lat="41.6211799" lon="13.3192891"><ele>153.0</ele><time>2026-05-03T10:57:36.396Z</time></trkpt><trkpt lat="41.6210472" lon="13.3191069"><ele>153.0</ele><time>2026-05-03T10:57:37.397Z</time></trkpt><trkpt lat="41.6209186" lon="13.3189269"><ele>153.0</ele><time>2026-05-03T10:57:38.395Z</time></trkpt><trkpt lat="41.6207928" lon="13.3187352"><ele>153.0</ele><time>2026-05-03T10:57:39.397Z</time></trkpt><trkpt lat="41.6206734" lon="13.3185414"><ele>153.0</ele><time>2026-05-03T10:57:40.402Z</time></trkpt><trkpt lat="41.6205645" lon="13.31836"><ele>153.0</ele><time>2026-05-03T10:57:41.396Z</time></trkpt><trkpt lat="41.6204599" lon="13.3181857"><ele>153.0</ele><time>2026-05-03T10:57:42.397Z</time></trkpt><trkpt lat="41.6203643" lon="13.3180214"><ele>152.33333333333334</ele><time>2026-05-03T10:57:43.393Z</time></trkpt><trkpt lat="41.6202696" lon="13.3178549"><ele>151.66666666666669</ele><time>2026-05-03T10:57:44.402Z</time></trkpt><trkpt lat="41.6201754" lon="13.3176743"><ele>151.0</ele><time>2026-05-03T10:57:45.397Z</time></trkpt><trkpt lat="41.6200809" lon="13.3174915"><ele>151.0</ele><time>2026-05-03T10:57:46.397Z</time></trkpt><trkpt lat="41.6199911" lon="13.3173079"><ele>151.0</ele><time>2026-05-03T10:57:47.402Z</time></trkpt><trkpt lat="41.6199048" lon="13.3171268"><ele>151.0</ele><time>2026-05-03T10:57:48.402Z</time></trkpt><trkpt lat="41.6198218" lon="13.3169442"><ele>151.0</ele><time>2026-05-03T10:57:49.403Z</time></trkpt><trkpt lat="41.6197457" lon="13.3167586"><ele>151.0</ele><time>2026-05-03T10:57:50.39Z</time></trkpt><trkpt lat="41.6196738" lon="13.3165701"><ele>151.0</ele><time>2026-05-03T10:57:51.396Z</time></trkpt><trkpt lat="41.6196049" lon="13.3163802"><ele>151.0</ele><time>2026-05-03T10:57:52.397Z</time></trkpt><trkpt lat="41.6195389" lon="13.3161856"><ele>151.0</ele><time>2026-05-03T10:57:53.403Z</time></trkpt><trkpt lat="41.6194774" lon="13.3159899"><ele>151.0</ele><time>2026-05-03T10:57:54.405Z</time></trkpt><trkpt lat="41.6194222" lon="13.3157917"><ele>151.0</ele><time>2026-05-03T10:57:55.406Z</time></trkpt><trkpt lat="41.6193666" lon="13.3155921"><ele>151.0</ele><time>2026-05-03T10:57:56.397Z</time></trkpt><trkpt lat="41.6193042" lon="13.315394"><ele>151.0</ele><time>2026-05-03T10:57:57.395Z</time></trkpt><trkpt lat="41.6192344" lon="13.3151928"><ele>151.0</ele><time>2026-05-03T10:57:58.396Z</time></trkpt><trkpt lat="41.6191559" lon="13.3149814"><ele>151.0</ele><time>2026-05-03T10:57:59.405Z</time></trkpt><trkpt lat="41.6190714" lon="13.3147666"><ele>151.0</ele><time>2026-05-03T10:58:00.396Z</time></trkpt><trkpt lat="41.6189865" lon="13.3145583"><ele>150.33333333333334</ele><time>2026-05-03T10:58:01.396Z</time></trkpt><trkpt lat="41.6189006" lon="13.3143587"><ele>149.66666666666666</ele><time>2026-05-03T10:58:02.395Z</time></trkpt><trkpt lat="41.6188157" lon="13.3141554"><ele>149.0</ele><time>2026-05-03T10:58:03.4Z</time></trkpt><trkpt lat="41.6187341" lon="13.3139592"><ele>149.0</ele><time>2026-05-03T10:58:04.402Z</time></trkpt><trkpt lat="41.6186569" lon="13.3137715"><ele>149.0</ele><time>2026-05-03T10:58:05.395Z</time></trkpt><trkpt lat="41.6185814" lon="13.3135949"><ele>149.0</ele><time>2026-05-03T10:58:06.398Z</time></trkpt><trkpt lat="41.6185018" lon="13.3134222"><ele>149.0</ele><time>2026-05-03T10:58:07.403Z</time></trkpt><trkpt lat="41.6184169" lon="13.3132643"><ele>149.0</ele><time>2026-05-03T10:58:08.403Z</time></trkpt><trkpt lat="41.6183306" lon="13.3131226"><ele>149.0</ele><time>2026-05-03T10:58:09.399Z</time></trkpt><trkpt lat="41.6182484" lon="13.3129927"><ele>149.0</ele><time>2026-05-03T10:58:10.396Z</time></trkpt><trkpt lat="41.6181749" lon="13.3128672"><ele>149.2</ele><time>2026-05-03T10:58:11.394Z</time></trkpt><trkpt lat="41.6181065" lon="13.3127503"><ele>149.4</ele><time>2026-05-03T10:58:12.4Z</time></trkpt><trkpt lat="41.6180408" lon="13.3126382"><ele>149.6</ele><time>2026-05-03T10:58:13.4Z</time></trkpt><trkpt lat="41.617974" lon="13.3125286"><ele>149.8</ele><time>2026-05-03T10:58:14.397Z</time></trkpt><trkpt lat="41.6179064" lon="13.3124175"><ele>150.0</ele><time>2026-05-03T10:58:15.401Z</time></trkpt><trkpt lat="41.6178428" lon="13.3123154"><ele>149.8</ele><time>2026-05-03T10:58:16.408Z</time></trkpt><trkpt lat="41.6177815" lon="13.3122206"><ele>149.6</ele><time>2026-05-03T10:58:17.396Z</time></trkpt><trkpt lat="41.6177172" lon="13.3121136"><ele>149.4</ele><time>2026-05-03T10:58:18.419Z</time></trkpt><trkpt lat="41.6176489" lon="13.3120023"><ele>149.2</ele><time>2026-05-03T10:58:19.405Z</time></trkpt><trkpt lat="41.6175768" lon="13.3118911"><ele>149.0</ele><time>2026-05-03T10:58:20.406Z</time></trkpt><trkpt lat="41.6174966" lon="13.3117703"><ele>149.0</ele><time>2026-05-03T10:58:21.407Z</time></trkpt><trkpt lat="41.6174069" lon="13.3116346"><ele>149.0</ele><time>2026-05-03T10:58:22.408Z</time></trkpt><trkpt lat="41.6173165" lon="13.3114993"><ele>149.0</ele><time>2026-05-03T10:58:23.406Z</time></trkpt><trkpt lat="41.6172269" lon="13.3113685"><ele>149.0</ele><time>2026-05-03T10:58:24.406Z</time></trkpt><trkpt lat="41.6171363" lon="13.3112355"><ele>148.75</ele><time>2026-05-03T10:58:25.403Z</time></trkpt><trkpt lat="41.6170505" lon="13.311104"><ele>148.5</ele><time>2026-05-03T10:58:26.393Z</time></trkpt><trkpt lat="41.6169677" lon="13.3109766"><ele>148.25</ele><time>2026-05-03T10:58:27.409Z</time></trkpt><trkpt lat="41.6168826" lon="13.3108549"><ele>148.0</ele><time>2026-05-03T10:58:28.396Z</time></trkpt><trkpt lat="41.6167874" lon="13.3107164"><ele>148.0</ele><time>2026-05-03T10:58:29.411Z</time></trkpt><trkpt lat="41.6166898" lon="13.3105672"><ele>148.0</ele><time>2026-05-03T10:58:30.398Z</time></trkpt><trkpt lat="41.6165913" lon="13.3104137"><ele>148.0</ele><time>2026-05-03T10:58:31.403Z</time></trkpt><trkpt lat="41.6164933" lon="13.3102591"><ele>148.0</ele><time>2026-05-03T10:58:32.394Z</time></trkpt><trkpt lat="41.6163881" lon="13.3100964"><ele>148.0</ele><time>2026-05-03T10:58:33.399Z</time></trkpt><trkpt lat="41.6162814" lon="13.3099378"><ele>148.0</ele><time>2026-05-03T10:58:34.397Z</time></trkpt><trkpt lat="41.6161841" lon="13.3097904"><ele>147.33333333333334</ele><time>2026-05-03T10:58:35.396Z</time></trkpt><trkpt lat="41.6160849" lon="13.3096388"><ele>146.66666666666666</ele><time>2026-05-03T10:58:36.396Z</time></trkpt><trkpt lat="41.6159796" lon="13.3094769"><ele>146.0</ele><time>2026-05-03T10:58:37.398Z</time></trkpt><trkpt lat="41.6158814" lon="13.3093055"><ele>146.0</ele><time>2026-05-03T10:58:38.4Z</time></trkpt><trkpt lat="41.6157937" lon="13.3091308"><ele>146.0</ele><time>2026-05-03T10:58:39.399Z</time></trkpt><trkpt lat="41.6157171" lon="13.3089571"><ele>146.0</ele><time>2026-05-03T10:58:40.402Z</time></trkpt><trkpt lat="41.6156494" lon="13.3087864"><ele>145.75</ele><time>2026-05-03T10:58:41.401Z</time></trkpt><trkpt lat="41.6155818" lon="13.308604"><ele>145.5</ele><time>2026-05-03T10:58:42.411Z</time></trkpt><trkpt lat="41.6155145" lon="13.3084253"><ele>145.25</ele><time>2026-05-03T10:58:43.399Z</time></trkpt><trkpt lat="41.6154521" lon="13.3082632"><ele>145.0</ele><time>2026-05-03T10:58:44.41Z</time></trkpt><trkpt lat="41.6154022" lon="13.3081303"><ele>145.0</ele><time>2026-05-03T10:58:45.397Z</time></trkpt><trkpt lat="41.6153592" lon="13.3080165"><ele>145.0</ele><time>2026-05-03T10:58:46.402Z</time></trkpt><trkpt lat="41.6153132" lon="13.3078943"><ele>145.0</ele><time>2026-05-03T10:58:47.4Z</time></trkpt><trkpt lat="41.615262" lon="13.3077616"><ele>145.0</ele><time>2026-05-03T10:58:48.399Z</time></trkpt><trkpt lat="41.6152024" lon="13.3076092"><ele>145.0</ele><time>2026-05-03T10:58:49.395Z</time></trkpt><trkpt lat="41.6151423" lon="13.3074546"><ele>144.75</ele><time>2026-05-03T10:58:50.407Z</time></trkpt><trkpt lat="41.615084" lon="13.3073009"><ele>144.5</ele><time>2026-05-03T10:58:51.399Z</time></trkpt><trkpt lat="41.6150239" lon="13.3071405"><ele>144.25</ele><time>2026-05-03T10:58:52.399Z</time></trkpt><trkpt lat="41.6149624" lon="13.3069712"><ele>144.0</ele><time>2026-05-03T10:58:53.409Z</time></trkpt><trkpt lat="41.6148999" lon="13.3067988"><ele>144.25</ele><time>2026-05-03T10:58:54.397Z</time></trkpt><trkpt lat="41.6148348" lon="13.3066212"><ele>144.5</ele><time>2026-05-03T10:58:55.403Z</time></trkpt><trkpt lat="41.6147729" lon="13.3064416"><ele>144.75</ele><time>2026-05-03T10:58:56.397Z</time></trkpt><trkpt lat="41.6147065" lon="13.3062674"><ele>145.0</ele><time>2026-05-03T10:58:57.398Z</time></trkpt><trkpt lat="41.6146297" lon="13.3060998"><ele>145.0</ele><time>2026-05-03T10:58:58.405Z</time></trkpt><trkpt lat="41.6145451" lon="13.3059425"><ele>145.0</ele><time>2026-05-03T10:58:59.397Z</time></trkpt><trkpt lat="41.6144474" lon="13.305789"><ele>145.0</ele><time>2026-05-03T10:59:00.406Z</time></trkpt><trkpt lat="41.6143377" lon="13.3056419"><ele>144.33333333333334</ele><time>2026-05-03T10:59:01.397Z</time></trkpt><trkpt lat="41.6142252" lon="13.3054998"><ele>143.66666666666666</ele><time>2026-05-03T10:59:02.395Z</time></trkpt><trkpt lat="41.614099" lon="13.3053369"><ele>143.0</ele><time>2026-05-03T10:59:03.397Z</time></trkpt><trkpt lat="41.6139511" lon="13.3051334"><ele>143.0</ele><time>2026-05-03T10:59:04.407Z</time></trkpt><trkpt lat="41.6137922" lon="13.3049101"><ele>143.0</ele><time>2026-05-03T10:59:05.407Z</time></trkpt><trkpt lat="41.6136344" lon="13.3046948"><ele>143.0</ele><time>2026-05-03T10:59:06.408Z</time></trkpt><trkpt lat="41.6134914" lon="13.3045007"><ele>143.0</ele><time>2026-05-03T10:59:07.407Z</time></trkpt><trkpt lat="41.6133615" lon="13.3043249"><ele>143.0</ele><time>2026-05-03T10:59:08.408Z</time></trkpt><trkpt lat="41.6132352" lon="13.3041594"><ele>143.0</ele><time>2026-05-03T10:59:09.408Z</time></trkpt><trkpt lat="41.6131236" lon="13.3040057"><ele>143.0</ele><time>2026-05-03T10:59:10.397Z</time></trkpt><trkpt lat="41.6130171" lon="13.3038569"><ele>143.0</ele><time>2026-05-03T10:59:11.407Z</time></trkpt><trkpt lat="41.6129155" lon="13.3037131"><ele>142.5</ele><time>2026-05-03T10:59:12.407Z</time></trkpt><trkpt lat="41.6128137" lon="13.3035685"><ele>142.0</ele><time>2026-05-03T10:59:13.406Z</time></trkpt><trkpt lat="41.6127105" lon="13.3034244"><ele>141.5</ele><time>2026-05-03T10:59:14.408Z</time></trkpt><trkpt lat="41.6126096" lon="13.3032778"><ele>141.0</ele><time>2026-05-03T10:59:15.408Z</time></trkpt><trkpt lat="41.6125075" lon="13.3031312"><ele>141.0</ele><time>2026-05-03T10:59:16.393Z</time></trkpt><trkpt lat="41.6124009" lon="13.3029826"><ele>141.0</ele><time>2026-05-03T10:59:17.401Z</time></trkpt><trkpt lat="41.6122915" lon="13.302829"><ele>141.0</ele><time>2026-05-03T10:59:18.4Z</time></trkpt><trkpt lat="41.6121776" lon="13.3026704"><ele>141.0</ele><time>2026-05-03T10:59:19.398Z</time></trkpt><trkpt lat="41.6120628" lon="13.3025112"><ele>141.0</ele><time>2026-05-03T10:59:20.408Z</time></trkpt><trkpt lat="41.6119467" lon="13.3023498"><ele>141.0</ele><time>2026-05-03T10:59:21.397Z</time></trkpt><trkpt lat="41.6118256" lon="13.3021895"><ele>140.66666666666666</ele><time>2026-05-03T10:59:22.4Z</time></trkpt><trkpt lat="41.6117011" lon="13.3020306"><ele>140.33333333333331</ele><time>2026-05-03T10:59:23.397Z</time></trkpt><trkpt lat="41.6115747" lon="13.3018708"><ele>140.0</ele><time>2026-05-03T10:59:24.397Z</time></trkpt><trkpt lat="41.611445" lon="13.3017139"><ele>140.0</ele><time>2026-05-03T10:59:25.407Z</time></trkpt><trkpt lat="41.6113135" lon="13.3015658"><ele>140.0</ele><time>2026-05-03T10:59:26.398Z</time></trkpt><trkpt lat="41.611177" lon="13.3014279"><ele>140.0</ele><time>2026-05-03T10:59:27.411Z</time></trkpt><trkpt lat="41.6110349" lon="13.3013034"><ele>139.66666666666666</ele><time>2026-05-03T10:59:28.41Z</time></trkpt><trkpt lat="41.6108852" lon="13.3011922"><ele>139.33333333333334</ele><time>2026-05-03T10:59:29.408Z</time></trkpt><trkpt lat="41.6107337" lon="13.3010956"><ele>139.0</ele><time>2026-05-03T10:59:30.413Z</time></trkpt><trkpt lat="41.6105797" lon="13.3010143"><ele>139.0</ele><time>2026-05-03T10:59:31.399Z</time></trkpt><trkpt lat="41.6104216" lon="13.3009433"><ele>139.0</ele><time>2026-05-03T10:59:32.407Z</time></trkpt><trkpt lat="41.6102634" lon="13.3008878"><ele>139.0</ele><time>2026-05-03T10:59:33.411Z</time></trkpt><trkpt lat="41.6101061" lon="13.3008475"><ele>139.33333333333334</ele><time>2026-05-03T10:59:34.399Z</time></trkpt><trkpt lat="41.6099485" lon="13.3008177"><ele>139.66666666666666</ele><time>2026-05-03T10:59:35.397Z</time></trkpt><trkpt lat="41.609787" lon="13.3007988"><ele>140.0</ele><time>2026-05-03T10:59:36.405Z</time></trkpt><trkpt lat="41.609631" lon="13.3007857"><ele>139.75</ele><time>2026-05-03T10:59:37.4Z</time></trkpt><trkpt lat="41.6094872" lon="13.300771"><ele>139.5</ele><time>2026-05-03T10:59:38.406Z</time></trkpt><trkpt lat="41.6093506" lon="13.3007554"><ele>139.25</ele><time>2026-05-03T10:59:39.397Z</time></trkpt><trkpt lat="41.6092098" lon="13.3007401"><ele>139.0</ele><time>2026-05-03T10:59:40.4Z</time></trkpt><trkpt lat="41.6090626" lon="13.3007271"><ele>139.0</ele><time>2026-05-03T10:59:41.407Z</time></trkpt><trkpt lat="41.6089195" lon="13.300713"><ele>139.0</ele><time>2026-05-03T10:59:42.4Z</time></trkpt><trkpt lat="41.6087864" lon="13.300695"><ele>139.0</ele><time>2026-05-03T10:59:43.392Z</time></trkpt><trkpt lat="41.6086645" lon="13.300683"><ele>139.0</ele><time>2026-05-03T10:59:44.39Z</time></trkpt><trkpt lat="41.6085517" lon="13.3006747"><ele>139.0</ele><time>2026-05-03T10:59:45.409Z</time></trkpt><trkpt lat="41.6084467" lon="13.3006652"><ele>139.0</ele><time>2026-05-03T10:59:46.406Z</time></trkpt><trkpt lat="41.6083336" lon="13.30066"><ele>139.0</ele><time>2026-05-03T10:59:47.4Z</time></trkpt><trkpt lat="41.6082139" lon="13.3006535"><ele>139.0</ele><time>2026-05-03T10:59:48.408Z</time></trkpt><trkpt lat="41.6080911" lon="13.300641"><ele>139.0</ele><time>2026-05-03T10:59:49.397Z</time></trkpt><trkpt lat="41.6079635" lon="13.3006267"><ele>139.0</ele><time>2026-05-03T10:59:50.395Z</time></trkpt><trkpt lat="41.6078377" lon="13.3006136"><ele>139.0</ele><time>2026-05-03T10:59:51.395Z</time></trkpt><trkpt lat="41.6077199" lon="13.3006016"><ele>139.0</ele><time>2026-05-03T10:59:52.396Z</time></trkpt><trkpt lat="41.6076139" lon="13.3005906"><ele>138.5</ele><time>2026-05-03T10:59:53.406Z</time></trkpt><trkpt lat="41.6075126" lon="13.3005797"><ele>138.0</ele><time>2026-05-03T10:59:54.397Z</time></trkpt><trkpt lat="41.6074084" lon="13.3005685"><ele>137.5</ele><time>2026-05-03T10:59:55.411Z</time></trkpt><trkpt lat="41.6072773" lon="13.3005623"><ele>137.0</ele><time>2026-05-03T10:59:56.398Z</time></trkpt><trkpt lat="41.6071162" lon="13.3005508"><ele>137.33333333333331</ele><time>2026-05-03T10:59:57.405Z</time></trkpt><trkpt lat="41.6069348" lon="13.3005337"><ele>137.66666666666666</ele><time>2026-05-03T10:59:58.4Z</time></trkpt><trkpt lat="41.6067594" lon="13.3005128"><ele>138.0</ele><time>2026-05-03T10:59:59.407Z</time></trkpt><trkpt lat="41.6065924" lon="13.3004921"><ele>138.0</ele><time>2026-05-03T11:00:00.397Z</time></trkpt><trkpt lat="41.6064251" lon="13.300471"><ele>138.0</ele><time>2026-05-03T11:00:01.397Z</time></trkpt><trkpt lat="41.6062574" lon="13.300455"><ele>138.0</ele><time>2026-05-03T11:00:02.397Z</time></trkpt><trkpt lat="41.6060932" lon="13.3004368"><ele>138.33333333333334</ele><time>2026-05-03T11:00:03.398Z</time></trkpt><trkpt lat="41.6059264" lon="13.3004212"><ele>138.66666666666669</ele><time>2026-05-03T11:00:04.398Z</time></trkpt><trkpt lat="41.6057633" lon="13.3004024"><ele>139.0</ele><time>2026-05-03T11:00:05.404Z</time></trkpt><trkpt lat="41.6055969" lon="13.3003845"><ele>139.0</ele><time>2026-05-03T11:00:06.397Z</time></trkpt><trkpt lat="41.6054259" lon="13.3003651"><ele>139.0</ele><time>2026-05-03T11:00:07.527Z</time></trkpt><trkpt lat="41.6050603" lon="13.3003296"><ele>138.33333333333334</ele><time>2026-05-03T11:00:09.408Z</time></trkpt><trkpt lat="41.6048496" lon="13.30031"><ele>137.66666666666666</ele><time>2026-05-03T11:00:10.397Z</time></trkpt><trkpt lat="41.604622" lon="13.3002878"><ele>137.0</ele><time>2026-05-03T11:00:11.406Z</time></trkpt><trkpt lat="41.60439" lon="13.3002634"><ele>137.0</ele><time>2026-05-03T11:00:12.406Z</time></trkpt><trkpt lat="41.6041516" lon="13.3002411"><ele>137.0</ele><time>2026-05-03T11:00:13.404Z</time></trkpt><trkpt lat="41.6039177" lon="13.3002214"><ele>137.0</ele><time>2026-05-03T11:00:14.402Z</time></trkpt><trkpt lat="41.603697" lon="13.3001993"><ele>137.0</ele><time>2026-05-03T11:00:15.397Z</time></trkpt><trkpt lat="41.6034878" lon="13.3001682"><ele>137.0</ele><time>2026-05-03T11:00:16.398Z</time></trkpt><trkpt lat="41.603282" lon="13.3001425"><ele>137.33333333333331</ele><time>2026-05-03T11:00:17.406Z</time></trkpt><trkpt lat="41.6030794" lon="13.3001166"><ele>137.66666666666666</ele><time>2026-05-03T11:00:18.398Z</time></trkpt><trkpt lat="41.6028831" lon="13.3000975"><ele>138.0</ele><time>2026-05-03T11:00:19.407Z</time></trkpt><trkpt lat="41.6026871" lon="13.300074"><ele>138.0</ele><time>2026-05-03T11:00:20.398Z</time></trkpt><trkpt lat="41.6025045" lon="13.3000492"><ele>138.0</ele><time>2026-05-03T11:00:21.406Z</time></trkpt><trkpt lat="41.6023277" lon="13.3000122"><ele>138.0</ele><time>2026-05-03T11:00:22.399Z</time></trkpt><trkpt lat="41.6021717" lon="13.2999618"><ele>138.0</ele><time>2026-05-03T11:00:23.395Z</time></trkpt><trkpt lat="41.6020219" lon="13.2998898"><ele>138.0</ele><time>2026-05-03T11:00:24.407Z</time></trkpt><trkpt lat="41.6018876" lon="13.2997988"><ele>138.0</ele><time>2026-05-03T11:00:25.402Z</time></trkpt><trkpt lat="41.6017564" lon="13.2996812"><ele>137.66666666666666</ele><time>2026-05-03T11:00:26.399Z</time></trkpt><trkpt lat="41.6016347" lon="13.2995435"><ele>137.33333333333331</ele><time>2026-05-03T11:00:27.401Z</time></trkpt><trkpt lat="41.6015195" lon="13.2993941"><ele>137.0</ele><time>2026-05-03T11:00:28.396Z</time></trkpt><trkpt lat="41.6014182" lon="13.2992415"><ele>137.0</ele><time>2026-05-03T11:00:29.397Z</time></trkpt><trkpt lat="41.6013312" lon="13.2990918"><ele>137.0</ele><time>2026-05-03T11:00:30.394Z</time></trkpt><trkpt lat="41.601252" lon="13.298933"><ele>137.0</ele><time>2026-05-03T11:00:31.407Z</time></trkpt><trkpt lat="41.6011856" lon="13.2987644"><ele>137.0</ele><time>2026-05-03T11:00:32.396Z</time></trkpt><trkpt lat="41.6011313" lon="13.2985887"><ele>136.25</ele><time>2026-05-03T11:00:33.408Z</time></trkpt><trkpt lat="41.6010906" lon="13.2984073"><ele>135.5</ele><time>2026-05-03T11:00:34.395Z</time></trkpt><trkpt lat="41.6010631" lon="13.2982238"><ele>134.75</ele><time>2026-05-03T11:00:35.407Z</time></trkpt><trkpt lat="41.6010505" lon="13.298031"><ele>134.0</ele><time>2026-05-03T11:00:36.405Z</time></trkpt><trkpt lat="41.6010427" lon="13.2978292"><ele>133.0</ele><time>2026-05-03T11:00:37.397Z</time></trkpt><trkpt lat="41.6010362" lon="13.2976238"><ele>132.0</ele><time>2026-05-03T11:00:38.397Z</time></trkpt><trkpt lat="41.601036" lon="13.2974149"><ele>131.0</ele><time>2026-05-03T11:00:39.393Z</time></trkpt><trkpt lat="41.6010356" lon="13.2972265"><ele>130.75</ele><time>2026-05-03T11:00:40.398Z</time></trkpt><trkpt lat="41.6010335" lon="13.2970436"><ele>130.5</ele><time>2026-05-03T11:00:41.397Z</time></trkpt><trkpt lat="41.6010369" lon="13.296844"><ele>130.25</ele><time>2026-05-03T11:00:42.409Z</time></trkpt><trkpt lat="41.6010381" lon="13.2966428"><ele>130.0</ele><time>2026-05-03T11:00:43.398Z</time></trkpt><trkpt lat="41.601044" lon="13.2964432"><ele>130.66666666666669</ele><time>2026-05-03T11:00:44.4Z</time></trkpt><trkpt lat="41.6010486" lon="13.2962455"><ele>131.33333333333334</ele><time>2026-05-03T11:00:45.403Z</time></trkpt><trkpt lat="41.6010432" lon="13.2960407"><ele>132.0</ele><time>2026-05-03T11:00:46.396Z</time></trkpt><trkpt lat="41.6010311" lon="13.2958378"><ele>132.0</ele><time>2026-05-03T11:00:47.407Z</time></trkpt><trkpt lat="41.6010098" lon="13.2956536"><ele>132.0</ele><time>2026-05-03T11:00:48.392Z</time></trkpt><trkpt lat="41.6009811" lon="13.2954514"><ele>132.0</ele><time>2026-05-03T11:00:49.404Z</time></trkpt><trkpt lat="41.6009437" lon="13.2952553"><ele>132.0</ele><time>2026-05-03T11:00:50.399Z</time></trkpt><trkpt lat="41.600896" lon="13.2950563"><ele>132.33333333333334</ele><time>2026-05-03T11:00:51.399Z</time></trkpt><trkpt lat="41.6008338" lon="13.2948559"><ele>132.66666666666669</ele><time>2026-05-03T11:00:52.396Z</time></trkpt><trkpt lat="41.6007564" lon="13.2946579"><ele>133.0</ele><time>2026-05-03T11:00:53.408Z</time></trkpt><trkpt lat="41.600673" lon="13.2944732"><ele>133.0</ele><time>2026-05-03T11:00:54.401Z</time></trkpt><trkpt lat="41.6005813" lon="13.2942985"><ele>133.0</ele><time>2026-05-03T11:00:55.405Z</time></trkpt><trkpt lat="41.6004804" lon="13.2941355"><ele>133.0</ele><time>2026-05-03T11:00:56.407Z</time></trkpt><trkpt lat="41.6003704" lon="13.2939952"><ele>133.66666666666669</ele><time>2026-05-03T11:00:57.398Z</time></trkpt><trkpt lat="41.6002552" lon="13.2938591"><ele>134.33333333333334</ele><time>2026-05-03T11:00:58.393Z</time></trkpt><trkpt lat="41.6001339" lon="13.293734"><ele>135.0</ele><time>2026-05-03T11:00:59.397Z</time></trkpt><trkpt lat="41.6000098" lon="13.2936202"><ele>135.0</ele><time>2026-05-03T11:01:00.4Z</time></trkpt><trkpt lat="41.5998787" lon="13.2935135"><ele>135.0</ele><time>2026-05-03T11:01:01.399Z</time></trkpt><trkpt lat="41.5997406" lon="13.2934221"><ele>135.0</ele><time>2026-05-03T11:01:02.396Z</time></trkpt><trkpt lat="41.5995909" lon="13.2933395"><ele>134.66666666666666</ele><time>2026-05-03T11:01:03.4Z</time></trkpt><trkpt lat="41.599435" lon="13.2932671"><ele>134.33333333333331</ele><time>2026-05-03T11:01:04.399Z</time></trkpt><trkpt lat="41.5992808" lon="13.2932043"><ele>134.0</ele><time>2026-05-03T11:01:05.394Z</time></trkpt><trkpt lat="41.5991258" lon="13.2931437"><ele>133.33333333333331</ele><time>2026-05-03T11:01:06.395Z</time></trkpt><trkpt lat="41.5989744" lon="13.2930889"><ele>132.66666666666666</ele><time>2026-05-03T11:01:07.408Z</time></trkpt><trkpt lat="41.5988219" lon="13.2930335"><ele>132.0</ele><time>2026-05-03T11:01:08.396Z</time></trkpt><trkpt lat="41.5986674" lon="13.292975"><ele>133.33333333333334</ele><time>2026-05-03T11:01:09.405Z</time></trkpt><trkpt lat="41.5985092" lon="13.2929157"><ele>134.66666666666669</ele><time>2026-05-03T11:01:10.395Z</time></trkpt><trkpt lat="41.5983605" lon="13.2928613"><ele>136.0</ele><time>2026-05-03T11:01:11.409Z</time></trkpt><trkpt lat="41.5982101" lon="13.292808"><ele>136.0</ele><time>2026-05-03T11:01:12.398Z</time></trkpt><trkpt lat="41.5980519" lon="13.2927537"><ele>136.0</ele><time>2026-05-03T11:01:13.396Z</time></trkpt><trkpt lat="41.5978852" lon="13.2926901"><ele>136.0</ele><time>2026-05-03T11:01:14.406Z</time></trkpt><trkpt lat="41.5977232" lon="13.292629"><ele>135.33333333333334</ele><time>2026-05-03T11:01:15.396Z</time></trkpt><trkpt lat="41.5975598" lon="13.2925718"><ele>134.66666666666666</ele><time>2026-05-03T11:01:16.406Z</time></trkpt><trkpt lat="41.597394" lon="13.292511"><ele>134.0</ele><time>2026-05-03T11:01:17.404Z</time></trkpt><trkpt lat="41.5972259" lon="13.2924483"><ele>134.0</ele><time>2026-05-03T11:01:18.393Z</time></trkpt><trkpt lat="41.5970596" lon="13.292384"><ele>134.0</ele><time>2026-05-03T11:01:19.397Z</time></trkpt><trkpt lat="41.5968944" lon="13.292319"><ele>134.0</ele><time>2026-05-03T11:01:20.408Z</time></trkpt><trkpt lat="41.5967262" lon="13.2922608"><ele>134.0</ele><time>2026-05-03T11:01:21.405Z</time></trkpt><trkpt lat="41.5965607" lon="13.2922057"><ele>134.0</ele><time>2026-05-03T11:01:22.402Z</time></trkpt><trkpt lat="41.5963981" lon="13.292147"><ele>134.0</ele><time>2026-05-03T11:01:23.409Z</time></trkpt><trkpt lat="41.5962331" lon="13.2920842"><ele>133.33333333333331</ele><time>2026-05-03T11:01:24.394Z</time></trkpt><trkpt lat="41.5960642" lon="13.2920215"><ele>132.66666666666666</ele><time>2026-05-03T11:01:25.398Z</time></trkpt><trkpt lat="41.5958923" lon="13.291962"><ele>132.0</ele><time>2026-05-03T11:01:26.399Z</time></trkpt><trkpt lat="41.5957185" lon="13.2919026"><ele>132.0</ele><time>2026-05-03T11:01:27.408Z</time></trkpt><trkpt lat="41.5955494" lon="13.2918374"><ele>132.0</ele><time>2026-05-03T11:01:28.403Z</time></trkpt><trkpt lat="41.5953771" lon="13.2917739"><ele>132.0</ele><time>2026-05-03T11:01:29.398Z</time></trkpt><trkpt lat="41.5952083" lon="13.2917094"><ele>132.66666666666666</ele><time>2026-05-03T11:01:30.398Z</time></trkpt><trkpt lat="41.5950449" lon="13.2916464"><ele>133.33333333333331</ele><time>2026-05-03T11:01:31.406Z</time></trkpt><trkpt lat="41.5948828" lon="13.2915836"><ele>134.0</ele><time>2026-05-03T11:01:32.399Z</time></trkpt><trkpt lat="41.5947247" lon="13.291525"><ele>134.0</ele><time>2026-05-03T11:01:33.399Z</time></trkpt><trkpt lat="41.594572" lon="13.2914671"><ele>134.0</ele><time>2026-05-03T11:01:34.397Z</time></trkpt><trkpt lat="41.5944218" lon="13.2914081"><ele>134.0</ele><time>2026-05-03T11:01:35.397Z</time></trkpt><trkpt lat="41.5942754" lon="13.2913516"><ele>135.0</ele><time>2026-05-03T11:01:36.397Z</time></trkpt><trkpt lat="41.5941288" lon="13.2912971"><ele>136.0</ele><time>2026-05-03T11:01:37.408Z</time></trkpt><trkpt lat="41.5939826" lon="13.2912459"><ele>137.0</ele><time>2026-05-03T11:01:38.397Z</time></trkpt><trkpt lat="41.5938372" lon="13.2911924"><ele>137.0</ele><time>2026-05-03T11:01:39.405Z</time></trkpt><trkpt lat="41.5937" lon="13.2911389"><ele>137.0</ele><time>2026-05-03T11:01:40.396Z</time></trkpt><trkpt lat="41.5935689" lon="13.2910869"><ele>137.0</ele><time>2026-05-03T11:01:41.393Z</time></trkpt><trkpt lat="41.5934317" lon="13.2910316"><ele>137.0</ele><time>2026-05-03T11:01:42.403Z</time></trkpt><trkpt lat="41.5932795" lon="13.2909671"><ele>137.66666666666666</ele><time>2026-05-03T11:01:43.392Z</time></trkpt><trkpt lat="41.5931101" lon="13.2908862"><ele>138.33333333333334</ele><time>2026-05-03T11:01:44.397Z</time></trkpt><trkpt lat="41.5929383" lon="13.2907904"><ele>139.0</ele><time>2026-05-03T11:01:45.396Z</time></trkpt><trkpt lat="41.5927644" lon="13.2906746"><ele>139.0</ele><time>2026-05-03T11:01:46.402Z</time></trkpt><trkpt lat="41.5925897" lon="13.2905356"><ele>139.0</ele><time>2026-05-03T11:01:47.404Z</time></trkpt><trkpt lat="41.5924197" lon="13.2903652"><ele>139.0</ele><time>2026-05-03T11:01:48.397Z</time></trkpt><trkpt lat="41.5922382" lon="13.290165"><ele>139.0</ele><time>2026-05-03T11:01:49.402Z</time></trkpt><trkpt lat="41.5920352" lon="13.2899386"><ele>139.0</ele><time>2026-05-03T11:01:50.397Z</time></trkpt><trkpt lat="41.5918248" lon="13.2897008"><ele>140.5</ele><time>2026-05-03T11:01:51.394Z</time></trkpt><trkpt lat="41.5916104" lon="13.2894626"><ele>142.0</ele><time>2026-05-03T11:01:52.398Z</time></trkpt><trkpt lat="41.5913954" lon="13.2892221"><ele>142.0</ele><time>2026-05-03T11:01:53.396Z</time></trkpt><trkpt lat="41.5911763" lon="13.2889763"><ele>142.0</ele><time>2026-05-03T11:01:54.405Z</time></trkpt><trkpt lat="41.5909629" lon="13.2887339"><ele>140.5</ele><time>2026-05-03T11:01:55.397Z</time></trkpt><trkpt lat="41.5907551" lon="13.2884972"><ele>139.0</ele><time>2026-05-03T11:01:56.406Z</time></trkpt><trkpt lat="41.5905601" lon="13.2882776"><ele>138.5</ele><time>2026-05-03T11:01:57.394Z</time></trkpt><trkpt lat="41.5903713" lon="13.2880692"><ele>138.0</ele><time>2026-05-03T11:01:58.397Z</time></trkpt><trkpt lat="41.5901859" lon="13.287862"><ele>138.0</ele><time>2026-05-03T11:01:59.394Z</time></trkpt><trkpt lat="41.5900021" lon="13.2876511"><ele>138.0</ele><time>2026-05-03T11:02:00.404Z</time></trkpt><trkpt lat="41.5898231" lon="13.2874464"><ele>138.0</ele><time>2026-05-03T11:02:01.397Z</time></trkpt><trkpt lat="41.5896407" lon="13.2872441"><ele>138.0</ele><time>2026-05-03T11:02:02.405Z</time></trkpt><trkpt lat="41.5894594" lon="13.2870409"><ele>137.5</ele><time>2026-05-03T11:02:03.397Z</time></trkpt><trkpt lat="41.5892784" lon="13.2868357"><ele>137.0</ele><time>2026-05-03T11:02:04.398Z</time></trkpt><trkpt lat="41.5890985" lon="13.2866297"><ele>137.5</ele><time>2026-05-03T11:02:05.396Z</time></trkpt><trkpt lat="41.5889152" lon="13.2864261"><ele>138.0</ele><time>2026-05-03T11:02:06.394Z</time></trkpt><trkpt lat="41.5887342" lon="13.2862236"><ele>138.0</ele><time>2026-05-03T11:02:07.395Z</time></trkpt><trkpt lat="41.588552" lon="13.2860192"><ele>138.0</ele><time>2026-05-03T11:02:08.398Z</time></trkpt><trkpt lat="41.5883692" lon="13.2858157"><ele>138.0</ele><time>2026-05-03T11:02:09.394Z</time></trkpt><trkpt lat="41.5881839" lon="13.2856137"><ele>138.0</ele><time>2026-05-03T11:02:10.403Z</time></trkpt><trkpt lat="41.5879985" lon="13.2854109"><ele>138.0</ele><time>2026-05-03T11:02:11.399Z</time></trkpt><trkpt lat="41.5878135" lon="13.2852043"><ele>138.0</ele><time>2026-05-03T11:02:12.395Z</time></trkpt><trkpt lat="41.5876253" lon="13.2849913"><ele>138.0</ele><time>2026-05-03T11:02:13.405Z</time></trkpt><trkpt lat="41.5874327" lon="13.2847694"><ele>138.0</ele><time>2026-05-03T11:02:14.39Z</time></trkpt><trkpt lat="41.5872268" lon="13.2845321"><ele>138.0</ele><time>2026-05-03T11:02:15.405Z</time></trkpt><trkpt lat="41.5870197" lon="13.284291"><ele>138.0</ele><time>2026-05-03T11:02:16.399Z</time></trkpt><trkpt lat="41.5868073" lon="13.2840416"><ele>139.0</ele><time>2026-05-03T11:02:17.395Z</time></trkpt><trkpt lat="41.5865976" lon="13.2837831"><ele>140.0</ele><time>2026-05-03T11:02:18.403Z</time></trkpt><trkpt lat="41.5863982" lon="13.283515"><ele>140.0</ele><time>2026-05-03T11:02:19.4Z</time></trkpt><trkpt lat="41.5862007" lon="13.2832428"><ele>140.0</ele><time>2026-05-03T11:02:20.403Z</time></trkpt><trkpt lat="41.5860079" lon="13.2829682"><ele>139.5</ele><time>2026-05-03T11:02:21.399Z</time></trkpt><trkpt lat="41.5858161" lon="13.2826893"><ele>139.0</ele><time>2026-05-03T11:02:22.392Z</time></trkpt><trkpt lat="41.5856183" lon="13.2824041"><ele>140.0</ele><time>2026-05-03T11:02:23.406Z</time></trkpt><trkpt lat="41.5854141" lon="13.2821127"><ele>141.0</ele><time>2026-05-03T11:02:24.403Z</time></trkpt><trkpt lat="41.5852062" lon="13.2818135"><ele>141.0</ele><time>2026-05-03T11:02:25.394Z</time></trkpt><trkpt lat="41.5850074" lon="13.281518"><ele>141.0</ele><time>2026-05-03T11:02:26.395Z</time></trkpt><trkpt lat="41.5848144" lon="13.2812319"><ele>141.0</ele><time>2026-05-03T11:02:27.398Z</time></trkpt><trkpt lat="41.584624" lon="13.2809592"><ele>141.0</ele><time>2026-05-03T11:02:28.405Z</time></trkpt><trkpt lat="41.5844356" lon="13.2807015"><ele>143.0</ele><time>2026-05-03T11:02:29.399Z</time></trkpt><trkpt lat="41.5842463" lon="13.2804539"><ele>145.0</ele><time>2026-05-03T11:02:30.393Z</time></trkpt><trkpt lat="41.5840567" lon="13.2802121"><ele>145.0</ele><time>2026-05-03T11:02:31.399Z</time></trkpt><trkpt lat="41.5838665" lon="13.2799744"><ele>145.0</ele><time>2026-05-03T11:02:32.398Z</time></trkpt><trkpt lat="41.5836754" lon="13.279737"><ele>146.5</ele><time>2026-05-03T11:02:33.4Z</time></trkpt><trkpt lat="41.5834844" lon="13.2795064"><ele>148.0</ele><time>2026-05-03T11:02:34.398Z</time></trkpt><trkpt lat="41.5832922" lon="13.2792766"><ele>148.0</ele><time>2026-05-03T11:02:35.406Z</time></trkpt><trkpt lat="41.5830963" lon="13.2790459"><ele>148.0</ele><time>2026-05-03T11:02:36.396Z</time></trkpt><trkpt lat="41.5828982" lon="13.2788122"><ele>149.0</ele><time>2026-05-03T11:02:37.402Z</time></trkpt><trkpt lat="41.5826999" lon="13.2785776"><ele>150.0</ele><time>2026-05-03T11:02:38.389Z</time></trkpt><trkpt lat="41.582498" lon="13.2783415"><ele>150.0</ele><time>2026-05-03T11:02:39.397Z</time></trkpt><trkpt lat="41.5823007" lon="13.2781082"><ele>150.0</ele><time>2026-05-03T11:02:40.397Z</time></trkpt><trkpt lat="41.5821101" lon="13.2778759"><ele>149.0</ele><time>2026-05-03T11:02:41.406Z</time></trkpt><trkpt lat="41.5819264" lon="13.2776338"><ele>148.0</ele><time>2026-05-03T11:02:42.404Z</time></trkpt><trkpt lat="41.5817455" lon="13.2773879"><ele>148.5</ele><time>2026-05-03T11:02:43.399Z</time></trkpt><trkpt lat="41.5815732" lon="13.277145"><ele>149.0</ele><time>2026-05-03T11:02:44.405Z</time></trkpt><trkpt lat="41.581405" lon="13.2768975"><ele>149.0</ele><time>2026-05-03T11:02:45.4Z</time></trkpt><trkpt lat="41.5812339" lon="13.276641"><ele>149.0</ele><time>2026-05-03T11:02:46.388Z</time></trkpt><trkpt lat="41.5810642" lon="13.2763755"><ele>148.0</ele><time>2026-05-03T11:02:47.398Z</time></trkpt><trkpt lat="41.5808969" lon="13.2761082"><ele>147.0</ele><time>2026-05-03T11:02:48.4Z</time></trkpt><trkpt lat="41.5807259" lon="13.2758349"><ele>147.0</ele><time>2026-05-03T11:02:49.406Z</time></trkpt><trkpt lat="41.5805532" lon="13.2755489"><ele>147.0</ele><time>2026-05-03T11:02:50.398Z</time></trkpt><trkpt lat="41.580379" lon="13.27525"><ele>147.0</ele><time>2026-05-03T11:02:51.41Z</time></trkpt><trkpt lat="41.5802027" lon="13.2749519"><ele>147.0</ele><time>2026-05-03T11:02:52.402Z</time></trkpt><trkpt lat="41.5800253" lon="13.2746629"><ele>147.5</ele><time>2026-05-03T11:02:53.399Z</time></trkpt><trkpt lat="41.5798526" lon="13.2743796"><ele>148.0</ele><time>2026-05-03T11:02:54.402Z</time></trkpt><trkpt lat="41.5796803" lon="13.2740958"><ele>149.5</ele><time>2026-05-03T11:02:55.396Z</time></trkpt><trkpt lat="41.5795064" lon="13.2738129"><ele>151.0</ele><time>2026-05-03T11:02:56.397Z</time></trkpt><trkpt lat="41.5793288" lon="13.2735232"><ele>151.0</ele><time>2026-05-03T11:02:57.397Z</time></trkpt><trkpt lat="41.5791475" lon="13.2732348"><ele>151.0</ele><time>2026-05-03T11:02:58.393Z</time></trkpt><trkpt lat="41.5789655" lon="13.272949"><ele>150.5</ele><time>2026-05-03T11:02:59.397Z</time></trkpt><trkpt lat="41.5787865" lon="13.2726695"><ele>150.0</ele><time>2026-05-03T11:03:00.397Z</time></trkpt><trkpt lat="41.5786101" lon="13.2723967"><ele>153.5</ele><time>2026-05-03T11:03:01.395Z</time></trkpt><trkpt lat="41.5784294" lon="13.2721305"><ele>157.0</ele><time>2026-05-03T11:03:02.402Z</time></trkpt><trkpt lat="41.5782428" lon="13.2718816"><ele>157.0</ele><time>2026-05-03T11:03:03.392Z</time></trkpt><trkpt lat="41.5780499" lon="13.2716518"><ele>157.0</ele><time>2026-05-03T11:03:04.393Z</time></trkpt><trkpt lat="41.5778478" lon="13.2714425"><ele>159.5</ele><time>2026-05-03T11:03:05.403Z</time></trkpt><trkpt lat="41.577639" lon="13.2712515"><ele>162.0</ele><time>2026-05-03T11:03:06.393Z</time></trkpt><trkpt lat="41.5774243" lon="13.27107"><ele>162.0</ele><time>2026-05-03T11:03:07.393Z</time></trkpt><trkpt lat="41.5772074" lon="13.2708979"><ele>162.0</ele><time>2026-05-03T11:03:08.395Z</time></trkpt><trkpt lat="41.5769887" lon="13.270738"><ele>165.5</ele><time>2026-05-03T11:03:09.396Z</time></trkpt><trkpt lat="41.5767648" lon="13.2705929"><ele>169.0</ele><time>2026-05-03T11:03:10.401Z</time></trkpt><trkpt lat="41.5765372" lon="13.2704678"><ele>169.0</ele><time>2026-05-03T11:03:11.399Z</time></trkpt><trkpt lat="41.5763075" lon="13.2703626"><ele>169.0</ele><time>2026-05-03T11:03:12.402Z</time></trkpt><trkpt lat="41.576077" lon="13.2702689"><ele>173.0</ele><time>2026-05-03T11:03:13.39Z</time></trkpt><trkpt lat="41.5758429" lon="13.2701803"><ele>177.0</ele><time>2026-05-03T11:03:14.393Z</time></trkpt><trkpt lat="41.575606" lon="13.270096"><ele>177.0</ele><time>2026-05-03T11:03:15.399Z</time></trkpt><trkpt lat="41.5753666" lon="13.2700086"><ele>177.0</ele><time>2026-05-03T11:03:16.391Z</time></trkpt><trkpt lat="41.5751223" lon="13.2699168"><ele>177.0</ele><time>2026-05-03T11:03:17.393Z</time></trkpt><trkpt lat="41.5748747" lon="13.2698221"><ele>177.0</ele><time>2026-05-03T11:03:18.395Z</time></trkpt><trkpt lat="41.5746239" lon="13.2697287"><ele>184.0</ele><time>2026-05-03T11:03:19.395Z</time></trkpt><trkpt lat="41.5743714" lon="13.2696318"><ele>191.0</ele><time>2026-05-03T11:03:20.396Z</time></trkpt><trkpt lat="41.5741221" lon="13.2695337"><ele>191.0</ele><time>2026-05-03T11:03:21.4Z</time></trkpt><trkpt lat="41.5738736" lon="13.2694385"><ele>191.0</ele><time>2026-05-03T11:03:22.397Z</time></trkpt><trkpt lat="41.5736258" lon="13.2693492"><ele>193.5</ele><time>2026-05-03T11:03:23.392Z</time></trkpt><trkpt lat="41.573378" lon="13.2692641"><ele>196.0</ele><time>2026-05-03T11:03:24.399Z</time></trkpt><trkpt lat="41.5731326" lon="13.2691777"><ele>196.0</ele><time>2026-05-03T11:03:25.391Z</time></trkpt><trkpt lat="41.5728908" lon="13.269088"><ele>196.0</ele><time>2026-05-03T11:03:26.394Z</time></trkpt><trkpt lat="41.5726522" lon="13.2689951"><ele>201.0</ele><time>2026-05-03T11:03:27.396Z</time></trkpt><trkpt lat="41.5724107" lon="13.2689037"><ele>206.0</ele><time>2026-05-03T11:03:28.399Z</time></trkpt><trkpt lat="41.572164" lon="13.2688114"><ele>202.5</ele><time>2026-05-03T11:03:29.391Z</time></trkpt><trkpt lat="41.5719021" lon="13.2687164"><ele>199.0</ele><time>2026-05-03T11:03:30.397Z</time></trkpt><trkpt lat="41.5716326" lon="13.2686186"><ele>199.0</ele><time>2026-05-03T11:03:31.392Z</time></trkpt><trkpt lat="41.5713539" lon="13.2685181"><ele>199.0</ele><time>2026-05-03T11:03:32.389Z</time></trkpt><trkpt lat="41.5710666" lon="13.268418"><ele>196.5</ele><time>2026-05-03T11:03:33.393Z</time></trkpt><trkpt lat="41.5707765" lon="13.2683254"><ele>194.0</ele><time>2026-05-03T11:03:34.394Z</time></trkpt><trkpt lat="41.5704831" lon="13.2682416"><ele>193.5</ele><time>2026-05-03T11:03:35.391Z</time></trkpt><trkpt lat="41.5701842" lon="13.2681739"><ele>193.0</ele><time>2026-05-03T11:03:36.398Z</time></trkpt><trkpt lat="41.5698863" lon="13.2681183"><ele>197.0</ele><time>2026-05-03T11:03:37.391Z</time></trkpt><trkpt lat="41.5695903" lon="13.2680758"><ele>201.0</ele><time>2026-05-03T11:03:38.391Z</time></trkpt><trkpt lat="41.5693027" lon="13.2680482"><ele>201.0</ele><time>2026-05-03T11:03:39.401Z</time></trkpt><trkpt lat="41.5690278" lon="13.2680341"><ele>201.0</ele><time>2026-05-03T11:03:40.393Z</time></trkpt><trkpt lat="41.5687522" lon="13.2680171"><ele>204.5</ele><time>2026-05-03T11:03:41.4Z</time></trkpt><trkpt lat="41.568474" lon="13.2679959"><ele>208.0</ele><time>2026-05-03T11:03:42.394Z</time></trkpt><trkpt lat="41.5681906" lon="13.2679778"><ele>208.0</ele><time>2026-05-03T11:03:43.401Z</time></trkpt><trkpt lat="41.5678956" lon="13.2679647"><ele>208.0</ele><time>2026-05-03T11:03:44.392Z</time></trkpt><trkpt lat="41.567586" lon="13.2679499"><ele>207.0</ele><time>2026-05-03T11:03:45.393Z</time></trkpt><trkpt lat="41.5672657" lon="13.2679309"><ele>206.0</ele><time>2026-05-03T11:03:46.395Z</time></trkpt><trkpt lat="41.5669353" lon="13.2679106"><ele>205.5</ele><time>2026-05-03T11:03:47.392Z</time></trkpt><trkpt lat="41.5666001" lon="13.2678914"><ele>205.0</ele><time>2026-05-03T11:03:48.394Z</time></trkpt><trkpt lat="41.5662695" lon="13.2678728"><ele>204.0</ele><time>2026-05-03T11:03:49.393Z</time></trkpt><trkpt lat="41.5659433" lon="13.2678582"><ele>203.0</ele><time>2026-05-03T11:03:50.395Z</time></trkpt><trkpt lat="41.5656247" lon="13.2678439"><ele>208.0</ele><time>2026-05-03T11:03:51.394Z</time></trkpt><trkpt lat="41.5653124" lon="13.2678266"><ele>213.0</ele><time>2026-05-03T11:03:52.393Z</time></trkpt><trkpt lat="41.5650044" lon="13.2678109"><ele>213.0</ele><time>2026-05-03T11:03:53.403Z</time></trkpt><trkpt lat="41.5647174" lon="13.2677864"><ele>213.0</ele><time>2026-05-03T11:03:54.403Z</time></trkpt><trkpt lat="41.5644498" lon="13.2677561"><ele>219.0</ele><time>2026-05-03T11:03:55.396Z</time></trkpt><trkpt lat="41.5641839" lon="13.2677192"><ele>225.0</ele><time>2026-05-03T11:03:56.394Z</time></trkpt><trkpt lat="41.5639159" lon="13.2676709"><ele>220.5</ele><time>2026-05-03T11:03:57.403Z</time></trkpt><trkpt lat="41.5636486" lon="13.267616"><ele>216.0</ele><time>2026-05-03T11:03:58.393Z</time></trkpt><trkpt lat="41.5633746" lon="13.267551"><ele>216.0</ele><time>2026-05-03T11:03:59.392Z</time></trkpt><trkpt lat="41.563096" lon="13.2674832"><ele>216.0</ele><time>2026-05-03T11:04:00.393Z</time></trkpt><trkpt lat="41.5628086" lon="13.267407"><ele>216.5</ele><time>2026-05-03T11:04:01.395Z</time></trkpt><trkpt lat="41.5625142" lon="13.2673301"><ele>217.0</ele><time>2026-05-03T11:04:02.4Z</time></trkpt><trkpt lat="41.5622187" lon="13.2672509"><ele>222.0</ele><time>2026-05-03T11:04:03.403Z</time></trkpt><trkpt lat="41.561923" lon="13.2671714"><ele>227.0</ele><time>2026-05-03T11:04:04.403Z</time></trkpt><trkpt lat="41.5616278" lon="13.2670928"><ele>227.0</ele><time>2026-05-03T11:04:05.401Z</time></trkpt><trkpt lat="41.561333" lon="13.2670183"><ele>227.0</ele><time>2026-05-03T11:04:06.396Z</time></trkpt><trkpt lat="41.5610335" lon="13.2669344"><ele>226.0</ele><time>2026-05-03T11:04:07.403Z</time></trkpt><trkpt lat="41.5607339" lon="13.2668513"><ele>225.0</ele><time>2026-05-03T11:04:08.402Z</time></trkpt><trkpt lat="41.5604338" lon="13.266768"><ele>225.5</ele><time>2026-05-03T11:04:09.403Z</time></trkpt><trkpt lat="41.5601355" lon="13.2666844"><ele>226.0</ele><time>2026-05-03T11:04:10.403Z</time></trkpt><trkpt lat="41.5598443" lon="13.2666119"><ele>226.0</ele><time>2026-05-03T11:04:11.403Z</time></trkpt><trkpt lat="41.5595577" lon="13.2665428"><ele>226.0</ele><time>2026-05-03T11:04:12.393Z</time></trkpt><trkpt lat="41.5592791" lon="13.2664662"><ele>234.0</ele><time>2026-05-03T11:04:13.396Z</time></trkpt><trkpt lat="41.5589999" lon="13.2663929"><ele>242.0</ele><time>2026-05-03T11:04:14.395Z</time></trkpt><trkpt lat="41.5587235" lon="13.2663248"><ele>237.5</ele><time>2026-05-03T11:04:15.394Z</time></trkpt><trkpt lat="41.558441" lon="13.2662681"><ele>233.0</ele><time>2026-05-03T11:04:16.404Z</time></trkpt><trkpt lat="41.5581599" lon="13.2662259"><ele>233.0</ele><time>2026-05-03T11:04:17.396Z</time></trkpt><trkpt lat="41.5578839" lon="13.266206"><ele>233.0</ele><time>2026-05-03T11:04:18.403Z</time></trkpt><trkpt lat="41.5576114" lon="13.2662042"><ele>240.0</ele><time>2026-05-03T11:04:19.394Z</time></trkpt><trkpt lat="41.5573399" lon="13.2662145"><ele>247.0</ele><time>2026-05-03T11:04:20.4Z</time></trkpt><trkpt lat="41.5570617" lon="13.2662389"><ele>251.5</ele><time>2026-05-03T11:04:21.404Z</time></trkpt><trkpt lat="41.5567797" lon="13.2662694"><ele>256.0</ele><time>2026-05-03T11:04:22.389Z</time></trkpt><trkpt lat="41.5564968" lon="13.266298"><ele>256.0</ele><time>2026-05-03T11:04:23.399Z</time></trkpt><trkpt lat="41.5562145" lon="13.2663369"><ele>256.0</ele><time>2026-05-03T11:04:24.393Z</time></trkpt><trkpt lat="41.5559327" lon="13.2663724"><ele>258.5</ele><time>2026-05-03T11:04:25.399Z</time></trkpt><trkpt lat="41.5556535" lon="13.2664064"><ele>261.0</ele><time>2026-05-03T11:04:26.394Z</time></trkpt><trkpt lat="41.5553769" lon="13.266441"><ele>249.0</ele><time>2026-05-03T11:04:27.395Z</time></trkpt><trkpt lat="41.5551032" lon="13.2664733"><ele>237.0</ele><time>2026-05-03T11:04:28.392Z</time></trkpt><trkpt lat="41.5548331" lon="13.2665097"><ele>237.0</ele><time>2026-05-03T11:04:29.398Z</time></trkpt><trkpt lat="41.5545638" lon="13.2665447"><ele>237.0</ele><time>2026-05-03T11:04:30.399Z</time></trkpt><trkpt lat="41.5543006" lon="13.2665926"><ele>236.0</ele><time>2026-05-03T11:04:31.394Z</time></trkpt><trkpt lat="41.5540415" lon="13.266659"><ele>235.0</ele><time>2026-05-03T11:04:32.397Z</time></trkpt><trkpt lat="41.5537775" lon="13.2667472"><ele>241.5</ele><time>2026-05-03T11:04:33.402Z</time></trkpt><trkpt lat="41.5535162" lon="13.2668408"><ele>248.0</ele><time>2026-05-03T11:04:34.394Z</time></trkpt><trkpt lat="41.5532539" lon="13.266945"><ele>248.0</ele><time>2026-05-03T11:04:35.398Z</time></trkpt><trkpt lat="41.5529956" lon="13.2670544"><ele>248.0</ele><time>2026-05-03T11:04:36.393Z</time></trkpt><trkpt lat="41.5527365" lon="13.2671673"><ele>246.5</ele><time>2026-05-03T11:04:37.401Z</time></trkpt><trkpt lat="41.5524745" lon="13.2672814"><ele>245.0</ele><time>2026-05-03T11:04:38.393Z</time></trkpt><trkpt lat="41.5522135" lon="13.2673966"><ele>250.0</ele><time>2026-05-03T11:04:39.394Z</time></trkpt><trkpt lat="41.5519571" lon="13.2675093"><ele>255.0</ele><time>2026-05-03T11:04:40.395Z</time></trkpt><trkpt lat="41.551711" lon="13.2676219"><ele>255.0</ele><time>2026-05-03T11:04:41.395Z</time></trkpt><trkpt lat="41.5514697" lon="13.2677235"><ele>255.0</ele><time>2026-05-03T11:04:42.405Z</time></trkpt><trkpt lat="41.5512275" lon="13.2678253"><ele>259.0</ele><time>2026-05-03T11:04:43.405Z</time></trkpt><trkpt lat="41.5509899" lon="13.2679297"><ele>263.0</ele><time>2026-05-03T11:04:44.397Z</time></trkpt><trkpt lat="41.5507503" lon="13.2680352"><ele>261.0</ele><time>2026-05-03T11:04:45.398Z</time></trkpt><trkpt lat="41.5505085" lon="13.2681401"><ele>259.0</ele><time>2026-05-03T11:04:46.399Z</time></trkpt><trkpt lat="41.5502682" lon="13.2682468"><ele>257.5</ele><time>2026-05-03T11:04:47.396Z</time></trkpt><trkpt lat="41.5500258" lon="13.2683508"><ele>256.0</ele><time>2026-05-03T11:04:48.397Z</time></trkpt><trkpt lat="41.54978" lon="13.2684609"><ele>253.5</ele><time>2026-05-03T11:04:49.405Z</time></trkpt><trkpt lat="41.5495323" lon="13.2685679"><ele>251.0</ele><time>2026-05-03T11:04:50.396Z</time></trkpt><trkpt lat="41.5492798" lon="13.2686806"><ele>251.0</ele><time>2026-05-03T11:04:51.393Z</time></trkpt><trkpt lat="41.5490209" lon="13.2687944"><ele>251.0</ele><time>2026-05-03T11:04:52.404Z</time></trkpt><trkpt lat="41.5487586" lon="13.2689109"><ele>253.0</ele><time>2026-05-03T11:04:53.397Z</time></trkpt><trkpt lat="41.5484889" lon="13.269026"><ele>255.0</ele><time>2026-05-03T11:04:54.39Z</time></trkpt><trkpt lat="41.5482256" lon="13.269132"><ele>255.0</ele><time>2026-05-03T11:04:55.404Z</time></trkpt><trkpt lat="41.5479657" lon="13.2692269"><ele>255.0</ele><time>2026-05-03T11:04:56.392Z</time></trkpt><trkpt lat="41.5477069" lon="13.2693072"><ele>253.5</ele><time>2026-05-03T11:04:57.392Z</time></trkpt><trkpt lat="41.5474452" lon="13.2693773"><ele>252.0</ele><time>2026-05-03T11:04:58.393Z</time></trkpt><trkpt lat="41.547176" lon="13.269428"><ele>249.0</ele><time>2026-05-03T11:04:59.392Z</time></trkpt><trkpt lat="41.5469198" lon="13.26949"><ele>246.0</ele><time>2026-05-03T11:05:00.395Z</time></trkpt><trkpt lat="41.5466522" lon="13.2695005"><ele>246.0</ele><time>2026-05-03T11:05:01.392Z</time></trkpt><trkpt lat="41.5463926" lon="13.2695219"><ele>246.0</ele><time>2026-05-03T11:05:02.397Z</time></trkpt><trkpt lat="41.5461377" lon="13.2695232"><ele>240.0</ele><time>2026-05-03T11:05:03.394Z</time></trkpt><trkpt lat="41.5458907" lon="13.2695181"><ele>234.0</ele><time>2026-05-03T11:05:04.394Z</time></trkpt><trkpt lat="41.5456533" lon="13.269496"><ele>234.0</ele><time>2026-05-03T11:05:05.403Z</time></trkpt><trkpt lat="41.5454254" lon="13.2694682"><ele>234.0</ele><time>2026-05-03T11:05:06.402Z</time></trkpt><trkpt lat="41.5452098" lon="13.2694222"><ele>234.0</ele><time>2026-05-03T11:05:07.404Z</time></trkpt><trkpt lat="41.5449895" lon="13.2693655"><ele>231.0</ele><time>2026-05-03T11:05:08.399Z</time></trkpt><trkpt lat="41.5447669" lon="13.2693014"><ele>228.0</ele><time>2026-05-03T11:05:09.392Z</time></trkpt><trkpt lat="41.5445546" lon="13.2692282"><ele>225.0</ele><time>2026-05-03T11:05:10.395Z</time></trkpt><trkpt lat="41.544347" lon="13.2691462"><ele>225.0</ele><time>2026-05-03T11:05:11.389Z</time></trkpt><trkpt lat="41.544137" lon="13.2690598"><ele>225.0</ele><time>2026-05-03T11:05:12.395Z</time></trkpt><trkpt lat="41.5439147" lon="13.2689585"><ele>221.0</ele><time>2026-05-03T11:05:13.394Z</time></trkpt><trkpt lat="41.5436832" lon="13.2688542"><ele>217.0</ele><time>2026-05-03T11:05:14.393Z</time></trkpt><trkpt lat="41.5434373" lon="13.2687383"><ele>217.0</ele><time>2026-05-03T11:05:15.393Z</time></trkpt><trkpt lat="41.5431963" lon="13.2686253"><ele>217.0</ele><time>2026-05-03T11:05:16.397Z</time></trkpt><trkpt lat="41.542959" lon="13.2685132"><ele>217.5</ele><time>2026-05-03T11:05:17.398Z</time></trkpt><trkpt lat="41.5427277" lon="13.2683966"><ele>218.0</ele><time>2026-05-03T11:05:18.395Z</time></trkpt><trkpt lat="41.5424967" lon="13.2682822"><ele>218.0</ele><time>2026-05-03T11:05:19.396Z</time></trkpt><trkpt lat="41.5422682" lon="13.268168"><ele>218.0</ele><time>2026-05-03T11:05:20.401Z</time></trkpt><trkpt lat="41.5420412" lon="13.2680559"><ele>212.5</ele><time>2026-05-03T11:05:21.403Z</time></trkpt><trkpt lat="41.5418133" lon="13.2679453"><ele>207.0</ele><time>2026-05-03T11:05:22.395Z</time></trkpt><trkpt lat="41.5415943" lon="13.2678332"><ele>207.0</ele><time>2026-05-03T11:05:23.401Z</time></trkpt><trkpt lat="41.5413714" lon="13.2677237"><ele>207.0</ele><time>2026-05-03T11:05:24.404Z</time></trkpt><trkpt lat="41.5411434" lon="13.2676238"><ele>208.5</ele><time>2026-05-03T11:05:25.392Z</time></trkpt><trkpt lat="41.5409093" lon="13.2675234"><ele>210.0</ele><time>2026-05-03T11:05:26.393Z</time></trkpt><trkpt lat="41.5406659" lon="13.2674351"><ele>210.0</ele><time>2026-05-03T11:05:27.4Z</time></trkpt><trkpt lat="41.5404201" lon="13.2673567"><ele>210.0</ele><time>2026-05-03T11:05:28.395Z</time></trkpt><trkpt lat="41.5401729" lon="13.26729"><ele>206.5</ele><time>2026-05-03T11:05:29.399Z</time></trkpt><trkpt lat="41.5399372" lon="13.2672325"><ele>203.0</ele><time>2026-05-03T11:05:30.403Z</time></trkpt><trkpt lat="41.5397146" lon="13.26719"><ele>197.5</ele><time>2026-05-03T11:05:31.405Z</time></trkpt><trkpt lat="41.5394886" lon="13.2671523"><ele>192.0</ele><time>2026-05-03T11:05:32.398Z</time></trkpt><trkpt lat="41.5392499" lon="13.2671182"><ele>192.0</ele><time>2026-05-03T11:05:33.402Z</time></trkpt><trkpt lat="41.5389937" lon="13.2670868"><ele>192.0</ele><time>2026-05-03T11:05:34.395Z</time></trkpt><trkpt lat="41.538728" lon="13.2670513"><ele>188.0</ele><time>2026-05-03T11:05:35.39Z</time></trkpt><trkpt lat="41.538446" lon="13.2670259"><ele>184.0</ele><time>2026-05-03T11:05:36.392Z</time></trkpt><trkpt lat="41.5381515" lon="13.266986"><ele>183.0</ele><time>2026-05-03T11:05:37.402Z</time></trkpt><trkpt lat="41.5378496" lon="13.2669499"><ele>182.0</ele><time>2026-05-03T11:05:38.398Z</time></trkpt><trkpt lat="41.537548" lon="13.2669114"><ele>182.0</ele><time>2026-05-03T11:05:39.402Z</time></trkpt><trkpt lat="41.5372545" lon="13.2668706"><ele>182.0</ele><time>2026-05-03T11:05:40.394Z</time></trkpt><trkpt lat="41.5369713" lon="13.2668281"><ele>183.5</ele><time>2026-05-03T11:05:41.403Z</time></trkpt><trkpt lat="41.5367067" lon="13.2667938"><ele>185.0</ele><time>2026-05-03T11:05:42.396Z</time></trkpt><trkpt lat="41.5364605" lon="13.2667589"><ele>185.0</ele><time>2026-05-03T11:05:43.401Z</time></trkpt><trkpt lat="41.5362235" lon="13.2667287"><ele>185.0</ele><time>2026-05-03T11:05:44.393Z</time></trkpt><trkpt lat="41.5359903" lon="13.2667021"><ele>185.0</ele><time>2026-05-03T11:05:45.4Z</time></trkpt><trkpt lat="41.5357692" lon="13.2666747"><ele>185.0</ele><time>2026-05-03T11:05:46.394Z</time></trkpt><trkpt lat="41.5355598" lon="13.2666548"><ele>185.0</ele><time>2026-05-03T11:05:47.399Z</time></trkpt><trkpt lat="41.5353612" lon="13.2666274"><ele>183.66666666666666</ele><time>2026-05-03T11:05:48.393Z</time></trkpt><trkpt lat="41.535166" lon="13.2666038"><ele>182.33333333333334</ele><time>2026-05-03T11:05:49.4Z</time></trkpt><trkpt lat="41.5349792" lon="13.2665851"><ele>181.0</ele><time>2026-05-03T11:05:50.393Z</time></trkpt><trkpt lat="41.5347832" lon="13.2665629"><ele>181.0</ele><time>2026-05-03T11:05:51.4Z</time></trkpt><trkpt lat="41.5345837" lon="13.2665363"><ele>181.0</ele><time>2026-05-03T11:05:52.402Z</time></trkpt><trkpt lat="41.5343892" lon="13.2665135"><ele>181.0</ele><time>2026-05-03T11:05:53.391Z</time></trkpt><trkpt lat="41.5341985" lon="13.2664993"><ele>181.33333333333334</ele><time>2026-05-03T11:05:54.395Z</time></trkpt><trkpt lat="41.5340061" lon="13.2664966"><ele>181.66666666666666</ele><time>2026-05-03T11:05:55.399Z</time></trkpt><trkpt lat="41.5338088" lon="13.2665078"><ele>182.0</ele><time>2026-05-03T11:05:56.392Z</time></trkpt><trkpt lat="41.5336085" lon="13.2665273"><ele>181.0</ele><time>2026-05-03T11:05:57.404Z</time></trkpt><trkpt lat="41.5334067" lon="13.2665583"><ele>180.0</ele><time>2026-05-03T11:05:58.398Z</time></trkpt><trkpt lat="41.5332073" lon="13.2665948"><ele>179.0</ele><time>2026-05-03T11:05:59.398Z</time></trkpt><trkpt lat="41.5330049" lon="13.2666396"><ele>175.0</ele><time>2026-05-03T11:06:00.398Z</time></trkpt><trkpt lat="41.5327974" lon="13.2666986"><ele>171.0</ele><time>2026-05-03T11:06:01.391Z</time></trkpt><trkpt lat="41.5325817" lon="13.2667666"><ele>167.0</ele><time>2026-05-03T11:06:02.403Z</time></trkpt><trkpt lat="41.5323564" lon="13.2668425"><ele>167.0</ele><time>2026-05-03T11:06:03.394Z</time></trkpt><trkpt lat="41.5321173" lon="13.2669208"><ele>167.0</ele><time>2026-05-03T11:06:04.394Z</time></trkpt><trkpt lat="41.5318657" lon="13.2669967"><ele>161.5</ele><time>2026-05-03T11:06:05.393Z</time></trkpt><trkpt lat="41.5316052" lon="13.2670699"><ele>156.0</ele><time>2026-05-03T11:06:06.394Z</time></trkpt><trkpt lat="41.5313414" lon="13.2671502"><ele>157.5</ele><time>2026-05-03T11:06:07.4Z</time></trkpt><trkpt lat="41.5310722" lon="13.2672314"><ele>159.0</ele><time>2026-05-03T11:06:08.394Z</time></trkpt><trkpt lat="41.5308048" lon="13.2673211"><ele>159.0</ele><time>2026-05-03T11:06:09.401Z</time></trkpt><trkpt lat="41.5305348" lon="13.2674107"><ele>159.0</ele><time>2026-05-03T11:06:10.395Z</time></trkpt><trkpt lat="41.5302632" lon="13.2674946"><ele>152.0</ele><time>2026-05-03T11:06:11.415Z</time></trkpt><trkpt lat="41.529988" lon="13.2675813"><ele>145.0</ele><time>2026-05-03T11:06:12.4Z</time></trkpt><trkpt lat="41.5297097" lon="13.2676662"><ele>140.0</ele><time>2026-05-03T11:06:13.393Z</time></trkpt><trkpt lat="41.5294295" lon="13.2677502"><ele>135.0</ele><time>2026-05-03T11:06:14.396Z</time></trkpt><trkpt lat="41.5291474" lon="13.2678393"><ele>135.0</ele><time>2026-05-03T11:06:15.398Z</time></trkpt><trkpt lat="41.5288669" lon="13.2679276"><ele>135.0</ele><time>2026-05-03T11:06:16.394Z</time></trkpt><trkpt lat="41.5285903" lon="13.2680099"><ele>138.5</ele><time>2026-05-03T11:06:17.395Z</time></trkpt><trkpt lat="41.5283182" lon="13.2680954"><ele>142.0</ele><time>2026-05-03T11:06:18.394Z</time></trkpt><trkpt lat="41.5280469" lon="13.2681808"><ele>140.5</ele><time>2026-05-03T11:06:19.393Z</time></trkpt><trkpt lat="41.5277773" lon="13.2682658"><ele>139.0</ele><time>2026-05-03T11:06:20.401Z</time></trkpt><trkpt lat="41.5275081" lon="13.2683494"><ele>139.0</ele><time>2026-05-03T11:06:21.393Z</time></trkpt><trkpt lat="41.5272398" lon="13.2684316"><ele>139.0</ele><time>2026-05-03T11:06:22.395Z</time></trkpt><trkpt lat="41.526978" lon="13.2685146"><ele>135.5</ele><time>2026-05-03T11:06:23.399Z</time></trkpt><trkpt lat="41.5267284" lon="13.2686014"><ele>132.0</ele><time>2026-05-03T11:06:24.393Z</time></trkpt><trkpt lat="41.5264853" lon="13.2686971"><ele>132.0</ele><time>2026-05-03T11:06:25.404Z</time></trkpt><trkpt lat="41.526249" lon="13.2688063"><ele>132.0</ele><time>2026-05-03T11:06:26.402Z</time></trkpt><trkpt lat="41.5260113" lon="13.2689288"><ele>133.5</ele><time>2026-05-03T11:06:27.397Z</time></trkpt><trkpt lat="41.525775" lon="13.2690677"><ele>135.0</ele><time>2026-05-03T11:06:28.395Z</time></trkpt><trkpt lat="41.5255411" lon="13.269223"><ele>127.5</ele><time>2026-05-03T11:06:29.395Z</time></trkpt><trkpt lat="41.525308" lon="13.2693893"><ele>120.0</ele><time>2026-05-03T11:06:30.403Z</time></trkpt><trkpt lat="41.5250727" lon="13.2695684"><ele>120.0</ele><time>2026-05-03T11:06:31.392Z</time></trkpt><trkpt lat="41.5248306" lon="13.2697531"><ele>120.0</ele><time>2026-05-03T11:06:32.4Z</time></trkpt><trkpt lat="41.5245822" lon="13.2699449"><ele>118.0</ele><time>2026-05-03T11:06:33.394Z</time></trkpt><trkpt lat="41.5243294" lon="13.2701382"><ele>116.0</ele><time>2026-05-03T11:06:34.395Z</time></trkpt><trkpt lat="41.5240737" lon="13.2703325"><ele>116.0</ele><time>2026-05-03T11:06:35.401Z</time></trkpt><trkpt lat="41.5238183" lon="13.2705273"><ele>116.0</ele><time>2026-05-03T11:06:36.399Z</time></trkpt><trkpt lat="41.5235646" lon="13.270719"><ele>117.0</ele><time>2026-05-03T11:06:37.4Z</time></trkpt><trkpt lat="41.5233105" lon="13.270914"><ele>118.0</ele><time>2026-05-03T11:06:38.391Z</time></trkpt><trkpt lat="41.5230572" lon="13.2711071"><ele>112.5</ele><time>2026-05-03T11:06:39.401Z</time></trkpt><trkpt lat="41.5228057" lon="13.2712998"><ele>107.0</ele><time>2026-05-03T11:06:40.393Z</time></trkpt><trkpt lat="41.5225557" lon="13.2714901"><ele>107.0</ele><time>2026-05-03T11:06:41.395Z</time></trkpt><trkpt lat="41.5223175" lon="13.2716672"><ele>107.0</ele><time>2026-05-03T11:06:42.396Z</time></trkpt><trkpt lat="41.5220858" lon="13.2718312"><ele>100.5</ele><time>2026-05-03T11:06:43.397Z</time></trkpt><trkpt lat="41.5218635" lon="13.2719904"><ele>94.0</ele><time>2026-05-03T11:06:44.399Z</time></trkpt><trkpt lat="41.5216495" lon="13.2721341"><ele>94.0</ele><time>2026-05-03T11:06:45.396Z</time></trkpt><trkpt lat="41.5214391" lon="13.2722644"><ele>94.0</ele><time>2026-05-03T11:06:46.393Z</time></trkpt><trkpt lat="41.521244" lon="13.2723698"><ele>94.0</ele><time>2026-05-03T11:06:47.402Z</time></trkpt><trkpt lat="41.5210726" lon="13.2724496"><ele>94.66666666666666</ele><time>2026-05-03T11:06:48.399Z</time></trkpt><trkpt lat="41.5209" lon="13.2725278"><ele>95.33333333333333</ele><time>2026-05-03T11:06:49.406Z</time></trkpt><trkpt lat="41.5207314" lon="13.2725927"><ele>96.0</ele><time>2026-05-03T11:06:50.401Z</time></trkpt><trkpt lat="41.5205681" lon="13.2726523"><ele>96.0</ele><time>2026-05-03T11:06:51.404Z</time></trkpt><trkpt lat="41.5204067" lon="13.2727078"><ele>96.0</ele><time>2026-05-03T11:06:52.394Z</time></trkpt><trkpt lat="41.5202495" lon="13.2727562"><ele>96.0</ele><time>2026-05-03T11:06:53.406Z</time></trkpt><trkpt lat="41.5200918" lon="13.2727933"><ele>95.33333333333333</ele><time>2026-05-03T11:06:54.393Z</time></trkpt><trkpt lat="41.5199328" lon="13.2728308"><ele>94.66666666666666</ele><time>2026-05-03T11:06:55.393Z</time></trkpt><trkpt lat="41.5197749" lon="13.2728634"><ele>94.0</ele><time>2026-05-03T11:06:56.401Z</time></trkpt><trkpt lat="41.5196184" lon="13.2728865"><ele>93.33333333333333</ele><time>2026-05-03T11:06:57.392Z</time></trkpt><trkpt lat="41.519462" lon="13.2729014"><ele>92.66666666666667</ele><time>2026-05-03T11:06:58.4Z</time></trkpt><trkpt lat="41.5193034" lon="13.2729123"><ele>92.0</ele><time>2026-05-03T11:06:59.393Z</time></trkpt><trkpt lat="41.5191435" lon="13.2729236"><ele>92.0</ele><time>2026-05-03T11:07:00.394Z</time></trkpt><trkpt lat="41.5189789" lon="13.2729225"><ele>92.0</ele><time>2026-05-03T11:07:01.392Z</time></trkpt><trkpt lat="41.5188132" lon="13.2729183"><ele>92.0</ele><time>2026-05-03T11:07:02.391Z</time></trkpt><trkpt lat="41.5186494" lon="13.2729122"><ele>90.66666666666667</ele><time>2026-05-03T11:07:03.397Z</time></trkpt><trkpt lat="41.5184809" lon="13.272897"><ele>89.33333333333333</ele><time>2026-05-03T11:07:04.392Z</time></trkpt><trkpt lat="41.5183087" lon="13.272871"><ele>88.0</ele><time>2026-05-03T11:07:05.401Z</time></trkpt><trkpt lat="41.5181344" lon="13.272845"><ele>88.0</ele><time>2026-05-03T11:07:06.4Z</time></trkpt><trkpt lat="41.5179594" lon="13.2728141"><ele>88.0</ele><time>2026-05-03T11:07:07.402Z</time></trkpt><trkpt lat="41.5177853" lon="13.2727737"><ele>88.0</ele><time>2026-05-03T11:07:08.393Z</time></trkpt><trkpt lat="41.5176089" lon="13.2727202"><ele>87.0</ele><time>2026-05-03T11:07:09.394Z</time></trkpt><trkpt lat="41.5174351" lon="13.272668"><ele>86.0</ele><time>2026-05-03T11:07:10.39Z</time></trkpt><trkpt lat="41.5172639" lon="13.2726103"><ele>85.0</ele><time>2026-05-03T11:07:11.393Z</time></trkpt><trkpt lat="41.5170942" lon="13.2725452"><ele>83.66666666666666</ele><time>2026-05-03T11:07:12.392Z</time></trkpt><trkpt lat="41.5169248" lon="13.2724695"><ele>82.33333333333333</ele><time>2026-05-03T11:07:13.402Z</time></trkpt><trkpt lat="41.5167558" lon="13.2723879"><ele>81.0</ele><time>2026-05-03T11:07:14.392Z</time></trkpt><trkpt lat="41.5165878" lon="13.2722991"><ele>78.66666666666667</ele><time>2026-05-03T11:07:15.402Z</time></trkpt><trkpt lat="41.5164214" lon="13.272205"><ele>76.33333333333334</ele><time>2026-05-03T11:07:16.402Z</time></trkpt><trkpt lat="41.5162535" lon="13.2721019"><ele>74.0</ele><time>2026-05-03T11:07:17.399Z</time></trkpt><trkpt lat="41.5160879" lon="13.2719911"><ele>74.0</ele><time>2026-05-03T11:07:18.394Z</time></trkpt><trkpt lat="41.5159252" lon="13.2718723"><ele>74.0</ele><time>2026-05-03T11:07:19.401Z</time></trkpt><trkpt lat="41.5157648" lon="13.2717455"><ele>74.0</ele><time>2026-05-03T11:07:20.394Z</time></trkpt><trkpt lat="41.5156047" lon="13.2716099"><ele>74.0</ele><time>2026-05-03T11:07:21.394Z</time></trkpt><trkpt lat="41.5154437" lon="13.2714683"><ele>74.0</ele><time>2026-05-03T11:07:22.394Z</time></trkpt><trkpt lat="41.5152852" lon="13.2713224"><ele>74.0</ele><time>2026-05-03T11:07:23.393Z</time></trkpt><trkpt lat="41.5151284" lon="13.2711755"><ele>78.33333333333334</ele><time>2026-05-03T11:07:24.394Z</time></trkpt><trkpt lat="41.5149753" lon="13.2710227"><ele>82.66666666666667</ele><time>2026-05-03T11:07:25.393Z</time></trkpt><trkpt lat="41.5148245" lon="13.270874"><ele>87.0</ele><time>2026-05-03T11:07:26.392Z</time></trkpt><trkpt lat="41.5146784" lon="13.2707259"><ele>84.33333333333333</ele><time>2026-05-03T11:07:27.392Z</time></trkpt><trkpt lat="41.5145351" lon="13.2705793"><ele>81.66666666666666</ele><time>2026-05-03T11:07:28.391Z</time></trkpt><trkpt lat="41.5143946" lon="13.2704392"><ele>79.0</ele><time>2026-05-03T11:07:29.391Z</time></trkpt><trkpt lat="41.5142561" lon="13.2702984"><ele>79.0</ele><time>2026-05-03T11:07:30.4Z</time></trkpt><trkpt lat="41.5141219" lon="13.2701648"><ele>79.0</ele><time>2026-05-03T11:07:31.4Z</time></trkpt><trkpt lat="41.5139844" lon="13.2700299"><ele>79.0</ele><time>2026-05-03T11:07:32.4Z</time></trkpt><trkpt lat="41.5138473" lon="13.2698929"><ele>81.0</ele><time>2026-05-03T11:07:33.397Z</time></trkpt><trkpt lat="41.5137074" lon="13.2697516"><ele>83.0</ele><time>2026-05-03T11:07:34.392Z</time></trkpt><trkpt lat="41.5135647" lon="13.2696073"><ele>85.0</ele><time>2026-05-03T11:07:35.391Z</time></trkpt><trkpt lat="41.5134232" lon="13.2694634"><ele>85.0</ele><time>2026-05-03T11:07:36.4Z</time></trkpt><trkpt lat="41.5132832" lon="13.2693217"><ele>85.0</ele><time>2026-05-03T11:07:37.393Z</time></trkpt><trkpt lat="41.513139" lon="13.2691801"><ele>85.0</ele><time>2026-05-03T11:07:38.402Z</time></trkpt><trkpt lat="41.5130024" lon="13.2690426"><ele>86.0</ele><time>2026-05-03T11:07:39.393Z</time></trkpt><trkpt lat="41.5128617" lon="13.2689028"><ele>87.0</ele><time>2026-05-03T11:07:40.401Z</time></trkpt><trkpt lat="41.5127246" lon="13.2687656"><ele>88.0</ele><time>2026-05-03T11:07:41.396Z</time></trkpt><trkpt lat="41.5125845" lon="13.2686276"><ele>88.0</ele><time>2026-05-03T11:07:42.391Z</time></trkpt><trkpt lat="41.5124452" lon="13.2684882"><ele>88.0</ele><time>2026-05-03T11:07:43.402Z</time></trkpt><trkpt lat="41.5123054" lon="13.2683482"><ele>88.0</ele><time>2026-05-03T11:07:44.393Z</time></trkpt><trkpt lat="41.5121701" lon="13.2682044"><ele>84.33333333333333</ele><time>2026-05-03T11:07:45.393Z</time></trkpt><trkpt lat="41.5120365" lon="13.2680552"><ele>80.66666666666667</ele><time>2026-05-03T11:07:46.393Z</time></trkpt><trkpt lat="41.5119016" lon="13.2679091"><ele>77.0</ele><time>2026-05-03T11:07:47.399Z</time></trkpt><trkpt lat="41.5117716" lon="13.2677586"><ele>77.0</ele><time>2026-05-03T11:07:48.39Z</time></trkpt><trkpt lat="41.5116429" lon="13.2676018"><ele>77.0</ele><time>2026-05-03T11:07:49.402Z</time></trkpt><trkpt lat="41.5115198" lon="13.2674369"><ele>77.0</ele><time>2026-05-03T11:07:50.393Z</time></trkpt><trkpt lat="41.5113936" lon="13.2672741"><ele>77.0</ele><time>2026-05-03T11:07:51.403Z</time></trkpt><trkpt lat="41.5112717" lon="13.2671075"><ele>77.0</ele><time>2026-05-03T11:07:52.401Z</time></trkpt><trkpt lat="41.5111494" lon="13.2669362"><ele>77.0</ele><time>2026-05-03T11:07:53.389Z</time></trkpt><trkpt lat="41.5110295" lon="13.2667639"><ele>76.33333333333334</ele><time>2026-05-03T11:07:54.393Z</time></trkpt><trkpt lat="41.5109146" lon="13.2665924"><ele>75.66666666666667</ele><time>2026-05-03T11:07:55.396Z</time></trkpt><trkpt lat="41.5108055" lon="13.2664168"><ele>75.0</ele><time>2026-05-03T11:07:56.401Z</time></trkpt><trkpt lat="41.5106997" lon="13.2662324"><ele>77.0</ele><time>2026-05-03T11:07:57.4Z</time></trkpt><trkpt lat="41.510598" lon="13.2660494"><ele>79.0</ele><time>2026-05-03T11:07:58.393Z</time></trkpt><trkpt lat="41.5105018" lon="13.2658682"><ele>81.0</ele><time>2026-05-03T11:07:59.402Z</time></trkpt><trkpt lat="41.5104102" lon="13.2656893"><ele>81.0</ele><time>2026-05-03T11:08:00.396Z</time></trkpt><trkpt lat="41.5103224" lon="13.2655078"><ele>81.0</ele><time>2026-05-03T11:08:01.401Z</time></trkpt><trkpt lat="41.5102368" lon="13.265329"><ele>81.0</ele><time>2026-05-03T11:08:02.393Z</time></trkpt><trkpt lat="41.5101558" lon="13.2651458"><ele>81.0</ele><time>2026-05-03T11:08:03.397Z</time></trkpt><trkpt lat="41.5100774" lon="13.2649645"><ele>81.0</ele><time>2026-05-03T11:08:04.389Z</time></trkpt><trkpt lat="41.5100024" lon="13.2647789"><ele>81.0</ele><time>2026-05-03T11:08:05.39Z</time></trkpt><trkpt lat="41.5099303" lon="13.2645971"><ele>82.0</ele><time>2026-05-03T11:08:06.397Z</time></trkpt><trkpt lat="41.5098615" lon="13.2644115"><ele>83.0</ele><time>2026-05-03T11:08:07.395Z</time></trkpt><trkpt lat="41.5097945" lon="13.2642171"><ele>84.0</ele><time>2026-05-03T11:08:08.395Z</time></trkpt><trkpt lat="41.5097284" lon="13.2640179"><ele>85.0</ele><time>2026-05-03T11:08:09.402Z</time></trkpt><trkpt lat="41.509663" lon="13.2638127"><ele>86.0</ele><time>2026-05-03T11:08:10.395Z</time></trkpt><trkpt lat="41.5095995" lon="13.2636028"><ele>87.0</ele><time>2026-05-03T11:08:11.395Z</time></trkpt><trkpt lat="41.5095378" lon="13.2633862"><ele>84.33333333333333</ele><time>2026-05-03T11:08:12.405Z</time></trkpt><trkpt lat="41.5094833" lon="13.2631673"><ele>81.66666666666666</ele><time>2026-05-03T11:08:13.394Z</time></trkpt><trkpt lat="41.5094285" lon="13.2629417"><ele>79.0</ele><time>2026-05-03T11:08:14.401Z</time></trkpt><trkpt lat="41.5093745" lon="13.2627188"><ele>79.0</ele><time>2026-05-03T11:08:15.396Z</time></trkpt><trkpt lat="41.5093254" lon="13.2624916"><ele>79.0</ele><time>2026-05-03T11:08:16.398Z</time></trkpt><trkpt lat="41.5092803" lon="13.2622703"><ele>79.0</ele><time>2026-05-03T11:08:17.396Z</time></trkpt><trkpt lat="41.509239" lon="13.2620479"><ele>79.66666666666666</ele><time>2026-05-03T11:08:18.398Z</time></trkpt><trkpt lat="41.5091983" lon="13.2618252"><ele>80.33333333333333</ele><time>2026-05-03T11:08:19.394Z</time></trkpt><trkpt lat="41.5091547" lon="13.2616007"><ele>81.0</ele><time>2026-05-03T11:08:20.395Z</time></trkpt><trkpt lat="41.5091124" lon="13.2613821"><ele>81.66666666666667</ele><time>2026-05-03T11:08:21.395Z</time></trkpt><trkpt lat="41.5090726" lon="13.261158"><ele>82.33333333333334</ele><time>2026-05-03T11:08:22.405Z</time></trkpt><trkpt lat="41.5090323" lon="13.2609396"><ele>83.0</ele><time>2026-05-03T11:08:23.391Z</time></trkpt><trkpt lat="41.5089917" lon="13.2607154"><ele>84.33333333333334</ele><time>2026-05-03T11:08:24.399Z</time></trkpt><trkpt lat="41.5089546" lon="13.2604957"><ele>85.66666666666667</ele><time>2026-05-03T11:08:25.396Z</time></trkpt><trkpt lat="41.5089142" lon="13.2602708"><ele>87.0</ele><time>2026-05-03T11:08:26.399Z</time></trkpt><trkpt lat="41.5088724" lon="13.2600417"><ele>87.0</ele><time>2026-05-03T11:08:27.395Z</time></trkpt><trkpt lat="41.5088316" lon="13.2598144"><ele>87.0</ele><time>2026-05-03T11:08:28.394Z</time></trkpt><trkpt lat="41.5087903" lon="13.2595852"><ele>87.0</ele><time>2026-05-03T11:08:29.398Z</time></trkpt><trkpt lat="41.5087475" lon="13.2593557"><ele>80.66666666666667</ele><time>2026-05-03T11:08:30.398Z</time></trkpt><trkpt lat="41.5087066" lon="13.2591274"><ele>74.33333333333334</ele><time>2026-05-03T11:08:31.394Z</time></trkpt><trkpt lat="41.5086678" lon="13.2589019"><ele>68.0</ele><time>2026-05-03T11:08:32.394Z</time></trkpt><trkpt lat="41.508629" lon="13.2586729"><ele>67.66666666666667</ele><time>2026-05-03T11:08:33.394Z</time></trkpt><trkpt lat="41.5085912" lon="13.2584479"><ele>67.33333333333333</ele><time>2026-05-03T11:08:34.397Z</time></trkpt><trkpt lat="41.5085495" lon="13.2582259"><ele>67.0</ele><time>2026-05-03T11:08:35.394Z</time></trkpt><trkpt lat="41.508509" lon="13.2580006"><ele>67.0</ele><time>2026-05-03T11:08:36.402Z</time></trkpt><trkpt lat="41.5084682" lon="13.2577739"><ele>67.0</ele><time>2026-05-03T11:08:37.395Z</time></trkpt><trkpt lat="41.5084279" lon="13.2575502"><ele>67.0</ele><time>2026-05-03T11:08:38.395Z</time></trkpt><trkpt lat="41.5083889" lon="13.2573259"><ele>68.66666666666666</ele><time>2026-05-03T11:08:39.411Z</time></trkpt><trkpt lat="41.5083518" lon="13.2571044"><ele>70.33333333333333</ele><time>2026-05-03T11:08:40.395Z</time></trkpt><trkpt lat="41.5083152" lon="13.256887"><ele>72.0</ele><time>2026-05-03T11:08:41.394Z</time></trkpt><trkpt lat="41.5082716" lon="13.2566636"><ele>72.33333333333333</ele><time>2026-05-03T11:08:42.4Z</time></trkpt><trkpt lat="41.5082278" lon="13.2564374"><ele>72.66666666666666</ele><time>2026-05-03T11:08:43.395Z</time></trkpt><trkpt lat="41.5081812" lon="13.2562084"><ele>73.0</ele><time>2026-05-03T11:08:44.406Z</time></trkpt><trkpt lat="41.5081353" lon="13.2559739"><ele>73.0</ele><time>2026-05-03T11:08:45.399Z</time></trkpt><trkpt lat="41.508093" lon="13.2557385"><ele>73.0</ele><time>2026-05-03T11:08:46.396Z</time></trkpt><trkpt lat="41.5080519" lon="13.2555096"><ele>73.0</ele><time>2026-05-03T11:08:47.398Z</time></trkpt><trkpt lat="41.5080138" lon="13.2552804"><ele>73.33333333333333</ele><time>2026-05-03T11:08:48.4Z</time></trkpt><trkpt lat="41.5079748" lon="13.2550553"><ele>73.66666666666667</ele><time>2026-05-03T11:08:49.398Z</time></trkpt><trkpt lat="41.5079358" lon="13.25483"><ele>74.0</ele><time>2026-05-03T11:08:50.404Z</time></trkpt><trkpt lat="41.5078931" lon="13.254604"><ele>71.33333333333334</ele><time>2026-05-03T11:08:51.409Z</time></trkpt><trkpt lat="41.5078532" lon="13.2543808"><ele>68.66666666666667</ele><time>2026-05-03T11:08:52.406Z</time></trkpt><trkpt lat="41.5078136" lon="13.2541573"><ele>66.0</ele><time>2026-05-03T11:08:53.399Z</time></trkpt><trkpt lat="41.507773" lon="13.2539282"><ele>66.0</ele><time>2026-05-03T11:08:54.401Z</time></trkpt><trkpt lat="41.5077346" lon="13.2537"><ele>66.0</ele><time>2026-05-03T11:08:55.395Z</time></trkpt><trkpt lat="41.5076947" lon="13.253472"><ele>66.0</ele><time>2026-05-03T11:08:56.394Z</time></trkpt><trkpt lat="41.5076552" lon="13.2532413"><ele>65.33333333333333</ele><time>2026-05-03T11:08:57.397Z</time></trkpt><trkpt lat="41.5076154" lon="13.2530102"><ele>64.66666666666666</ele><time>2026-05-03T11:08:58.397Z</time></trkpt><trkpt lat="41.5075737" lon="13.2527793"><ele>64.0</ele><time>2026-05-03T11:08:59.397Z</time></trkpt><trkpt lat="41.5075337" lon="13.2525461"><ele>64.0</ele><time>2026-05-03T11:09:00.413Z</time></trkpt><trkpt lat="41.5074912" lon="13.2523133"><ele>64.0</ele><time>2026-05-03T11:09:01.395Z</time></trkpt><trkpt lat="41.5074496" lon="13.2520831"><ele>64.0</ele><time>2026-05-03T11:09:02.405Z</time></trkpt><trkpt lat="41.5074051" lon="13.2518542"><ele>64.66666666666666</ele><time>2026-05-03T11:09:03.426Z</time></trkpt><trkpt lat="41.5073654" lon="13.2516273"><ele>65.33333333333333</ele><time>2026-05-03T11:09:04.404Z</time></trkpt><trkpt lat="41.5073258" lon="13.2514"><ele>66.0</ele><time>2026-05-03T11:09:05.391Z</time></trkpt><trkpt lat="41.507284" lon="13.2511743"><ele>66.0</ele><time>2026-05-03T11:09:06.394Z</time></trkpt><trkpt lat="41.5072457" lon="13.2509493"><ele>66.0</ele><time>2026-05-03T11:09:07.403Z</time></trkpt><trkpt lat="41.5072044" lon="13.250727"><ele>66.0</ele><time>2026-05-03T11:09:08.396Z</time></trkpt><trkpt lat="41.5071652" lon="13.2505021"><ele>66.0</ele><time>2026-05-03T11:09:09.397Z</time></trkpt><trkpt lat="41.5071232" lon="13.2502776"><ele>66.0</ele><time>2026-05-03T11:09:10.396Z</time></trkpt><trkpt lat="41.5070842" lon="13.2500508"><ele>66.0</ele><time>2026-05-03T11:09:11.396Z</time></trkpt><trkpt lat="41.5070437" lon="13.2498298"><ele>64.0</ele><time>2026-05-03T11:09:12.393Z</time></trkpt><trkpt lat="41.5070047" lon="13.2496144"><ele>62.0</ele><time>2026-05-03T11:09:13.405Z</time></trkpt><trkpt lat="41.506966" lon="13.249401"><ele>60.0</ele><time>2026-05-03T11:09:14.404Z</time></trkpt><trkpt lat="41.5069269" lon="13.249191"><ele>60.0</ele><time>2026-05-03T11:09:15.395Z</time></trkpt><trkpt lat="41.5068876" lon="13.2489819"><ele>60.0</ele><time>2026-05-03T11:09:16.404Z</time></trkpt><trkpt lat="41.5068486" lon="13.2487712"><ele>60.0</ele><time>2026-05-03T11:09:17.4Z</time></trkpt><trkpt lat="41.506809" lon="13.2485635"><ele>59.66666666666667</ele><time>2026-05-03T11:09:18.393Z</time></trkpt><trkpt lat="41.506773" lon="13.2483546"><ele>59.333333333333336</ele><time>2026-05-03T11:09:19.405Z</time></trkpt><trkpt lat="41.5067357" lon="13.2481461"><ele>59.0</ele><time>2026-05-03T11:09:20.396Z</time></trkpt><trkpt lat="41.506699" lon="13.247945"><ele>59.0</ele><time>2026-05-03T11:09:21.395Z</time></trkpt><trkpt lat="41.5066586" lon="13.2477266"><ele>59.0</ele><time>2026-05-03T11:09:22.398Z</time></trkpt><trkpt lat="41.5066144" lon="13.2474872"><ele>59.0</ele><time>2026-05-03T11:09:23.394Z</time></trkpt><trkpt lat="41.506571" lon="13.2472349"><ele>57.5</ele><time>2026-05-03T11:09:24.403Z</time></trkpt><trkpt lat="41.5065188" lon="13.2469603"><ele>56.0</ele><time>2026-05-03T11:09:25.395Z</time></trkpt><trkpt lat="41.5064584" lon="13.2466483"><ele>56.0</ele><time>2026-05-03T11:09:26.395Z</time></trkpt><trkpt lat="41.5063965" lon="13.2463078"><ele>56.0</ele><time>2026-05-03T11:09:27.398Z</time></trkpt><trkpt lat="41.5063345" lon="13.2459628"><ele>56.5</ele><time>2026-05-03T11:09:28.393Z</time></trkpt><trkpt lat="41.5062743" lon="13.2456119"><ele>57.0</ele><time>2026-05-03T11:09:29.406Z</time></trkpt><trkpt lat="41.5062147" lon="13.2452651"><ele>54.0</ele><time>2026-05-03T11:09:30.404Z</time></trkpt><trkpt lat="41.5061593" lon="13.2449292"><ele>51.0</ele><time>2026-05-03T11:09:31.404Z</time></trkpt><trkpt lat="41.5061001" lon="13.2445963"><ele>51.0</ele><time>2026-05-03T11:09:32.404Z</time></trkpt><trkpt lat="41.5060418" lon="13.2442653"><ele>51.0</ele><time>2026-05-03T11:09:33.4Z</time></trkpt><trkpt lat="41.5059853" lon="13.2439445"><ele>51.0</ele><time>2026-05-03T11:09:34.392Z</time></trkpt><trkpt lat="41.505925" lon="13.2436187"><ele>51.0</ele><time>2026-05-03T11:09:35.394Z</time></trkpt><trkpt lat="41.5058653" lon="13.2432885"><ele>53.0</ele><time>2026-05-03T11:09:36.396Z</time></trkpt><trkpt lat="41.5058032" lon="13.2429483"><ele>55.0</ele><time>2026-05-03T11:09:37.403Z</time></trkpt><trkpt lat="41.5057378" lon="13.2425905"><ele>57.0</ele><time>2026-05-03T11:09:38.402Z</time></trkpt><trkpt lat="41.5056695" lon="13.2422103"><ele>59.0</ele><time>2026-05-03T11:09:39.402Z</time></trkpt><trkpt lat="41.5055982" lon="13.2418181"><ele>61.5</ele><time>2026-05-03T11:09:40.395Z</time></trkpt><trkpt lat="41.5055246" lon="13.2414065"><ele>64.0</ele><time>2026-05-03T11:09:41.398Z</time></trkpt><trkpt lat="41.5054476" lon="13.2409855"><ele>62.5</ele><time>2026-05-03T11:09:42.396Z</time></trkpt><trkpt lat="41.5053709" lon="13.240564"><ele>61.0</ele><time>2026-05-03T11:09:43.406Z</time></trkpt><trkpt lat="41.5052947" lon="13.240141"><ele>61.5</ele><time>2026-05-03T11:09:44.395Z</time></trkpt><trkpt lat="41.5052246" lon="13.2397283"><ele>62.0</ele><time>2026-05-03T11:09:45.395Z</time></trkpt><trkpt lat="41.505158" lon="13.2393317"><ele>63.5</ele><time>2026-05-03T11:09:46.396Z</time></trkpt><trkpt lat="41.5051004" lon="13.2389547"><ele>65.0</ele><time>2026-05-03T11:09:47.394Z</time></trkpt><trkpt lat="41.5050442" lon="13.2386028"><ele>65.0</ele><time>2026-05-03T11:09:48.396Z</time></trkpt><trkpt lat="41.5049893" lon="13.238263"><ele>65.0</ele><time>2026-05-03T11:09:49.403Z</time></trkpt><trkpt lat="41.5049407" lon="13.2379373"><ele>65.5</ele><time>2026-05-03T11:09:50.402Z</time></trkpt><trkpt lat="41.5048915" lon="13.2376175"><ele>66.0</ele><time>2026-05-03T11:09:51.393Z</time></trkpt><trkpt lat="41.5048449" lon="13.237303"><ele>66.0</ele><time>2026-05-03T11:09:52.398Z</time></trkpt><trkpt lat="41.5048003" lon="13.2369833"><ele>66.0</ele><time>2026-05-03T11:09:53.404Z</time></trkpt><trkpt lat="41.5047651" lon="13.2366655"><ele>67.0</ele><time>2026-05-03T11:09:54.404Z</time></trkpt><trkpt lat="41.5047333" lon="13.2363528"><ele>68.0</ele><time>2026-05-03T11:09:55.405Z</time></trkpt><trkpt lat="41.5047104" lon="13.2360453"><ele>68.0</ele><time>2026-05-03T11:09:56.397Z</time></trkpt><trkpt lat="41.5046974" lon="13.235735"><ele>68.0</ele><time>2026-05-03T11:09:57.395Z</time></trkpt><trkpt lat="41.5046901" lon="13.2354127"><ele>68.0</ele><time>2026-05-03T11:09:58.401Z</time></trkpt><trkpt lat="41.5046874" lon="13.2350867"><ele>68.0</ele><time>2026-05-03T11:09:59.396Z</time></trkpt><trkpt lat="41.5046909" lon="13.2347491"><ele>66.5</ele><time>2026-05-03T11:10:00.405Z</time></trkpt><trkpt lat="41.5046944" lon="13.2344063"><ele>65.0</ele><time>2026-05-03T11:10:01.395Z</time></trkpt><trkpt lat="41.5046947" lon="13.2340555"><ele>62.0</ele><time>2026-05-03T11:10:02.404Z</time></trkpt><trkpt lat="41.5046818" lon="13.2336966"><ele>59.0</ele><time>2026-05-03T11:10:03.399Z</time></trkpt><trkpt lat="41.5046579" lon="13.2333485"><ele>60.0</ele><time>2026-05-03T11:10:04.404Z</time></trkpt><trkpt lat="41.5046285" lon="13.2330165"><ele>61.0</ele><time>2026-05-03T11:10:05.4Z</time></trkpt><trkpt lat="41.5045933" lon="13.2327167"><ele>58.666666666666664</ele><time>2026-05-03T11:10:06.395Z</time></trkpt><trkpt lat="41.5045567" lon="13.2324511"><ele>56.33333333333333</ele><time>2026-05-03T11:10:07.394Z</time></trkpt><trkpt lat="41.5045079" lon="13.232201"><ele>54.0</ele><time>2026-05-03T11:10:08.397Z</time></trkpt><trkpt lat="41.5044585" lon="13.2319669"><ele>54.0</ele><time>2026-05-03T11:10:09.393Z</time></trkpt><trkpt lat="41.5044084" lon="13.231742"><ele>54.0</ele><time>2026-05-03T11:10:10.403Z</time></trkpt><trkpt lat="41.5043528" lon="13.2315123"><ele>54.0</ele><time>2026-05-03T11:10:11.393Z</time></trkpt><trkpt lat="41.5042947" lon="13.231282"><ele>54.33333333333333</ele><time>2026-05-03T11:10:12.395Z</time></trkpt><trkpt lat="41.5042389" lon="13.2310468"><ele>54.666666666666664</ele><time>2026-05-03T11:10:13.395Z</time></trkpt><trkpt lat="41.504175" lon="13.2308065"><ele>55.0</ele><time>2026-05-03T11:10:14.395Z</time></trkpt><trkpt lat="41.5041078" lon="13.2305567"><ele>56.33333333333333</ele><time>2026-05-03T11:10:15.395Z</time></trkpt><trkpt lat="41.5040388" lon="13.2302916"><ele>57.66666666666667</ele><time>2026-05-03T11:10:16.394Z</time></trkpt><trkpt lat="41.5039699" lon="13.23001"><ele>59.0</ele><time>2026-05-03T11:10:17.393Z</time></trkpt><trkpt lat="41.503903" lon="13.2297179"><ele>60.0</ele><time>2026-05-03T11:10:18.394Z</time></trkpt><trkpt lat="41.5038331" lon="13.2294234"><ele>61.0</ele><time>2026-05-03T11:10:19.406Z</time></trkpt><trkpt lat="41.5037682" lon="13.2291337"><ele>58.0</ele><time>2026-05-03T11:10:20.395Z</time></trkpt><trkpt lat="41.5037012" lon="13.2288495"><ele>55.0</ele><time>2026-05-03T11:10:21.395Z</time></trkpt><trkpt lat="41.5036358" lon="13.228576"><ele>52.0</ele><time>2026-05-03T11:10:22.397Z</time></trkpt><trkpt lat="41.5035715" lon="13.2283111"><ele>51.666666666666664</ele><time>2026-05-03T11:10:23.396Z</time></trkpt><trkpt lat="41.5035109" lon="13.2280559"><ele>51.33333333333333</ele><time>2026-05-03T11:10:24.396Z</time></trkpt><trkpt lat="41.5034502" lon="13.2278114"><ele>51.0</ele><time>2026-05-03T11:10:25.394Z</time></trkpt><trkpt lat="41.5033927" lon="13.2275747"><ele>51.0</ele><time>2026-05-03T11:10:26.405Z</time></trkpt><trkpt lat="41.503334" lon="13.2273406"><ele>51.0</ele><time>2026-05-03T11:10:27.395Z</time></trkpt><trkpt lat="41.5032776" lon="13.2271118"><ele>51.0</ele><time>2026-05-03T11:10:28.395Z</time></trkpt><trkpt lat="41.5032179" lon="13.2268801"><ele>51.66666666666667</ele><time>2026-05-03T11:10:29.398Z</time></trkpt><trkpt lat="41.5031491" lon="13.2266499"><ele>52.333333333333336</ele><time>2026-05-03T11:10:30.403Z</time></trkpt><trkpt lat="41.5030694" lon="13.226432"><ele>53.0</ele><time>2026-05-03T11:10:31.408Z</time></trkpt><trkpt lat="41.5029813" lon="13.2262274"><ele>52.0</ele><time>2026-05-03T11:10:32.404Z</time></trkpt><trkpt lat="41.5028954" lon="13.2260352"><ele>51.0</ele><time>2026-05-03T11:10:33.394Z</time></trkpt><trkpt lat="41.5028146" lon="13.2258557"><ele>50.0</ele><time>2026-05-03T11:10:34.396Z</time></trkpt><trkpt lat="41.5027369" lon="13.2257016"><ele>50.25</ele><time>2026-05-03T11:10:35.394Z</time></trkpt><trkpt lat="41.5026595" lon="13.2255572"><ele>50.5</ele><time>2026-05-03T11:10:36.404Z</time></trkpt><trkpt lat="41.5025803" lon="13.2254201"><ele>50.75</ele><time>2026-05-03T11:10:37.392Z</time></trkpt><trkpt lat="41.5025015" lon="13.225298"><ele>51.0</ele><time>2026-05-03T11:10:38.398Z</time></trkpt><trkpt lat="41.5024223" lon="13.2251882"><ele>51.0</ele><time>2026-05-03T11:10:39.395Z</time></trkpt><trkpt lat="41.5023635" lon="13.2251035"><ele>51.0</ele><time>2026-05-03T11:10:40.393Z</time></trkpt><trkpt lat="41.502307" lon="13.2250205"><ele>51.0</ele><time>2026-05-03T11:10:41.397Z</time></trkpt><trkpt lat="41.5022543" lon="13.2249448"><ele>51.0</ele><time>2026-05-03T11:10:42.395Z</time></trkpt><trkpt lat="41.5022078" lon="13.2248728"><ele>51.0</ele><time>2026-05-03T11:10:43.406Z</time></trkpt><trkpt lat="41.5021614" lon="13.2248013"><ele>51.0</ele><time>2026-05-03T11:10:44.401Z</time></trkpt><trkpt lat="41.5021209" lon="13.2247257"><ele>51.0</ele><time>2026-05-03T11:10:45.399Z</time></trkpt><trkpt lat="41.5020859" lon="13.2246455"><ele>51.0</ele><time>2026-05-03T11:10:46.403Z</time></trkpt><trkpt lat="41.5020584" lon="13.2245604"><ele>51.0</ele><time>2026-05-03T11:10:47.395Z</time></trkpt><trkpt lat="41.5020189" lon="13.2244807"><ele>51.0</ele><time>2026-05-03T11:10:48.395Z</time></trkpt><trkpt lat="41.5019588" lon="13.2244233"><ele>51.0</ele><time>2026-05-03T11:10:49.395Z</time></trkpt><trkpt lat="41.5018854" lon="13.224387"><ele>51.0</ele><time>2026-05-03T11:10:50.394Z</time></trkpt><trkpt lat="41.5017956" lon="13.224352"><ele>50.0</ele><time>2026-05-03T11:10:51.404Z</time></trkpt><trkpt lat="41.5016998" lon="13.2242839"><ele>49.0</ele><time>2026-05-03T11:10:52.393Z</time></trkpt><trkpt lat="41.501603" lon="13.2241903"><ele>48.0</ele><time>2026-05-03T11:10:53.398Z</time></trkpt><trkpt lat="41.5014968" lon="13.224083"><ele>47.0</ele><time>2026-05-03T11:10:54.396Z</time></trkpt><trkpt lat="41.5013796" lon="13.2239691"><ele>46.33333333333333</ele><time>2026-05-03T11:10:55.394Z</time></trkpt><trkpt lat="41.5012549" lon="13.2238447"><ele>45.666666666666664</ele><time>2026-05-03T11:10:56.402Z</time></trkpt><trkpt lat="41.5011197" lon="13.2237153"><ele>45.0</ele><time>2026-05-03T11:10:57.396Z</time></trkpt><trkpt lat="41.5009802" lon="13.2235711"><ele>44.666666666666664</ele><time>2026-05-03T11:10:58.406Z</time></trkpt><trkpt lat="41.5008393" lon="13.22342"><ele>44.33333333333333</ele><time>2026-05-03T11:10:59.395Z</time></trkpt><trkpt lat="41.5007005" lon="13.2232593"><ele>44.0</ele><time>2026-05-03T11:11:00.403Z</time></trkpt><trkpt lat="41.5005618" lon="13.2230941"><ele>43.666666666666664</ele><time>2026-05-03T11:11:01.399Z</time></trkpt><trkpt lat="41.5004229" lon="13.2229175"><ele>43.333333333333336</ele><time>2026-05-03T11:11:02.395Z</time></trkpt><trkpt lat="41.5002912" lon="13.2227348"><ele>43.0</ele><time>2026-05-03T11:11:03.395Z</time></trkpt><trkpt lat="41.5001709" lon="13.2225479"><ele>42.333333333333336</ele><time>2026-05-03T11:11:04.393Z</time></trkpt><trkpt lat="41.5000611" lon="13.22237"><ele>41.666666666666664</ele><time>2026-05-03T11:11:05.395Z</time></trkpt><trkpt lat="41.4999644" lon="13.2221941"><ele>41.0</ele><time>2026-05-03T11:11:06.401Z</time></trkpt><trkpt lat="41.4998744" lon="13.2220221"><ele>41.0</ele><time>2026-05-03T11:11:07.396Z</time></trkpt><trkpt lat="41.4997909" lon="13.2218546"><ele>41.0</ele><time>2026-05-03T11:11:08.395Z</time></trkpt><trkpt lat="41.4997079" lon="13.2216758"><ele>41.0</ele><time>2026-05-03T11:11:09.4Z</time></trkpt><trkpt lat="41.4996245" lon="13.2214826"><ele>40.0</ele><time>2026-05-03T11:11:10.4Z</time></trkpt><trkpt lat="41.4995428" lon="13.2212691"><ele>39.0</ele><time>2026-05-03T11:11:11.406Z</time></trkpt><trkpt lat="41.4994657" lon="13.2210426"><ele>38.0</ele><time>2026-05-03T11:11:12.406Z</time></trkpt><trkpt lat="41.4993927" lon="13.2208218"><ele>38.0</ele><time>2026-05-03T11:11:13.396Z</time></trkpt><trkpt lat="41.4993219" lon="13.2205977"><ele>38.0</ele><time>2026-05-03T11:11:14.391Z</time></trkpt><trkpt lat="41.4992545" lon="13.2203742"><ele>38.0</ele><time>2026-05-03T11:11:15.403Z</time></trkpt><trkpt lat="41.4991905" lon="13.2201537"><ele>38.0</ele><time>2026-05-03T11:11:16.393Z</time></trkpt><trkpt lat="41.4991261" lon="13.2199365"><ele>38.0</ele><time>2026-05-03T11:11:17.397Z</time></trkpt><trkpt lat="41.4990652" lon="13.2197254"><ele>38.0</ele><time>2026-05-03T11:11:18.389Z</time></trkpt><trkpt lat="41.4990072" lon="13.2195183"><ele>38.0</ele><time>2026-05-03T11:11:19.395Z</time></trkpt><trkpt lat="41.4989508" lon="13.2193161"><ele>38.0</ele><time>2026-05-03T11:11:20.39Z</time></trkpt><trkpt lat="41.4988956" lon="13.219119"><ele>38.0</ele><time>2026-05-03T11:11:21.399Z</time></trkpt><trkpt lat="41.4988421" lon="13.2189224"><ele>38.0</ele><time>2026-05-03T11:11:22.391Z</time></trkpt><trkpt lat="41.4987898" lon="13.2187338"><ele>38.0</ele><time>2026-05-03T11:11:23.393Z</time></trkpt><trkpt lat="41.4987364" lon="13.2185493"><ele>38.0</ele><time>2026-05-03T11:11:24.392Z</time></trkpt><trkpt lat="41.4986849" lon="13.2183633"><ele>38.0</ele><time>2026-05-03T11:11:25.39Z</time></trkpt><trkpt lat="41.4986323" lon="13.2181804"><ele>37.5</ele><time>2026-05-03T11:11:26.388Z</time></trkpt><trkpt lat="41.4985848" lon="13.2179994"><ele>37.0</ele><time>2026-05-03T11:11:27.401Z</time></trkpt><trkpt lat="41.4985298" lon="13.2178097"><ele>36.5</ele><time>2026-05-03T11:11:28.393Z</time></trkpt><trkpt lat="41.4984742" lon="13.2176208"><ele>36.0</ele><time>2026-05-03T11:11:29.399Z</time></trkpt><trkpt lat="41.4984199" lon="13.2174324"><ele>35.666666666666664</ele><time>2026-05-03T11:11:30.399Z</time></trkpt><trkpt lat="41.498365" lon="13.2172401"><ele>35.33333333333333</ele><time>2026-05-03T11:11:31.401Z</time></trkpt><trkpt lat="41.4983089" lon="13.2170428"><ele>35.0</ele><time>2026-05-03T11:11:32.393Z</time></trkpt><trkpt lat="41.4982466" lon="13.2168471"><ele>35.0</ele><time>2026-05-03T11:11:33.402Z</time></trkpt><trkpt lat="41.4981877" lon="13.2166516"><ele>35.0</ele><time>2026-05-03T11:11:34.391Z</time></trkpt><trkpt lat="41.4981251" lon="13.216456"><ele>35.0</ele><time>2026-05-03T11:11:35.393Z</time></trkpt><trkpt lat="41.498056" lon="13.2162624"><ele>35.0</ele><time>2026-05-03T11:11:36.392Z</time></trkpt><trkpt lat="41.4979791" lon="13.2160729"><ele>35.0</ele><time>2026-05-03T11:11:37.39Z</time></trkpt><trkpt lat="41.4978908" lon="13.2158896"><ele>35.0</ele><time>2026-05-03T11:11:38.393Z</time></trkpt><trkpt lat="41.4977945" lon="13.2157051"><ele>35.666666666666664</ele><time>2026-05-03T11:11:39.405Z</time></trkpt><trkpt lat="41.4976963" lon="13.2155179"><ele>36.333333333333336</ele><time>2026-05-03T11:11:40.392Z</time></trkpt><trkpt lat="41.497593" lon="13.2153228"><ele>37.0</ele><time>2026-05-03T11:11:41.402Z</time></trkpt><trkpt lat="41.4974877" lon="13.2151278"><ele>37.0</ele><time>2026-05-03T11:11:42.393Z</time></trkpt><trkpt lat="41.4973808" lon="13.2149282"><ele>37.0</ele><time>2026-05-03T11:11:43.391Z</time></trkpt><trkpt lat="41.4972684" lon="13.2147294"><ele>37.0</ele><time>2026-05-03T11:11:44.387Z</time></trkpt><trkpt lat="41.4971561" lon="13.2145291"><ele>36.66666666666667</ele><time>2026-05-03T11:11:45.396Z</time></trkpt><trkpt lat="41.497044" lon="13.2143284"><ele>36.333333333333336</ele><time>2026-05-03T11:11:46.402Z</time></trkpt><trkpt lat="41.4969308" lon="13.214126"><ele>36.0</ele><time>2026-05-03T11:11:47.392Z</time></trkpt><trkpt lat="41.4968119" lon="13.2139193"><ele>36.0</ele><time>2026-05-03T11:11:48.391Z</time></trkpt><trkpt lat="41.4966937" lon="13.2137049"><ele>36.0</ele><time>2026-05-03T11:11:49.392Z</time></trkpt><trkpt lat="41.4965736" lon="13.2134894"><ele>36.0</ele><time>2026-05-03T11:11:50.394Z</time></trkpt><trkpt lat="41.496449" lon="13.2132657"><ele>36.0</ele><time>2026-05-03T11:11:51.393Z</time></trkpt><trkpt lat="41.4963227" lon="13.2130267"><ele>36.0</ele><time>2026-05-03T11:11:52.388Z</time></trkpt><trkpt lat="41.496198" lon="13.2127717"><ele>36.0</ele><time>2026-05-03T11:11:53.392Z</time></trkpt><trkpt lat="41.4960811" lon="13.212502"><ele>37.0</ele><time>2026-05-03T11:11:54.402Z</time></trkpt><trkpt lat="41.4959739" lon="13.2122185"><ele>38.0</ele><time>2026-05-03T11:11:55.4Z</time></trkpt><trkpt lat="41.4958707" lon="13.2119292"><ele>38.0</ele><time>2026-05-03T11:11:56.399Z</time></trkpt><trkpt lat="41.4957674" lon="13.2116351"><ele>38.0</ele><time>2026-05-03T11:11:57.401Z</time></trkpt><trkpt lat="41.495665" lon="13.2113456"><ele>36.5</ele><time>2026-05-03T11:11:58.391Z</time></trkpt><trkpt lat="41.4955632" lon="13.2110589"><ele>35.0</ele><time>2026-05-03T11:11:59.391Z</time></trkpt><trkpt lat="41.4954643" lon="13.2107751"><ele>34.5</ele><time>2026-05-03T11:12:00.389Z</time></trkpt><trkpt lat="41.4953705" lon="13.2104949"><ele>34.0</ele><time>2026-05-03T11:12:01.401Z</time></trkpt><trkpt lat="41.4952766" lon="13.2102256"><ele>34.0</ele><time>2026-05-03T11:12:02.393Z</time></trkpt><trkpt lat="41.4951855" lon="13.2099592"><ele>34.0</ele><time>2026-05-03T11:12:03.403Z</time></trkpt><trkpt lat="41.4951021" lon="13.2097025"><ele>34.0</ele><time>2026-05-03T11:12:04.392Z</time></trkpt><trkpt lat="41.495018" lon="13.2094487"><ele>34.0</ele><time>2026-05-03T11:12:05.393Z</time></trkpt><trkpt lat="41.4949304" lon="13.2091956"><ele>34.0</ele><time>2026-05-03T11:12:06.393Z</time></trkpt><trkpt lat="41.4948447" lon="13.2089556"><ele>34.0</ele><time>2026-05-03T11:12:07.392Z</time></trkpt><trkpt lat="41.4947602" lon="13.2087325"><ele>34.0</ele><time>2026-05-03T11:12:08.393Z</time></trkpt><trkpt lat="41.4946859" lon="13.2085093"><ele>34.0</ele><time>2026-05-03T11:12:09.389Z</time></trkpt><trkpt lat="41.4946119" lon="13.2082903"><ele>34.0</ele><time>2026-05-03T11:12:10.402Z</time></trkpt><trkpt lat="41.4945393" lon="13.2080737"><ele>34.0</ele><time>2026-05-03T11:12:11.393Z</time></trkpt><trkpt lat="41.4944664" lon="13.207853"><ele>34.0</ele><time>2026-05-03T11:12:12.394Z</time></trkpt><trkpt lat="41.4943932" lon="13.2076282"><ele>34.0</ele><time>2026-05-03T11:12:13.399Z</time></trkpt><trkpt lat="41.494316" lon="13.2074006"><ele>34.333333333333336</ele><time>2026-05-03T11:12:14.395Z</time></trkpt><trkpt lat="41.4942333" lon="13.2071672"><ele>34.666666666666664</ele><time>2026-05-03T11:12:15.399Z</time></trkpt><trkpt lat="41.4941435" lon="13.2069255"><ele>35.0</ele><time>2026-05-03T11:12:16.391Z</time></trkpt><trkpt lat="41.4940445" lon="13.2066657"><ele>35.0</ele><time>2026-05-03T11:12:17.4Z</time></trkpt><trkpt lat="41.4939447" lon="13.2063923"><ele>35.0</ele><time>2026-05-03T11:12:18.39Z</time></trkpt><trkpt lat="41.4938466" lon="13.2060957"><ele>34.0</ele><time>2026-05-03T11:12:19.401Z</time></trkpt><trkpt lat="41.4937533" lon="13.205787"><ele>33.0</ele><time>2026-05-03T11:12:20.405Z</time></trkpt><trkpt lat="41.4936649" lon="13.2054633"><ele>33.0</ele><time>2026-05-03T11:12:21.402Z</time></trkpt><trkpt lat="41.4935823" lon="13.2051305"><ele>33.0</ele><time>2026-05-03T11:12:22.394Z</time></trkpt><trkpt lat="41.4934992" lon="13.2047935"><ele>33.0</ele><time>2026-05-03T11:12:23.404Z</time></trkpt><trkpt lat="41.4934179" lon="13.2044643"><ele>33.0</ele><time>2026-05-03T11:12:24.402Z</time></trkpt><trkpt lat="41.4933367" lon="13.2041424"><ele>34.0</ele><time>2026-05-03T11:12:25.403Z</time></trkpt><trkpt lat="41.4932591" lon="13.2038283"><ele>35.0</ele><time>2026-05-03T11:12:26.404Z</time></trkpt><trkpt lat="41.4931809" lon="13.2035166"><ele>35.0</ele><time>2026-05-03T11:12:27.394Z</time></trkpt><trkpt lat="41.4931012" lon="13.203198"><ele>35.0</ele><time>2026-05-03T11:12:28.394Z</time></trkpt><trkpt lat="41.4930211" lon="13.2028753"><ele>35.0</ele><time>2026-05-03T11:12:29.402Z</time></trkpt><trkpt lat="41.4929427" lon="13.202553"><ele>35.0</ele><time>2026-05-03T11:12:30.395Z</time></trkpt><trkpt lat="41.4928614" lon="13.2022248"><ele>35.0</ele><time>2026-05-03T11:12:31.395Z</time></trkpt><trkpt lat="41.4927798" lon="13.2018961"><ele>35.0</ele><time>2026-05-03T11:12:32.402Z</time></trkpt><trkpt lat="41.4926984" lon="13.2015678"><ele>35.5</ele><time>2026-05-03T11:12:33.394Z</time></trkpt><trkpt lat="41.4926159" lon="13.2012394"><ele>36.0</ele><time>2026-05-03T11:12:34.403Z</time></trkpt><trkpt lat="41.4925358" lon="13.2009119"><ele>35.5</ele><time>2026-05-03T11:12:35.401Z</time></trkpt><trkpt lat="41.4924568" lon="13.2005852"><ele>35.0</ele><time>2026-05-03T11:12:36.401Z</time></trkpt><trkpt lat="41.4923744" lon="13.2002488"><ele>35.0</ele><time>2026-05-03T11:12:37.516Z</time></trkpt><trkpt lat="41.4922197" lon="13.1995974"><ele>35.0</ele><time>2026-05-03T11:12:39.405Z</time></trkpt><trkpt lat="41.4921457" lon="13.1992648"><ele>35.0</ele><time>2026-05-03T11:12:40.4Z</time></trkpt><trkpt lat="41.4920723" lon="13.1989321"><ele>34.0</ele><time>2026-05-03T11:12:41.407Z</time></trkpt><trkpt lat="41.4919979" lon="13.1986054"><ele>33.0</ele><time>2026-05-03T11:12:42.393Z</time></trkpt><trkpt lat="41.4919223" lon="13.198277"><ele>33.5</ele><time>2026-05-03T11:12:43.392Z</time></trkpt><trkpt lat="41.4918503" lon="13.197954"><ele>34.0</ele><time>2026-05-03T11:12:44.395Z</time></trkpt><trkpt lat="41.4917785" lon="13.1976335"><ele>34.0</ele><time>2026-05-03T11:12:45.403Z</time></trkpt><trkpt lat="41.4917071" lon="13.1973143"><ele>34.0</ele><time>2026-05-03T11:12:46.394Z</time></trkpt><trkpt lat="41.4916387" lon="13.1970035"><ele>34.0</ele><time>2026-05-03T11:12:47.394Z</time></trkpt><trkpt lat="41.4915705" lon="13.1966988"><ele>34.0</ele><time>2026-05-03T11:12:48.392Z</time></trkpt><trkpt lat="41.4914996" lon="13.1963873"><ele>34.0</ele><time>2026-05-03T11:12:49.404Z</time></trkpt><trkpt lat="41.4914272" lon="13.1960777"><ele>34.0</ele><time>2026-05-03T11:12:50.402Z</time></trkpt><trkpt lat="41.491355" lon="13.1957693"><ele>33.0</ele><time>2026-05-03T11:12:51.394Z</time></trkpt><trkpt lat="41.4912861" lon="13.195461"><ele>32.0</ele><time>2026-05-03T11:12:52.394Z</time></trkpt><trkpt lat="41.4912173" lon="13.1951572"><ele>32.0</ele><time>2026-05-03T11:12:53.401Z</time></trkpt><trkpt lat="41.4911527" lon="13.1948608"><ele>32.0</ele><time>2026-05-03T11:12:54.388Z</time></trkpt><trkpt lat="41.491086" lon="13.1945677"><ele>31.5</ele><time>2026-05-03T11:12:55.392Z</time></trkpt><trkpt lat="41.4910206" lon="13.1942762"><ele>31.0</ele><time>2026-05-03T11:12:56.392Z</time></trkpt><trkpt lat="41.4909567" lon="13.193984"><ele>32.0</ele><time>2026-05-03T11:12:57.393Z</time></trkpt><trkpt lat="41.4908915" lon="13.1936889"><ele>33.0</ele><time>2026-05-03T11:12:58.392Z</time></trkpt><trkpt lat="41.4908281" lon="13.1933915"><ele>34.5</ele><time>2026-05-03T11:12:59.398Z</time></trkpt><trkpt lat="41.4907622" lon="13.1930961"><ele>36.0</ele><time>2026-05-03T11:13:00.392Z</time></trkpt><trkpt lat="41.4906998" lon="13.1927972"><ele>36.0</ele><time>2026-05-03T11:13:01.391Z</time></trkpt><trkpt lat="41.4906356" lon="13.1924987"><ele>36.0</ele><time>2026-05-03T11:13:02.393Z</time></trkpt><trkpt lat="41.4905709" lon="13.1921979"><ele>36.0</ele><time>2026-05-03T11:13:03.4Z</time></trkpt><trkpt lat="41.4905045" lon="13.1918962"><ele>36.0</ele><time>2026-05-03T11:13:04.392Z</time></trkpt><trkpt lat="41.4904356" lon="13.1915894"><ele>34.5</ele><time>2026-05-03T11:13:05.394Z</time></trkpt><trkpt lat="41.4903667" lon="13.1912777"><ele>33.0</ele><time>2026-05-03T11:13:06.399Z</time></trkpt><trkpt lat="41.4903022" lon="13.1909599"><ele>33.0</ele><time>2026-05-03T11:13:07.391Z</time></trkpt><trkpt lat="41.4902376" lon="13.1906351"><ele>33.0</ele><time>2026-05-03T11:13:08.394Z</time></trkpt><trkpt lat="41.4901736" lon="13.1903104"><ele>33.0</ele><time>2026-05-03T11:13:09.392Z</time></trkpt><trkpt lat="41.4901076" lon="13.1899883"><ele>33.0</ele><time>2026-05-03T11:13:10.391Z</time></trkpt><trkpt lat="41.49004" lon="13.1896689"><ele>34.0</ele><time>2026-05-03T11:13:11.392Z</time></trkpt><trkpt lat="41.4899714" lon="13.1893462"><ele>35.0</ele><time>2026-05-03T11:13:12.391Z</time></trkpt><trkpt lat="41.4899041" lon="13.1890165"><ele>35.5</ele><time>2026-05-03T11:13:13.394Z</time></trkpt><trkpt lat="41.4898417" lon="13.1886841"><ele>36.0</ele><time>2026-05-03T11:13:14.391Z</time></trkpt><trkpt lat="41.4897887" lon="13.1883438"><ele>36.0</ele><time>2026-05-03T11:13:15.391Z</time></trkpt><trkpt lat="41.4897449" lon="13.1880032"><ele>36.0</ele><time>2026-05-03T11:13:16.392Z</time></trkpt><trkpt lat="41.4897071" lon="13.1876558"><ele>35.5</ele><time>2026-05-03T11:13:17.394Z</time></trkpt><trkpt lat="41.4896736" lon="13.1873081"><ele>35.0</ele><time>2026-05-03T11:13:18.393Z</time></trkpt><trkpt lat="41.48964" lon="13.1869641"><ele>35.0</ele><time>2026-05-03T11:13:19.392Z</time></trkpt><trkpt lat="41.4896082" lon="13.1866274"><ele>35.0</ele><time>2026-05-03T11:13:20.393Z</time></trkpt><trkpt lat="41.4895814" lon="13.1863009"><ele>35.0</ele><time>2026-05-03T11:13:21.396Z</time></trkpt><trkpt lat="41.4895601" lon="13.185977"><ele>35.0</ele><time>2026-05-03T11:13:22.392Z</time></trkpt><trkpt lat="41.4895442" lon="13.1856508"><ele>35.5</ele><time>2026-05-03T11:13:23.393Z</time></trkpt><trkpt lat="41.4895363" lon="13.1853168"><ele>36.0</ele><time>2026-05-03T11:13:24.393Z</time></trkpt><trkpt lat="41.489532" lon="13.1849793"><ele>35.0</ele><time>2026-05-03T11:13:25.399Z</time></trkpt><trkpt lat="41.4895395" lon="13.1846428"><ele>34.0</ele><time>2026-05-03T11:13:26.397Z</time></trkpt><trkpt lat="41.4895434" lon="13.1843039"><ele>34.0</ele><time>2026-05-03T11:13:27.392Z</time></trkpt><trkpt lat="41.4895407" lon="13.1839598"><ele>34.0</ele><time>2026-05-03T11:13:28.392Z</time></trkpt><trkpt lat="41.4895416" lon="13.1836167"><ele>34.0</ele><time>2026-05-03T11:13:29.393Z</time></trkpt><trkpt lat="41.4895394" lon="13.1832779"><ele>34.0</ele><time>2026-05-03T11:13:30.392Z</time></trkpt><trkpt lat="41.4895406" lon="13.1829535"><ele>34.66666666666667</ele><time>2026-05-03T11:13:31.39Z</time></trkpt><trkpt lat="41.4895399" lon="13.1826439"><ele>35.333333333333336</ele><time>2026-05-03T11:13:32.389Z</time></trkpt><trkpt lat="41.4895438" lon="13.1823558"><ele>36.0</ele><time>2026-05-03T11:13:33.391Z</time></trkpt><trkpt lat="41.4895516" lon="13.1820589"><ele>36.0</ele><time>2026-05-03T11:13:34.395Z</time></trkpt><trkpt lat="41.4895642" lon="13.1817633"><ele>36.0</ele><time>2026-05-03T11:13:35.396Z</time></trkpt><trkpt lat="41.4895786" lon="13.1814638"><ele>36.0</ele><time>2026-05-03T11:13:36.391Z</time></trkpt><trkpt lat="41.4895951" lon="13.1811559"><ele>35.5</ele><time>2026-05-03T11:13:37.392Z</time></trkpt><trkpt lat="41.4896083" lon="13.1808451"><ele>35.0</ele><time>2026-05-03T11:13:38.391Z</time></trkpt><trkpt lat="41.4896227" lon="13.1805309"><ele>35.0</ele><time>2026-05-03T11:13:39.395Z</time></trkpt><trkpt lat="41.4896354" lon="13.1802139"><ele>35.0</ele><time>2026-05-03T11:13:40.39Z</time></trkpt><trkpt lat="41.4896553" lon="13.1799016"><ele>35.5</ele><time>2026-05-03T11:13:41.398Z</time></trkpt><trkpt lat="41.4896719" lon="13.1795825"><ele>36.0</ele><time>2026-05-03T11:13:42.39Z</time></trkpt><trkpt lat="41.4896853" lon="13.1792636"><ele>36.5</ele><time>2026-05-03T11:13:43.394Z</time></trkpt><trkpt lat="41.4897001" lon="13.1789469"><ele>37.0</ele><time>2026-05-03T11:13:44.392Z</time></trkpt><trkpt lat="41.489714" lon="13.178628"><ele>37.0</ele><time>2026-05-03T11:13:45.394Z</time></trkpt><trkpt lat="41.4897269" lon="13.1783119"><ele>37.0</ele><time>2026-05-03T11:13:46.391Z</time></trkpt><trkpt lat="41.4897434" lon="13.1779926"><ele>37.5</ele><time>2026-05-03T11:13:47.393Z</time></trkpt><trkpt lat="41.4897569" lon="13.1776698"><ele>38.0</ele><time>2026-05-03T11:13:48.395Z</time></trkpt><trkpt lat="41.4897689" lon="13.1773539"><ele>38.5</ele><time>2026-05-03T11:13:49.399Z</time></trkpt><trkpt lat="41.4897773" lon="13.1770363"><ele>39.0</ele><time>2026-05-03T11:13:50.394Z</time></trkpt><trkpt lat="41.4897769" lon="13.1767239"><ele>38.5</ele><time>2026-05-03T11:13:51.396Z</time></trkpt><trkpt lat="41.489776" lon="13.1764098"><ele>38.0</ele><time>2026-05-03T11:13:52.396Z</time></trkpt><trkpt lat="41.4897783" lon="13.1760985"><ele>38.0</ele><time>2026-05-03T11:13:53.391Z</time></trkpt><trkpt lat="41.4897755" lon="13.1757758"><ele>38.0</ele><time>2026-05-03T11:13:54.391Z</time></trkpt><trkpt lat="41.4897715" lon="13.1754498"><ele>39.0</ele><time>2026-05-03T11:13:55.395Z</time></trkpt><trkpt lat="41.489763" lon="13.1751137"><ele>40.0</ele><time>2026-05-03T11:13:56.399Z</time></trkpt><trkpt lat="41.4897554" lon="13.1747695"><ele>40.0</ele><time>2026-05-03T11:13:57.392Z</time></trkpt><trkpt lat="41.4897463" lon="13.1744195"><ele>40.0</ele><time>2026-05-03T11:13:58.395Z</time></trkpt><trkpt lat="41.4897318" lon="13.1740587"><ele>40.0</ele><time>2026-05-03T11:13:59.395Z</time></trkpt><trkpt lat="41.4897136" lon="13.1737"><ele>40.0</ele><time>2026-05-03T11:14:00.405Z</time></trkpt><trkpt lat="41.4896962" lon="13.1733437"><ele>40.0</ele><time>2026-05-03T11:14:01.393Z</time></trkpt><trkpt lat="41.489673" lon="13.1729829"><ele>40.0</ele><time>2026-05-03T11:14:02.393Z</time></trkpt><trkpt lat="41.4896454" lon="13.1726171"><ele>40.0</ele><time>2026-05-03T11:14:03.391Z</time></trkpt><trkpt lat="41.4896162" lon="13.1722464"><ele>40.0</ele><time>2026-05-03T11:14:04.391Z</time></trkpt><trkpt lat="41.48958" lon="13.1718595"><ele>39.0</ele><time>2026-05-03T11:14:05.393Z</time></trkpt><trkpt lat="41.4895403" lon="13.1714566"><ele>38.0</ele><time>2026-05-03T11:14:06.393Z</time></trkpt><trkpt lat="41.4894988" lon="13.171039"><ele>39.0</ele><time>2026-05-03T11:14:07.392Z</time></trkpt><trkpt lat="41.4894563" lon="13.1706161"><ele>40.0</ele><time>2026-05-03T11:14:08.391Z</time></trkpt><trkpt lat="41.4894149" lon="13.1701878"><ele>40.5</ele><time>2026-05-03T11:14:09.395Z</time></trkpt><trkpt lat="41.4893752" lon="13.1697685"><ele>41.0</ele><time>2026-05-03T11:14:10.403Z</time></trkpt><trkpt lat="41.4893361" lon="13.1693608"><ele>41.5</ele><time>2026-05-03T11:14:11.396Z</time></trkpt><trkpt lat="41.4892994" lon="13.1689675"><ele>42.0</ele><time>2026-05-03T11:14:12.391Z</time></trkpt><trkpt lat="41.4892642" lon="13.1685897"><ele>42.0</ele><time>2026-05-03T11:14:13.393Z</time></trkpt><trkpt lat="41.4892256" lon="13.1682296"><ele>42.0</ele><time>2026-05-03T11:14:14.396Z</time></trkpt><trkpt lat="41.48919" lon="13.1678849"><ele>42.0</ele><time>2026-05-03T11:14:15.392Z</time></trkpt><trkpt lat="41.4891557" lon="13.1675547"><ele>42.0</ele><time>2026-05-03T11:14:16.392Z</time></trkpt><trkpt lat="41.4891254" lon="13.1672306"><ele>42.5</ele><time>2026-05-03T11:14:17.395Z</time></trkpt><trkpt lat="41.4890961" lon="13.1669183"><ele>43.0</ele><time>2026-05-03T11:14:18.394Z</time></trkpt><trkpt lat="41.4890693" lon="13.1666146"><ele>43.0</ele><time>2026-05-03T11:14:19.392Z</time></trkpt><trkpt lat="41.4890382" lon="13.1663204"><ele>43.0</ele><time>2026-05-03T11:14:20.395Z</time></trkpt><trkpt lat="41.4890071" lon="13.1660305"><ele>43.0</ele><time>2026-05-03T11:14:21.393Z</time></trkpt><trkpt lat="41.4889787" lon="13.1657446"><ele>43.0</ele><time>2026-05-03T11:14:22.393Z</time></trkpt><trkpt lat="41.4889537" lon="13.1654683"><ele>43.0</ele><time>2026-05-03T11:14:23.395Z</time></trkpt><trkpt lat="41.488929" lon="13.1651925"><ele>43.0</ele><time>2026-05-03T11:14:24.399Z</time></trkpt><trkpt lat="41.4889094" lon="13.1649117"><ele>43.0</ele><time>2026-05-03T11:14:25.397Z</time></trkpt><trkpt lat="41.4888855" lon="13.1646212"><ele>43.0</ele><time>2026-05-03T11:14:26.407Z</time></trkpt><trkpt lat="41.4888605" lon="13.1643215"><ele>43.0</ele><time>2026-05-03T11:14:27.393Z</time></trkpt><trkpt lat="41.4888315" lon="13.1640159"><ele>43.0</ele><time>2026-05-03T11:14:28.395Z</time></trkpt><trkpt lat="41.4887991" lon="13.1637022"><ele>43.0</ele><time>2026-05-03T11:14:29.395Z</time></trkpt><trkpt lat="41.4887648" lon="13.163382"><ele>41.0</ele><time>2026-05-03T11:14:30.39Z</time></trkpt><trkpt lat="41.4878923" lon="13.1527058"><ele>41.5</ele><time>2026-05-03T11:15:10.186Z</time></trkpt><trkpt lat="41.4878464" lon="13.1521536"><ele>42.0</ele><time>2026-05-03T11:15:11.388Z</time></trkpt><trkpt lat="41.4878335" lon="13.1518504"><ele>41.0</ele><time>2026-05-03T11:15:12.398Z</time></trkpt><trkpt lat="41.4877745" lon="13.1512114"><ele>41.0</ele><time>2026-05-03T11:15:14.391Z</time></trkpt><trkpt lat="41.4877497" lon="13.1508919"><ele>41.0</ele><time>2026-05-03T11:15:15.392Z</time></trkpt><trkpt lat="41.4877205" lon="13.150573"><ele>41.5</ele><time>2026-05-03T11:15:16.393Z</time></trkpt><trkpt lat="41.4876954" lon="13.1502669"><ele>42.0</ele><time>2026-05-03T11:15:17.394Z</time></trkpt><trkpt lat="41.4876712" lon="13.1499679"><ele>42.666666666666664</ele><time>2026-05-03T11:15:18.387Z</time></trkpt><trkpt lat="41.4876447" lon="13.1496799"><ele>43.33333333333333</ele><time>2026-05-03T11:15:19.389Z</time></trkpt><trkpt lat="41.4876202" lon="13.1494127"><ele>44.0</ele><time>2026-05-03T11:15:20.392Z</time></trkpt><trkpt lat="41.4875958" lon="13.1491415"><ele>43.33333333333333</ele><time>2026-05-03T11:15:21.388Z</time></trkpt><trkpt lat="41.4875679" lon="13.1488773"><ele>42.666666666666664</ele><time>2026-05-03T11:15:22.389Z</time></trkpt><trkpt lat="41.4875405" lon="13.1486179"><ele>42.0</ele><time>2026-05-03T11:15:23.39Z</time></trkpt><trkpt lat="41.4875216" lon="13.1483641"><ele>42.0</ele><time>2026-05-03T11:15:24.392Z</time></trkpt><trkpt lat="41.4874974" lon="13.1481117"><ele>42.0</ele><time>2026-05-03T11:15:25.392Z</time></trkpt><trkpt lat="41.4874761" lon="13.1478583"><ele>42.0</ele><time>2026-05-03T11:15:26.393Z</time></trkpt><trkpt lat="41.487452" lon="13.1476058"><ele>41.666666666666664</ele><time>2026-05-03T11:15:27.389Z</time></trkpt><trkpt lat="41.487431" lon="13.1473591"><ele>41.33333333333333</ele><time>2026-05-03T11:15:28.392Z</time></trkpt><trkpt lat="41.4874082" lon="13.1471145"><ele>41.0</ele><time>2026-05-03T11:15:29.387Z</time></trkpt><trkpt lat="41.4873886" lon="13.1468704"><ele>41.0</ele><time>2026-05-03T11:15:30.395Z</time></trkpt><trkpt lat="41.4873695" lon="13.1466283"><ele>41.0</ele><time>2026-05-03T11:15:31.393Z</time></trkpt><trkpt lat="41.4873478" lon="13.1463859"><ele>41.0</ele><time>2026-05-03T11:15:32.393Z</time></trkpt><trkpt lat="41.4873248" lon="13.1461444"><ele>41.0</ele><time>2026-05-03T11:15:33.393Z</time></trkpt><trkpt lat="41.4873038" lon="13.1459047"><ele>41.0</ele><time>2026-05-03T11:15:34.391Z</time></trkpt><trkpt lat="41.4872797" lon="13.1456665"><ele>41.0</ele><time>2026-05-03T11:15:35.401Z</time></trkpt><trkpt lat="41.4872594" lon="13.1454337"><ele>41.0</ele><time>2026-05-03T11:15:36.393Z</time></trkpt><trkpt lat="41.4872364" lon="13.1451984"><ele>41.0</ele><time>2026-05-03T11:15:37.395Z</time></trkpt><trkpt lat="41.4872162" lon="13.1449636"><ele>41.0</ele><time>2026-05-03T11:15:38.395Z</time></trkpt><trkpt lat="41.4871937" lon="13.1447267"><ele>41.0</ele><time>2026-05-03T11:15:39.392Z</time></trkpt><trkpt lat="41.4871729" lon="13.1444898"><ele>41.0</ele><time>2026-05-03T11:15:40.397Z</time></trkpt><trkpt lat="41.4871517" lon="13.1442522"><ele>41.0</ele><time>2026-05-03T11:15:41.395Z</time></trkpt><trkpt lat="41.4871305" lon="13.1440184"><ele>40.666666666666664</ele><time>2026-05-03T11:15:42.386Z</time></trkpt><trkpt lat="41.4871107" lon="13.1437769"><ele>40.333333333333336</ele><time>2026-05-03T11:15:43.394Z</time></trkpt><trkpt lat="41.4870883" lon="13.1435302"><ele>40.0</ele><time>2026-05-03T11:15:44.394Z</time></trkpt><trkpt lat="41.4870642" lon="13.1432762"><ele>40.0</ele><time>2026-05-03T11:15:45.398Z</time></trkpt><trkpt lat="41.4870397" lon="13.1430281"><ele>40.0</ele><time>2026-05-03T11:15:46.39Z</time></trkpt><trkpt lat="41.487018" lon="13.1427833"><ele>40.0</ele><time>2026-05-03T11:15:47.408Z</time></trkpt><trkpt lat="41.4869975" lon="13.1425436"><ele>40.333333333333336</ele><time>2026-05-03T11:15:48.389Z</time></trkpt><trkpt lat="41.4869766" lon="13.1423057"><ele>40.666666666666664</ele><time>2026-05-03T11:15:49.398Z</time></trkpt><trkpt lat="41.4869566" lon="13.142062"><ele>41.0</ele><time>2026-05-03T11:15:50.389Z</time></trkpt><trkpt lat="41.4869352" lon="13.141816"><ele>41.0</ele><time>2026-05-03T11:15:51.391Z</time></trkpt><trkpt lat="41.4869141" lon="13.1415744"><ele>41.0</ele><time>2026-05-03T11:15:52.39Z</time></trkpt><trkpt lat="41.4868946" lon="13.1413345"><ele>41.0</ele><time>2026-05-03T11:15:53.395Z</time></trkpt><trkpt lat="41.4868712" lon="13.1410996"><ele>40.666666666666664</ele><time>2026-05-03T11:15:54.396Z</time></trkpt><trkpt lat="41.486852" lon="13.1408751"><ele>40.333333333333336</ele><time>2026-05-03T11:15:55.4Z</time></trkpt><trkpt lat="41.486836" lon="13.1406475"><ele>40.0</ele><time>2026-05-03T11:15:56.395Z</time></trkpt><trkpt lat="41.4868163" lon="13.1404181"><ele>40.0</ele><time>2026-05-03T11:15:57.401Z</time></trkpt><trkpt lat="41.4867942" lon="13.1401883"><ele>40.0</ele><time>2026-05-03T11:15:58.395Z</time></trkpt><trkpt lat="41.4867692" lon="13.1399551"><ele>40.0</ele><time>2026-05-03T11:15:59.389Z</time></trkpt><trkpt lat="41.4867485" lon="13.1397228"><ele>40.0</ele><time>2026-05-03T11:16:00.406Z</time></trkpt><trkpt lat="41.486727" lon="13.139493"><ele>40.0</ele><time>2026-05-03T11:16:01.393Z</time></trkpt><trkpt lat="41.486708" lon="13.1392631"><ele>40.0</ele><time>2026-05-03T11:16:02.401Z</time></trkpt><trkpt lat="41.4866886" lon="13.1390328"><ele>40.0</ele><time>2026-05-03T11:16:03.39Z</time></trkpt><trkpt lat="41.4866636" lon="13.1388059"><ele>40.0</ele><time>2026-05-03T11:16:04.394Z</time></trkpt><trkpt lat="41.4866389" lon="13.1385779"><ele>40.0</ele><time>2026-05-03T11:16:05.394Z</time></trkpt><trkpt lat="41.4866156" lon="13.1383472"><ele>40.333333333333336</ele><time>2026-05-03T11:16:06.391Z</time></trkpt><trkpt lat="41.4865938" lon="13.1381178"><ele>40.666666666666664</ele><time>2026-05-03T11:16:07.397Z</time></trkpt><trkpt lat="41.4865718" lon="13.1378848"><ele>41.0</ele><time>2026-05-03T11:16:08.406Z</time></trkpt><trkpt lat="41.4865474" lon="13.1376524"><ele>41.0</ele><time>2026-05-03T11:16:09.393Z</time></trkpt><trkpt lat="41.4865276" lon="13.137425"><ele>41.0</ele><time>2026-05-03T11:16:10.398Z</time></trkpt><trkpt lat="41.486507" lon="13.1371983"><ele>41.0</ele><time>2026-05-03T11:16:11.398Z</time></trkpt><trkpt lat="41.4864843" lon="13.1369749"><ele>40.666666666666664</ele><time>2026-05-03T11:16:12.39Z</time></trkpt><trkpt lat="41.4864602" lon="13.1367563"><ele>40.333333333333336</ele><time>2026-05-03T11:16:13.401Z</time></trkpt><trkpt lat="41.4864416" lon="13.1365388"><ele>40.0</ele><time>2026-05-03T11:16:14.392Z</time></trkpt><trkpt lat="41.4864221" lon="13.1363162"><ele>40.0</ele><time>2026-05-03T11:16:15.393Z</time></trkpt><trkpt lat="41.4864028" lon="13.1360944"><ele>40.0</ele><time>2026-05-03T11:16:16.391Z</time></trkpt><trkpt lat="41.4863816" lon="13.1358697"><ele>40.0</ele><time>2026-05-03T11:16:17.391Z</time></trkpt><trkpt lat="41.4863622" lon="13.1356441"><ele>41.0</ele><time>2026-05-03T11:16:18.393Z</time></trkpt><trkpt lat="41.4863417" lon="13.1354165"><ele>42.0</ele><time>2026-05-03T11:16:19.403Z</time></trkpt><trkpt lat="41.4863246" lon="13.1351874"><ele>43.0</ele><time>2026-05-03T11:16:20.39Z</time></trkpt><trkpt lat="41.4863059" lon="13.1349521"><ele>43.0</ele><time>2026-05-03T11:16:21.395Z</time></trkpt><trkpt lat="41.4862853" lon="13.1347123"><ele>43.0</ele><time>2026-05-03T11:16:22.396Z</time></trkpt><trkpt lat="41.4862648" lon="13.1344832"><ele>43.0</ele><time>2026-05-03T11:16:23.408Z</time></trkpt><trkpt lat="41.4862426" lon="13.1342571"><ele>43.0</ele><time>2026-05-03T11:16:24.394Z</time></trkpt><trkpt lat="41.4862231" lon="13.134031"><ele>43.0</ele><time>2026-05-03T11:16:25.394Z</time></trkpt><trkpt lat="41.4862055" lon="13.1338044"><ele>43.0</ele><time>2026-05-03T11:16:26.406Z</time></trkpt><trkpt lat="41.4861866" lon="13.1335805"><ele>43.0</ele><time>2026-05-03T11:16:27.393Z</time></trkpt><trkpt lat="41.486167" lon="13.1333582"><ele>43.0</ele><time>2026-05-03T11:16:28.396Z</time></trkpt><trkpt lat="41.4861473" lon="13.1331354"><ele>43.0</ele><time>2026-05-03T11:16:29.391Z</time></trkpt><trkpt lat="41.4861253" lon="13.1329082"><ele>42.66666666666667</ele><time>2026-05-03T11:16:30.395Z</time></trkpt><trkpt lat="41.4861016" lon="13.1326769"><ele>42.333333333333336</ele><time>2026-05-03T11:16:31.395Z</time></trkpt><trkpt lat="41.4860761" lon="13.1324402"><ele>42.0</ele><time>2026-05-03T11:16:32.405Z</time></trkpt><trkpt lat="41.4860383" lon="13.1321989"><ele>42.0</ele><time>2026-05-03T11:16:33.396Z</time></trkpt><trkpt lat="41.4859958" lon="13.1319588"><ele>42.0</ele><time>2026-05-03T11:16:34.398Z</time></trkpt><trkpt lat="41.4859429" lon="13.131709"><ele>42.0</ele><time>2026-05-03T11:16:35.405Z</time></trkpt><trkpt lat="41.4858866" lon="13.1314572"><ele>42.666666666666664</ele><time>2026-05-03T11:16:36.401Z</time></trkpt><trkpt lat="41.4858305" lon="13.1312068"><ele>43.33333333333333</ele><time>2026-05-03T11:16:37.402Z</time></trkpt><trkpt lat="41.4857742" lon="13.1309602"><ele>44.0</ele><time>2026-05-03T11:16:38.394Z</time></trkpt><trkpt lat="41.4857221" lon="13.1307191"><ele>44.33333333333333</ele><time>2026-05-03T11:16:39.405Z</time></trkpt><trkpt lat="41.4856707" lon="13.1304814"><ele>44.666666666666664</ele><time>2026-05-03T11:16:40.407Z</time></trkpt><trkpt lat="41.4856187" lon="13.1302473"><ele>45.0</ele><time>2026-05-03T11:16:41.405Z</time></trkpt><trkpt lat="41.4855667" lon="13.1300159"><ele>45.333333333333336</ele><time>2026-05-03T11:16:42.392Z</time></trkpt><trkpt lat="41.4855146" lon="13.1297823"><ele>45.66666666666667</ele><time>2026-05-03T11:16:43.404Z</time></trkpt><trkpt lat="41.4854582" lon="13.1295476"><ele>46.0</ele><time>2026-05-03T11:16:44.392Z</time></trkpt><trkpt lat="41.4853865" lon="13.1293074"><ele>46.66666666666667</ele><time>2026-05-03T11:16:45.41Z</time></trkpt><trkpt lat="41.4853051" lon="13.1290723"><ele>47.333333333333336</ele><time>2026-05-03T11:16:46.392Z</time></trkpt><trkpt lat="41.4852164" lon="13.1288382"><ele>48.0</ele><time>2026-05-03T11:16:47.392Z</time></trkpt><trkpt lat="41.485125" lon="13.1286151"><ele>48.0</ele><time>2026-05-03T11:16:48.398Z</time></trkpt><trkpt lat="41.4850302" lon="13.1283928"><ele>48.0</ele><time>2026-05-03T11:16:49.392Z</time></trkpt><trkpt lat="41.4849358" lon="13.1281802"><ele>48.0</ele><time>2026-05-03T11:16:50.404Z</time></trkpt><trkpt lat="41.484843" lon="13.1279748"><ele>48.0</ele><time>2026-05-03T11:16:51.393Z</time></trkpt><trkpt lat="41.4847539" lon="13.1277637"><ele>48.0</ele><time>2026-05-03T11:16:52.401Z</time></trkpt><trkpt lat="41.4846674" lon="13.1275492"><ele>48.0</ele><time>2026-05-03T11:16:53.402Z</time></trkpt><trkpt lat="41.4845872" lon="13.1273362"><ele>50.66666666666667</ele><time>2026-05-03T11:16:54.393Z</time></trkpt><trkpt lat="41.4845164" lon="13.1271217"><ele>53.333333333333336</ele><time>2026-05-03T11:16:55.399Z</time></trkpt><trkpt lat="41.4844546" lon="13.1269075"><ele>56.0</ele><time>2026-05-03T11:16:56.393Z</time></trkpt><trkpt lat="41.4843973" lon="13.1266937"><ele>54.0</ele><time>2026-05-03T11:16:57.402Z</time></trkpt><trkpt lat="41.484345" lon="13.1264767"><ele>52.0</ele><time>2026-05-03T11:16:58.392Z</time></trkpt><trkpt lat="41.4842952" lon="13.1262516"><ele>50.0</ele><time>2026-05-03T11:16:59.392Z</time></trkpt><trkpt lat="41.4842515" lon="13.1260223"><ele>50.0</ele><time>2026-05-03T11:17:00.405Z</time></trkpt><trkpt lat="41.4842147" lon="13.1257848"><ele>50.0</ele><time>2026-05-03T11:17:01.393Z</time></trkpt><trkpt lat="41.4841789" lon="13.1255453"><ele>50.0</ele><time>2026-05-03T11:17:02.393Z</time></trkpt><trkpt lat="41.4841408" lon="13.1253108"><ele>50.0</ele><time>2026-05-03T11:17:03.397Z</time></trkpt><trkpt lat="41.4840966" lon="13.1250729"><ele>50.0</ele><time>2026-05-03T11:17:04.401Z</time></trkpt><trkpt lat="41.4840503" lon="13.1248359"><ele>50.0</ele><time>2026-05-03T11:17:05.391Z</time></trkpt><trkpt lat="41.4840051" lon="13.124605"><ele>50.66666666666667</ele><time>2026-05-03T11:17:06.402Z</time></trkpt><trkpt lat="41.4839576" lon="13.1243745"><ele>51.33333333333333</ele><time>2026-05-03T11:17:07.393Z</time></trkpt><trkpt lat="41.4839149" lon="13.1241441"><ele>52.0</ele><time>2026-05-03T11:17:08.402Z</time></trkpt><trkpt lat="41.483877" lon="13.1239195"><ele>53.0</ele><time>2026-05-03T11:17:09.395Z</time></trkpt><trkpt lat="41.4838323" lon="13.1236983"><ele>54.0</ele><time>2026-05-03T11:17:10.388Z</time></trkpt><trkpt lat="41.4837818" lon="13.1234863"><ele>55.0</ele><time>2026-05-03T11:17:11.395Z</time></trkpt><trkpt lat="41.4837167" lon="13.12328"><ele>55.0</ele><time>2026-05-03T11:17:12.396Z</time></trkpt><trkpt lat="41.4836388" lon="13.1230746"><ele>55.0</ele><time>2026-05-03T11:17:13.395Z</time></trkpt><trkpt lat="41.4835572" lon="13.1228701"><ele>55.0</ele><time>2026-05-03T11:17:14.391Z</time></trkpt><trkpt lat="41.483475" lon="13.1226687"><ele>55.0</ele><time>2026-05-03T11:17:15.401Z</time></trkpt><trkpt lat="41.4833912" lon="13.122463"><ele>55.0</ele><time>2026-05-03T11:17:16.393Z</time></trkpt><trkpt lat="41.4833067" lon="13.1222519"><ele>55.0</ele><time>2026-05-03T11:17:17.391Z</time></trkpt><trkpt lat="41.4832244" lon="13.1220373"><ele>56.0</ele><time>2026-05-03T11:17:18.393Z</time></trkpt><trkpt lat="41.4831446" lon="13.1218185"><ele>57.0</ele><time>2026-05-03T11:17:19.402Z</time></trkpt><trkpt lat="41.4830681" lon="13.1215943"><ele>58.0</ele><time>2026-05-03T11:17:20.401Z</time></trkpt><trkpt lat="41.4829926" lon="13.1213732"><ele>58.0</ele><time>2026-05-03T11:17:21.405Z</time></trkpt><trkpt lat="41.4829192" lon="13.1211514"><ele>58.0</ele><time>2026-05-03T11:17:22.4Z</time></trkpt><trkpt lat="41.4828509" lon="13.1209284"><ele>58.0</ele><time>2026-05-03T11:17:23.401Z</time></trkpt><trkpt lat="41.4827931" lon="13.1207094"><ele>58.0</ele><time>2026-05-03T11:17:24.401Z</time></trkpt><trkpt lat="41.4827401" lon="13.1204941"><ele>58.0</ele><time>2026-05-03T11:17:25.393Z</time></trkpt><trkpt lat="41.4826765" lon="13.1202849"><ele>58.0</ele><time>2026-05-03T11:17:26.39Z</time></trkpt><trkpt lat="41.4826088" lon="13.1200792"><ele>58.33333333333333</ele><time>2026-05-03T11:17:27.393Z</time></trkpt><trkpt lat="41.4825291" lon="13.1198763"><ele>58.66666666666667</ele><time>2026-05-03T11:17:28.403Z</time></trkpt><trkpt lat="41.4824428" lon="13.1196684"><ele>59.0</ele><time>2026-05-03T11:17:29.397Z</time></trkpt><trkpt lat="41.4823541" lon="13.1194624"><ele>59.0</ele><time>2026-05-03T11:17:30.402Z</time></trkpt><trkpt lat="41.4822598" lon="13.1192538"><ele>59.0</ele><time>2026-05-03T11:17:31.401Z</time></trkpt><trkpt lat="41.4821573" lon="13.1190435"><ele>59.0</ele><time>2026-05-03T11:17:32.401Z</time></trkpt><trkpt lat="41.4820534" lon="13.1188299"><ele>58.333333333333336</ele><time>2026-05-03T11:17:33.395Z</time></trkpt><trkpt lat="41.4819452" lon="13.1186144"><ele>57.66666666666667</ele><time>2026-05-03T11:17:34.387Z</time></trkpt><trkpt lat="41.4818352" lon="13.1184011"><ele>57.0</ele><time>2026-05-03T11:17:35.396Z</time></trkpt><trkpt lat="41.4817251" lon="13.1181853"><ele>57.0</ele><time>2026-05-03T11:17:36.409Z</time></trkpt><trkpt lat="41.4816167" lon="13.1179707"><ele>57.0</ele><time>2026-05-03T11:17:37.403Z</time></trkpt><trkpt lat="41.4815081" lon="13.1177588"><ele>57.0</ele><time>2026-05-03T11:17:38.395Z</time></trkpt><trkpt lat="41.4813956" lon="13.1175487"><ele>57.33333333333333</ele><time>2026-05-03T11:17:39.395Z</time></trkpt><trkpt lat="41.4812792" lon="13.1173473"><ele>57.666666666666664</ele><time>2026-05-03T11:17:40.401Z</time></trkpt><trkpt lat="41.4811601" lon="13.1171538"><ele>58.0</ele><time>2026-05-03T11:17:41.407Z</time></trkpt><trkpt lat="41.481038" lon="13.1169571"><ele>57.0</ele><time>2026-05-03T11:17:42.388Z</time></trkpt><trkpt lat="41.4809071" lon="13.1167494"><ele>56.0</ele><time>2026-05-03T11:17:43.396Z</time></trkpt><trkpt lat="41.4807721" lon="13.1165451"><ele>55.0</ele><time>2026-05-03T11:17:44.402Z</time></trkpt><trkpt lat="41.480642" lon="13.116343"><ele>55.0</ele><time>2026-05-03T11:17:45.389Z</time></trkpt><trkpt lat="41.4805137" lon="13.1161466"><ele>55.0</ele><time>2026-05-03T11:17:46.396Z</time></trkpt><trkpt lat="41.4803891" lon="13.1159562"><ele>55.0</ele><time>2026-05-03T11:17:47.407Z</time></trkpt><trkpt lat="41.4802681" lon="13.1157687"><ele>54.0</ele><time>2026-05-03T11:17:48.393Z</time></trkpt><trkpt lat="41.4801431" lon="13.1155878"><ele>53.0</ele><time>2026-05-03T11:17:49.406Z</time></trkpt><trkpt lat="41.4800189" lon="13.1154056"><ele>52.0</ele><time>2026-05-03T11:17:50.396Z</time></trkpt><trkpt lat="41.4798955" lon="13.115221"><ele>52.0</ele><time>2026-05-03T11:17:51.393Z</time></trkpt><trkpt lat="41.4797728" lon="13.1150376"><ele>52.0</ele><time>2026-05-03T11:17:52.406Z</time></trkpt><trkpt lat="41.4796515" lon="13.1148514"><ele>52.0</ele><time>2026-05-03T11:17:53.409Z</time></trkpt><trkpt lat="41.4795303" lon="13.1146574"><ele>52.33333333333333</ele><time>2026-05-03T11:17:54.41Z</time></trkpt><trkpt lat="41.4794126" lon="13.1144625"><ele>52.66666666666667</ele><time>2026-05-03T11:17:55.408Z</time></trkpt><trkpt lat="41.4793003" lon="13.1142633"><ele>53.0</ele><time>2026-05-03T11:17:56.407Z</time></trkpt><trkpt lat="41.4791961" lon="13.1140596"><ele>53.0</ele><time>2026-05-03T11:17:57.409Z</time></trkpt><trkpt lat="41.4790939" lon="13.1138548"><ele>53.0</ele><time>2026-05-03T11:17:58.393Z</time></trkpt><trkpt lat="41.4789865" lon="13.1136543"><ele>53.0</ele><time>2026-05-03T11:17:59.437Z</time></trkpt><trkpt lat="41.4788712" lon="13.1134552"><ele>51.66666666666667</ele><time>2026-05-03T11:18:00.402Z</time></trkpt><trkpt lat="41.4787504" lon="13.1132628"><ele>50.33333333333333</ele><time>2026-05-03T11:18:01.405Z</time></trkpt><trkpt lat="41.4786285" lon="13.1130705"><ele>49.0</ele><time>2026-05-03T11:18:02.407Z</time></trkpt><trkpt lat="41.4785043" lon="13.1128774"><ele>49.0</ele><time>2026-05-03T11:18:03.395Z</time></trkpt><trkpt lat="41.4783829" lon="13.1126872"><ele>49.0</ele><time>2026-05-03T11:18:04.406Z</time></trkpt><trkpt lat="41.4782618" lon="13.1124951"><ele>49.0</ele><time>2026-05-03T11:18:05.39Z</time></trkpt><trkpt lat="41.4781432" lon="13.1123073"><ele>49.0</ele><time>2026-05-03T11:18:06.393Z</time></trkpt><trkpt lat="41.4780247" lon="13.1121234"><ele>49.0</ele><time>2026-05-03T11:18:07.388Z</time></trkpt><trkpt lat="41.4779106" lon="13.1119442"><ele>49.0</ele><time>2026-05-03T11:18:08.391Z</time></trkpt><trkpt lat="41.4777964" lon="13.1117717"><ele>47.666666666666664</ele><time>2026-05-03T11:18:09.405Z</time></trkpt><trkpt lat="41.4776826" lon="13.1116043"><ele>46.33333333333333</ele><time>2026-05-03T11:18:10.4Z</time></trkpt><trkpt lat="41.4775646" lon="13.1114496"><ele>45.0</ele><time>2026-05-03T11:18:11.406Z</time></trkpt><trkpt lat="41.4774473" lon="13.1113073"><ele>45.0</ele><time>2026-05-03T11:18:12.398Z</time></trkpt><trkpt lat="41.4773345" lon="13.1111858"><ele>45.0</ele><time>2026-05-03T11:18:13.403Z</time></trkpt><trkpt lat="41.4772343" lon="13.1110796"><ele>45.0</ele><time>2026-05-03T11:18:14.393Z</time></trkpt><trkpt lat="41.4771434" lon="13.1109874"><ele>45.0</ele><time>2026-05-03T11:18:15.394Z</time></trkpt><trkpt lat="41.4770541" lon="13.1109014"><ele>44.6</ele><time>2026-05-03T11:18:16.418Z</time></trkpt><trkpt lat="41.476966" lon="13.1108185"><ele>44.2</ele><time>2026-05-03T11:18:17.398Z</time></trkpt><trkpt lat="41.4768857" lon="13.1107457"><ele>43.8</ele><time>2026-05-03T11:18:18.401Z</time></trkpt><trkpt lat="41.476799" lon="13.1106729"><ele>43.4</ele><time>2026-05-03T11:18:19.4Z</time></trkpt><trkpt lat="41.476711" lon="13.1105939"><ele>43.0</ele><time>2026-05-03T11:18:20.391Z</time></trkpt><trkpt lat="41.4766305" lon="13.1105227"><ele>42.833333333333336</ele><time>2026-05-03T11:18:21.392Z</time></trkpt><trkpt lat="41.4765608" lon="13.1104505"><ele>42.66666666666667</ele><time>2026-05-03T11:18:22.402Z</time></trkpt><trkpt lat="41.4764981" lon="13.1103832"><ele>42.5</ele><time>2026-05-03T11:18:23.399Z</time></trkpt><trkpt lat="41.4764345" lon="13.1103118"><ele>42.333333333333336</ele><time>2026-05-03T11:18:24.394Z</time></trkpt><trkpt lat="41.4763684" lon="13.1102418"><ele>42.166666666666664</ele><time>2026-05-03T11:18:25.395Z</time></trkpt><trkpt lat="41.4763036" lon="13.1101708"><ele>42.0</ele><time>2026-05-03T11:18:26.402Z</time></trkpt><trkpt lat="41.4762425" lon="13.1101018"><ele>41.333333333333336</ele><time>2026-05-03T11:18:27.397Z</time></trkpt><trkpt lat="41.4761764" lon="13.1100323"><ele>40.666666666666664</ele><time>2026-05-03T11:18:28.392Z</time></trkpt><trkpt lat="41.4761088" lon="13.1099631"><ele>40.0</ele><time>2026-05-03T11:18:29.404Z</time></trkpt><trkpt lat="41.476046" lon="13.1098959"><ele>39.33333333333333</ele><time>2026-05-03T11:18:30.39Z</time></trkpt><trkpt lat="41.4759859" lon="13.1098283"><ele>38.666666666666664</ele><time>2026-05-03T11:18:31.392Z</time></trkpt><trkpt lat="41.475926" lon="13.1097563"><ele>38.0</ele><time>2026-05-03T11:18:32.399Z</time></trkpt><trkpt lat="41.475868" lon="13.109684"><ele>38.0</ele><time>2026-05-03T11:18:33.399Z</time></trkpt><trkpt lat="41.4758083" lon="13.1096132"><ele>38.0</ele><time>2026-05-03T11:18:34.388Z</time></trkpt><trkpt lat="41.4757519" lon="13.1095427"><ele>38.0</ele><time>2026-05-03T11:18:35.401Z</time></trkpt><trkpt lat="41.4756898" lon="13.1094699"><ele>38.0</ele><time>2026-05-03T11:18:36.395Z</time></trkpt><trkpt lat="41.4756327" lon="13.1093946"><ele>38.0</ele><time>2026-05-03T11:18:37.407Z</time></trkpt><trkpt lat="41.475574" lon="13.1093243"><ele>38.0</ele><time>2026-05-03T11:18:38.393Z</time></trkpt><trkpt lat="41.4755161" lon="13.1092549"><ele>38.0</ele><time>2026-05-03T11:18:39.41Z</time></trkpt><trkpt lat="41.475458" lon="13.1091851"><ele>38.0</ele><time>2026-05-03T11:18:40.408Z</time></trkpt><trkpt lat="41.4753986" lon="13.1091172"><ele>38.0</ele><time>2026-05-03T11:18:41.403Z</time></trkpt><trkpt lat="41.4753468" lon="13.1090511"><ele>38.0</ele><time>2026-05-03T11:18:42.39Z</time></trkpt><trkpt lat="41.4752878" lon="13.1089828"><ele>38.0</ele><time>2026-05-03T11:18:43.393Z</time></trkpt><trkpt lat="41.4752143" lon="13.1088951"><ele>38.0</ele><time>2026-05-03T11:18:44.393Z</time></trkpt><trkpt lat="41.4751263" lon="13.1087901"><ele>36.75</ele><time>2026-05-03T11:18:45.391Z</time></trkpt><trkpt lat="41.4750324" lon="13.1086775"><ele>35.5</ele><time>2026-05-03T11:18:46.407Z</time></trkpt><trkpt lat="41.4749403" lon="13.1085731"><ele>34.25</ele><time>2026-05-03T11:18:47.402Z</time></trkpt><trkpt lat="41.4748439" lon="13.1084772"><ele>33.0</ele><time>2026-05-03T11:18:48.388Z</time></trkpt><trkpt lat="41.4747597" lon="13.1083837"><ele>33.0</ele><time>2026-05-03T11:18:49.4Z</time></trkpt><trkpt lat="41.4746797" lon="13.1083019"><ele>33.0</ele><time>2026-05-03T11:18:50.399Z</time></trkpt><trkpt lat="41.4746013" lon="13.1082318"><ele>33.0</ele><time>2026-05-03T11:18:51.4Z</time></trkpt><trkpt lat="41.4745226" lon="13.1081831"><ele>33.0</ele><time>2026-05-03T11:18:52.402Z</time></trkpt><trkpt lat="41.4744408" lon="13.1081577"><ele>33.0</ele><time>2026-05-03T11:18:53.395Z</time></trkpt><trkpt lat="41.474357" lon="13.1081506"><ele>31.799999999999997</ele><time>2026-05-03T11:18:54.391Z</time></trkpt><trkpt lat="41.4742685" lon="13.1081538"><ele>30.599999999999998</ele><time>2026-05-03T11:18:55.388Z</time></trkpt><trkpt lat="41.4741716" lon="13.1080903"><ele>29.400000000000002</ele><time>2026-05-03T11:18:56.396Z</time></trkpt><trkpt lat="41.4740768" lon="13.1080468"><ele>28.200000000000003</ele><time>2026-05-03T11:18:57.475Z</time></trkpt><trkpt lat="41.4739869" lon="13.1079975"><ele>27.0</ele><time>2026-05-03T11:18:58.391Z</time></trkpt><trkpt lat="41.4738962" lon="13.1079493"><ele>27.0</ele><time>2026-05-03T11:18:59.394Z</time></trkpt><trkpt lat="41.473801" lon="13.1079042"><ele>27.000000000000004</ele><time>2026-05-03T11:19:00.393Z</time></trkpt><trkpt lat="41.4737062" lon="13.107857"><ele>27.000000000000004</ele><time>2026-05-03T11:19:01.384Z</time></trkpt><trkpt lat="41.4736102" lon="13.1078138"><ele>27.0</ele><time>2026-05-03T11:19:02.392Z</time></trkpt><trkpt lat="41.4735082" lon="13.1077729"><ele>27.0</ele><time>2026-05-03T11:19:03.391Z</time></trkpt><trkpt lat="41.473405" lon="13.1077339"><ele>26.6</ele><time>2026-05-03T11:19:04.39Z</time></trkpt><trkpt lat="41.4733035" lon="13.1076868"><ele>26.200000000000003</ele><time>2026-05-03T11:19:05.391Z</time></trkpt><trkpt lat="41.4731957" lon="13.1076435"><ele>25.8</ele><time>2026-05-03T11:19:06.392Z</time></trkpt><trkpt lat="41.4730886" lon="13.1075976"><ele>25.4</ele><time>2026-05-03T11:19:07.399Z</time></trkpt><trkpt lat="41.4729804" lon="13.1075564"><ele>25.0</ele><time>2026-05-03T11:19:08.392Z</time></trkpt><trkpt lat="41.4728742" lon="13.1075115"><ele>23.8</ele><time>2026-05-03T11:19:09.398Z</time></trkpt><trkpt lat="41.4727685" lon="13.1074621"><ele>22.6</ele><time>2026-05-03T11:19:10.387Z</time></trkpt><trkpt lat="41.4726661" lon="13.1074171"><ele>21.4</ele><time>2026-05-03T11:19:11.4Z</time></trkpt><trkpt lat="41.4725728" lon="13.1073746"><ele>20.2</ele><time>2026-05-03T11:19:12.392Z</time></trkpt><trkpt lat="41.4724787" lon="13.1073322"><ele>19.0</ele><time>2026-05-03T11:19:13.391Z</time></trkpt><trkpt lat="41.4723813" lon="13.1072897"><ele>18.0</ele><time>2026-05-03T11:19:14.403Z</time></trkpt><trkpt lat="41.4722875" lon="13.1072473"><ele>17.0</ele><time>2026-05-03T11:19:15.406Z</time></trkpt><trkpt lat="41.4721968" lon="13.1072032"><ele>15.999999999999998</ele><time>2026-05-03T11:19:16.411Z</time></trkpt><trkpt lat="41.4721078" lon="13.1071671"><ele>15.0</ele><time>2026-05-03T11:19:17.403Z</time></trkpt><trkpt lat="41.4720263" lon="13.1071287"><ele>14.0</ele><time>2026-05-03T11:19:18.396Z</time></trkpt><trkpt lat="41.4719507" lon="13.1070902"><ele>14.0</ele><time>2026-05-03T11:19:19.393Z</time></trkpt><trkpt lat="41.4718772" lon="13.1070618"><ele>14.0</ele><time>2026-05-03T11:19:20.388Z</time></trkpt><trkpt lat="41.4718102" lon="13.1070257"><ele>14.0</ele><time>2026-05-03T11:19:21.411Z</time></trkpt><trkpt lat="41.4717446" lon="13.1069901"><ele>14.0</ele><time>2026-05-03T11:19:22.39Z</time></trkpt><trkpt lat="41.4716857" lon="13.1069507"><ele>14.0</ele><time>2026-05-03T11:19:23.396Z</time></trkpt><trkpt lat="41.4716184" lon="13.1069032"><ele>14.0</ele><time>2026-05-03T11:19:24.394Z</time></trkpt><trkpt lat="41.4715619" lon="13.1068448"><ele>14.0</ele><time>2026-05-03T11:19:25.403Z</time></trkpt><trkpt lat="41.4714984" lon="13.1067883"><ele>14.0</ele><time>2026-05-03T11:19:26.386Z</time></trkpt><trkpt lat="41.4714224" lon="13.1067428"><ele>13.999999999999998</ele><time>2026-05-03T11:19:27.403Z</time></trkpt><trkpt lat="41.4713258" lon="13.1067188"><ele>13.999999999999998</ele><time>2026-05-03T11:19:28.391Z</time></trkpt><trkpt lat="41.4712198" lon="13.1067055"><ele>14.0</ele><time>2026-05-03T11:19:29.392Z</time></trkpt><trkpt lat="41.4711004" lon="13.1066715"><ele>14.0</ele><time>2026-05-03T11:19:30.39Z</time></trkpt><trkpt lat="41.4709717" lon="13.106613"><ele>13.666666666666668</ele><time>2026-05-03T11:19:31.396Z</time></trkpt><trkpt lat="41.4708376" lon="13.1065253"><ele>13.333333333333332</ele><time>2026-05-03T11:19:32.406Z</time></trkpt><trkpt lat="41.4706974" lon="13.1064117"><ele>13.0</ele><time>2026-05-03T11:19:33.4Z</time></trkpt><trkpt lat="41.4705544" lon="13.106274"><ele>13.333333333333332</ele><time>2026-05-03T11:19:34.395Z</time></trkpt><trkpt lat="41.4704107" lon="13.1061141"><ele>13.666666666666668</ele><time>2026-05-03T11:19:35.408Z</time></trkpt><trkpt lat="41.4702644" lon="13.1059426"><ele>14.0</ele><time>2026-05-03T11:19:36.403Z</time></trkpt><trkpt lat="41.4701072" lon="13.1057648"><ele>13.0</ele><time>2026-05-03T11:19:37.401Z</time></trkpt><trkpt lat="41.4699262" lon="13.1055841"><ele>12.0</ele><time>2026-05-03T11:19:38.405Z</time></trkpt><trkpt lat="41.4697255" lon="13.1053968"><ele>12.0</ele><time>2026-05-03T11:19:39.4Z</time></trkpt><trkpt lat="41.4695125" lon="13.1052127"><ele>12.0</ele><time>2026-05-03T11:19:40.394Z</time></trkpt><trkpt lat="41.4692944" lon="13.1050292"><ele>12.5</ele><time>2026-05-03T11:19:41.404Z</time></trkpt><trkpt lat="41.46908" lon="13.104847"><ele>13.0</ele><time>2026-05-03T11:19:42.395Z</time></trkpt><trkpt lat="41.4688608" lon="13.1046556"><ele>12.5</ele><time>2026-05-03T11:19:43.395Z</time></trkpt><trkpt lat="41.468643" lon="13.1044578"><ele>12.0</ele><time>2026-05-03T11:19:44.393Z</time></trkpt><trkpt lat="41.4684195" lon="13.1042634"><ele>10.5</ele><time>2026-05-03T11:19:45.398Z</time></trkpt><trkpt lat="41.468203" lon="13.1040719"><ele>9.0</ele><time>2026-05-03T11:19:46.395Z</time></trkpt><trkpt lat="41.467996" lon="13.1038913"><ele>9.5</ele><time>2026-05-03T11:19:47.39Z</time></trkpt><trkpt lat="41.4677905" lon="13.1037247"><ele>10.0</ele><time>2026-05-03T11:19:48.398Z</time></trkpt><trkpt lat="41.4675812" lon="13.1035699"><ele>10.0</ele><time>2026-05-03T11:19:49.393Z</time></trkpt><trkpt lat="41.4673746" lon="13.103425"><ele>10.0</ele><time>2026-05-03T11:19:50.394Z</time></trkpt><trkpt lat="41.4671625" lon="13.1032859"><ele>9.333333333333334</ele><time>2026-05-03T11:19:51.404Z</time></trkpt><trkpt lat="41.4669601" lon="13.1031492"><ele>8.666666666666666</ele><time>2026-05-03T11:19:52.392Z</time></trkpt><trkpt lat="41.4667688" lon="13.1030104"><ele>8.0</ele><time>2026-05-03T11:19:53.396Z</time></trkpt><trkpt lat="41.4665626" lon="13.1028511"><ele>8.0</ele><time>2026-05-03T11:19:54.395Z</time></trkpt><trkpt lat="41.466357" lon="13.1026627"><ele>8.0</ele><time>2026-05-03T11:19:55.392Z</time></trkpt><trkpt lat="41.4661515" lon="13.1024434"><ele>7.5</ele><time>2026-05-03T11:19:56.389Z</time></trkpt><trkpt lat="41.4659367" lon="13.1022013"><ele>7.0</ele><time>2026-05-03T11:19:57.393Z</time></trkpt><trkpt lat="41.4657149" lon="13.1019482"><ele>7.0</ele><time>2026-05-03T11:19:58.394Z</time></trkpt><trkpt lat="41.4655074" lon="13.1017106"><ele>7.0</ele><time>2026-05-03T11:19:59.401Z</time></trkpt><trkpt lat="41.4653069" lon="13.1014776"><ele>6.5</ele><time>2026-05-03T11:20:00.395Z</time></trkpt><trkpt lat="41.4651123" lon="13.1012553"><ele>6.0</ele><time>2026-05-03T11:20:01.4Z</time></trkpt><trkpt lat="41.4649181" lon="13.1010374"><ele>6.0</ele><time>2026-05-03T11:20:02.393Z</time></trkpt><trkpt lat="41.4647258" lon="13.1008209"><ele>6.0</ele><time>2026-05-03T11:20:03.4Z</time></trkpt><trkpt lat="41.4645356" lon="13.1006047"><ele>5.5</ele><time>2026-05-03T11:20:04.4Z</time></trkpt><trkpt lat="41.464348" lon="13.1003884"><ele>5.0</ele><time>2026-05-03T11:20:05.391Z</time></trkpt><trkpt lat="41.4641618" lon="13.1001726"><ele>5.0</ele><time>2026-05-03T11:20:06.395Z</time></trkpt><trkpt lat="41.4639781" lon="13.0999605"><ele>5.0</ele><time>2026-05-03T11:20:07.394Z</time></trkpt><trkpt lat="41.4637924" lon="13.0997414"><ele>5.0</ele><time>2026-05-03T11:20:08.394Z</time></trkpt><trkpt lat="41.4636098" lon="13.0995206"><ele>5.0</ele><time>2026-05-03T11:20:09.396Z</time></trkpt><trkpt lat="41.4634324" lon="13.0993074"><ele>5.0</ele><time>2026-05-03T11:20:10.392Z</time></trkpt><trkpt lat="41.46327" lon="13.0991184"><ele>5.0</ele><time>2026-05-03T11:20:11.391Z</time></trkpt><trkpt lat="41.4631289" lon="13.0989502"><ele>5.0</ele><time>2026-05-03T11:20:12.396Z</time></trkpt><trkpt lat="41.4630058" lon="13.0987958"><ele>4.5</ele><time>2026-05-03T11:20:13.395Z</time></trkpt><trkpt lat="41.4628894" lon="13.0986674"><ele>4.0</ele><time>2026-05-03T11:20:14.427Z</time></trkpt><trkpt lat="41.4627656" lon="13.0985564"><ele>3.5</ele><time>2026-05-03T11:20:15.396Z</time></trkpt><trkpt lat="41.4626436" lon="13.098465"><ele>3.0</ele><time>2026-05-03T11:20:16.395Z</time></trkpt><trkpt lat="41.4625104" lon="13.0983829"><ele>3.0</ele><time>2026-05-03T11:20:17.393Z</time></trkpt><trkpt lat="41.4623729" lon="13.0983"><ele>3.0</ele><time>2026-05-03T11:20:18.401Z</time></trkpt><trkpt lat="41.4622349" lon="13.0982011"><ele>3.0</ele><time>2026-05-03T11:20:19.401Z</time></trkpt><trkpt lat="41.4620944" lon="13.0980713"><ele>2.0</ele><time>2026-05-03T11:20:20.402Z</time></trkpt><trkpt lat="41.4619446" lon="13.097906"><ele>1.0</ele><time>2026-05-03T11:20:21.401Z</time></trkpt><trkpt lat="41.4617856" lon="13.0977055"><ele>0.0</ele><time>2026-05-03T11:20:22.401Z</time></trkpt><trkpt lat="41.4616113" lon="13.0974722"><ele>0.5</ele><time>2026-05-03T11:20:23.391Z</time></trkpt><trkpt lat="41.4614302" lon="13.097218"><ele>1.0</ele><time>2026-05-03T11:20:24.408Z</time></trkpt><trkpt lat="41.4612419" lon="13.0969573"><ele>0.0</ele><time>2026-05-03T11:20:25.393Z</time></trkpt><trkpt lat="41.4610554" lon="13.0966912"><ele>-1.0</ele><time>2026-05-03T11:20:26.399Z</time></trkpt><trkpt lat="41.4608669" lon="13.0964286"><ele>-2.0</ele><time>2026-05-03T11:20:27.498Z</time></trkpt><trkpt lat="41.4604912" lon="13.0959091"><ele>-2.0</ele><time>2026-05-03T11:20:29.405Z</time></trkpt><trkpt lat="41.4603105" lon="13.0956552"><ele>-2.0</ele><time>2026-05-03T11:20:30.392Z</time></trkpt><trkpt lat="41.4601302" lon="13.0954048"><ele>-2.0</ele><time>2026-05-03T11:20:31.39Z</time></trkpt><trkpt lat="41.4599489" lon="13.0951558"><ele>-2.0</ele><time>2026-05-03T11:20:32.394Z</time></trkpt><trkpt lat="41.4597616" lon="13.0948999"><ele>-1.5</ele><time>2026-05-03T11:20:33.392Z</time></trkpt><trkpt lat="41.4595717" lon="13.0946364"><ele>-1.0</ele><time>2026-05-03T11:20:34.398Z</time></trkpt><trkpt lat="41.4593743" lon="13.0943684"><ele>-1.0</ele><time>2026-05-03T11:20:35.404Z</time></trkpt><trkpt lat="41.4591786" lon="13.0940991"><ele>-1.0</ele><time>2026-05-03T11:20:36.396Z</time></trkpt><trkpt lat="41.458984" lon="13.0938252"><ele>-0.5</ele><time>2026-05-03T11:20:37.398Z</time></trkpt><trkpt lat="41.4587875" lon="13.0935518"><ele>0.0</ele><time>2026-05-03T11:20:38.389Z</time></trkpt><trkpt lat="41.4585919" lon="13.0932812"><ele>-0.5</ele><time>2026-05-03T11:20:39.394Z</time></trkpt><trkpt lat="41.4583935" lon="13.0930151"><ele>-1.0</ele><time>2026-05-03T11:20:40.388Z</time></trkpt><trkpt lat="41.458201" lon="13.0927458"><ele>-1.0</ele><time>2026-05-03T11:20:41.385Z</time></trkpt><trkpt lat="41.4580073" lon="13.0924737"><ele>-1.0</ele><time>2026-05-03T11:20:42.397Z</time></trkpt><trkpt lat="41.4578118" lon="13.0922057"><ele>-0.5</ele><time>2026-05-03T11:20:43.396Z</time></trkpt><trkpt lat="41.4576166" lon="13.0919356"><ele>0.0</ele><time>2026-05-03T11:20:44.408Z</time></trkpt><trkpt lat="41.4574213" lon="13.091663"><ele>0.0</ele><time>2026-05-03T11:20:45.394Z</time></trkpt><trkpt lat="41.4572254" lon="13.0913921"><ele>0.0</ele><time>2026-05-03T11:20:46.399Z</time></trkpt><trkpt lat="41.45703" lon="13.0911162"><ele>0.0</ele><time>2026-05-03T11:20:47.402Z</time></trkpt><trkpt lat="41.4568349" lon="13.0908477"><ele>0.0</ele><time>2026-05-03T11:20:48.393Z</time></trkpt><trkpt lat="41.456645" lon="13.0905838"><ele>-0.5</ele><time>2026-05-03T11:20:49.4Z</time></trkpt><trkpt lat="41.4564589" lon="13.0903267"><ele>-1.0</ele><time>2026-05-03T11:20:50.391Z</time></trkpt><trkpt lat="41.4562901" lon="13.0900923"><ele>-1.0</ele><time>2026-05-03T11:20:51.407Z</time></trkpt><trkpt lat="41.4561284" lon="13.0898645"><ele>-1.0</ele><time>2026-05-03T11:20:52.407Z</time></trkpt><trkpt lat="41.4559632" lon="13.0896351"><ele>-1.0</ele><time>2026-05-03T11:20:53.408Z</time></trkpt><trkpt lat="41.4557983" lon="13.089409"><ele>-1.0</ele><time>2026-05-03T11:20:54.406Z</time></trkpt><trkpt lat="41.455636" lon="13.0891827"><ele>-1.5</ele><time>2026-05-03T11:20:55.389Z</time></trkpt><trkpt lat="41.4554666" lon="13.0889521"><ele>-2.0</ele><time>2026-05-03T11:20:56.394Z</time></trkpt><trkpt lat="41.4552928" lon="13.0887115"><ele>-2.0</ele><time>2026-05-03T11:20:57.393Z</time></trkpt><trkpt lat="41.4551119" lon="13.0884644"><ele>-2.0</ele><time>2026-05-03T11:20:58.394Z</time></trkpt><trkpt lat="41.4549314" lon="13.0882139"><ele>-1.0</ele><time>2026-05-03T11:20:59.392Z</time></trkpt><trkpt lat="41.454747" lon="13.0879589"><ele>0.0</ele><time>2026-05-03T11:21:00.394Z</time></trkpt><trkpt lat="41.45456" lon="13.0876987"><ele>0.0</ele><time>2026-05-03T11:21:01.391Z</time></trkpt><trkpt lat="41.4543677" lon="13.087429"><ele>0.0</ele><time>2026-05-03T11:21:02.396Z</time></trkpt><trkpt lat="41.4541774" lon="13.087157"><ele>0.5</ele><time>2026-05-03T11:21:03.396Z</time></trkpt><trkpt lat="41.4539871" lon="13.0868894"><ele>1.0</ele><time>2026-05-03T11:21:04.393Z</time></trkpt><trkpt lat="41.4537922" lon="13.0866213"><ele>0.0</ele><time>2026-05-03T11:21:05.402Z</time></trkpt><trkpt lat="41.4535973" lon="13.0863544"><ele>-1.0</ele><time>2026-05-03T11:21:06.396Z</time></trkpt><trkpt lat="41.4534034" lon="13.0860861"><ele>-1.0</ele><time>2026-05-03T11:21:07.394Z</time></trkpt><trkpt lat="41.4532099" lon="13.085816"><ele>-1.0</ele><time>2026-05-03T11:21:08.399Z</time></trkpt><trkpt lat="41.4530176" lon="13.085549"><ele>-1.5</ele><time>2026-05-03T11:21:09.393Z</time></trkpt><trkpt lat="41.4528193" lon="13.0852806"><ele>-2.0</ele><time>2026-05-03T11:21:10.398Z</time></trkpt><trkpt lat="41.4526214" lon="13.0850033"><ele>-1.0</ele><time>2026-05-03T11:21:11.391Z</time></trkpt><trkpt lat="41.452416" lon="13.0847141"><ele>0.0</ele><time>2026-05-03T11:21:12.393Z</time></trkpt><trkpt lat="41.4522029" lon="13.084415"><ele>0.0</ele><time>2026-05-03T11:21:13.392Z</time></trkpt><trkpt lat="41.4519788" lon="13.0841043"><ele>0.0</ele><time>2026-05-03T11:21:14.392Z</time></trkpt><trkpt lat="41.4517508" lon="13.0837895"><ele>0.0</ele><time>2026-05-03T11:21:15.398Z</time></trkpt><trkpt lat="41.4515318" lon="13.0834843"><ele>0.0</ele><time>2026-05-03T11:21:16.385Z</time></trkpt><trkpt lat="41.4513226" lon="13.0831892"><ele>0.0</ele><time>2026-05-03T11:21:17.397Z</time></trkpt><trkpt lat="41.4511331" lon="13.0829215"><ele>0.0</ele><time>2026-05-03T11:21:18.39Z</time></trkpt><trkpt lat="41.4509561" lon="13.0826692"><ele>0.5</ele><time>2026-05-03T11:21:19.392Z</time></trkpt><trkpt lat="41.450781" lon="13.0824176"><ele>1.0</ele><time>2026-05-03T11:21:20.402Z</time></trkpt><trkpt lat="41.450597" lon="13.0821616"><ele>0.0</ele><time>2026-05-03T11:21:21.394Z</time></trkpt><trkpt lat="41.4504005" lon="13.0818936"><ele>-1.0</ele><time>2026-05-03T11:21:22.387Z</time></trkpt><trkpt lat="41.4501959" lon="13.081613"><ele>-1.0</ele><time>2026-05-03T11:21:23.393Z</time></trkpt><trkpt lat="41.4499902" lon="13.0813237"><ele>-1.0</ele><time>2026-05-03T11:21:24.393Z</time></trkpt><trkpt lat="41.4497801" lon="13.0810301"><ele>-2.0</ele><time>2026-05-03T11:21:25.404Z</time></trkpt><trkpt lat="41.4495715" lon="13.0807364"><ele>-3.0</ele><time>2026-05-03T11:21:26.4Z</time></trkpt><trkpt lat="41.4493629" lon="13.0804467"><ele>-3.0</ele><time>2026-05-03T11:21:27.393Z</time></trkpt><trkpt lat="41.449158" lon="13.0801624"><ele>-3.0</ele><time>2026-05-03T11:21:28.398Z</time></trkpt><trkpt lat="41.4489566" lon="13.0798855"><ele>-1.5</ele><time>2026-05-03T11:21:29.405Z</time></trkpt><trkpt lat="41.4487628" lon="13.0796131"><ele>0.0</ele><time>2026-05-03T11:21:30.401Z</time></trkpt><trkpt lat="41.4485695" lon="13.0793466"><ele>0.0</ele><time>2026-05-03T11:21:31.403Z</time></trkpt><trkpt lat="41.4483806" lon="13.0790863"><ele>0.0</ele><time>2026-05-03T11:21:32.398Z</time></trkpt><trkpt lat="41.448195" lon="13.0788306"><ele>0.0</ele><time>2026-05-03T11:21:33.389Z</time></trkpt><trkpt lat="41.4480066" lon="13.0785721"><ele>0.0</ele><time>2026-05-03T11:21:34.391Z</time></trkpt><trkpt lat="41.4478258" lon="13.0783146"><ele>0.5</ele><time>2026-05-03T11:21:35.392Z</time></trkpt><trkpt lat="41.4476421" lon="13.0780606"><ele>1.0</ele><time>2026-05-03T11:21:36.401Z</time></trkpt><trkpt lat="41.4474594" lon="13.0778089"><ele>1.0</ele><time>2026-05-03T11:21:37.406Z</time></trkpt><trkpt lat="41.4472729" lon="13.0775539"><ele>1.0</ele><time>2026-05-03T11:21:38.399Z</time></trkpt><trkpt lat="41.4470889" lon="13.0772941"><ele>1.5</ele><time>2026-05-03T11:21:39.401Z</time></trkpt><trkpt lat="41.4469035" lon="13.0770364"><ele>2.0</ele><time>2026-05-03T11:21:40.396Z</time></trkpt><trkpt lat="41.4467213" lon="13.0767846"><ele>2.5</ele><time>2026-05-03T11:21:41.399Z</time></trkpt><trkpt lat="41.4465398" lon="13.0765331"><ele>3.0</ele><time>2026-05-03T11:21:42.401Z</time></trkpt><trkpt lat="41.4463632" lon="13.0762856"><ele>3.0</ele><time>2026-05-03T11:21:43.393Z</time></trkpt><trkpt lat="41.4461872" lon="13.0760402"><ele>3.0</ele><time>2026-05-03T11:21:44.394Z</time></trkpt><trkpt lat="41.4460128" lon="13.0757975"><ele>3.0</ele><time>2026-05-03T11:21:45.409Z</time></trkpt><trkpt lat="41.4458376" lon="13.0755611"><ele>3.0</ele><time>2026-05-03T11:21:46.408Z</time></trkpt><trkpt lat="41.4456622" lon="13.0753246"><ele>3.0</ele><time>2026-05-03T11:21:47.402Z</time></trkpt><trkpt lat="41.4454919" lon="13.0750871"><ele>3.0</ele><time>2026-05-03T11:21:48.405Z</time></trkpt><trkpt lat="41.4453224" lon="13.0748534"><ele>2.0</ele><time>2026-05-03T11:21:49.406Z</time></trkpt><trkpt lat="41.4451586" lon="13.0746214"><ele>1.0</ele><time>2026-05-03T11:21:50.403Z</time></trkpt><trkpt lat="41.4449937" lon="13.0743934"><ele>1.0</ele><time>2026-05-03T11:21:51.389Z</time></trkpt><trkpt lat="41.444831" lon="13.0741673"><ele>1.0</ele><time>2026-05-03T11:21:52.394Z</time></trkpt><trkpt lat="41.4446743" lon="13.0739468"><ele>1.3333333333333333</ele><time>2026-05-03T11:21:53.396Z</time></trkpt><trkpt lat="41.4445147" lon="13.0737318"><ele>1.6666666666666665</ele><time>2026-05-03T11:21:54.393Z</time></trkpt><trkpt lat="41.444363" lon="13.0735152"><ele>2.0</ele><time>2026-05-03T11:21:55.394Z</time></trkpt><trkpt lat="41.4442082" lon="13.0732969"><ele>2.0</ele><time>2026-05-03T11:21:56.402Z</time></trkpt><trkpt lat="41.4440519" lon="13.0730811"><ele>2.0</ele><time>2026-05-03T11:21:57.399Z</time></trkpt><trkpt lat="41.443898" lon="13.0728703"><ele>2.0</ele><time>2026-05-03T11:21:58.386Z</time></trkpt><trkpt lat="41.4437504" lon="13.072662"><ele>2.0</ele><time>2026-05-03T11:21:59.393Z</time></trkpt><trkpt lat="41.4436002" lon="13.0724564"><ele>2.0</ele><time>2026-05-03T11:22:00.391Z</time></trkpt><trkpt lat="41.4434539" lon="13.0722559"><ele>2.0</ele><time>2026-05-03T11:22:01.395Z</time></trkpt><trkpt lat="41.4433187" lon="13.0720639"><ele>2.0</ele><time>2026-05-03T11:22:02.407Z</time></trkpt><trkpt lat="41.4431849" lon="13.0718836"><ele>2.0</ele><time>2026-05-03T11:22:03.406Z</time></trkpt><trkpt lat="41.4430554" lon="13.0717019"><ele>2.0</ele><time>2026-05-03T11:22:04.413Z</time></trkpt><trkpt lat="41.4429263" lon="13.0715189"><ele>2.0</ele><time>2026-05-03T11:22:05.393Z</time></trkpt><trkpt lat="41.4427938" lon="13.071335"><ele>2.0</ele><time>2026-05-03T11:22:06.403Z</time></trkpt><trkpt lat="41.4426631" lon="13.0711518"><ele>2.0</ele><time>2026-05-03T11:22:07.399Z</time></trkpt><trkpt lat="41.4425317" lon="13.070966"><ele>2.0</ele><time>2026-05-03T11:22:08.397Z</time></trkpt><trkpt lat="41.4423962" lon="13.0707773"><ele>2.0</ele><time>2026-05-03T11:22:09.396Z</time></trkpt><trkpt lat="41.4422675" lon="13.0705972"><ele>2.0</ele><time>2026-05-03T11:22:10.387Z</time></trkpt><trkpt lat="41.4421498" lon="13.0704296"><ele>2.0</ele><time>2026-05-03T11:22:11.4Z</time></trkpt><trkpt lat="41.442035" lon="13.0702672"><ele>2.0</ele><time>2026-05-03T11:22:12.396Z</time></trkpt><trkpt lat="41.4419224" lon="13.0701113"><ele>2.0</ele><time>2026-05-03T11:22:13.395Z</time></trkpt><trkpt lat="41.441813" lon="13.0699641"><ele>2.6666666666666665</ele><time>2026-05-03T11:22:14.393Z</time></trkpt><trkpt lat="41.4417062" lon="13.0698144"><ele>3.333333333333333</ele><time>2026-05-03T11:22:15.4Z</time></trkpt><trkpt lat="41.4415987" lon="13.0696612"><ele>4.0</ele><time>2026-05-03T11:22:16.395Z</time></trkpt><trkpt lat="41.4414855" lon="13.0695075"><ele>4.0</ele><time>2026-05-03T11:22:17.402Z</time></trkpt><trkpt lat="41.4413701" lon="13.0693521"><ele>4.0</ele><time>2026-05-03T11:22:18.401Z</time></trkpt><trkpt lat="41.4412537" lon="13.0691889"><ele>4.0</ele><time>2026-05-03T11:22:19.396Z</time></trkpt><trkpt lat="41.4411338" lon="13.0690238"><ele>3.333333333333333</ele><time>2026-05-03T11:22:20.403Z</time></trkpt><trkpt lat="41.4410132" lon="13.0688583"><ele>2.6666666666666665</ele><time>2026-05-03T11:22:21.404Z</time></trkpt><trkpt lat="41.4408914" lon="13.0686929"><ele>2.0</ele><time>2026-05-03T11:22:22.393Z</time></trkpt><trkpt lat="41.4407708" lon="13.0685257"><ele>2.0</ele><time>2026-05-03T11:22:23.407Z</time></trkpt><trkpt lat="41.4406614" lon="13.0683732"><ele>2.0</ele><time>2026-05-03T11:22:24.391Z</time></trkpt><trkpt lat="41.4405556" lon="13.0682261"><ele>2.0</ele><time>2026-05-03T11:22:25.394Z</time></trkpt><trkpt lat="41.4404495" lon="13.0680864"><ele>2.25</ele><time>2026-05-03T11:22:26.394Z</time></trkpt><trkpt lat="41.4403451" lon="13.0679439"><ele>2.5</ele><time>2026-05-03T11:22:27.402Z</time></trkpt><trkpt lat="41.4402497" lon="13.0678076"><ele>2.75</ele><time>2026-05-03T11:22:28.388Z</time></trkpt><trkpt lat="41.4401586" lon="13.0676809"><ele>3.0</ele><time>2026-05-03T11:22:29.388Z</time></trkpt><trkpt lat="41.4400784" lon="13.0675683"><ele>3.0</ele><time>2026-05-03T11:22:30.39Z</time></trkpt><trkpt lat="41.4400135" lon="13.0674749"><ele>3.0</ele><time>2026-05-03T11:22:31.386Z</time></trkpt><trkpt lat="41.439969" lon="13.0673975"><ele>3.0</ele><time>2026-05-03T11:22:32.39Z</time></trkpt><trkpt lat="41.4399558" lon="13.0672348"><ele>3.0</ele><time>2026-05-03T11:22:34.39Z</time></trkpt><trkpt lat="41.4399862" lon="13.0671277"><ele>3.0</ele><time>2026-05-03T11:22:35.389Z</time></trkpt><trkpt lat="41.4400484" lon="13.0670106"><ele>3.0</ele><time>2026-05-03T11:22:36.389Z</time></trkpt><trkpt lat="41.4401388" lon="13.0668784"><ele>3.0</ele><time>2026-05-03T11:22:37.395Z</time></trkpt><trkpt lat="41.4402572" lon="13.0667138"><ele>3.0</ele><time>2026-05-03T11:22:38.389Z</time></trkpt><trkpt lat="41.4403922" lon="13.0665166"><ele>3.0</ele><time>2026-05-03T11:22:39.388Z</time></trkpt><trkpt lat="41.4405494" lon="13.0662829"><ele>3.0</ele><time>2026-05-03T11:22:40.403Z</time></trkpt><trkpt lat="41.4407273" lon="13.0660137"><ele>2.5</ele><time>2026-05-03T11:22:41.392Z</time></trkpt><trkpt lat="41.4409289" lon="13.0657039"><ele>2.0</ele><time>2026-05-03T11:22:42.393Z</time></trkpt><trkpt lat="41.4411542" lon="13.065359"><ele>1.5</ele><time>2026-05-03T11:22:43.393Z</time></trkpt><trkpt lat="41.4413921" lon="13.0649992"><ele>1.0</ele><time>2026-05-03T11:22:44.394Z</time></trkpt><trkpt lat="41.4416148" lon="13.0646594"><ele>1.0</ele><time>2026-05-03T11:22:45.387Z</time></trkpt><trkpt lat="41.4418152" lon="13.0643526"><ele>1.0</ele><time>2026-05-03T11:22:46.387Z</time></trkpt><trkpt lat="41.4419968" lon="13.0640753"><ele>1.5</ele><time>2026-05-03T11:22:47.417Z</time></trkpt><trkpt lat="41.4421733" lon="13.0638141"><ele>2.0</ele><time>2026-05-03T11:22:48.392Z</time></trkpt><trkpt lat="41.442363" lon="13.0635277"><ele>2.5</ele><time>2026-05-03T11:22:49.394Z</time></trkpt><trkpt lat="41.4425701" lon="13.0632101"><ele>3.0</ele><time>2026-05-03T11:22:50.39Z</time></trkpt><trkpt lat="41.4427927" lon="13.0628666"><ele>3.0</ele><time>2026-05-03T11:22:51.392Z</time></trkpt><trkpt lat="41.4430216" lon="13.0625126"><ele>3.0</ele><time>2026-05-03T11:22:52.395Z</time></trkpt><trkpt lat="41.4432488" lon="13.0621575"><ele>3.0</ele><time>2026-05-03T11:22:53.401Z</time></trkpt><trkpt lat="41.4434644" lon="13.061826"><ele>3.0</ele><time>2026-05-03T11:22:54.392Z</time></trkpt><trkpt lat="41.4436587" lon="13.0615252"><ele>3.0</ele><time>2026-05-03T11:22:55.386Z</time></trkpt><trkpt lat="41.4438463" lon="13.0612377"><ele>3.0</ele><time>2026-05-03T11:22:56.404Z</time></trkpt><trkpt lat="41.4440316" lon="13.0609585"><ele>3.0</ele><time>2026-05-03T11:22:57.407Z</time></trkpt><trkpt lat="41.4442089" lon="13.0606899"><ele>3.0</ele><time>2026-05-03T11:22:58.393Z</time></trkpt><trkpt lat="41.4443781" lon="13.0604396"><ele>3.0</ele><time>2026-05-03T11:22:59.405Z</time></trkpt><trkpt lat="41.4445361" lon="13.060219"><ele>3.0</ele><time>2026-05-03T11:23:00.392Z</time></trkpt><trkpt lat="41.4446998" lon="13.0600097"><ele>3.0</ele><time>2026-05-03T11:23:01.401Z</time></trkpt><trkpt lat="41.444879" lon="13.0598123"><ele>3.0</ele><time>2026-05-03T11:23:02.407Z</time></trkpt><trkpt lat="41.4450841" lon="13.0596176"><ele>3.0</ele><time>2026-05-03T11:23:03.396Z</time></trkpt><trkpt lat="41.4453071" lon="13.0594242"><ele>3.0</ele><time>2026-05-03T11:23:04.399Z</time></trkpt><trkpt lat="41.4455266" lon="13.0592461"><ele>2.6666666666666665</ele><time>2026-05-03T11:23:05.396Z</time></trkpt><trkpt lat="41.4457215" lon="13.0590971"><ele>2.333333333333333</ele><time>2026-05-03T11:23:06.397Z</time></trkpt><trkpt lat="41.4458887" lon="13.0589654"><ele>2.0</ele><time>2026-05-03T11:23:07.41Z</time></trkpt><trkpt lat="41.4460381" lon="13.0588448"><ele>2.0</ele><time>2026-05-03T11:23:08.393Z</time></trkpt><trkpt lat="41.4461749" lon="13.0587283"><ele>2.0</ele><time>2026-05-03T11:23:09.405Z</time></trkpt><trkpt lat="41.4462992" lon="13.0586054"><ele>2.0</ele><time>2026-05-03T11:23:10.402Z</time></trkpt><trkpt lat="41.4464147" lon="13.0584554"><ele>2.333333333333333</ele><time>2026-05-03T11:23:11.404Z</time></trkpt><trkpt lat="41.4465139" lon="13.0582784"><ele>2.6666666666666665</ele><time>2026-05-03T11:23:12.395Z</time></trkpt><trkpt lat="41.4466034" lon="13.0580653"><ele>3.0</ele><time>2026-05-03T11:23:13.395Z</time></trkpt><trkpt lat="41.4466925" lon="13.0578187"><ele>3.0</ele><time>2026-05-03T11:23:14.4Z</time></trkpt><trkpt lat="41.4467889" lon="13.0575479"><ele>3.0</ele><time>2026-05-03T11:23:15.39Z</time></trkpt><trkpt lat="41.4468882" lon="13.0572746"><ele>2.6666666666666665</ele><time>2026-05-03T11:23:16.393Z</time></trkpt><trkpt lat="41.4469834" lon="13.0570065"><ele>2.333333333333333</ele><time>2026-05-03T11:23:17.396Z</time></trkpt><trkpt lat="41.447078" lon="13.0567336"><ele>2.0</ele><time>2026-05-03T11:23:18.397Z</time></trkpt><trkpt lat="41.4471689" lon="13.0564714"><ele>2.6666666666666665</ele><time>2026-05-03T11:23:19.393Z</time></trkpt><trkpt lat="41.4472521" lon="13.0562423"><ele>3.333333333333333</ele><time>2026-05-03T11:23:20.393Z</time></trkpt><trkpt lat="41.4473275" lon="13.0560406"><ele>4.0</ele><time>2026-05-03T11:23:21.394Z</time></trkpt><trkpt lat="41.4473989" lon="13.0558487"><ele>3.6666666666666665</ele><time>2026-05-03T11:23:22.396Z</time></trkpt><trkpt lat="41.4474654" lon="13.0556603"><ele>3.333333333333333</ele><time>2026-05-03T11:23:23.395Z</time></trkpt><trkpt lat="41.4475333" lon="13.0554711"><ele>3.0</ele><time>2026-05-03T11:23:24.399Z</time></trkpt><trkpt lat="41.447601" lon="13.0552873"><ele>3.0</ele><time>2026-05-03T11:23:25.4Z</time></trkpt><trkpt lat="41.4476645" lon="13.0551179"><ele>3.0</ele><time>2026-05-03T11:23:26.395Z</time></trkpt><trkpt lat="41.4477271" lon="13.0549537"><ele>3.0</ele><time>2026-05-03T11:23:27.398Z</time></trkpt><trkpt lat="41.44779" lon="13.0547818"><ele>3.0</ele><time>2026-05-03T11:23:28.401Z</time></trkpt><trkpt lat="41.4478487" lon="13.0546197"><ele>2.75</ele><time>2026-05-03T11:23:29.392Z</time></trkpt><trkpt lat="41.4479064" lon="13.0544598"><ele>2.5</ele><time>2026-05-03T11:23:30.391Z</time></trkpt><trkpt lat="41.4479688" lon="13.0542995"><ele>2.25</ele><time>2026-05-03T11:23:31.389Z</time></trkpt><trkpt lat="41.4480299" lon="13.0541499"><ele>2.0</ele><time>2026-05-03T11:23:32.389Z</time></trkpt><trkpt lat="41.4480971" lon="13.0540215"><ele>1.8</ele><time>2026-05-03T11:23:33.39Z</time></trkpt><trkpt lat="41.4481616" lon="13.0539193"><ele>1.6</ele><time>2026-05-03T11:23:34.396Z</time></trkpt><trkpt lat="41.4482226" lon="13.0538458"><ele>1.4000000000000001</ele><time>2026-05-03T11:23:35.395Z</time></trkpt><trkpt lat="41.448287" lon="13.0537991"><ele>1.2000000000000002</ele><time>2026-05-03T11:23:36.393Z</time></trkpt><trkpt lat="41.448353" lon="13.0537782"><ele>1.0</ele><time>2026-05-03T11:23:37.393Z</time></trkpt><trkpt lat="41.4484852" lon="13.0538368"><ele>1.0</ele><time>2026-05-03T11:23:39.394Z</time></trkpt><trkpt lat="41.4485691" lon="13.0539236"><ele>1.0</ele><time>2026-05-03T11:23:40.407Z</time></trkpt><trkpt lat="41.4486519" lon="13.0540435"><ele>1.0</ele><time>2026-05-03T11:23:41.393Z</time></trkpt><trkpt lat="41.448738" lon="13.0541847"><ele>1.0</ele><time>2026-05-03T11:23:42.39Z</time></trkpt><trkpt lat="41.4488269" lon="13.0543258"><ele>1.25</ele><time>2026-05-03T11:23:43.391Z</time></trkpt><trkpt lat="41.4489096" lon="13.0544487"><ele>1.5</ele><time>2026-05-03T11:23:44.39Z</time></trkpt><trkpt lat="41.4489986" lon="13.0545695"><ele>1.75</ele><time>2026-05-03T11:23:45.388Z</time></trkpt><trkpt lat="41.4490929" lon="13.054698"><ele>2.0</ele><time>2026-05-03T11:23:46.391Z</time></trkpt><trkpt lat="41.4491823" lon="13.0548255"><ele>2.0</ele><time>2026-05-03T11:23:47.388Z</time></trkpt><trkpt lat="41.4492718" lon="13.0549526"><ele>2.0</ele><time>2026-05-03T11:23:48.39Z</time></trkpt><trkpt lat="41.4493674" lon="13.055083"><ele>2.0</ele><time>2026-05-03T11:23:49.394Z</time></trkpt><trkpt lat="41.4494695" lon="13.055218"><ele>2.0</ele><time>2026-05-03T11:23:50.402Z</time></trkpt><trkpt lat="41.449567" lon="13.0553498"><ele>2.0</ele><time>2026-05-03T11:23:51.401Z</time></trkpt><trkpt lat="41.4496614" lon="13.0554804"><ele>2.0</ele><time>2026-05-03T11:23:52.4Z</time></trkpt><trkpt lat="41.4497562" lon="13.0556097"><ele>2.0</ele><time>2026-05-03T11:23:53.391Z</time></trkpt><trkpt lat="41.4498476" lon="13.0557399"><ele>2.0</ele><time>2026-05-03T11:23:54.404Z</time></trkpt><trkpt lat="41.449935" lon="13.0558658"><ele>2.0</ele><time>2026-05-03T11:23:55.407Z</time></trkpt><trkpt lat="41.4500171" lon="13.0559851"><ele>2.0</ele><time>2026-05-03T11:23:56.39Z</time></trkpt><trkpt lat="41.4500917" lon="13.0561001"><ele>2.0</ele><time>2026-05-03T11:23:57.388Z</time></trkpt><trkpt lat="41.4501576" lon="13.0561932"><ele>2.0</ele><time>2026-05-03T11:23:58.391Z</time></trkpt><trkpt lat="41.4502203" lon="13.0562605"><ele>2.0</ele><time>2026-05-03T11:23:59.408Z</time></trkpt><trkpt lat="41.4502873" lon="13.0562976"><ele>2.0</ele><time>2026-05-03T11:24:00.395Z</time></trkpt><trkpt lat="41.4503519" lon="13.0563052"><ele>2.0</ele><time>2026-05-03T11:24:01.402Z</time></trkpt><trkpt lat="41.4504754" lon="13.0562209"><ele>2.0</ele><time>2026-05-03T11:24:03.396Z</time></trkpt><trkpt lat="41.4505524" lon="13.0561217"><ele>2.0</ele><time>2026-05-03T11:24:04.404Z</time></trkpt><trkpt lat="41.4506282" lon="13.056003"><ele>2.0</ele><time>2026-05-03T11:24:05.397Z</time></trkpt><trkpt lat="41.4507113" lon="13.0558653"><ele>2.333333333333333</ele><time>2026-05-03T11:24:06.399Z</time></trkpt><trkpt lat="41.4508249" lon="13.0557108"><ele>2.6666666666666665</ele><time>2026-05-03T11:24:07.393Z</time></trkpt><trkpt lat="41.4509696" lon="13.0555286"><ele>3.0</ele><time>2026-05-03T11:24:08.398Z</time></trkpt><trkpt lat="41.451139" lon="13.0553059"><ele>3.0</ele><time>2026-05-03T11:24:09.391Z</time></trkpt><trkpt lat="41.4513373" lon="13.0550323"><ele>3.0</ele><time>2026-05-03T11:24:10.394Z</time></trkpt><trkpt lat="41.4515625" lon="13.0547251"><ele>3.0</ele><time>2026-05-03T11:24:11.401Z</time></trkpt><trkpt lat="41.4518069" lon="13.0543909"><ele>3.0</ele><time>2026-05-03T11:24:12.4Z</time></trkpt><trkpt lat="41.452071" lon="13.0540228"><ele>2.5</ele><time>2026-05-03T11:24:13.398Z</time></trkpt><trkpt lat="41.4523432" lon="13.0536441"><ele>2.0</ele><time>2026-05-03T11:24:14.388Z</time></trkpt><trkpt lat="41.4526074" lon="13.053285"><ele>2.0</ele><time>2026-05-03T11:24:15.388Z</time></trkpt><trkpt lat="41.4528574" lon="13.0529449"><ele>2.0</ele><time>2026-05-03T11:24:16.396Z</time></trkpt><trkpt lat="41.4530988" lon="13.0526124"><ele>1.5</ele><time>2026-05-03T11:24:17.39Z</time></trkpt><trkpt lat="41.4533385" lon="13.0522825"><ele>1.0</ele><time>2026-05-03T11:24:18.408Z</time></trkpt><trkpt lat="41.4535783" lon="13.0519545"><ele>1.5</ele><time>2026-05-03T11:24:19.393Z</time></trkpt><trkpt lat="41.4538068" lon="13.0516431"><ele>2.0</ele><time>2026-05-03T11:24:20.39Z</time></trkpt><trkpt lat="41.4540346" lon="13.0513323"><ele>2.0</ele><time>2026-05-03T11:24:21.404Z</time></trkpt><trkpt lat="41.4542699" lon="13.0510156"><ele>2.0</ele><time>2026-05-03T11:24:22.395Z</time></trkpt><trkpt lat="41.4545094" lon="13.0506915"><ele>2.0</ele><time>2026-05-03T11:24:23.391Z</time></trkpt><trkpt lat="41.4547439" lon="13.0503694"><ele>2.0</ele><time>2026-05-03T11:24:24.393Z</time></trkpt><trkpt lat="41.4549727" lon="13.0500485"><ele>2.0</ele><time>2026-05-03T11:24:25.39Z</time></trkpt><trkpt lat="41.4551874" lon="13.0497538"><ele>2.0</ele><time>2026-05-03T11:24:26.403Z</time></trkpt><trkpt lat="41.4553926" lon="13.0494715"><ele>2.5</ele><time>2026-05-03T11:24:27.392Z</time></trkpt><trkpt lat="41.4555959" lon="13.0491983"><ele>3.0</ele><time>2026-05-03T11:24:28.41Z</time></trkpt><trkpt lat="41.4557971" lon="13.0489254"><ele>3.0</ele><time>2026-05-03T11:24:29.405Z</time></trkpt><trkpt lat="41.4560011" lon="13.0486474"><ele>3.0</ele><time>2026-05-03T11:24:30.408Z</time></trkpt><trkpt lat="41.4562064" lon="13.0483675"><ele>3.5</ele><time>2026-05-03T11:24:31.402Z</time></trkpt><trkpt lat="41.4564131" lon="13.048086"><ele>4.0</ele><time>2026-05-03T11:24:32.391Z</time></trkpt><trkpt lat="41.4566073" lon="13.0478263"><ele>4.0</ele><time>2026-05-03T11:24:33.391Z</time></trkpt><trkpt lat="41.4567946" lon="13.0475732"><ele>4.0</ele><time>2026-05-03T11:24:34.407Z</time></trkpt><trkpt lat="41.4569714" lon="13.0473325"><ele>4.0</ele><time>2026-05-03T11:24:35.401Z</time></trkpt><trkpt lat="41.4571369" lon="13.0471033"><ele>4.0</ele><time>2026-05-03T11:24:36.404Z</time></trkpt><trkpt lat="41.4573088" lon="13.0468702"><ele>4.0</ele><time>2026-05-03T11:24:37.403Z</time></trkpt><trkpt lat="41.4574774" lon="13.046642"><ele>4.0</ele><time>2026-05-03T11:24:38.405Z</time></trkpt><trkpt lat="41.4576417" lon="13.0464097"><ele>4.0</ele><time>2026-05-03T11:24:39.401Z</time></trkpt><trkpt lat="41.4578033" lon="13.046192"><ele>4.0</ele><time>2026-05-03T11:24:40.392Z</time></trkpt><trkpt lat="41.4579611" lon="13.0459812"><ele>4.0</ele><time>2026-05-03T11:24:41.403Z</time></trkpt><trkpt lat="41.4581124" lon="13.045774"><ele>4.0</ele><time>2026-05-03T11:24:42.402Z</time></trkpt><trkpt lat="41.458263" lon="13.0455748"><ele>4.0</ele><time>2026-05-03T11:24:43.407Z</time></trkpt><trkpt lat="41.4584171" lon="13.0453643"><ele>4.0</ele><time>2026-05-03T11:24:44.403Z</time></trkpt><trkpt lat="41.4585674" lon="13.0451556"><ele>4.0</ele><time>2026-05-03T11:24:45.401Z</time></trkpt><trkpt lat="41.4587094" lon="13.0449491"><ele>4.0</ele><time>2026-05-03T11:24:46.393Z</time></trkpt><trkpt lat="41.458857" lon="13.0447516"><ele>4.0</ele><time>2026-05-03T11:24:47.398Z</time></trkpt><trkpt lat="41.4589962" lon="13.0445645"><ele>4.0</ele><time>2026-05-03T11:24:48.393Z</time></trkpt><trkpt lat="41.4591341" lon="13.0443746"><ele>4.0</ele><time>2026-05-03T11:24:49.393Z</time></trkpt><trkpt lat="41.4592686" lon="13.0441908"><ele>4.0</ele><time>2026-05-03T11:24:50.395Z</time></trkpt><trkpt lat="41.459399" lon="13.0440169"><ele>4.0</ele><time>2026-05-03T11:24:51.392Z</time></trkpt><trkpt lat="41.4595241" lon="13.0438483"><ele>4.0</ele><time>2026-05-03T11:24:52.393Z</time></trkpt><trkpt lat="41.459638" lon="13.0436829"><ele>4.0</ele><time>2026-05-03T11:24:53.394Z</time></trkpt><trkpt lat="41.4597516" lon="13.0435225"><ele>4.0</ele><time>2026-05-03T11:24:54.407Z</time></trkpt><trkpt lat="41.459864" lon="13.0433673"><ele>4.0</ele><time>2026-05-03T11:24:55.406Z</time></trkpt><trkpt lat="41.4599783" lon="13.0432107"><ele>4.0</ele><time>2026-05-03T11:24:56.405Z</time></trkpt><trkpt lat="41.4601009" lon="13.0430428"><ele>4.0</ele><time>2026-05-03T11:24:57.413Z</time></trkpt><trkpt lat="41.4602219" lon="13.0428687"><ele>4.0</ele><time>2026-05-03T11:24:58.394Z</time></trkpt><trkpt lat="41.4603372" lon="13.0427055"><ele>3.6666666666666665</ele><time>2026-05-03T11:24:59.401Z</time></trkpt><trkpt lat="41.4604514" lon="13.0425521"><ele>3.333333333333333</ele><time>2026-05-03T11:25:00.407Z</time></trkpt><trkpt lat="41.4605604" lon="13.0424016"><ele>3.0</ele><time>2026-05-03T11:25:01.493Z</time></trkpt><trkpt lat="41.4606784" lon="13.0422359"><ele>4.0</ele><time>2026-05-03T11:25:02.396Z</time></trkpt><trkpt lat="41.4608026" lon="13.0420563"><ele>5.0</ele><time>2026-05-03T11:25:03.412Z</time></trkpt><trkpt lat="41.4609335" lon="13.0418681"><ele>6.0</ele><time>2026-05-03T11:25:04.393Z</time></trkpt><trkpt lat="41.4610892" lon="13.0416588"><ele>6.0</ele><time>2026-05-03T11:25:05.398Z</time></trkpt><trkpt lat="41.4612528" lon="13.0414453"><ele>6.0</ele><time>2026-05-03T11:25:06.397Z</time></trkpt><trkpt lat="41.4614344" lon="13.0412217"><ele>6.0</ele><time>2026-05-03T11:25:07.396Z</time></trkpt><trkpt lat="41.4616216" lon="13.0409943"><ele>6.0</ele><time>2026-05-03T11:25:08.387Z</time></trkpt><trkpt lat="41.4618201" lon="13.040757"><ele>6.0</ele><time>2026-05-03T11:25:09.393Z</time></trkpt><trkpt lat="41.4620199" lon="13.0405116"><ele>6.0</ele><time>2026-05-03T11:25:10.389Z</time></trkpt><trkpt lat="41.4622414" lon="13.0402406"><ele>5.0</ele><time>2026-05-03T11:25:11.393Z</time></trkpt><trkpt lat="41.4624855" lon="13.0399336"><ele>4.0</ele><time>2026-05-03T11:25:12.398Z</time></trkpt><trkpt lat="41.4627484" lon="13.0396109"><ele>4.5</ele><time>2026-05-03T11:25:13.391Z</time></trkpt><trkpt lat="41.4630218" lon="13.039269"><ele>5.0</ele><time>2026-05-03T11:25:14.397Z</time></trkpt><trkpt lat="41.4632905" lon="13.0389338"><ele>5.0</ele><time>2026-05-03T11:25:15.391Z</time></trkpt><trkpt lat="41.4635598" lon="13.0385995"><ele>5.0</ele><time>2026-05-03T11:25:16.391Z</time></trkpt><trkpt lat="41.4638241" lon="13.0382791"><ele>5.0</ele><time>2026-05-03T11:25:17.392Z</time></trkpt><trkpt lat="41.4640834" lon="13.0379648"><ele>5.0</ele><time>2026-05-03T11:25:18.39Z</time></trkpt><trkpt lat="41.4643227" lon="13.0376747"><ele>5.5</ele><time>2026-05-03T11:25:19.385Z</time></trkpt><trkpt lat="41.4645403" lon="13.0374022"><ele>6.0</ele><time>2026-05-03T11:25:20.408Z</time></trkpt><trkpt lat="41.4647462" lon="13.0371528"><ele>6.5</ele><time>2026-05-03T11:25:21.402Z</time></trkpt><trkpt lat="41.464938" lon="13.0369216"><ele>7.0</ele><time>2026-05-03T11:25:22.387Z</time></trkpt><trkpt lat="41.4651129" lon="13.0367071"><ele>7.0</ele><time>2026-05-03T11:25:23.394Z</time></trkpt><trkpt lat="41.4652801" lon="13.0365077"><ele>7.0</ele><time>2026-05-03T11:25:24.392Z</time></trkpt><trkpt lat="41.4654399" lon="13.0363127"><ele>7.0</ele><time>2026-05-03T11:25:25.392Z</time></trkpt><trkpt lat="41.4655923" lon="13.0361253"><ele>7.0</ele><time>2026-05-03T11:25:26.388Z</time></trkpt><trkpt lat="41.465743" lon="13.0359417"><ele>7.0</ele><time>2026-05-03T11:25:27.399Z</time></trkpt><trkpt lat="41.4658733" lon="13.035773"><ele>7.0</ele><time>2026-05-03T11:25:28.39Z</time></trkpt><trkpt lat="41.4659895" lon="13.0356258"><ele>6.75</ele><time>2026-05-03T11:25:29.393Z</time></trkpt><trkpt lat="41.4660907" lon="13.0354837"><ele>6.5</ele><time>2026-05-03T11:25:30.391Z</time></trkpt><trkpt lat="41.4661764" lon="13.0353455"><ele>6.25</ele><time>2026-05-03T11:25:31.394Z</time></trkpt><trkpt lat="41.4662564" lon="13.0352024"><ele>6.0</ele><time>2026-05-03T11:25:32.393Z</time></trkpt><trkpt lat="41.4663375" lon="13.035041"><ele>5.666666666666667</ele><time>2026-05-03T11:25:33.391Z</time></trkpt><trkpt lat="41.4664267" lon="13.0348601"><ele>5.333333333333334</ele><time>2026-05-03T11:25:34.396Z</time></trkpt><trkpt lat="41.4665241" lon="13.0346628"><ele>5.0</ele><time>2026-05-03T11:25:35.396Z</time></trkpt><trkpt lat="41.4666366" lon="13.0344444"><ele>5.0</ele><time>2026-05-03T11:25:36.399Z</time></trkpt><trkpt lat="41.46676" lon="13.0342054"><ele>5.0</ele><time>2026-05-03T11:25:37.397Z</time></trkpt><trkpt lat="41.4668937" lon="13.0339412"><ele>5.0</ele><time>2026-05-03T11:25:38.396Z</time></trkpt><trkpt lat="41.4670303" lon="13.0336709"><ele>5.0</ele><time>2026-05-03T11:25:39.4Z</time></trkpt><trkpt lat="41.4671708" lon="13.0333947"><ele>4.5</ele><time>2026-05-03T11:25:40.402Z</time></trkpt><trkpt lat="41.4673144" lon="13.0331141"><ele>4.0</ele><time>2026-05-03T11:25:41.392Z</time></trkpt><trkpt lat="41.4674514" lon="13.0328429"><ele>4.0</ele><time>2026-05-03T11:25:42.388Z</time></trkpt><trkpt lat="41.4675903" lon="13.0325765"><ele>4.0</ele><time>2026-05-03T11:25:43.397Z</time></trkpt><trkpt lat="41.4677202" lon="13.0323201"><ele>4.333333333333333</ele><time>2026-05-03T11:25:44.389Z</time></trkpt><trkpt lat="41.4678435" lon="13.0320763"><ele>4.666666666666667</ele><time>2026-05-03T11:25:45.394Z</time></trkpt><trkpt lat="41.4679675" lon="13.0318354"><ele>5.0</ele><time>2026-05-03T11:25:46.399Z</time></trkpt><trkpt lat="41.4680877" lon="13.0316012"><ele>5.0</ele><time>2026-05-03T11:25:47.41Z</time></trkpt><trkpt lat="41.4682025" lon="13.0313721"><ele>5.0</ele><time>2026-05-03T11:25:48.391Z</time></trkpt><trkpt lat="41.4683224" lon="13.0311432"><ele>5.0</ele><time>2026-05-03T11:25:49.392Z</time></trkpt><trkpt lat="41.4684486" lon="13.0309268"><ele>5.333333333333334</ele><time>2026-05-03T11:25:50.396Z</time></trkpt><trkpt lat="41.4685851" lon="13.0307244"><ele>5.666666666666667</ele><time>2026-05-03T11:25:51.398Z</time></trkpt><trkpt lat="41.4687371" lon="13.0305369"><ele>6.0</ele><time>2026-05-03T11:25:52.394Z</time></trkpt><trkpt lat="41.4689068" lon="13.0303557"><ele>6.0</ele><time>2026-05-03T11:25:53.392Z</time></trkpt><trkpt lat="41.4690903" lon="13.0301828"><ele>6.0</ele><time>2026-05-03T11:25:54.392Z</time></trkpt><trkpt lat="41.4692905" lon="13.0300108"><ele>4.5</ele><time>2026-05-03T11:25:55.398Z</time></trkpt><trkpt lat="41.4694969" lon="13.0298295"><ele>3.0</ele><time>2026-05-03T11:25:56.398Z</time></trkpt><trkpt lat="41.4697116" lon="13.0296419"><ele>3.0</ele><time>2026-05-03T11:25:57.39Z</time></trkpt><trkpt lat="41.4699353" lon="13.0294397"><ele>3.0</ele><time>2026-05-03T11:25:58.391Z</time></trkpt><trkpt lat="41.4701697" lon="13.0292361"><ele>3.5</ele><time>2026-05-03T11:25:59.391Z</time></trkpt><trkpt lat="41.4704141" lon="13.0290144"><ele>4.0</ele><time>2026-05-03T11:26:00.392Z</time></trkpt><trkpt lat="41.4706807" lon="13.0287695"><ele>4.0</ele><time>2026-05-03T11:26:01.391Z</time></trkpt><trkpt lat="41.4709677" lon="13.0285107"><ele>4.0</ele><time>2026-05-03T11:26:02.39Z</time></trkpt><trkpt lat="41.4712693" lon="13.0282359"><ele>5.0</ele><time>2026-05-03T11:26:03.396Z</time></trkpt><trkpt lat="41.4715683" lon="13.027968"><ele>6.0</ele><time>2026-05-03T11:26:04.401Z</time></trkpt><trkpt lat="41.4718609" lon="13.0276977"><ele>6.0</ele><time>2026-05-03T11:26:05.399Z</time></trkpt><trkpt lat="41.4721557" lon="13.0274338"><ele>6.0</ele><time>2026-05-03T11:26:06.405Z</time></trkpt><trkpt lat="41.4724457" lon="13.0271809"><ele>6.0</ele><time>2026-05-03T11:26:07.399Z</time></trkpt><trkpt lat="41.4727097" lon="13.0269447"><ele>6.0</ele><time>2026-05-03T11:26:08.387Z</time></trkpt><trkpt lat="41.472953" lon="13.0267227"><ele>6.0</ele><time>2026-05-03T11:26:09.389Z</time></trkpt><trkpt lat="41.4731793" lon="13.0265201"><ele>6.0</ele><time>2026-05-03T11:26:10.39Z</time></trkpt><trkpt lat="41.4733912" lon="13.0263331"><ele>6.0</ele><time>2026-05-03T11:26:11.409Z</time></trkpt><trkpt lat="41.4735803" lon="13.0261613"><ele>6.0</ele><time>2026-05-03T11:26:12.403Z</time></trkpt><trkpt lat="41.4737598" lon="13.0259947"><ele>6.0</ele><time>2026-05-03T11:26:13.409Z</time></trkpt><trkpt lat="41.473939" lon="13.0258323"><ele>6.0</ele><time>2026-05-03T11:26:14.404Z</time></trkpt><trkpt lat="41.4741116" lon="13.0256742"><ele>6.0</ele><time>2026-05-03T11:26:15.389Z</time></trkpt><trkpt lat="41.474286" lon="13.0255155"><ele>6.0</ele><time>2026-05-03T11:26:16.397Z</time></trkpt><trkpt lat="41.4744555" lon="13.0253454"><ele>5.5</ele><time>2026-05-03T11:26:17.395Z</time></trkpt><trkpt lat="41.4746307" lon="13.0251549"><ele>5.0</ele><time>2026-05-03T11:26:18.408Z</time></trkpt><trkpt lat="41.4748076" lon="13.0249456"><ele>5.0</ele><time>2026-05-03T11:26:19.396Z</time></trkpt><trkpt lat="41.4749816" lon="13.0247422"><ele>5.0</ele><time>2026-05-03T11:26:20.397Z</time></trkpt><trkpt lat="41.4751435" lon="13.0245592"><ele>5.0</ele><time>2026-05-03T11:26:21.39Z</time></trkpt><trkpt lat="41.4753021" lon="13.0243759"><ele>5.333333333333334</ele><time>2026-05-03T11:26:22.403Z</time></trkpt><trkpt lat="41.4754511" lon="13.0242037"><ele>5.666666666666667</ele><time>2026-05-03T11:26:23.399Z</time></trkpt><trkpt lat="41.4755932" lon="13.0240365"><ele>6.0</ele><time>2026-05-03T11:26:24.399Z</time></trkpt><trkpt lat="41.4757291" lon="13.0238778"><ele>6.0</ele><time>2026-05-03T11:26:25.393Z</time></trkpt><trkpt lat="41.4758542" lon="13.0237314"><ele>6.0</ele><time>2026-05-03T11:26:26.395Z</time></trkpt><trkpt lat="41.4759707" lon="13.0235933"><ele>6.0</ele><time>2026-05-03T11:26:27.404Z</time></trkpt><trkpt lat="41.4760814" lon="13.0234571"><ele>6.0</ele><time>2026-05-03T11:26:28.402Z</time></trkpt><trkpt lat="41.4761871" lon="13.023336"><ele>6.0</ele><time>2026-05-03T11:26:29.407Z</time></trkpt><trkpt lat="41.476288" lon="13.0232185"><ele>6.0</ele><time>2026-05-03T11:26:30.395Z</time></trkpt><trkpt lat="41.4763806" lon="13.0231077"><ele>6.0</ele><time>2026-05-03T11:26:31.395Z</time></trkpt><trkpt lat="41.4764697" lon="13.0230034"><ele>6.0</ele><time>2026-05-03T11:26:32.391Z</time></trkpt><trkpt lat="41.4765537" lon="13.0229026"><ele>6.0</ele><time>2026-05-03T11:26:33.391Z</time></trkpt><trkpt lat="41.4766364" lon="13.0228098"><ele>6.0</ele><time>2026-05-03T11:26:34.433Z</time></trkpt><trkpt lat="41.4767146" lon="13.0227229"><ele>6.0</ele><time>2026-05-03T11:26:35.397Z</time></trkpt><trkpt lat="41.4767861" lon="13.0226472"><ele>6.0</ele><time>2026-05-03T11:26:36.401Z</time></trkpt><trkpt lat="41.4768569" lon="13.0225805"><ele>6.0</ele><time>2026-05-03T11:26:37.394Z</time></trkpt><trkpt lat="41.4769275" lon="13.0225265"><ele>6.0</ele><time>2026-05-03T11:26:38.398Z</time></trkpt><trkpt lat="41.4769963" lon="13.0224959"><ele>6.0</ele><time>2026-05-03T11:26:39.395Z</time></trkpt><trkpt lat="41.4770703" lon="13.022475"><ele>6.0</ele><time>2026-05-03T11:26:40.397Z</time></trkpt><trkpt lat="41.4771485" lon="13.0224298"><ele>6.0</ele><time>2026-05-03T11:26:41.402Z</time></trkpt><trkpt lat="41.4772119" lon="13.0223664"><ele>6.0</ele><time>2026-05-03T11:26:42.393Z</time></trkpt><trkpt lat="41.477264" lon="13.0222831"><ele>5.75</ele><time>2026-05-03T11:26:43.395Z</time></trkpt><trkpt lat="41.4773062" lon="13.0221877"><ele>5.5</ele><time>2026-05-03T11:26:44.395Z</time></trkpt><trkpt lat="41.477357" lon="13.022065"><ele>5.25</ele><time>2026-05-03T11:26:45.403Z</time></trkpt><trkpt lat="41.4774397" lon="13.0219304"><ele>5.0</ele><time>2026-05-03T11:26:46.388Z</time></trkpt><trkpt lat="41.4775541" lon="13.021789"><ele>5.0</ele><time>2026-05-03T11:26:47.392Z</time></trkpt><trkpt lat="41.4776984" lon="13.0216179"><ele>5.0</ele><time>2026-05-03T11:26:48.402Z</time></trkpt><trkpt lat="41.4778777" lon="13.0214098"><ele>5.0</ele><time>2026-05-03T11:26:49.401Z</time></trkpt><trkpt lat="41.478083" lon="13.0211738"><ele>4.5</ele><time>2026-05-03T11:26:50.394Z</time></trkpt><trkpt lat="41.4783174" lon="13.0209055"><ele>4.0</ele><time>2026-05-03T11:26:51.386Z</time></trkpt><trkpt lat="41.4785786" lon="13.0206046"><ele>4.0</ele><time>2026-05-03T11:26:52.397Z</time></trkpt><trkpt lat="41.4788637" lon="13.0202794"><ele>4.0</ele><time>2026-05-03T11:26:53.394Z</time></trkpt><trkpt lat="41.4791666" lon="13.0199318"><ele>4.0</ele><time>2026-05-03T11:26:54.393Z</time></trkpt><trkpt lat="41.4794678" lon="13.0195948"><ele>4.0</ele><time>2026-05-03T11:26:55.393Z</time></trkpt><trkpt lat="41.4797417" lon="13.0192883"><ele>4.0</ele><time>2026-05-03T11:26:56.393Z</time></trkpt><trkpt lat="41.4800077" lon="13.0189909"><ele>4.0</ele><time>2026-05-03T11:26:57.4Z</time></trkpt><trkpt lat="41.4802632" lon="13.0187033"><ele>3.5</ele><time>2026-05-03T11:26:58.406Z</time></trkpt><trkpt lat="41.4805003" lon="13.0184397"><ele>3.0</ele><time>2026-05-03T11:26:59.402Z</time></trkpt><trkpt lat="41.4807196" lon="13.0181958"><ele>3.0</ele><time>2026-05-03T11:27:00.405Z</time></trkpt><trkpt lat="41.4809201" lon="13.0179729"><ele>3.0</ele><time>2026-05-03T11:27:01.394Z</time></trkpt><trkpt lat="41.481111" lon="13.017756"><ele>3.5</ele><time>2026-05-03T11:27:02.4Z</time></trkpt><trkpt lat="41.4812954" lon="13.0175449"><ele>4.0</ele><time>2026-05-03T11:27:03.399Z</time></trkpt><trkpt lat="41.4814716" lon="13.0173445"><ele>4.0</ele><time>2026-05-03T11:27:04.395Z</time></trkpt><trkpt lat="41.481644" lon="13.017156"><ele>4.0</ele><time>2026-05-03T11:27:05.393Z</time></trkpt><trkpt lat="41.4818087" lon="13.016971"><ele>4.0</ele><time>2026-05-03T11:27:06.411Z</time></trkpt><trkpt lat="41.4819673" lon="13.0167803"><ele>5.333333333333333</ele><time>2026-05-03T11:27:07.407Z</time></trkpt><trkpt lat="41.482108" lon="13.0165879"><ele>6.666666666666666</ele><time>2026-05-03T11:27:08.403Z</time></trkpt><trkpt lat="41.4822249" lon="13.0163739"><ele>8.0</ele><time>2026-05-03T11:27:09.406Z</time></trkpt><trkpt lat="41.4823252" lon="13.0161358"><ele>8.0</ele><time>2026-05-03T11:27:10.39Z</time></trkpt><trkpt lat="41.4824119" lon="13.0158699"><ele>8.0</ele><time>2026-05-03T11:27:11.408Z</time></trkpt><trkpt lat="41.4824976" lon="13.0155907"><ele>8.0</ele><time>2026-05-03T11:27:12.401Z</time></trkpt><trkpt lat="41.4825892" lon="13.0152961"><ele>7.5</ele><time>2026-05-03T11:27:13.391Z</time></trkpt><trkpt lat="41.4826773" lon="13.0149883"><ele>7.0</ele><time>2026-05-03T11:27:14.397Z</time></trkpt><trkpt lat="41.4827719" lon="13.0146621"><ele>6.5</ele><time>2026-05-03T11:27:15.393Z</time></trkpt><trkpt lat="41.4828727" lon="13.0143294"><ele>6.0</ele><time>2026-05-03T11:27:16.396Z</time></trkpt><trkpt lat="41.4829721" lon="13.0139876"><ele>6.0</ele><time>2026-05-03T11:27:17.406Z</time></trkpt><trkpt lat="41.4830747" lon="13.0136388"><ele>6.0</ele><time>2026-05-03T11:27:18.394Z</time></trkpt><trkpt lat="41.4831813" lon="13.013283"><ele>6.5</ele><time>2026-05-03T11:27:19.391Z</time></trkpt><trkpt lat="41.4832888" lon="13.0129264"><ele>7.0</ele><time>2026-05-03T11:27:20.391Z</time></trkpt><trkpt lat="41.4833963" lon="13.0125659"><ele>6.5</ele><time>2026-05-03T11:27:21.393Z</time></trkpt><trkpt lat="41.4835031" lon="13.0122059"><ele>6.0</ele><time>2026-05-03T11:27:22.405Z</time></trkpt><trkpt lat="41.4836087" lon="13.0118445"><ele>6.5</ele><time>2026-05-03T11:27:23.4Z</time></trkpt><trkpt lat="41.4837125" lon="13.0114818"><ele>7.0</ele><time>2026-05-03T11:27:24.413Z</time></trkpt><trkpt lat="41.4838186" lon="13.0111167"><ele>7.0</ele><time>2026-05-03T11:27:25.408Z</time></trkpt><trkpt lat="41.4839238" lon="13.0107543"><ele>7.0</ele><time>2026-05-03T11:27:26.402Z</time></trkpt><trkpt lat="41.4840281" lon="13.0103907"><ele>7.0</ele><time>2026-05-03T11:27:27.406Z</time></trkpt><trkpt lat="41.4841283" lon="13.0100334"><ele>7.0</ele><time>2026-05-03T11:27:28.397Z</time></trkpt><trkpt lat="41.4842316" lon="13.0096798"><ele>7.0</ele><time>2026-05-03T11:27:29.395Z</time></trkpt><trkpt lat="41.4843373" lon="13.0093264"><ele>7.0</ele><time>2026-05-03T11:27:30.393Z</time></trkpt><trkpt lat="41.4844442" lon="13.0089782"><ele>7.0</ele><time>2026-05-03T11:27:31.39Z</time></trkpt><trkpt lat="41.484544" lon="13.0086445"><ele>7.0</ele><time>2026-05-03T11:27:32.392Z</time></trkpt><trkpt lat="41.4846439" lon="13.0083346"><ele>6.0</ele><time>2026-05-03T11:27:33.391Z</time></trkpt><trkpt lat="41.4847495" lon="13.0080449"><ele>5.0</ele><time>2026-05-03T11:27:34.395Z</time></trkpt><trkpt lat="41.4848732" lon="13.0077546"><ele>4.5</ele><time>2026-05-03T11:27:35.394Z</time></trkpt><trkpt lat="41.4850144" lon="13.0074582"><ele>4.0</ele><time>2026-05-03T11:27:36.393Z</time></trkpt><trkpt lat="41.4851685" lon="13.007158"><ele>4.0</ele><time>2026-05-03T11:27:37.393Z</time></trkpt><trkpt lat="41.4853303" lon="13.0068462"><ele>4.0</ele><time>2026-05-03T11:27:38.391Z</time></trkpt><trkpt lat="41.4854991" lon="13.006531"><ele>5.0</ele><time>2026-05-03T11:27:39.393Z</time></trkpt><trkpt lat="41.4856731" lon="13.0062093"><ele>6.0</ele><time>2026-05-03T11:27:40.394Z</time></trkpt><trkpt lat="41.4858456" lon="13.0058887"><ele>6.0</ele><time>2026-05-03T11:27:41.393Z</time></trkpt><trkpt lat="41.486015" lon="13.0055702"><ele>6.0</ele><time>2026-05-03T11:27:42.402Z</time></trkpt><trkpt lat="41.486184" lon="13.0052633"><ele>6.5</ele><time>2026-05-03T11:27:43.398Z</time></trkpt><trkpt lat="41.4863571" lon="13.0049568"><ele>7.0</ele><time>2026-05-03T11:27:44.4Z</time></trkpt><trkpt lat="41.4865383" lon="13.0046517"><ele>7.0</ele><time>2026-05-03T11:27:45.39Z</time></trkpt><trkpt lat="41.4867157" lon="13.0043542"><ele>7.0</ele><time>2026-05-03T11:27:46.394Z</time></trkpt><trkpt lat="41.4868864" lon="13.0040686"><ele>7.0</ele><time>2026-05-03T11:27:47.393Z</time></trkpt><trkpt lat="41.4870544" lon="13.0037924"><ele>7.0</ele><time>2026-05-03T11:27:48.394Z</time></trkpt><trkpt lat="41.4872151" lon="13.0035262"><ele>7.0</ele><time>2026-05-03T11:27:49.404Z</time></trkpt><trkpt lat="41.4873734" lon="13.0032638"><ele>7.0</ele><time>2026-05-03T11:27:50.391Z</time></trkpt><trkpt lat="41.487534" lon="13.0030009"><ele>7.0</ele><time>2026-05-03T11:27:51.399Z</time></trkpt><trkpt lat="41.4876957" lon="13.0027352"><ele>7.0</ele><time>2026-05-03T11:27:52.422Z</time></trkpt><trkpt lat="41.4878588" lon="13.002467"><ele>7.0</ele><time>2026-05-03T11:27:53.403Z</time></trkpt><trkpt lat="41.4880198" lon="13.0022033"><ele>7.0</ele><time>2026-05-03T11:27:54.396Z</time></trkpt><trkpt lat="41.4881783" lon="13.0019422"><ele>7.0</ele><time>2026-05-03T11:27:55.391Z</time></trkpt><trkpt lat="41.4883348" lon="13.0016874"><ele>7.0</ele><time>2026-05-03T11:27:56.408Z</time></trkpt><trkpt lat="41.4884937" lon="13.0014429"><ele>6.5</ele><time>2026-05-03T11:27:57.395Z</time></trkpt><trkpt lat="41.4886564" lon="13.0012148"><ele>6.0</ele><time>2026-05-03T11:27:58.392Z</time></trkpt><trkpt lat="41.4888418" lon="13.0009917"><ele>6.5</ele><time>2026-05-03T11:27:59.391Z</time></trkpt><trkpt lat="41.4890437" lon="13.0007687"><ele>7.0</ele><time>2026-05-03T11:28:00.389Z</time></trkpt><trkpt lat="41.4892613" lon="13.0005443"><ele>7.0</ele><time>2026-05-03T11:28:01.392Z</time></trkpt><trkpt lat="41.4894896" lon="13.0003109"><ele>7.0</ele><time>2026-05-03T11:28:02.401Z</time></trkpt><trkpt lat="41.489728" lon="13.0000637"><ele>7.0</ele><time>2026-05-03T11:28:03.407Z</time></trkpt><trkpt lat="41.4899719" lon="12.9998092"><ele>7.0</ele><time>2026-05-03T11:28:04.399Z</time></trkpt><trkpt lat="41.4902293" lon="12.9995432"><ele>7.0</ele><time>2026-05-03T11:28:05.395Z</time></trkpt><trkpt lat="41.4905004" lon="12.9992641"><ele>7.0</ele><time>2026-05-03T11:28:06.394Z</time></trkpt><trkpt lat="41.4907693" lon="12.9989827"><ele>6.5</ele><time>2026-05-03T11:28:07.395Z</time></trkpt><trkpt lat="41.4910286" lon="12.9987186"><ele>6.0</ele><time>2026-05-03T11:28:08.392Z</time></trkpt><trkpt lat="41.4912736" lon="12.9984728"><ele>6.5</ele><time>2026-05-03T11:28:09.396Z</time></trkpt><trkpt lat="41.4915107" lon="12.9982304"><ele>7.0</ele><time>2026-05-03T11:28:10.394Z</time></trkpt><trkpt lat="41.4917383" lon="12.9979986"><ele>7.0</ele><time>2026-05-03T11:28:11.395Z</time></trkpt><trkpt lat="41.4919636" lon="12.9977672"><ele>7.0</ele><time>2026-05-03T11:28:12.392Z</time></trkpt><trkpt lat="41.4921908" lon="12.9975313"><ele>7.5</ele><time>2026-05-03T11:28:13.398Z</time></trkpt><trkpt lat="41.4924182" lon="12.9973037"><ele>8.0</ele><time>2026-05-03T11:28:14.392Z</time></trkpt><trkpt lat="41.4926416" lon="12.9970715"><ele>8.0</ele><time>2026-05-03T11:28:15.391Z</time></trkpt><trkpt lat="41.4928641" lon="12.9968421"><ele>8.0</ele><time>2026-05-03T11:28:16.393Z</time></trkpt><trkpt lat="41.4930764" lon="12.9966046"><ele>6.0</ele><time>2026-05-03T11:28:17.393Z</time></trkpt><trkpt lat="41.4932881" lon="12.9963537"><ele>4.0</ele><time>2026-05-03T11:28:18.401Z</time></trkpt><trkpt lat="41.4934959" lon="12.9960944"><ele>4.5</ele><time>2026-05-03T11:28:19.394Z</time></trkpt><trkpt lat="41.4937048" lon="12.9958276"><ele>5.0</ele><time>2026-05-03T11:28:20.396Z</time></trkpt><trkpt lat="41.4939127" lon="12.9955599"><ele>6.0</ele><time>2026-05-03T11:28:21.392Z</time></trkpt><trkpt lat="41.4941285" lon="12.9952879"><ele>7.0</ele><time>2026-05-03T11:28:22.388Z</time></trkpt><trkpt lat="41.4943434" lon="12.9950137"><ele>7.0</ele><time>2026-05-03T11:28:23.393Z</time></trkpt><trkpt lat="41.4945605" lon="12.9947359"><ele>7.0</ele><time>2026-05-03T11:28:24.395Z</time></trkpt><trkpt lat="41.4947829" lon="12.9944571"><ele>6.5</ele><time>2026-05-03T11:28:25.391Z</time></trkpt><trkpt lat="41.4950037" lon="12.9941806"><ele>6.0</ele><time>2026-05-03T11:28:26.395Z</time></trkpt><trkpt lat="41.4952073" lon="12.9939256"><ele>6.0</ele><time>2026-05-03T11:28:27.394Z</time></trkpt><trkpt lat="41.4953977" lon="12.9936899"><ele>6.0</ele><time>2026-05-03T11:28:28.392Z</time></trkpt><trkpt lat="41.4955711" lon="12.9934713"><ele>6.333333333333334</ele><time>2026-05-03T11:28:29.389Z</time></trkpt><trkpt lat="41.4957329" lon="12.9932678"><ele>6.666666666666667</ele><time>2026-05-03T11:28:30.394Z</time></trkpt><trkpt lat="41.4958818" lon="12.9930843"><ele>7.0</ele><time>2026-05-03T11:28:31.397Z</time></trkpt><trkpt lat="41.4960129" lon="12.9929203"><ele>7.0</ele><time>2026-05-03T11:28:32.394Z</time></trkpt><trkpt lat="41.4961281" lon="12.9927694"><ele>7.0</ele><time>2026-05-03T11:28:33.394Z</time></trkpt><trkpt lat="41.4962318" lon="12.9926196"><ele>7.0</ele><time>2026-05-03T11:28:34.424Z</time></trkpt><trkpt lat="41.4963177" lon="12.9924776"><ele>7.6</ele><time>2026-05-03T11:28:35.392Z</time></trkpt><trkpt lat="41.4963874" lon="12.992349"><ele>8.2</ele><time>2026-05-03T11:28:36.389Z</time></trkpt><trkpt lat="41.4964452" lon="12.9922281"><ele>8.8</ele><time>2026-05-03T11:28:37.399Z</time></trkpt><trkpt lat="41.4964906" lon="12.9921208"><ele>9.4</ele><time>2026-05-03T11:28:38.395Z</time></trkpt><trkpt lat="41.4965332" lon="12.9920268"><ele>10.0</ele><time>2026-05-03T11:28:39.403Z</time></trkpt><trkpt lat="41.4965689" lon="12.9919443"><ele>10.0</ele><time>2026-05-03T11:28:40.402Z</time></trkpt><trkpt lat="41.496603" lon="12.9918702"><ele>10.0</ele><time>2026-05-03T11:28:41.406Z</time></trkpt><trkpt lat="41.4966581" lon="12.9917473"><ele>10.0</ele><time>2026-05-03T11:28:43.398Z</time></trkpt><trkpt lat="41.4966982" lon="12.9916489"><ele>10.0</ele><time>2026-05-03T11:28:45.41Z</time></trkpt><trkpt lat="41.4967527" lon="12.9915291"><ele>10.0</ele><time>2026-05-03T11:29:29.399Z</time></trkpt><trkpt lat="41.4967967" lon="12.9914418"><ele>10.0</ele><time>2026-05-03T11:29:30.393Z</time></trkpt><trkpt lat="41.4968571" lon="12.9913148"><ele>10.0</ele><time>2026-05-03T11:29:31.396Z</time></trkpt><trkpt lat="41.4969236" lon="12.9911649"><ele>10.0</ele><time>2026-05-03T11:29:32.391Z</time></trkpt><trkpt lat="41.4970003" lon="12.9909913"><ele>10.0</ele><time>2026-05-03T11:29:33.388Z</time></trkpt><trkpt lat="41.4970826" lon="12.990797"><ele>10.0</ele><time>2026-05-03T11:29:34.39Z</time></trkpt><trkpt lat="41.4971702" lon="12.990591"><ele>9.666666666666668</ele><time>2026-05-03T11:29:35.39Z</time></trkpt><trkpt lat="41.4972586" lon="12.9903939"><ele>9.333333333333334</ele><time>2026-05-03T11:29:36.394Z</time></trkpt><trkpt lat="41.4973542" lon="12.9902046"><ele>9.0</ele><time>2026-05-03T11:29:37.394Z</time></trkpt><trkpt lat="41.4974804" lon="12.9900171"><ele>8.5</ele><time>2026-05-03T11:29:38.391Z</time></trkpt><trkpt lat="41.4976273" lon="12.9898172"><ele>8.0</ele><time>2026-05-03T11:29:39.392Z</time></trkpt><trkpt lat="41.497817" lon="12.9896029"><ele>8.0</ele><time>2026-05-03T11:29:40.386Z</time></trkpt><trkpt lat="41.4980403" lon="12.9893656"><ele>8.0</ele><time>2026-05-03T11:29:41.393Z</time></trkpt><trkpt lat="41.498289" lon="12.9891043"><ele>7.5</ele><time>2026-05-03T11:29:42.393Z</time></trkpt><trkpt lat="41.4985648" lon="12.9888224"><ele>7.0</ele><time>2026-05-03T11:29:43.393Z</time></trkpt><trkpt lat="41.4988461" lon="12.9885311"><ele>7.0</ele><time>2026-05-03T11:29:44.391Z</time></trkpt><trkpt lat="41.4990956" lon="12.988272"><ele>7.0</ele><time>2026-05-03T11:29:45.387Z</time></trkpt><trkpt lat="41.49935" lon="12.9880149"><ele>7.0</ele><time>2026-05-03T11:29:46.405Z</time></trkpt><trkpt lat="41.4995854" lon="12.9877685"><ele>7.0</ele><time>2026-05-03T11:29:47.399Z</time></trkpt><trkpt lat="41.499806" lon="12.9875365"><ele>7.5</ele><time>2026-05-03T11:29:48.395Z</time></trkpt><trkpt lat="41.5000255" lon="12.9873068"><ele>8.0</ele><time>2026-05-03T11:29:49.402Z</time></trkpt><trkpt lat="41.5002447" lon="12.987081"><ele>8.5</ele><time>2026-05-03T11:29:50.392Z</time></trkpt><trkpt lat="41.5004566" lon="12.9868632"><ele>9.0</ele><time>2026-05-03T11:29:51.402Z</time></trkpt><trkpt lat="41.5006639" lon="12.9866488"><ele>9.0</ele><time>2026-05-03T11:29:52.397Z</time></trkpt><trkpt lat="41.5008653" lon="12.98644"><ele>9.0</ele><time>2026-05-03T11:29:53.393Z</time></trkpt><trkpt lat="41.5010616" lon="12.9862327"><ele>9.5</ele><time>2026-05-03T11:29:54.398Z</time></trkpt><trkpt lat="41.5012626" lon="12.986023"><ele>10.0</ele><time>2026-05-03T11:29:55.406Z</time></trkpt><trkpt lat="41.5014572" lon="12.9858168"><ele>10.0</ele><time>2026-05-03T11:29:56.398Z</time></trkpt><trkpt lat="41.5016481" lon="12.9856223"><ele>10.0</ele><time>2026-05-03T11:29:57.398Z</time></trkpt><trkpt lat="41.5018406" lon="12.9854273"><ele>10.0</ele><time>2026-05-03T11:29:58.393Z</time></trkpt><trkpt lat="41.502042" lon="12.9852406"><ele>10.0</ele><time>2026-05-03T11:29:59.394Z</time></trkpt><trkpt lat="41.5022522" lon="12.9850648"><ele>8.5</ele><time>2026-05-03T11:30:00.398Z</time></trkpt><trkpt lat="41.5024733" lon="12.9848991"><ele>7.0</ele><time>2026-05-03T11:30:01.395Z</time></trkpt><trkpt lat="41.5026936" lon="12.9847388"><ele>7.0</ele><time>2026-05-03T11:30:02.394Z</time></trkpt><trkpt lat="41.5029111" lon="12.984583"><ele>7.0</ele><time>2026-05-03T11:30:03.393Z</time></trkpt><trkpt lat="41.5031204" lon="12.984432"><ele>6.5</ele><time>2026-05-03T11:30:04.414Z</time></trkpt><trkpt lat="41.5033253" lon="12.9842815"><ele>6.0</ele><time>2026-05-03T11:30:05.395Z</time></trkpt><trkpt lat="41.5035279" lon="12.9841361"><ele>6.0</ele><time>2026-05-03T11:30:06.402Z</time></trkpt><trkpt lat="41.5037179" lon="12.9839963"><ele>6.0</ele><time>2026-05-03T11:30:07.402Z</time></trkpt><trkpt lat="41.5039033" lon="12.9838646"><ele>6.0</ele><time>2026-05-03T11:30:08.395Z</time></trkpt><trkpt lat="41.5040852" lon="12.9837307"><ele>6.0</ele><time>2026-05-03T11:30:09.401Z</time></trkpt><trkpt lat="41.5042642" lon="12.983601"><ele>6.0</ele><time>2026-05-03T11:30:10.403Z</time></trkpt><trkpt lat="41.5044443" lon="12.9834729"><ele>6.0</ele><time>2026-05-03T11:30:11.421Z</time></trkpt><trkpt lat="41.5046209" lon="12.9833502"><ele>7.0</ele><time>2026-05-03T11:30:12.407Z</time></trkpt><trkpt lat="41.5047929" lon="12.983228"><ele>8.0</ele><time>2026-05-03T11:30:13.412Z</time></trkpt><trkpt lat="41.5049618" lon="12.9831067"><ele>9.0</ele><time>2026-05-03T11:30:14.393Z</time></trkpt><trkpt lat="41.5051267" lon="12.982987"><ele>9.0</ele><time>2026-05-03T11:30:15.388Z</time></trkpt><trkpt lat="41.5052887" lon="12.9828675"><ele>9.0</ele><time>2026-05-03T11:30:16.393Z</time></trkpt><trkpt lat="41.5054436" lon="12.9827577"><ele>9.0</ele><time>2026-05-03T11:30:17.394Z</time></trkpt><trkpt lat="41.5055889" lon="12.9826466"><ele>9.0</ele><time>2026-05-03T11:30:18.394Z</time></trkpt><trkpt lat="41.5057339" lon="12.9825433"><ele>9.0</ele><time>2026-05-03T11:30:19.392Z</time></trkpt><trkpt lat="41.5058707" lon="12.9824421"><ele>9.0</ele><time>2026-05-03T11:30:20.409Z</time></trkpt><trkpt lat="41.5060014" lon="12.9823513"><ele>9.0</ele><time>2026-05-03T11:30:21.406Z</time></trkpt><trkpt lat="41.5061368" lon="12.9822572"><ele>9.0</ele><time>2026-05-03T11:30:22.396Z</time></trkpt><trkpt lat="41.5062865" lon="12.9821468"><ele>9.0</ele><time>2026-05-03T11:30:23.408Z</time></trkpt><trkpt lat="41.5064421" lon="12.982036"><ele>9.0</ele><time>2026-05-03T11:30:24.409Z</time></trkpt><trkpt lat="41.5066018" lon="12.9819227"><ele>9.0</ele><time>2026-05-03T11:30:25.41Z</time></trkpt><trkpt lat="41.5067663" lon="12.9818156"><ele>9.0</ele><time>2026-05-03T11:30:26.407Z</time></trkpt><trkpt lat="41.5069444" lon="12.9817195"><ele>9.333333333333334</ele><time>2026-05-03T11:30:27.405Z</time></trkpt><trkpt lat="41.5071431" lon="12.9816329"><ele>9.666666666666668</ele><time>2026-05-03T11:30:28.402Z</time></trkpt><trkpt lat="41.5073698" lon="12.9815496"><ele>10.0</ele><time>2026-05-03T11:30:29.408Z</time></trkpt><trkpt lat="41.5076187" lon="12.981465"><ele>10.0</ele><time>2026-05-03T11:30:30.405Z</time></trkpt><trkpt lat="41.5078826" lon="12.9813773"><ele>10.0</ele><time>2026-05-03T11:30:31.4Z</time></trkpt><trkpt lat="41.5081517" lon="12.9812866"><ele>10.0</ele><time>2026-05-03T11:30:32.4Z</time></trkpt><trkpt lat="41.5084176" lon="12.9811925"><ele>10.0</ele><time>2026-05-03T11:30:33.405Z</time></trkpt><trkpt lat="41.5086646" lon="12.9811044"><ele>9.5</ele><time>2026-05-03T11:30:34.394Z</time></trkpt><trkpt lat="41.5089032" lon="12.9810184"><ele>9.0</ele><time>2026-05-03T11:30:35.399Z</time></trkpt><trkpt lat="41.5091256" lon="12.9809408"><ele>9.0</ele><time>2026-05-03T11:30:36.41Z</time></trkpt><trkpt lat="41.5093331" lon="12.9808652"><ele>9.0</ele><time>2026-05-03T11:30:37.407Z</time></trkpt><trkpt lat="41.5095263" lon="12.9807998"><ele>9.0</ele><time>2026-05-03T11:30:38.416Z</time></trkpt><trkpt lat="41.5097153" lon="12.9807358"><ele>9.0</ele><time>2026-05-03T11:30:39.393Z</time></trkpt><trkpt lat="41.5099117" lon="12.9806651"><ele>9.0</ele><time>2026-05-03T11:30:40.408Z</time></trkpt><trkpt lat="41.510104" lon="12.9805985"><ele>9.0</ele><time>2026-05-03T11:30:41.414Z</time></trkpt><trkpt lat="41.5103081" lon="12.9805259"><ele>9.333333333333334</ele><time>2026-05-03T11:30:42.405Z</time></trkpt><trkpt lat="41.5105153" lon="12.9804554"><ele>9.666666666666668</ele><time>2026-05-03T11:30:43.407Z</time></trkpt><trkpt lat="41.5107049" lon="12.9803883"><ele>10.0</ele><time>2026-05-03T11:30:44.411Z</time></trkpt><trkpt lat="41.5108863" lon="12.9803213"><ele>10.0</ele><time>2026-05-03T11:30:45.396Z</time></trkpt><trkpt lat="41.5110717" lon="12.980255"><ele>10.0</ele><time>2026-05-03T11:30:46.394Z</time></trkpt><trkpt lat="41.5112519" lon="12.9801856"><ele>10.0</ele><time>2026-05-03T11:30:47.404Z</time></trkpt><trkpt lat="41.511432" lon="12.9801194"><ele>10.0</ele><time>2026-05-03T11:30:48.4Z</time></trkpt><trkpt lat="41.5116114" lon="12.9800552"><ele>10.0</ele><time>2026-05-03T11:30:49.395Z</time></trkpt><trkpt lat="41.511803" lon="12.9799854"><ele>10.0</ele><time>2026-05-03T11:30:50.401Z</time></trkpt><trkpt lat="41.5119947" lon="12.9799093"><ele>10.0</ele><time>2026-05-03T11:30:51.404Z</time></trkpt><trkpt lat="41.5121983" lon="12.9798276"><ele>10.0</ele><time>2026-05-03T11:30:52.395Z</time></trkpt><trkpt lat="41.5124114" lon="12.9797449"><ele>10.0</ele><time>2026-05-03T11:30:53.405Z</time></trkpt><trkpt lat="41.5126252" lon="12.9796698"><ele>10.0</ele><time>2026-05-03T11:30:54.394Z</time></trkpt><trkpt lat="41.5128391" lon="12.9795997"><ele>10.0</ele><time>2026-05-03T11:30:55.402Z</time></trkpt><trkpt lat="41.5130403" lon="12.9795371"><ele>10.0</ele><time>2026-05-03T11:30:56.403Z</time></trkpt><trkpt lat="41.5132311" lon="12.9794733"><ele>10.0</ele><time>2026-05-03T11:30:57.407Z</time></trkpt><trkpt lat="41.5134156" lon="12.979407"><ele>10.0</ele><time>2026-05-03T11:30:58.395Z</time></trkpt><trkpt lat="41.5135866" lon="12.9793463"><ele>10.0</ele><time>2026-05-03T11:30:59.394Z</time></trkpt><trkpt lat="41.513747" lon="12.9792878"><ele>10.0</ele><time>2026-05-03T11:31:00.405Z</time></trkpt><trkpt lat="41.5139088" lon="12.9792333"><ele>10.0</ele><time>2026-05-03T11:31:01.394Z</time></trkpt><trkpt lat="41.5140654" lon="12.9791792"><ele>10.0</ele><time>2026-05-03T11:31:02.401Z</time></trkpt><trkpt lat="41.5142144" lon="12.9791267"><ele>10.333333333333334</ele><time>2026-05-03T11:31:03.403Z</time></trkpt><trkpt lat="41.5143609" lon="12.9790738"><ele>10.666666666666666</ele><time>2026-05-03T11:31:04.394Z</time></trkpt><trkpt lat="41.51451" lon="12.9790139"><ele>11.0</ele><time>2026-05-03T11:31:05.411Z</time></trkpt><trkpt lat="41.5146459" lon="12.9789388"><ele>11.0</ele><time>2026-05-03T11:31:06.403Z</time></trkpt><trkpt lat="41.5147734" lon="12.9788538"><ele>11.0</ele><time>2026-05-03T11:31:07.389Z</time></trkpt><trkpt lat="41.5149004" lon="12.9787524"><ele>11.0</ele><time>2026-05-03T11:31:08.396Z</time></trkpt><trkpt lat="41.5150246" lon="12.9786113"><ele>11.0</ele><time>2026-05-03T11:31:09.399Z</time></trkpt><trkpt lat="41.5151532" lon="12.9784604"><ele>11.0</ele><time>2026-05-03T11:31:10.391Z</time></trkpt><trkpt lat="41.5152781" lon="12.9783119"><ele>11.0</ele><time>2026-05-03T11:31:11.405Z</time></trkpt><trkpt lat="41.5153986" lon="12.9781679"><ele>11.333333333333332</ele><time>2026-05-03T11:31:12.402Z</time></trkpt><trkpt lat="41.5155103" lon="12.9780296"><ele>11.666666666666666</ele><time>2026-05-03T11:31:13.395Z</time></trkpt><trkpt lat="41.5156259" lon="12.9778845"><ele>12.0</ele><time>2026-05-03T11:31:14.396Z</time></trkpt><trkpt lat="41.5157338" lon="12.9777459"><ele>12.0</ele><time>2026-05-03T11:31:15.4Z</time></trkpt><trkpt lat="41.5158376" lon="12.9776142"><ele>12.0</ele><time>2026-05-03T11:31:16.402Z</time></trkpt><trkpt lat="41.5159495" lon="12.9774741"><ele>12.0</ele><time>2026-05-03T11:31:17.397Z</time></trkpt><trkpt lat="41.516063" lon="12.977327"><ele>12.0</ele><time>2026-05-03T11:31:18.39Z</time></trkpt><trkpt lat="41.5161904" lon="12.9771546"><ele>12.0</ele><time>2026-05-03T11:31:19.398Z</time></trkpt><trkpt lat="41.5163337" lon="12.9769701"><ele>12.0</ele><time>2026-05-03T11:31:20.396Z</time></trkpt><trkpt lat="41.5164895" lon="12.9767768"><ele>13.0</ele><time>2026-05-03T11:31:21.389Z</time></trkpt><trkpt lat="41.516656" lon="12.9765902"><ele>14.0</ele><time>2026-05-03T11:31:22.4Z</time></trkpt><trkpt lat="41.5168071" lon="12.9763948"><ele>15.0</ele><time>2026-05-03T11:31:23.395Z</time></trkpt><trkpt lat="41.5169673" lon="12.9762059"><ele>14.666666666666668</ele><time>2026-05-03T11:31:24.41Z</time></trkpt><trkpt lat="41.5171142" lon="12.9760242"><ele>14.333333333333334</ele><time>2026-05-03T11:31:25.411Z</time></trkpt><trkpt lat="41.5172599" lon="12.9758358"><ele>14.0</ele><time>2026-05-03T11:31:26.391Z</time></trkpt><trkpt lat="41.5174012" lon="12.9756578"><ele>14.0</ele><time>2026-05-03T11:31:27.54Z</time></trkpt><trkpt lat="41.5176814" lon="12.9753129"><ele>14.0</ele><time>2026-05-03T11:31:29.409Z</time></trkpt><trkpt lat="41.5178256" lon="12.9751297"><ele>14.0</ele><time>2026-05-03T11:31:30.393Z</time></trkpt><trkpt lat="41.5179714" lon="12.9749486"><ele>14.0</ele><time>2026-05-03T11:31:31.394Z</time></trkpt><trkpt lat="41.5181229" lon="12.9747664"><ele>14.0</ele><time>2026-05-03T11:31:32.394Z</time></trkpt><trkpt lat="41.5182758" lon="12.9745814"><ele>14.0</ele><time>2026-05-03T11:31:33.401Z</time></trkpt><trkpt lat="41.5184279" lon="12.9743939"><ele>14.0</ele><time>2026-05-03T11:31:34.402Z</time></trkpt><trkpt lat="41.5185703" lon="12.9742218"><ele>14.0</ele><time>2026-05-03T11:31:35.398Z</time></trkpt><trkpt lat="41.5187137" lon="12.9740499"><ele>14.333333333333334</ele><time>2026-05-03T11:31:36.395Z</time></trkpt><trkpt lat="41.518854" lon="12.9738683"><ele>14.666666666666668</ele><time>2026-05-03T11:31:37.396Z</time></trkpt><trkpt lat="41.5189902" lon="12.9736871"><ele>15.0</ele><time>2026-05-03T11:31:38.39Z</time></trkpt><trkpt lat="41.5191369" lon="12.9735021"><ele>15.666666666666668</ele><time>2026-05-03T11:31:39.402Z</time></trkpt><trkpt lat="41.5192805" lon="12.9733293"><ele>16.333333333333336</ele><time>2026-05-03T11:31:40.405Z</time></trkpt><trkpt lat="41.5194321" lon="12.9731516"><ele>17.0</ele><time>2026-05-03T11:31:41.395Z</time></trkpt><trkpt lat="41.5195784" lon="12.9729663"><ele>17.0</ele><time>2026-05-03T11:31:42.403Z</time></trkpt><trkpt lat="41.5197361" lon="12.9727771"><ele>17.0</ele><time>2026-05-03T11:31:43.394Z</time></trkpt><trkpt lat="41.5198899" lon="12.9725848"><ele>17.0</ele><time>2026-05-03T11:31:44.392Z</time></trkpt><trkpt lat="41.520047" lon="12.9723895"><ele>17.0</ele><time>2026-05-03T11:31:45.385Z</time></trkpt><trkpt lat="41.5202083" lon="12.9721859"><ele>17.0</ele><time>2026-05-03T11:31:46.414Z</time></trkpt><trkpt lat="41.5203735" lon="12.9719842"><ele>17.0</ele><time>2026-05-03T11:31:47.401Z</time></trkpt><trkpt lat="41.5205414" lon="12.9717748"><ele>16.0</ele><time>2026-05-03T11:31:48.398Z</time></trkpt><trkpt lat="41.5207148" lon="12.9715524"><ele>15.0</ele><time>2026-05-03T11:31:49.399Z</time></trkpt><trkpt lat="41.5208929" lon="12.9713243"><ele>15.0</ele><time>2026-05-03T11:31:50.391Z</time></trkpt><trkpt lat="41.521069" lon="12.9711076"><ele>15.0</ele><time>2026-05-03T11:31:51.396Z</time></trkpt><trkpt lat="41.5212264" lon="12.9709092"><ele>14.666666666666668</ele><time>2026-05-03T11:31:52.392Z</time></trkpt><trkpt lat="41.5213658" lon="12.9707297"><ele>14.333333333333334</ele><time>2026-05-03T11:31:53.399Z</time></trkpt><trkpt lat="41.5215022" lon="12.970564"><ele>14.0</ele><time>2026-05-03T11:31:54.398Z</time></trkpt><trkpt lat="41.5216335" lon="12.9703992"><ele>14.0</ele><time>2026-05-03T11:31:55.399Z</time></trkpt><trkpt lat="41.5217568" lon="12.9702496"><ele>14.0</ele><time>2026-05-03T11:31:56.403Z</time></trkpt><trkpt lat="41.5218659" lon="12.9701187"><ele>14.0</ele><time>2026-05-03T11:31:57.394Z</time></trkpt><trkpt lat="41.5219737" lon="12.9699865"><ele>13.333333333333334</ele><time>2026-05-03T11:31:58.407Z</time></trkpt><trkpt lat="41.52209" lon="12.9698382"><ele>12.666666666666668</ele><time>2026-05-03T11:31:59.391Z</time></trkpt><trkpt lat="41.5222163" lon="12.9696768"><ele>12.0</ele><time>2026-05-03T11:32:00.394Z</time></trkpt><trkpt lat="41.5223458" lon="12.9695107"><ele>12.0</ele><time>2026-05-03T11:32:01.398Z</time></trkpt><trkpt lat="41.5224715" lon="12.9693576"><ele>12.0</ele><time>2026-05-03T11:32:02.408Z</time></trkpt><trkpt lat="41.5225868" lon="12.9692151"><ele>12.0</ele><time>2026-05-03T11:32:03.394Z</time></trkpt><trkpt lat="41.5227077" lon="12.9690596"><ele>12.0</ele><time>2026-05-03T11:32:04.388Z</time></trkpt><trkpt lat="41.522829" lon="12.9689037"><ele>12.0</ele><time>2026-05-03T11:32:05.399Z</time></trkpt><trkpt lat="41.5229542" lon="12.9687481"><ele>12.0</ele><time>2026-05-03T11:32:06.393Z</time></trkpt><trkpt lat="41.5231012" lon="12.9685642"><ele>12.0</ele><time>2026-05-03T11:32:07.391Z</time></trkpt><trkpt lat="41.5232664" lon="12.9683609"><ele>12.0</ele><time>2026-05-03T11:32:08.39Z</time></trkpt><trkpt lat="41.523432" lon="12.9681669"><ele>12.0</ele><time>2026-05-03T11:32:09.401Z</time></trkpt><trkpt lat="41.5235763" lon="12.9679869"><ele>12.0</ele><time>2026-05-03T11:32:10.407Z</time></trkpt><trkpt lat="41.5237123" lon="12.9678188"><ele>12.0</ele><time>2026-05-03T11:32:11.394Z</time></trkpt><trkpt lat="41.5238375" lon="12.9676596"><ele>12.0</ele><time>2026-05-03T11:32:12.39Z</time></trkpt><trkpt lat="41.5239639" lon="12.9675028"><ele>12.0</ele><time>2026-05-03T11:32:13.388Z</time></trkpt><trkpt lat="41.5240748" lon="12.9673612"><ele>12.0</ele><time>2026-05-03T11:32:14.4Z</time></trkpt><trkpt lat="41.5241869" lon="12.9672217"><ele>12.0</ele><time>2026-05-03T11:32:15.407Z</time></trkpt><trkpt lat="41.5242903" lon="12.9670933"><ele>12.0</ele><time>2026-05-03T11:32:16.406Z</time></trkpt><trkpt lat="41.5243943" lon="12.9669625"><ele>12.0</ele><time>2026-05-03T11:32:17.395Z</time></trkpt><trkpt lat="41.5244927" lon="12.9668377"><ele>12.0</ele><time>2026-05-03T11:32:18.401Z</time></trkpt><trkpt lat="41.5245865" lon="12.9667226"><ele>12.0</ele><time>2026-05-03T11:32:19.395Z</time></trkpt><trkpt lat="41.524673" lon="12.9666157"><ele>12.0</ele><time>2026-05-03T11:32:20.396Z</time></trkpt><trkpt lat="41.5247596" lon="12.9665062"><ele>11.5</ele><time>2026-05-03T11:32:21.407Z</time></trkpt><trkpt lat="41.5248507" lon="12.9663933"><ele>11.0</ele><time>2026-05-03T11:32:22.396Z</time></trkpt><trkpt lat="41.5249405" lon="12.9662815"><ele>10.5</ele><time>2026-05-03T11:32:23.408Z</time></trkpt><trkpt lat="41.5250458" lon="12.9661503"><ele>10.0</ele><time>2026-05-03T11:32:24.393Z</time></trkpt><trkpt lat="41.5251645" lon="12.9659937"><ele>10.666666666666668</ele><time>2026-05-03T11:32:25.394Z</time></trkpt><trkpt lat="41.5253104" lon="12.9658083"><ele>11.333333333333334</ele><time>2026-05-03T11:32:26.396Z</time></trkpt><trkpt lat="41.5254929" lon="12.9655845"><ele>12.0</ele><time>2026-05-03T11:32:27.407Z</time></trkpt><trkpt lat="41.525702" lon="12.9653333"><ele>12.0</ele><time>2026-05-03T11:32:28.398Z</time></trkpt><trkpt lat="41.5259378" lon="12.9650499"><ele>12.0</ele><time>2026-05-03T11:32:29.405Z</time></trkpt><trkpt lat="41.5261874" lon="12.9647509"><ele>11.5</ele><time>2026-05-03T11:32:30.388Z</time></trkpt><trkpt lat="41.5264218" lon="12.9644636"><ele>11.0</ele><time>2026-05-03T11:32:31.402Z</time></trkpt><trkpt lat="41.5266312" lon="12.9642027"><ele>13.0</ele><time>2026-05-03T11:32:32.413Z</time></trkpt><trkpt lat="41.5268248" lon="12.9639578"><ele>15.0</ele><time>2026-05-03T11:32:33.394Z</time></trkpt><trkpt lat="41.5270075" lon="12.9637302"><ele>15.0</ele><time>2026-05-03T11:32:34.409Z</time></trkpt><trkpt lat="41.5271864" lon="12.9635023"><ele>15.0</ele><time>2026-05-03T11:32:35.394Z</time></trkpt><trkpt lat="41.5273692" lon="12.9632751"><ele>14.0</ele><time>2026-05-03T11:32:36.408Z</time></trkpt><trkpt lat="41.5275469" lon="12.9630379"><ele>13.0</ele><time>2026-05-03T11:32:37.394Z</time></trkpt><trkpt lat="41.5277237" lon="12.9627827"><ele>11.5</ele><time>2026-05-03T11:32:38.386Z</time></trkpt><trkpt lat="41.5279037" lon="12.9625124"><ele>10.0</ele><time>2026-05-03T11:32:39.413Z</time></trkpt><trkpt lat="41.5280809" lon="12.962229"><ele>10.0</ele><time>2026-05-03T11:32:40.418Z</time></trkpt><trkpt lat="41.5282506" lon="12.9619491"><ele>10.0</ele><time>2026-05-03T11:32:41.411Z</time></trkpt><trkpt lat="41.5284044" lon="12.9616999"><ele>10.0</ele><time>2026-05-03T11:32:42.41Z</time></trkpt><trkpt lat="41.5285472" lon="12.9614633"><ele>10.0</ele><time>2026-05-03T11:32:43.409Z</time></trkpt><trkpt lat="41.5286827" lon="12.9612392"><ele>10.0</ele><time>2026-05-03T11:32:44.406Z</time></trkpt><trkpt lat="41.5288072" lon="12.961021"><ele>10.333333333333334</ele><time>2026-05-03T11:32:45.411Z</time></trkpt><trkpt lat="41.5289214" lon="12.9608027"><ele>10.666666666666666</ele><time>2026-05-03T11:32:46.39Z</time></trkpt><trkpt lat="41.5290205" lon="12.960579"><ele>11.0</ele><time>2026-05-03T11:32:47.395Z</time></trkpt><trkpt lat="41.5291038" lon="12.9603344"><ele>11.0</ele><time>2026-05-03T11:32:48.392Z</time></trkpt><trkpt lat="41.5291754" lon="12.9600586"><ele>11.0</ele><time>2026-05-03T11:32:49.402Z</time></trkpt><trkpt lat="41.5292455" lon="12.9597529"><ele>11.5</ele><time>2026-05-03T11:32:50.431Z</time></trkpt><trkpt lat="41.5293193" lon="12.9594133"><ele>12.0</ele><time>2026-05-03T11:32:51.401Z</time></trkpt><trkpt lat="41.529398" lon="12.9590519"><ele>12.0</ele><time>2026-05-03T11:32:52.415Z</time></trkpt><trkpt lat="41.5294795" lon="12.9586787"><ele>12.0</ele><time>2026-05-03T11:32:53.407Z</time></trkpt><trkpt lat="41.5295654" lon="12.9582949"><ele>12.0</ele><time>2026-05-03T11:32:54.403Z</time></trkpt><trkpt lat="41.5296453" lon="12.9579206"><ele>12.0</ele><time>2026-05-03T11:32:55.402Z</time></trkpt><trkpt lat="41.5297228" lon="12.9575727"><ele>13.5</ele><time>2026-05-03T11:32:56.394Z</time></trkpt><trkpt lat="41.5297967" lon="12.9572504"><ele>15.0</ele><time>2026-05-03T11:32:57.397Z</time></trkpt><trkpt lat="41.5299245" lon="12.9566716"><ele>15.0</ele><time>2026-05-03T11:32:59.401Z</time></trkpt><trkpt lat="41.5299821" lon="12.9564086"><ele>15.0</ele><time>2026-05-03T11:33:00.416Z</time></trkpt><trkpt lat="41.5300374" lon="12.9561709"><ele>15.0</ele><time>2026-05-03T11:33:01.39Z</time></trkpt><trkpt lat="41.5300896" lon="12.9559456"><ele>15.666666666666668</ele><time>2026-05-03T11:33:02.419Z</time></trkpt><trkpt lat="41.5301389" lon="12.9557239"><ele>16.333333333333336</ele><time>2026-05-03T11:33:03.388Z</time></trkpt><trkpt lat="41.5301864" lon="12.9555082"><ele>17.0</ele><time>2026-05-03T11:33:04.393Z</time></trkpt><trkpt lat="41.5302309" lon="12.9553079"><ele>17.0</ele><time>2026-05-03T11:33:05.391Z</time></trkpt><trkpt lat="41.5302735" lon="12.955114"><ele>17.0</ele><time>2026-05-03T11:33:06.393Z</time></trkpt><trkpt lat="41.5303105" lon="12.9549339"><ele>17.0</ele><time>2026-05-03T11:33:07.394Z</time></trkpt><trkpt lat="41.5303497" lon="12.954767"><ele>17.0</ele><time>2026-05-03T11:33:08.392Z</time></trkpt><trkpt lat="41.5303861" lon="12.9546123"><ele>17.0</ele><time>2026-05-03T11:33:09.396Z</time></trkpt><trkpt lat="41.5304103" lon="12.9544667"><ele>17.0</ele><time>2026-05-03T11:33:10.392Z</time></trkpt><trkpt lat="41.5304217" lon="12.9543337"><ele>17.0</ele><time>2026-05-03T11:33:11.393Z</time></trkpt><trkpt lat="41.5304235" lon="12.9542061"><ele>17.0</ele><time>2026-05-03T11:33:12.397Z</time></trkpt><trkpt lat="41.5304138" lon="12.9541159"><ele>17.0</ele><time>2026-05-03T11:33:13.397Z</time></trkpt><trkpt lat="41.5304169" lon="12.9540211"><ele>17.0</ele><time>2026-05-03T11:33:14.394Z</time></trkpt><trkpt lat="41.530434" lon="12.9539123"><ele>17.0</ele><time>2026-05-03T11:33:15.395Z</time></trkpt><trkpt lat="41.5304333" lon="12.9537929"><ele>17.0</ele><time>2026-05-03T11:33:17.392Z</time></trkpt><trkpt lat="41.5303824" lon="12.9538603"><ele>17.0</ele><time>2026-05-03T11:33:22.395Z</time></trkpt><trkpt lat="41.5303772" lon="12.9539465"><ele>17.0</ele><time>2026-05-03T11:33:26.397Z</time></trkpt><trkpt lat="41.5303943" lon="12.9540435"><ele>17.0</ele><time>2026-05-03T11:33:42.391Z</time></trkpt><trkpt lat="41.5304418" lon="12.9541293"><ele>17.0</ele><time>2026-05-03T11:33:45.407Z</time></trkpt><trkpt lat="41.5305251" lon="12.9540947"><ele>17.0</ele><time>2026-05-03T11:33:47.4Z</time></trkpt><trkpt lat="41.5305636" lon="12.9539617"><ele>17.0</ele><time>2026-05-03T11:33:49.393Z</time></trkpt><trkpt lat="41.5305838" lon="12.95383"><ele>17.0</ele><time>2026-05-03T11:33:50.396Z</time></trkpt><trkpt lat="41.5306087" lon="12.9536669"><ele>17.0</ele><time>2026-05-03T11:33:51.394Z</time></trkpt><trkpt lat="41.5306419" lon="12.9534813"><ele>17.0</ele><time>2026-05-03T11:33:52.408Z</time></trkpt><trkpt lat="41.5306785" lon="12.9532931"><ele>17.0</ele><time>2026-05-03T11:33:53.401Z</time></trkpt><trkpt lat="41.5307178" lon="12.9531158"><ele>17.0</ele><time>2026-05-03T11:33:54.402Z</time></trkpt><trkpt lat="41.5307508" lon="12.9529645"><ele>17.0</ele><time>2026-05-03T11:33:55.4Z</time></trkpt><trkpt lat="41.5307784" lon="12.9528243"><ele>17.0</ele><time>2026-05-03T11:33:56.397Z</time></trkpt><trkpt lat="41.5308073" lon="12.9527"><ele>17.0</ele><time>2026-05-03T11:33:57.401Z</time></trkpt><trkpt lat="41.5308315" lon="12.9525746"><ele>17.0</ele><time>2026-05-03T11:33:58.392Z</time></trkpt><trkpt lat="41.5308579" lon="12.952446"><ele>17.0</ele><time>2026-05-03T11:33:59.388Z</time></trkpt><trkpt lat="41.5308799" lon="12.9523215"><ele>17.0</ele><time>2026-05-03T11:34:00.392Z</time></trkpt><trkpt lat="41.5308992" lon="12.9521871"><ele>17.25</ele><time>2026-05-03T11:34:01.402Z</time></trkpt><trkpt lat="41.5309195" lon="12.9520351"><ele>17.5</ele><time>2026-05-03T11:34:02.394Z</time></trkpt><trkpt lat="41.5309351" lon="12.9518782"><ele>17.75</ele><time>2026-05-03T11:34:03.402Z</time></trkpt><trkpt lat="41.5309502" lon="12.9517235"><ele>18.0</ele><time>2026-05-03T11:34:04.393Z</time></trkpt><trkpt lat="41.5309612" lon="12.9515807"><ele>18.0</ele><time>2026-05-03T11:34:05.409Z</time></trkpt><trkpt lat="41.5309781" lon="12.9514229"><ele>18.0</ele><time>2026-05-03T11:34:06.402Z</time></trkpt><trkpt lat="41.5309969" lon="12.9512667"><ele>18.0</ele><time>2026-05-03T11:34:07.402Z</time></trkpt><trkpt lat="41.5310131" lon="12.9511094"><ele>18.0</ele><time>2026-05-03T11:34:08.404Z</time></trkpt><trkpt lat="41.5310311" lon="12.9509526"><ele>18.0</ele><time>2026-05-03T11:34:09.407Z</time></trkpt><trkpt lat="41.5310499" lon="12.9507913"><ele>18.0</ele><time>2026-05-03T11:34:10.406Z</time></trkpt><trkpt lat="41.531066" lon="12.9506258"><ele>18.0</ele><time>2026-05-03T11:34:11.399Z</time></trkpt><trkpt lat="41.5310825" lon="12.9504537"><ele>18.0</ele><time>2026-05-03T11:34:12.422Z</time></trkpt><trkpt lat="41.5311018" lon="12.95028"><ele>18.0</ele><time>2026-05-03T11:34:13.397Z</time></trkpt><trkpt lat="41.5311194" lon="12.9501044"><ele>18.0</ele><time>2026-05-03T11:34:14.401Z</time></trkpt><trkpt lat="41.531139" lon="12.9499304"><ele>18.0</ele><time>2026-05-03T11:34:15.391Z</time></trkpt><trkpt lat="41.5311595" lon="12.9497506"><ele>18.0</ele><time>2026-05-03T11:34:16.394Z</time></trkpt><trkpt lat="41.5311791" lon="12.9495692"><ele>18.0</ele><time>2026-05-03T11:34:17.396Z</time></trkpt><trkpt lat="41.531201" lon="12.9493834"><ele>18.0</ele><time>2026-05-03T11:34:18.407Z</time></trkpt><trkpt lat="41.5312226" lon="12.9491984"><ele>18.0</ele><time>2026-05-03T11:34:19.392Z</time></trkpt><trkpt lat="41.5312399" lon="12.9490072"><ele>18.0</ele><time>2026-05-03T11:34:20.395Z</time></trkpt><trkpt lat="41.5312597" lon="12.948813"><ele>18.0</ele><time>2026-05-03T11:34:21.393Z</time></trkpt><trkpt lat="41.5312786" lon="12.9486185"><ele>18.0</ele><time>2026-05-03T11:34:22.395Z</time></trkpt><trkpt lat="41.5312991" lon="12.9484206"><ele>18.0</ele><time>2026-05-03T11:34:23.396Z</time></trkpt><trkpt lat="41.5313196" lon="12.9482274"><ele>18.0</ele><time>2026-05-03T11:34:24.391Z</time></trkpt><trkpt lat="41.5313354" lon="12.9480423"><ele>18.0</ele><time>2026-05-03T11:34:25.391Z</time></trkpt><trkpt lat="41.5313535" lon="12.9478782"><ele>18.0</ele><time>2026-05-03T11:34:26.396Z</time></trkpt><trkpt lat="41.5313705" lon="12.9477185"><ele>18.0</ele><time>2026-05-03T11:34:27.393Z</time></trkpt><trkpt lat="41.5313897" lon="12.9475623"><ele>18.0</ele><time>2026-05-03T11:34:28.406Z</time></trkpt><trkpt lat="41.5314121" lon="12.9474109"><ele>17.75</ele><time>2026-05-03T11:34:29.389Z</time></trkpt><trkpt lat="41.5314353" lon="12.9472544"><ele>17.5</ele><time>2026-05-03T11:34:30.396Z</time></trkpt><trkpt lat="41.5314494" lon="12.9471"><ele>17.25</ele><time>2026-05-03T11:34:31.395Z</time></trkpt><trkpt lat="41.5314644" lon="12.9469552"><ele>17.0</ele><time>2026-05-03T11:34:32.408Z</time></trkpt><trkpt lat="41.5314805" lon="12.9468056"><ele>17.2</ele><time>2026-05-03T11:34:33.394Z</time></trkpt><trkpt lat="41.5315009" lon="12.946652"><ele>17.4</ele><time>2026-05-03T11:34:34.4Z</time></trkpt><trkpt lat="41.5315262" lon="12.9465179"><ele>17.6</ele><time>2026-05-03T11:34:35.408Z</time></trkpt><trkpt lat="41.5315446" lon="12.9463924"><ele>17.8</ele><time>2026-05-03T11:34:36.392Z</time></trkpt><trkpt lat="41.5315558" lon="12.9462827"><ele>18.0</ele><time>2026-05-03T11:34:37.4Z</time></trkpt><trkpt lat="41.5315619" lon="12.9461802"><ele>18.0</ele><time>2026-05-03T11:34:38.398Z</time></trkpt><trkpt lat="41.5315848" lon="12.9460569"><ele>18.0</ele><time>2026-05-03T11:34:40.393Z</time></trkpt><trkpt lat="41.5316177" lon="12.9459652"><ele>18.0</ele><time>2026-05-03T11:34:43.397Z</time></trkpt><trkpt lat="41.5316327" lon="12.9458421"><ele>18.0</ele><time>2026-05-03T11:34:52.395Z</time></trkpt><trkpt lat="41.5316828" lon="12.9457686"><ele>18.0</ele><time>2026-05-03T11:34:54.403Z</time></trkpt><trkpt lat="41.5317879" lon="12.9457763"><ele>18.0</ele><time>2026-05-03T11:34:56.397Z</time></trkpt><trkpt lat="41.5318771" lon="12.94581"><ele>18.0</ele><time>2026-05-03T11:34:57.404Z</time></trkpt><trkpt lat="41.5319778" lon="12.9458461"><ele>18.0</ele><time>2026-05-03T11:34:58.39Z</time></trkpt><trkpt lat="41.5320888" lon="12.9458857"><ele>18.0</ele><time>2026-05-03T11:34:59.397Z</time></trkpt><trkpt lat="41.5322078" lon="12.9459273"><ele>18.0</ele><time>2026-05-03T11:35:00.396Z</time></trkpt><trkpt lat="41.5323229" lon="12.9459722"><ele>18.0</ele><time>2026-05-03T11:35:01.404Z</time></trkpt><trkpt lat="41.5324311" lon="12.9460184"><ele>18.0</ele><time>2026-05-03T11:35:02.388Z</time></trkpt><trkpt lat="41.5325356" lon="12.9460554"><ele>18.0</ele><time>2026-05-03T11:35:03.397Z</time></trkpt><trkpt lat="41.532644" lon="12.9460952"><ele>18.0</ele><time>2026-05-03T11:35:04.398Z</time></trkpt><trkpt lat="41.5327519" lon="12.9461315"><ele>18.0</ele><time>2026-05-03T11:35:05.399Z</time></trkpt><trkpt lat="41.5328585" lon="12.9461734"><ele>18.4</ele><time>2026-05-03T11:35:06.4Z</time></trkpt><trkpt lat="41.532966" lon="12.9462144"><ele>18.8</ele><time>2026-05-03T11:35:07.398Z</time></trkpt><trkpt lat="41.5330731" lon="12.9462515"><ele>19.2</ele><time>2026-05-03T11:35:08.398Z</time></trkpt><trkpt lat="41.5331836" lon="12.9462905"><ele>19.6</ele><time>2026-05-03T11:35:09.393Z</time></trkpt><trkpt lat="41.5332844" lon="12.9463278"><ele>20.0</ele><time>2026-05-03T11:35:10.395Z</time></trkpt><trkpt lat="41.5333783" lon="12.9463684"><ele>20.0</ele><time>2026-05-03T11:35:11.399Z</time></trkpt><trkpt lat="41.5334722" lon="12.9464028"><ele>20.0</ele><time>2026-05-03T11:35:12.397Z</time></trkpt><trkpt lat="41.5335588" lon="12.9464398"><ele>20.0</ele><time>2026-05-03T11:35:13.387Z</time></trkpt><trkpt lat="41.5336445" lon="12.9464757"><ele>20.0</ele><time>2026-05-03T11:35:14.394Z</time></trkpt><trkpt lat="41.5337213" lon="12.946506"><ele>20.0</ele><time>2026-05-03T11:35:15.413Z</time></trkpt><trkpt lat="41.5337975" lon="12.9465333"><ele>20.0</ele><time>2026-05-03T11:35:16.391Z</time></trkpt><trkpt lat="41.5338751" lon="12.9465663"><ele>20.0</ele><time>2026-05-03T11:35:17.39Z</time></trkpt><trkpt lat="41.533955" lon="12.9465918"><ele>20.0</ele><time>2026-05-03T11:35:18.39Z</time></trkpt><trkpt lat="41.5340264" lon="12.9466213"><ele>20.0</ele><time>2026-05-03T11:35:19.388Z</time></trkpt><trkpt lat="41.5341179" lon="12.9466564"><ele>20.0</ele><time>2026-05-03T11:35:20.395Z</time></trkpt><trkpt lat="41.534204" lon="12.9466891"><ele>20.0</ele><time>2026-05-03T11:35:21.4Z</time></trkpt><trkpt lat="41.5342973" lon="12.946718"><ele>20.0</ele><time>2026-05-03T11:35:22.402Z</time></trkpt><trkpt lat="41.5343886" lon="12.9467529"><ele>20.0</ele><time>2026-05-03T11:35:23.399Z</time></trkpt><trkpt lat="41.5344833" lon="12.946785"><ele>20.0</ele><time>2026-05-03T11:35:24.399Z</time></trkpt><trkpt lat="41.5345805" lon="12.9468205"><ele>20.0</ele><time>2026-05-03T11:35:25.407Z</time></trkpt><trkpt lat="41.5346792" lon="12.9468592"><ele>20.0</ele><time>2026-05-03T11:35:26.401Z</time></trkpt><trkpt lat="41.5347763" lon="12.9468936"><ele>20.0</ele><time>2026-05-03T11:35:27.4Z</time></trkpt><trkpt lat="41.5348792" lon="12.946933"><ele>19.5</ele><time>2026-05-03T11:35:28.409Z</time></trkpt><trkpt lat="41.5349857" lon="12.946969"><ele>19.0</ele><time>2026-05-03T11:35:29.399Z</time></trkpt><trkpt lat="41.5350944" lon="12.9470094"><ele>18.5</ele><time>2026-05-03T11:35:30.393Z</time></trkpt><trkpt lat="41.5352094" lon="12.9470545"><ele>18.0</ele><time>2026-05-03T11:35:31.408Z</time></trkpt><trkpt lat="41.5353254" lon="12.9471008"><ele>18.0</ele><time>2026-05-03T11:35:32.414Z</time></trkpt><trkpt lat="41.5354439" lon="12.9471497"><ele>18.0</ele><time>2026-05-03T11:35:33.411Z</time></trkpt><trkpt lat="41.5355621" lon="12.9472068"><ele>18.0</ele><time>2026-05-03T11:35:34.391Z</time></trkpt><trkpt lat="41.5356748" lon="12.9472475"><ele>18.0</ele><time>2026-05-03T11:35:35.404Z</time></trkpt><trkpt lat="41.5357747" lon="12.9472823"><ele>18.0</ele><time>2026-05-03T11:35:36.401Z</time></trkpt><trkpt lat="41.5358636" lon="12.9473077"><ele>18.0</ele><time>2026-05-03T11:35:37.394Z</time></trkpt><trkpt lat="41.5359429" lon="12.9473285"><ele>18.0</ele><time>2026-05-03T11:35:38.396Z</time></trkpt><trkpt lat="41.5360122" lon="12.9473501"><ele>18.0</ele><time>2026-05-03T11:35:39.39Z</time></trkpt><trkpt lat="41.5360858" lon="12.9473693"><ele>18.0</ele><time>2026-05-03T11:35:40.401Z</time></trkpt><trkpt lat="41.5361748" lon="12.9473936"><ele>18.0</ele><time>2026-05-03T11:35:41.4Z</time></trkpt><trkpt lat="41.5362728" lon="12.9474095"><ele>18.25</ele><time>2026-05-03T11:35:42.398Z</time></trkpt><trkpt lat="41.5364004" lon="12.9474309"><ele>18.5</ele><time>2026-05-03T11:35:43.404Z</time></trkpt><trkpt lat="41.5365435" lon="12.9474549"><ele>18.75</ele><time>2026-05-03T11:35:44.393Z</time></trkpt><trkpt lat="41.5366986" lon="12.9474809"><ele>19.0</ele><time>2026-05-03T11:35:45.402Z</time></trkpt><trkpt lat="41.5368744" lon="12.9475143"><ele>18.666666666666664</ele><time>2026-05-03T11:35:46.394Z</time></trkpt><trkpt lat="41.5370505" lon="12.9475626"><ele>18.333333333333332</ele><time>2026-05-03T11:35:47.402Z</time></trkpt><trkpt lat="41.5372324" lon="12.9476292"><ele>18.0</ele><time>2026-05-03T11:35:48.416Z</time></trkpt><trkpt lat="41.5373961" lon="12.9477173"><ele>18.0</ele><time>2026-05-03T11:35:49.399Z</time></trkpt><trkpt lat="41.537543" lon="12.9478036"><ele>18.0</ele><time>2026-05-03T11:35:50.397Z</time></trkpt><trkpt lat="41.5376746" lon="12.9478852"><ele>18.0</ele><time>2026-05-03T11:35:51.387Z</time></trkpt><trkpt lat="41.5377907" lon="12.9479655"><ele>18.0</ele><time>2026-05-03T11:35:52.396Z</time></trkpt><trkpt lat="41.537914" lon="12.9480433"><ele>18.333333333333332</ele><time>2026-05-03T11:35:53.396Z</time></trkpt><trkpt lat="41.5380585" lon="12.9481122"><ele>18.666666666666664</ele><time>2026-05-03T11:35:54.394Z</time></trkpt><trkpt lat="41.5382188" lon="12.9482017"><ele>19.0</ele><time>2026-05-03T11:35:55.391Z</time></trkpt><trkpt lat="41.5383911" lon="12.9483077"><ele>19.0</ele><time>2026-05-03T11:35:56.386Z</time></trkpt><trkpt lat="41.5385478" lon="12.9484049"><ele>19.0</ele><time>2026-05-03T11:35:57.393Z</time></trkpt><trkpt lat="41.538702" lon="12.9485109"><ele>19.0</ele><time>2026-05-03T11:35:58.397Z</time></trkpt><trkpt lat="41.5388423" lon="12.9486089"><ele>19.0</ele><time>2026-05-03T11:35:59.395Z</time></trkpt><trkpt lat="41.538972" lon="12.9486864"><ele>19.0</ele><time>2026-05-03T11:36:00.409Z</time></trkpt><trkpt lat="41.5390955" lon="12.9487574"><ele>19.0</ele><time>2026-05-03T11:36:01.393Z</time></trkpt><trkpt lat="41.5392139" lon="12.9488216"><ele>19.0</ele><time>2026-05-03T11:36:02.392Z</time></trkpt><trkpt lat="41.5393137" lon="12.9488744"><ele>19.0</ele><time>2026-05-03T11:36:03.397Z</time></trkpt><trkpt lat="41.5394094" lon="12.9489419"><ele>19.0</ele><time>2026-05-03T11:36:04.408Z</time></trkpt><trkpt lat="41.5395076" lon="12.9489994"><ele>19.0</ele><time>2026-05-03T11:36:05.4Z</time></trkpt><trkpt lat="41.5396208" lon="12.9490421"><ele>19.0</ele><time>2026-05-03T11:36:06.399Z</time></trkpt><trkpt lat="41.5397267" lon="12.9490873"><ele>19.0</ele><time>2026-05-03T11:36:07.387Z</time></trkpt><trkpt lat="41.5398267" lon="12.9491367"><ele>19.166666666666664</ele><time>2026-05-03T11:36:08.392Z</time></trkpt><trkpt lat="41.5399215" lon="12.9491872"><ele>19.333333333333332</ele><time>2026-05-03T11:36:09.394Z</time></trkpt><trkpt lat="41.5400058" lon="12.9492331"><ele>19.5</ele><time>2026-05-03T11:36:10.406Z</time></trkpt><trkpt lat="41.5400787" lon="12.9492762"><ele>19.666666666666668</ele><time>2026-05-03T11:36:11.392Z</time></trkpt><trkpt lat="41.5401633" lon="12.9493555"><ele>19.833333333333336</ele><time>2026-05-03T11:36:13.394Z</time></trkpt><trkpt lat="41.5401839" lon="12.9494399"><ele>20.0</ele><time>2026-05-03T11:36:15.393Z</time></trkpt><trkpt lat="41.5402209" lon="12.9495148"><ele>18.0</ele><time>2026-05-03T11:36:18.395Z</time></trkpt></trkseg></trk></gpx>